<?xml version="1.0" encoding="UTF-8"?>
<gpx version="1.1" creator="https://www.youtrack.es" xsi:schemaLocation="http://www.topografix.com/GPX/1/1 http://www.topografix.com/GPX/1/1/gpx.xsd http://www.garmin.com/xmlschemas/GpxExtensions/v3 http://www.garmin.com/xmlschemas/GpxExtensionsv3.xsd http://www.garmin.com/xmlschemas/TrackPointExtension/v1 http://www.garmin.com/xmlschemas/TrackPointExtensionv1.xsd" xmlns:gpxtpx="http://www.garmin.com/xmlschemas/TrackPointExtension/v1" xmlns:gpxx="http://www.garmin.com/xmlschemas/GpxExtensions/v3" xmlns:xsi="http://www.w3.org/2001/XMLSchema-instance">
  <metadata>
    <link href="https://www.youtrack.es">
      <text>YouTrack.es</text>
    </link>
    <time>2026-05-10T15:51:59Z</time>
  </metadata>
  <trk>
    <src>https://www.youtrack.es</src>
    <link href="https://www.youtrack.es/ruta/30841-desafio-h2-bike-minho-400">
      <text>YouTrack.es</text>
    </link>
    <trkseg>
      <trkpt lat="41.379599" lon="-8.303251">
        <ele>164.189</ele>
        <time>2020-07-14T19:50:36Z</time>
      </trkpt>
      <trkpt lat="41.379220" lon="-8.302990">
        <ele>169.006</ele>
        <time>2020-07-14T19:50:56Z</time>
      </trkpt>
      <trkpt lat="41.379020" lon="-8.302900">
        <ele>170.026</ele>
        <time>2020-07-14T19:51:16Z</time>
      </trkpt>
      <trkpt lat="41.378840" lon="-8.302890">
        <ele>170.208</ele>
        <time>2020-07-14T19:51:36Z</time>
      </trkpt>
      <trkpt lat="41.378620" lon="-8.302920">
        <ele>170.453</ele>
        <time>2020-07-14T19:51:56Z</time>
      </trkpt>
      <trkpt lat="41.378410" lon="-8.302820">
        <ele>173.040</ele>
        <time>2020-07-14T19:52:16Z</time>
      </trkpt>
      <trkpt lat="41.378110" lon="-8.302740">
        <ele>174.035</ele>
        <time>2020-07-14T19:52:36Z</time>
      </trkpt>
      <trkpt lat="41.377720" lon="-8.302530">
        <ele>178.573</ele>
        <time>2020-07-14T19:52:56Z</time>
      </trkpt>
      <trkpt lat="41.377480" lon="-8.302370">
        <ele>179.930</ele>
        <time>2020-07-14T19:53:16Z</time>
      </trkpt>
      <trkpt lat="41.377190" lon="-8.302290">
        <ele>180.580</ele>
        <time>2020-07-14T19:53:36Z</time>
      </trkpt>
      <trkpt lat="41.377180" lon="-8.302460">
        <ele>178.660</ele>
        <time>2020-07-14T19:53:56Z</time>
      </trkpt>
      <trkpt lat="41.377130" lon="-8.302540">
        <ele>177.781</ele>
        <time>2020-07-14T19:54:16Z</time>
      </trkpt>
      <trkpt lat="41.377040" lon="-8.302600">
        <ele>176.774</ele>
        <time>2020-07-14T19:54:36Z</time>
      </trkpt>
      <trkpt lat="41.376930" lon="-8.302600">
        <ele>176.856</ele>
        <time>2020-07-14T19:54:56Z</time>
      </trkpt>
      <trkpt lat="41.376630" lon="-8.302350">
        <ele>180.021</ele>
        <time>2020-07-14T19:55:16Z</time>
      </trkpt>
      <trkpt lat="41.376500" lon="-8.302280">
        <ele>178.908</ele>
        <time>2020-07-14T19:55:36Z</time>
      </trkpt>
      <trkpt lat="41.376270" lon="-8.302300">
        <ele>174.292</ele>
        <time>2020-07-14T19:55:56Z</time>
      </trkpt>
      <trkpt lat="41.376030" lon="-8.302390">
        <ele>168.089</ele>
        <time>2020-07-14T19:56:16Z</time>
      </trkpt>
      <trkpt lat="41.375920" lon="-8.302550">
        <ele>164.724</ele>
        <time>2020-07-14T19:56:36Z</time>
      </trkpt>
      <trkpt lat="41.375470" lon="-8.303780">
        <ele>159.592</ele>
        <time>2020-07-14T19:56:56Z</time>
      </trkpt>
      <trkpt lat="41.375230" lon="-8.304080">
        <ele>161.099</ele>
        <time>2020-07-14T19:57:16Z</time>
      </trkpt>
      <trkpt lat="41.375080" lon="-8.303830">
        <ele>160.299</ele>
        <time>2020-07-14T19:57:36Z</time>
      </trkpt>
      <trkpt lat="41.375020" lon="-8.303500">
        <ele>157.389</ele>
        <time>2020-07-14T19:57:56Z</time>
      </trkpt>
      <trkpt lat="41.375040" lon="-8.303030">
        <ele>156.540</ele>
        <time>2020-07-14T19:58:16Z</time>
      </trkpt>
      <trkpt lat="41.375120" lon="-8.302700">
        <ele>157.764</ele>
        <time>2020-07-14T19:58:36Z</time>
      </trkpt>
      <trkpt lat="41.375300" lon="-8.302130">
        <ele>163.606</ele>
        <time>2020-07-14T19:58:56Z</time>
      </trkpt>
      <trkpt lat="41.375330" lon="-8.301890">
        <ele>165.616</ele>
        <time>2020-07-14T19:59:16Z</time>
      </trkpt>
      <trkpt lat="41.375260" lon="-8.301510">
        <ele>168.008</ele>
        <time>2020-07-14T19:59:36Z</time>
      </trkpt>
      <trkpt lat="41.375140" lon="-8.301010">
        <ele>167.871</ele>
        <time>2020-07-14T19:59:56Z</time>
      </trkpt>
      <trkpt lat="41.375090" lon="-8.300900">
        <ele>167.128</ele>
        <time>2020-07-14T20:00:16Z</time>
      </trkpt>
      <trkpt lat="41.375020" lon="-8.300820">
        <ele>165.213</ele>
        <time>2020-07-14T20:00:36Z</time>
      </trkpt>
      <trkpt lat="41.374930" lon="-8.300760">
        <ele>164.881</ele>
        <time>2020-07-14T20:00:56Z</time>
      </trkpt>
      <trkpt lat="41.374690" lon="-8.300650">
        <ele>163.828</ele>
        <time>2020-07-14T20:01:16Z</time>
      </trkpt>
      <trkpt lat="41.374330" lon="-8.300260">
        <ele>167.458</ele>
        <time>2020-07-14T20:01:36Z</time>
      </trkpt>
      <trkpt lat="41.373660" lon="-8.299490">
        <ele>168.218</ele>
        <time>2020-07-14T20:01:56Z</time>
      </trkpt>
      <trkpt lat="41.373480" lon="-8.299030">
        <ele>171.649</ele>
        <time>2020-07-14T20:02:16Z</time>
      </trkpt>
      <trkpt lat="41.373360" lon="-8.298860">
        <ele>171.938</ele>
        <time>2020-07-14T20:02:36Z</time>
      </trkpt>
      <trkpt lat="41.373210" lon="-8.298820">
        <ele>170.270</ele>
        <time>2020-07-14T20:02:56Z</time>
      </trkpt>
      <trkpt lat="41.372890" lon="-8.298830">
        <ele>164.817</ele>
        <time>2020-07-14T20:03:16Z</time>
      </trkpt>
      <trkpt lat="41.372750" lon="-8.298790">
        <ele>162.808</ele>
        <time>2020-07-14T20:03:36Z</time>
      </trkpt>
      <trkpt lat="41.372680" lon="-8.298730">
        <ele>162.278</ele>
        <time>2020-07-14T20:03:56Z</time>
      </trkpt>
      <trkpt lat="41.372590" lon="-8.298570">
        <ele>162.615</ele>
        <time>2020-07-14T20:04:16Z</time>
      </trkpt>
      <trkpt lat="41.372200" lon="-8.297600">
        <ele>161.820</ele>
        <time>2020-07-14T20:04:36Z</time>
      </trkpt>
      <trkpt lat="41.372140" lon="-8.297400">
        <ele>163.098</ele>
        <time>2020-07-14T20:04:56Z</time>
      </trkpt>
      <trkpt lat="41.372010" lon="-8.296640">
        <ele>168.115</ele>
        <time>2020-07-14T20:05:16Z</time>
      </trkpt>
      <trkpt lat="41.371910" lon="-8.296360">
        <ele>167.345</ele>
        <time>2020-07-14T20:05:36Z</time>
      </trkpt>
      <trkpt lat="41.371730" lon="-8.296150">
        <ele>164.665</ele>
        <time>2020-07-14T20:05:56Z</time>
      </trkpt>
      <trkpt lat="41.371640" lon="-8.296080">
        <ele>163.946</ele>
        <time>2020-07-14T20:06:16Z</time>
      </trkpt>
      <trkpt lat="41.371500" lon="-8.296020">
        <ele>163.512</ele>
        <time>2020-07-14T20:06:36Z</time>
      </trkpt>
      <trkpt lat="41.371220" lon="-8.295850">
        <ele>163.632</ele>
        <time>2020-07-14T20:06:56Z</time>
      </trkpt>
      <trkpt lat="41.371120" lon="-8.295730">
        <ele>164.205</ele>
        <time>2020-07-14T20:07:16Z</time>
      </trkpt>
      <trkpt lat="41.371070" lon="-8.295590">
        <ele>164.908</ele>
        <time>2020-07-14T20:07:36Z</time>
      </trkpt>
      <trkpt lat="41.371030" lon="-8.295350">
        <ele>166.566</ele>
        <time>2020-07-14T20:07:56Z</time>
      </trkpt>
      <trkpt lat="41.371030" lon="-8.295190">
        <ele>167.153</ele>
        <time>2020-07-14T20:08:16Z</time>
      </trkpt>
      <trkpt lat="41.371050" lon="-8.295000">
        <ele>167.218</ele>
        <time>2020-07-14T20:08:36Z</time>
      </trkpt>
      <trkpt lat="41.371110" lon="-8.294760">
        <ele>166.496</ele>
        <time>2020-07-14T20:08:56Z</time>
      </trkpt>
      <trkpt lat="41.371480" lon="-8.293840">
        <ele>163.253</ele>
        <time>2020-07-14T20:09:16Z</time>
      </trkpt>
      <trkpt lat="41.371600" lon="-8.293590">
        <ele>162.023</ele>
        <time>2020-07-14T20:09:36Z</time>
      </trkpt>
      <trkpt lat="41.371790" lon="-8.293420">
        <ele>162.093</ele>
        <time>2020-07-14T20:09:56Z</time>
      </trkpt>
      <trkpt lat="41.373060" lon="-8.292610">
        <ele>158.044</ele>
        <time>2020-07-14T20:10:16Z</time>
      </trkpt>
      <trkpt lat="41.373210" lon="-8.292410">
        <ele>157.817</ele>
        <time>2020-07-14T20:10:36Z</time>
      </trkpt>
      <trkpt lat="41.373260" lon="-8.292160">
        <ele>157.587</ele>
        <time>2020-07-14T20:10:56Z</time>
      </trkpt>
      <trkpt lat="41.373180" lon="-8.290920">
        <ele>156.415</ele>
        <time>2020-07-14T20:11:16Z</time>
      </trkpt>
      <trkpt lat="41.373140" lon="-8.290790">
        <ele>156.908</ele>
        <time>2020-07-14T20:11:36Z</time>
      </trkpt>
      <trkpt lat="41.373020" lon="-8.290600">
        <ele>159.286</ele>
        <time>2020-07-14T20:11:56Z</time>
      </trkpt>
      <trkpt lat="41.372860" lon="-8.290510">
        <ele>160.843</ele>
        <time>2020-07-14T20:12:16Z</time>
      </trkpt>
      <trkpt lat="41.372650" lon="-8.290460">
        <ele>161.098</ele>
        <time>2020-07-14T20:12:36Z</time>
      </trkpt>
      <trkpt lat="41.372560" lon="-8.290400">
        <ele>161.716</ele>
        <time>2020-07-14T20:12:56Z</time>
      </trkpt>
      <trkpt lat="41.372460" lon="-8.290220">
        <ele>164.753</ele>
        <time>2020-07-14T20:13:16Z</time>
      </trkpt>
      <trkpt lat="41.372340" lon="-8.289880">
        <ele>168.093</ele>
        <time>2020-07-14T20:13:36Z</time>
      </trkpt>
      <trkpt lat="41.372220" lon="-8.289660">
        <ele>166.243</ele>
        <time>2020-07-14T20:13:56Z</time>
      </trkpt>
      <trkpt lat="41.372020" lon="-8.289390">
        <ele>163.634</ele>
        <time>2020-07-14T20:14:16Z</time>
      </trkpt>
      <trkpt lat="41.371850" lon="-8.289070">
        <ele>162.452</ele>
        <time>2020-07-14T20:14:36Z</time>
      </trkpt>
      <trkpt lat="41.371710" lon="-8.288860">
        <ele>162.353</ele>
        <time>2020-07-14T20:14:56Z</time>
      </trkpt>
      <trkpt lat="41.371080" lon="-8.288430">
        <ele>160.708</ele>
        <time>2020-07-14T20:15:16Z</time>
      </trkpt>
      <trkpt lat="41.370840" lon="-8.288280">
        <ele>158.908</ele>
        <time>2020-07-14T20:15:36Z</time>
      </trkpt>
      <trkpt lat="41.370810" lon="-8.287950">
        <ele>156.720</ele>
        <time>2020-07-14T20:15:56Z</time>
      </trkpt>
      <trkpt lat="41.370830" lon="-8.287720">
        <ele>154.167</ele>
        <time>2020-07-14T20:16:16Z</time>
      </trkpt>
      <trkpt lat="41.370890" lon="-8.287460">
        <ele>151.842</ele>
        <time>2020-07-14T20:16:36Z</time>
      </trkpt>
      <trkpt lat="41.371030" lon="-8.287130">
        <ele>152.030</ele>
        <time>2020-07-14T20:16:56Z</time>
      </trkpt>
      <trkpt lat="41.371450" lon="-8.286300">
        <ele>147.417</ele>
        <time>2020-07-14T20:17:16Z</time>
      </trkpt>
      <trkpt lat="41.371560" lon="-8.286110">
        <ele>146.027</ele>
        <time>2020-07-14T20:17:36Z</time>
      </trkpt>
      <trkpt lat="41.372060" lon="-8.285380">
        <ele>141.337</ele>
        <time>2020-07-14T20:17:56Z</time>
      </trkpt>
      <trkpt lat="41.372520" lon="-8.284040">
        <ele>139.738</ele>
        <time>2020-07-14T20:18:16Z</time>
      </trkpt>
      <trkpt lat="41.372690" lon="-8.283460">
        <ele>138.572</ele>
        <time>2020-07-14T20:18:36Z</time>
      </trkpt>
      <trkpt lat="41.372890" lon="-8.282910">
        <ele>139.613</ele>
        <time>2020-07-14T20:18:56Z</time>
      </trkpt>
      <trkpt lat="41.372940" lon="-8.282680">
        <ele>139.514</ele>
        <time>2020-07-14T20:19:16Z</time>
      </trkpt>
      <trkpt lat="41.373030" lon="-8.282090">
        <ele>139.608</ele>
        <time>2020-07-14T20:19:36Z</time>
      </trkpt>
      <trkpt lat="41.373110" lon="-8.281230">
        <ele>141.792</ele>
        <time>2020-07-14T20:19:56Z</time>
      </trkpt>
      <trkpt lat="41.373160" lon="-8.280900">
        <ele>142.559</ele>
        <time>2020-07-14T20:20:16Z</time>
      </trkpt>
      <trkpt lat="41.373310" lon="-8.280580">
        <ele>143.844</ele>
        <time>2020-07-14T20:20:36Z</time>
      </trkpt>
      <trkpt lat="41.373580" lon="-8.280150">
        <ele>144.712</ele>
        <time>2020-07-14T20:20:56Z</time>
      </trkpt>
      <trkpt lat="41.373790" lon="-8.279710">
        <ele>145.369</ele>
        <time>2020-07-14T20:21:16Z</time>
      </trkpt>
      <trkpt lat="41.373830" lon="-8.279380">
        <ele>146.279</ele>
        <time>2020-07-14T20:21:36Z</time>
      </trkpt>
      <trkpt lat="41.373810" lon="-8.278370">
        <ele>148.239</ele>
        <time>2020-07-14T20:21:56Z</time>
      </trkpt>
      <trkpt lat="41.373630" lon="-8.277760">
        <ele>153.280</ele>
        <time>2020-07-14T20:22:16Z</time>
      </trkpt>
      <trkpt lat="41.373600" lon="-8.277530">
        <ele>155.644</ele>
        <time>2020-07-14T20:22:36Z</time>
      </trkpt>
      <trkpt lat="41.373690" lon="-8.276860">
        <ele>157.905</ele>
        <time>2020-07-14T20:22:56Z</time>
      </trkpt>
      <trkpt lat="41.373790" lon="-8.276570">
        <ele>157.615</ele>
        <time>2020-07-14T20:23:16Z</time>
      </trkpt>
      <trkpt lat="41.374470" lon="-8.275140">
        <ele>149.508</ele>
        <time>2020-07-14T20:23:36Z</time>
      </trkpt>
      <trkpt lat="41.374690" lon="-8.274250">
        <ele>150.169</ele>
        <time>2020-07-14T20:23:56Z</time>
      </trkpt>
      <trkpt lat="41.374760" lon="-8.273710">
        <ele>150.146</ele>
        <time>2020-07-14T20:24:16Z</time>
      </trkpt>
      <trkpt lat="41.374870" lon="-8.273220">
        <ele>150.531</ele>
        <time>2020-07-14T20:24:36Z</time>
      </trkpt>
      <trkpt lat="41.374970" lon="-8.273040">
        <ele>150.879</ele>
        <time>2020-07-14T20:24:56Z</time>
      </trkpt>
      <trkpt lat="41.375810" lon="-8.271850">
        <ele>150.856</ele>
        <time>2020-07-14T20:25:16Z</time>
      </trkpt>
      <trkpt lat="41.375870" lon="-8.271620">
        <ele>151.056</ele>
        <time>2020-07-14T20:25:36Z</time>
      </trkpt>
      <trkpt lat="41.375880" lon="-8.271500">
        <ele>151.016</ele>
        <time>2020-07-14T20:25:56Z</time>
      </trkpt>
      <trkpt lat="41.375830" lon="-8.271330">
        <ele>151.447</ele>
        <time>2020-07-14T20:26:16Z</time>
      </trkpt>
      <trkpt lat="41.375730" lon="-8.271230">
        <ele>151.827</ele>
        <time>2020-07-14T20:26:36Z</time>
      </trkpt>
      <trkpt lat="41.375090" lon="-8.270970">
        <ele>154.768</ele>
        <time>2020-07-14T20:26:56Z</time>
      </trkpt>
      <trkpt lat="41.374520" lon="-8.271010">
        <ele>156.414</ele>
        <time>2020-07-14T20:27:16Z</time>
      </trkpt>
      <trkpt lat="41.374340" lon="-8.271000">
        <ele>156.808</ele>
        <time>2020-07-14T20:27:36Z</time>
      </trkpt>
      <trkpt lat="41.374270" lon="-8.270970">
        <ele>157.267</ele>
        <time>2020-07-14T20:27:56Z</time>
      </trkpt>
      <trkpt lat="41.374130" lon="-8.270800">
        <ele>160.644</ele>
        <time>2020-07-14T20:28:16Z</time>
      </trkpt>
      <trkpt lat="41.374090" lon="-8.270700">
        <ele>162.519</ele>
        <time>2020-07-14T20:28:36Z</time>
      </trkpt>
      <trkpt lat="41.374080" lon="-8.270580">
        <ele>164.937</ele>
        <time>2020-07-14T20:28:56Z</time>
      </trkpt>
      <trkpt lat="41.374280" lon="-8.269360">
        <ele>179.084</ele>
        <time>2020-07-14T20:29:16Z</time>
      </trkpt>
      <trkpt lat="41.374360" lon="-8.269110">
        <ele>177.174</ele>
        <time>2020-07-14T20:29:36Z</time>
      </trkpt>
      <trkpt lat="41.375370" lon="-8.267460">
        <ele>176.314</ele>
        <time>2020-07-14T20:29:56Z</time>
      </trkpt>
      <trkpt lat="41.376060" lon="-8.266400">
        <ele>164.385</ele>
        <time>2020-07-14T20:30:16Z</time>
      </trkpt>
      <trkpt lat="41.376770" lon="-8.265790">
        <ele>168.223</ele>
        <time>2020-07-14T20:30:36Z</time>
      </trkpt>
      <trkpt lat="41.377160" lon="-8.265530">
        <ele>166.083</ele>
        <time>2020-07-14T20:30:56Z</time>
      </trkpt>
      <trkpt lat="41.377270" lon="-8.265410">
        <ele>164.811</ele>
        <time>2020-07-14T20:31:16Z</time>
      </trkpt>
      <trkpt lat="41.377550" lon="-8.265080">
        <ele>165.408</ele>
        <time>2020-07-14T20:31:36Z</time>
      </trkpt>
      <trkpt lat="41.377930" lon="-8.264440">
        <ele>164.957</ele>
        <time>2020-07-14T20:31:56Z</time>
      </trkpt>
      <trkpt lat="41.378080" lon="-8.264270">
        <ele>166.654</ele>
        <time>2020-07-14T20:32:16Z</time>
      </trkpt>
      <trkpt lat="41.378290" lon="-8.264100">
        <ele>168.939</ele>
        <time>2020-07-14T20:32:36Z</time>
      </trkpt>
      <trkpt lat="41.378600" lon="-8.263710">
        <ele>163.627</ele>
        <time>2020-07-14T20:32:56Z</time>
      </trkpt>
      <trkpt lat="41.379060" lon="-8.263030">
        <ele>161.584</ele>
        <time>2020-07-14T20:33:16Z</time>
      </trkpt>
      <trkpt lat="41.379240" lon="-8.262770">
        <ele>162.874</ele>
        <time>2020-07-14T20:33:36Z</time>
      </trkpt>
      <trkpt lat="41.379800" lon="-8.262060">
        <ele>163.414</ele>
        <time>2020-07-14T20:33:56Z</time>
      </trkpt>
      <trkpt lat="41.379890" lon="-8.262000">
        <ele>164.295</ele>
        <time>2020-07-14T20:34:16Z</time>
      </trkpt>
      <trkpt lat="41.380150" lon="-8.261920">
        <ele>166.043</ele>
        <time>2020-07-14T20:34:36Z</time>
      </trkpt>
      <trkpt lat="41.380580" lon="-8.261660">
        <ele>163.164</ele>
        <time>2020-07-14T20:34:56Z</time>
      </trkpt>
      <trkpt lat="41.380950" lon="-8.261410">
        <ele>161.310</ele>
        <time>2020-07-14T20:35:16Z</time>
      </trkpt>
      <trkpt lat="41.381080" lon="-8.261240">
        <ele>158.908</ele>
        <time>2020-07-14T20:35:36Z</time>
      </trkpt>
      <trkpt lat="41.381250" lon="-8.260860">
        <ele>155.299</ele>
        <time>2020-07-14T20:35:56Z</time>
      </trkpt>
      <trkpt lat="41.381360" lon="-8.260700">
        <ele>154.456</ele>
        <time>2020-07-14T20:36:16Z</time>
      </trkpt>
      <trkpt lat="41.381610" lon="-8.260420">
        <ele>154.891</ele>
        <time>2020-07-14T20:36:36Z</time>
      </trkpt>
      <trkpt lat="41.381910" lon="-8.260260">
        <ele>157.559</ele>
        <time>2020-07-14T20:36:56Z</time>
      </trkpt>
      <trkpt lat="41.381990" lon="-8.260190">
        <ele>158.466</ele>
        <time>2020-07-14T20:37:16Z</time>
      </trkpt>
      <trkpt lat="41.382590" lon="-8.259060">
        <ele>154.876</ele>
        <time>2020-07-14T20:37:36Z</time>
      </trkpt>
      <trkpt lat="41.382870" lon="-8.258310">
        <ele>155.646</ele>
        <time>2020-07-14T20:37:56Z</time>
      </trkpt>
      <trkpt lat="41.383020" lon="-8.258090">
        <ele>156.087</ele>
        <time>2020-07-14T20:38:16Z</time>
      </trkpt>
      <trkpt lat="41.383240" lon="-8.257940">
        <ele>155.363</ele>
        <time>2020-07-14T20:38:36Z</time>
      </trkpt>
      <trkpt lat="41.384240" lon="-8.257730">
        <ele>152.044</ele>
        <time>2020-07-14T20:38:56Z</time>
      </trkpt>
      <trkpt lat="41.384470" lon="-8.257560">
        <ele>150.918</ele>
        <time>2020-07-14T20:39:16Z</time>
      </trkpt>
      <trkpt lat="41.385160" lon="-8.256900">
        <ele>146.908</ele>
        <time>2020-07-14T20:39:36Z</time>
      </trkpt>
      <trkpt lat="41.385340" lon="-8.256700">
        <ele>146.311</ele>
        <time>2020-07-14T20:39:56Z</time>
      </trkpt>
      <trkpt lat="41.386200" lon="-8.253580">
        <ele>151.628</ele>
        <time>2020-07-14T20:40:16Z</time>
      </trkpt>
      <trkpt lat="41.387920" lon="-8.250480">
        <ele>149.663</ele>
        <time>2020-07-14T20:40:36Z</time>
      </trkpt>
      <trkpt lat="41.388590" lon="-8.248960">
        <ele>147.941</ele>
        <time>2020-07-14T20:40:56Z</time>
      </trkpt>
      <trkpt lat="41.388970" lon="-8.247930">
        <ele>149.938</ele>
        <time>2020-07-14T20:41:16Z</time>
      </trkpt>
      <trkpt lat="41.389430" lon="-8.246820">
        <ele>154.388</ele>
        <time>2020-07-14T20:41:36Z</time>
      </trkpt>
      <trkpt lat="41.389680" lon="-8.246120">
        <ele>155.728</ele>
        <time>2020-07-14T20:41:56Z</time>
      </trkpt>
      <trkpt lat="41.389820" lon="-8.245810">
        <ele>156.289</ele>
        <time>2020-07-14T20:42:16Z</time>
      </trkpt>
      <trkpt lat="41.390140" lon="-8.245360">
        <ele>154.261</ele>
        <time>2020-07-14T20:42:36Z</time>
      </trkpt>
      <trkpt lat="41.390410" lon="-8.245050">
        <ele>152.121</ele>
        <time>2020-07-14T20:42:56Z</time>
      </trkpt>
      <trkpt lat="41.390730" lon="-8.244820">
        <ele>152.613</ele>
        <time>2020-07-14T20:43:16Z</time>
      </trkpt>
      <trkpt lat="41.391670" lon="-8.244250">
        <ele>152.008</ele>
        <time>2020-07-14T20:43:36Z</time>
      </trkpt>
      <trkpt lat="41.391990" lon="-8.243960">
        <ele>154.221</ele>
        <time>2020-07-14T20:43:56Z</time>
      </trkpt>
      <trkpt lat="41.392080" lon="-8.243800">
        <ele>155.628</ele>
        <time>2020-07-14T20:44:16Z</time>
      </trkpt>
      <trkpt lat="41.392110" lon="-8.243670">
        <ele>156.143</ele>
        <time>2020-07-14T20:44:36Z</time>
      </trkpt>
      <trkpt lat="41.392120" lon="-8.243060">
        <ele>155.381</ele>
        <time>2020-07-14T20:44:56Z</time>
      </trkpt>
      <trkpt lat="41.391940" lon="-8.241170">
        <ele>153.238</ele>
        <time>2020-07-14T20:45:16Z</time>
      </trkpt>
      <trkpt lat="41.391950" lon="-8.240910">
        <ele>152.368</ele>
        <time>2020-07-14T20:45:36Z</time>
      </trkpt>
      <trkpt lat="41.392000" lon="-8.240670">
        <ele>152.378</ele>
        <time>2020-07-14T20:45:56Z</time>
      </trkpt>
      <trkpt lat="41.392850" lon="-8.239150">
        <ele>156.739</ele>
        <time>2020-07-14T20:46:16Z</time>
      </trkpt>
      <trkpt lat="41.392970" lon="-8.239000">
        <ele>157.826</ele>
        <time>2020-07-14T20:46:36Z</time>
      </trkpt>
      <trkpt lat="41.393480" lon="-8.238450">
        <ele>157.447</ele>
        <time>2020-07-14T20:46:56Z</time>
      </trkpt>
      <trkpt lat="41.393600" lon="-8.238280">
        <ele>156.111</ele>
        <time>2020-07-14T20:47:16Z</time>
      </trkpt>
      <trkpt lat="41.393870" lon="-8.237590">
        <ele>153.808</ele>
        <time>2020-07-14T20:47:36Z</time>
      </trkpt>
      <trkpt lat="41.394380" lon="-8.236240">
        <ele>158.277</ele>
        <time>2020-07-14T20:47:56Z</time>
      </trkpt>
      <trkpt lat="41.394410" lon="-8.236090">
        <ele>158.434</ele>
        <time>2020-07-14T20:48:16Z</time>
      </trkpt>
      <trkpt lat="41.394510" lon="-8.234490">
        <ele>160.849</ele>
        <time>2020-07-14T20:48:36Z</time>
      </trkpt>
      <trkpt lat="41.394550" lon="-8.234260">
        <ele>162.277</ele>
        <time>2020-07-14T20:48:56Z</time>
      </trkpt>
      <trkpt lat="41.394640" lon="-8.234100">
        <ele>163.874</ele>
        <time>2020-07-14T20:49:16Z</time>
      </trkpt>
      <trkpt lat="41.395230" lon="-8.233670">
        <ele>175.464</ele>
        <time>2020-07-14T20:49:36Z</time>
      </trkpt>
      <trkpt lat="41.395350" lon="-8.233460">
        <ele>176.884</ele>
        <time>2020-07-14T20:49:56Z</time>
      </trkpt>
      <trkpt lat="41.395430" lon="-8.233160">
        <ele>179.315</ele>
        <time>2020-07-14T20:50:16Z</time>
      </trkpt>
      <trkpt lat="41.395430" lon="-8.232780">
        <ele>182.385</ele>
        <time>2020-07-14T20:50:36Z</time>
      </trkpt>
      <trkpt lat="41.395390" lon="-8.232440">
        <ele>183.889</ele>
        <time>2020-07-14T20:50:56Z</time>
      </trkpt>
      <trkpt lat="41.395450" lon="-8.231150">
        <ele>187.517</ele>
        <time>2020-07-14T20:51:16Z</time>
      </trkpt>
      <trkpt lat="41.395470" lon="-8.231020">
        <ele>187.308</ele>
        <time>2020-07-14T20:51:36Z</time>
      </trkpt>
      <trkpt lat="41.395560" lon="-8.230790">
        <ele>188.583</ele>
        <time>2020-07-14T20:51:56Z</time>
      </trkpt>
      <trkpt lat="41.396200" lon="-8.229890">
        <ele>179.150</ele>
        <time>2020-07-14T20:52:16Z</time>
      </trkpt>
      <trkpt lat="41.396410" lon="-8.229700">
        <ele>176.845</ele>
        <time>2020-07-14T20:52:36Z</time>
      </trkpt>
      <trkpt lat="41.397210" lon="-8.229260">
        <ele>174.613</ele>
        <time>2020-07-14T20:52:56Z</time>
      </trkpt>
      <trkpt lat="41.397370" lon="-8.229210">
        <ele>174.320</ele>
        <time>2020-07-14T20:53:16Z</time>
      </trkpt>
      <trkpt lat="41.397520" lon="-8.229210">
        <ele>174.970</ele>
        <time>2020-07-14T20:53:36Z</time>
      </trkpt>
      <trkpt lat="41.397670" lon="-8.229230">
        <ele>176.070</ele>
        <time>2020-07-14T20:53:56Z</time>
      </trkpt>
      <trkpt lat="41.397810" lon="-8.229270">
        <ele>177.611</ele>
        <time>2020-07-14T20:54:16Z</time>
      </trkpt>
      <trkpt lat="41.398060" lon="-8.229290">
        <ele>177.696</ele>
        <time>2020-07-14T20:54:36Z</time>
      </trkpt>
      <trkpt lat="41.398460" lon="-8.229070">
        <ele>169.031</ele>
        <time>2020-07-14T20:54:56Z</time>
      </trkpt>
      <trkpt lat="41.399030" lon="-8.228900">
        <ele>160.324</ele>
        <time>2020-07-14T20:55:16Z</time>
      </trkpt>
      <trkpt lat="41.399280" lon="-8.228790">
        <ele>158.808</ele>
        <time>2020-07-14T20:55:36Z</time>
      </trkpt>
      <trkpt lat="41.399540" lon="-8.228640">
        <ele>157.854</ele>
        <time>2020-07-14T20:55:56Z</time>
      </trkpt>
      <trkpt lat="41.400530" lon="-8.228520">
        <ele>160.331</ele>
        <time>2020-07-14T20:56:16Z</time>
      </trkpt>
      <trkpt lat="41.400800" lon="-8.228460">
        <ele>159.486</ele>
        <time>2020-07-14T20:56:36Z</time>
      </trkpt>
      <trkpt lat="41.400900" lon="-8.228480">
        <ele>159.184</ele>
        <time>2020-07-14T20:56:56Z</time>
      </trkpt>
      <trkpt lat="41.401010" lon="-8.228540">
        <ele>158.731</ele>
        <time>2020-07-14T20:57:16Z</time>
      </trkpt>
      <trkpt lat="41.401390" lon="-8.228820">
        <ele>157.041</ele>
        <time>2020-07-14T20:57:36Z</time>
      </trkpt>
      <trkpt lat="41.401570" lon="-8.228930">
        <ele>157.661</ele>
        <time>2020-07-14T20:57:56Z</time>
      </trkpt>
      <trkpt lat="41.401720" lon="-8.228980">
        <ele>158.082</ele>
        <time>2020-07-14T20:58:16Z</time>
      </trkpt>
      <trkpt lat="41.401850" lon="-8.229000">
        <ele>158.523</ele>
        <time>2020-07-14T20:58:36Z</time>
      </trkpt>
      <trkpt lat="41.401950" lon="-8.228980">
        <ele>158.383</ele>
        <time>2020-07-14T20:58:56Z</time>
      </trkpt>
      <trkpt lat="41.402060" lon="-8.228930">
        <ele>158.211</ele>
        <time>2020-07-14T20:59:16Z</time>
      </trkpt>
      <trkpt lat="41.402390" lon="-8.228620">
        <ele>156.708</ele>
        <time>2020-07-14T20:59:36Z</time>
      </trkpt>
      <trkpt lat="41.402740" lon="-8.228340">
        <ele>156.787</ele>
        <time>2020-07-14T20:59:56Z</time>
      </trkpt>
      <trkpt lat="41.403270" lon="-8.228090">
        <ele>157.784</ele>
        <time>2020-07-14T21:00:16Z</time>
      </trkpt>
      <trkpt lat="41.403340" lon="-8.228030">
        <ele>158.079</ele>
        <time>2020-07-14T21:00:36Z</time>
      </trkpt>
      <trkpt lat="41.403420" lon="-8.227840">
        <ele>158.837</ele>
        <time>2020-07-14T21:00:56Z</time>
      </trkpt>
      <trkpt lat="41.403500" lon="-8.227480">
        <ele>159.834</ele>
        <time>2020-07-14T21:01:16Z</time>
      </trkpt>
      <trkpt lat="41.403590" lon="-8.227320">
        <ele>160.724</ele>
        <time>2020-07-14T21:01:36Z</time>
      </trkpt>
      <trkpt lat="41.403680" lon="-8.227250">
        <ele>162.034</ele>
        <time>2020-07-14T21:01:56Z</time>
      </trkpt>
      <trkpt lat="41.403750" lon="-8.227220">
        <ele>163.065</ele>
        <time>2020-07-14T21:02:16Z</time>
      </trkpt>
      <trkpt lat="41.403760" lon="-8.227380">
        <ele>162.887</ele>
        <time>2020-07-14T21:02:36Z</time>
      </trkpt>
      <trkpt lat="41.403830" lon="-8.227740">
        <ele>163.442</ele>
        <time>2020-07-14T21:02:56Z</time>
      </trkpt>
      <trkpt lat="41.403940" lon="-8.227990">
        <ele>164.026</ele>
        <time>2020-07-14T21:03:16Z</time>
      </trkpt>
      <trkpt lat="41.404090" lon="-8.228210">
        <ele>165.908</ele>
        <time>2020-07-14T21:03:36Z</time>
      </trkpt>
      <trkpt lat="41.404280" lon="-8.228400">
        <ele>168.223</ele>
        <time>2020-07-14T21:03:56Z</time>
      </trkpt>
      <trkpt lat="41.404450" lon="-8.228520">
        <ele>170.080</ele>
        <time>2020-07-14T21:04:16Z</time>
      </trkpt>
      <trkpt lat="41.404660" lon="-8.228160">
        <ele>172.595</ele>
        <time>2020-07-14T21:04:36Z</time>
      </trkpt>
      <trkpt lat="41.404910" lon="-8.227820">
        <ele>172.913</ele>
        <time>2020-07-14T21:04:56Z</time>
      </trkpt>
      <trkpt lat="41.405390" lon="-8.227370">
        <ele>167.430</ele>
        <time>2020-07-14T21:05:16Z</time>
      </trkpt>
      <trkpt lat="41.405440" lon="-8.227270">
        <ele>165.170</ele>
        <time>2020-07-14T21:05:36Z</time>
      </trkpt>
      <trkpt lat="41.405470" lon="-8.227060">
        <ele>162.290</ele>
        <time>2020-07-14T21:05:56Z</time>
      </trkpt>
      <trkpt lat="41.405520" lon="-8.227000">
        <ele>161.051</ele>
        <time>2020-07-14T21:06:16Z</time>
      </trkpt>
      <trkpt lat="41.405700" lon="-8.226910">
        <ele>158.852</ele>
        <time>2020-07-14T21:06:36Z</time>
      </trkpt>
      <trkpt lat="41.405900" lon="-8.226740">
        <ele>158.553</ele>
        <time>2020-07-14T21:06:56Z</time>
      </trkpt>
      <trkpt lat="41.406150" lon="-8.226420">
        <ele>161.208</ele>
        <time>2020-07-14T21:07:16Z</time>
      </trkpt>
      <trkpt lat="41.406270" lon="-8.226330">
        <ele>162.308</ele>
        <time>2020-07-14T21:07:36Z</time>
      </trkpt>
      <trkpt lat="41.406380" lon="-8.226280">
        <ele>163.320</ele>
        <time>2020-07-14T21:07:56Z</time>
      </trkpt>
      <trkpt lat="41.406470" lon="-8.226300">
        <ele>163.687</ele>
        <time>2020-07-14T21:08:16Z</time>
      </trkpt>
      <trkpt lat="41.406610" lon="-8.226230">
        <ele>164.492</ele>
        <time>2020-07-14T21:08:36Z</time>
      </trkpt>
      <trkpt lat="41.406830" lon="-8.226010">
        <ele>165.280</ele>
        <time>2020-07-14T21:08:56Z</time>
      </trkpt>
      <trkpt lat="41.407220" lon="-8.225930">
        <ele>167.017</ele>
        <time>2020-07-14T21:09:16Z</time>
      </trkpt>
      <trkpt lat="41.407390" lon="-8.225850">
        <ele>166.457</ele>
        <time>2020-07-14T21:09:36Z</time>
      </trkpt>
      <trkpt lat="41.407750" lon="-8.225640">
        <ele>167.687</ele>
        <time>2020-07-14T21:09:56Z</time>
      </trkpt>
      <trkpt lat="41.408020" lon="-8.225330">
        <ele>170.478</ele>
        <time>2020-07-14T21:10:16Z</time>
      </trkpt>
      <trkpt lat="41.408230" lon="-8.225190">
        <ele>171.941</ele>
        <time>2020-07-14T21:10:36Z</time>
      </trkpt>
      <trkpt lat="41.408350" lon="-8.225140">
        <ele>172.681</ele>
        <time>2020-07-14T21:10:56Z</time>
      </trkpt>
      <trkpt lat="41.408630" lon="-8.225080">
        <ele>173.609</ele>
        <time>2020-07-14T21:11:16Z</time>
      </trkpt>
      <trkpt lat="41.408900" lon="-8.225000">
        <ele>173.008</ele>
        <time>2020-07-14T21:11:36Z</time>
      </trkpt>
      <trkpt lat="41.408970" lon="-8.224940">
        <ele>172.869</ele>
        <time>2020-07-14T21:11:56Z</time>
      </trkpt>
      <trkpt lat="41.409200" lon="-8.224590">
        <ele>173.946</ele>
        <time>2020-07-14T21:12:16Z</time>
      </trkpt>
      <trkpt lat="41.409440" lon="-8.224330">
        <ele>179.271</ele>
        <time>2020-07-14T21:12:36Z</time>
      </trkpt>
      <trkpt lat="41.409580" lon="-8.224260">
        <ele>182.149</ele>
        <time>2020-07-14T21:12:56Z</time>
      </trkpt>
      <trkpt lat="41.410890" lon="-8.223920">
        <ele>196.726</ele>
        <time>2020-07-14T21:13:16Z</time>
      </trkpt>
      <trkpt lat="41.411080" lon="-8.223900">
        <ele>198.756</ele>
        <time>2020-07-14T21:13:36Z</time>
      </trkpt>
      <trkpt lat="41.411350" lon="-8.223990">
        <ele>199.326</ele>
        <time>2020-07-14T21:13:56Z</time>
      </trkpt>
      <trkpt lat="41.411560" lon="-8.224090">
        <ele>200.847</ele>
        <time>2020-07-14T21:14:16Z</time>
      </trkpt>
      <trkpt lat="41.411910" lon="-8.224180">
        <ele>203.732</ele>
        <time>2020-07-14T21:14:36Z</time>
      </trkpt>
      <trkpt lat="41.412060" lon="-8.224170">
        <ele>205.792</ele>
        <time>2020-07-14T21:14:56Z</time>
      </trkpt>
      <trkpt lat="41.412350" lon="-8.224030">
        <ele>207.011</ele>
        <time>2020-07-14T21:15:16Z</time>
      </trkpt>
      <trkpt lat="41.412420" lon="-8.224020">
        <ele>207.108</ele>
        <time>2020-07-14T21:15:36Z</time>
      </trkpt>
      <trkpt lat="41.412520" lon="-8.224060">
        <ele>207.968</ele>
        <time>2020-07-14T21:15:56Z</time>
      </trkpt>
      <trkpt lat="41.412630" lon="-8.224170">
        <ele>209.015</ele>
        <time>2020-07-14T21:16:16Z</time>
      </trkpt>
      <trkpt lat="41.412770" lon="-8.224260">
        <ele>209.360</ele>
        <time>2020-07-14T21:16:36Z</time>
      </trkpt>
      <trkpt lat="41.412720" lon="-8.223390">
        <ele>211.658</ele>
        <time>2020-07-14T21:16:56Z</time>
      </trkpt>
      <trkpt lat="41.412630" lon="-8.223210">
        <ele>212.235</ele>
        <time>2020-07-14T21:17:16Z</time>
      </trkpt>
      <trkpt lat="41.412400" lon="-8.222900">
        <ele>211.015</ele>
        <time>2020-07-14T21:17:36Z</time>
      </trkpt>
      <trkpt lat="41.412240" lon="-8.222450">
        <ele>211.815</ele>
        <time>2020-07-14T21:17:56Z</time>
      </trkpt>
      <trkpt lat="41.412190" lon="-8.222160">
        <ele>212.276</ele>
        <time>2020-07-14T21:18:16Z</time>
      </trkpt>
      <trkpt lat="41.412190" lon="-8.221140">
        <ele>214.795</ele>
        <time>2020-07-14T21:18:36Z</time>
      </trkpt>
      <trkpt lat="41.412250" lon="-8.220840">
        <ele>215.849</ele>
        <time>2020-07-14T21:18:56Z</time>
      </trkpt>
      <trkpt lat="41.412330" lon="-8.220670">
        <ele>215.323</ele>
        <time>2020-07-14T21:19:16Z</time>
      </trkpt>
      <trkpt lat="41.413680" lon="-8.219310">
        <ele>222.708</ele>
        <time>2020-07-14T21:19:36Z</time>
      </trkpt>
      <trkpt lat="41.413750" lon="-8.219150">
        <ele>222.844</ele>
        <time>2020-07-14T21:19:56Z</time>
      </trkpt>
      <trkpt lat="41.413910" lon="-8.218500">
        <ele>218.521</ele>
        <time>2020-07-14T21:20:16Z</time>
      </trkpt>
      <trkpt lat="41.414000" lon="-8.218220">
        <ele>216.556</ele>
        <time>2020-07-14T21:20:36Z</time>
      </trkpt>
      <trkpt lat="41.414190" lon="-8.217920">
        <ele>215.724</ele>
        <time>2020-07-14T21:20:56Z</time>
      </trkpt>
      <trkpt lat="41.414580" lon="-8.217470">
        <ele>214.171</ele>
        <time>2020-07-14T21:21:16Z</time>
      </trkpt>
      <trkpt lat="41.414710" lon="-8.217360">
        <ele>213.381</ele>
        <time>2020-07-14T21:21:36Z</time>
      </trkpt>
      <trkpt lat="41.414980" lon="-8.217220">
        <ele>213.791</ele>
        <time>2020-07-14T21:21:56Z</time>
      </trkpt>
      <trkpt lat="41.416840" lon="-8.216750">
        <ele>218.862</ele>
        <time>2020-07-14T21:22:16Z</time>
      </trkpt>
      <trkpt lat="41.417190" lon="-8.216620">
        <ele>224.946</ele>
        <time>2020-07-14T21:22:36Z</time>
      </trkpt>
      <trkpt lat="41.417810" lon="-8.216310">
        <ele>225.488</ele>
        <time>2020-07-14T21:22:56Z</time>
      </trkpt>
      <trkpt lat="41.419340" lon="-8.215560">
        <ele>228.316</ele>
        <time>2020-07-14T21:23:16Z</time>
      </trkpt>
      <trkpt lat="41.419490" lon="-8.215370">
        <ele>227.908</ele>
        <time>2020-07-14T21:23:36Z</time>
      </trkpt>
      <trkpt lat="41.420140" lon="-8.215150">
        <ele>232.149</ele>
        <time>2020-07-14T21:23:56Z</time>
      </trkpt>
      <trkpt lat="41.420230" lon="-8.215220">
        <ele>234.576</ele>
        <time>2020-07-14T21:24:16Z</time>
      </trkpt>
      <trkpt lat="41.420430" lon="-8.215810">
        <ele>241.381</ele>
        <time>2020-07-14T21:24:36Z</time>
      </trkpt>
      <trkpt lat="41.420560" lon="-8.216040">
        <ele>243.429</ele>
        <time>2020-07-14T21:24:56Z</time>
      </trkpt>
      <trkpt lat="41.420690" lon="-8.216150">
        <ele>247.876</ele>
        <time>2020-07-14T21:25:16Z</time>
      </trkpt>
      <trkpt lat="41.420960" lon="-8.215610">
        <ele>250.486</ele>
        <time>2020-07-14T21:25:36Z</time>
      </trkpt>
      <trkpt lat="41.421220" lon="-8.215270">
        <ele>245.056</ele>
        <time>2020-07-14T21:25:56Z</time>
      </trkpt>
      <trkpt lat="41.422860" lon="-8.213270">
        <ele>238.427</ele>
        <time>2020-07-14T21:26:16Z</time>
      </trkpt>
      <trkpt lat="41.423190" lon="-8.212930">
        <ele>238.888</ele>
        <time>2020-07-14T21:26:36Z</time>
      </trkpt>
      <trkpt lat="41.423370" lon="-8.212770">
        <ele>241.824</ele>
        <time>2020-07-14T21:26:56Z</time>
      </trkpt>
      <trkpt lat="41.423820" lon="-8.212500">
        <ele>245.026</ele>
        <time>2020-07-14T21:27:16Z</time>
      </trkpt>
      <trkpt lat="41.424130" lon="-8.212290">
        <ele>238.608</ele>
        <time>2020-07-14T21:27:36Z</time>
      </trkpt>
      <trkpt lat="41.424480" lon="-8.211970">
        <ele>236.283</ele>
        <time>2020-07-14T21:27:56Z</time>
      </trkpt>
      <trkpt lat="41.425190" lon="-8.211270">
        <ele>231.930</ele>
        <time>2020-07-14T21:28:16Z</time>
      </trkpt>
      <trkpt lat="41.425510" lon="-8.210990">
        <ele>234.885</ele>
        <time>2020-07-14T21:28:36Z</time>
      </trkpt>
      <trkpt lat="41.425640" lon="-8.210900">
        <ele>235.823</ele>
        <time>2020-07-14T21:28:56Z</time>
      </trkpt>
      <trkpt lat="41.425940" lon="-8.210800">
        <ele>237.810</ele>
        <time>2020-07-14T21:29:16Z</time>
      </trkpt>
      <trkpt lat="41.427090" lon="-8.210630">
        <ele>239.440</ele>
        <time>2020-07-14T21:29:36Z</time>
      </trkpt>
      <trkpt lat="41.428740" lon="-8.210350">
        <ele>239.450</ele>
        <time>2020-07-14T21:29:56Z</time>
      </trkpt>
      <trkpt lat="41.429120" lon="-8.210220">
        <ele>242.141</ele>
        <time>2020-07-14T21:30:16Z</time>
      </trkpt>
      <trkpt lat="41.431150" lon="-8.208900">
        <ele>244.717</ele>
        <time>2020-07-14T21:30:36Z</time>
      </trkpt>
      <trkpt lat="41.431470" lon="-8.208750">
        <ele>246.587</ele>
        <time>2020-07-14T21:30:56Z</time>
      </trkpt>
      <trkpt lat="41.432460" lon="-8.208350">
        <ele>245.915</ele>
        <time>2020-07-14T21:31:16Z</time>
      </trkpt>
      <trkpt lat="41.433110" lon="-8.208100">
        <ele>251.608</ele>
        <time>2020-07-14T21:31:36Z</time>
      </trkpt>
      <trkpt lat="41.433420" lon="-8.207940">
        <ele>249.546</ele>
        <time>2020-07-14T21:31:56Z</time>
      </trkpt>
      <trkpt lat="41.434040" lon="-8.207550">
        <ele>245.013</ele>
        <time>2020-07-14T21:32:16Z</time>
      </trkpt>
      <trkpt lat="41.434340" lon="-8.207390">
        <ele>245.238</ele>
        <time>2020-07-14T21:32:36Z</time>
      </trkpt>
      <trkpt lat="41.435120" lon="-8.207180">
        <ele>249.346</ele>
        <time>2020-07-14T21:32:56Z</time>
      </trkpt>
      <trkpt lat="41.435350" lon="-8.207070">
        <ele>250.533</ele>
        <time>2020-07-14T21:33:16Z</time>
      </trkpt>
      <trkpt lat="41.435530" lon="-8.206890">
        <ele>251.113</ele>
        <time>2020-07-14T21:33:36Z</time>
      </trkpt>
      <trkpt lat="41.435690" lon="-8.206630">
        <ele>253.193</ele>
        <time>2020-07-14T21:33:56Z</time>
      </trkpt>
      <trkpt lat="41.436200" lon="-8.205580">
        <ele>250.974</ele>
        <time>2020-07-14T21:34:16Z</time>
      </trkpt>
      <trkpt lat="41.436780" lon="-8.204490">
        <ele>250.936</ele>
        <time>2020-07-14T21:34:36Z</time>
      </trkpt>
      <trkpt lat="41.436980" lon="-8.204210">
        <ele>253.117</ele>
        <time>2020-07-14T21:34:56Z</time>
      </trkpt>
      <trkpt lat="41.437320" lon="-8.203790">
        <ele>252.018</ele>
        <time>2020-07-14T21:35:16Z</time>
      </trkpt>
      <trkpt lat="41.440560" lon="-8.200090">
        <ele>263.308</ele>
        <time>2020-07-14T21:35:36Z</time>
      </trkpt>
      <trkpt lat="41.440760" lon="-8.199840">
        <ele>263.738</ele>
        <time>2020-07-14T21:35:56Z</time>
      </trkpt>
      <trkpt lat="41.440980" lon="-8.199500">
        <ele>263.265</ele>
        <time>2020-07-14T21:36:16Z</time>
      </trkpt>
      <trkpt lat="41.441080" lon="-8.199250">
        <ele>263.120</ele>
        <time>2020-07-14T21:36:36Z</time>
      </trkpt>
      <trkpt lat="41.441220" lon="-8.198810">
        <ele>261.988</ele>
        <time>2020-07-14T21:36:56Z</time>
      </trkpt>
      <trkpt lat="41.441390" lon="-8.198090">
        <ele>260.985</ele>
        <time>2020-07-14T21:37:16Z</time>
      </trkpt>
      <trkpt lat="41.441630" lon="-8.197320">
        <ele>263.895</ele>
        <time>2020-07-14T21:37:36Z</time>
      </trkpt>
      <trkpt lat="41.441710" lon="-8.197120">
        <ele>266.335</ele>
        <time>2020-07-14T21:37:56Z</time>
      </trkpt>
      <trkpt lat="41.442120" lon="-8.196570">
        <ele>270.926</ele>
        <time>2020-07-14T21:38:16Z</time>
      </trkpt>
      <trkpt lat="41.442240" lon="-8.196470">
        <ele>272.245</ele>
        <time>2020-07-14T21:38:36Z</time>
      </trkpt>
      <trkpt lat="41.443330" lon="-8.195710">
        <ele>276.847</ele>
        <time>2020-07-14T21:38:56Z</time>
      </trkpt>
      <trkpt lat="41.443670" lon="-8.195420">
        <ele>272.911</ele>
        <time>2020-07-14T21:39:16Z</time>
      </trkpt>
      <trkpt lat="41.443830" lon="-8.195200">
        <ele>274.008</ele>
        <time>2020-07-14T21:39:36Z</time>
      </trkpt>
      <trkpt lat="41.444500" lon="-8.193860">
        <ele>283.789</ele>
        <time>2020-07-14T21:39:56Z</time>
      </trkpt>
      <trkpt lat="41.444630" lon="-8.193540">
        <ele>282.976</ele>
        <time>2020-07-14T21:40:16Z</time>
      </trkpt>
      <trkpt lat="41.444810" lon="-8.193000">
        <ele>285.471</ele>
        <time>2020-07-14T21:40:36Z</time>
      </trkpt>
      <trkpt lat="41.444950" lon="-8.192510">
        <ele>285.989</ele>
        <time>2020-07-14T21:40:56Z</time>
      </trkpt>
      <trkpt lat="41.445110" lon="-8.192130">
        <ele>283.626</ele>
        <time>2020-07-14T21:41:16Z</time>
      </trkpt>
      <trkpt lat="41.445330" lon="-8.191800">
        <ele>277.696</ele>
        <time>2020-07-14T21:41:36Z</time>
      </trkpt>
      <trkpt lat="41.445510" lon="-8.191620">
        <ele>275.586</ele>
        <time>2020-07-14T21:41:56Z</time>
      </trkpt>
      <trkpt lat="41.445660" lon="-8.191510">
        <ele>276.497</ele>
        <time>2020-07-14T21:42:16Z</time>
      </trkpt>
      <trkpt lat="41.445950" lon="-8.191340">
        <ele>278.851</ele>
        <time>2020-07-14T21:42:36Z</time>
      </trkpt>
      <trkpt lat="41.446080" lon="-8.191150">
        <ele>281.401</ele>
        <time>2020-07-14T21:42:56Z</time>
      </trkpt>
      <trkpt lat="41.446270" lon="-8.191020">
        <ele>284.011</ele>
        <time>2020-07-14T21:43:16Z</time>
      </trkpt>
      <trkpt lat="41.446790" lon="-8.190700">
        <ele>289.908</ele>
        <time>2020-07-14T21:43:36Z</time>
      </trkpt>
      <trkpt lat="41.446940" lon="-8.190630">
        <ele>291.890</ele>
        <time>2020-07-14T21:43:56Z</time>
      </trkpt>
      <trkpt lat="41.447220" lon="-8.190580">
        <ele>289.397</ele>
        <time>2020-07-14T21:44:16Z</time>
      </trkpt>
      <trkpt lat="41.447380" lon="-8.190570">
        <ele>285.162</ele>
        <time>2020-07-14T21:44:36Z</time>
      </trkpt>
      <trkpt lat="41.447800" lon="-8.190600">
        <ele>278.640</ele>
        <time>2020-07-14T21:44:56Z</time>
      </trkpt>
      <trkpt lat="41.448170" lon="-8.190750">
        <ele>279.717</ele>
        <time>2020-07-14T21:45:16Z</time>
      </trkpt>
      <trkpt lat="41.448840" lon="-8.191090">
        <ele>285.717</ele>
        <time>2020-07-14T21:45:36Z</time>
      </trkpt>
      <trkpt lat="41.448980" lon="-8.191190">
        <ele>287.957</ele>
        <time>2020-07-14T21:45:56Z</time>
      </trkpt>
      <trkpt lat="41.449020" lon="-8.191140">
        <ele>289.298</ele>
        <time>2020-07-14T21:46:16Z</time>
      </trkpt>
      <trkpt lat="41.449040" lon="-8.191220">
        <ele>289.268</ele>
        <time>2020-07-14T21:46:36Z</time>
      </trkpt>
      <trkpt lat="41.449300" lon="-8.191340">
        <ele>293.942</ele>
        <time>2020-07-14T21:46:56Z</time>
      </trkpt>
      <trkpt lat="41.449710" lon="-8.191480">
        <ele>297.926</ele>
        <time>2020-07-14T21:47:16Z</time>
      </trkpt>
      <trkpt lat="41.450010" lon="-8.191520">
        <ele>296.508</ele>
        <time>2020-07-14T21:47:36Z</time>
      </trkpt>
      <trkpt lat="41.450210" lon="-8.191510">
        <ele>295.181</ele>
        <time>2020-07-14T21:47:56Z</time>
      </trkpt>
      <trkpt lat="41.450360" lon="-8.191430">
        <ele>294.038</ele>
        <time>2020-07-14T21:48:16Z</time>
      </trkpt>
      <trkpt lat="41.450800" lon="-8.191140">
        <ele>290.283</ele>
        <time>2020-07-14T21:48:36Z</time>
      </trkpt>
      <trkpt lat="41.450970" lon="-8.190930">
        <ele>289.041</ele>
        <time>2020-07-14T21:48:56Z</time>
      </trkpt>
      <trkpt lat="41.451070" lon="-8.190760">
        <ele>288.778</ele>
        <time>2020-07-14T21:49:16Z</time>
      </trkpt>
      <trkpt lat="41.451180" lon="-8.190460">
        <ele>289.698</ele>
        <time>2020-07-14T21:49:36Z</time>
      </trkpt>
      <trkpt lat="41.451270" lon="-8.190160">
        <ele>289.748</ele>
        <time>2020-07-14T21:49:56Z</time>
      </trkpt>
      <trkpt lat="41.451330" lon="-8.189790">
        <ele>290.289</ele>
        <time>2020-07-14T21:50:16Z</time>
      </trkpt>
      <trkpt lat="41.451330" lon="-8.189290">
        <ele>292.414</ele>
        <time>2020-07-14T21:50:36Z</time>
      </trkpt>
      <trkpt lat="41.451300" lon="-8.188950">
        <ele>294.854</ele>
        <time>2020-07-14T21:50:56Z</time>
      </trkpt>
      <trkpt lat="41.451150" lon="-8.187980">
        <ele>302.409</ele>
        <time>2020-07-14T21:51:16Z</time>
      </trkpt>
      <trkpt lat="41.451130" lon="-8.187600">
        <ele>302.208</ele>
        <time>2020-07-14T21:51:36Z</time>
      </trkpt>
      <trkpt lat="41.451150" lon="-8.186030">
        <ele>298.166</ele>
        <time>2020-07-14T21:51:56Z</time>
      </trkpt>
      <trkpt lat="41.451190" lon="-8.185800">
        <ele>299.093</ele>
        <time>2020-07-14T21:52:16Z</time>
      </trkpt>
      <trkpt lat="41.451310" lon="-8.185380">
        <ele>302.248</ele>
        <time>2020-07-14T21:52:36Z</time>
      </trkpt>
      <trkpt lat="41.451500" lon="-8.184980">
        <ele>302.456</ele>
        <time>2020-07-14T21:52:56Z</time>
      </trkpt>
      <trkpt lat="41.451830" lon="-8.184410">
        <ele>302.243</ele>
        <time>2020-07-14T21:53:16Z</time>
      </trkpt>
      <trkpt lat="41.452260" lon="-8.183740">
        <ele>305.373</ele>
        <time>2020-07-14T21:53:36Z</time>
      </trkpt>
      <trkpt lat="41.452980" lon="-8.182450">
        <ele>304.573</ele>
        <time>2020-07-14T21:53:56Z</time>
      </trkpt>
      <trkpt lat="41.453310" lon="-8.181910">
        <ele>304.634</ele>
        <time>2020-07-14T21:54:16Z</time>
      </trkpt>
      <trkpt lat="41.453520" lon="-8.181050">
        <ele>307.497</ele>
        <time>2020-07-14T21:54:36Z</time>
      </trkpt>
      <trkpt lat="41.453750" lon="-8.180090">
        <ele>311.323</ele>
        <time>2020-07-14T21:54:56Z</time>
      </trkpt>
      <trkpt lat="41.453760" lon="-8.179800">
        <ele>311.425</ele>
        <time>2020-07-14T21:55:16Z</time>
      </trkpt>
      <trkpt lat="41.453730" lon="-8.179690">
        <ele>311.808</ele>
        <time>2020-07-14T21:55:36Z</time>
      </trkpt>
      <trkpt lat="41.453450" lon="-8.179120">
        <ele>315.344</ele>
        <time>2020-07-14T21:55:56Z</time>
      </trkpt>
      <trkpt lat="41.453280" lon="-8.178820">
        <ele>317.111</ele>
        <time>2020-07-14T21:56:16Z</time>
      </trkpt>
      <trkpt lat="41.453070" lon="-8.178620">
        <ele>317.926</ele>
        <time>2020-07-14T21:56:36Z</time>
      </trkpt>
      <trkpt lat="41.451430" lon="-8.177450">
        <ele>322.264</ele>
        <time>2020-07-14T21:56:56Z</time>
      </trkpt>
      <trkpt lat="41.451380" lon="-8.177470">
        <ele>322.391</ele>
        <time>2020-07-14T21:57:16Z</time>
      </trkpt>
      <trkpt lat="41.451200" lon="-8.177290">
        <ele>324.481</ele>
        <time>2020-07-14T21:57:36Z</time>
      </trkpt>
      <trkpt lat="41.451100" lon="-8.177090">
        <ele>325.541</ele>
        <time>2020-07-14T21:57:56Z</time>
      </trkpt>
      <trkpt lat="41.450990" lon="-8.176640">
        <ele>326.952</ele>
        <time>2020-07-14T21:58:16Z</time>
      </trkpt>
      <trkpt lat="41.451010" lon="-8.176580">
        <ele>326.875</ele>
        <time>2020-07-14T21:58:36Z</time>
      </trkpt>
      <trkpt lat="41.450820" lon="-8.175840">
        <ele>328.128</ele>
        <time>2020-07-14T21:58:56Z</time>
      </trkpt>
      <trkpt lat="41.450700" lon="-8.175720">
        <ele>328.620</ele>
        <time>2020-07-14T21:59:16Z</time>
      </trkpt>
      <trkpt lat="41.450620" lon="-8.175740">
        <ele>329.008</ele>
        <time>2020-07-14T21:59:36Z</time>
      </trkpt>
      <trkpt lat="41.450570" lon="-8.175710">
        <ele>329.192</ele>
        <time>2020-07-14T21:59:56Z</time>
      </trkpt>
      <trkpt lat="41.450530" lon="-8.175640">
        <ele>328.579</ele>
        <time>2020-07-14T22:00:16Z</time>
      </trkpt>
      <trkpt lat="41.450150" lon="-8.175710">
        <ele>327.974</ele>
        <time>2020-07-14T22:00:36Z</time>
      </trkpt>
      <trkpt lat="41.449890" lon="-8.175640">
        <ele>328.012</ele>
        <time>2020-07-14T22:00:56Z</time>
      </trkpt>
      <trkpt lat="41.449550" lon="-8.175490">
        <ele>330.279</ele>
        <time>2020-07-14T22:01:16Z</time>
      </trkpt>
      <trkpt lat="41.449250" lon="-8.175400">
        <ele>331.799</ele>
        <time>2020-07-14T22:01:36Z</time>
      </trkpt>
      <trkpt lat="41.448970" lon="-8.175330">
        <ele>333.449</ele>
        <time>2020-07-14T22:01:56Z</time>
      </trkpt>
      <trkpt lat="41.448740" lon="-8.175300">
        <ele>335.180</ele>
        <time>2020-07-14T22:02:16Z</time>
      </trkpt>
      <trkpt lat="41.448200" lon="-8.175280">
        <ele>338.063</ele>
        <time>2020-07-14T22:02:36Z</time>
      </trkpt>
      <trkpt lat="41.447700" lon="-8.175330">
        <ele>339.744</ele>
        <time>2020-07-14T22:02:56Z</time>
      </trkpt>
      <trkpt lat="41.447250" lon="-8.175440">
        <ele>341.018</ele>
        <time>2020-07-14T22:03:16Z</time>
      </trkpt>
      <trkpt lat="41.447000" lon="-8.175520">
        <ele>341.708</ele>
        <time>2020-07-14T22:03:36Z</time>
      </trkpt>
      <trkpt lat="41.446650" lon="-8.175680">
        <ele>343.591</ele>
        <time>2020-07-14T22:03:56Z</time>
      </trkpt>
      <trkpt lat="41.446040" lon="-8.176030">
        <ele>345.818</ele>
        <time>2020-07-14T22:04:16Z</time>
      </trkpt>
      <trkpt lat="41.445880" lon="-8.176150">
        <ele>347.573</ele>
        <time>2020-07-14T22:04:36Z</time>
      </trkpt>
      <trkpt lat="41.445860" lon="-8.176290">
        <ele>347.851</ele>
        <time>2020-07-14T22:04:56Z</time>
      </trkpt>
      <trkpt lat="41.445800" lon="-8.176370">
        <ele>348.298</ele>
        <time>2020-07-14T22:05:16Z</time>
      </trkpt>
      <trkpt lat="41.445680" lon="-8.176470">
        <ele>349.198</ele>
        <time>2020-07-14T22:05:36Z</time>
      </trkpt>
      <trkpt lat="41.445580" lon="-8.176490">
        <ele>349.878</ele>
        <time>2020-07-14T22:05:56Z</time>
      </trkpt>
      <trkpt lat="41.445510" lon="-8.176470">
        <ele>350.299</ele>
        <time>2020-07-14T22:06:16Z</time>
      </trkpt>
      <trkpt lat="41.445420" lon="-8.176420">
        <ele>350.569</ele>
        <time>2020-07-14T22:06:36Z</time>
      </trkpt>
      <trkpt lat="41.445370" lon="-8.176200">
        <ele>350.404</ele>
        <time>2020-07-14T22:06:56Z</time>
      </trkpt>
      <trkpt lat="41.445370" lon="-8.175630">
        <ele>347.124</ele>
        <time>2020-07-14T22:07:16Z</time>
      </trkpt>
      <trkpt lat="41.445320" lon="-8.175320">
        <ele>345.308</ele>
        <time>2020-07-14T22:07:36Z</time>
      </trkpt>
      <trkpt lat="41.445210" lon="-8.175030">
        <ele>344.621</ele>
        <time>2020-07-14T22:07:56Z</time>
      </trkpt>
      <trkpt lat="41.444730" lon="-8.174080">
        <ele>345.798</ele>
        <time>2020-07-14T22:08:16Z</time>
      </trkpt>
      <trkpt lat="41.444610" lon="-8.173830">
        <ele>344.433</ele>
        <time>2020-07-14T22:08:36Z</time>
      </trkpt>
      <trkpt lat="41.444570" lon="-8.173700">
        <ele>343.851</ele>
        <time>2020-07-14T22:08:56Z</time>
      </trkpt>
      <trkpt lat="41.444530" lon="-8.173420">
        <ele>343.378</ele>
        <time>2020-07-14T22:09:16Z</time>
      </trkpt>
      <trkpt lat="41.444510" lon="-8.172420">
        <ele>342.318</ele>
        <time>2020-07-14T22:09:36Z</time>
      </trkpt>
      <trkpt lat="41.444490" lon="-8.172260">
        <ele>341.448</ele>
        <time>2020-07-14T22:09:56Z</time>
      </trkpt>
      <trkpt lat="41.444320" lon="-8.171500">
        <ele>337.319</ele>
        <time>2020-07-14T22:10:16Z</time>
      </trkpt>
      <trkpt lat="41.444300" lon="-8.171290">
        <ele>337.054</ele>
        <time>2020-07-14T22:10:36Z</time>
      </trkpt>
      <trkpt lat="41.444320" lon="-8.170990">
        <ele>337.356</ele>
        <time>2020-07-14T22:10:56Z</time>
      </trkpt>
      <trkpt lat="41.444400" lon="-8.170620">
        <ele>337.211</ele>
        <time>2020-07-14T22:11:16Z</time>
      </trkpt>
      <trkpt lat="41.444600" lon="-8.170160">
        <ele>335.808</ele>
        <time>2020-07-14T22:11:36Z</time>
      </trkpt>
      <trkpt lat="41.445160" lon="-8.169410">
        <ele>330.240</ele>
        <time>2020-07-14T22:11:56Z</time>
      </trkpt>
      <trkpt lat="41.445180" lon="-8.169350">
        <ele>329.727</ele>
        <time>2020-07-14T22:12:16Z</time>
      </trkpt>
      <trkpt lat="41.445180" lon="-8.169280">
        <ele>329.242</ele>
        <time>2020-07-14T22:12:36Z</time>
      </trkpt>
      <trkpt lat="41.445230" lon="-8.169210">
        <ele>328.580</ele>
        <time>2020-07-14T22:12:56Z</time>
      </trkpt>
      <trkpt lat="41.445300" lon="-8.169190">
        <ele>328.317</ele>
        <time>2020-07-14T22:13:16Z</time>
      </trkpt>
      <trkpt lat="41.445320" lon="-8.169200">
        <ele>328.467</ele>
        <time>2020-07-14T22:13:36Z</time>
      </trkpt>
      <trkpt lat="41.445420" lon="-8.169050">
        <ele>327.997</ele>
        <time>2020-07-14T22:13:56Z</time>
      </trkpt>
      <trkpt lat="41.445500" lon="-8.168890">
        <ele>327.648</ele>
        <time>2020-07-14T22:14:16Z</time>
      </trkpt>
      <trkpt lat="41.445590" lon="-8.168510">
        <ele>324.666</ele>
        <time>2020-07-14T22:14:36Z</time>
      </trkpt>
      <trkpt lat="41.445580" lon="-8.168150">
        <ele>320.129</ele>
        <time>2020-07-14T22:14:56Z</time>
      </trkpt>
      <trkpt lat="41.445500" lon="-8.168040">
        <ele>318.621</ele>
        <time>2020-07-14T22:15:16Z</time>
      </trkpt>
      <trkpt lat="41.445400" lon="-8.167750">
        <ele>318.408</ele>
        <time>2020-07-14T22:15:36Z</time>
      </trkpt>
      <trkpt lat="41.445110" lon="-8.166880">
        <ele>314.521</ele>
        <time>2020-07-14T22:15:56Z</time>
      </trkpt>
      <trkpt lat="41.445100" lon="-8.166680">
        <ele>312.258</ele>
        <time>2020-07-14T22:16:16Z</time>
      </trkpt>
      <trkpt lat="41.444710" lon="-8.165410">
        <ele>318.083</ele>
        <time>2020-07-14T22:16:36Z</time>
      </trkpt>
      <trkpt lat="41.444630" lon="-8.164970">
        <ele>319.811</ele>
        <time>2020-07-14T22:16:56Z</time>
      </trkpt>
      <trkpt lat="41.444600" lon="-8.164530">
        <ele>321.838</ele>
        <time>2020-07-14T22:17:16Z</time>
      </trkpt>
      <trkpt lat="41.444520" lon="-8.164490">
        <ele>321.488</ele>
        <time>2020-07-14T22:17:36Z</time>
      </trkpt>
      <trkpt lat="41.444460" lon="-8.164410">
        <ele>321.278</ele>
        <time>2020-07-14T22:17:56Z</time>
      </trkpt>
      <trkpt lat="41.444430" lon="-8.164310">
        <ele>321.459</ele>
        <time>2020-07-14T22:18:16Z</time>
      </trkpt>
      <trkpt lat="41.444440" lon="-8.164170">
        <ele>322.057</ele>
        <time>2020-07-14T22:18:36Z</time>
      </trkpt>
      <trkpt lat="41.444480" lon="-8.164060">
        <ele>322.700</ele>
        <time>2020-07-14T22:18:56Z</time>
      </trkpt>
      <trkpt lat="41.444540" lon="-8.163980">
        <ele>323.620</ele>
        <time>2020-07-14T22:19:16Z</time>
      </trkpt>
      <trkpt lat="41.444620" lon="-8.163940">
        <ele>324.608</ele>
        <time>2020-07-14T22:19:36Z</time>
      </trkpt>
      <trkpt lat="41.444700" lon="-8.163950">
        <ele>325.380</ele>
        <time>2020-07-14T22:19:56Z</time>
      </trkpt>
      <trkpt lat="41.445080" lon="-8.163390">
        <ele>332.197</ele>
        <time>2020-07-14T22:20:16Z</time>
      </trkpt>
      <trkpt lat="41.445210" lon="-8.163250">
        <ele>335.182</ele>
        <time>2020-07-14T22:20:36Z</time>
      </trkpt>
      <trkpt lat="41.445430" lon="-8.163080">
        <ele>341.030</ele>
        <time>2020-07-14T22:20:56Z</time>
      </trkpt>
      <trkpt lat="41.446780" lon="-8.162330">
        <ele>336.297</ele>
        <time>2020-07-14T22:21:16Z</time>
      </trkpt>
      <trkpt lat="41.446920" lon="-8.162250">
        <ele>336.017</ele>
        <time>2020-07-14T22:21:36Z</time>
      </trkpt>
      <trkpt lat="41.446990" lon="-8.162150">
        <ele>336.897</ele>
        <time>2020-07-14T22:21:56Z</time>
      </trkpt>
      <trkpt lat="41.446990" lon="-8.162070">
        <ele>337.778</ele>
        <time>2020-07-14T22:22:16Z</time>
      </trkpt>
      <trkpt lat="41.447020" lon="-8.161990">
        <ele>338.797</ele>
        <time>2020-07-14T22:22:36Z</time>
      </trkpt>
      <trkpt lat="41.447060" lon="-8.161940">
        <ele>339.523</ele>
        <time>2020-07-14T22:22:56Z</time>
      </trkpt>
      <trkpt lat="41.447160" lon="-8.161900">
        <ele>340.725</ele>
        <time>2020-07-14T22:23:16Z</time>
      </trkpt>
      <trkpt lat="41.447260" lon="-8.161930">
        <ele>340.708</ele>
        <time>2020-07-14T22:23:36Z</time>
      </trkpt>
      <trkpt lat="41.447410" lon="-8.161850">
        <ele>343.854</ele>
        <time>2020-07-14T22:23:56Z</time>
      </trkpt>
      <trkpt lat="41.447490" lon="-8.161750">
        <ele>346.441</ele>
        <time>2020-07-14T22:24:16Z</time>
      </trkpt>
      <trkpt lat="41.447560" lon="-8.161530">
        <ele>350.276</ele>
        <time>2020-07-14T22:24:36Z</time>
      </trkpt>
      <trkpt lat="41.447800" lon="-8.158870">
        <ele>363.944</ele>
        <time>2020-07-14T22:24:56Z</time>
      </trkpt>
      <trkpt lat="41.447930" lon="-8.158230">
        <ele>365.131</ele>
        <time>2020-07-14T22:25:16Z</time>
      </trkpt>
      <trkpt lat="41.448070" lon="-8.157810">
        <ele>364.951</ele>
        <time>2020-07-14T22:25:36Z</time>
      </trkpt>
      <trkpt lat="41.448210" lon="-8.157450">
        <ele>364.411</ele>
        <time>2020-07-14T22:25:56Z</time>
      </trkpt>
      <trkpt lat="41.448420" lon="-8.157060">
        <ele>363.532</ele>
        <time>2020-07-14T22:26:16Z</time>
      </trkpt>
      <trkpt lat="41.449400" lon="-8.155360">
        <ele>369.937</ele>
        <time>2020-07-14T22:26:36Z</time>
      </trkpt>
      <trkpt lat="41.449780" lon="-8.154670">
        <ele>372.949</ele>
        <time>2020-07-14T22:26:56Z</time>
      </trkpt>
      <trkpt lat="41.450010" lon="-8.154170">
        <ele>376.913</ele>
        <time>2020-07-14T22:27:16Z</time>
      </trkpt>
      <trkpt lat="41.450180" lon="-8.153660">
        <ele>373.808</ele>
        <time>2020-07-14T22:27:36Z</time>
      </trkpt>
      <trkpt lat="41.450330" lon="-8.152950">
        <ele>373.668</ele>
        <time>2020-07-14T22:27:56Z</time>
      </trkpt>
      <trkpt lat="41.450570" lon="-8.151100">
        <ele>381.135</ele>
        <time>2020-07-14T22:28:16Z</time>
      </trkpt>
      <trkpt lat="41.450690" lon="-8.150450">
        <ele>388.720</ele>
        <time>2020-07-14T22:28:36Z</time>
      </trkpt>
      <trkpt lat="41.450830" lon="-8.149960">
        <ele>392.198</ele>
        <time>2020-07-14T22:28:56Z</time>
      </trkpt>
      <trkpt lat="41.451040" lon="-8.149400">
        <ele>395.755</ele>
        <time>2020-07-14T22:29:16Z</time>
      </trkpt>
      <trkpt lat="41.451170" lon="-8.149150">
        <ele>397.095</ele>
        <time>2020-07-14T22:29:36Z</time>
      </trkpt>
      <trkpt lat="41.451320" lon="-8.148910">
        <ele>397.765</ele>
        <time>2020-07-14T22:29:56Z</time>
      </trkpt>
      <trkpt lat="41.451590" lon="-8.148550">
        <ele>398.556</ele>
        <time>2020-07-14T22:30:16Z</time>
      </trkpt>
      <trkpt lat="41.451800" lon="-8.148340">
        <ele>399.099</ele>
        <time>2020-07-14T22:30:36Z</time>
      </trkpt>
      <trkpt lat="41.452300" lon="-8.147940">
        <ele>399.107</ele>
        <time>2020-07-14T22:30:56Z</time>
      </trkpt>
      <trkpt lat="41.452560" lon="-8.147690">
        <ele>401.027</ele>
        <time>2020-07-14T22:31:16Z</time>
      </trkpt>
      <trkpt lat="41.452770" lon="-8.147450">
        <ele>402.008</ele>
        <time>2020-07-14T22:31:36Z</time>
      </trkpt>
      <trkpt lat="41.452970" lon="-8.147180">
        <ele>402.494</ele>
        <time>2020-07-14T22:31:56Z</time>
      </trkpt>
      <trkpt lat="41.453160" lon="-8.146850">
        <ele>401.691</ele>
        <time>2020-07-14T22:32:16Z</time>
      </trkpt>
      <trkpt lat="41.453470" lon="-8.146210">
        <ele>400.326</ele>
        <time>2020-07-14T22:32:36Z</time>
      </trkpt>
      <trkpt lat="41.453960" lon="-8.145020">
        <ele>406.334</ele>
        <time>2020-07-14T22:32:56Z</time>
      </trkpt>
      <trkpt lat="41.454150" lon="-8.144630">
        <ele>404.541</ele>
        <time>2020-07-14T22:33:16Z</time>
      </trkpt>
      <trkpt lat="41.454360" lon="-8.144250">
        <ele>404.371</ele>
        <time>2020-07-14T22:33:36Z</time>
      </trkpt>
      <trkpt lat="41.454470" lon="-8.144100">
        <ele>403.421</ele>
        <time>2020-07-14T22:33:56Z</time>
      </trkpt>
      <trkpt lat="41.454810" lon="-8.143700">
        <ele>400.862</ele>
        <time>2020-07-14T22:34:16Z</time>
      </trkpt>
      <trkpt lat="41.455320" lon="-8.143250">
        <ele>398.029</ele>
        <time>2020-07-14T22:34:36Z</time>
      </trkpt>
      <trkpt lat="41.455940" lon="-8.142870">
        <ele>399.700</ele>
        <time>2020-07-14T22:34:56Z</time>
      </trkpt>
      <trkpt lat="41.456330" lon="-8.142720">
        <ele>397.820</ele>
        <time>2020-07-14T22:35:16Z</time>
      </trkpt>
      <trkpt lat="41.456630" lon="-8.142630">
        <ele>397.608</ele>
        <time>2020-07-14T22:35:36Z</time>
      </trkpt>
      <trkpt lat="41.457350" lon="-8.142520">
        <ele>396.537</ele>
        <time>2020-07-14T22:35:56Z</time>
      </trkpt>
      <trkpt lat="41.457930" lon="-8.142470">
        <ele>398.854</ele>
        <time>2020-07-14T22:36:16Z</time>
      </trkpt>
      <trkpt lat="41.458230" lon="-8.142500">
        <ele>399.089</ele>
        <time>2020-07-14T22:36:36Z</time>
      </trkpt>
      <trkpt lat="41.458480" lon="-8.142590">
        <ele>399.797</ele>
        <time>2020-07-14T22:36:56Z</time>
      </trkpt>
      <trkpt lat="41.458700" lon="-8.142700">
        <ele>400.784</ele>
        <time>2020-07-14T22:37:16Z</time>
      </trkpt>
      <trkpt lat="41.458830" lon="-8.142790">
        <ele>400.764</ele>
        <time>2020-07-14T22:37:36Z</time>
      </trkpt>
      <trkpt lat="41.460220" lon="-8.144010">
        <ele>397.734</ele>
        <time>2020-07-14T22:37:56Z</time>
      </trkpt>
      <trkpt lat="41.460400" lon="-8.144100">
        <ele>400.765</ele>
        <time>2020-07-14T22:38:16Z</time>
      </trkpt>
      <trkpt lat="41.460530" lon="-8.144120">
        <ele>402.473</ele>
        <time>2020-07-14T22:38:36Z</time>
      </trkpt>
      <trkpt lat="41.460680" lon="-8.144100">
        <ele>404.085</ele>
        <time>2020-07-14T22:38:56Z</time>
      </trkpt>
      <trkpt lat="41.460810" lon="-8.144040">
        <ele>405.313</ele>
        <time>2020-07-14T22:39:16Z</time>
      </trkpt>
      <trkpt lat="41.461100" lon="-8.143740">
        <ele>407.308</ele>
        <time>2020-07-14T22:39:36Z</time>
      </trkpt>
      <trkpt lat="41.461520" lon="-8.142940">
        <ele>409.182</ele>
        <time>2020-07-14T22:39:56Z</time>
      </trkpt>
      <trkpt lat="41.461580" lon="-8.142800">
        <ele>408.839</ele>
        <time>2020-07-14T22:40:16Z</time>
      </trkpt>
      <trkpt lat="41.461600" lon="-8.142670">
        <ele>408.894</ele>
        <time>2020-07-14T22:40:36Z</time>
      </trkpt>
      <trkpt lat="41.461610" lon="-8.142150">
        <ele>409.622</ele>
        <time>2020-07-14T22:40:56Z</time>
      </trkpt>
      <trkpt lat="41.461660" lon="-8.141370">
        <ele>410.989</ele>
        <time>2020-07-14T22:41:16Z</time>
      </trkpt>
      <trkpt lat="41.461790" lon="-8.140830">
        <ele>412.839</ele>
        <time>2020-07-14T22:41:36Z</time>
      </trkpt>
      <trkpt lat="41.462020" lon="-8.140290">
        <ele>415.859</ele>
        <time>2020-07-14T22:41:56Z</time>
      </trkpt>
      <trkpt lat="41.462250" lon="-8.139840">
        <ele>419.410</ele>
        <time>2020-07-14T22:42:16Z</time>
      </trkpt>
      <trkpt lat="41.462330" lon="-8.139620">
        <ele>419.253</ele>
        <time>2020-07-14T22:42:36Z</time>
      </trkpt>
      <trkpt lat="41.462340" lon="-8.139290">
        <ele>418.004</ele>
        <time>2020-07-14T22:42:56Z</time>
      </trkpt>
      <trkpt lat="41.462150" lon="-8.138200">
        <ele>414.514</ele>
        <time>2020-07-14T22:43:16Z</time>
      </trkpt>
      <trkpt lat="41.462140" lon="-8.137840">
        <ele>414.608</ele>
        <time>2020-07-14T22:43:36Z</time>
      </trkpt>
      <trkpt lat="41.462160" lon="-8.137560">
        <ele>415.190</ele>
        <time>2020-07-14T22:43:56Z</time>
      </trkpt>
      <trkpt lat="41.462260" lon="-8.136900">
        <ele>416.897</ele>
        <time>2020-07-14T22:44:16Z</time>
      </trkpt>
      <trkpt lat="41.462410" lon="-8.136040">
        <ele>417.092</ele>
        <time>2020-07-14T22:44:36Z</time>
      </trkpt>
      <trkpt lat="41.462470" lon="-8.135850">
        <ele>418.230</ele>
        <time>2020-07-14T22:44:56Z</time>
      </trkpt>
      <trkpt lat="41.463060" lon="-8.134520">
        <ele>420.397</ele>
        <time>2020-07-14T22:45:16Z</time>
      </trkpt>
      <trkpt lat="41.463540" lon="-8.133200">
        <ele>425.817</ele>
        <time>2020-07-14T22:45:36Z</time>
      </trkpt>
      <trkpt lat="41.463750" lon="-8.132780">
        <ele>424.587</ele>
        <time>2020-07-14T22:45:56Z</time>
      </trkpt>
      <trkpt lat="41.464030" lon="-8.132360">
        <ele>425.028</ele>
        <time>2020-07-14T22:46:16Z</time>
      </trkpt>
      <trkpt lat="41.464340" lon="-8.132000">
        <ele>428.598</ele>
        <time>2020-07-14T22:46:36Z</time>
      </trkpt>
      <trkpt lat="41.465630" lon="-8.130860">
        <ele>426.415</ele>
        <time>2020-07-14T22:46:56Z</time>
      </trkpt>
      <trkpt lat="41.465860" lon="-8.130610">
        <ele>428.326</ele>
        <time>2020-07-14T22:47:16Z</time>
      </trkpt>
      <trkpt lat="41.465920" lon="-8.130450">
        <ele>429.208</ele>
        <time>2020-07-14T22:47:36Z</time>
      </trkpt>
      <trkpt lat="41.465940" lon="-8.130280">
        <ele>429.544</ele>
        <time>2020-07-14T22:47:56Z</time>
      </trkpt>
      <trkpt lat="41.465990" lon="-8.129500">
        <ele>432.241</ele>
        <time>2020-07-14T22:48:16Z</time>
      </trkpt>
      <trkpt lat="41.466280" lon="-8.128200">
        <ele>433.026</ele>
        <time>2020-07-14T22:48:36Z</time>
      </trkpt>
      <trkpt lat="41.466390" lon="-8.127540">
        <ele>434.944</ele>
        <time>2020-07-14T22:48:56Z</time>
      </trkpt>
      <trkpt lat="41.466440" lon="-8.127120">
        <ele>434.381</ele>
        <time>2020-07-14T22:49:16Z</time>
      </trkpt>
      <trkpt lat="41.466520" lon="-8.126890">
        <ele>433.961</ele>
        <time>2020-07-14T22:49:36Z</time>
      </trkpt>
      <trkpt lat="41.466640" lon="-8.126770">
        <ele>433.931</ele>
        <time>2020-07-14T22:49:56Z</time>
      </trkpt>
      <trkpt lat="41.467070" lon="-8.126500">
        <ele>433.392</ele>
        <time>2020-07-14T22:50:16Z</time>
      </trkpt>
      <trkpt lat="41.468460" lon="-8.125720">
        <ele>444.862</ele>
        <time>2020-07-14T22:50:36Z</time>
      </trkpt>
      <trkpt lat="41.468710" lon="-8.125600">
        <ele>444.783</ele>
        <time>2020-07-14T22:50:56Z</time>
      </trkpt>
      <trkpt lat="41.468810" lon="-8.125580">
        <ele>445.011</ele>
        <time>2020-07-14T22:51:16Z</time>
      </trkpt>
      <trkpt lat="41.468930" lon="-8.125590">
        <ele>446.008</ele>
        <time>2020-07-14T22:51:36Z</time>
      </trkpt>
      <trkpt lat="41.469700" lon="-8.125760">
        <ele>448.841</ele>
        <time>2020-07-14T22:51:56Z</time>
      </trkpt>
      <trkpt lat="41.469820" lon="-8.125760">
        <ele>447.278</ele>
        <time>2020-07-14T22:52:16Z</time>
      </trkpt>
      <trkpt lat="41.469880" lon="-8.125730">
        <ele>445.913</ele>
        <time>2020-07-14T22:52:36Z</time>
      </trkpt>
      <trkpt lat="41.470030" lon="-8.125600">
        <ele>443.291</ele>
        <time>2020-07-14T22:52:56Z</time>
      </trkpt>
      <trkpt lat="41.470790" lon="-8.124670">
        <ele>442.728</ele>
        <time>2020-07-14T22:53:16Z</time>
      </trkpt>
      <trkpt lat="41.470960" lon="-8.124360">
        <ele>444.018</ele>
        <time>2020-07-14T22:53:36Z</time>
      </trkpt>
      <trkpt lat="41.471060" lon="-8.124090">
        <ele>445.518</ele>
        <time>2020-07-14T22:53:56Z</time>
      </trkpt>
      <trkpt lat="41.471250" lon="-8.123250">
        <ele>450.129</ele>
        <time>2020-07-14T22:54:16Z</time>
      </trkpt>
      <trkpt lat="41.472240" lon="-8.120730">
        <ele>460.899</ele>
        <time>2020-07-14T22:54:36Z</time>
      </trkpt>
      <trkpt lat="41.472380" lon="-8.120550">
        <ele>457.507</ele>
        <time>2020-07-14T22:54:56Z</time>
      </trkpt>
      <trkpt lat="41.472550" lon="-8.120470">
        <ele>456.827</ele>
        <time>2020-07-14T22:55:16Z</time>
      </trkpt>
      <trkpt lat="41.472910" lon="-8.120420">
        <ele>460.108</ele>
        <time>2020-07-14T22:55:36Z</time>
      </trkpt>
      <trkpt lat="41.473000" lon="-8.120390">
        <ele>461.714</ele>
        <time>2020-07-14T22:55:56Z</time>
      </trkpt>
      <trkpt lat="41.473100" lon="-8.120330">
        <ele>463.971</ele>
        <time>2020-07-14T22:56:16Z</time>
      </trkpt>
      <trkpt lat="41.473220" lon="-8.120210">
        <ele>467.366</ele>
        <time>2020-07-14T22:56:36Z</time>
      </trkpt>
      <trkpt lat="41.473390" lon="-8.120000">
        <ele>471.814</ele>
        <time>2020-07-14T22:56:56Z</time>
      </trkpt>
      <trkpt lat="41.473560" lon="-8.119740">
        <ele>473.821</ele>
        <time>2020-07-14T22:57:16Z</time>
      </trkpt>
      <trkpt lat="41.473780" lon="-8.119100">
        <ele>468.681</ele>
        <time>2020-07-14T22:57:36Z</time>
      </trkpt>
      <trkpt lat="41.473890" lon="-8.118890">
        <ele>469.011</ele>
        <time>2020-07-14T22:57:56Z</time>
      </trkpt>
      <trkpt lat="41.473960" lon="-8.118800">
        <ele>469.882</ele>
        <time>2020-07-14T22:58:16Z</time>
      </trkpt>
      <trkpt lat="41.474060" lon="-8.118730">
        <ele>470.525</ele>
        <time>2020-07-14T22:58:36Z</time>
      </trkpt>
      <trkpt lat="41.474190" lon="-8.118690">
        <ele>471.126</ele>
        <time>2020-07-14T22:58:56Z</time>
      </trkpt>
      <trkpt lat="41.474490" lon="-8.118730">
        <ele>472.708</ele>
        <time>2020-07-14T22:59:16Z</time>
      </trkpt>
      <trkpt lat="41.475750" lon="-8.119060">
        <ele>481.008</ele>
        <time>2020-07-14T22:59:36Z</time>
      </trkpt>
      <trkpt lat="41.477100" lon="-8.119350">
        <ele>488.437</ele>
        <time>2020-07-14T22:59:56Z</time>
      </trkpt>
      <trkpt lat="41.477400" lon="-8.119330">
        <ele>489.014</ele>
        <time>2020-07-14T23:00:16Z</time>
      </trkpt>
      <trkpt lat="41.477600" lon="-8.119240">
        <ele>489.399</ele>
        <time>2020-07-14T23:00:36Z</time>
      </trkpt>
      <trkpt lat="41.477710" lon="-8.119130">
        <ele>489.547</ele>
        <time>2020-07-14T23:00:56Z</time>
      </trkpt>
      <trkpt lat="41.478040" lon="-8.118570">
        <ele>494.544</ele>
        <time>2020-07-14T23:01:16Z</time>
      </trkpt>
      <trkpt lat="41.478180" lon="-8.118380">
        <ele>494.294</ele>
        <time>2020-07-14T23:01:36Z</time>
      </trkpt>
      <trkpt lat="41.478320" lon="-8.118240">
        <ele>494.274</ele>
        <time>2020-07-14T23:01:56Z</time>
      </trkpt>
      <trkpt lat="41.478500" lon="-8.118120">
        <ele>494.735</ele>
        <time>2020-07-14T23:02:16Z</time>
      </trkpt>
      <trkpt lat="41.478820" lon="-8.117960">
        <ele>496.269</ele>
        <time>2020-07-14T23:02:36Z</time>
      </trkpt>
      <trkpt lat="41.479010" lon="-8.117830">
        <ele>497.904</ele>
        <time>2020-07-14T23:02:56Z</time>
      </trkpt>
      <trkpt lat="41.479090" lon="-8.117720">
        <ele>498.724</ele>
        <time>2020-07-14T23:03:16Z</time>
      </trkpt>
      <trkpt lat="41.479610" lon="-8.115880">
        <ele>496.908</ele>
        <time>2020-07-14T23:03:36Z</time>
      </trkpt>
      <trkpt lat="41.479680" lon="-8.115730">
        <ele>496.151</ele>
        <time>2020-07-14T23:03:56Z</time>
      </trkpt>
      <trkpt lat="41.479910" lon="-8.115330">
        <ele>495.588</ele>
        <time>2020-07-14T23:04:16Z</time>
      </trkpt>
      <trkpt lat="41.480000" lon="-8.115210">
        <ele>495.563</ele>
        <time>2020-07-14T23:04:36Z</time>
      </trkpt>
      <trkpt lat="41.480380" lon="-8.114840">
        <ele>497.351</ele>
        <time>2020-07-14T23:04:56Z</time>
      </trkpt>
      <trkpt lat="41.480420" lon="-8.114750">
        <ele>497.228</ele>
        <time>2020-07-14T23:05:16Z</time>
      </trkpt>
      <trkpt lat="41.480430" lon="-8.114600">
        <ele>497.578</ele>
        <time>2020-07-14T23:05:36Z</time>
      </trkpt>
      <trkpt lat="41.480420" lon="-8.114440">
        <ele>498.058</ele>
        <time>2020-07-14T23:05:56Z</time>
      </trkpt>
      <trkpt lat="41.480260" lon="-8.113180">
        <ele>500.499</ele>
        <time>2020-07-14T23:06:16Z</time>
      </trkpt>
      <trkpt lat="41.480310" lon="-8.112890">
        <ele>501.375</ele>
        <time>2020-07-14T23:06:36Z</time>
      </trkpt>
      <trkpt lat="41.480470" lon="-8.112670">
        <ele>502.228</ele>
        <time>2020-07-14T23:06:56Z</time>
      </trkpt>
      <trkpt lat="41.481020" lon="-8.112310">
        <ele>504.820</ele>
        <time>2020-07-14T23:07:16Z</time>
      </trkpt>
      <trkpt lat="41.481150" lon="-8.112150">
        <ele>507.208</ele>
        <time>2020-07-14T23:07:36Z</time>
      </trkpt>
      <trkpt lat="41.481420" lon="-8.111430">
        <ele>510.092</ele>
        <time>2020-07-14T23:07:56Z</time>
      </trkpt>
      <trkpt lat="41.481570" lon="-8.111190">
        <ele>507.489</ele>
        <time>2020-07-14T23:08:16Z</time>
      </trkpt>
      <trkpt lat="41.482480" lon="-8.109900">
        <ele>516.154</ele>
        <time>2020-07-14T23:08:36Z</time>
      </trkpt>
      <trkpt lat="41.482620" lon="-8.109760">
        <ele>518.412</ele>
        <time>2020-07-14T23:08:56Z</time>
      </trkpt>
      <trkpt lat="41.482810" lon="-8.109630">
        <ele>520.859</ele>
        <time>2020-07-14T23:09:16Z</time>
      </trkpt>
      <trkpt lat="41.484030" lon="-8.108880">
        <ele>525.969</ele>
        <time>2020-07-14T23:09:36Z</time>
      </trkpt>
      <trkpt lat="41.484150" lon="-8.108790">
        <ele>527.619</ele>
        <time>2020-07-14T23:09:56Z</time>
      </trkpt>
      <trkpt lat="41.484330" lon="-8.108550">
        <ele>530.810</ele>
        <time>2020-07-14T23:10:16Z</time>
      </trkpt>
      <trkpt lat="41.485120" lon="-8.107230">
        <ele>541.164</ele>
        <time>2020-07-14T23:10:36Z</time>
      </trkpt>
      <trkpt lat="41.485330" lon="-8.106840">
        <ele>543.906</ele>
        <time>2020-07-14T23:10:56Z</time>
      </trkpt>
      <trkpt lat="41.485410" lon="-8.106640">
        <ele>544.516</ele>
        <time>2020-07-14T23:11:16Z</time>
      </trkpt>
      <trkpt lat="41.485540" lon="-8.106140">
        <ele>544.608</ele>
        <time>2020-07-14T23:11:36Z</time>
      </trkpt>
      <trkpt lat="41.485710" lon="-8.105540">
        <ele>546.761</ele>
        <time>2020-07-14T23:11:56Z</time>
      </trkpt>
      <trkpt lat="41.485800" lon="-8.105340">
        <ele>546.158</ele>
        <time>2020-07-14T23:12:16Z</time>
      </trkpt>
      <trkpt lat="41.485890" lon="-8.105200">
        <ele>546.043</ele>
        <time>2020-07-14T23:12:36Z</time>
      </trkpt>
      <trkpt lat="41.486070" lon="-8.105020">
        <ele>547.331</ele>
        <time>2020-07-14T23:12:56Z</time>
      </trkpt>
      <trkpt lat="41.486510" lon="-8.104690">
        <ele>556.898</ele>
        <time>2020-07-14T23:13:16Z</time>
      </trkpt>
      <trkpt lat="41.486620" lon="-8.104570">
        <ele>559.918</ele>
        <time>2020-07-14T23:13:36Z</time>
      </trkpt>
      <trkpt lat="41.486670" lon="-8.104480">
        <ele>561.258</ele>
        <time>2020-07-14T23:13:56Z</time>
      </trkpt>
      <trkpt lat="41.486740" lon="-8.104280">
        <ele>561.389</ele>
        <time>2020-07-14T23:14:16Z</time>
      </trkpt>
      <trkpt lat="41.487200" lon="-8.102360">
        <ele>560.852</ele>
        <time>2020-07-14T23:14:36Z</time>
      </trkpt>
      <trkpt lat="41.487300" lon="-8.102150">
        <ele>561.153</ele>
        <time>2020-07-14T23:14:56Z</time>
      </trkpt>
      <trkpt lat="41.487410" lon="-8.102000">
        <ele>560.708</ele>
        <time>2020-07-14T23:15:16Z</time>
      </trkpt>
      <trkpt lat="41.487630" lon="-8.101820">
        <ele>560.508</ele>
        <time>2020-07-14T23:15:36Z</time>
      </trkpt>
      <trkpt lat="41.487990" lon="-8.101640">
        <ele>561.670</ele>
        <time>2020-07-14T23:15:56Z</time>
      </trkpt>
      <trkpt lat="41.488350" lon="-8.101490">
        <ele>566.347</ele>
        <time>2020-07-14T23:16:16Z</time>
      </trkpt>
      <trkpt lat="41.489270" lon="-8.101040">
        <ele>563.432</ele>
        <time>2020-07-14T23:16:36Z</time>
      </trkpt>
      <trkpt lat="41.489940" lon="-8.100780">
        <ele>567.920</ele>
        <time>2020-07-14T23:16:56Z</time>
      </trkpt>
      <trkpt lat="41.490380" lon="-8.100550">
        <ele>568.437</ele>
        <time>2020-07-14T23:17:16Z</time>
      </trkpt>
      <trkpt lat="41.490590" lon="-8.100380">
        <ele>569.827</ele>
        <time>2020-07-14T23:17:36Z</time>
      </trkpt>
      <trkpt lat="41.490680" lon="-8.100270">
        <ele>570.257</ele>
        <time>2020-07-14T23:17:56Z</time>
      </trkpt>
      <trkpt lat="41.490800" lon="-8.100070">
        <ele>570.768</ele>
        <time>2020-07-14T23:18:16Z</time>
      </trkpt>
      <trkpt lat="41.491410" lon="-8.098790">
        <ele>581.017</ele>
        <time>2020-07-14T23:18:36Z</time>
      </trkpt>
      <trkpt lat="41.491640" lon="-8.098440">
        <ele>580.387</ele>
        <time>2020-07-14T23:18:56Z</time>
      </trkpt>
      <trkpt lat="41.492000" lon="-8.097990">
        <ele>577.515</ele>
        <time>2020-07-14T23:19:16Z</time>
      </trkpt>
      <trkpt lat="41.492060" lon="-8.097880">
        <ele>577.908</ele>
        <time>2020-07-14T23:19:36Z</time>
      </trkpt>
      <trkpt lat="41.492100" lon="-8.097730">
        <ele>577.496</ele>
        <time>2020-07-14T23:19:56Z</time>
      </trkpt>
      <trkpt lat="41.492120" lon="-8.097500">
        <ele>574.793</ele>
        <time>2020-07-14T23:20:16Z</time>
      </trkpt>
      <trkpt lat="41.492020" lon="-8.096740">
        <ele>568.028</ele>
        <time>2020-07-14T23:20:36Z</time>
      </trkpt>
      <trkpt lat="41.492050" lon="-8.096530">
        <ele>568.586</ele>
        <time>2020-07-14T23:20:56Z</time>
      </trkpt>
      <trkpt lat="41.492130" lon="-8.096350">
        <ele>570.373</ele>
        <time>2020-07-14T23:21:16Z</time>
      </trkpt>
      <trkpt lat="41.492190" lon="-8.096270">
        <ele>571.223</ele>
        <time>2020-07-14T23:21:36Z</time>
      </trkpt>
      <trkpt lat="41.492670" lon="-8.095820">
        <ele>574.893</ele>
        <time>2020-07-14T23:21:56Z</time>
      </trkpt>
      <trkpt lat="41.493460" lon="-8.095170">
        <ele>580.084</ele>
        <time>2020-07-14T23:22:16Z</time>
      </trkpt>
      <trkpt lat="41.493660" lon="-8.094860">
        <ele>585.767</ele>
        <time>2020-07-14T23:22:36Z</time>
      </trkpt>
      <trkpt lat="41.493950" lon="-8.094300">
        <ele>588.881</ele>
        <time>2020-07-14T23:22:56Z</time>
      </trkpt>
      <trkpt lat="41.494090" lon="-8.093960">
        <ele>587.619</ele>
        <time>2020-07-14T23:23:16Z</time>
      </trkpt>
      <trkpt lat="41.494110" lon="-8.093770">
        <ele>586.908</ele>
        <time>2020-07-14T23:23:36Z</time>
      </trkpt>
      <trkpt lat="41.494070" lon="-8.093560">
        <ele>585.361</ele>
        <time>2020-07-14T23:23:56Z</time>
      </trkpt>
      <trkpt lat="41.493660" lon="-8.092800">
        <ele>586.168</ele>
        <time>2020-07-14T23:24:16Z</time>
      </trkpt>
      <trkpt lat="41.493610" lon="-8.092670">
        <ele>586.193</ele>
        <time>2020-07-14T23:24:36Z</time>
      </trkpt>
      <trkpt lat="41.493580" lon="-8.092400">
        <ele>586.041</ele>
        <time>2020-07-14T23:24:56Z</time>
      </trkpt>
      <trkpt lat="41.493640" lon="-8.092130">
        <ele>585.638</ele>
        <time>2020-07-14T23:25:16Z</time>
      </trkpt>
      <trkpt lat="41.493690" lon="-8.092030">
        <ele>586.038</ele>
        <time>2020-07-14T23:25:36Z</time>
      </trkpt>
      <trkpt lat="41.494710" lon="-8.090780">
        <ele>590.578</ele>
        <time>2020-07-14T23:25:56Z</time>
      </trkpt>
      <trkpt lat="41.494770" lon="-8.090650">
        <ele>591.029</ele>
        <time>2020-07-14T23:26:16Z</time>
      </trkpt>
      <trkpt lat="41.494810" lon="-8.090500">
        <ele>590.969</ele>
        <time>2020-07-14T23:26:36Z</time>
      </trkpt>
      <trkpt lat="41.495080" lon="-8.088680">
        <ele>594.004</ele>
        <time>2020-07-14T23:26:56Z</time>
      </trkpt>
      <trkpt lat="41.495210" lon="-8.088440">
        <ele>592.424</ele>
        <time>2020-07-14T23:27:16Z</time>
      </trkpt>
      <trkpt lat="41.495380" lon="-8.088270">
        <ele>592.208</ele>
        <time>2020-07-14T23:27:36Z</time>
      </trkpt>
      <trkpt lat="41.495520" lon="-8.088220">
        <ele>593.611</ele>
        <time>2020-07-14T23:27:56Z</time>
      </trkpt>
      <trkpt lat="41.497210" lon="-8.087890">
        <ele>606.038</ele>
        <time>2020-07-14T23:28:16Z</time>
      </trkpt>
      <trkpt lat="41.497390" lon="-8.087780">
        <ele>607.983</ele>
        <time>2020-07-14T23:28:36Z</time>
      </trkpt>
      <trkpt lat="41.497490" lon="-8.087600">
        <ele>605.671</ele>
        <time>2020-07-14T23:28:56Z</time>
      </trkpt>
      <trkpt lat="41.497510" lon="-8.087390">
        <ele>602.578</ele>
        <time>2020-07-14T23:29:16Z</time>
      </trkpt>
      <trkpt lat="41.497470" lon="-8.087190">
        <ele>600.598</ele>
        <time>2020-07-14T23:29:36Z</time>
      </trkpt>
      <trkpt lat="41.497390" lon="-8.087060">
        <ele>600.168</ele>
        <time>2020-07-14T23:29:56Z</time>
      </trkpt>
      <trkpt lat="41.496090" lon="-8.085930">
        <ele>606.479</ele>
        <time>2020-07-14T23:30:16Z</time>
      </trkpt>
      <trkpt lat="41.495940" lon="-8.085690">
        <ele>605.448</ele>
        <time>2020-07-14T23:30:36Z</time>
      </trkpt>
      <trkpt lat="41.495890" lon="-8.085490">
        <ele>604.561</ele>
        <time>2020-07-14T23:30:56Z</time>
      </trkpt>
      <trkpt lat="41.495870" lon="-8.085290">
        <ele>603.417</ele>
        <time>2020-07-14T23:31:16Z</time>
      </trkpt>
      <trkpt lat="41.495920" lon="-8.084980">
        <ele>604.008</ele>
        <time>2020-07-14T23:31:36Z</time>
      </trkpt>
      <trkpt lat="41.496010" lon="-8.084770">
        <ele>606.289</ele>
        <time>2020-07-14T23:31:56Z</time>
      </trkpt>
      <trkpt lat="41.496540" lon="-8.084030">
        <ele>608.946</ele>
        <time>2020-07-14T23:32:16Z</time>
      </trkpt>
      <trkpt lat="41.497100" lon="-8.083360">
        <ele>609.041</ele>
        <time>2020-07-14T23:32:36Z</time>
      </trkpt>
      <trkpt lat="41.497270" lon="-8.083120">
        <ele>614.989</ele>
        <time>2020-07-14T23:32:56Z</time>
      </trkpt>
      <trkpt lat="41.497330" lon="-8.082890">
        <ele>615.856</ele>
        <time>2020-07-14T23:33:16Z</time>
      </trkpt>
      <trkpt lat="41.497340" lon="-8.082750">
        <ele>614.976</ele>
        <time>2020-07-14T23:33:36Z</time>
      </trkpt>
      <trkpt lat="41.497260" lon="-8.082470">
        <ele>609.366</ele>
        <time>2020-07-14T23:33:56Z</time>
      </trkpt>
      <trkpt lat="41.496180" lon="-8.080890">
        <ele>612.647</ele>
        <time>2020-07-14T23:34:16Z</time>
      </trkpt>
      <trkpt lat="41.496070" lon="-8.080610">
        <ele>611.037</ele>
        <time>2020-07-14T23:34:36Z</time>
      </trkpt>
      <trkpt lat="41.496040" lon="-8.080480">
        <ele>610.049</ele>
        <time>2020-07-14T23:34:56Z</time>
      </trkpt>
      <trkpt lat="41.496030" lon="-8.080140">
        <ele>608.713</ele>
        <time>2020-07-14T23:35:16Z</time>
      </trkpt>
      <trkpt lat="41.496130" lon="-8.079820">
        <ele>611.008</ele>
        <time>2020-07-14T23:35:36Z</time>
      </trkpt>
      <trkpt lat="41.496810" lon="-8.078390">
        <ele>612.048</ele>
        <time>2020-07-14T23:35:56Z</time>
      </trkpt>
      <trkpt lat="41.497330" lon="-8.077390">
        <ele>616.265</ele>
        <time>2020-07-14T23:36:16Z</time>
      </trkpt>
      <trkpt lat="41.497730" lon="-8.076580">
        <ele>617.430</ele>
        <time>2020-07-14T23:36:36Z</time>
      </trkpt>
      <trkpt lat="41.497860" lon="-8.076390">
        <ele>618.688</ele>
        <time>2020-07-14T23:36:56Z</time>
      </trkpt>
      <trkpt lat="41.498030" lon="-8.076230">
        <ele>617.855</ele>
        <time>2020-07-14T23:37:16Z</time>
      </trkpt>
      <trkpt lat="41.498720" lon="-8.075850">
        <ele>613.745</ele>
        <time>2020-07-14T23:37:36Z</time>
      </trkpt>
      <trkpt lat="41.499170" lon="-8.075530">
        <ele>609.595</ele>
        <time>2020-07-14T23:37:56Z</time>
      </trkpt>
      <trkpt lat="41.499330" lon="-8.075470">
        <ele>608.586</ele>
        <time>2020-07-14T23:38:16Z</time>
      </trkpt>
      <trkpt lat="41.499430" lon="-8.075450">
        <ele>608.139</ele>
        <time>2020-07-14T23:38:36Z</time>
      </trkpt>
      <trkpt lat="41.499540" lon="-8.075460">
        <ele>607.801</ele>
        <time>2020-07-14T23:38:56Z</time>
      </trkpt>
      <trkpt lat="41.500850" lon="-8.076070">
        <ele>608.021</ele>
        <time>2020-07-14T23:39:16Z</time>
      </trkpt>
      <trkpt lat="41.501750" lon="-8.076460">
        <ele>603.608</ele>
        <time>2020-07-14T23:39:36Z</time>
      </trkpt>
      <trkpt lat="41.502000" lon="-8.076560">
        <ele>600.098</ele>
        <time>2020-07-14T23:39:56Z</time>
      </trkpt>
      <trkpt lat="41.502220" lon="-8.076560">
        <ele>597.395</ele>
        <time>2020-07-14T23:40:16Z</time>
      </trkpt>
      <trkpt lat="41.502310" lon="-8.076520">
        <ele>596.840</ele>
        <time>2020-07-14T23:40:36Z</time>
      </trkpt>
      <trkpt lat="41.502400" lon="-8.076450">
        <ele>595.758</ele>
        <time>2020-07-14T23:40:56Z</time>
      </trkpt>
      <trkpt lat="41.502510" lon="-8.076280">
        <ele>594.545</ele>
        <time>2020-07-14T23:41:16Z</time>
      </trkpt>
      <trkpt lat="41.502540" lon="-8.076120">
        <ele>594.695</ele>
        <time>2020-07-14T23:41:36Z</time>
      </trkpt>
      <trkpt lat="41.502560" lon="-8.075840">
        <ele>595.285</ele>
        <time>2020-07-14T23:41:56Z</time>
      </trkpt>
      <trkpt lat="41.502520" lon="-8.074590">
        <ele>578.696</ele>
        <time>2020-07-14T23:42:16Z</time>
      </trkpt>
      <trkpt lat="41.502530" lon="-8.074420">
        <ele>576.659</ele>
        <time>2020-07-14T23:42:36Z</time>
      </trkpt>
      <trkpt lat="41.502570" lon="-8.074260">
        <ele>576.303</ele>
        <time>2020-07-14T23:42:56Z</time>
      </trkpt>
      <trkpt lat="41.502920" lon="-8.073500">
        <ele>573.223</ele>
        <time>2020-07-14T23:43:16Z</time>
      </trkpt>
      <trkpt lat="41.503320" lon="-8.072770">
        <ele>573.708</ele>
        <time>2020-07-14T23:43:36Z</time>
      </trkpt>
      <trkpt lat="41.503480" lon="-8.072570">
        <ele>571.550</ele>
        <time>2020-07-14T23:43:56Z</time>
      </trkpt>
      <trkpt lat="41.503590" lon="-8.072480">
        <ele>571.197</ele>
        <time>2020-07-14T23:44:16Z</time>
      </trkpt>
      <trkpt lat="41.503760" lon="-8.072390">
        <ele>568.752</ele>
        <time>2020-07-14T23:44:36Z</time>
      </trkpt>
      <trkpt lat="41.503870" lon="-8.072370">
        <ele>568.290</ele>
        <time>2020-07-14T23:44:56Z</time>
      </trkpt>
      <trkpt lat="41.503960" lon="-8.072370">
        <ele>567.757</ele>
        <time>2020-07-14T23:45:16Z</time>
      </trkpt>
      <trkpt lat="41.504170" lon="-8.072430">
        <ele>567.477</ele>
        <time>2020-07-14T23:45:36Z</time>
      </trkpt>
      <trkpt lat="41.505690" lon="-8.072980">
        <ele>557.657</ele>
        <time>2020-07-14T23:45:56Z</time>
      </trkpt>
      <trkpt lat="41.505950" lon="-8.073060">
        <ele>557.438</ele>
        <time>2020-07-14T23:46:16Z</time>
      </trkpt>
      <trkpt lat="41.506170" lon="-8.073080">
        <ele>555.631</ele>
        <time>2020-07-14T23:46:36Z</time>
      </trkpt>
      <trkpt lat="41.507090" lon="-8.073010">
        <ele>545.361</ele>
        <time>2020-07-14T23:46:56Z</time>
      </trkpt>
      <trkpt lat="41.507360" lon="-8.073010">
        <ele>541.207</ele>
        <time>2020-07-14T23:47:16Z</time>
      </trkpt>
      <trkpt lat="41.507530" lon="-8.073040">
        <ele>539.808</ele>
        <time>2020-07-14T23:47:36Z</time>
      </trkpt>
      <trkpt lat="41.508740" lon="-8.073500">
        <ele>543.368</ele>
        <time>2020-07-14T23:47:56Z</time>
      </trkpt>
      <trkpt lat="41.508980" lon="-8.073620">
        <ele>544.825</ele>
        <time>2020-07-14T23:48:16Z</time>
      </trkpt>
      <trkpt lat="41.509170" lon="-8.073800">
        <ele>546.040</ele>
        <time>2020-07-14T23:48:36Z</time>
      </trkpt>
      <trkpt lat="41.509320" lon="-8.074030">
        <ele>546.268</ele>
        <time>2020-07-14T23:48:56Z</time>
      </trkpt>
      <trkpt lat="41.509630" lon="-8.074790">
        <ele>545.585</ele>
        <time>2020-07-14T23:49:16Z</time>
      </trkpt>
      <trkpt lat="41.509770" lon="-8.075070">
        <ele>544.455</ele>
        <time>2020-07-14T23:49:36Z</time>
      </trkpt>
      <trkpt lat="41.509920" lon="-8.075230">
        <ele>542.495</ele>
        <time>2020-07-14T23:49:56Z</time>
      </trkpt>
      <trkpt lat="41.510040" lon="-8.075300">
        <ele>540.856</ele>
        <time>2020-07-14T23:50:16Z</time>
      </trkpt>
      <trkpt lat="41.510170" lon="-8.075340">
        <ele>539.584</ele>
        <time>2020-07-14T23:50:36Z</time>
      </trkpt>
      <trkpt lat="41.510360" lon="-8.075340">
        <ele>537.007</ele>
        <time>2020-07-14T23:50:56Z</time>
      </trkpt>
      <trkpt lat="41.510550" lon="-8.075260">
        <ele>533.517</ele>
        <time>2020-07-14T23:51:16Z</time>
      </trkpt>
      <trkpt lat="41.510870" lon="-8.075030">
        <ele>528.708</ele>
        <time>2020-07-14T23:51:36Z</time>
      </trkpt>
      <trkpt lat="41.511370" lon="-8.074620">
        <ele>525.843</ele>
        <time>2020-07-14T23:51:56Z</time>
      </trkpt>
      <trkpt lat="41.511500" lon="-8.074550">
        <ele>524.070</ele>
        <time>2020-07-14T23:52:16Z</time>
      </trkpt>
      <trkpt lat="41.511600" lon="-8.074520">
        <ele>523.295</ele>
        <time>2020-07-14T23:52:36Z</time>
      </trkpt>
      <trkpt lat="41.511720" lon="-8.074520">
        <ele>522.143</ele>
        <time>2020-07-14T23:52:56Z</time>
      </trkpt>
      <trkpt lat="41.511930" lon="-8.074580">
        <ele>519.710</ele>
        <time>2020-07-14T23:53:16Z</time>
      </trkpt>
      <trkpt lat="41.512030" lon="-8.074640">
        <ele>518.710</ele>
        <time>2020-07-14T23:53:36Z</time>
      </trkpt>
      <trkpt lat="41.512240" lon="-8.074830">
        <ele>516.920</ele>
        <time>2020-07-14T23:53:56Z</time>
      </trkpt>
      <trkpt lat="41.512680" lon="-8.075160">
        <ele>512.351</ele>
        <time>2020-07-14T23:54:16Z</time>
      </trkpt>
      <trkpt lat="41.512910" lon="-8.075270">
        <ele>511.351</ele>
        <time>2020-07-14T23:54:36Z</time>
      </trkpt>
      <trkpt lat="41.513140" lon="-8.075320">
        <ele>512.701</ele>
        <time>2020-07-14T23:54:56Z</time>
      </trkpt>
      <trkpt lat="41.514720" lon="-8.075310">
        <ele>502.411</ele>
        <time>2020-07-14T23:55:16Z</time>
      </trkpt>
      <trkpt lat="41.514980" lon="-8.075210">
        <ele>495.808</ele>
        <time>2020-07-14T23:55:36Z</time>
      </trkpt>
      <trkpt lat="41.515120" lon="-8.075060">
        <ele>494.940</ele>
        <time>2020-07-14T23:55:56Z</time>
      </trkpt>
      <trkpt lat="41.515200" lon="-8.074900">
        <ele>496.187</ele>
        <time>2020-07-14T23:56:16Z</time>
      </trkpt>
      <trkpt lat="41.515230" lon="-8.074740">
        <ele>497.452</ele>
        <time>2020-07-14T23:56:36Z</time>
      </trkpt>
      <trkpt lat="41.515230" lon="-8.074610">
        <ele>498.930</ele>
        <time>2020-07-14T23:56:56Z</time>
      </trkpt>
      <trkpt lat="41.515200" lon="-8.074400">
        <ele>500.997</ele>
        <time>2020-07-14T23:57:16Z</time>
      </trkpt>
      <trkpt lat="41.515090" lon="-8.074180">
        <ele>501.127</ele>
        <time>2020-07-14T23:57:36Z</time>
      </trkpt>
      <trkpt lat="41.514980" lon="-8.074060">
        <ele>501.077</ele>
        <time>2020-07-14T23:57:56Z</time>
      </trkpt>
      <trkpt lat="41.513730" lon="-8.073190">
        <ele>502.638</ele>
        <time>2020-07-14T23:58:16Z</time>
      </trkpt>
      <trkpt lat="41.513560" lon="-8.073050">
        <ele>503.217</ele>
        <time>2020-07-14T23:58:36Z</time>
      </trkpt>
      <trkpt lat="41.513450" lon="-8.072910">
        <ele>504.887</ele>
        <time>2020-07-14T23:58:56Z</time>
      </trkpt>
      <trkpt lat="41.513330" lon="-8.072700">
        <ele>508.215</ele>
        <time>2020-07-14T23:59:16Z</time>
      </trkpt>
      <trkpt lat="41.512790" lon="-8.071220">
        <ele>514.708</ele>
        <time>2020-07-14T23:59:36Z</time>
      </trkpt>
      <trkpt lat="41.512750" lon="-8.071000">
        <ele>516.396</ele>
        <time>2020-07-14T23:59:56Z</time>
      </trkpt>
      <trkpt lat="41.512750" lon="-8.070680">
        <ele>517.333</ele>
        <time>2020-07-15T00:00:16Z</time>
      </trkpt>
      <trkpt lat="41.512790" lon="-8.070450">
        <ele>517.578</ele>
        <time>2020-07-15T00:00:36Z</time>
      </trkpt>
      <trkpt lat="41.512860" lon="-8.070230">
        <ele>518.336</ele>
        <time>2020-07-15T00:00:56Z</time>
      </trkpt>
      <trkpt lat="41.512950" lon="-8.070060">
        <ele>520.593</ele>
        <time>2020-07-15T00:01:16Z</time>
      </trkpt>
      <trkpt lat="41.513120" lon="-8.069830">
        <ele>523.973</ele>
        <time>2020-07-15T00:01:36Z</time>
      </trkpt>
      <trkpt lat="41.513260" lon="-8.069710">
        <ele>525.683</ele>
        <time>2020-07-15T00:01:56Z</time>
      </trkpt>
      <trkpt lat="41.514720" lon="-8.068740">
        <ele>536.854</ele>
        <time>2020-07-15T00:02:16Z</time>
      </trkpt>
      <trkpt lat="41.514860" lon="-8.068670">
        <ele>534.134</ele>
        <time>2020-07-15T00:02:36Z</time>
      </trkpt>
      <trkpt lat="41.515170" lon="-8.068600">
        <ele>531.355</ele>
        <time>2020-07-15T00:02:56Z</time>
      </trkpt>
      <trkpt lat="41.515350" lon="-8.068610">
        <ele>531.710</ele>
        <time>2020-07-15T00:03:16Z</time>
      </trkpt>
      <trkpt lat="41.515500" lon="-8.068640">
        <ele>532.208</ele>
        <time>2020-07-15T00:03:36Z</time>
      </trkpt>
      <trkpt lat="41.516910" lon="-8.069130">
        <ele>532.188</ele>
        <time>2020-07-15T00:03:56Z</time>
      </trkpt>
      <trkpt lat="41.517090" lon="-8.069170">
        <ele>532.195</ele>
        <time>2020-07-15T00:04:16Z</time>
      </trkpt>
      <trkpt lat="41.517620" lon="-8.069190">
        <ele>535.030</ele>
        <time>2020-07-15T00:04:36Z</time>
      </trkpt>
      <trkpt lat="41.518420" lon="-8.069200">
        <ele>542.178</ele>
        <time>2020-07-15T00:04:56Z</time>
      </trkpt>
      <trkpt lat="41.518700" lon="-8.069190">
        <ele>541.365</ele>
        <time>2020-07-15T00:05:16Z</time>
      </trkpt>
      <trkpt lat="41.518820" lon="-8.069160">
        <ele>541.835</ele>
        <time>2020-07-15T00:05:36Z</time>
      </trkpt>
      <trkpt lat="41.518910" lon="-8.069080">
        <ele>540.295</ele>
        <time>2020-07-15T00:05:56Z</time>
      </trkpt>
      <trkpt lat="41.518980" lon="-8.068980">
        <ele>537.376</ele>
        <time>2020-07-15T00:06:16Z</time>
      </trkpt>
      <trkpt lat="41.519040" lon="-8.068730">
        <ele>533.952</ele>
        <time>2020-07-15T00:06:36Z</time>
      </trkpt>
      <trkpt lat="41.519020" lon="-8.068510">
        <ele>533.953</ele>
        <time>2020-07-15T00:06:56Z</time>
      </trkpt>
      <trkpt lat="41.518930" lon="-8.068320">
        <ele>534.708</ele>
        <time>2020-07-15T00:07:16Z</time>
      </trkpt>
      <trkpt lat="41.518840" lon="-8.068230">
        <ele>535.208</ele>
        <time>2020-07-15T00:07:36Z</time>
      </trkpt>
      <trkpt lat="41.518740" lon="-8.068150">
        <ele>535.280</ele>
        <time>2020-07-15T00:07:56Z</time>
      </trkpt>
      <trkpt lat="41.518640" lon="-8.068110">
        <ele>534.457</ele>
        <time>2020-07-15T00:08:16Z</time>
      </trkpt>
      <trkpt lat="41.518090" lon="-8.067950">
        <ele>535.552</ele>
        <time>2020-07-15T00:08:36Z</time>
      </trkpt>
      <trkpt lat="41.517810" lon="-8.067810">
        <ele>538.460</ele>
        <time>2020-07-15T00:08:56Z</time>
      </trkpt>
      <trkpt lat="41.517580" lon="-8.067660">
        <ele>539.887</ele>
        <time>2020-07-15T00:09:16Z</time>
      </trkpt>
      <trkpt lat="41.516610" lon="-8.066850">
        <ele>553.697</ele>
        <time>2020-07-15T00:09:36Z</time>
      </trkpt>
      <trkpt lat="41.516460" lon="-8.066680">
        <ele>554.267</ele>
        <time>2020-07-15T00:09:56Z</time>
      </trkpt>
      <trkpt lat="41.516380" lon="-8.066510">
        <ele>555.188</ele>
        <time>2020-07-15T00:10:16Z</time>
      </trkpt>
      <trkpt lat="41.516320" lon="-8.066240">
        <ele>556.328</ele>
        <time>2020-07-15T00:10:36Z</time>
      </trkpt>
      <trkpt lat="41.516320" lon="-8.066020">
        <ele>556.889</ele>
        <time>2020-07-15T00:10:56Z</time>
      </trkpt>
      <trkpt lat="41.516360" lon="-8.065840">
        <ele>558.017</ele>
        <time>2020-07-15T00:11:16Z</time>
      </trkpt>
      <trkpt lat="41.516420" lon="-8.065680">
        <ele>558.108</ele>
        <time>2020-07-15T00:11:36Z</time>
      </trkpt>
      <trkpt lat="41.516720" lon="-8.065120">
        <ele>561.437</ele>
        <time>2020-07-15T00:11:56Z</time>
      </trkpt>
      <trkpt lat="41.517000" lon="-8.064650">
        <ele>566.884</ele>
        <time>2020-07-15T00:12:16Z</time>
      </trkpt>
      <trkpt lat="41.517110" lon="-8.064410">
        <ele>569.039</ele>
        <time>2020-07-15T00:12:36Z</time>
      </trkpt>
      <trkpt lat="41.517180" lon="-8.064160">
        <ele>569.877</ele>
        <time>2020-07-15T00:12:56Z</time>
      </trkpt>
      <trkpt lat="41.517170" lon="-8.062870">
        <ele>584.484</ele>
        <time>2020-07-15T00:13:16Z</time>
      </trkpt>
      <trkpt lat="41.517140" lon="-8.062700">
        <ele>585.854</ele>
        <time>2020-07-15T00:13:36Z</time>
      </trkpt>
      <trkpt lat="41.517090" lon="-8.062540">
        <ele>586.114</ele>
        <time>2020-07-15T00:13:56Z</time>
      </trkpt>
      <trkpt lat="41.516990" lon="-8.062380">
        <ele>586.465</ele>
        <time>2020-07-15T00:14:16Z</time>
      </trkpt>
      <trkpt lat="41.516900" lon="-8.062270">
        <ele>586.498</ele>
        <time>2020-07-15T00:14:36Z</time>
      </trkpt>
      <trkpt lat="41.516820" lon="-8.062210">
        <ele>585.315</ele>
        <time>2020-07-15T00:14:56Z</time>
      </trkpt>
      <trkpt lat="41.516680" lon="-8.062130">
        <ele>583.126</ele>
        <time>2020-07-15T00:15:16Z</time>
      </trkpt>
      <trkpt lat="41.516560" lon="-8.062100">
        <ele>583.008</ele>
        <time>2020-07-15T00:15:36Z</time>
      </trkpt>
      <trkpt lat="41.516410" lon="-8.062120">
        <ele>581.794</ele>
        <time>2020-07-15T00:15:56Z</time>
      </trkpt>
      <trkpt lat="41.515580" lon="-8.062420">
        <ele>584.451</ele>
        <time>2020-07-15T00:16:16Z</time>
      </trkpt>
      <trkpt lat="41.515380" lon="-8.062390">
        <ele>582.126</ele>
        <time>2020-07-15T00:16:36Z</time>
      </trkpt>
      <trkpt lat="41.515240" lon="-8.062300">
        <ele>582.164</ele>
        <time>2020-07-15T00:16:56Z</time>
      </trkpt>
      <trkpt lat="41.515120" lon="-8.062180">
        <ele>582.911</ele>
        <time>2020-07-15T00:17:16Z</time>
      </trkpt>
      <trkpt lat="41.514450" lon="-8.061250">
        <ele>601.661</ele>
        <time>2020-07-15T00:17:36Z</time>
      </trkpt>
      <trkpt lat="41.514300" lon="-8.061100">
        <ele>602.721</ele>
        <time>2020-07-15T00:17:56Z</time>
      </trkpt>
      <trkpt lat="41.514140" lon="-8.060990">
        <ele>603.192</ele>
        <time>2020-07-15T00:18:16Z</time>
      </trkpt>
      <trkpt lat="41.513870" lon="-8.060850">
        <ele>605.563</ele>
        <time>2020-07-15T00:18:36Z</time>
      </trkpt>
      <trkpt lat="41.513580" lon="-8.060690">
        <ele>609.244</ele>
        <time>2020-07-15T00:18:56Z</time>
      </trkpt>
      <trkpt lat="41.513420" lon="-8.060580">
        <ele>609.118</ele>
        <time>2020-07-15T00:19:16Z</time>
      </trkpt>
      <trkpt lat="41.513340" lon="-8.060490">
        <ele>609.308</ele>
        <time>2020-07-15T00:19:36Z</time>
      </trkpt>
      <trkpt lat="41.513270" lon="-8.060340">
        <ele>610.151</ele>
        <time>2020-07-15T00:19:56Z</time>
      </trkpt>
      <trkpt lat="41.513230" lon="-8.060210">
        <ele>611.248</ele>
        <time>2020-07-15T00:20:16Z</time>
      </trkpt>
      <trkpt lat="41.513220" lon="-8.059850">
        <ele>616.343</ele>
        <time>2020-07-15T00:20:36Z</time>
      </trkpt>
      <trkpt lat="41.513300" lon="-8.058750">
        <ele>622.851</ele>
        <time>2020-07-15T00:20:56Z</time>
      </trkpt>
      <trkpt lat="41.513290" lon="-8.058470">
        <ele>624.678</ele>
        <time>2020-07-15T00:21:16Z</time>
      </trkpt>
      <trkpt lat="41.513210" lon="-8.058160">
        <ele>628.228</ele>
        <time>2020-07-15T00:21:36Z</time>
      </trkpt>
      <trkpt lat="41.512940" lon="-8.057580">
        <ele>631.748</ele>
        <time>2020-07-15T00:21:56Z</time>
      </trkpt>
      <trkpt lat="41.511900" lon="-8.055460">
        <ele>643.679</ele>
        <time>2020-07-15T00:22:16Z</time>
      </trkpt>
      <trkpt lat="41.511680" lon="-8.054850">
        <ele>644.617</ele>
        <time>2020-07-15T00:22:36Z</time>
      </trkpt>
      <trkpt lat="41.511630" lon="-8.054660">
        <ele>646.387</ele>
        <time>2020-07-15T00:22:56Z</time>
      </trkpt>
      <trkpt lat="41.511600" lon="-8.054230">
        <ele>651.915</ele>
        <time>2020-07-15T00:23:16Z</time>
      </trkpt>
      <trkpt lat="41.511580" lon="-8.052670">
        <ele>662.408</ele>
        <time>2020-07-15T00:23:36Z</time>
      </trkpt>
      <trkpt lat="41.511440" lon="-8.049320">
        <ele>656.916</ele>
        <time>2020-07-15T00:23:56Z</time>
      </trkpt>
      <trkpt lat="41.511380" lon="-8.047060">
        <ele>660.433</ele>
        <time>2020-07-15T00:24:16Z</time>
      </trkpt>
      <trkpt lat="41.511170" lon="-8.040820">
        <ele>639.358</ele>
        <time>2020-07-15T00:24:36Z</time>
      </trkpt>
      <trkpt lat="41.511120" lon="-8.039570">
        <ele>633.026</ele>
        <time>2020-07-15T00:24:56Z</time>
      </trkpt>
      <trkpt lat="41.511060" lon="-8.038620">
        <ele>624.743</ele>
        <time>2020-07-15T00:25:16Z</time>
      </trkpt>
      <trkpt lat="41.510990" lon="-8.038260">
        <ele>621.533</ele>
        <time>2020-07-15T00:25:36Z</time>
      </trkpt>
      <trkpt lat="41.510840" lon="-8.037810">
        <ele>623.733</ele>
        <time>2020-07-15T00:25:56Z</time>
      </trkpt>
      <trkpt lat="41.510620" lon="-8.037320">
        <ele>620.714</ele>
        <time>2020-07-15T00:26:16Z</time>
      </trkpt>
      <trkpt lat="41.510370" lon="-8.036980">
        <ele>620.342</ele>
        <time>2020-07-15T00:26:36Z</time>
      </trkpt>
      <trkpt lat="41.509618" lon="-8.036451">
        <ele>617.222</ele>
        <time>2020-07-15T00:26:56Z</time>
      </trkpt>
      <trkpt lat="41.508468" lon="-8.035692">
        <ele>612.714</ele>
        <time>2020-07-15T00:27:16Z</time>
      </trkpt>
      <trkpt lat="41.507973" lon="-8.035781">
        <ele>608.908</ele>
        <time>2020-07-15T00:27:36Z</time>
      </trkpt>
      <trkpt lat="41.507477" lon="-8.036188">
        <ele>607.769</ele>
        <time>2020-07-15T00:27:56Z</time>
      </trkpt>
      <trkpt lat="41.506185" lon="-8.036461">
        <ele>603.686</ele>
        <time>2020-07-15T00:28:16Z</time>
      </trkpt>
      <trkpt lat="41.505439" lon="-8.036192">
        <ele>603.541</ele>
        <time>2020-07-15T00:28:36Z</time>
      </trkpt>
      <trkpt lat="41.504629" lon="-8.036094">
        <ele>594.639</ele>
        <time>2020-07-15T00:28:56Z</time>
      </trkpt>
      <trkpt lat="41.504276" lon="-8.035637">
        <ele>596.076</ele>
        <time>2020-07-15T00:29:16Z</time>
      </trkpt>
      <trkpt lat="41.503872" lon="-8.034823">
        <ele>583.656</ele>
        <time>2020-07-15T00:29:36Z</time>
      </trkpt>
      <trkpt lat="41.503391" lon="-8.034576">
        <ele>579.246</ele>
        <time>2020-07-15T00:29:56Z</time>
      </trkpt>
      <trkpt lat="41.501406" lon="-8.035099">
        <ele>568.357</ele>
        <time>2020-07-15T00:30:16Z</time>
      </trkpt>
      <trkpt lat="41.500865" lon="-8.034878">
        <ele>573.573</ele>
        <time>2020-07-15T00:30:36Z</time>
      </trkpt>
      <trkpt lat="41.500605" lon="-8.034399">
        <ele>567.185</ele>
        <time>2020-07-15T00:30:56Z</time>
      </trkpt>
      <trkpt lat="41.500701" lon="-8.033129">
        <ele>554.113</ele>
        <time>2020-07-15T00:31:16Z</time>
      </trkpt>
      <trkpt lat="41.500705" lon="-8.032340">
        <ele>550.308</ele>
        <time>2020-07-15T00:31:36Z</time>
      </trkpt>
      <trkpt lat="41.500246" lon="-8.031533">
        <ele>550.122</ele>
        <time>2020-07-15T00:31:56Z</time>
      </trkpt>
      <trkpt lat="41.499830" lon="-8.031043">
        <ele>542.199</ele>
        <time>2020-07-15T00:32:16Z</time>
      </trkpt>
      <trkpt lat="41.499235" lon="-8.030037">
        <ele>525.154</ele>
        <time>2020-07-15T00:32:36Z</time>
      </trkpt>
      <trkpt lat="41.499314" lon="-8.027839">
        <ele>524.622</ele>
        <time>2020-07-15T00:32:56Z</time>
      </trkpt>
      <trkpt lat="41.499373" lon="-8.027179">
        <ele>517.539</ele>
        <time>2020-07-15T00:33:16Z</time>
      </trkpt>
      <trkpt lat="41.499995" lon="-8.026342">
        <ele>517.119</ele>
        <time>2020-07-15T00:33:36Z</time>
      </trkpt>
      <trkpt lat="41.500094" lon="-8.024952">
        <ele>512.399</ele>
        <time>2020-07-15T00:33:56Z</time>
      </trkpt>
      <trkpt lat="41.502984" lon="-8.021034">
        <ele>484.360</ele>
        <time>2020-07-15T00:34:16Z</time>
      </trkpt>
      <trkpt lat="41.502940" lon="-8.021010">
        <ele>484.623</ele>
        <time>2020-07-15T00:34:36Z</time>
      </trkpt>
      <trkpt lat="41.502970" lon="-8.020890">
        <ele>484.183</ele>
        <time>2020-07-15T00:34:56Z</time>
      </trkpt>
      <trkpt lat="41.502980" lon="-8.020660">
        <ele>482.511</ele>
        <time>2020-07-15T00:35:16Z</time>
      </trkpt>
      <trkpt lat="41.502950" lon="-8.020370">
        <ele>481.208</ele>
        <time>2020-07-15T00:35:36Z</time>
      </trkpt>
      <trkpt lat="41.502850" lon="-8.020070">
        <ele>480.467</ele>
        <time>2020-07-15T00:35:56Z</time>
      </trkpt>
      <trkpt lat="41.502790" lon="-8.019960">
        <ele>479.814</ele>
        <time>2020-07-15T00:36:16Z</time>
      </trkpt>
      <trkpt lat="41.502680" lon="-8.019820">
        <ele>478.249</ele>
        <time>2020-07-15T00:36:36Z</time>
      </trkpt>
      <trkpt lat="41.502580" lon="-8.019720">
        <ele>477.577</ele>
        <time>2020-07-15T00:36:56Z</time>
      </trkpt>
      <trkpt lat="41.502340" lon="-8.019590">
        <ele>477.114</ele>
        <time>2020-07-15T00:37:16Z</time>
      </trkpt>
      <trkpt lat="41.501390" lon="-8.019220">
        <ele>478.314</ele>
        <time>2020-07-15T00:37:36Z</time>
      </trkpt>
      <trkpt lat="41.501210" lon="-8.019110">
        <ele>475.544</ele>
        <time>2020-07-15T00:37:56Z</time>
      </trkpt>
      <trkpt lat="41.501060" lon="-8.018980">
        <ele>472.225</ele>
        <time>2020-07-15T00:38:16Z</time>
      </trkpt>
      <trkpt lat="41.500970" lon="-8.018830">
        <ele>467.789</ele>
        <time>2020-07-15T00:38:36Z</time>
      </trkpt>
      <trkpt lat="41.500880" lon="-8.018610">
        <ele>461.006</ele>
        <time>2020-07-15T00:38:56Z</time>
      </trkpt>
      <trkpt lat="41.500840" lon="-8.018410">
        <ele>456.626</ele>
        <time>2020-07-15T00:39:16Z</time>
      </trkpt>
      <trkpt lat="41.500860" lon="-8.018090">
        <ele>452.008</ele>
        <time>2020-07-15T00:39:36Z</time>
      </trkpt>
      <trkpt lat="41.500940" lon="-8.017780">
        <ele>450.183</ele>
        <time>2020-07-15T00:39:56Z</time>
      </trkpt>
      <trkpt lat="41.501210" lon="-8.017150">
        <ele>448.140</ele>
        <time>2020-07-15T00:40:16Z</time>
      </trkpt>
      <trkpt lat="41.501290" lon="-8.016820">
        <ele>449.515</ele>
        <time>2020-07-15T00:40:36Z</time>
      </trkpt>
      <trkpt lat="41.501300" lon="-8.016670">
        <ele>449.483</ele>
        <time>2020-07-15T00:40:56Z</time>
      </trkpt>
      <trkpt lat="41.501270" lon="-8.016400">
        <ele>445.660</ele>
        <time>2020-07-15T00:41:16Z</time>
      </trkpt>
      <trkpt lat="41.501010" lon="-8.015740">
        <ele>437.290</ele>
        <time>2020-07-15T00:41:36Z</time>
      </trkpt>
      <trkpt lat="41.500920" lon="-8.015470">
        <ele>433.420</ele>
        <time>2020-07-15T00:41:56Z</time>
      </trkpt>
      <trkpt lat="41.500880" lon="-8.015110">
        <ele>427.941</ele>
        <time>2020-07-15T00:42:16Z</time>
      </trkpt>
      <trkpt lat="41.500900" lon="-8.014840">
        <ele>424.065</ele>
        <time>2020-07-15T00:42:36Z</time>
      </trkpt>
      <trkpt lat="41.500940" lon="-8.014640">
        <ele>421.568</ele>
        <time>2020-07-15T00:42:56Z</time>
      </trkpt>
      <trkpt lat="41.501070" lon="-8.014350">
        <ele>419.914</ele>
        <time>2020-07-15T00:43:16Z</time>
      </trkpt>
      <trkpt lat="41.501210" lon="-8.014160">
        <ele>420.408</ele>
        <time>2020-07-15T00:43:36Z</time>
      </trkpt>
      <trkpt lat="41.501470" lon="-8.013850">
        <ele>423.261</ele>
        <time>2020-07-15T00:43:56Z</time>
      </trkpt>
      <trkpt lat="41.501479" lon="-8.013861">
        <ele>423.478</ele>
        <time>2020-07-15T00:44:16Z</time>
      </trkpt>
      <trkpt lat="41.506733" lon="-8.009764">
        <ele>392.993</ele>
        <time>2020-07-15T00:44:36Z</time>
      </trkpt>
      <trkpt lat="41.507511" lon="-8.008734">
        <ele>387.711</ele>
        <time>2020-07-15T00:44:56Z</time>
      </trkpt>
      <trkpt lat="41.508312" lon="-8.007800">
        <ele>388.228</ele>
        <time>2020-07-15T00:45:16Z</time>
      </trkpt>
      <trkpt lat="41.508899" lon="-8.005875">
        <ele>372.798</ele>
        <time>2020-07-15T00:45:36Z</time>
      </trkpt>
      <trkpt lat="41.509835" lon="-8.004253">
        <ele>367.838</ele>
        <time>2020-07-15T00:45:56Z</time>
      </trkpt>
      <trkpt lat="41.509780" lon="-8.004230">
        <ele>369.399</ele>
        <time>2020-07-15T00:46:16Z</time>
      </trkpt>
      <trkpt lat="41.509800" lon="-8.003970">
        <ele>365.631</ele>
        <time>2020-07-15T00:46:36Z</time>
      </trkpt>
      <trkpt lat="41.509800" lon="-8.003100">
        <ele>357.261</ele>
        <time>2020-07-15T00:46:56Z</time>
      </trkpt>
      <trkpt lat="41.509820" lon="-8.002730">
        <ele>354.007</ele>
        <time>2020-07-15T00:47:16Z</time>
      </trkpt>
      <trkpt lat="41.509890" lon="-8.002450">
        <ele>350.208</ele>
        <time>2020-07-15T00:47:36Z</time>
      </trkpt>
      <trkpt lat="41.509960" lon="-8.002290">
        <ele>348.558</ele>
        <time>2020-07-15T00:47:56Z</time>
      </trkpt>
      <trkpt lat="41.510170" lon="-8.002040">
        <ele>349.125</ele>
        <time>2020-07-15T00:48:16Z</time>
      </trkpt>
      <trkpt lat="41.510420" lon="-8.001860">
        <ele>351.790</ele>
        <time>2020-07-15T00:48:36Z</time>
      </trkpt>
      <trkpt lat="41.510930" lon="-8.001590">
        <ele>349.188</ele>
        <time>2020-07-15T00:48:56Z</time>
      </trkpt>
      <trkpt lat="41.511220" lon="-8.001350">
        <ele>347.885</ele>
        <time>2020-07-15T00:49:16Z</time>
      </trkpt>
      <trkpt lat="41.511420" lon="-8.001090">
        <ele>352.635</ele>
        <time>2020-07-15T00:49:36Z</time>
      </trkpt>
      <trkpt lat="41.511540" lon="-8.000850">
        <ele>355.715</ele>
        <time>2020-07-15T00:49:56Z</time>
      </trkpt>
      <trkpt lat="41.511670" lon="-8.000430">
        <ele>354.726</ele>
        <time>2020-07-15T00:50:16Z</time>
      </trkpt>
      <trkpt lat="41.512340" lon="-7.997920">
        <ele>340.155</ele>
        <time>2020-07-15T00:50:36Z</time>
      </trkpt>
      <trkpt lat="41.512380" lon="-7.997680">
        <ele>335.907</ele>
        <time>2020-07-15T00:50:56Z</time>
      </trkpt>
      <trkpt lat="41.512390" lon="-7.997380">
        <ele>330.517</ele>
        <time>2020-07-15T00:51:16Z</time>
      </trkpt>
      <trkpt lat="41.512330" lon="-7.996990">
        <ele>328.108</ele>
        <time>2020-07-15T00:51:36Z</time>
      </trkpt>
      <trkpt lat="41.512200" lon="-7.996630">
        <ele>327.950</ele>
        <time>2020-07-15T00:51:56Z</time>
      </trkpt>
      <trkpt lat="41.511990" lon="-7.996250">
        <ele>327.187</ele>
        <time>2020-07-15T00:52:16Z</time>
      </trkpt>
      <trkpt lat="41.511740" lon="-7.995850">
        <ele>325.742</ele>
        <time>2020-07-15T00:52:36Z</time>
      </trkpt>
      <trkpt lat="41.511600" lon="-7.995710">
        <ele>324.760</ele>
        <time>2020-07-15T00:52:56Z</time>
      </trkpt>
      <trkpt lat="41.511450" lon="-7.995640">
        <ele>323.737</ele>
        <time>2020-07-15T00:53:16Z</time>
      </trkpt>
      <trkpt lat="41.511370" lon="-7.995620">
        <ele>322.997</ele>
        <time>2020-07-15T00:53:36Z</time>
      </trkpt>
      <trkpt lat="41.511363" lon="-7.995657">
        <ele>322.427</ele>
        <time>2020-07-15T00:53:56Z</time>
      </trkpt>
      <trkpt lat="41.510971" lon="-7.995584">
        <ele>314.588</ele>
        <time>2020-07-15T00:54:16Z</time>
      </trkpt>
      <trkpt lat="41.510893" lon="-7.995522">
        <ele>312.517</ele>
        <time>2020-07-15T00:54:36Z</time>
      </trkpt>
      <trkpt lat="41.510893" lon="-7.995267">
        <ele>312.887</ele>
        <time>2020-07-15T00:54:56Z</time>
      </trkpt>
      <trkpt lat="41.510739" lon="-7.994974">
        <ele>311.915</ele>
        <time>2020-07-15T00:55:16Z</time>
      </trkpt>
      <trkpt lat="41.510696" lon="-7.994699">
        <ele>313.708</ele>
        <time>2020-07-15T00:55:36Z</time>
      </trkpt>
      <trkpt lat="41.510767" lon="-7.994290">
        <ele>318.046</ele>
        <time>2020-07-15T00:55:56Z</time>
      </trkpt>
      <trkpt lat="41.510920" lon="-7.993648">
        <ele>317.813</ele>
        <time>2020-07-15T00:56:16Z</time>
      </trkpt>
      <trkpt lat="41.511090" lon="-7.993040">
        <ele>318.848</ele>
        <time>2020-07-15T00:56:36Z</time>
      </trkpt>
      <trkpt lat="41.511140" lon="-7.992890">
        <ele>318.386</ele>
        <time>2020-07-15T00:56:56Z</time>
      </trkpt>
      <trkpt lat="41.511230" lon="-7.992720">
        <ele>316.983</ele>
        <time>2020-07-15T00:57:16Z</time>
      </trkpt>
      <trkpt lat="41.511270" lon="-7.992660">
        <ele>315.983</ele>
        <time>2020-07-15T00:57:36Z</time>
      </trkpt>
      <trkpt lat="41.511280" lon="-7.992700">
        <ele>316.353</ele>
        <time>2020-07-15T00:57:56Z</time>
      </trkpt>
      <trkpt lat="41.511270" lon="-7.992600">
        <ele>315.194</ele>
        <time>2020-07-15T00:58:16Z</time>
      </trkpt>
      <trkpt lat="41.511280" lon="-7.992300">
        <ele>310.132</ele>
        <time>2020-07-15T00:58:36Z</time>
      </trkpt>
      <trkpt lat="41.511310" lon="-7.991900">
        <ele>303.892</ele>
        <time>2020-07-15T00:58:56Z</time>
      </trkpt>
      <trkpt lat="41.511260" lon="-7.991530">
        <ele>300.411</ele>
        <time>2020-07-15T00:59:16Z</time>
      </trkpt>
      <trkpt lat="41.511130" lon="-7.990800">
        <ele>299.308</ele>
        <time>2020-07-15T00:59:36Z</time>
      </trkpt>
      <trkpt lat="41.510980" lon="-7.990330">
        <ele>295.438</ele>
        <time>2020-07-15T00:59:56Z</time>
      </trkpt>
      <trkpt lat="41.510930" lon="-7.990290">
        <ele>295.795</ele>
        <time>2020-07-15T01:00:16Z</time>
      </trkpt>
      <trkpt lat="41.510900" lon="-7.990230">
        <ele>295.780</ele>
        <time>2020-07-15T01:00:36Z</time>
      </trkpt>
      <trkpt lat="41.510880" lon="-7.990100">
        <ele>294.928</ele>
        <time>2020-07-15T01:00:56Z</time>
      </trkpt>
      <trkpt lat="41.510910" lon="-7.990010">
        <ele>293.795</ele>
        <time>2020-07-15T01:01:16Z</time>
      </trkpt>
      <trkpt lat="41.510940" lon="-7.989970">
        <ele>293.115</ele>
        <time>2020-07-15T01:01:36Z</time>
      </trkpt>
      <trkpt lat="41.511060" lon="-7.989320">
        <ele>289.825</ele>
        <time>2020-07-15T01:01:56Z</time>
      </trkpt>
      <trkpt lat="41.511370" lon="-7.988610">
        <ele>284.156</ele>
        <time>2020-07-15T01:02:16Z</time>
      </trkpt>
      <trkpt lat="41.511970" lon="-7.987360">
        <ele>280.646</ele>
        <time>2020-07-15T01:02:36Z</time>
      </trkpt>
      <trkpt lat="41.512130" lon="-7.987150">
        <ele>280.288</ele>
        <time>2020-07-15T01:02:56Z</time>
      </trkpt>
      <trkpt lat="41.512710" lon="-7.986730">
        <ele>280.016</ele>
        <time>2020-07-15T01:03:16Z</time>
      </trkpt>
      <trkpt lat="41.512720" lon="-7.986680">
        <ele>280.008</ele>
        <time>2020-07-15T01:03:36Z</time>
      </trkpt>
      <trkpt lat="41.512770" lon="-7.986600">
        <ele>280.089</ele>
        <time>2020-07-15T01:03:56Z</time>
      </trkpt>
      <trkpt lat="41.512810" lon="-7.986580">
        <ele>279.836</ele>
        <time>2020-07-15T01:04:16Z</time>
      </trkpt>
      <trkpt lat="41.512870" lon="-7.986600">
        <ele>279.331</ele>
        <time>2020-07-15T01:04:36Z</time>
      </trkpt>
      <trkpt lat="41.512980" lon="-7.986550">
        <ele>278.579</ele>
        <time>2020-07-15T01:04:56Z</time>
      </trkpt>
      <trkpt lat="41.513310" lon="-7.986340">
        <ele>278.076</ele>
        <time>2020-07-15T01:05:16Z</time>
      </trkpt>
      <trkpt lat="41.513450" lon="-7.986290">
        <ele>277.946</ele>
        <time>2020-07-15T01:05:36Z</time>
      </trkpt>
      <trkpt lat="41.513680" lon="-7.986110">
        <ele>277.296</ele>
        <time>2020-07-15T01:05:56Z</time>
      </trkpt>
      <trkpt lat="41.513970" lon="-7.985810">
        <ele>278.487</ele>
        <time>2020-07-15T01:06:16Z</time>
      </trkpt>
      <trkpt lat="41.514080" lon="-7.985670">
        <ele>278.941</ele>
        <time>2020-07-15T01:06:36Z</time>
      </trkpt>
      <trkpt lat="41.514340" lon="-7.985210">
        <ele>279.081</ele>
        <time>2020-07-15T01:06:56Z</time>
      </trkpt>
      <trkpt lat="41.514810" lon="-7.984050">
        <ele>277.809</ele>
        <time>2020-07-15T01:07:16Z</time>
      </trkpt>
      <trkpt lat="41.514930" lon="-7.983810">
        <ele>278.408</ele>
        <time>2020-07-15T01:07:36Z</time>
      </trkpt>
      <trkpt lat="41.515110" lon="-7.983530">
        <ele>279.119</ele>
        <time>2020-07-15T01:07:56Z</time>
      </trkpt>
      <trkpt lat="41.515330" lon="-7.983230">
        <ele>278.626</ele>
        <time>2020-07-15T01:08:16Z</time>
      </trkpt>
      <trkpt lat="41.515640" lon="-7.982950">
        <ele>273.361</ele>
        <time>2020-07-15T01:08:36Z</time>
      </trkpt>
      <trkpt lat="41.516460" lon="-7.982530">
        <ele>273.869</ele>
        <time>2020-07-15T01:08:56Z</time>
      </trkpt>
      <trkpt lat="41.516850" lon="-7.982330">
        <ele>275.666</ele>
        <time>2020-07-15T01:09:16Z</time>
      </trkpt>
      <trkpt lat="41.517100" lon="-7.982270">
        <ele>277.846</ele>
        <time>2020-07-15T01:09:36Z</time>
      </trkpt>
      <trkpt lat="41.517320" lon="-7.982260">
        <ele>279.296</ele>
        <time>2020-07-15T01:09:56Z</time>
      </trkpt>
      <trkpt lat="41.517550" lon="-7.982320">
        <ele>280.027</ele>
        <time>2020-07-15T01:10:16Z</time>
      </trkpt>
      <trkpt lat="41.517740" lon="-7.982450">
        <ele>281.565</ele>
        <time>2020-07-15T01:10:36Z</time>
      </trkpt>
      <trkpt lat="41.517910" lon="-7.982640">
        <ele>284.468</ele>
        <time>2020-07-15T01:10:56Z</time>
      </trkpt>
      <trkpt lat="41.518060" lon="-7.982860">
        <ele>285.714</ele>
        <time>2020-07-15T01:11:16Z</time>
      </trkpt>
      <trkpt lat="41.518160" lon="-7.983120">
        <ele>285.108</ele>
        <time>2020-07-15T01:11:36Z</time>
      </trkpt>
      <trkpt lat="41.518550" lon="-7.984650">
        <ele>287.561</ele>
        <time>2020-07-15T01:11:56Z</time>
      </trkpt>
      <trkpt lat="41.518770" lon="-7.985440">
        <ele>290.048</ele>
        <time>2020-07-15T01:12:16Z</time>
      </trkpt>
      <trkpt lat="41.518910" lon="-7.985650">
        <ele>290.453</ele>
        <time>2020-07-15T01:12:36Z</time>
      </trkpt>
      <trkpt lat="41.519060" lon="-7.985800">
        <ele>291.491</ele>
        <time>2020-07-15T01:12:56Z</time>
      </trkpt>
      <trkpt lat="41.519190" lon="-7.985890">
        <ele>292.618</ele>
        <time>2020-07-15T01:13:16Z</time>
      </trkpt>
      <trkpt lat="41.519700" lon="-7.986140">
        <ele>293.058</ele>
        <time>2020-07-15T01:13:36Z</time>
      </trkpt>
      <trkpt lat="41.519880" lon="-7.986200">
        <ele>295.088</ele>
        <time>2020-07-15T01:13:56Z</time>
      </trkpt>
      <trkpt lat="41.520180" lon="-7.986250">
        <ele>299.469</ele>
        <time>2020-07-15T01:14:16Z</time>
      </trkpt>
      <trkpt lat="41.520590" lon="-7.986260">
        <ele>302.892</ele>
        <time>2020-07-15T01:14:36Z</time>
      </trkpt>
      <trkpt lat="41.521330" lon="-7.986210">
        <ele>305.473</ele>
        <time>2020-07-15T01:14:56Z</time>
      </trkpt>
      <trkpt lat="41.521450" lon="-7.986240">
        <ele>306.720</ele>
        <time>2020-07-15T01:15:16Z</time>
      </trkpt>
      <trkpt lat="41.521550" lon="-7.986310">
        <ele>307.508</ele>
        <time>2020-07-15T01:15:36Z</time>
      </trkpt>
      <trkpt lat="41.521690" lon="-7.986470">
        <ele>307.384</ele>
        <time>2020-07-15T01:15:56Z</time>
      </trkpt>
      <trkpt lat="41.521790" lon="-7.986530">
        <ele>307.151</ele>
        <time>2020-07-15T01:16:16Z</time>
      </trkpt>
      <trkpt lat="41.521890" lon="-7.986540">
        <ele>307.566</ele>
        <time>2020-07-15T01:16:36Z</time>
      </trkpt>
      <trkpt lat="41.522010" lon="-7.986480">
        <ele>307.774</ele>
        <time>2020-07-15T01:16:56Z</time>
      </trkpt>
      <trkpt lat="41.522090" lon="-7.986390">
        <ele>307.451</ele>
        <time>2020-07-15T01:17:16Z</time>
      </trkpt>
      <trkpt lat="41.522160" lon="-7.986240">
        <ele>307.361</ele>
        <time>2020-07-15T01:17:36Z</time>
      </trkpt>
      <trkpt lat="41.522260" lon="-7.985890">
        <ele>308.951</ele>
        <time>2020-07-15T01:17:56Z</time>
      </trkpt>
      <trkpt lat="41.522370" lon="-7.985600">
        <ele>310.842</ele>
        <time>2020-07-15T01:18:16Z</time>
      </trkpt>
      <trkpt lat="41.522440" lon="-7.985470">
        <ele>311.965</ele>
        <time>2020-07-15T01:18:36Z</time>
      </trkpt>
      <trkpt lat="41.522580" lon="-7.985350">
        <ele>311.468</ele>
        <time>2020-07-15T01:18:56Z</time>
      </trkpt>
      <trkpt lat="41.522980" lon="-7.985070">
        <ele>309.714</ele>
        <time>2020-07-15T01:19:16Z</time>
      </trkpt>
      <trkpt lat="41.523210" lon="-7.984780">
        <ele>313.208</ele>
        <time>2020-07-15T01:19:36Z</time>
      </trkpt>
      <trkpt lat="41.523290" lon="-7.984710">
        <ele>313.311</ele>
        <time>2020-07-15T01:19:56Z</time>
      </trkpt>
      <trkpt lat="41.523780" lon="-7.984390">
        <ele>307.568</ele>
        <time>2020-07-15T01:20:16Z</time>
      </trkpt>
      <trkpt lat="41.524250" lon="-7.983940">
        <ele>307.333</ele>
        <time>2020-07-15T01:20:36Z</time>
      </trkpt>
      <trkpt lat="41.524540" lon="-7.983730">
        <ele>307.491</ele>
        <time>2020-07-15T01:20:56Z</time>
      </trkpt>
      <trkpt lat="41.525330" lon="-7.983420">
        <ele>314.098</ele>
        <time>2020-07-15T01:21:16Z</time>
      </trkpt>
      <trkpt lat="41.525480" lon="-7.983310">
        <ele>315.018</ele>
        <time>2020-07-15T01:21:36Z</time>
      </trkpt>
      <trkpt lat="41.525580" lon="-7.983150">
        <ele>316.878</ele>
        <time>2020-07-15T01:21:56Z</time>
      </trkpt>
      <trkpt lat="41.525670" lon="-7.982950">
        <ele>317.619</ele>
        <time>2020-07-15T01:22:16Z</time>
      </trkpt>
      <trkpt lat="41.525710" lon="-7.981770">
        <ele>318.554</ele>
        <time>2020-07-15T01:22:36Z</time>
      </trkpt>
      <trkpt lat="41.525760" lon="-7.981440">
        <ele>316.656</ele>
        <time>2020-07-15T01:22:56Z</time>
      </trkpt>
      <trkpt lat="41.525820" lon="-7.981320">
        <ele>313.411</ele>
        <time>2020-07-15T01:23:16Z</time>
      </trkpt>
      <trkpt lat="41.525960" lon="-7.981230">
        <ele>310.008</ele>
        <time>2020-07-15T01:23:36Z</time>
      </trkpt>
      <trkpt lat="41.526120" lon="-7.981210">
        <ele>307.570</ele>
        <time>2020-07-15T01:23:56Z</time>
      </trkpt>
      <trkpt lat="41.526260" lon="-7.981150">
        <ele>311.547</ele>
        <time>2020-07-15T01:24:16Z</time>
      </trkpt>
      <trkpt lat="41.526330" lon="-7.981100">
        <ele>313.582</ele>
        <time>2020-07-15T01:24:36Z</time>
      </trkpt>
      <trkpt lat="41.526370" lon="-7.980930">
        <ele>314.610</ele>
        <time>2020-07-15T01:24:56Z</time>
      </trkpt>
      <trkpt lat="41.526360" lon="-7.980780">
        <ele>314.717</ele>
        <time>2020-07-15T01:25:16Z</time>
      </trkpt>
      <trkpt lat="41.526110" lon="-7.979850">
        <ele>317.177</ele>
        <time>2020-07-15T01:25:36Z</time>
      </trkpt>
      <trkpt lat="41.526070" lon="-7.979590">
        <ele>316.077</ele>
        <time>2020-07-15T01:25:56Z</time>
      </trkpt>
      <trkpt lat="41.526090" lon="-7.979450">
        <ele>315.588</ele>
        <time>2020-07-15T01:26:16Z</time>
      </trkpt>
      <trkpt lat="41.526160" lon="-7.979320">
        <ele>315.388</ele>
        <time>2020-07-15T01:26:36Z</time>
      </trkpt>
      <trkpt lat="41.526240" lon="-7.979270">
        <ele>315.724</ele>
        <time>2020-07-15T01:26:56Z</time>
      </trkpt>
      <trkpt lat="41.526320" lon="-7.979250">
        <ele>316.426</ele>
        <time>2020-07-15T01:27:16Z</time>
      </trkpt>
      <trkpt lat="41.526460" lon="-7.979310">
        <ele>318.208</ele>
        <time>2020-07-15T01:27:36Z</time>
      </trkpt>
      <trkpt lat="41.526560" lon="-7.979420">
        <ele>320.213</ele>
        <time>2020-07-15T01:27:56Z</time>
      </trkpt>
      <trkpt lat="41.526750" lon="-7.979710">
        <ele>325.590</ele>
        <time>2020-07-15T01:28:16Z</time>
      </trkpt>
      <trkpt lat="41.526900" lon="-7.979850">
        <ele>327.815</ele>
        <time>2020-07-15T01:28:36Z</time>
      </trkpt>
      <trkpt lat="41.526980" lon="-7.979890">
        <ele>328.213</ele>
        <time>2020-07-15T01:28:56Z</time>
      </trkpt>
      <trkpt lat="41.527150" lon="-7.979920">
        <ele>326.760</ele>
        <time>2020-07-15T01:29:16Z</time>
      </trkpt>
      <trkpt lat="41.527450" lon="-7.979880">
        <ele>324.840</ele>
        <time>2020-07-15T01:29:36Z</time>
      </trkpt>
      <trkpt lat="41.527670" lon="-7.979820">
        <ele>327.120</ele>
        <time>2020-07-15T01:29:56Z</time>
      </trkpt>
      <trkpt lat="41.527840" lon="-7.979720">
        <ele>329.361</ele>
        <time>2020-07-15T01:30:16Z</time>
      </trkpt>
      <trkpt lat="41.527950" lon="-7.979550">
        <ele>330.227</ele>
        <time>2020-07-15T01:30:36Z</time>
      </trkpt>
      <trkpt lat="41.528020" lon="-7.979300">
        <ele>329.068</ele>
        <time>2020-07-15T01:30:56Z</time>
      </trkpt>
      <trkpt lat="41.528210" lon="-7.978320">
        <ele>330.514</ele>
        <time>2020-07-15T01:31:16Z</time>
      </trkpt>
      <trkpt lat="41.528210" lon="-7.978240">
        <ele>330.808</ele>
        <time>2020-07-15T01:31:36Z</time>
      </trkpt>
      <trkpt lat="41.528180" lon="-7.978110">
        <ele>330.457</ele>
        <time>2020-07-15T01:31:56Z</time>
      </trkpt>
      <trkpt lat="41.528010" lon="-7.977610">
        <ele>326.824</ele>
        <time>2020-07-15T01:32:16Z</time>
      </trkpt>
      <trkpt lat="41.527970" lon="-7.977350">
        <ele>326.539</ele>
        <time>2020-07-15T01:32:36Z</time>
      </trkpt>
      <trkpt lat="41.527990" lon="-7.977160">
        <ele>326.947</ele>
        <time>2020-07-15T01:32:56Z</time>
      </trkpt>
      <trkpt lat="41.528030" lon="-7.977030">
        <ele>327.624</ele>
        <time>2020-07-15T01:33:16Z</time>
      </trkpt>
      <trkpt lat="41.528120" lon="-7.976900">
        <ele>329.254</ele>
        <time>2020-07-15T01:33:36Z</time>
      </trkpt>
      <trkpt lat="41.528250" lon="-7.976820">
        <ele>331.134</ele>
        <time>2020-07-15T01:33:56Z</time>
      </trkpt>
      <trkpt lat="41.528520" lon="-7.976710">
        <ele>333.145</ele>
        <time>2020-07-15T01:34:16Z</time>
      </trkpt>
      <trkpt lat="41.528750" lon="-7.976730">
        <ele>334.987</ele>
        <time>2020-07-15T01:34:36Z</time>
      </trkpt>
      <trkpt lat="41.529270" lon="-7.976840">
        <ele>338.442</ele>
        <time>2020-07-15T01:34:56Z</time>
      </trkpt>
      <trkpt lat="41.529360" lon="-7.976840">
        <ele>339.026</ele>
        <time>2020-07-15T01:35:16Z</time>
      </trkpt>
      <trkpt lat="41.529690" lon="-7.976740">
        <ele>337.708</ele>
        <time>2020-07-15T01:35:36Z</time>
      </trkpt>
      <trkpt lat="41.530470" lon="-7.976460">
        <ele>336.093</ele>
        <time>2020-07-15T01:35:56Z</time>
      </trkpt>
      <trkpt lat="41.530640" lon="-7.976430">
        <ele>338.070</ele>
        <time>2020-07-15T01:36:16Z</time>
      </trkpt>
      <trkpt lat="41.530870" lon="-7.976440">
        <ele>341.635</ele>
        <time>2020-07-15T01:36:36Z</time>
      </trkpt>
      <trkpt lat="41.531120" lon="-7.976490">
        <ele>343.933</ele>
        <time>2020-07-15T01:36:56Z</time>
      </trkpt>
      <trkpt lat="41.531350" lon="-7.976600">
        <ele>347.170</ele>
        <time>2020-07-15T01:37:16Z</time>
      </trkpt>
      <trkpt lat="41.531510" lon="-7.976740">
        <ele>349.720</ele>
        <time>2020-07-15T01:37:36Z</time>
      </trkpt>
      <trkpt lat="41.531830" lon="-7.977130">
        <ele>359.330</ele>
        <time>2020-07-15T01:37:56Z</time>
      </trkpt>
      <trkpt lat="41.531920" lon="-7.977200">
        <ele>361.491</ele>
        <time>2020-07-15T01:38:16Z</time>
      </trkpt>
      <trkpt lat="41.532050" lon="-7.977250">
        <ele>362.311</ele>
        <time>2020-07-15T01:38:36Z</time>
      </trkpt>
      <trkpt lat="41.532130" lon="-7.977250">
        <ele>362.021</ele>
        <time>2020-07-15T01:38:56Z</time>
      </trkpt>
      <trkpt lat="41.532190" lon="-7.977230">
        <ele>361.303</ele>
        <time>2020-07-15T01:39:16Z</time>
      </trkpt>
      <trkpt lat="41.532290" lon="-7.977090">
        <ele>359.408</ele>
        <time>2020-07-15T01:39:36Z</time>
      </trkpt>
      <trkpt lat="41.532500" lon="-7.976620">
        <ele>356.536</ele>
        <time>2020-07-15T01:39:56Z</time>
      </trkpt>
      <trkpt lat="41.532600" lon="-7.976470">
        <ele>356.853</ele>
        <time>2020-07-15T01:40:16Z</time>
      </trkpt>
      <trkpt lat="41.532960" lon="-7.976120">
        <ele>358.728</ele>
        <time>2020-07-15T01:40:36Z</time>
      </trkpt>
      <trkpt lat="41.533490" lon="-7.975650">
        <ele>369.276</ele>
        <time>2020-07-15T01:40:56Z</time>
      </trkpt>
      <trkpt lat="41.533950" lon="-7.975390">
        <ele>367.183</ele>
        <time>2020-07-15T01:41:16Z</time>
      </trkpt>
      <trkpt lat="41.534070" lon="-7.975290">
        <ele>366.543</ele>
        <time>2020-07-15T01:41:36Z</time>
      </trkpt>
      <trkpt lat="41.534240" lon="-7.975080">
        <ele>367.033</ele>
        <time>2020-07-15T01:41:56Z</time>
      </trkpt>
      <trkpt lat="41.534480" lon="-7.974700">
        <ele>367.724</ele>
        <time>2020-07-15T01:42:16Z</time>
      </trkpt>
      <trkpt lat="41.534580" lon="-7.974600">
        <ele>367.938</ele>
        <time>2020-07-15T01:42:36Z</time>
      </trkpt>
      <trkpt lat="41.534850" lon="-7.974520">
        <ele>367.870</ele>
        <time>2020-07-15T01:42:56Z</time>
      </trkpt>
      <trkpt lat="41.535460" lon="-7.974460">
        <ele>369.317</ele>
        <time>2020-07-15T01:43:16Z</time>
      </trkpt>
      <trkpt lat="41.535690" lon="-7.974470">
        <ele>370.508</ele>
        <time>2020-07-15T01:43:36Z</time>
      </trkpt>
      <trkpt lat="41.535820" lon="-7.974550">
        <ele>372.268</ele>
        <time>2020-07-15T01:43:56Z</time>
      </trkpt>
      <trkpt lat="41.535940" lon="-7.974720">
        <ele>373.775</ele>
        <time>2020-07-15T01:44:16Z</time>
      </trkpt>
      <trkpt lat="41.536370" lon="-7.975660">
        <ele>383.970</ele>
        <time>2020-07-15T01:44:36Z</time>
      </trkpt>
      <trkpt lat="41.536440" lon="-7.975770">
        <ele>385.888</ele>
        <time>2020-07-15T01:44:56Z</time>
      </trkpt>
      <trkpt lat="41.536580" lon="-7.975880">
        <ele>386.115</ele>
        <time>2020-07-15T01:45:16Z</time>
      </trkpt>
      <trkpt lat="41.536670" lon="-7.975930">
        <ele>386.165</ele>
        <time>2020-07-15T01:45:36Z</time>
      </trkpt>
      <trkpt lat="41.536850" lon="-7.975960">
        <ele>385.445</ele>
        <time>2020-07-15T01:45:56Z</time>
      </trkpt>
      <trkpt lat="41.537090" lon="-7.975960">
        <ele>385.546</ele>
        <time>2020-07-15T01:46:16Z</time>
      </trkpt>
      <trkpt lat="41.537410" lon="-7.975930">
        <ele>386.076</ele>
        <time>2020-07-15T01:46:36Z</time>
      </trkpt>
      <trkpt lat="41.537630" lon="-7.975840">
        <ele>384.190</ele>
        <time>2020-07-15T01:46:56Z</time>
      </trkpt>
      <trkpt lat="41.538090" lon="-7.975560">
        <ele>385.319</ele>
        <time>2020-07-15T01:47:16Z</time>
      </trkpt>
      <trkpt lat="41.538260" lon="-7.975560">
        <ele>386.508</ele>
        <time>2020-07-15T01:47:36Z</time>
      </trkpt>
      <trkpt lat="41.538720" lon="-7.975650">
        <ele>394.642</ele>
        <time>2020-07-15T01:47:56Z</time>
      </trkpt>
      <trkpt lat="41.538840" lon="-7.975650">
        <ele>397.169</ele>
        <time>2020-07-15T01:48:16Z</time>
      </trkpt>
      <trkpt lat="41.539010" lon="-7.975600">
        <ele>399.054</ele>
        <time>2020-07-15T01:48:36Z</time>
      </trkpt>
      <trkpt lat="41.539350" lon="-7.975460">
        <ele>400.412</ele>
        <time>2020-07-15T01:48:56Z</time>
      </trkpt>
      <trkpt lat="41.539620" lon="-7.975400">
        <ele>401.289</ele>
        <time>2020-07-15T01:49:16Z</time>
      </trkpt>
      <trkpt lat="41.539780" lon="-7.975420">
        <ele>402.769</ele>
        <time>2020-07-15T01:49:36Z</time>
      </trkpt>
      <trkpt lat="41.539960" lon="-7.975470">
        <ele>403.349</ele>
        <time>2020-07-15T01:49:56Z</time>
      </trkpt>
      <trkpt lat="41.540420" lon="-7.975760">
        <ele>409.810</ele>
        <time>2020-07-15T01:50:16Z</time>
      </trkpt>
      <trkpt lat="41.540730" lon="-7.975910">
        <ele>414.686</ele>
        <time>2020-07-15T01:50:36Z</time>
      </trkpt>
      <trkpt lat="41.540940" lon="-7.975930">
        <ele>415.260</ele>
        <time>2020-07-15T01:50:56Z</time>
      </trkpt>
      <trkpt lat="41.541130" lon="-7.975890">
        <ele>415.026</ele>
        <time>2020-07-15T01:51:16Z</time>
      </trkpt>
      <trkpt lat="41.542170" lon="-7.975270">
        <ele>427.108</ele>
        <time>2020-07-15T01:51:36Z</time>
      </trkpt>
      <trkpt lat="41.542520" lon="-7.975110">
        <ele>431.483</ele>
        <time>2020-07-15T01:51:56Z</time>
      </trkpt>
      <trkpt lat="41.542920" lon="-7.975030">
        <ele>432.890</ele>
        <time>2020-07-15T01:52:16Z</time>
      </trkpt>
      <trkpt lat="41.544080" lon="-7.974850">
        <ele>440.195</ele>
        <time>2020-07-15T01:52:36Z</time>
      </trkpt>
      <trkpt lat="41.544300" lon="-7.974740">
        <ele>441.333</ele>
        <time>2020-07-15T01:52:56Z</time>
      </trkpt>
      <trkpt lat="41.544470" lon="-7.974590">
        <ele>440.930</ele>
        <time>2020-07-15T01:53:16Z</time>
      </trkpt>
      <trkpt lat="41.544780" lon="-7.974210">
        <ele>442.490</ele>
        <time>2020-07-15T01:53:36Z</time>
      </trkpt>
      <trkpt lat="41.545030" lon="-7.973950">
        <ele>444.690</ele>
        <time>2020-07-15T01:53:56Z</time>
      </trkpt>
      <trkpt lat="41.545240" lon="-7.973820">
        <ele>446.111</ele>
        <time>2020-07-15T01:54:16Z</time>
      </trkpt>
      <trkpt lat="41.545440" lon="-7.973780">
        <ele>447.792</ele>
        <time>2020-07-15T01:54:36Z</time>
      </trkpt>
      <trkpt lat="41.545710" lon="-7.973840">
        <ele>449.573</ele>
        <time>2020-07-15T01:54:56Z</time>
      </trkpt>
      <trkpt lat="41.545900" lon="-7.973950">
        <ele>450.320</ele>
        <time>2020-07-15T01:55:16Z</time>
      </trkpt>
      <trkpt lat="41.546320" lon="-7.974310">
        <ele>454.508</ele>
        <time>2020-07-15T01:55:36Z</time>
      </trkpt>
      <trkpt lat="41.546560" lon="-7.974620">
        <ele>456.194</ele>
        <time>2020-07-15T01:55:56Z</time>
      </trkpt>
      <trkpt lat="41.546800" lon="-7.974970">
        <ele>456.641</ele>
        <time>2020-07-15T01:56:16Z</time>
      </trkpt>
      <trkpt lat="41.546990" lon="-7.975190">
        <ele>455.376</ele>
        <time>2020-07-15T01:56:36Z</time>
      </trkpt>
      <trkpt lat="41.547190" lon="-7.975300">
        <ele>456.264</ele>
        <time>2020-07-15T01:56:56Z</time>
      </trkpt>
      <trkpt lat="41.547390" lon="-7.975340">
        <ele>459.861</ele>
        <time>2020-07-15T01:57:16Z</time>
      </trkpt>
      <trkpt lat="41.547640" lon="-7.975290">
        <ele>464.241</ele>
        <time>2020-07-15T01:57:36Z</time>
      </trkpt>
      <trkpt lat="41.548460" lon="-7.974790">
        <ele>470.251</ele>
        <time>2020-07-15T01:57:56Z</time>
      </trkpt>
      <trkpt lat="41.548670" lon="-7.974770">
        <ele>470.132</ele>
        <time>2020-07-15T01:58:16Z</time>
      </trkpt>
      <trkpt lat="41.548860" lon="-7.974830">
        <ele>472.573</ele>
        <time>2020-07-15T01:58:36Z</time>
      </trkpt>
      <trkpt lat="41.549150" lon="-7.975040">
        <ele>478.885</ele>
        <time>2020-07-15T01:58:56Z</time>
      </trkpt>
      <trkpt lat="41.549360" lon="-7.975150">
        <ele>481.213</ele>
        <time>2020-07-15T01:59:16Z</time>
      </trkpt>
      <trkpt lat="41.549540" lon="-7.975140">
        <ele>482.208</ele>
        <time>2020-07-15T01:59:36Z</time>
      </trkpt>
      <trkpt lat="41.549620" lon="-7.975100">
        <ele>482.912</ele>
        <time>2020-07-15T01:59:56Z</time>
      </trkpt>
      <trkpt lat="41.549750" lon="-7.974970">
        <ele>484.739</ele>
        <time>2020-07-15T02:00:16Z</time>
      </trkpt>
      <trkpt lat="41.549830" lon="-7.974760">
        <ele>486.274</ele>
        <time>2020-07-15T02:00:36Z</time>
      </trkpt>
      <trkpt lat="41.549860" lon="-7.974200">
        <ele>484.072</ele>
        <time>2020-07-15T02:00:56Z</time>
      </trkpt>
      <trkpt lat="41.549890" lon="-7.973950">
        <ele>486.159</ele>
        <time>2020-07-15T02:01:16Z</time>
      </trkpt>
      <trkpt lat="41.550000" lon="-7.973710">
        <ele>490.649</ele>
        <time>2020-07-15T02:01:36Z</time>
      </trkpt>
      <trkpt lat="41.550140" lon="-7.973550">
        <ele>494.139</ele>
        <time>2020-07-15T02:01:56Z</time>
      </trkpt>
      <trkpt lat="41.550240" lon="-7.973490">
        <ele>495.920</ele>
        <time>2020-07-15T02:02:16Z</time>
      </trkpt>
      <trkpt lat="41.550440" lon="-7.973440">
        <ele>496.411</ele>
        <time>2020-07-15T02:02:36Z</time>
      </trkpt>
      <trkpt lat="41.550960" lon="-7.973380">
        <ele>493.421</ele>
        <time>2020-07-15T02:02:56Z</time>
      </trkpt>
      <trkpt lat="41.551240" lon="-7.973330">
        <ele>494.803</ele>
        <time>2020-07-15T02:03:16Z</time>
      </trkpt>
      <trkpt lat="41.551960" lon="-7.973020">
        <ele>497.608</ele>
        <time>2020-07-15T02:03:36Z</time>
      </trkpt>
      <trkpt lat="41.552180" lon="-7.972980">
        <ele>500.056</ele>
        <time>2020-07-15T02:03:56Z</time>
      </trkpt>
      <trkpt lat="41.552430" lon="-7.972980">
        <ele>501.713</ele>
        <time>2020-07-15T02:04:16Z</time>
      </trkpt>
      <trkpt lat="41.552660" lon="-7.973040">
        <ele>503.748</ele>
        <time>2020-07-15T02:04:36Z</time>
      </trkpt>
      <trkpt lat="41.553560" lon="-7.973340">
        <ele>515.976</ele>
        <time>2020-07-15T02:04:56Z</time>
      </trkpt>
      <trkpt lat="41.553710" lon="-7.973370">
        <ele>517.793</ele>
        <time>2020-07-15T02:05:16Z</time>
      </trkpt>
      <trkpt lat="41.553910" lon="-7.973370">
        <ele>520.013</ele>
        <time>2020-07-15T02:05:36Z</time>
      </trkpt>
      <trkpt lat="41.554210" lon="-7.973270">
        <ele>524.393</ele>
        <time>2020-07-15T02:05:56Z</time>
      </trkpt>
      <trkpt lat="41.554370" lon="-7.973190">
        <ele>528.574</ele>
        <time>2020-07-15T02:06:16Z</time>
      </trkpt>
      <trkpt lat="41.554510" lon="-7.973080">
        <ele>530.835</ele>
        <time>2020-07-15T02:06:36Z</time>
      </trkpt>
      <trkpt lat="41.554700" lon="-7.972840">
        <ele>535.086</ele>
        <time>2020-07-15T02:06:56Z</time>
      </trkpt>
      <trkpt lat="41.554880" lon="-7.972480">
        <ele>538.714</ele>
        <time>2020-07-15T02:07:16Z</time>
      </trkpt>
      <trkpt lat="41.554950" lon="-7.972230">
        <ele>538.808</ele>
        <time>2020-07-15T02:07:36Z</time>
      </trkpt>
      <trkpt lat="41.555110" lon="-7.971050">
        <ele>526.798</ele>
        <time>2020-07-15T02:07:56Z</time>
      </trkpt>
      <trkpt lat="41.555280" lon="-7.970050">
        <ele>529.485</ele>
        <time>2020-07-15T02:08:16Z</time>
      </trkpt>
      <trkpt lat="41.555380" lon="-7.969680">
        <ele>529.410</ele>
        <time>2020-07-15T02:08:36Z</time>
      </trkpt>
      <trkpt lat="41.555450" lon="-7.969560">
        <ele>530.148</ele>
        <time>2020-07-15T02:08:56Z</time>
      </trkpt>
      <trkpt lat="41.555630" lon="-7.969380">
        <ele>532.125</ele>
        <time>2020-07-15T02:09:16Z</time>
      </trkpt>
      <trkpt lat="41.555780" lon="-7.969310">
        <ele>531.665</ele>
        <time>2020-07-15T02:09:36Z</time>
      </trkpt>
      <trkpt lat="41.556010" lon="-7.969300">
        <ele>532.115</ele>
        <time>2020-07-15T02:09:56Z</time>
      </trkpt>
      <trkpt lat="41.557660" lon="-7.969520">
        <ele>546.666</ele>
        <time>2020-07-15T02:10:16Z</time>
      </trkpt>
      <trkpt lat="41.557960" lon="-7.969490">
        <ele>546.719</ele>
        <time>2020-07-15T02:10:36Z</time>
      </trkpt>
      <trkpt lat="41.558190" lon="-7.969390">
        <ele>543.009</ele>
        <time>2020-07-15T02:10:56Z</time>
      </trkpt>
      <trkpt lat="41.559220" lon="-7.968780">
        <ele>534.519</ele>
        <time>2020-07-15T02:11:16Z</time>
      </trkpt>
      <trkpt lat="41.559650" lon="-7.968570">
        <ele>538.008</ele>
        <time>2020-07-15T02:11:36Z</time>
      </trkpt>
      <trkpt lat="41.559880" lon="-7.968490">
        <ele>538.886</ele>
        <time>2020-07-15T02:11:56Z</time>
      </trkpt>
      <trkpt lat="41.560070" lon="-7.968480">
        <ele>537.573</ele>
        <time>2020-07-15T02:12:16Z</time>
      </trkpt>
      <trkpt lat="41.560210" lon="-7.968540">
        <ele>534.868</ele>
        <time>2020-07-15T02:12:36Z</time>
      </trkpt>
      <trkpt lat="41.560360" lon="-7.968670">
        <ele>531.286</ele>
        <time>2020-07-15T02:12:56Z</time>
      </trkpt>
      <trkpt lat="41.560440" lon="-7.968840">
        <ele>530.133</ele>
        <time>2020-07-15T02:13:16Z</time>
      </trkpt>
      <trkpt lat="41.560540" lon="-7.969530">
        <ele>538.863</ele>
        <time>2020-07-15T02:13:36Z</time>
      </trkpt>
      <trkpt lat="41.560630" lon="-7.969830">
        <ele>545.783</ele>
        <time>2020-07-15T02:13:56Z</time>
      </trkpt>
      <trkpt lat="41.560740" lon="-7.969980">
        <ele>549.764</ele>
        <time>2020-07-15T02:14:16Z</time>
      </trkpt>
      <trkpt lat="41.560910" lon="-7.970060">
        <ele>552.248</ele>
        <time>2020-07-15T02:14:36Z</time>
      </trkpt>
      <trkpt lat="41.561040" lon="-7.970080">
        <ele>552.961</ele>
        <time>2020-07-15T02:14:56Z</time>
      </trkpt>
      <trkpt lat="41.561190" lon="-7.970070">
        <ele>551.717</ele>
        <time>2020-07-15T02:15:16Z</time>
      </trkpt>
      <trkpt lat="41.561320" lon="-7.970000">
        <ele>548.508</ele>
        <time>2020-07-15T02:15:36Z</time>
      </trkpt>
      <trkpt lat="41.561450" lon="-7.969890">
        <ele>546.139</ele>
        <time>2020-07-15T02:15:56Z</time>
      </trkpt>
      <trkpt lat="41.561560" lon="-7.969720">
        <ele>544.536</ele>
        <time>2020-07-15T02:16:16Z</time>
      </trkpt>
      <trkpt lat="41.561620" lon="-7.969500">
        <ele>543.821</ele>
        <time>2020-07-15T02:16:36Z</time>
      </trkpt>
      <trkpt lat="41.561630" lon="-7.969330">
        <ele>543.479</ele>
        <time>2020-07-15T02:16:56Z</time>
      </trkpt>
      <trkpt lat="41.561610" lon="-7.968650">
        <ele>542.786</ele>
        <time>2020-07-15T02:17:16Z</time>
      </trkpt>
      <trkpt lat="41.561630" lon="-7.968390">
        <ele>546.796</ele>
        <time>2020-07-15T02:17:36Z</time>
      </trkpt>
      <trkpt lat="41.561760" lon="-7.968100">
        <ele>551.286</ele>
        <time>2020-07-15T02:17:56Z</time>
      </trkpt>
      <trkpt lat="41.561920" lon="-7.967850">
        <ele>555.467</ele>
        <time>2020-07-15T02:18:16Z</time>
      </trkpt>
      <trkpt lat="41.562030" lon="-7.967720">
        <ele>557.511</ele>
        <time>2020-07-15T02:18:36Z</time>
      </trkpt>
      <trkpt lat="41.562330" lon="-7.967520">
        <ele>563.121</ele>
        <time>2020-07-15T02:18:56Z</time>
      </trkpt>
      <trkpt lat="41.563720" lon="-7.966740">
        <ele>569.603</ele>
        <time>2020-07-15T02:19:16Z</time>
      </trkpt>
      <trkpt lat="41.563970" lon="-7.966540">
        <ele>571.508</ele>
        <time>2020-07-15T02:19:36Z</time>
      </trkpt>
      <trkpt lat="41.564310" lon="-7.966100">
        <ele>568.496</ele>
        <time>2020-07-15T02:19:56Z</time>
      </trkpt>
      <trkpt lat="41.564790" lon="-7.965420">
        <ele>575.013</ele>
        <time>2020-07-15T02:20:16Z</time>
      </trkpt>
      <trkpt lat="41.565120" lon="-7.965000">
        <ele>580.958</ele>
        <time>2020-07-15T02:20:36Z</time>
      </trkpt>
      <trkpt lat="41.566230" lon="-7.964020">
        <ele>592.726</ele>
        <time>2020-07-15T02:20:56Z</time>
      </trkpt>
      <trkpt lat="41.566630" lon="-7.963740">
        <ele>593.983</ele>
        <time>2020-07-15T02:21:16Z</time>
      </trkpt>
      <trkpt lat="41.567150" lon="-7.963340">
        <ele>599.293</ele>
        <time>2020-07-15T02:21:36Z</time>
      </trkpt>
      <trkpt lat="41.567880" lon="-7.962890">
        <ele>612.043</ele>
        <time>2020-07-15T02:21:56Z</time>
      </trkpt>
      <trkpt lat="41.568080" lon="-7.962740">
        <ele>613.484</ele>
        <time>2020-07-15T02:22:16Z</time>
      </trkpt>
      <trkpt lat="41.568220" lon="-7.962570">
        <ele>612.654</ele>
        <time>2020-07-15T02:22:36Z</time>
      </trkpt>
      <trkpt lat="41.568370" lon="-7.962270">
        <ele>612.756</ele>
        <time>2020-07-15T02:22:56Z</time>
      </trkpt>
      <trkpt lat="41.568520" lon="-7.961920">
        <ele>615.511</ele>
        <time>2020-07-15T02:23:16Z</time>
      </trkpt>
      <trkpt lat="41.568630" lon="-7.961730">
        <ele>619.108</ele>
        <time>2020-07-15T02:23:36Z</time>
      </trkpt>
      <trkpt lat="41.568770" lon="-7.961560">
        <ele>620.830</ele>
        <time>2020-07-15T02:23:56Z</time>
      </trkpt>
      <trkpt lat="41.568900" lon="-7.961480">
        <ele>621.637</ele>
        <time>2020-07-15T02:24:16Z</time>
      </trkpt>
      <trkpt lat="41.569020" lon="-7.961450">
        <ele>620.212</ele>
        <time>2020-07-15T02:24:36Z</time>
      </trkpt>
      <trkpt lat="41.569210" lon="-7.961490">
        <ele>618.340</ele>
        <time>2020-07-15T02:24:56Z</time>
      </trkpt>
      <trkpt lat="41.569350" lon="-7.961590">
        <ele>615.837</ele>
        <time>2020-07-15T02:25:16Z</time>
      </trkpt>
      <trkpt lat="41.569420" lon="-7.961690">
        <ele>615.537</ele>
        <time>2020-07-15T02:25:36Z</time>
      </trkpt>
      <trkpt lat="41.569580" lon="-7.962140">
        <ele>627.127</ele>
        <time>2020-07-15T02:25:56Z</time>
      </trkpt>
      <trkpt lat="41.569730" lon="-7.962400">
        <ele>628.418</ele>
        <time>2020-07-15T02:26:16Z</time>
      </trkpt>
      <trkpt lat="41.569890" lon="-7.962530">
        <ele>628.199</ele>
        <time>2020-07-15T02:26:36Z</time>
      </trkpt>
      <trkpt lat="41.570010" lon="-7.962580">
        <ele>628.207</ele>
        <time>2020-07-15T02:26:56Z</time>
      </trkpt>
      <trkpt lat="41.570610" lon="-7.962690">
        <ele>643.627</ele>
        <time>2020-07-15T02:27:16Z</time>
      </trkpt>
      <trkpt lat="41.570820" lon="-7.962770">
        <ele>643.008</ele>
        <time>2020-07-15T02:27:36Z</time>
      </trkpt>
      <trkpt lat="41.570970" lon="-7.962880">
        <ele>641.824</ele>
        <time>2020-07-15T02:27:56Z</time>
      </trkpt>
      <trkpt lat="41.571100" lon="-7.963060">
        <ele>643.511</ele>
        <time>2020-07-15T02:28:16Z</time>
      </trkpt>
      <trkpt lat="41.571260" lon="-7.963420">
        <ele>648.686</ele>
        <time>2020-07-15T02:28:36Z</time>
      </trkpt>
      <trkpt lat="41.571360" lon="-7.963550">
        <ele>649.464</ele>
        <time>2020-07-15T02:28:56Z</time>
      </trkpt>
      <trkpt lat="41.571430" lon="-7.963590">
        <ele>650.171</ele>
        <time>2020-07-15T02:29:16Z</time>
      </trkpt>
      <trkpt lat="41.571620" lon="-7.963580">
        <ele>652.011</ele>
        <time>2020-07-15T02:29:36Z</time>
      </trkpt>
      <trkpt lat="41.571840" lon="-7.963470">
        <ele>654.481</ele>
        <time>2020-07-15T02:29:56Z</time>
      </trkpt>
      <trkpt lat="41.572490" lon="-7.963010">
        <ele>655.872</ele>
        <time>2020-07-15T02:30:16Z</time>
      </trkpt>
      <trkpt lat="41.572660" lon="-7.962920">
        <ele>657.025</ele>
        <time>2020-07-15T02:30:36Z</time>
      </trkpt>
      <trkpt lat="41.574530" lon="-7.962170">
        <ele>675.726</ele>
        <time>2020-07-15T02:30:56Z</time>
      </trkpt>
      <trkpt lat="41.574750" lon="-7.962110">
        <ele>677.108</ele>
        <time>2020-07-15T02:31:16Z</time>
      </trkpt>
      <trkpt lat="41.574910" lon="-7.962100">
        <ele>679.708</ele>
        <time>2020-07-15T02:31:36Z</time>
      </trkpt>
      <trkpt lat="41.575110" lon="-7.962130">
        <ele>681.657</ele>
        <time>2020-07-15T02:31:56Z</time>
      </trkpt>
      <trkpt lat="41.575760" lon="-7.962370">
        <ele>687.114</ele>
        <time>2020-07-15T02:32:16Z</time>
      </trkpt>
      <trkpt lat="41.575920" lon="-7.962400">
        <ele>689.599</ele>
        <time>2020-07-15T02:32:36Z</time>
      </trkpt>
      <trkpt lat="41.576020" lon="-7.962380">
        <ele>689.967</ele>
        <time>2020-07-15T02:32:56Z</time>
      </trkpt>
      <trkpt lat="41.576150" lon="-7.962310">
        <ele>690.954</ele>
        <time>2020-07-15T02:33:16Z</time>
      </trkpt>
      <trkpt lat="41.576300" lon="-7.962170">
        <ele>693.924</ele>
        <time>2020-07-15T02:33:36Z</time>
      </trkpt>
      <trkpt lat="41.576440" lon="-7.961960">
        <ele>698.924</ele>
        <time>2020-07-15T02:33:56Z</time>
      </trkpt>
      <trkpt lat="41.576860" lon="-7.961140">
        <ele>702.885</ele>
        <time>2020-07-15T02:34:16Z</time>
      </trkpt>
      <trkpt lat="41.576960" lon="-7.960990">
        <ele>702.217</ele>
        <time>2020-07-15T02:34:36Z</time>
      </trkpt>
      <trkpt lat="41.577160" lon="-7.960820">
        <ele>701.587</ele>
        <time>2020-07-15T02:34:56Z</time>
      </trkpt>
      <trkpt lat="41.577460" lon="-7.960710">
        <ele>704.615</ele>
        <time>2020-07-15T02:35:16Z</time>
      </trkpt>
      <trkpt lat="41.578690" lon="-7.960640">
        <ele>719.408</ele>
        <time>2020-07-15T02:35:36Z</time>
      </trkpt>
      <trkpt lat="41.578830" lon="-7.960570">
        <ele>723.646</ele>
        <time>2020-07-15T02:35:56Z</time>
      </trkpt>
      <trkpt lat="41.578930" lon="-7.960470">
        <ele>725.583</ele>
        <time>2020-07-15T02:36:16Z</time>
      </trkpt>
      <trkpt lat="41.579040" lon="-7.960320">
        <ele>726.918</ele>
        <time>2020-07-15T02:36:36Z</time>
      </trkpt>
      <trkpt lat="41.579110" lon="-7.960130">
        <ele>727.236</ele>
        <time>2020-07-15T02:36:56Z</time>
      </trkpt>
      <trkpt lat="41.579160" lon="-7.959940">
        <ele>727.983</ele>
        <time>2020-07-15T02:37:16Z</time>
      </trkpt>
      <trkpt lat="41.579230" lon="-7.959280">
        <ele>721.223</ele>
        <time>2020-07-15T02:37:36Z</time>
      </trkpt>
      <trkpt lat="41.579280" lon="-7.959130">
        <ele>720.553</ele>
        <time>2020-07-15T02:37:56Z</time>
      </trkpt>
      <trkpt lat="41.579370" lon="-7.958990">
        <ele>720.324</ele>
        <time>2020-07-15T02:38:16Z</time>
      </trkpt>
      <trkpt lat="41.579490" lon="-7.958890">
        <ele>720.836</ele>
        <time>2020-07-15T02:38:36Z</time>
      </trkpt>
      <trkpt lat="41.579620" lon="-7.958820">
        <ele>723.517</ele>
        <time>2020-07-15T02:38:56Z</time>
      </trkpt>
      <trkpt lat="41.581990" lon="-7.958370">
        <ele>748.018</ele>
        <time>2020-07-15T02:39:16Z</time>
      </trkpt>
      <trkpt lat="41.582270" lon="-7.958260">
        <ele>752.208</ele>
        <time>2020-07-15T02:39:36Z</time>
      </trkpt>
      <trkpt lat="41.582560" lon="-7.958120">
        <ele>762.038</ele>
        <time>2020-07-15T02:39:56Z</time>
      </trkpt>
      <trkpt lat="41.583600" lon="-7.957330">
        <ele>763.315</ele>
        <time>2020-07-15T02:40:16Z</time>
      </trkpt>
      <trkpt lat="41.583820" lon="-7.957210">
        <ele>759.310</ele>
        <time>2020-07-15T02:40:36Z</time>
      </trkpt>
      <trkpt lat="41.584010" lon="-7.957160">
        <ele>757.318</ele>
        <time>2020-07-15T02:40:56Z</time>
      </trkpt>
      <trkpt lat="41.584150" lon="-7.957170">
        <ele>758.175</ele>
        <time>2020-07-15T02:41:16Z</time>
      </trkpt>
      <trkpt lat="41.584380" lon="-7.957250">
        <ele>761.835</ele>
        <time>2020-07-15T02:41:36Z</time>
      </trkpt>
      <trkpt lat="41.584620" lon="-7.957390">
        <ele>766.545</ele>
        <time>2020-07-15T02:41:56Z</time>
      </trkpt>
      <trkpt lat="41.585230" lon="-7.957800">
        <ele>781.766</ele>
        <time>2020-07-15T02:42:16Z</time>
      </trkpt>
      <trkpt lat="41.585380" lon="-7.957840">
        <ele>783.312</ele>
        <time>2020-07-15T02:42:36Z</time>
      </trkpt>
      <trkpt lat="41.585590" lon="-7.957800">
        <ele>786.032</ele>
        <time>2020-07-15T02:42:56Z</time>
      </trkpt>
      <trkpt lat="41.585730" lon="-7.957740">
        <ele>787.905</ele>
        <time>2020-07-15T02:43:16Z</time>
      </trkpt>
      <trkpt lat="41.586020" lon="-7.957570">
        <ele>790.308</ele>
        <time>2020-07-15T02:43:36Z</time>
      </trkpt>
      <trkpt lat="41.586210" lon="-7.957480">
        <ele>789.116</ele>
        <time>2020-07-15T02:43:56Z</time>
      </trkpt>
      <trkpt lat="41.586370" lon="-7.957470">
        <ele>788.743</ele>
        <time>2020-07-15T02:44:16Z</time>
      </trkpt>
      <trkpt lat="41.586510" lon="-7.957510">
        <ele>790.428</ele>
        <time>2020-07-15T02:44:36Z</time>
      </trkpt>
      <trkpt lat="41.586930" lon="-7.957720">
        <ele>795.276</ele>
        <time>2020-07-15T02:44:56Z</time>
      </trkpt>
      <trkpt lat="41.587250" lon="-7.957840">
        <ele>796.233</ele>
        <time>2020-07-15T02:45:16Z</time>
      </trkpt>
      <trkpt lat="41.587400" lon="-7.957880">
        <ele>799.783</ele>
        <time>2020-07-15T02:45:36Z</time>
      </trkpt>
      <trkpt lat="41.587610" lon="-7.957860">
        <ele>803.863</ele>
        <time>2020-07-15T02:45:56Z</time>
      </trkpt>
      <trkpt lat="41.587750" lon="-7.957790">
        <ele>806.464</ele>
        <time>2020-07-15T02:46:16Z</time>
      </trkpt>
      <trkpt lat="41.587920" lon="-7.957650">
        <ele>808.725</ele>
        <time>2020-07-15T02:46:36Z</time>
      </trkpt>
      <trkpt lat="41.588120" lon="-7.957410">
        <ele>812.026</ele>
        <time>2020-07-15T02:46:56Z</time>
      </trkpt>
      <trkpt lat="41.588670" lon="-7.956550">
        <ele>817.308</ele>
        <time>2020-07-15T02:47:16Z</time>
      </trkpt>
      <trkpt lat="41.588900" lon="-7.956250">
        <ele>817.408</ele>
        <time>2020-07-15T02:47:36Z</time>
      </trkpt>
      <trkpt lat="41.589110" lon="-7.956090">
        <ele>818.577</ele>
        <time>2020-07-15T02:47:56Z</time>
      </trkpt>
      <trkpt lat="41.589270" lon="-7.956020">
        <ele>819.634</ele>
        <time>2020-07-15T02:48:16Z</time>
      </trkpt>
      <trkpt lat="41.589470" lon="-7.955990">
        <ele>823.649</ele>
        <time>2020-07-15T02:48:36Z</time>
      </trkpt>
      <trkpt lat="41.589750" lon="-7.956070">
        <ele>825.017</ele>
        <time>2020-07-15T02:48:56Z</time>
      </trkpt>
      <trkpt lat="41.589900" lon="-7.956150">
        <ele>822.854</ele>
        <time>2020-07-15T02:49:16Z</time>
      </trkpt>
      <trkpt lat="41.590550" lon="-7.956650">
        <ele>834.374</ele>
        <time>2020-07-15T02:49:36Z</time>
      </trkpt>
      <trkpt lat="41.590680" lon="-7.956700">
        <ele>840.684</ele>
        <time>2020-07-15T02:49:56Z</time>
      </trkpt>
      <trkpt lat="41.590830" lon="-7.956720">
        <ele>845.925</ele>
        <time>2020-07-15T02:50:16Z</time>
      </trkpt>
      <trkpt lat="41.591610" lon="-7.956730">
        <ele>845.662</ele>
        <time>2020-07-15T02:50:36Z</time>
      </trkpt>
      <trkpt lat="41.591790" lon="-7.956710">
        <ele>845.683</ele>
        <time>2020-07-15T02:50:56Z</time>
      </trkpt>
      <trkpt lat="41.591990" lon="-7.956600">
        <ele>844.511</ele>
        <time>2020-07-15T02:51:16Z</time>
      </trkpt>
      <trkpt lat="41.592050" lon="-7.956510">
        <ele>845.208</ele>
        <time>2020-07-15T02:51:36Z</time>
      </trkpt>
      <trkpt lat="41.592090" lon="-7.956410">
        <ele>845.721</ele>
        <time>2020-07-15T02:51:56Z</time>
      </trkpt>
      <trkpt lat="41.592120" lon="-7.956240">
        <ele>846.858</ele>
        <time>2020-07-15T02:52:16Z</time>
      </trkpt>
      <trkpt lat="41.592110" lon="-7.956040">
        <ele>847.893</ele>
        <time>2020-07-15T02:52:36Z</time>
      </trkpt>
      <trkpt lat="41.591850" lon="-7.955230">
        <ele>848.771</ele>
        <time>2020-07-15T02:52:56Z</time>
      </trkpt>
      <trkpt lat="41.591820" lon="-7.955090">
        <ele>849.488</ele>
        <time>2020-07-15T02:53:16Z</time>
      </trkpt>
      <trkpt lat="41.591830" lon="-7.954920">
        <ele>851.148</ele>
        <time>2020-07-15T02:53:36Z</time>
      </trkpt>
      <trkpt lat="41.591880" lon="-7.954710">
        <ele>853.278</ele>
        <time>2020-07-15T02:53:56Z</time>
      </trkpt>
      <trkpt lat="41.591980" lon="-7.954530">
        <ele>857.179</ele>
        <time>2020-07-15T02:54:16Z</time>
      </trkpt>
      <trkpt lat="41.592040" lon="-7.954460">
        <ele>859.362</ele>
        <time>2020-07-15T02:54:36Z</time>
      </trkpt>
      <trkpt lat="41.592220" lon="-7.954350">
        <ele>863.683</ele>
        <time>2020-07-15T02:54:56Z</time>
      </trkpt>
      <trkpt lat="41.592860" lon="-7.954020">
        <ele>872.511</ele>
        <time>2020-07-15T02:55:16Z</time>
      </trkpt>
      <trkpt lat="41.592940" lon="-7.953950">
        <ele>872.908</ele>
        <time>2020-07-15T02:55:36Z</time>
      </trkpt>
      <trkpt lat="41.593080" lon="-7.953720">
        <ele>869.421</ele>
        <time>2020-07-15T02:55:56Z</time>
      </trkpt>
      <trkpt lat="41.593110" lon="-7.953520">
        <ele>866.838</ele>
        <time>2020-07-15T02:56:16Z</time>
      </trkpt>
      <trkpt lat="41.593080" lon="-7.952870">
        <ele>868.063</ele>
        <time>2020-07-15T02:56:36Z</time>
      </trkpt>
      <trkpt lat="41.593120" lon="-7.952660">
        <ele>870.421</ele>
        <time>2020-07-15T02:56:56Z</time>
      </trkpt>
      <trkpt lat="41.593220" lon="-7.952480">
        <ele>873.098</ele>
        <time>2020-07-15T02:57:16Z</time>
      </trkpt>
      <trkpt lat="41.593660" lon="-7.951880">
        <ele>876.698</ele>
        <time>2020-07-15T02:57:36Z</time>
      </trkpt>
      <trkpt lat="41.593710" lon="-7.951770">
        <ele>878.038</ele>
        <time>2020-07-15T02:57:56Z</time>
      </trkpt>
      <trkpt lat="41.593780" lon="-7.951530">
        <ele>880.049</ele>
        <time>2020-07-15T02:58:16Z</time>
      </trkpt>
      <trkpt lat="41.593890" lon="-7.950840">
        <ele>887.049</ele>
        <time>2020-07-15T02:58:36Z</time>
      </trkpt>
      <trkpt lat="41.593990" lon="-7.950340">
        <ele>888.402</ele>
        <time>2020-07-15T02:58:56Z</time>
      </trkpt>
      <trkpt lat="41.594040" lon="-7.950200">
        <ele>889.222</ele>
        <time>2020-07-15T02:59:16Z</time>
      </trkpt>
      <trkpt lat="41.594470" lon="-7.949430">
        <ele>896.108</ele>
        <time>2020-07-15T02:59:36Z</time>
      </trkpt>
      <trkpt lat="41.594570" lon="-7.949170">
        <ele>891.949</ele>
        <time>2020-07-15T02:59:56Z</time>
      </trkpt>
      <trkpt lat="41.594910" lon="-7.947900">
        <ele>910.336</ele>
        <time>2020-07-15T03:00:16Z</time>
      </trkpt>
      <trkpt lat="41.595080" lon="-7.947540">
        <ele>914.681</ele>
        <time>2020-07-15T03:00:36Z</time>
      </trkpt>
      <trkpt lat="41.595380" lon="-7.947160">
        <ele>918.579</ele>
        <time>2020-07-15T03:00:56Z</time>
      </trkpt>
      <trkpt lat="41.595670" lon="-7.946930">
        <ele>921.326</ele>
        <time>2020-07-15T03:01:16Z</time>
      </trkpt>
      <trkpt lat="41.595910" lon="-7.946820">
        <ele>925.046</ele>
        <time>2020-07-15T03:01:36Z</time>
      </trkpt>
      <trkpt lat="41.596220" lon="-7.946800">
        <ele>930.036</ele>
        <time>2020-07-15T03:01:56Z</time>
      </trkpt>
      <trkpt lat="41.596410" lon="-7.946840">
        <ele>931.397</ele>
        <time>2020-07-15T03:02:16Z</time>
      </trkpt>
      <trkpt lat="41.597390" lon="-7.947140">
        <ele>932.771</ele>
        <time>2020-07-15T03:02:36Z</time>
      </trkpt>
      <trkpt lat="41.597830" lon="-7.947370">
        <ele>936.941</ele>
        <time>2020-07-15T03:02:56Z</time>
      </trkpt>
      <trkpt lat="41.598370" lon="-7.947680">
        <ele>941.615</ele>
        <time>2020-07-15T03:03:16Z</time>
      </trkpt>
      <trkpt lat="41.598660" lon="-7.947810">
        <ele>942.608</ele>
        <time>2020-07-15T03:03:36Z</time>
      </trkpt>
      <trkpt lat="41.599040" lon="-7.947920">
        <ele>945.312</ele>
        <time>2020-07-15T03:03:56Z</time>
      </trkpt>
      <trkpt lat="41.601670" lon="-7.948140">
        <ele>945.979</ele>
        <time>2020-07-15T03:04:16Z</time>
      </trkpt>
      <trkpt lat="41.602510" lon="-7.948180">
        <ele>944.514</ele>
        <time>2020-07-15T03:04:36Z</time>
      </trkpt>
      <trkpt lat="41.603140" lon="-7.948120">
        <ele>937.292</ele>
        <time>2020-07-15T03:04:56Z</time>
      </trkpt>
      <trkpt lat="41.603440" lon="-7.948070">
        <ele>935.569</ele>
        <time>2020-07-15T03:05:16Z</time>
      </trkpt>
      <trkpt lat="41.603650" lon="-7.947980">
        <ele>935.629</ele>
        <time>2020-07-15T03:05:36Z</time>
      </trkpt>
      <trkpt lat="41.603800" lon="-7.947890">
        <ele>935.359</ele>
        <time>2020-07-15T03:05:56Z</time>
      </trkpt>
      <trkpt lat="41.603980" lon="-7.947730">
        <ele>934.360</ele>
        <time>2020-07-15T03:06:16Z</time>
      </trkpt>
      <trkpt lat="41.604350" lon="-7.947350">
        <ele>929.711</ele>
        <time>2020-07-15T03:06:36Z</time>
      </trkpt>
      <trkpt lat="41.604580" lon="-7.947040">
        <ele>926.421</ele>
        <time>2020-07-15T03:06:56Z</time>
      </trkpt>
      <trkpt lat="41.604870" lon="-7.946530">
        <ele>926.403</ele>
        <time>2020-07-15T03:07:16Z</time>
      </trkpt>
      <trkpt lat="41.606210" lon="-7.943980">
        <ele>922.708</ele>
        <time>2020-07-15T03:07:36Z</time>
      </trkpt>
      <trkpt lat="41.606550" lon="-7.943380">
        <ele>917.946</ele>
        <time>2020-07-15T03:07:56Z</time>
      </trkpt>
      <trkpt lat="41.607410" lon="-7.941970">
        <ele>906.493</ele>
        <time>2020-07-15T03:08:16Z</time>
      </trkpt>
      <trkpt lat="41.607620" lon="-7.941660">
        <ele>903.848</ele>
        <time>2020-07-15T03:08:36Z</time>
      </trkpt>
      <trkpt lat="41.608250" lon="-7.940910">
        <ele>899.246</ele>
        <time>2020-07-15T03:08:56Z</time>
      </trkpt>
      <trkpt lat="41.614050" lon="-7.934490">
        <ele>914.133</ele>
        <time>2020-07-15T03:09:16Z</time>
      </trkpt>
      <trkpt lat="41.614460" lon="-7.934070">
        <ele>914.513</ele>
        <time>2020-07-15T03:09:36Z</time>
      </trkpt>
      <trkpt lat="41.614870" lon="-7.933600">
        <ele>918.723</ele>
        <time>2020-07-15T03:09:56Z</time>
      </trkpt>
      <trkpt lat="41.615200" lon="-7.933310">
        <ele>920.354</ele>
        <time>2020-07-15T03:10:16Z</time>
      </trkpt>
      <trkpt lat="41.615460" lon="-7.933140">
        <ele>918.751</ele>
        <time>2020-07-15T03:10:36Z</time>
      </trkpt>
      <trkpt lat="41.615620" lon="-7.933070">
        <ele>918.101</ele>
        <time>2020-07-15T03:10:56Z</time>
      </trkpt>
      <trkpt lat="41.615840" lon="-7.933020">
        <ele>918.211</ele>
        <time>2020-07-15T03:11:16Z</time>
      </trkpt>
      <trkpt lat="41.616190" lon="-7.933020">
        <ele>918.008</ele>
        <time>2020-07-15T03:11:36Z</time>
      </trkpt>
      <trkpt lat="41.617310" lon="-7.933190">
        <ele>911.070</ele>
        <time>2020-07-15T03:11:56Z</time>
      </trkpt>
      <trkpt lat="41.618850" lon="-7.933450">
        <ele>905.587</ele>
        <time>2020-07-15T03:12:16Z</time>
      </trkpt>
      <trkpt lat="41.619200" lon="-7.933490">
        <ele>906.692</ele>
        <time>2020-07-15T03:12:36Z</time>
      </trkpt>
      <trkpt lat="41.619350" lon="-7.933490">
        <ele>906.690</ele>
        <time>2020-07-15T03:12:56Z</time>
      </trkpt>
      <trkpt lat="41.624150" lon="-7.932810">
        <ele>878.187</ele>
        <time>2020-07-15T03:13:16Z</time>
      </trkpt>
      <trkpt lat="41.625140" lon="-7.932700">
        <ele>883.787</ele>
        <time>2020-07-15T03:13:36Z</time>
      </trkpt>
      <trkpt lat="41.625390" lon="-7.932710">
        <ele>884.237</ele>
        <time>2020-07-15T03:13:56Z</time>
      </trkpt>
      <trkpt lat="41.625500" lon="-7.932730">
        <ele>884.218</ele>
        <time>2020-07-15T03:14:16Z</time>
      </trkpt>
      <trkpt lat="41.625800" lon="-7.932830">
        <ele>883.695</ele>
        <time>2020-07-15T03:14:36Z</time>
      </trkpt>
      <trkpt lat="41.626230" lon="-7.933160">
        <ele>877.849</ele>
        <time>2020-07-15T03:14:56Z</time>
      </trkpt>
      <trkpt lat="41.627940" lon="-7.935130">
        <ele>865.723</ele>
        <time>2020-07-15T03:15:16Z</time>
      </trkpt>
      <trkpt lat="41.628600" lon="-7.935930">
        <ele>863.908</ele>
        <time>2020-07-15T03:15:36Z</time>
      </trkpt>
      <trkpt lat="41.629110" lon="-7.936490">
        <ele>860.474</ele>
        <time>2020-07-15T03:15:56Z</time>
      </trkpt>
      <trkpt lat="41.631750" lon="-7.939050">
        <ele>852.091</ele>
        <time>2020-07-15T03:16:16Z</time>
      </trkpt>
      <trkpt lat="41.633640" lon="-7.940850">
        <ele>843.026</ele>
        <time>2020-07-15T03:16:36Z</time>
      </trkpt>
      <trkpt lat="41.634070" lon="-7.941280">
        <ele>841.644</ele>
        <time>2020-07-15T03:16:56Z</time>
      </trkpt>
      <trkpt lat="41.634630" lon="-7.941920">
        <ele>837.881</ele>
        <time>2020-07-15T03:17:16Z</time>
      </trkpt>
      <trkpt lat="41.635360" lon="-7.942900">
        <ele>834.681</ele>
        <time>2020-07-15T03:17:36Z</time>
      </trkpt>
      <trkpt lat="41.635590" lon="-7.943240">
        <ele>833.371</ele>
        <time>2020-07-15T03:17:56Z</time>
      </trkpt>
      <trkpt lat="41.637330" lon="-7.945570">
        <ele>828.182</ele>
        <time>2020-07-15T03:18:16Z</time>
      </trkpt>
      <trkpt lat="41.637760" lon="-7.946080">
        <ele>830.169</ele>
        <time>2020-07-15T03:18:36Z</time>
      </trkpt>
      <trkpt lat="41.637880" lon="-7.946170">
        <ele>828.904</ele>
        <time>2020-07-15T03:18:56Z</time>
      </trkpt>
      <trkpt lat="41.638180" lon="-7.946330">
        <ele>827.824</ele>
        <time>2020-07-15T03:19:16Z</time>
      </trkpt>
      <trkpt lat="41.639360" lon="-7.946830">
        <ele>824.208</ele>
        <time>2020-07-15T03:19:36Z</time>
      </trkpt>
      <trkpt lat="41.639740" lon="-7.947030">
        <ele>823.481</ele>
        <time>2020-07-15T03:19:56Z</time>
      </trkpt>
      <trkpt lat="41.639940" lon="-7.947160">
        <ele>823.228</ele>
        <time>2020-07-15T03:20:16Z</time>
      </trkpt>
      <trkpt lat="41.640050" lon="-7.947270">
        <ele>822.793</ele>
        <time>2020-07-15T03:20:36Z</time>
      </trkpt>
      <trkpt lat="41.640310" lon="-7.947620">
        <ele>820.391</ele>
        <time>2020-07-15T03:20:56Z</time>
      </trkpt>
      <trkpt lat="41.640390" lon="-7.947770">
        <ele>819.588</ele>
        <time>2020-07-15T03:21:16Z</time>
      </trkpt>
      <trkpt lat="41.641310" lon="-7.949220">
        <ele>817.848</ele>
        <time>2020-07-15T03:21:36Z</time>
      </trkpt>
      <trkpt lat="41.641530" lon="-7.949500">
        <ele>816.098</ele>
        <time>2020-07-15T03:21:56Z</time>
      </trkpt>
      <trkpt lat="41.641670" lon="-7.949570">
        <ele>815.169</ele>
        <time>2020-07-15T03:22:16Z</time>
      </trkpt>
      <trkpt lat="41.641810" lon="-7.949590">
        <ele>815.284</ele>
        <time>2020-07-15T03:22:36Z</time>
      </trkpt>
      <trkpt lat="41.641930" lon="-7.949550">
        <ele>815.607</ele>
        <time>2020-07-15T03:22:56Z</time>
      </trkpt>
      <trkpt lat="41.642070" lon="-7.949430">
        <ele>815.117</ele>
        <time>2020-07-15T03:23:16Z</time>
      </trkpt>
      <trkpt lat="41.642150" lon="-7.949320">
        <ele>815.008</ele>
        <time>2020-07-15T03:23:36Z</time>
      </trkpt>
      <trkpt lat="41.642190" lon="-7.949210">
        <ele>815.163</ele>
        <time>2020-07-15T03:23:56Z</time>
      </trkpt>
      <trkpt lat="41.642220" lon="-7.949060">
        <ele>815.430</ele>
        <time>2020-07-15T03:24:16Z</time>
      </trkpt>
      <trkpt lat="41.642300" lon="-7.947180">
        <ele>807.495</ele>
        <time>2020-07-15T03:24:36Z</time>
      </trkpt>
      <trkpt lat="41.642340" lon="-7.946860">
        <ele>806.693</ele>
        <time>2020-07-15T03:24:56Z</time>
      </trkpt>
      <trkpt lat="41.642400" lon="-7.946670">
        <ele>807.380</ele>
        <time>2020-07-15T03:25:16Z</time>
      </trkpt>
      <trkpt lat="41.642470" lon="-7.946530">
        <ele>808.390</ele>
        <time>2020-07-15T03:25:36Z</time>
      </trkpt>
      <trkpt lat="41.642600" lon="-7.946380">
        <ele>809.430</ele>
        <time>2020-07-15T03:25:56Z</time>
      </trkpt>
      <trkpt lat="41.642690" lon="-7.946310">
        <ele>810.111</ele>
        <time>2020-07-15T03:26:16Z</time>
      </trkpt>
      <trkpt lat="41.643610" lon="-7.945810">
        <ele>812.261</ele>
        <time>2020-07-15T03:26:36Z</time>
      </trkpt>
      <trkpt lat="41.643760" lon="-7.945700">
        <ele>812.221</ele>
        <time>2020-07-15T03:26:56Z</time>
      </trkpt>
      <trkpt lat="41.644750" lon="-7.944760">
        <ele>812.813</ele>
        <time>2020-07-15T03:27:16Z</time>
      </trkpt>
      <trkpt lat="41.645770" lon="-7.943740">
        <ele>821.008</ele>
        <time>2020-07-15T03:27:36Z</time>
      </trkpt>
      <trkpt lat="41.646000" lon="-7.943540">
        <ele>823.691</ele>
        <time>2020-07-15T03:27:56Z</time>
      </trkpt>
      <trkpt lat="41.646330" lon="-7.943290">
        <ele>826.498</ele>
        <time>2020-07-15T03:28:16Z</time>
      </trkpt>
      <trkpt lat="41.646760" lon="-7.943080">
        <ele>828.843</ele>
        <time>2020-07-15T03:28:36Z</time>
      </trkpt>
      <trkpt lat="41.647030" lon="-7.943030">
        <ele>830.351</ele>
        <time>2020-07-15T03:28:56Z</time>
      </trkpt>
      <trkpt lat="41.648450" lon="-7.942910">
        <ele>841.438</ele>
        <time>2020-07-15T03:29:16Z</time>
      </trkpt>
      <trkpt lat="41.649170" lon="-7.942880">
        <ele>846.118</ele>
        <time>2020-07-15T03:29:36Z</time>
      </trkpt>
      <trkpt lat="41.650180" lon="-7.942810">
        <ele>854.548</ele>
        <time>2020-07-15T03:29:56Z</time>
      </trkpt>
      <trkpt lat="41.650510" lon="-7.942820">
        <ele>859.079</ele>
        <time>2020-07-15T03:30:16Z</time>
      </trkpt>
      <trkpt lat="41.650670" lon="-7.942850">
        <ele>860.622</ele>
        <time>2020-07-15T03:30:36Z</time>
      </trkpt>
      <trkpt lat="41.650930" lon="-7.942940">
        <ele>862.962</ele>
        <time>2020-07-15T03:30:56Z</time>
      </trkpt>
      <trkpt lat="41.651130" lon="-7.943050">
        <ele>864.008</ele>
        <time>2020-07-15T03:31:16Z</time>
      </trkpt>
      <trkpt lat="41.651550" lon="-7.943390">
        <ele>867.608</ele>
        <time>2020-07-15T03:31:36Z</time>
      </trkpt>
      <trkpt lat="41.652830" lon="-7.944580">
        <ele>853.787</ele>
        <time>2020-07-15T03:31:56Z</time>
      </trkpt>
      <trkpt lat="41.653450" lon="-7.945200">
        <ele>848.564</ele>
        <time>2020-07-15T03:32:16Z</time>
      </trkpt>
      <trkpt lat="41.653750" lon="-7.945450">
        <ele>845.889</ele>
        <time>2020-07-15T03:32:36Z</time>
      </trkpt>
      <trkpt lat="41.653890" lon="-7.945540">
        <ele>845.247</ele>
        <time>2020-07-15T03:32:56Z</time>
      </trkpt>
      <trkpt lat="41.654120" lon="-7.945610">
        <ele>846.324</ele>
        <time>2020-07-15T03:33:16Z</time>
      </trkpt>
      <trkpt lat="41.654230" lon="-7.945630">
        <ele>846.024</ele>
        <time>2020-07-15T03:33:36Z</time>
      </trkpt>
      <trkpt lat="41.654390" lon="-7.945620">
        <ele>845.074</ele>
        <time>2020-07-15T03:33:56Z</time>
      </trkpt>
      <trkpt lat="41.654660" lon="-7.945530">
        <ele>840.415</ele>
        <time>2020-07-15T03:34:16Z</time>
      </trkpt>
      <trkpt lat="41.654940" lon="-7.945320">
        <ele>840.796</ele>
        <time>2020-07-15T03:34:36Z</time>
      </trkpt>
      <trkpt lat="41.655100" lon="-7.945120">
        <ele>841.131</ele>
        <time>2020-07-15T03:34:56Z</time>
      </trkpt>
      <trkpt lat="41.655220" lon="-7.944900">
        <ele>840.424</ele>
        <time>2020-07-15T03:35:16Z</time>
      </trkpt>
      <trkpt lat="41.655330" lon="-7.944590">
        <ele>838.408</ele>
        <time>2020-07-15T03:35:36Z</time>
      </trkpt>
      <trkpt lat="41.655670" lon="-7.942520">
        <ele>828.364</ele>
        <time>2020-07-15T03:35:56Z</time>
      </trkpt>
      <trkpt lat="41.655810" lon="-7.941890">
        <ele>826.891</ele>
        <time>2020-07-15T03:36:16Z</time>
      </trkpt>
      <trkpt lat="41.655890" lon="-7.941680">
        <ele>825.876</ele>
        <time>2020-07-15T03:36:36Z</time>
      </trkpt>
      <trkpt lat="41.655990" lon="-7.941500">
        <ele>823.614</ele>
        <time>2020-07-15T03:36:56Z</time>
      </trkpt>
      <trkpt lat="41.656230" lon="-7.941220">
        <ele>820.081</ele>
        <time>2020-07-15T03:37:16Z</time>
      </trkpt>
      <trkpt lat="41.656370" lon="-7.941090">
        <ele>819.531</ele>
        <time>2020-07-15T03:37:36Z</time>
      </trkpt>
      <trkpt lat="41.656490" lon="-7.941030">
        <ele>819.091</ele>
        <time>2020-07-15T03:37:56Z</time>
      </trkpt>
      <trkpt lat="41.657880" lon="-7.940500">
        <ele>813.392</ele>
        <time>2020-07-15T03:38:16Z</time>
      </trkpt>
      <trkpt lat="41.658620" lon="-7.940240">
        <ele>813.944</ele>
        <time>2020-07-15T03:38:36Z</time>
      </trkpt>
      <trkpt lat="41.659050" lon="-7.940140">
        <ele>818.405</ele>
        <time>2020-07-15T03:38:56Z</time>
      </trkpt>
      <trkpt lat="41.659370" lon="-7.940170">
        <ele>819.915</ele>
        <time>2020-07-15T03:39:16Z</time>
      </trkpt>
      <trkpt lat="41.659750" lon="-7.940270">
        <ele>824.208</ele>
        <time>2020-07-15T03:39:36Z</time>
      </trkpt>
      <trkpt lat="41.660020" lon="-7.940400">
        <ele>828.269</ele>
        <time>2020-07-15T03:39:56Z</time>
      </trkpt>
      <trkpt lat="41.660290" lon="-7.940580">
        <ele>828.156</ele>
        <time>2020-07-15T03:40:16Z</time>
      </trkpt>
      <trkpt lat="41.660500" lon="-7.940760">
        <ele>828.751</ele>
        <time>2020-07-15T03:40:36Z</time>
      </trkpt>
      <trkpt lat="41.660750" lon="-7.941070">
        <ele>830.729</ele>
        <time>2020-07-15T03:40:56Z</time>
      </trkpt>
      <trkpt lat="41.660910" lon="-7.941300">
        <ele>832.556</ele>
        <time>2020-07-15T03:41:16Z</time>
      </trkpt>
      <trkpt lat="41.661040" lon="-7.941560">
        <ele>834.256</ele>
        <time>2020-07-15T03:41:36Z</time>
      </trkpt>
      <trkpt lat="41.661420" lon="-7.942440">
        <ele>835.296</ele>
        <time>2020-07-15T03:41:56Z</time>
      </trkpt>
      <trkpt lat="41.661570" lon="-7.942670">
        <ele>836.517</ele>
        <time>2020-07-15T03:42:16Z</time>
      </trkpt>
      <trkpt lat="41.661580" lon="-7.942640">
        <ele>836.566</ele>
        <time>2020-07-15T03:42:36Z</time>
      </trkpt>
      <trkpt lat="41.661640" lon="-7.942600">
        <ele>836.829</ele>
        <time>2020-07-15T03:42:56Z</time>
      </trkpt>
      <trkpt lat="41.661690" lon="-7.942650">
        <ele>837.121</ele>
        <time>2020-07-15T03:43:16Z</time>
      </trkpt>
      <trkpt lat="41.661700" lon="-7.942740">
        <ele>837.108</ele>
        <time>2020-07-15T03:43:36Z</time>
      </trkpt>
      <trkpt lat="41.661650" lon="-7.942790">
        <ele>836.981</ele>
        <time>2020-07-15T03:43:56Z</time>
      </trkpt>
      <trkpt lat="41.661610" lon="-7.942780">
        <ele>836.868</ele>
        <time>2020-07-15T03:44:16Z</time>
      </trkpt>
      <trkpt lat="41.661700" lon="-7.943050">
        <ele>837.193</ele>
        <time>2020-07-15T03:44:36Z</time>
      </trkpt>
      <trkpt lat="41.662050" lon="-7.943820">
        <ele>839.711</ele>
        <time>2020-07-15T03:44:56Z</time>
      </trkpt>
      <trkpt lat="41.662470" lon="-7.944690">
        <ele>841.978</ele>
        <time>2020-07-15T03:45:16Z</time>
      </trkpt>
      <trkpt lat="41.664090" lon="-7.948270">
        <ele>841.438</ele>
        <time>2020-07-15T03:45:36Z</time>
      </trkpt>
      <trkpt lat="41.664300" lon="-7.948590">
        <ele>838.118</ele>
        <time>2020-07-15T03:45:56Z</time>
      </trkpt>
      <trkpt lat="41.664410" lon="-7.948710">
        <ele>836.469</ele>
        <time>2020-07-15T03:46:16Z</time>
      </trkpt>
      <trkpt lat="41.664540" lon="-7.948820">
        <ele>835.675</ele>
        <time>2020-07-15T03:46:36Z</time>
      </trkpt>
      <trkpt lat="41.664770" lon="-7.948940">
        <ele>833.528</ele>
        <time>2020-07-15T03:46:56Z</time>
      </trkpt>
      <trkpt lat="41.665020" lon="-7.948990">
        <ele>830.120</ele>
        <time>2020-07-15T03:47:16Z</time>
      </trkpt>
      <trkpt lat="41.665160" lon="-7.948990">
        <ele>828.308</ele>
        <time>2020-07-15T03:47:36Z</time>
      </trkpt>
      <trkpt lat="41.665430" lon="-7.948920">
        <ele>824.532</ele>
        <time>2020-07-15T03:47:56Z</time>
      </trkpt>
      <trkpt lat="41.665720" lon="-7.948750">
        <ele>821.439</ele>
        <time>2020-07-15T03:48:16Z</time>
      </trkpt>
      <trkpt lat="41.665840" lon="-7.948620">
        <ele>820.924</ele>
        <time>2020-07-15T03:48:36Z</time>
      </trkpt>
      <trkpt lat="41.666030" lon="-7.948340">
        <ele>822.152</ele>
        <time>2020-07-15T03:48:56Z</time>
      </trkpt>
      <trkpt lat="41.666110" lon="-7.948190">
        <ele>822.039</ele>
        <time>2020-07-15T03:49:16Z</time>
      </trkpt>
      <trkpt lat="41.666170" lon="-7.948000">
        <ele>822.669</ele>
        <time>2020-07-15T03:49:36Z</time>
      </trkpt>
      <trkpt lat="41.666230" lon="-7.947640">
        <ele>822.239</ele>
        <time>2020-07-15T03:49:56Z</time>
      </trkpt>
      <trkpt lat="41.666290" lon="-7.947090">
        <ele>818.390</ele>
        <time>2020-07-15T03:50:16Z</time>
      </trkpt>
      <trkpt lat="41.666350" lon="-7.946810">
        <ele>817.643</ele>
        <time>2020-07-15T03:50:36Z</time>
      </trkpt>
      <trkpt lat="41.666400" lon="-7.946690">
        <ele>817.564</ele>
        <time>2020-07-15T03:50:56Z</time>
      </trkpt>
      <trkpt lat="41.666480" lon="-7.946570">
        <ele>816.710</ele>
        <time>2020-07-15T03:51:16Z</time>
      </trkpt>
      <trkpt lat="41.666590" lon="-7.946450">
        <ele>815.708</ele>
        <time>2020-07-15T03:51:36Z</time>
      </trkpt>
      <trkpt lat="41.666800" lon="-7.946340">
        <ele>812.959</ele>
        <time>2020-07-15T03:51:56Z</time>
      </trkpt>
      <trkpt lat="41.667660" lon="-7.946080">
        <ele>806.976</ele>
        <time>2020-07-15T03:52:16Z</time>
      </trkpt>
      <trkpt lat="41.667810" lon="-7.945970">
        <ele>804.841</ele>
        <time>2020-07-15T03:52:36Z</time>
      </trkpt>
      <trkpt lat="41.667890" lon="-7.945840">
        <ele>803.619</ele>
        <time>2020-07-15T03:52:56Z</time>
      </trkpt>
      <trkpt lat="41.667930" lon="-7.945730">
        <ele>802.146</ele>
        <time>2020-07-15T03:53:16Z</time>
      </trkpt>
      <trkpt lat="41.667950" lon="-7.945500">
        <ele>800.266</ele>
        <time>2020-07-15T03:53:36Z</time>
      </trkpt>
      <trkpt lat="41.667940" lon="-7.945380">
        <ele>799.486</ele>
        <time>2020-07-15T03:53:56Z</time>
      </trkpt>
      <trkpt lat="41.667900" lon="-7.945240">
        <ele>798.647</ele>
        <time>2020-07-15T03:54:16Z</time>
      </trkpt>
      <trkpt lat="41.667810" lon="-7.945090">
        <ele>797.352</ele>
        <time>2020-07-15T03:54:36Z</time>
      </trkpt>
      <trkpt lat="41.667730" lon="-7.945000">
        <ele>797.253</ele>
        <time>2020-07-15T03:54:56Z</time>
      </trkpt>
      <trkpt lat="41.667620" lon="-7.944930">
        <ele>798.408</ele>
        <time>2020-07-15T03:55:16Z</time>
      </trkpt>
      <trkpt lat="41.666970" lon="-7.944740">
        <ele>796.608</ele>
        <time>2020-07-15T03:55:36Z</time>
      </trkpt>
      <trkpt lat="41.666880" lon="-7.944680">
        <ele>796.950</ele>
        <time>2020-07-15T03:55:56Z</time>
      </trkpt>
      <trkpt lat="41.666750" lon="-7.944500">
        <ele>796.987</ele>
        <time>2020-07-15T03:56:16Z</time>
      </trkpt>
      <trkpt lat="41.666700" lon="-7.944370">
        <ele>796.682</ele>
        <time>2020-07-15T03:56:36Z</time>
      </trkpt>
      <trkpt lat="41.666670" lon="-7.944180">
        <ele>796.010</ele>
        <time>2020-07-15T03:56:56Z</time>
      </trkpt>
      <trkpt lat="41.666670" lon="-7.943950">
        <ele>797.477</ele>
        <time>2020-07-15T03:57:16Z</time>
      </trkpt>
      <trkpt lat="41.666690" lon="-7.943770">
        <ele>797.257</ele>
        <time>2020-07-15T03:57:36Z</time>
      </trkpt>
      <trkpt lat="41.666780" lon="-7.943580">
        <ele>794.597</ele>
        <time>2020-07-15T03:57:56Z</time>
      </trkpt>
      <trkpt lat="41.666870" lon="-7.943460">
        <ele>792.468</ele>
        <time>2020-07-15T03:58:16Z</time>
      </trkpt>
      <trkpt lat="41.667020" lon="-7.943350">
        <ele>789.848</ele>
        <time>2020-07-15T03:58:36Z</time>
      </trkpt>
      <trkpt lat="41.668290" lon="-7.942690">
        <ele>775.661</ele>
        <time>2020-07-15T03:58:56Z</time>
      </trkpt>
      <trkpt lat="41.668570" lon="-7.942480">
        <ele>771.517</ele>
        <time>2020-07-15T03:59:16Z</time>
      </trkpt>
      <trkpt lat="41.668690" lon="-7.942310">
        <ele>770.408</ele>
        <time>2020-07-15T03:59:36Z</time>
      </trkpt>
      <trkpt lat="41.668750" lon="-7.942190">
        <ele>770.669</ele>
        <time>2020-07-15T03:59:56Z</time>
      </trkpt>
      <trkpt lat="41.669080" lon="-7.941170">
        <ele>771.056</ele>
        <time>2020-07-15T04:00:16Z</time>
      </trkpt>
      <trkpt lat="41.669140" lon="-7.941030">
        <ele>770.151</ele>
        <time>2020-07-15T04:00:36Z</time>
      </trkpt>
      <trkpt lat="41.669210" lon="-7.940940">
        <ele>769.739</ele>
        <time>2020-07-15T04:00:56Z</time>
      </trkpt>
      <trkpt lat="41.669320" lon="-7.940870">
        <ele>768.436</ele>
        <time>2020-07-15T04:01:16Z</time>
      </trkpt>
      <trkpt lat="41.669430" lon="-7.940830">
        <ele>766.496</ele>
        <time>2020-07-15T04:01:36Z</time>
      </trkpt>
      <trkpt lat="41.669510" lon="-7.940820">
        <ele>766.556</ele>
        <time>2020-07-15T04:01:56Z</time>
      </trkpt>
      <trkpt lat="41.669590" lon="-7.940840">
        <ele>766.417</ele>
        <time>2020-07-15T04:02:16Z</time>
      </trkpt>
      <trkpt lat="41.669680" lon="-7.940890">
        <ele>766.025</ele>
        <time>2020-07-15T04:02:36Z</time>
      </trkpt>
      <trkpt lat="41.669770" lon="-7.940970">
        <ele>766.526</ele>
        <time>2020-07-15T04:02:56Z</time>
      </trkpt>
      <trkpt lat="41.669820" lon="-7.941050">
        <ele>767.008</ele>
        <time>2020-07-15T04:03:16Z</time>
      </trkpt>
      <trkpt lat="41.669890" lon="-7.941270">
        <ele>766.708</ele>
        <time>2020-07-15T04:03:36Z</time>
      </trkpt>
      <trkpt lat="41.669900" lon="-7.941510">
        <ele>765.687</ele>
        <time>2020-07-15T04:03:56Z</time>
      </trkpt>
      <trkpt lat="41.669760" lon="-7.942440">
        <ele>753.344</ele>
        <time>2020-07-15T04:04:16Z</time>
      </trkpt>
      <trkpt lat="41.669710" lon="-7.942890">
        <ele>747.939</ele>
        <time>2020-07-15T04:04:36Z</time>
      </trkpt>
      <trkpt lat="41.669750" lon="-7.943290">
        <ele>745.467</ele>
        <time>2020-07-15T04:04:56Z</time>
      </trkpt>
      <trkpt lat="41.669870" lon="-7.943770">
        <ele>742.534</ele>
        <time>2020-07-15T04:05:16Z</time>
      </trkpt>
      <trkpt lat="41.669940" lon="-7.943940">
        <ele>741.694</ele>
        <time>2020-07-15T04:05:36Z</time>
      </trkpt>
      <trkpt lat="41.670140" lon="-7.944280">
        <ele>740.644</ele>
        <time>2020-07-15T04:05:56Z</time>
      </trkpt>
      <trkpt lat="41.670560" lon="-7.944930">
        <ele>734.975</ele>
        <time>2020-07-15T04:06:16Z</time>
      </trkpt>
      <trkpt lat="41.671060" lon="-7.945660">
        <ele>730.473</ele>
        <time>2020-07-15T04:06:36Z</time>
      </trkpt>
      <trkpt lat="41.673090" lon="-7.948780">
        <ele>703.485</ele>
        <time>2020-07-15T04:06:56Z</time>
      </trkpt>
      <trkpt lat="41.674030" lon="-7.950200">
        <ele>699.913</ele>
        <time>2020-07-15T04:07:16Z</time>
      </trkpt>
      <trkpt lat="41.674190" lon="-7.950500">
        <ele>700.908</ele>
        <time>2020-07-15T04:07:36Z</time>
      </trkpt>
      <trkpt lat="41.674290" lon="-7.950840">
        <ele>700.012</ele>
        <time>2020-07-15T04:07:56Z</time>
      </trkpt>
      <trkpt lat="41.674320" lon="-7.950880">
        <ele>700.889</ele>
        <time>2020-07-15T04:08:16Z</time>
      </trkpt>
      <trkpt lat="41.674330" lon="-7.950910">
        <ele>701.024</ele>
        <time>2020-07-15T04:08:36Z</time>
      </trkpt>
      <trkpt lat="41.674320" lon="-7.951060">
        <ele>700.152</ele>
        <time>2020-07-15T04:08:56Z</time>
      </trkpt>
      <trkpt lat="41.674230" lon="-7.951130">
        <ele>697.679</ele>
        <time>2020-07-15T04:09:16Z</time>
      </trkpt>
      <trkpt lat="41.674170" lon="-7.951120">
        <ele>696.119</ele>
        <time>2020-07-15T04:09:36Z</time>
      </trkpt>
      <trkpt lat="41.674160" lon="-7.951250">
        <ele>696.099</ele>
        <time>2020-07-15T04:09:56Z</time>
      </trkpt>
      <trkpt lat="41.674060" lon="-7.951210">
        <ele>695.660</ele>
        <time>2020-07-15T04:10:16Z</time>
      </trkpt>
      <trkpt lat="41.673950" lon="-7.951200">
        <ele>695.299</ele>
        <time>2020-07-15T04:10:36Z</time>
      </trkpt>
      <trkpt lat="41.673730" lon="-7.951220">
        <ele>696.407</ele>
        <time>2020-07-15T04:10:56Z</time>
      </trkpt>
      <trkpt lat="41.673610" lon="-7.951280">
        <ele>697.627</ele>
        <time>2020-07-15T04:11:16Z</time>
      </trkpt>
      <trkpt lat="41.673460" lon="-7.951400">
        <ele>698.608</ele>
        <time>2020-07-15T04:11:36Z</time>
      </trkpt>
      <trkpt lat="41.673290" lon="-7.951640">
        <ele>699.674</ele>
        <time>2020-07-15T04:11:56Z</time>
      </trkpt>
      <trkpt lat="41.673020" lon="-7.952640">
        <ele>701.821</ele>
        <time>2020-07-15T04:12:16Z</time>
      </trkpt>
      <trkpt lat="41.672950" lon="-7.952780">
        <ele>701.886</ele>
        <time>2020-07-15T04:12:36Z</time>
      </trkpt>
      <trkpt lat="41.672790" lon="-7.953010">
        <ele>700.444</ele>
        <time>2020-07-15T04:12:56Z</time>
      </trkpt>
      <trkpt lat="41.672480" lon="-7.953390">
        <ele>702.811</ele>
        <time>2020-07-15T04:13:16Z</time>
      </trkpt>
      <trkpt lat="41.672310" lon="-7.953660">
        <ele>702.361</ele>
        <time>2020-07-15T04:13:36Z</time>
      </trkpt>
      <trkpt lat="41.672220" lon="-7.953940">
        <ele>701.031</ele>
        <time>2020-07-15T04:13:56Z</time>
      </trkpt>
      <trkpt lat="41.672170" lon="-7.954180">
        <ele>701.882</ele>
        <time>2020-07-15T04:14:16Z</time>
      </trkpt>
      <trkpt lat="41.672180" lon="-7.954530">
        <ele>703.314</ele>
        <time>2020-07-15T04:14:36Z</time>
      </trkpt>
      <trkpt lat="41.672220" lon="-7.954740">
        <ele>703.454</ele>
        <time>2020-07-15T04:14:56Z</time>
      </trkpt>
      <trkpt lat="41.672370" lon="-7.955190">
        <ele>708.409</ele>
        <time>2020-07-15T04:15:16Z</time>
      </trkpt>
      <trkpt lat="41.673200" lon="-7.957210">
        <ele>712.508</ele>
        <time>2020-07-15T04:15:36Z</time>
      </trkpt>
      <trkpt lat="41.673730" lon="-7.958270">
        <ele>713.736</ele>
        <time>2020-07-15T04:15:56Z</time>
      </trkpt>
      <trkpt lat="41.674030" lon="-7.958790">
        <ele>714.713</ele>
        <time>2020-07-15T04:16:16Z</time>
      </trkpt>
      <trkpt lat="41.674140" lon="-7.959030">
        <ele>713.368</ele>
        <time>2020-07-15T04:16:36Z</time>
      </trkpt>
      <trkpt lat="41.674190" lon="-7.959220">
        <ele>712.856</ele>
        <time>2020-07-15T04:16:56Z</time>
      </trkpt>
      <trkpt lat="41.674210" lon="-7.959530">
        <ele>712.773</ele>
        <time>2020-07-15T04:17:16Z</time>
      </trkpt>
      <trkpt lat="41.674180" lon="-7.959910">
        <ele>712.933</ele>
        <time>2020-07-15T04:17:36Z</time>
      </trkpt>
      <trkpt lat="41.674150" lon="-7.960090">
        <ele>712.583</ele>
        <time>2020-07-15T04:17:56Z</time>
      </trkpt>
      <trkpt lat="41.674080" lon="-7.960320">
        <ele>711.364</ele>
        <time>2020-07-15T04:18:16Z</time>
      </trkpt>
      <trkpt lat="41.673990" lon="-7.960510">
        <ele>710.857</ele>
        <time>2020-07-15T04:18:36Z</time>
      </trkpt>
      <trkpt lat="41.673890" lon="-7.960660">
        <ele>710.100</ele>
        <time>2020-07-15T04:18:56Z</time>
      </trkpt>
      <trkpt lat="41.673670" lon="-7.960870">
        <ele>711.720</ele>
        <time>2020-07-15T04:19:16Z</time>
      </trkpt>
      <trkpt lat="41.673390" lon="-7.960990">
        <ele>709.808</ele>
        <time>2020-07-15T04:19:36Z</time>
      </trkpt>
      <trkpt lat="41.673190" lon="-7.961010">
        <ele>707.350</ele>
        <time>2020-07-15T04:19:56Z</time>
      </trkpt>
      <trkpt lat="41.672980" lon="-7.960980">
        <ele>705.537</ele>
        <time>2020-07-15T04:20:16Z</time>
      </trkpt>
      <trkpt lat="41.672730" lon="-7.960870">
        <ele>704.742</ele>
        <time>2020-07-15T04:20:36Z</time>
      </trkpt>
      <trkpt lat="41.672280" lon="-7.960620">
        <ele>706.010</ele>
        <time>2020-07-15T04:20:56Z</time>
      </trkpt>
      <trkpt lat="41.672090" lon="-7.960550">
        <ele>705.297</ele>
        <time>2020-07-15T04:21:16Z</time>
      </trkpt>
      <trkpt lat="41.671940" lon="-7.960550">
        <ele>703.067</ele>
        <time>2020-07-15T04:21:36Z</time>
      </trkpt>
      <trkpt lat="41.671830" lon="-7.960590">
        <ele>699.217</ele>
        <time>2020-07-15T04:21:56Z</time>
      </trkpt>
      <trkpt lat="41.671720" lon="-7.960660">
        <ele>695.068</ele>
        <time>2020-07-15T04:22:16Z</time>
      </trkpt>
      <trkpt lat="41.671620" lon="-7.960760">
        <ele>692.015</ele>
        <time>2020-07-15T04:22:36Z</time>
      </trkpt>
      <trkpt lat="41.671530" lon="-7.960910">
        <ele>691.065</ele>
        <time>2020-07-15T04:22:56Z</time>
      </trkpt>
      <trkpt lat="41.671450" lon="-7.961250">
        <ele>692.611</ele>
        <time>2020-07-15T04:23:16Z</time>
      </trkpt>
      <trkpt lat="41.671460" lon="-7.961480">
        <ele>695.408</ele>
        <time>2020-07-15T04:23:36Z</time>
      </trkpt>
      <trkpt lat="41.671560" lon="-7.961930">
        <ele>696.866</ele>
        <time>2020-07-15T04:23:56Z</time>
      </trkpt>
      <trkpt lat="41.671600" lon="-7.962270">
        <ele>697.073</ele>
        <time>2020-07-15T04:24:16Z</time>
      </trkpt>
      <trkpt lat="41.671570" lon="-7.962560">
        <ele>698.018</ele>
        <time>2020-07-15T04:24:36Z</time>
      </trkpt>
      <trkpt lat="41.671530" lon="-7.962720">
        <ele>698.016</ele>
        <time>2020-07-15T04:24:56Z</time>
      </trkpt>
      <trkpt lat="41.671430" lon="-7.962900">
        <ele>701.333</ele>
        <time>2020-07-15T04:25:16Z</time>
      </trkpt>
      <trkpt lat="41.671030" lon="-7.963410">
        <ele>700.813</ele>
        <time>2020-07-15T04:25:36Z</time>
      </trkpt>
      <trkpt lat="41.670950" lon="-7.963580">
        <ele>698.253</ele>
        <time>2020-07-15T04:25:56Z</time>
      </trkpt>
      <trkpt lat="41.670890" lon="-7.963780">
        <ele>696.554</ele>
        <time>2020-07-15T04:26:16Z</time>
      </trkpt>
      <trkpt lat="41.670900" lon="-7.964110">
        <ele>694.559</ele>
        <time>2020-07-15T04:26:36Z</time>
      </trkpt>
      <trkpt lat="41.671200" lon="-7.965110">
        <ele>695.803</ele>
        <time>2020-07-15T04:26:56Z</time>
      </trkpt>
      <trkpt lat="41.671220" lon="-7.965610">
        <ele>694.523</ele>
        <time>2020-07-15T04:27:16Z</time>
      </trkpt>
      <trkpt lat="41.671200" lon="-7.965810">
        <ele>696.008</ele>
        <time>2020-07-15T04:27:36Z</time>
      </trkpt>
      <trkpt lat="41.671150" lon="-7.966030">
        <ele>696.550</ele>
        <time>2020-07-15T04:27:56Z</time>
      </trkpt>
      <trkpt lat="41.671050" lon="-7.966250">
        <ele>694.617</ele>
        <time>2020-07-15T04:28:16Z</time>
      </trkpt>
      <trkpt lat="41.670840" lon="-7.966580">
        <ele>697.862</ele>
        <time>2020-07-15T04:28:36Z</time>
      </trkpt>
      <trkpt lat="41.670590" lon="-7.966800">
        <ele>699.770</ele>
        <time>2020-07-15T04:28:56Z</time>
      </trkpt>
      <trkpt lat="41.669860" lon="-7.967230">
        <ele>711.437</ele>
        <time>2020-07-15T04:29:16Z</time>
      </trkpt>
      <trkpt lat="41.669730" lon="-7.967380">
        <ele>710.547</ele>
        <time>2020-07-15T04:29:36Z</time>
      </trkpt>
      <trkpt lat="41.669640" lon="-7.967590">
        <ele>708.587</ele>
        <time>2020-07-15T04:29:56Z</time>
      </trkpt>
      <trkpt lat="41.669600" lon="-7.967940">
        <ele>707.398</ele>
        <time>2020-07-15T04:30:16Z</time>
      </trkpt>
      <trkpt lat="41.669630" lon="-7.968150">
        <ele>707.915</ele>
        <time>2020-07-15T04:30:36Z</time>
      </trkpt>
      <trkpt lat="41.669700" lon="-7.968330">
        <ele>709.065</ele>
        <time>2020-07-15T04:30:56Z</time>
      </trkpt>
      <trkpt lat="41.669840" lon="-7.968520">
        <ele>712.911</ele>
        <time>2020-07-15T04:31:16Z</time>
      </trkpt>
      <trkpt lat="41.670000" lon="-7.968620">
        <ele>715.308</ele>
        <time>2020-07-15T04:31:36Z</time>
      </trkpt>
      <trkpt lat="41.670180" lon="-7.968630">
        <ele>718.456</ele>
        <time>2020-07-15T04:31:56Z</time>
      </trkpt>
      <trkpt lat="41.670330" lon="-7.968600">
        <ele>720.183</ele>
        <time>2020-07-15T04:32:16Z</time>
      </trkpt>
      <trkpt lat="41.670530" lon="-7.968510">
        <ele>721.038</ele>
        <time>2020-07-15T04:32:36Z</time>
      </trkpt>
      <trkpt lat="41.670970" lon="-7.968270">
        <ele>712.796</ele>
        <time>2020-07-15T04:32:56Z</time>
      </trkpt>
      <trkpt lat="41.671210" lon="-7.968230">
        <ele>713.553</ele>
        <time>2020-07-15T04:33:16Z</time>
      </trkpt>
      <trkpt lat="41.671390" lon="-7.968260">
        <ele>717.433</ele>
        <time>2020-07-15T04:33:36Z</time>
      </trkpt>
      <trkpt lat="41.671530" lon="-7.968310">
        <ele>718.223</ele>
        <time>2020-07-15T04:33:56Z</time>
      </trkpt>
      <trkpt lat="41.671830" lon="-7.968510">
        <ele>721.714</ele>
        <time>2020-07-15T04:34:16Z</time>
      </trkpt>
      <trkpt lat="41.671990" lon="-7.968690">
        <ele>724.333</ele>
        <time>2020-07-15T04:34:36Z</time>
      </trkpt>
      <trkpt lat="41.672120" lon="-7.968900">
        <ele>725.923</ele>
        <time>2020-07-15T04:34:56Z</time>
      </trkpt>
      <trkpt lat="41.672220" lon="-7.969100">
        <ele>726.615</ele>
        <time>2020-07-15T04:35:16Z</time>
      </trkpt>
      <trkpt lat="41.672290" lon="-7.969360">
        <ele>728.708</ele>
        <time>2020-07-15T04:35:36Z</time>
      </trkpt>
      <trkpt lat="41.672660" lon="-7.971140">
        <ele>734.448</ele>
        <time>2020-07-15T04:35:56Z</time>
      </trkpt>
      <trkpt lat="41.672700" lon="-7.971580">
        <ele>736.945</ele>
        <time>2020-07-15T04:36:16Z</time>
      </trkpt>
      <trkpt lat="41.672710" lon="-7.971910">
        <ele>737.190</ele>
        <time>2020-07-15T04:36:36Z</time>
      </trkpt>
      <trkpt lat="41.672660" lon="-7.972340">
        <ele>739.038</ele>
        <time>2020-07-15T04:36:56Z</time>
      </trkpt>
      <trkpt lat="41.672370" lon="-7.973660">
        <ele>744.035</ele>
        <time>2020-07-15T04:37:16Z</time>
      </trkpt>
      <trkpt lat="41.672350" lon="-7.973870">
        <ele>744.635</ele>
        <time>2020-07-15T04:37:36Z</time>
      </trkpt>
      <trkpt lat="41.672370" lon="-7.974220">
        <ele>745.185</ele>
        <time>2020-07-15T04:37:56Z</time>
      </trkpt>
      <trkpt lat="41.672410" lon="-7.974420">
        <ele>745.656</ele>
        <time>2020-07-15T04:38:16Z</time>
      </trkpt>
      <trkpt lat="41.672520" lon="-7.974720">
        <ele>745.149</ele>
        <time>2020-07-15T04:38:36Z</time>
      </trkpt>
      <trkpt lat="41.672900" lon="-7.975530">
        <ele>751.002</ele>
        <time>2020-07-15T04:38:56Z</time>
      </trkpt>
      <trkpt lat="41.673010" lon="-7.975820">
        <ele>749.522</ele>
        <time>2020-07-15T04:39:16Z</time>
      </trkpt>
      <trkpt lat="41.673080" lon="-7.976120">
        <ele>749.108</ele>
        <time>2020-07-15T04:39:36Z</time>
      </trkpt>
      <trkpt lat="41.673150" lon="-7.976670">
        <ele>745.629</ele>
        <time>2020-07-15T04:39:56Z</time>
      </trkpt>
      <trkpt lat="41.673330" lon="-7.979120">
        <ele>737.336</ele>
        <time>2020-07-15T04:40:16Z</time>
      </trkpt>
      <trkpt lat="41.673330" lon="-7.979440">
        <ele>735.211</ele>
        <time>2020-07-15T04:40:36Z</time>
      </trkpt>
      <trkpt lat="41.673300" lon="-7.979680">
        <ele>735.319</ele>
        <time>2020-07-15T04:40:56Z</time>
      </trkpt>
      <trkpt lat="41.673190" lon="-7.980130">
        <ele>733.676</ele>
        <time>2020-07-15T04:41:16Z</time>
      </trkpt>
      <trkpt lat="41.673070" lon="-7.980500">
        <ele>732.286</ele>
        <time>2020-07-15T04:41:36Z</time>
      </trkpt>
      <trkpt lat="41.672940" lon="-7.980750">
        <ele>731.486</ele>
        <time>2020-07-15T04:41:56Z</time>
      </trkpt>
      <trkpt lat="41.672750" lon="-7.981060">
        <ele>729.237</ele>
        <time>2020-07-15T04:42:16Z</time>
      </trkpt>
      <trkpt lat="41.672470" lon="-7.981350">
        <ele>725.086</ele>
        <time>2020-07-15T04:42:36Z</time>
      </trkpt>
      <trkpt lat="41.672330" lon="-7.981460">
        <ele>726.260</ele>
        <time>2020-07-15T04:42:56Z</time>
      </trkpt>
      <trkpt lat="41.672150" lon="-7.981580">
        <ele>727.026</ele>
        <time>2020-07-15T04:43:16Z</time>
      </trkpt>
      <trkpt lat="41.671240" lon="-7.982100">
        <ele>724.708</ele>
        <time>2020-07-15T04:43:36Z</time>
      </trkpt>
      <trkpt lat="41.670950" lon="-7.982360">
        <ele>724.873</ele>
        <time>2020-07-15T04:43:56Z</time>
      </trkpt>
      <trkpt lat="41.670490" lon="-7.982970">
        <ele>717.810</ele>
        <time>2020-07-15T04:44:16Z</time>
      </trkpt>
      <trkpt lat="41.670330" lon="-7.983130">
        <ele>716.155</ele>
        <time>2020-07-15T04:44:36Z</time>
      </trkpt>
      <trkpt lat="41.670170" lon="-7.983240">
        <ele>715.893</ele>
        <time>2020-07-15T04:44:56Z</time>
      </trkpt>
      <trkpt lat="41.670010" lon="-7.983290">
        <ele>717.180</ele>
        <time>2020-07-15T04:45:16Z</time>
      </trkpt>
      <trkpt lat="41.669820" lon="-7.983310">
        <ele>716.620</ele>
        <time>2020-07-15T04:45:36Z</time>
      </trkpt>
      <trkpt lat="41.669650" lon="-7.983280">
        <ele>715.150</ele>
        <time>2020-07-15T04:45:56Z</time>
      </trkpt>
      <trkpt lat="41.669480" lon="-7.983190">
        <ele>712.231</ele>
        <time>2020-07-15T04:46:16Z</time>
      </trkpt>
      <trkpt lat="41.669330" lon="-7.983060">
        <ele>709.558</ele>
        <time>2020-07-15T04:46:36Z</time>
      </trkpt>
      <trkpt lat="41.668720" lon="-7.982320">
        <ele>709.852</ele>
        <time>2020-07-15T04:46:56Z</time>
      </trkpt>
      <trkpt lat="41.668420" lon="-7.981990">
        <ele>714.617</ele>
        <time>2020-07-15T04:47:16Z</time>
      </trkpt>
      <trkpt lat="41.668210" lon="-7.981790">
        <ele>713.408</ele>
        <time>2020-07-15T04:47:36Z</time>
      </trkpt>
      <trkpt lat="41.667970" lon="-7.981650">
        <ele>712.190</ele>
        <time>2020-07-15T04:47:56Z</time>
      </trkpt>
      <trkpt lat="41.667120" lon="-7.981240">
        <ele>710.997</ele>
        <time>2020-07-15T04:48:16Z</time>
      </trkpt>
      <trkpt lat="41.666920" lon="-7.981190">
        <ele>707.292</ele>
        <time>2020-07-15T04:48:36Z</time>
      </trkpt>
      <trkpt lat="41.666790" lon="-7.981200">
        <ele>700.390</ele>
        <time>2020-07-15T04:48:56Z</time>
      </trkpt>
      <trkpt lat="41.666620" lon="-7.981280">
        <ele>692.447</ele>
        <time>2020-07-15T04:49:16Z</time>
      </trkpt>
      <trkpt lat="41.666480" lon="-7.981410">
        <ele>690.077</ele>
        <time>2020-07-15T04:49:36Z</time>
      </trkpt>
      <trkpt lat="41.666400" lon="-7.981530">
        <ele>690.077</ele>
        <time>2020-07-15T04:49:56Z</time>
      </trkpt>
      <trkpt lat="41.666310" lon="-7.981840">
        <ele>691.148</ele>
        <time>2020-07-15T04:50:16Z</time>
      </trkpt>
      <trkpt lat="41.666310" lon="-7.982080">
        <ele>696.765</ele>
        <time>2020-07-15T04:50:36Z</time>
      </trkpt>
      <trkpt lat="41.666330" lon="-7.982200">
        <ele>700.868</ele>
        <time>2020-07-15T04:50:56Z</time>
      </trkpt>
      <trkpt lat="41.666400" lon="-7.982420">
        <ele>705.714</ele>
        <time>2020-07-15T04:51:16Z</time>
      </trkpt>
      <trkpt lat="41.666530" lon="-7.982600">
        <ele>704.808</ele>
        <time>2020-07-15T04:51:36Z</time>
      </trkpt>
      <trkpt lat="41.666660" lon="-7.982730">
        <ele>702.041</ele>
        <time>2020-07-15T04:51:56Z</time>
      </trkpt>
      <trkpt lat="41.667120" lon="-7.983090">
        <ele>696.788</ele>
        <time>2020-07-15T04:52:16Z</time>
      </trkpt>
      <trkpt lat="41.667290" lon="-7.983300">
        <ele>702.693</ele>
        <time>2020-07-15T04:52:36Z</time>
      </trkpt>
      <trkpt lat="41.667470" lon="-7.983570">
        <ele>707.071</ele>
        <time>2020-07-15T04:52:56Z</time>
      </trkpt>
      <trkpt lat="41.667600" lon="-7.983840">
        <ele>709.118</ele>
        <time>2020-07-15T04:53:16Z</time>
      </trkpt>
      <trkpt lat="41.668340" lon="-7.985530">
        <ele>700.658</ele>
        <time>2020-07-15T04:53:36Z</time>
      </trkpt>
      <trkpt lat="41.668370" lon="-7.985760">
        <ele>692.578</ele>
        <time>2020-07-15T04:53:56Z</time>
      </trkpt>
      <trkpt lat="41.668370" lon="-7.985990">
        <ele>690.029</ele>
        <time>2020-07-15T04:54:16Z</time>
      </trkpt>
      <trkpt lat="41.668210" lon="-7.986670">
        <ele>697.281</ele>
        <time>2020-07-15T04:54:36Z</time>
      </trkpt>
      <trkpt lat="41.668200" lon="-7.986800">
        <ele>696.861</ele>
        <time>2020-07-15T04:54:56Z</time>
      </trkpt>
      <trkpt lat="41.668220" lon="-7.986970">
        <ele>695.217</ele>
        <time>2020-07-15T04:55:16Z</time>
      </trkpt>
      <trkpt lat="41.668280" lon="-7.987170">
        <ele>695.108</ele>
        <time>2020-07-15T04:55:36Z</time>
      </trkpt>
      <trkpt lat="41.668420" lon="-7.987390">
        <ele>698.063</ele>
        <time>2020-07-15T04:55:56Z</time>
      </trkpt>
      <trkpt lat="41.668610" lon="-7.987530">
        <ele>702.390</ele>
        <time>2020-07-15T04:56:16Z</time>
      </trkpt>
      <trkpt lat="41.668740" lon="-7.987560">
        <ele>704.675</ele>
        <time>2020-07-15T04:56:36Z</time>
      </trkpt>
      <trkpt lat="41.668880" lon="-7.987550">
        <ele>705.343</ele>
        <time>2020-07-15T04:56:56Z</time>
      </trkpt>
      <trkpt lat="41.668990" lon="-7.987520">
        <ele>705.760</ele>
        <time>2020-07-15T04:57:16Z</time>
      </trkpt>
      <trkpt lat="41.669110" lon="-7.987440">
        <ele>705.220</ele>
        <time>2020-07-15T04:57:36Z</time>
      </trkpt>
      <trkpt lat="41.669540" lon="-7.987030">
        <ele>702.540</ele>
        <time>2020-07-15T04:57:56Z</time>
      </trkpt>
      <trkpt lat="41.669820" lon="-7.986820">
        <ele>701.881</ele>
        <time>2020-07-15T04:58:16Z</time>
      </trkpt>
      <trkpt lat="41.670050" lon="-7.986740">
        <ele>701.552</ele>
        <time>2020-07-15T04:58:36Z</time>
      </trkpt>
      <trkpt lat="41.670320" lon="-7.986740">
        <ele>702.353</ele>
        <time>2020-07-15T04:58:56Z</time>
      </trkpt>
      <trkpt lat="41.671140" lon="-7.986950">
        <ele>705.508</ele>
        <time>2020-07-15T04:59:16Z</time>
      </trkpt>
      <trkpt lat="41.671340" lon="-7.986980">
        <ele>708.708</ele>
        <time>2020-07-15T04:59:36Z</time>
      </trkpt>
      <trkpt lat="41.671510" lon="-7.986960">
        <ele>709.940</ele>
        <time>2020-07-15T04:59:56Z</time>
      </trkpt>
      <trkpt lat="41.672010" lon="-7.986670">
        <ele>706.337</ele>
        <time>2020-07-15T05:00:16Z</time>
      </trkpt>
      <trkpt lat="41.672270" lon="-7.986590">
        <ele>707.982</ele>
        <time>2020-07-15T05:00:36Z</time>
      </trkpt>
      <trkpt lat="41.673110" lon="-7.986660">
        <ele>705.710</ele>
        <time>2020-07-15T05:00:56Z</time>
      </trkpt>
      <trkpt lat="41.673300" lon="-7.986600">
        <ele>706.957</ele>
        <time>2020-07-15T05:01:16Z</time>
      </trkpt>
      <trkpt lat="41.673400" lon="-7.986530">
        <ele>707.097</ele>
        <time>2020-07-15T05:01:36Z</time>
      </trkpt>
      <trkpt lat="41.673500" lon="-7.986420">
        <ele>706.927</ele>
        <time>2020-07-15T05:01:56Z</time>
      </trkpt>
      <trkpt lat="41.673650" lon="-7.986120">
        <ele>707.498</ele>
        <time>2020-07-15T05:02:16Z</time>
      </trkpt>
      <trkpt lat="41.673780" lon="-7.985780">
        <ele>707.663</ele>
        <time>2020-07-15T05:02:36Z</time>
      </trkpt>
      <trkpt lat="41.673910" lon="-7.985540">
        <ele>707.344</ele>
        <time>2020-07-15T05:02:56Z</time>
      </trkpt>
      <trkpt lat="41.674090" lon="-7.985340">
        <ele>706.118</ele>
        <time>2020-07-15T05:03:16Z</time>
      </trkpt>
      <trkpt lat="41.674300" lon="-7.985220">
        <ele>704.608</ele>
        <time>2020-07-15T05:03:36Z</time>
      </trkpt>
      <trkpt lat="41.674530" lon="-7.985180">
        <ele>706.111</ele>
        <time>2020-07-15T05:03:56Z</time>
      </trkpt>
      <trkpt lat="41.674970" lon="-7.985200">
        <ele>711.938</ele>
        <time>2020-07-15T05:04:16Z</time>
      </trkpt>
      <trkpt lat="41.675190" lon="-7.985170">
        <ele>711.083</ele>
        <time>2020-07-15T05:04:36Z</time>
      </trkpt>
      <trkpt lat="41.675640" lon="-7.985030">
        <ele>705.891</ele>
        <time>2020-07-15T05:04:56Z</time>
      </trkpt>
      <trkpt lat="41.676010" lon="-7.985010">
        <ele>707.028</ele>
        <time>2020-07-15T05:05:16Z</time>
      </trkpt>
      <trkpt lat="41.676360" lon="-7.984900">
        <ele>709.698</ele>
        <time>2020-07-15T05:05:36Z</time>
      </trkpt>
      <trkpt lat="41.677410" lon="-7.984430">
        <ele>707.248</ele>
        <time>2020-07-15T05:05:56Z</time>
      </trkpt>
      <trkpt lat="41.677620" lon="-7.984360">
        <ele>706.549</ele>
        <time>2020-07-15T05:06:16Z</time>
      </trkpt>
      <trkpt lat="41.677790" lon="-7.984360">
        <ele>707.141</ele>
        <time>2020-07-15T05:06:36Z</time>
      </trkpt>
      <trkpt lat="41.677900" lon="-7.984390">
        <ele>707.281</ele>
        <time>2020-07-15T05:06:56Z</time>
      </trkpt>
      <trkpt lat="41.678020" lon="-7.984450">
        <ele>708.109</ele>
        <time>2020-07-15T05:07:16Z</time>
      </trkpt>
      <trkpt lat="41.678200" lon="-7.984580">
        <ele>707.408</ele>
        <time>2020-07-15T05:07:36Z</time>
      </trkpt>
      <trkpt lat="41.678370" lon="-7.984800">
        <ele>706.349</ele>
        <time>2020-07-15T05:07:56Z</time>
      </trkpt>
      <trkpt lat="41.678500" lon="-7.985120">
        <ele>706.286</ele>
        <time>2020-07-15T05:08:16Z</time>
      </trkpt>
      <trkpt lat="41.678540" lon="-7.985260">
        <ele>706.051</ele>
        <time>2020-07-15T05:08:36Z</time>
      </trkpt>
      <trkpt lat="41.678680" lon="-7.986040">
        <ele>704.269</ele>
        <time>2020-07-15T05:08:56Z</time>
      </trkpt>
      <trkpt lat="41.678740" lon="-7.986260">
        <ele>704.436</ele>
        <time>2020-07-15T05:09:16Z</time>
      </trkpt>
      <trkpt lat="41.678870" lon="-7.986610">
        <ele>704.026</ele>
        <time>2020-07-15T05:09:36Z</time>
      </trkpt>
      <trkpt lat="41.678930" lon="-7.986730">
        <ele>702.916</ele>
        <time>2020-07-15T05:09:56Z</time>
      </trkpt>
      <trkpt lat="41.679320" lon="-7.987340">
        <ele>691.567</ele>
        <time>2020-07-15T05:10:16Z</time>
      </trkpt>
      <trkpt lat="41.679380" lon="-7.987480">
        <ele>690.784</ele>
        <time>2020-07-15T05:10:36Z</time>
      </trkpt>
      <trkpt lat="41.679420" lon="-7.987670">
        <ele>692.807</ele>
        <time>2020-07-15T05:10:56Z</time>
      </trkpt>
      <trkpt lat="41.679450" lon="-7.988050">
        <ele>698.617</ele>
        <time>2020-07-15T05:11:16Z</time>
      </trkpt>
      <trkpt lat="41.679460" lon="-7.988640">
        <ele>703.208</ele>
        <time>2020-07-15T05:11:36Z</time>
      </trkpt>
      <trkpt lat="41.679660" lon="-7.989680">
        <ele>702.383</ele>
        <time>2020-07-15T05:11:56Z</time>
      </trkpt>
      <trkpt lat="41.679730" lon="-7.989890">
        <ele>703.990</ele>
        <time>2020-07-15T05:12:16Z</time>
      </trkpt>
      <trkpt lat="41.679830" lon="-7.990070">
        <ele>704.925</ele>
        <time>2020-07-15T05:12:36Z</time>
      </trkpt>
      <trkpt lat="41.680540" lon="-7.990830">
        <ele>700.723</ele>
        <time>2020-07-15T05:12:56Z</time>
      </trkpt>
      <trkpt lat="41.680760" lon="-7.991090">
        <ele>700.850</ele>
        <time>2020-07-15T05:13:16Z</time>
      </trkpt>
      <trkpt lat="41.680860" lon="-7.991260">
        <ele>701.880</ele>
        <time>2020-07-15T05:13:36Z</time>
      </trkpt>
      <trkpt lat="41.680960" lon="-7.991560">
        <ele>705.690</ele>
        <time>2020-07-15T05:13:56Z</time>
      </trkpt>
      <trkpt lat="41.681020" lon="-7.991800">
        <ele>706.321</ele>
        <time>2020-07-15T05:14:16Z</time>
      </trkpt>
      <trkpt lat="41.681040" lon="-7.992020">
        <ele>705.914</ele>
        <time>2020-07-15T05:14:36Z</time>
      </trkpt>
      <trkpt lat="41.681030" lon="-7.992170">
        <ele>705.354</ele>
        <time>2020-07-15T05:14:56Z</time>
      </trkpt>
      <trkpt lat="41.681000" lon="-7.992300">
        <ele>704.709</ele>
        <time>2020-07-15T05:15:16Z</time>
      </trkpt>
      <trkpt lat="41.680950" lon="-7.992400">
        <ele>704.408</ele>
        <time>2020-07-15T05:15:36Z</time>
      </trkpt>
      <trkpt lat="41.680540" lon="-7.992870">
        <ele>702.326</ele>
        <time>2020-07-15T05:15:56Z</time>
      </trkpt>
      <trkpt lat="41.680440" lon="-7.993150">
        <ele>701.293</ele>
        <time>2020-07-15T05:16:16Z</time>
      </trkpt>
      <trkpt lat="41.680420" lon="-7.993340">
        <ele>698.588</ele>
        <time>2020-07-15T05:16:36Z</time>
      </trkpt>
      <trkpt lat="41.680430" lon="-7.993540">
        <ele>698.726</ele>
        <time>2020-07-15T05:16:56Z</time>
      </trkpt>
      <trkpt lat="41.680470" lon="-7.993720">
        <ele>700.773</ele>
        <time>2020-07-15T05:17:16Z</time>
      </trkpt>
      <trkpt lat="41.680560" lon="-7.993900">
        <ele>703.333</ele>
        <time>2020-07-15T05:17:36Z</time>
      </trkpt>
      <trkpt lat="41.681190" lon="-7.994630">
        <ele>710.633</ele>
        <time>2020-07-15T05:17:56Z</time>
      </trkpt>
      <trkpt lat="41.681570" lon="-7.994860">
        <ele>709.444</ele>
        <time>2020-07-15T05:18:16Z</time>
      </trkpt>
      <trkpt lat="41.682530" lon="-7.995290">
        <ele>705.878</ele>
        <time>2020-07-15T05:18:36Z</time>
      </trkpt>
      <trkpt lat="41.682740" lon="-7.995410">
        <ele>704.933</ele>
        <time>2020-07-15T05:18:56Z</time>
      </trkpt>
      <trkpt lat="41.682820" lon="-7.995480">
        <ele>705.226</ele>
        <time>2020-07-15T05:19:16Z</time>
      </trkpt>
      <trkpt lat="41.682930" lon="-7.995630">
        <ele>706.908</ele>
        <time>2020-07-15T05:19:36Z</time>
      </trkpt>
      <trkpt lat="41.683020" lon="-7.995870">
        <ele>710.322</ele>
        <time>2020-07-15T05:19:56Z</time>
      </trkpt>
      <trkpt lat="41.683090" lon="-7.996460">
        <ele>714.819</ele>
        <time>2020-07-15T05:20:16Z</time>
      </trkpt>
      <trkpt lat="41.683130" lon="-7.996990">
        <ele>711.244</ele>
        <time>2020-07-15T05:20:36Z</time>
      </trkpt>
      <trkpt lat="41.683120" lon="-7.997370">
        <ele>707.072</ele>
        <time>2020-07-15T05:20:56Z</time>
      </trkpt>
      <trkpt lat="41.683080" lon="-7.997520">
        <ele>706.869</ele>
        <time>2020-07-15T05:21:16Z</time>
      </trkpt>
      <trkpt lat="41.683010" lon="-7.997680">
        <ele>706.529</ele>
        <time>2020-07-15T05:21:36Z</time>
      </trkpt>
      <trkpt lat="41.682670" lon="-7.998040">
        <ele>701.989</ele>
        <time>2020-07-15T05:21:56Z</time>
      </trkpt>
      <trkpt lat="41.682210" lon="-7.998450">
        <ele>694.960</ele>
        <time>2020-07-15T05:22:16Z</time>
      </trkpt>
      <trkpt lat="41.682050" lon="-7.998560">
        <ele>691.235</ele>
        <time>2020-07-15T05:22:36Z</time>
      </trkpt>
      <trkpt lat="41.681560" lon="-7.998760">
        <ele>700.686</ele>
        <time>2020-07-15T05:22:56Z</time>
      </trkpt>
      <trkpt lat="41.681410" lon="-7.998950">
        <ele>702.814</ele>
        <time>2020-07-15T05:23:16Z</time>
      </trkpt>
      <trkpt lat="41.681040" lon="-7.999580">
        <ele>696.708</ele>
        <time>2020-07-15T05:23:36Z</time>
      </trkpt>
      <trkpt lat="41.680950" lon="-7.999820">
        <ele>696.398</ele>
        <time>2020-07-15T05:23:56Z</time>
      </trkpt>
      <trkpt lat="41.680880" lon="-8.000150">
        <ele>693.355</ele>
        <time>2020-07-15T05:24:16Z</time>
      </trkpt>
      <trkpt lat="41.680760" lon="-8.000410">
        <ele>692.560</ele>
        <time>2020-07-15T05:24:36Z</time>
      </trkpt>
      <trkpt lat="41.680580" lon="-8.000650">
        <ele>689.838</ele>
        <time>2020-07-15T05:24:56Z</time>
      </trkpt>
      <trkpt lat="41.680380" lon="-8.000860">
        <ele>686.745</ele>
        <time>2020-07-15T05:25:16Z</time>
      </trkpt>
      <trkpt lat="41.680190" lon="-8.000990">
        <ele>686.375</ele>
        <time>2020-07-15T05:25:36Z</time>
      </trkpt>
      <trkpt lat="41.679880" lon="-8.001100">
        <ele>685.065</ele>
        <time>2020-07-15T05:25:56Z</time>
      </trkpt>
      <trkpt lat="41.679360" lon="-8.001090">
        <ele>693.576</ele>
        <time>2020-07-15T05:26:16Z</time>
      </trkpt>
      <trkpt lat="41.679280" lon="-8.001110">
        <ele>695.463</ele>
        <time>2020-07-15T05:26:36Z</time>
      </trkpt>
      <trkpt lat="41.679200" lon="-8.001160">
        <ele>696.944</ele>
        <time>2020-07-15T05:26:56Z</time>
      </trkpt>
      <trkpt lat="41.679120" lon="-8.001280">
        <ele>697.118</ele>
        <time>2020-07-15T05:27:16Z</time>
      </trkpt>
      <trkpt lat="41.679060" lon="-8.001440">
        <ele>698.408</ele>
        <time>2020-07-15T05:27:36Z</time>
      </trkpt>
      <trkpt lat="41.679060" lon="-8.001610">
        <ele>699.961</ele>
        <time>2020-07-15T05:27:56Z</time>
      </trkpt>
      <trkpt lat="41.679100" lon="-8.001750">
        <ele>701.178</ele>
        <time>2020-07-15T05:28:16Z</time>
      </trkpt>
      <trkpt lat="41.679210" lon="-8.001900">
        <ele>701.773</ele>
        <time>2020-07-15T05:28:36Z</time>
      </trkpt>
      <trkpt lat="41.679580" lon="-8.002290">
        <ele>699.531</ele>
        <time>2020-07-15T05:28:56Z</time>
      </trkpt>
      <trkpt lat="41.679710" lon="-8.002520">
        <ele>701.048</ele>
        <time>2020-07-15T05:29:16Z</time>
      </trkpt>
      <trkpt lat="41.679880" lon="-8.002880">
        <ele>704.098</ele>
        <time>2020-07-15T05:29:36Z</time>
      </trkpt>
      <trkpt lat="41.680020" lon="-8.003060">
        <ele>704.128</ele>
        <time>2020-07-15T05:29:56Z</time>
      </trkpt>
      <trkpt lat="41.680700" lon="-8.003610">
        <ele>703.449</ele>
        <time>2020-07-15T05:30:16Z</time>
      </trkpt>
      <trkpt lat="41.680890" lon="-8.003730">
        <ele>705.969</ele>
        <time>2020-07-15T05:30:36Z</time>
      </trkpt>
      <trkpt lat="41.681530" lon="-8.004060">
        <ele>693.004</ele>
        <time>2020-07-15T05:30:56Z</time>
      </trkpt>
      <trkpt lat="41.681690" lon="-8.004180">
        <ele>691.724</ele>
        <time>2020-07-15T05:31:16Z</time>
      </trkpt>
      <trkpt lat="41.681780" lon="-8.004290">
        <ele>691.608</ele>
        <time>2020-07-15T05:31:36Z</time>
      </trkpt>
      <trkpt lat="41.681870" lon="-8.004430">
        <ele>691.011</ele>
        <time>2020-07-15T05:31:56Z</time>
      </trkpt>
      <trkpt lat="41.682100" lon="-8.005020">
        <ele>685.988</ele>
        <time>2020-07-15T05:32:16Z</time>
      </trkpt>
      <trkpt lat="41.682220" lon="-8.005280">
        <ele>685.163</ele>
        <time>2020-07-15T05:32:36Z</time>
      </trkpt>
      <trkpt lat="41.682310" lon="-8.005420">
        <ele>684.821</ele>
        <time>2020-07-15T05:32:56Z</time>
      </trkpt>
      <trkpt lat="41.682480" lon="-8.005590">
        <ele>684.018</ele>
        <time>2020-07-15T05:33:16Z</time>
      </trkpt>
      <trkpt lat="41.682720" lon="-8.005770">
        <ele>684.548</ele>
        <time>2020-07-15T05:33:36Z</time>
      </trkpt>
      <trkpt lat="41.682890" lon="-8.005940">
        <ele>682.668</ele>
        <time>2020-07-15T05:33:56Z</time>
      </trkpt>
      <trkpt lat="41.683090" lon="-8.006250">
        <ele>681.689</ele>
        <time>2020-07-15T05:34:16Z</time>
      </trkpt>
      <trkpt lat="41.683290" lon="-8.006700">
        <ele>682.543</ele>
        <time>2020-07-15T05:34:36Z</time>
      </trkpt>
      <trkpt lat="41.683390" lon="-8.007080">
        <ele>682.464</ele>
        <time>2020-07-15T05:34:56Z</time>
      </trkpt>
      <trkpt lat="41.683420" lon="-8.008110">
        <ele>680.910</ele>
        <time>2020-07-15T05:35:16Z</time>
      </trkpt>
      <trkpt lat="41.683370" lon="-8.008470">
        <ele>676.908</ele>
        <time>2020-07-15T05:35:36Z</time>
      </trkpt>
      <trkpt lat="41.683260" lon="-8.008700">
        <ele>673.259</ele>
        <time>2020-07-15T05:35:56Z</time>
      </trkpt>
      <trkpt lat="41.683160" lon="-8.008810">
        <ele>672.516</ele>
        <time>2020-07-15T05:36:16Z</time>
      </trkpt>
      <trkpt lat="41.681630" lon="-8.009820">
        <ele>670.481</ele>
        <time>2020-07-15T05:36:36Z</time>
      </trkpt>
      <trkpt lat="41.681530" lon="-8.009930">
        <ele>669.579</ele>
        <time>2020-07-15T05:36:56Z</time>
      </trkpt>
      <trkpt lat="41.681440" lon="-8.010070">
        <ele>668.486</ele>
        <time>2020-07-15T05:37:16Z</time>
      </trkpt>
      <trkpt lat="41.681360" lon="-8.010370">
        <ele>671.556</ele>
        <time>2020-07-15T05:37:36Z</time>
      </trkpt>
      <trkpt lat="41.681370" lon="-8.010530">
        <ele>676.146</ele>
        <time>2020-07-15T05:37:56Z</time>
      </trkpt>
      <trkpt lat="41.681450" lon="-8.010730">
        <ele>679.227</ele>
        <time>2020-07-15T05:38:16Z</time>
      </trkpt>
      <trkpt lat="41.681840" lon="-8.011230">
        <ele>679.814</ele>
        <time>2020-07-15T05:38:36Z</time>
      </trkpt>
      <trkpt lat="41.682020" lon="-8.011590">
        <ele>682.354</ele>
        <time>2020-07-15T05:38:56Z</time>
      </trkpt>
      <trkpt lat="41.682130" lon="-8.011870">
        <ele>681.709</ele>
        <time>2020-07-15T05:39:16Z</time>
      </trkpt>
      <trkpt lat="41.682230" lon="-8.012240">
        <ele>679.908</ele>
        <time>2020-07-15T05:39:36Z</time>
      </trkpt>
      <trkpt lat="41.682310" lon="-8.012850">
        <ele>683.896</ele>
        <time>2020-07-15T05:39:56Z</time>
      </trkpt>
      <trkpt lat="41.682330" lon="-8.013590">
        <ele>684.283</ele>
        <time>2020-07-15T05:40:16Z</time>
      </trkpt>
      <trkpt lat="41.682300" lon="-8.014040">
        <ele>679.528</ele>
        <time>2020-07-15T05:40:36Z</time>
      </trkpt>
      <trkpt lat="41.682190" lon="-8.014520">
        <ele>676.026</ele>
        <time>2020-07-15T05:40:56Z</time>
      </trkpt>
      <trkpt lat="41.682100" lon="-8.014650">
        <ele>674.783</ele>
        <time>2020-07-15T05:41:16Z</time>
      </trkpt>
      <trkpt lat="41.681960" lon="-8.014740">
        <ele>671.513</ele>
        <time>2020-07-15T05:41:36Z</time>
      </trkpt>
      <trkpt lat="41.681840" lon="-8.014740">
        <ele>672.153</ele>
        <time>2020-07-15T05:41:56Z</time>
      </trkpt>
      <trkpt lat="41.681370" lon="-8.014560">
        <ele>681.684</ele>
        <time>2020-07-15T05:42:16Z</time>
      </trkpt>
      <trkpt lat="41.681170" lon="-8.014500">
        <ele>683.983</ele>
        <time>2020-07-15T05:42:36Z</time>
      </trkpt>
      <trkpt lat="41.680980" lon="-8.014530">
        <ele>684.025</ele>
        <time>2020-07-15T05:42:56Z</time>
      </trkpt>
      <trkpt lat="41.680810" lon="-8.014660">
        <ele>682.417</ele>
        <time>2020-07-15T05:43:16Z</time>
      </trkpt>
      <trkpt lat="41.680660" lon="-8.014900">
        <ele>681.608</ele>
        <time>2020-07-15T05:43:36Z</time>
      </trkpt>
      <trkpt lat="41.680280" lon="-8.015630">
        <ele>680.993</ele>
        <time>2020-07-15T05:43:56Z</time>
      </trkpt>
      <trkpt lat="41.680180" lon="-8.015880">
        <ele>683.510</ele>
        <time>2020-07-15T05:44:16Z</time>
      </trkpt>
      <trkpt lat="41.680120" lon="-8.016180">
        <ele>684.225</ele>
        <time>2020-07-15T05:44:36Z</time>
      </trkpt>
      <trkpt lat="41.680090" lon="-8.017470">
        <ele>684.813</ele>
        <time>2020-07-15T05:44:56Z</time>
      </trkpt>
      <trkpt lat="41.680020" lon="-8.017730">
        <ele>687.340</ele>
        <time>2020-07-15T05:45:16Z</time>
      </trkpt>
      <trkpt lat="41.679920" lon="-8.017880">
        <ele>686.660</ele>
        <time>2020-07-15T05:45:36Z</time>
      </trkpt>
      <trkpt lat="41.679540" lon="-8.018290">
        <ele>683.130</ele>
        <time>2020-07-15T05:45:56Z</time>
      </trkpt>
      <trkpt lat="41.679460" lon="-8.018400">
        <ele>683.241</ele>
        <time>2020-07-15T05:46:16Z</time>
      </trkpt>
      <trkpt lat="41.679380" lon="-8.018630">
        <ele>685.455</ele>
        <time>2020-07-15T05:46:36Z</time>
      </trkpt>
      <trkpt lat="41.679380" lon="-8.018930">
        <ele>685.007</ele>
        <time>2020-07-15T05:46:56Z</time>
      </trkpt>
      <trkpt lat="41.679440" lon="-8.019140">
        <ele>681.317</ele>
        <time>2020-07-15T05:47:16Z</time>
      </trkpt>
      <trkpt lat="41.679510" lon="-8.019270">
        <ele>680.808</ele>
        <time>2020-07-15T05:47:36Z</time>
      </trkpt>
      <trkpt lat="41.680140" lon="-8.019960">
        <ele>675.450</ele>
        <time>2020-07-15T05:47:56Z</time>
      </trkpt>
      <trkpt lat="41.680310" lon="-8.020310">
        <ele>672.867</ele>
        <time>2020-07-15T05:48:16Z</time>
      </trkpt>
      <trkpt lat="41.680340" lon="-8.020450">
        <ele>674.552</ele>
        <time>2020-07-15T05:48:36Z</time>
      </trkpt>
      <trkpt lat="41.680360" lon="-8.020780">
        <ele>677.550</ele>
        <time>2020-07-15T05:48:56Z</time>
      </trkpt>
      <trkpt lat="41.680250" lon="-8.021490">
        <ele>677.737</ele>
        <time>2020-07-15T05:49:16Z</time>
      </trkpt>
      <trkpt lat="41.680240" lon="-8.021770">
        <ele>678.247</ele>
        <time>2020-07-15T05:49:36Z</time>
      </trkpt>
      <trkpt lat="41.680260" lon="-8.021940">
        <ele>677.637</ele>
        <time>2020-07-15T05:49:56Z</time>
      </trkpt>
      <trkpt lat="41.680320" lon="-8.022090">
        <ele>678.058</ele>
        <time>2020-07-15T05:50:16Z</time>
      </trkpt>
      <trkpt lat="41.680810" lon="-8.023070">
        <ele>670.055</ele>
        <time>2020-07-15T05:50:36Z</time>
      </trkpt>
      <trkpt lat="41.680840" lon="-8.023310">
        <ele>670.707</ele>
        <time>2020-07-15T05:50:56Z</time>
      </trkpt>
      <trkpt lat="41.680810" lon="-8.023600">
        <ele>672.917</ele>
        <time>2020-07-15T05:51:16Z</time>
      </trkpt>
      <trkpt lat="41.680750" lon="-8.023900">
        <ele>671.408</ele>
        <time>2020-07-15T05:51:36Z</time>
      </trkpt>
      <trkpt lat="41.680720" lon="-8.024170">
        <ele>668.660</ele>
        <time>2020-07-15T05:51:56Z</time>
      </trkpt>
      <trkpt lat="41.680730" lon="-8.024440">
        <ele>669.997</ele>
        <time>2020-07-15T05:52:16Z</time>
      </trkpt>
      <trkpt lat="41.681020" lon="-8.025780">
        <ele>666.192</ele>
        <time>2020-07-15T05:52:36Z</time>
      </trkpt>
      <trkpt lat="41.681170" lon="-8.026650">
        <ele>663.710</ele>
        <time>2020-07-15T05:52:56Z</time>
      </trkpt>
      <trkpt lat="41.681210" lon="-8.026760">
        <ele>663.557</ele>
        <time>2020-07-15T05:53:16Z</time>
      </trkpt>
      <trkpt lat="41.681350" lon="-8.026950">
        <ele>662.187</ele>
        <time>2020-07-15T05:53:36Z</time>
      </trkpt>
      <trkpt lat="41.681460" lon="-8.027030">
        <ele>663.147</ele>
        <time>2020-07-15T05:53:56Z</time>
      </trkpt>
      <trkpt lat="41.681590" lon="-8.027080">
        <ele>664.818</ele>
        <time>2020-07-15T05:54:16Z</time>
      </trkpt>
      <trkpt lat="41.681780" lon="-8.027080">
        <ele>666.139</ele>
        <time>2020-07-15T05:54:36Z</time>
      </trkpt>
      <trkpt lat="41.681930" lon="-8.027000">
        <ele>665.401</ele>
        <time>2020-07-15T05:54:56Z</time>
      </trkpt>
      <trkpt lat="41.682870" lon="-8.026190">
        <ele>652.121</ele>
        <time>2020-07-15T05:55:16Z</time>
      </trkpt>
      <trkpt lat="41.683110" lon="-8.026030">
        <ele>652.008</ele>
        <time>2020-07-15T05:55:36Z</time>
      </trkpt>
      <trkpt lat="41.683200" lon="-8.026000">
        <ele>652.658</ele>
        <time>2020-07-15T05:55:56Z</time>
      </trkpt>
      <trkpt lat="41.683310" lon="-8.026000">
        <ele>654.115</ele>
        <time>2020-07-15T05:56:16Z</time>
      </trkpt>
      <trkpt lat="41.683460" lon="-8.026050">
        <ele>654.670</ele>
        <time>2020-07-15T05:56:36Z</time>
      </trkpt>
      <trkpt lat="41.683570" lon="-8.026150">
        <ele>654.168</ele>
        <time>2020-07-15T05:56:56Z</time>
      </trkpt>
      <trkpt lat="41.683660" lon="-8.026280">
        <ele>652.425</ele>
        <time>2020-07-15T05:57:16Z</time>
      </trkpt>
      <trkpt lat="41.683750" lon="-8.026520">
        <ele>650.555</ele>
        <time>2020-07-15T05:57:36Z</time>
      </trkpt>
      <trkpt lat="41.683840" lon="-8.027250">
        <ele>654.175</ele>
        <time>2020-07-15T05:57:56Z</time>
      </trkpt>
      <trkpt lat="41.683880" lon="-8.027480">
        <ele>653.276</ele>
        <time>2020-07-15T05:58:16Z</time>
      </trkpt>
      <trkpt lat="41.683940" lon="-8.027680">
        <ele>649.158</ele>
        <time>2020-07-15T05:58:36Z</time>
      </trkpt>
      <trkpt lat="41.684000" lon="-8.027820">
        <ele>647.352</ele>
        <time>2020-07-15T05:58:56Z</time>
      </trkpt>
      <trkpt lat="41.684620" lon="-8.028900">
        <ele>645.617</ele>
        <time>2020-07-15T05:59:16Z</time>
      </trkpt>
      <trkpt lat="41.684700" lon="-8.029110">
        <ele>645.008</ele>
        <time>2020-07-15T05:59:36Z</time>
      </trkpt>
      <trkpt lat="41.684760" lon="-8.029470">
        <ele>643.260</ele>
        <time>2020-07-15T05:59:56Z</time>
      </trkpt>
      <trkpt lat="41.684770" lon="-8.029710">
        <ele>640.327</ele>
        <time>2020-07-15T06:00:16Z</time>
      </trkpt>
      <trkpt lat="41.684720" lon="-8.030020">
        <ele>640.212</ele>
        <time>2020-07-15T06:00:36Z</time>
      </trkpt>
      <trkpt lat="41.684660" lon="-8.030210">
        <ele>642.370</ele>
        <time>2020-07-15T06:00:56Z</time>
      </trkpt>
      <trkpt lat="41.684570" lon="-8.030390">
        <ele>643.667</ele>
        <time>2020-07-15T06:01:16Z</time>
      </trkpt>
      <trkpt lat="41.684360" lon="-8.030910">
        <ele>640.967</ele>
        <time>2020-07-15T06:01:36Z</time>
      </trkpt>
      <trkpt lat="41.684270" lon="-8.031240">
        <ele>638.117</ele>
        <time>2020-07-15T06:01:56Z</time>
      </trkpt>
      <trkpt lat="41.684260" lon="-8.031420">
        <ele>638.148</ele>
        <time>2020-07-15T06:02:16Z</time>
      </trkpt>
      <trkpt lat="41.684350" lon="-8.034220">
        <ele>630.828</ele>
        <time>2020-07-15T06:02:36Z</time>
      </trkpt>
      <trkpt lat="41.684380" lon="-8.034410">
        <ele>631.189</ele>
        <time>2020-07-15T06:02:56Z</time>
      </trkpt>
      <trkpt lat="41.684440" lon="-8.034580">
        <ele>630.617</ele>
        <time>2020-07-15T06:03:16Z</time>
      </trkpt>
      <trkpt lat="41.684500" lon="-8.034680">
        <ele>629.808</ele>
        <time>2020-07-15T06:03:36Z</time>
      </trkpt>
      <trkpt lat="41.684640" lon="-8.034830">
        <ele>628.767</ele>
        <time>2020-07-15T06:03:56Z</time>
      </trkpt>
      <trkpt lat="41.684870" lon="-8.034940">
        <ele>626.874</ele>
        <time>2020-07-15T06:04:16Z</time>
      </trkpt>
      <trkpt lat="41.685260" lon="-8.035070">
        <ele>625.659</ele>
        <time>2020-07-15T06:04:36Z</time>
      </trkpt>
      <trkpt lat="41.685440" lon="-8.035100">
        <ele>627.527</ele>
        <time>2020-07-15T06:04:56Z</time>
      </trkpt>
      <trkpt lat="41.685680" lon="-8.035030">
        <ele>629.124</ele>
        <time>2020-07-15T06:05:16Z</time>
      </trkpt>
      <trkpt lat="41.686170" lon="-8.034560">
        <ele>621.844</ele>
        <time>2020-07-15T06:05:36Z</time>
      </trkpt>
      <trkpt lat="41.686270" lon="-8.034490">
        <ele>620.164</ele>
        <time>2020-07-15T06:05:56Z</time>
      </trkpt>
      <trkpt lat="41.686380" lon="-8.034440">
        <ele>618.985</ele>
        <time>2020-07-15T06:06:16Z</time>
      </trkpt>
      <trkpt lat="41.686580" lon="-8.034400">
        <ele>618.516</ele>
        <time>2020-07-15T06:06:36Z</time>
      </trkpt>
      <trkpt lat="41.686820" lon="-8.034440">
        <ele>617.376</ele>
        <time>2020-07-15T06:06:56Z</time>
      </trkpt>
      <trkpt lat="41.686980" lon="-8.034540">
        <ele>616.313</ele>
        <time>2020-07-15T06:07:16Z</time>
      </trkpt>
      <trkpt lat="41.687100" lon="-8.034650">
        <ele>615.008</ele>
        <time>2020-07-15T06:07:36Z</time>
      </trkpt>
      <trkpt lat="41.687200" lon="-8.034800">
        <ele>614.016</ele>
        <time>2020-07-15T06:07:56Z</time>
      </trkpt>
      <trkpt lat="41.687280" lon="-8.035050">
        <ele>613.843</ele>
        <time>2020-07-15T06:08:16Z</time>
      </trkpt>
      <trkpt lat="41.687520" lon="-8.036270">
        <ele>612.268</ele>
        <time>2020-07-15T06:08:36Z</time>
      </trkpt>
      <trkpt lat="41.687610" lon="-8.036890">
        <ele>612.756</ele>
        <time>2020-07-15T06:08:56Z</time>
      </trkpt>
      <trkpt lat="41.687590" lon="-8.037210">
        <ele>610.243</ele>
        <time>2020-07-15T06:09:16Z</time>
      </trkpt>
      <trkpt lat="41.687550" lon="-8.037390">
        <ele>607.173</ele>
        <time>2020-07-15T06:09:36Z</time>
      </trkpt>
      <trkpt lat="41.687460" lon="-8.037630">
        <ele>604.263</ele>
        <time>2020-07-15T06:09:56Z</time>
      </trkpt>
      <trkpt lat="41.687290" lon="-8.037910">
        <ele>603.774</ele>
        <time>2020-07-15T06:10:16Z</time>
      </trkpt>
      <trkpt lat="41.686430" lon="-8.038860">
        <ele>604.442</ele>
        <time>2020-07-15T06:10:36Z</time>
      </trkpt>
      <trkpt lat="41.686200" lon="-8.039150">
        <ele>603.322</ele>
        <time>2020-07-15T06:10:56Z</time>
      </trkpt>
      <trkpt lat="41.686070" lon="-8.039430">
        <ele>600.114</ele>
        <time>2020-07-15T06:11:16Z</time>
      </trkpt>
      <trkpt lat="41.685860" lon="-8.040620">
        <ele>595.808</ele>
        <time>2020-07-15T06:11:36Z</time>
      </trkpt>
      <trkpt lat="41.685810" lon="-8.040750">
        <ele>595.869</ele>
        <time>2020-07-15T06:11:56Z</time>
      </trkpt>
      <trkpt lat="41.685720" lon="-8.040900">
        <ele>595.186</ele>
        <time>2020-07-15T06:12:16Z</time>
      </trkpt>
      <trkpt lat="41.685600" lon="-8.041020">
        <ele>594.741</ele>
        <time>2020-07-15T06:12:36Z</time>
      </trkpt>
      <trkpt lat="41.685060" lon="-8.041340">
        <ele>594.449</ele>
        <time>2020-07-15T06:12:56Z</time>
      </trkpt>
      <trkpt lat="41.684900" lon="-8.041480">
        <ele>593.846</ele>
        <time>2020-07-15T06:13:16Z</time>
      </trkpt>
      <trkpt lat="41.684760" lon="-8.041690">
        <ele>592.166</ele>
        <time>2020-07-15T06:13:36Z</time>
      </trkpt>
      <trkpt lat="41.684700" lon="-8.041910">
        <ele>589.886</ele>
        <time>2020-07-15T06:13:56Z</time>
      </trkpt>
      <trkpt lat="41.684690" lon="-8.042080">
        <ele>588.467</ele>
        <time>2020-07-15T06:14:16Z</time>
      </trkpt>
      <trkpt lat="41.684760" lon="-8.043040">
        <ele>588.349</ele>
        <time>2020-07-15T06:14:36Z</time>
      </trkpt>
      <trkpt lat="41.684760" lon="-8.043640">
        <ele>585.302</ele>
        <time>2020-07-15T06:14:56Z</time>
      </trkpt>
      <trkpt lat="41.684720" lon="-8.044410">
        <ele>579.322</ele>
        <time>2020-07-15T06:15:16Z</time>
      </trkpt>
      <trkpt lat="41.684690" lon="-8.044690">
        <ele>579.608</ele>
        <time>2020-07-15T06:15:36Z</time>
      </trkpt>
      <trkpt lat="41.684490" lon="-8.045440">
        <ele>582.169</ele>
        <time>2020-07-15T06:15:56Z</time>
      </trkpt>
      <trkpt lat="41.684460" lon="-8.045710">
        <ele>580.476</ele>
        <time>2020-07-15T06:16:16Z</time>
      </trkpt>
      <trkpt lat="41.684430" lon="-8.046390">
        <ele>578.311</ele>
        <time>2020-07-15T06:16:36Z</time>
      </trkpt>
      <trkpt lat="41.684330" lon="-8.046770">
        <ele>579.549</ele>
        <time>2020-07-15T06:16:56Z</time>
      </trkpt>
      <trkpt lat="41.684380" lon="-8.046850">
        <ele>578.816</ele>
        <time>2020-07-15T06:17:16Z</time>
      </trkpt>
      <trkpt lat="41.684410" lon="-8.047040">
        <ele>578.926</ele>
        <time>2020-07-15T06:17:36Z</time>
      </trkpt>
      <trkpt lat="41.684480" lon="-8.047190">
        <ele>579.636</ele>
        <time>2020-07-15T06:17:56Z</time>
      </trkpt>
      <trkpt lat="41.684600" lon="-8.047300">
        <ele>580.327</ele>
        <time>2020-07-15T06:18:16Z</time>
      </trkpt>
      <trkpt lat="41.684670" lon="-8.047330">
        <ele>580.482</ele>
        <time>2020-07-15T06:18:36Z</time>
      </trkpt>
      <trkpt lat="41.684740" lon="-8.047330">
        <ele>580.143</ele>
        <time>2020-07-15T06:18:56Z</time>
      </trkpt>
      <trkpt lat="41.684810" lon="-8.047300">
        <ele>579.317</ele>
        <time>2020-07-15T06:19:16Z</time>
      </trkpt>
      <trkpt lat="41.684860" lon="-8.047250">
        <ele>578.408</ele>
        <time>2020-07-15T06:19:36Z</time>
      </trkpt>
      <trkpt lat="41.684910" lon="-8.047120">
        <ele>576.513</ele>
        <time>2020-07-15T06:19:56Z</time>
      </trkpt>
      <trkpt lat="41.684860" lon="-8.046790">
        <ele>572.230</ele>
        <time>2020-07-15T06:20:16Z</time>
      </trkpt>
      <trkpt lat="41.684760" lon="-8.046330">
        <ele>570.825</ele>
        <time>2020-07-15T06:20:36Z</time>
      </trkpt>
      <trkpt lat="41.684770" lon="-8.046010">
        <ele>569.723</ele>
        <time>2020-07-15T06:20:56Z</time>
      </trkpt>
      <trkpt lat="41.684820" lon="-8.045800">
        <ele>567.350</ele>
        <time>2020-07-15T06:21:16Z</time>
      </trkpt>
      <trkpt lat="41.684910" lon="-8.045570">
        <ele>564.870</ele>
        <time>2020-07-15T06:21:36Z</time>
      </trkpt>
      <trkpt lat="41.685150" lon="-8.045090">
        <ele>559.710</ele>
        <time>2020-07-15T06:21:56Z</time>
      </trkpt>
      <trkpt lat="41.685240" lon="-8.044950">
        <ele>558.991</ele>
        <time>2020-07-15T06:22:16Z</time>
      </trkpt>
      <trkpt lat="41.685310" lon="-8.044890">
        <ele>558.739</ele>
        <time>2020-07-15T06:22:36Z</time>
      </trkpt>
      <trkpt lat="41.685380" lon="-8.044870">
        <ele>558.401</ele>
        <time>2020-07-15T06:22:56Z</time>
      </trkpt>
      <trkpt lat="41.685630" lon="-8.044980">
        <ele>553.321</ele>
        <time>2020-07-15T06:23:16Z</time>
      </trkpt>
      <trkpt lat="41.685750" lon="-8.045010">
        <ele>552.108</ele>
        <time>2020-07-15T06:23:36Z</time>
      </trkpt>
      <trkpt lat="41.685830" lon="-8.044990">
        <ele>552.268</ele>
        <time>2020-07-15T06:23:56Z</time>
      </trkpt>
      <trkpt lat="41.686090" lon="-8.044840">
        <ele>550.445</ele>
        <time>2020-07-15T06:24:16Z</time>
      </trkpt>
      <trkpt lat="41.686330" lon="-8.044770">
        <ele>545.640</ele>
        <time>2020-07-15T06:24:36Z</time>
      </trkpt>
      <trkpt lat="41.686650" lon="-8.044620">
        <ele>540.118</ele>
        <time>2020-07-15T06:24:56Z</time>
      </trkpt>
      <trkpt lat="41.687340" lon="-8.044340">
        <ele>529.995</ele>
        <time>2020-07-15T06:25:16Z</time>
      </trkpt>
      <trkpt lat="41.687500" lon="-8.044290">
        <ele>528.785</ele>
        <time>2020-07-15T06:25:36Z</time>
      </trkpt>
      <trkpt lat="41.687630" lon="-8.044310">
        <ele>527.575</ele>
        <time>2020-07-15T06:25:56Z</time>
      </trkpt>
      <trkpt lat="41.687970" lon="-8.044460">
        <ele>519.576</ele>
        <time>2020-07-15T06:26:16Z</time>
      </trkpt>
      <trkpt lat="41.688080" lon="-8.044470">
        <ele>516.812</ele>
        <time>2020-07-15T06:26:36Z</time>
      </trkpt>
      <trkpt lat="41.688180" lon="-8.044450">
        <ele>514.732</ele>
        <time>2020-07-15T06:26:56Z</time>
      </trkpt>
      <trkpt lat="41.688270" lon="-8.044400">
        <ele>513.705</ele>
        <time>2020-07-15T06:27:16Z</time>
      </trkpt>
      <trkpt lat="41.688560" lon="-8.044170">
        <ele>510.608</ele>
        <time>2020-07-15T06:27:36Z</time>
      </trkpt>
      <trkpt lat="41.688610" lon="-8.044100">
        <ele>509.556</ele>
        <time>2020-07-15T06:27:56Z</time>
      </trkpt>
      <trkpt lat="41.688650" lon="-8.043970">
        <ele>508.993</ele>
        <time>2020-07-15T06:28:16Z</time>
      </trkpt>
      <trkpt lat="41.688620" lon="-8.043210">
        <ele>510.668</ele>
        <time>2020-07-15T06:28:36Z</time>
      </trkpt>
      <trkpt lat="41.688650" lon="-8.043110">
        <ele>510.276</ele>
        <time>2020-07-15T06:28:56Z</time>
      </trkpt>
      <trkpt lat="41.688710" lon="-8.043060">
        <ele>508.453</ele>
        <time>2020-07-15T06:29:16Z</time>
      </trkpt>
      <trkpt lat="41.688780" lon="-8.043050">
        <ele>506.163</ele>
        <time>2020-07-15T06:29:36Z</time>
      </trkpt>
      <trkpt lat="41.688860" lon="-8.043090">
        <ele>502.853</ele>
        <time>2020-07-15T06:29:56Z</time>
      </trkpt>
      <trkpt lat="41.688950" lon="-8.043200">
        <ele>501.334</ele>
        <time>2020-07-15T06:30:16Z</time>
      </trkpt>
      <trkpt lat="41.689100" lon="-8.043520">
        <ele>497.825</ele>
        <time>2020-07-15T06:30:36Z</time>
      </trkpt>
      <trkpt lat="41.689230" lon="-8.043610">
        <ele>496.926</ele>
        <time>2020-07-15T06:30:56Z</time>
      </trkpt>
      <trkpt lat="41.689510" lon="-8.043710">
        <ele>495.608</ele>
        <time>2020-07-15T06:31:16Z</time>
      </trkpt>
      <trkpt lat="41.689940" lon="-8.043920">
        <ele>482.708</ele>
        <time>2020-07-15T06:31:36Z</time>
      </trkpt>
      <trkpt lat="41.690240" lon="-8.043970">
        <ele>476.247</ele>
        <time>2020-07-15T06:31:56Z</time>
      </trkpt>
      <trkpt lat="41.690380" lon="-8.043930">
        <ele>473.754</ele>
        <time>2020-07-15T06:32:16Z</time>
      </trkpt>
      <trkpt lat="41.691100" lon="-8.043030">
        <ele>475.389</ele>
        <time>2020-07-15T06:32:36Z</time>
      </trkpt>
      <trkpt lat="41.691580" lon="-8.042310">
        <ele>466.937</ele>
        <time>2020-07-15T06:32:56Z</time>
      </trkpt>
      <trkpt lat="41.691690" lon="-8.042110">
        <ele>465.554</ele>
        <time>2020-07-15T06:33:16Z</time>
      </trkpt>
      <trkpt lat="41.691830" lon="-8.041700">
        <ele>465.844</ele>
        <time>2020-07-15T06:33:36Z</time>
      </trkpt>
      <trkpt lat="41.691860" lon="-8.041470">
        <ele>467.984</ele>
        <time>2020-07-15T06:33:56Z</time>
      </trkpt>
      <trkpt lat="41.691860" lon="-8.041200">
        <ele>472.455</ele>
        <time>2020-07-15T06:34:16Z</time>
      </trkpt>
      <trkpt lat="41.691880" lon="-8.040960">
        <ele>473.519</ele>
        <time>2020-07-15T06:34:36Z</time>
      </trkpt>
      <trkpt lat="41.692120" lon="-8.039780">
        <ele>475.709</ele>
        <time>2020-07-15T06:34:56Z</time>
      </trkpt>
      <trkpt lat="41.692180" lon="-8.039600">
        <ele>476.219</ele>
        <time>2020-07-15T06:35:16Z</time>
      </trkpt>
      <trkpt lat="41.692270" lon="-8.039480">
        <ele>474.808</ele>
        <time>2020-07-15T06:35:36Z</time>
      </trkpt>
      <trkpt lat="41.692400" lon="-8.039370">
        <ele>472.966</ele>
        <time>2020-07-15T06:35:56Z</time>
      </trkpt>
      <trkpt lat="41.692570" lon="-8.039280">
        <ele>470.723</ele>
        <time>2020-07-15T06:36:16Z</time>
      </trkpt>
      <trkpt lat="41.692800" lon="-8.039250">
        <ele>468.458</ele>
        <time>2020-07-15T06:36:36Z</time>
      </trkpt>
      <trkpt lat="41.693000" lon="-8.039180">
        <ele>465.246</ele>
        <time>2020-07-15T06:36:56Z</time>
      </trkpt>
      <trkpt lat="41.693160" lon="-8.039060">
        <ele>461.873</ele>
        <time>2020-07-15T06:37:16Z</time>
      </trkpt>
      <trkpt lat="41.693270" lon="-8.038950">
        <ele>459.443</ele>
        <time>2020-07-15T06:37:36Z</time>
      </trkpt>
      <trkpt lat="41.693490" lon="-8.038600">
        <ele>460.253</ele>
        <time>2020-07-15T06:37:56Z</time>
      </trkpt>
      <trkpt lat="41.693690" lon="-8.038140">
        <ele>454.044</ele>
        <time>2020-07-15T06:38:16Z</time>
      </trkpt>
      <trkpt lat="41.693730" lon="-8.037890">
        <ele>447.472</ele>
        <time>2020-07-15T06:38:36Z</time>
      </trkpt>
      <trkpt lat="41.693730" lon="-8.037760">
        <ele>444.313</ele>
        <time>2020-07-15T06:38:56Z</time>
      </trkpt>
      <trkpt lat="41.693700" lon="-8.037650">
        <ele>442.414</ele>
        <time>2020-07-15T06:39:16Z</time>
      </trkpt>
      <trkpt lat="41.693600" lon="-8.037460">
        <ele>440.508</ele>
        <time>2020-07-15T06:39:36Z</time>
      </trkpt>
      <trkpt lat="41.693450" lon="-8.037080">
        <ele>439.532</ele>
        <time>2020-07-15T06:39:56Z</time>
      </trkpt>
      <trkpt lat="41.693390" lon="-8.036850">
        <ele>440.889</ele>
        <time>2020-07-15T06:40:16Z</time>
      </trkpt>
      <trkpt lat="41.693400" lon="-8.036650">
        <ele>441.154</ele>
        <time>2020-07-15T06:40:36Z</time>
      </trkpt>
      <trkpt lat="41.693450" lon="-8.036520">
        <ele>439.162</ele>
        <time>2020-07-15T06:40:56Z</time>
      </trkpt>
      <trkpt lat="41.693640" lon="-8.036260">
        <ele>431.629</ele>
        <time>2020-07-15T06:41:16Z</time>
      </trkpt>
      <trkpt lat="41.693860" lon="-8.035830">
        <ele>426.639</ele>
        <time>2020-07-15T06:41:36Z</time>
      </trkpt>
      <trkpt lat="41.693970" lon="-8.035470">
        <ele>424.769</ele>
        <time>2020-07-15T06:41:56Z</time>
      </trkpt>
      <trkpt lat="41.693980" lon="-8.035200">
        <ele>428.030</ele>
        <time>2020-07-15T06:42:16Z</time>
      </trkpt>
      <trkpt lat="41.694010" lon="-8.035020">
        <ele>429.253</ele>
        <time>2020-07-15T06:42:36Z</time>
      </trkpt>
      <trkpt lat="41.694050" lon="-8.034950">
        <ele>429.104</ele>
        <time>2020-07-15T06:42:56Z</time>
      </trkpt>
      <trkpt lat="41.694230" lon="-8.034890">
        <ele>424.414</ele>
        <time>2020-07-15T06:43:16Z</time>
      </trkpt>
      <trkpt lat="41.694560" lon="-8.034820">
        <ele>414.908</ele>
        <time>2020-07-15T06:43:36Z</time>
      </trkpt>
      <trkpt lat="41.694690" lon="-8.034670">
        <ele>413.370</ele>
        <time>2020-07-15T06:43:56Z</time>
      </trkpt>
      <trkpt lat="41.694760" lon="-8.034530">
        <ele>412.177</ele>
        <time>2020-07-15T06:44:16Z</time>
      </trkpt>
      <trkpt lat="41.694800" lon="-8.034360">
        <ele>410.822</ele>
        <time>2020-07-15T06:44:36Z</time>
      </trkpt>
      <trkpt lat="41.694820" lon="-8.034110">
        <ele>408.540</ele>
        <time>2020-07-15T06:44:56Z</time>
      </trkpt>
      <trkpt lat="41.694790" lon="-8.034000">
        <ele>408.317</ele>
        <time>2020-07-15T06:45:16Z</time>
      </trkpt>
      <trkpt lat="41.694700" lon="-8.033800">
        <ele>409.157</ele>
        <time>2020-07-15T06:45:36Z</time>
      </trkpt>
      <trkpt lat="41.694400" lon="-8.033450">
        <ele>424.947</ele>
        <time>2020-07-15T06:45:56Z</time>
      </trkpt>
      <trkpt lat="41.694320" lon="-8.033310">
        <ele>427.628</ele>
        <time>2020-07-15T06:46:16Z</time>
      </trkpt>
      <trkpt lat="41.694300" lon="-8.033240">
        <ele>427.926</ele>
        <time>2020-07-15T06:46:36Z</time>
      </trkpt>
      <trkpt lat="41.694290" lon="-8.033090">
        <ele>427.047</ele>
        <time>2020-07-15T06:46:56Z</time>
      </trkpt>
      <trkpt lat="41.694400" lon="-8.032450">
        <ele>417.211</ele>
        <time>2020-07-15T06:47:16Z</time>
      </trkpt>
      <trkpt lat="41.694390" lon="-8.032310">
        <ele>416.108</ele>
        <time>2020-07-15T06:47:36Z</time>
      </trkpt>
      <trkpt lat="41.694270" lon="-8.031760">
        <ele>418.967</ele>
        <time>2020-07-15T06:47:56Z</time>
      </trkpt>
      <trkpt lat="41.694330" lon="-8.030940">
        <ele>409.994</ele>
        <time>2020-07-15T06:48:16Z</time>
      </trkpt>
      <trkpt lat="41.694330" lon="-8.030670">
        <ele>404.819</ele>
        <time>2020-07-15T06:48:36Z</time>
      </trkpt>
      <trkpt lat="41.694300" lon="-8.030150">
        <ele>395.757</ele>
        <time>2020-07-15T06:48:56Z</time>
      </trkpt>
      <trkpt lat="41.694260" lon="-8.029990">
        <ele>393.344</ele>
        <time>2020-07-15T06:49:16Z</time>
      </trkpt>
      <trkpt lat="41.693960" lon="-8.029550">
        <ele>394.844</ele>
        <time>2020-07-15T06:49:36Z</time>
      </trkpt>
      <trkpt lat="41.693700" lon="-8.029120">
        <ele>387.414</ele>
        <time>2020-07-15T06:49:56Z</time>
      </trkpt>
      <trkpt lat="41.693560" lon="-8.028830">
        <ele>380.825</ele>
        <time>2020-07-15T06:50:16Z</time>
      </trkpt>
      <trkpt lat="41.693460" lon="-8.028510">
        <ele>376.543</ele>
        <time>2020-07-15T06:50:36Z</time>
      </trkpt>
      <trkpt lat="41.693460" lon="-8.028080">
        <ele>373.364</ele>
        <time>2020-07-15T06:50:56Z</time>
      </trkpt>
      <trkpt lat="41.693500" lon="-8.027920">
        <ele>372.610</ele>
        <time>2020-07-15T06:51:16Z</time>
      </trkpt>
      <trkpt lat="41.693560" lon="-8.027790">
        <ele>371.708</ele>
        <time>2020-07-15T06:51:36Z</time>
      </trkpt>
      <trkpt lat="41.693710" lon="-8.027570">
        <ele>370.699</ele>
        <time>2020-07-15T06:51:56Z</time>
      </trkpt>
      <trkpt lat="41.693850" lon="-8.027460">
        <ele>367.756</ele>
        <time>2020-07-15T06:52:16Z</time>
      </trkpt>
      <trkpt lat="41.694300" lon="-8.027450">
        <ele>356.361</ele>
        <time>2020-07-15T06:52:36Z</time>
      </trkpt>
      <trkpt lat="41.694370" lon="-8.027420">
        <ele>353.969</ele>
        <time>2020-07-15T06:52:56Z</time>
      </trkpt>
      <trkpt lat="41.694550" lon="-8.027200">
        <ele>349.176</ele>
        <time>2020-07-15T06:53:16Z</time>
      </trkpt>
      <trkpt lat="41.694770" lon="-8.026750">
        <ele>345.246</ele>
        <time>2020-07-15T06:53:36Z</time>
      </trkpt>
      <trkpt lat="41.694850" lon="-8.026640">
        <ele>343.056</ele>
        <time>2020-07-15T06:53:56Z</time>
      </trkpt>
      <trkpt lat="41.694950" lon="-8.026550">
        <ele>339.497</ele>
        <time>2020-07-15T06:54:16Z</time>
      </trkpt>
      <trkpt lat="41.695080" lon="-8.026470">
        <ele>335.352</ele>
        <time>2020-07-15T06:54:36Z</time>
      </trkpt>
      <trkpt lat="41.695190" lon="-8.026450">
        <ele>332.253</ele>
        <time>2020-07-15T06:54:56Z</time>
      </trkpt>
      <trkpt lat="41.695260" lon="-8.026470">
        <ele>329.908</ele>
        <time>2020-07-15T06:55:16Z</time>
      </trkpt>
      <trkpt lat="41.695670" lon="-8.026680">
        <ele>320.608</ele>
        <time>2020-07-15T06:55:36Z</time>
      </trkpt>
      <trkpt lat="41.695810" lon="-8.026670">
        <ele>318.310</ele>
        <time>2020-07-15T06:55:56Z</time>
      </trkpt>
      <trkpt lat="41.695890" lon="-8.026640">
        <ele>317.497</ele>
        <time>2020-07-15T06:56:16Z</time>
      </trkpt>
      <trkpt lat="41.695950" lon="-8.026550">
        <ele>317.812</ele>
        <time>2020-07-15T06:56:36Z</time>
      </trkpt>
      <trkpt lat="41.696000" lon="-8.026400">
        <ele>319.260</ele>
        <time>2020-07-15T06:56:56Z</time>
      </trkpt>
      <trkpt lat="41.696000" lon="-8.026280">
        <ele>319.567</ele>
        <time>2020-07-15T06:57:16Z</time>
      </trkpt>
      <trkpt lat="41.695990" lon="-8.026190">
        <ele>319.837</ele>
        <time>2020-07-15T06:57:36Z</time>
      </trkpt>
      <trkpt lat="41.695830" lon="-8.025730">
        <ele>316.487</ele>
        <time>2020-07-15T06:57:56Z</time>
      </trkpt>
      <trkpt lat="41.695820" lon="-8.025620">
        <ele>316.088</ele>
        <time>2020-07-15T06:58:16Z</time>
      </trkpt>
      <trkpt lat="41.695880" lon="-8.025450">
        <ele>314.462</ele>
        <time>2020-07-15T06:58:36Z</time>
      </trkpt>
      <trkpt lat="41.696050" lon="-8.025230">
        <ele>311.283</ele>
        <time>2020-07-15T06:58:56Z</time>
      </trkpt>
      <trkpt lat="41.696310" lon="-8.024990">
        <ele>303.811</ele>
        <time>2020-07-15T06:59:16Z</time>
      </trkpt>
      <trkpt lat="41.696390" lon="-8.024940">
        <ele>300.508</ele>
        <time>2020-07-15T06:59:36Z</time>
      </trkpt>
      <trkpt lat="41.696530" lon="-8.024900">
        <ele>297.751</ele>
        <time>2020-07-15T06:59:56Z</time>
      </trkpt>
      <trkpt lat="41.698570" lon="-8.024670">
        <ele>274.798</ele>
        <time>2020-07-15T07:00:16Z</time>
      </trkpt>
      <trkpt lat="41.698790" lon="-8.024650">
        <ele>281.163</ele>
        <time>2020-07-15T07:00:36Z</time>
      </trkpt>
      <trkpt lat="41.698860" lon="-8.024660">
        <ele>283.241</ele>
        <time>2020-07-15T07:00:56Z</time>
      </trkpt>
      <trkpt lat="41.698960" lon="-8.024720">
        <ele>285.958</ele>
        <time>2020-07-15T07:01:16Z</time>
      </trkpt>
      <trkpt lat="41.699070" lon="-8.024830">
        <ele>289.078</ele>
        <time>2020-07-15T07:01:36Z</time>
      </trkpt>
      <trkpt lat="41.699190" lon="-8.025070">
        <ele>292.688</ele>
        <time>2020-07-15T07:01:56Z</time>
      </trkpt>
      <trkpt lat="41.699200" lon="-8.025180">
        <ele>292.729</ele>
        <time>2020-07-15T07:02:16Z</time>
      </trkpt>
      <trkpt lat="41.699150" lon="-8.026680">
        <ele>305.595</ele>
        <time>2020-07-15T07:02:36Z</time>
      </trkpt>
      <trkpt lat="41.699090" lon="-8.028020">
        <ele>308.749</ele>
        <time>2020-07-15T07:02:56Z</time>
      </trkpt>
      <trkpt lat="41.699110" lon="-8.028120">
        <ele>309.323</ele>
        <time>2020-07-15T07:03:16Z</time>
      </trkpt>
      <trkpt lat="41.699160" lon="-8.028190">
        <ele>310.408</ele>
        <time>2020-07-15T07:03:36Z</time>
      </trkpt>
      <trkpt lat="41.699290" lon="-8.028220">
        <ele>313.124</ele>
        <time>2020-07-15T07:03:56Z</time>
      </trkpt>
      <trkpt lat="41.699350" lon="-8.028330">
        <ele>314.091</ele>
        <time>2020-07-15T07:04:16Z</time>
      </trkpt>
      <trkpt lat="41.699410" lon="-8.028540">
        <ele>315.646</ele>
        <time>2020-07-15T07:04:36Z</time>
      </trkpt>
      <trkpt lat="41.699400" lon="-8.028680">
        <ele>315.614</ele>
        <time>2020-07-15T07:04:56Z</time>
      </trkpt>
      <trkpt lat="41.699340" lon="-8.028990">
        <ele>314.581</ele>
        <time>2020-07-15T07:05:16Z</time>
      </trkpt>
      <trkpt lat="41.699220" lon="-8.029460">
        <ele>310.511</ele>
        <time>2020-07-15T07:05:36Z</time>
      </trkpt>
      <trkpt lat="41.699190" lon="-8.029770">
        <ele>308.251</ele>
        <time>2020-07-15T07:05:56Z</time>
      </trkpt>
      <trkpt lat="41.699210" lon="-8.029870">
        <ele>307.312</ele>
        <time>2020-07-15T07:06:16Z</time>
      </trkpt>
      <trkpt lat="41.699280" lon="-8.030120">
        <ele>305.688</ele>
        <time>2020-07-15T07:06:36Z</time>
      </trkpt>
      <trkpt lat="41.699630" lon="-8.030830">
        <ele>306.124</ele>
        <time>2020-07-15T07:06:56Z</time>
      </trkpt>
      <trkpt lat="41.700000" lon="-8.031650">
        <ele>302.426</ele>
        <time>2020-07-15T07:07:16Z</time>
      </trkpt>
      <trkpt lat="41.700850" lon="-8.033680">
        <ele>291.808</ele>
        <time>2020-07-15T07:07:36Z</time>
      </trkpt>
      <trkpt lat="41.701020" lon="-8.034120">
        <ele>298.183</ele>
        <time>2020-07-15T07:07:56Z</time>
      </trkpt>
      <trkpt lat="41.701080" lon="-8.034220">
        <ele>298.220</ele>
        <time>2020-07-15T07:08:16Z</time>
      </trkpt>
      <trkpt lat="41.701210" lon="-8.034330">
        <ele>297.425</ele>
        <time>2020-07-15T07:08:36Z</time>
      </trkpt>
      <trkpt lat="41.701380" lon="-8.034360">
        <ele>298.013</ele>
        <time>2020-07-15T07:08:56Z</time>
      </trkpt>
      <trkpt lat="41.701530" lon="-8.034350">
        <ele>298.790</ele>
        <time>2020-07-15T07:09:16Z</time>
      </trkpt>
      <trkpt lat="41.702000" lon="-8.034160">
        <ele>306.610</ele>
        <time>2020-07-15T07:09:36Z</time>
      </trkpt>
      <trkpt lat="41.702160" lon="-8.034110">
        <ele>306.110</ele>
        <time>2020-07-15T07:09:56Z</time>
      </trkpt>
      <trkpt lat="41.702330" lon="-8.034110">
        <ele>305.211</ele>
        <time>2020-07-15T07:10:16Z</time>
      </trkpt>
      <trkpt lat="41.702510" lon="-8.034150">
        <ele>303.622</ele>
        <time>2020-07-15T07:10:36Z</time>
      </trkpt>
      <trkpt lat="41.703040" lon="-8.034410">
        <ele>301.662</ele>
        <time>2020-07-15T07:10:56Z</time>
      </trkpt>
      <trkpt lat="41.703170" lon="-8.034430">
        <ele>300.508</ele>
        <time>2020-07-15T07:11:16Z</time>
      </trkpt>
      <trkpt lat="41.703320" lon="-8.034400">
        <ele>300.208</ele>
        <time>2020-07-15T07:11:36Z</time>
      </trkpt>
      <trkpt lat="41.703710" lon="-8.034100">
        <ele>302.457</ele>
        <time>2020-07-15T07:11:56Z</time>
      </trkpt>
      <trkpt lat="41.703770" lon="-8.034090">
        <ele>301.454</ele>
        <time>2020-07-15T07:12:16Z</time>
      </trkpt>
      <trkpt lat="41.704090" lon="-8.034130">
        <ele>293.079</ele>
        <time>2020-07-15T07:12:36Z</time>
      </trkpt>
      <trkpt lat="41.704220" lon="-8.034110">
        <ele>291.167</ele>
        <time>2020-07-15T07:12:56Z</time>
      </trkpt>
      <trkpt lat="41.704550" lon="-8.033920">
        <ele>293.514</ele>
        <time>2020-07-15T07:13:16Z</time>
      </trkpt>
      <trkpt lat="41.704680" lon="-8.033900">
        <ele>293.124</ele>
        <time>2020-07-15T07:13:36Z</time>
      </trkpt>
      <trkpt lat="41.704760" lon="-8.033940">
        <ele>293.654</ele>
        <time>2020-07-15T07:13:56Z</time>
      </trkpt>
      <trkpt lat="41.704820" lon="-8.034000">
        <ele>295.015</ele>
        <time>2020-07-15T07:14:16Z</time>
      </trkpt>
      <trkpt lat="41.704860" lon="-8.034140">
        <ele>295.616</ele>
        <time>2020-07-15T07:14:36Z</time>
      </trkpt>
      <trkpt lat="41.704810" lon="-8.035040">
        <ele>288.976</ele>
        <time>2020-07-15T07:14:56Z</time>
      </trkpt>
      <trkpt lat="41.704820" lon="-8.035190">
        <ele>288.113</ele>
        <time>2020-07-15T07:15:16Z</time>
      </trkpt>
      <trkpt lat="41.704850" lon="-8.035320">
        <ele>287.608</ele>
        <time>2020-07-15T07:15:36Z</time>
      </trkpt>
      <trkpt lat="41.704960" lon="-8.035580">
        <ele>286.766</ele>
        <time>2020-07-15T07:15:56Z</time>
      </trkpt>
      <trkpt lat="41.705030" lon="-8.035820">
        <ele>286.043</ele>
        <time>2020-07-15T07:16:16Z</time>
      </trkpt>
      <trkpt lat="41.705090" lon="-8.035960">
        <ele>286.298</ele>
        <time>2020-07-15T07:16:36Z</time>
      </trkpt>
      <trkpt lat="41.705160" lon="-8.036050">
        <ele>286.746</ele>
        <time>2020-07-15T07:16:56Z</time>
      </trkpt>
      <trkpt lat="41.705240" lon="-8.036090">
        <ele>287.743</ele>
        <time>2020-07-15T07:17:16Z</time>
      </trkpt>
      <trkpt lat="41.705350" lon="-8.036090">
        <ele>288.933</ele>
        <time>2020-07-15T07:17:36Z</time>
      </trkpt>
      <trkpt lat="41.705660" lon="-8.036000">
        <ele>291.233</ele>
        <time>2020-07-15T07:17:56Z</time>
      </trkpt>
      <trkpt lat="41.705770" lon="-8.036000">
        <ele>289.924</ele>
        <time>2020-07-15T07:18:16Z</time>
      </trkpt>
      <trkpt lat="41.706070" lon="-8.036100">
        <ele>281.212</ele>
        <time>2020-07-15T07:18:36Z</time>
      </trkpt>
      <trkpt lat="41.706280" lon="-8.036070">
        <ele>280.632</ele>
        <time>2020-07-15T07:18:56Z</time>
      </trkpt>
      <trkpt lat="41.706870" lon="-8.035710">
        <ele>284.405</ele>
        <time>2020-07-15T07:19:16Z</time>
      </trkpt>
      <trkpt lat="41.706930" lon="-8.035690">
        <ele>285.108</ele>
        <time>2020-07-15T07:19:36Z</time>
      </trkpt>
      <trkpt lat="41.707050" lon="-8.035690">
        <ele>287.696</ele>
        <time>2020-07-15T07:19:56Z</time>
      </trkpt>
      <trkpt lat="41.707210" lon="-8.035730">
        <ele>290.153</ele>
        <time>2020-07-15T07:20:16Z</time>
      </trkpt>
      <trkpt lat="41.707320" lon="-8.035790">
        <ele>289.178</ele>
        <time>2020-07-15T07:20:36Z</time>
      </trkpt>
      <trkpt lat="41.707570" lon="-8.036060">
        <ele>282.086</ele>
        <time>2020-07-15T07:20:56Z</time>
      </trkpt>
      <trkpt lat="41.707890" lon="-8.036230">
        <ele>282.113</ele>
        <time>2020-07-15T07:21:16Z</time>
      </trkpt>
      <trkpt lat="41.708150" lon="-8.036500">
        <ele>280.793</ele>
        <time>2020-07-15T07:21:36Z</time>
      </trkpt>
      <trkpt lat="41.708270" lon="-8.036590">
        <ele>280.613</ele>
        <time>2020-07-15T07:21:56Z</time>
      </trkpt>
      <trkpt lat="41.708730" lon="-8.036640">
        <ele>283.984</ele>
        <time>2020-07-15T07:22:16Z</time>
      </trkpt>
      <trkpt lat="41.709120" lon="-8.036740">
        <ele>281.652</ele>
        <time>2020-07-15T07:22:36Z</time>
      </trkpt>
      <trkpt lat="41.709770" lon="-8.036690">
        <ele>274.053</ele>
        <time>2020-07-15T07:22:56Z</time>
      </trkpt>
      <trkpt lat="41.710140" lon="-8.036710">
        <ele>275.508</ele>
        <time>2020-07-15T07:23:16Z</time>
      </trkpt>
      <trkpt lat="41.710290" lon="-8.036680">
        <ele>276.908</ele>
        <time>2020-07-15T07:23:36Z</time>
      </trkpt>
      <trkpt lat="41.710530" lon="-8.037350">
        <ele>276.080</ele>
        <time>2020-07-15T07:23:56Z</time>
      </trkpt>
      <trkpt lat="41.710570" lon="-8.037390">
        <ele>276.337</ele>
        <time>2020-07-15T07:24:16Z</time>
      </trkpt>
      <trkpt lat="41.710790" lon="-8.037370">
        <ele>277.822</ele>
        <time>2020-07-15T07:24:36Z</time>
      </trkpt>
      <trkpt lat="41.710860" lon="-8.037380">
        <ele>278.070</ele>
        <time>2020-07-15T07:24:56Z</time>
      </trkpt>
      <trkpt lat="41.710920" lon="-8.037420">
        <ele>278.077</ele>
        <time>2020-07-15T07:25:16Z</time>
      </trkpt>
      <trkpt lat="41.711020" lon="-8.037550">
        <ele>278.487</ele>
        <time>2020-07-15T07:25:36Z</time>
      </trkpt>
      <trkpt lat="41.711100" lon="-8.037740">
        <ele>278.917</ele>
        <time>2020-07-15T07:25:56Z</time>
      </trkpt>
      <trkpt lat="41.711130" lon="-8.038050">
        <ele>281.698</ele>
        <time>2020-07-15T07:26:16Z</time>
      </trkpt>
      <trkpt lat="41.711120" lon="-8.038350">
        <ele>285.014</ele>
        <time>2020-07-15T07:26:36Z</time>
      </trkpt>
      <trkpt lat="41.711090" lon="-8.038510">
        <ele>287.054</ele>
        <time>2020-07-15T07:26:56Z</time>
      </trkpt>
      <trkpt lat="41.710900" lon="-8.039060">
        <ele>291.409</ele>
        <time>2020-07-15T07:27:16Z</time>
      </trkpt>
      <trkpt lat="41.710750" lon="-8.039250">
        <ele>294.208</ele>
        <time>2020-07-15T07:27:36Z</time>
      </trkpt>
      <trkpt lat="41.710640" lon="-8.039440">
        <ele>295.916</ele>
        <time>2020-07-15T07:27:56Z</time>
      </trkpt>
      <trkpt lat="41.710560" lon="-8.039830">
        <ele>298.193</ele>
        <time>2020-07-15T07:28:16Z</time>
      </trkpt>
      <trkpt lat="41.710460" lon="-8.040100">
        <ele>303.588</ele>
        <time>2020-07-15T07:28:36Z</time>
      </trkpt>
      <trkpt lat="41.710310" lon="-8.040240">
        <ele>307.446</ele>
        <time>2020-07-15T07:28:56Z</time>
      </trkpt>
      <trkpt lat="41.710190" lon="-8.040320">
        <ele>310.933</ele>
        <time>2020-07-15T07:29:16Z</time>
      </trkpt>
      <trkpt lat="41.709610" lon="-8.040500">
        <ele>320.783</ele>
        <time>2020-07-15T07:29:36Z</time>
      </trkpt>
      <trkpt lat="41.709520" lon="-8.040510">
        <ele>321.483</ele>
        <time>2020-07-15T07:29:56Z</time>
      </trkpt>
      <trkpt lat="41.709420" lon="-8.040480">
        <ele>322.514</ele>
        <time>2020-07-15T07:30:16Z</time>
      </trkpt>
      <trkpt lat="41.708950" lon="-8.040170">
        <ele>326.958</ele>
        <time>2020-07-15T07:30:36Z</time>
      </trkpt>
      <trkpt lat="41.708790" lon="-8.040170">
        <ele>329.352</ele>
        <time>2020-07-15T07:30:56Z</time>
      </trkpt>
      <trkpt lat="41.708490" lon="-8.040300">
        <ele>335.217</ele>
        <time>2020-07-15T07:31:16Z</time>
      </trkpt>
      <trkpt lat="41.708360" lon="-8.040360">
        <ele>338.708</ele>
        <time>2020-07-15T07:31:36Z</time>
      </trkpt>
      <trkpt lat="41.708160" lon="-8.040560">
        <ele>343.180</ele>
        <time>2020-07-15T07:31:56Z</time>
      </trkpt>
      <trkpt lat="41.708090" lon="-8.040700">
        <ele>344.677</ele>
        <time>2020-07-15T07:32:16Z</time>
      </trkpt>
      <trkpt lat="41.707920" lon="-8.041250">
        <ele>350.782</ele>
        <time>2020-07-15T07:32:36Z</time>
      </trkpt>
      <trkpt lat="41.707860" lon="-8.041620">
        <ele>353.340</ele>
        <time>2020-07-15T07:32:56Z</time>
      </trkpt>
      <trkpt lat="41.707860" lon="-8.042270">
        <ele>365.027</ele>
        <time>2020-07-15T07:33:16Z</time>
      </trkpt>
      <trkpt lat="41.707890" lon="-8.042380">
        <ele>367.437</ele>
        <time>2020-07-15T07:33:36Z</time>
      </trkpt>
      <trkpt lat="41.707940" lon="-8.042440">
        <ele>368.717</ele>
        <time>2020-07-15T07:33:56Z</time>
      </trkpt>
      <trkpt lat="41.708380" lon="-8.042630">
        <ele>370.128</ele>
        <time>2020-07-15T07:34:16Z</time>
      </trkpt>
      <trkpt lat="41.708940" lon="-8.042980">
        <ele>374.146</ele>
        <time>2020-07-15T07:34:36Z</time>
      </trkpt>
      <trkpt lat="41.709020" lon="-8.043000">
        <ele>375.088</ele>
        <time>2020-07-15T07:34:56Z</time>
      </trkpt>
      <trkpt lat="41.709260" lon="-8.042920">
        <ele>373.616</ele>
        <time>2020-07-15T07:35:16Z</time>
      </trkpt>
      <trkpt lat="41.709360" lon="-8.042900">
        <ele>374.108</ele>
        <time>2020-07-15T07:35:36Z</time>
      </trkpt>
      <trkpt lat="41.709450" lon="-8.042910">
        <ele>375.399</ele>
        <time>2020-07-15T07:35:56Z</time>
      </trkpt>
      <trkpt lat="41.709590" lon="-8.042970">
        <ele>377.266</ele>
        <time>2020-07-15T07:36:16Z</time>
      </trkpt>
      <trkpt lat="41.709740" lon="-8.043090">
        <ele>380.981</ele>
        <time>2020-07-15T07:36:36Z</time>
      </trkpt>
      <trkpt lat="41.709800" lon="-8.043260">
        <ele>381.089</ele>
        <time>2020-07-15T07:36:56Z</time>
      </trkpt>
      <trkpt lat="41.709780" lon="-8.043480">
        <ele>383.146</ele>
        <time>2020-07-15T07:37:16Z</time>
      </trkpt>
      <trkpt lat="41.709700" lon="-8.043620">
        <ele>386.746</ele>
        <time>2020-07-15T07:37:36Z</time>
      </trkpt>
      <trkpt lat="41.709510" lon="-8.043810">
        <ele>393.176</ele>
        <time>2020-07-15T07:37:56Z</time>
      </trkpt>
      <trkpt lat="41.709340" lon="-8.043950">
        <ele>398.397</ele>
        <time>2020-07-15T07:38:16Z</time>
      </trkpt>
      <trkpt lat="41.708850" lon="-8.044540">
        <ele>410.655</ele>
        <time>2020-07-15T07:38:36Z</time>
      </trkpt>
      <trkpt lat="41.708690" lon="-8.044700">
        <ele>415.307</ele>
        <time>2020-07-15T07:38:56Z</time>
      </trkpt>
      <trkpt lat="41.708630" lon="-8.044740">
        <ele>417.317</ele>
        <time>2020-07-15T07:39:16Z</time>
      </trkpt>
      <trkpt lat="41.708300" lon="-8.044820">
        <ele>426.708</ele>
        <time>2020-07-15T07:39:36Z</time>
      </trkpt>
      <trkpt lat="41.708220" lon="-8.044860">
        <ele>428.060</ele>
        <time>2020-07-15T07:39:56Z</time>
      </trkpt>
      <trkpt lat="41.708180" lon="-8.044920">
        <ele>428.217</ele>
        <time>2020-07-15T07:40:16Z</time>
      </trkpt>
      <trkpt lat="41.708160" lon="-8.045000">
        <ele>427.762</ele>
        <time>2020-07-15T07:40:36Z</time>
      </trkpt>
      <trkpt lat="41.708200" lon="-8.045210">
        <ele>427.660</ele>
        <time>2020-07-15T07:40:56Z</time>
      </trkpt>
      <trkpt lat="41.708360" lon="-8.045800">
        <ele>434.437</ele>
        <time>2020-07-15T07:41:16Z</time>
      </trkpt>
      <trkpt lat="41.708560" lon="-8.046370">
        <ele>438.787</ele>
        <time>2020-07-15T07:41:36Z</time>
      </trkpt>
      <trkpt lat="41.708570" lon="-8.046490">
        <ele>440.037</ele>
        <time>2020-07-15T07:41:56Z</time>
      </trkpt>
      <trkpt lat="41.708550" lon="-8.046620">
        <ele>442.418</ele>
        <time>2020-07-15T07:42:16Z</time>
      </trkpt>
      <trkpt lat="41.708510" lon="-8.046710">
        <ele>444.657</ele>
        <time>2020-07-15T07:42:36Z</time>
      </trkpt>
      <trkpt lat="41.708240" lon="-8.046990">
        <ele>456.300</ele>
        <time>2020-07-15T07:42:56Z</time>
      </trkpt>
      <trkpt lat="41.708190" lon="-8.047060">
        <ele>458.520</ele>
        <time>2020-07-15T07:43:16Z</time>
      </trkpt>
      <trkpt lat="41.708170" lon="-8.047140">
        <ele>459.808</ele>
        <time>2020-07-15T07:43:36Z</time>
      </trkpt>
      <trkpt lat="41.708180" lon="-8.047210">
        <ele>460.040</ele>
        <time>2020-07-15T07:43:56Z</time>
      </trkpt>
      <trkpt lat="41.708280" lon="-8.047590">
        <ele>457.627</ele>
        <time>2020-07-15T07:44:16Z</time>
      </trkpt>
      <trkpt lat="41.708040" lon="-8.048670">
        <ele>475.892</ele>
        <time>2020-07-15T07:44:36Z</time>
      </trkpt>
      <trkpt lat="41.707940" lon="-8.048930">
        <ele>476.140</ele>
        <time>2020-07-15T07:44:56Z</time>
      </trkpt>
      <trkpt lat="41.707520" lon="-8.049460">
        <ele>485.487</ele>
        <time>2020-07-15T07:45:16Z</time>
      </trkpt>
      <trkpt lat="41.707120" lon="-8.049840">
        <ele>492.447</ele>
        <time>2020-07-15T07:45:36Z</time>
      </trkpt>
      <trkpt lat="41.707070" lon="-8.049910">
        <ele>493.777</ele>
        <time>2020-07-15T07:45:56Z</time>
      </trkpt>
      <trkpt lat="41.706920" lon="-8.050180">
        <ele>497.418</ele>
        <time>2020-07-15T07:46:16Z</time>
      </trkpt>
      <trkpt lat="41.706870" lon="-8.050310">
        <ele>498.772</ele>
        <time>2020-07-15T07:46:36Z</time>
      </trkpt>
      <trkpt lat="41.706850" lon="-8.050530">
        <ele>501.113</ele>
        <time>2020-07-15T07:46:56Z</time>
      </trkpt>
      <trkpt lat="41.706780" lon="-8.050730">
        <ele>502.414</ele>
        <time>2020-07-15T07:47:16Z</time>
      </trkpt>
      <trkpt lat="41.706650" lon="-8.050960">
        <ele>502.308</ele>
        <time>2020-07-15T07:47:36Z</time>
      </trkpt>
      <trkpt lat="41.706550" lon="-8.050990">
        <ele>501.752</ele>
        <time>2020-07-15T07:47:56Z</time>
      </trkpt>
      <trkpt lat="41.706010" lon="-8.051050">
        <ele>498.499</ele>
        <time>2020-07-15T07:48:16Z</time>
      </trkpt>
      <trkpt lat="41.705830" lon="-8.051100">
        <ele>498.164</ele>
        <time>2020-07-15T07:48:36Z</time>
      </trkpt>
      <trkpt lat="41.705750" lon="-8.051140">
        <ele>498.032</ele>
        <time>2020-07-15T07:48:56Z</time>
      </trkpt>
      <trkpt lat="41.705550" lon="-8.051410">
        <ele>495.729</ele>
        <time>2020-07-15T07:49:16Z</time>
      </trkpt>
      <trkpt lat="41.705460" lon="-8.051450">
        <ele>494.999</ele>
        <time>2020-07-15T07:49:36Z</time>
      </trkpt>
      <trkpt lat="41.705240" lon="-8.051500">
        <ele>493.639</ele>
        <time>2020-07-15T07:49:56Z</time>
      </trkpt>
      <trkpt lat="41.705130" lon="-8.051570">
        <ele>492.750</ele>
        <time>2020-07-15T07:50:16Z</time>
      </trkpt>
      <trkpt lat="41.705050" lon="-8.051680">
        <ele>491.915</ele>
        <time>2020-07-15T07:50:36Z</time>
      </trkpt>
      <trkpt lat="41.705020" lon="-8.051900">
        <ele>489.565</ele>
        <time>2020-07-15T07:50:56Z</time>
      </trkpt>
      <trkpt lat="41.705060" lon="-8.053420">
        <ele>479.511</ele>
        <time>2020-07-15T07:51:16Z</time>
      </trkpt>
      <trkpt lat="41.705140" lon="-8.053760">
        <ele>474.708</ele>
        <time>2020-07-15T07:51:36Z</time>
      </trkpt>
      <trkpt lat="41.705240" lon="-8.054030">
        <ele>471.786</ele>
        <time>2020-07-15T07:51:56Z</time>
      </trkpt>
      <trkpt lat="41.705450" lon="-8.054460">
        <ele>467.993</ele>
        <time>2020-07-15T07:52:16Z</time>
      </trkpt>
      <trkpt lat="41.705480" lon="-8.054570">
        <ele>469.088</ele>
        <time>2020-07-15T07:52:36Z</time>
      </trkpt>
      <trkpt lat="41.705470" lon="-8.054650">
        <ele>470.146</ele>
        <time>2020-07-15T07:52:56Z</time>
      </trkpt>
      <trkpt lat="41.705450" lon="-8.054690">
        <ele>470.793</ele>
        <time>2020-07-15T07:53:16Z</time>
      </trkpt>
      <trkpt lat="41.705400" lon="-8.054730">
        <ele>471.953</ele>
        <time>2020-07-15T07:53:36Z</time>
      </trkpt>
      <trkpt lat="41.704880" lon="-8.054780">
        <ele>480.963</ele>
        <time>2020-07-15T07:53:56Z</time>
      </trkpt>
      <trkpt lat="41.704630" lon="-8.054860">
        <ele>481.764</ele>
        <time>2020-07-15T07:54:16Z</time>
      </trkpt>
      <trkpt lat="41.704540" lon="-8.054940">
        <ele>481.976</ele>
        <time>2020-07-15T07:54:36Z</time>
      </trkpt>
      <trkpt lat="41.704460" lon="-8.055080">
        <ele>483.390</ele>
        <time>2020-07-15T07:54:56Z</time>
      </trkpt>
      <trkpt lat="41.704350" lon="-8.055390">
        <ele>487.319</ele>
        <time>2020-07-15T07:55:16Z</time>
      </trkpt>
      <trkpt lat="41.704240" lon="-8.055620">
        <ele>491.108</ele>
        <time>2020-07-15T07:55:36Z</time>
      </trkpt>
      <trkpt lat="41.703820" lon="-8.056130">
        <ele>494.322</ele>
        <time>2020-07-15T07:55:56Z</time>
      </trkpt>
      <trkpt lat="41.703740" lon="-8.056200">
        <ele>495.379</ele>
        <time>2020-07-15T07:56:16Z</time>
      </trkpt>
      <trkpt lat="41.702790" lon="-8.056720">
        <ele>500.254</ele>
        <time>2020-07-15T07:56:36Z</time>
      </trkpt>
      <trkpt lat="41.702630" lon="-8.056850">
        <ele>503.392</ele>
        <time>2020-07-15T07:56:56Z</time>
      </trkpt>
      <trkpt lat="41.702450" lon="-8.057060">
        <ele>506.249</ele>
        <time>2020-07-15T07:57:16Z</time>
      </trkpt>
      <trkpt lat="41.702320" lon="-8.057300">
        <ele>505.789</ele>
        <time>2020-07-15T07:57:36Z</time>
      </trkpt>
      <trkpt lat="41.702110" lon="-8.057820">
        <ele>507.969</ele>
        <time>2020-07-15T07:57:56Z</time>
      </trkpt>
      <trkpt lat="41.701920" lon="-8.058250">
        <ele>514.620</ele>
        <time>2020-07-15T07:58:16Z</time>
      </trkpt>
      <trkpt lat="41.701790" lon="-8.058500">
        <ele>516.046</ele>
        <time>2020-07-15T07:58:36Z</time>
      </trkpt>
      <trkpt lat="41.701740" lon="-8.058660">
        <ele>517.088</ele>
        <time>2020-07-15T07:58:56Z</time>
      </trkpt>
      <trkpt lat="41.701700" lon="-8.058900">
        <ele>519.116</ele>
        <time>2020-07-15T07:59:16Z</time>
      </trkpt>
      <trkpt lat="41.701640" lon="-8.059120">
        <ele>519.308</ele>
        <time>2020-07-15T07:59:36Z</time>
      </trkpt>
      <trkpt lat="41.701400" lon="-8.059890">
        <ele>522.069</ele>
        <time>2020-07-15T07:59:56Z</time>
      </trkpt>
      <trkpt lat="41.701370" lon="-8.060120">
        <ele>525.116</ele>
        <time>2020-07-15T08:00:16Z</time>
      </trkpt>
      <trkpt lat="41.701310" lon="-8.060310">
        <ele>525.771</ele>
        <time>2020-07-15T08:00:36Z</time>
      </trkpt>
      <trkpt lat="41.701210" lon="-8.060500">
        <ele>525.629</ele>
        <time>2020-07-15T08:00:56Z</time>
      </trkpt>
      <trkpt lat="41.701150" lon="-8.060560">
        <ele>525.646</ele>
        <time>2020-07-15T08:01:16Z</time>
      </trkpt>
      <trkpt lat="41.700770" lon="-8.060780">
        <ele>519.776</ele>
        <time>2020-07-15T08:01:36Z</time>
      </trkpt>
      <trkpt lat="41.700680" lon="-8.060870">
        <ele>518.996</ele>
        <time>2020-07-15T08:01:56Z</time>
      </trkpt>
      <trkpt lat="41.700620" lon="-8.060960">
        <ele>518.257</ele>
        <time>2020-07-15T08:02:16Z</time>
      </trkpt>
      <trkpt lat="41.700620" lon="-8.061200">
        <ele>519.524</ele>
        <time>2020-07-15T08:02:36Z</time>
      </trkpt>
      <trkpt lat="41.700700" lon="-8.061560">
        <ele>521.004</ele>
        <time>2020-07-15T08:02:56Z</time>
      </trkpt>
      <trkpt lat="41.700780" lon="-8.061860">
        <ele>521.314</ele>
        <time>2020-07-15T08:03:16Z</time>
      </trkpt>
      <trkpt lat="41.701000" lon="-8.062430">
        <ele>528.408</ele>
        <time>2020-07-15T08:03:36Z</time>
      </trkpt>
      <trkpt lat="41.701010" lon="-8.062530">
        <ele>529.457</ele>
        <time>2020-07-15T08:03:56Z</time>
      </trkpt>
      <trkpt lat="41.700970" lon="-8.062630">
        <ele>529.944</ele>
        <time>2020-07-15T08:04:16Z</time>
      </trkpt>
      <trkpt lat="41.700930" lon="-8.062680">
        <ele>530.179</ele>
        <time>2020-07-15T08:04:36Z</time>
      </trkpt>
      <trkpt lat="41.700040" lon="-8.062950">
        <ele>526.777</ele>
        <time>2020-07-15T08:04:56Z</time>
      </trkpt>
      <trkpt lat="41.699890" lon="-8.063070">
        <ele>525.164</ele>
        <time>2020-07-15T08:05:16Z</time>
      </trkpt>
      <trkpt lat="41.699840" lon="-8.063160">
        <ele>524.764</ele>
        <time>2020-07-15T08:05:36Z</time>
      </trkpt>
      <trkpt lat="41.699810" lon="-8.063270">
        <ele>524.634</ele>
        <time>2020-07-15T08:05:56Z</time>
      </trkpt>
      <trkpt lat="41.699800" lon="-8.063500">
        <ele>524.955</ele>
        <time>2020-07-15T08:06:16Z</time>
      </trkpt>
      <trkpt lat="41.700050" lon="-8.064280">
        <ele>522.359</ele>
        <time>2020-07-15T08:06:36Z</time>
      </trkpt>
      <trkpt lat="41.700970" lon="-8.066740">
        <ele>506.203</ele>
        <time>2020-07-15T08:06:56Z</time>
      </trkpt>
      <trkpt lat="41.701200" lon="-8.067620">
        <ele>495.223</ele>
        <time>2020-07-15T08:07:16Z</time>
      </trkpt>
      <trkpt lat="41.701320" lon="-8.067810">
        <ele>492.208</ele>
        <time>2020-07-15T08:07:36Z</time>
      </trkpt>
      <trkpt lat="41.701720" lon="-8.068090">
        <ele>491.560</ele>
        <time>2020-07-15T08:07:56Z</time>
      </trkpt>
      <trkpt lat="41.702340" lon="-8.068490">
        <ele>484.457</ele>
        <time>2020-07-15T08:08:16Z</time>
      </trkpt>
      <trkpt lat="41.702760" lon="-8.068740">
        <ele>482.132</ele>
        <time>2020-07-15T08:08:36Z</time>
      </trkpt>
      <trkpt lat="41.702950" lon="-8.068880">
        <ele>481.730</ele>
        <time>2020-07-15T08:08:56Z</time>
      </trkpt>
      <trkpt lat="41.703040" lon="-8.069020">
        <ele>481.097</ele>
        <time>2020-07-15T08:09:16Z</time>
      </trkpt>
      <trkpt lat="41.703080" lon="-8.069270">
        <ele>479.057</ele>
        <time>2020-07-15T08:09:36Z</time>
      </trkpt>
      <trkpt lat="41.703040" lon="-8.069680">
        <ele>473.377</ele>
        <time>2020-07-15T08:09:56Z</time>
      </trkpt>
      <trkpt lat="41.703050" lon="-8.069940">
        <ele>469.078</ele>
        <time>2020-07-15T08:10:16Z</time>
      </trkpt>
      <trkpt lat="41.703170" lon="-8.070140">
        <ele>467.858</ele>
        <time>2020-07-15T08:10:36Z</time>
      </trkpt>
      <trkpt lat="41.703260" lon="-8.070230">
        <ele>467.352</ele>
        <time>2020-07-15T08:10:56Z</time>
      </trkpt>
      <trkpt lat="41.703360" lon="-8.070300">
        <ele>466.417</ele>
        <time>2020-07-15T08:11:16Z</time>
      </trkpt>
      <trkpt lat="41.703560" lon="-8.070400">
        <ele>464.308</ele>
        <time>2020-07-15T08:11:36Z</time>
      </trkpt>
      <trkpt lat="41.703680" lon="-8.070490">
        <ele>463.510</ele>
        <time>2020-07-15T08:11:56Z</time>
      </trkpt>
      <trkpt lat="41.703810" lon="-8.070670">
        <ele>463.827</ele>
        <time>2020-07-15T08:12:16Z</time>
      </trkpt>
      <trkpt lat="41.703890" lon="-8.070840">
        <ele>464.112</ele>
        <time>2020-07-15T08:12:36Z</time>
      </trkpt>
      <trkpt lat="41.703920" lon="-8.071010">
        <ele>465.320</ele>
        <time>2020-07-15T08:12:56Z</time>
      </trkpt>
      <trkpt lat="41.703900" lon="-8.071150">
        <ele>465.537</ele>
        <time>2020-07-15T08:13:16Z</time>
      </trkpt>
      <trkpt lat="41.703830" lon="-8.071260">
        <ele>465.197</ele>
        <time>2020-07-15T08:13:36Z</time>
      </trkpt>
      <trkpt lat="41.703490" lon="-8.071450">
        <ele>462.987</ele>
        <time>2020-07-15T08:13:56Z</time>
      </trkpt>
      <trkpt lat="41.702820" lon="-8.071720">
        <ele>460.478</ele>
        <time>2020-07-15T08:14:16Z</time>
      </trkpt>
      <trkpt lat="41.702670" lon="-8.071820">
        <ele>459.693</ele>
        <time>2020-07-15T08:14:36Z</time>
      </trkpt>
      <trkpt lat="41.702590" lon="-8.071920">
        <ele>459.465</ele>
        <time>2020-07-15T08:14:56Z</time>
      </trkpt>
      <trkpt lat="41.702470" lon="-8.072320">
        <ele>460.621</ele>
        <time>2020-07-15T08:15:16Z</time>
      </trkpt>
      <trkpt lat="41.702380" lon="-8.072760">
        <ele>463.108</ele>
        <time>2020-07-15T08:15:36Z</time>
      </trkpt>
      <trkpt lat="41.702410" lon="-8.072960">
        <ele>462.834</ele>
        <time>2020-07-15T08:15:56Z</time>
      </trkpt>
      <trkpt lat="41.702490" lon="-8.073200">
        <ele>461.961</ele>
        <time>2020-07-15T08:16:16Z</time>
      </trkpt>
      <trkpt lat="41.702590" lon="-8.073380">
        <ele>461.266</ele>
        <time>2020-07-15T08:16:36Z</time>
      </trkpt>
      <trkpt lat="41.702990" lon="-8.073840">
        <ele>462.524</ele>
        <time>2020-07-15T08:16:56Z</time>
      </trkpt>
      <trkpt lat="41.703030" lon="-8.073940">
        <ele>462.911</ele>
        <time>2020-07-15T08:17:16Z</time>
      </trkpt>
      <trkpt lat="41.703060" lon="-8.074040">
        <ele>463.671</ele>
        <time>2020-07-15T08:17:36Z</time>
      </trkpt>
      <trkpt lat="41.703090" lon="-8.074470">
        <ele>466.521</ele>
        <time>2020-07-15T08:17:56Z</time>
      </trkpt>
      <trkpt lat="41.703230" lon="-8.074900">
        <ele>467.792</ele>
        <time>2020-07-15T08:18:16Z</time>
      </trkpt>
      <trkpt lat="41.703340" lon="-8.075080">
        <ele>469.248</ele>
        <time>2020-07-15T08:18:36Z</time>
      </trkpt>
      <trkpt lat="41.703500" lon="-8.075220">
        <ele>473.661</ele>
        <time>2020-07-15T08:18:56Z</time>
      </trkpt>
      <trkpt lat="41.703820" lon="-8.075430">
        <ele>477.817</ele>
        <time>2020-07-15T08:19:16Z</time>
      </trkpt>
      <trkpt lat="41.703870" lon="-8.075500">
        <ele>477.508</ele>
        <time>2020-07-15T08:19:36Z</time>
      </trkpt>
      <trkpt lat="41.703900" lon="-8.075580">
        <ele>477.349</ele>
        <time>2020-07-15T08:19:56Z</time>
      </trkpt>
      <trkpt lat="41.703900" lon="-8.075770">
        <ele>478.756</ele>
        <time>2020-07-15T08:20:16Z</time>
      </trkpt>
      <trkpt lat="41.703670" lon="-8.076240">
        <ele>477.061</ele>
        <time>2020-07-15T08:20:36Z</time>
      </trkpt>
      <trkpt lat="41.703640" lon="-8.076490">
        <ele>475.069</ele>
        <time>2020-07-15T08:20:56Z</time>
      </trkpt>
      <trkpt lat="41.703910" lon="-8.077590">
        <ele>467.626</ele>
        <time>2020-07-15T08:21:16Z</time>
      </trkpt>
      <trkpt lat="41.704020" lon="-8.077880">
        <ele>468.716</ele>
        <time>2020-07-15T08:21:36Z</time>
      </trkpt>
      <trkpt lat="41.704050" lon="-8.078040">
        <ele>468.786</ele>
        <time>2020-07-15T08:21:56Z</time>
      </trkpt>
      <trkpt lat="41.704070" lon="-8.078430">
        <ele>468.017</ele>
        <time>2020-07-15T08:22:16Z</time>
      </trkpt>
      <trkpt lat="41.704140" lon="-8.078770">
        <ele>468.185</ele>
        <time>2020-07-15T08:22:36Z</time>
      </trkpt>
      <trkpt lat="41.704230" lon="-8.079000">
        <ele>466.889</ele>
        <time>2020-07-15T08:22:56Z</time>
      </trkpt>
      <trkpt lat="41.704440" lon="-8.079280">
        <ele>467.117</ele>
        <time>2020-07-15T08:23:16Z</time>
      </trkpt>
      <trkpt lat="41.704600" lon="-8.079610">
        <ele>472.908</ele>
        <time>2020-07-15T08:23:36Z</time>
      </trkpt>
      <trkpt lat="41.704650" lon="-8.079750">
        <ele>474.513</ele>
        <time>2020-07-15T08:23:56Z</time>
      </trkpt>
      <trkpt lat="41.704680" lon="-8.080200">
        <ele>472.590</ele>
        <time>2020-07-15T08:24:16Z</time>
      </trkpt>
      <trkpt lat="41.704720" lon="-8.080290">
        <ele>472.865</ele>
        <time>2020-07-15T08:24:36Z</time>
      </trkpt>
      <trkpt lat="41.704880" lon="-8.080520">
        <ele>473.813</ele>
        <time>2020-07-15T08:24:56Z</time>
      </trkpt>
      <trkpt lat="41.704940" lon="-8.080680">
        <ele>474.710</ele>
        <time>2020-07-15T08:25:16Z</time>
      </trkpt>
      <trkpt lat="41.704960" lon="-8.080820">
        <ele>475.410</ele>
        <time>2020-07-15T08:25:36Z</time>
      </trkpt>
      <trkpt lat="41.704920" lon="-8.081190">
        <ele>474.180</ele>
        <time>2020-07-15T08:25:56Z</time>
      </trkpt>
      <trkpt lat="41.704730" lon="-8.082510">
        <ele>478.251</ele>
        <time>2020-07-15T08:26:16Z</time>
      </trkpt>
      <trkpt lat="41.704630" lon="-8.083050">
        <ele>479.643</ele>
        <time>2020-07-15T08:26:36Z</time>
      </trkpt>
      <trkpt lat="41.704610" lon="-8.083400">
        <ele>481.864</ele>
        <time>2020-07-15T08:26:56Z</time>
      </trkpt>
      <trkpt lat="41.704640" lon="-8.083770">
        <ele>482.010</ele>
        <time>2020-07-15T08:27:16Z</time>
      </trkpt>
      <trkpt lat="41.704690" lon="-8.083940">
        <ele>482.108</ele>
        <time>2020-07-15T08:27:36Z</time>
      </trkpt>
      <trkpt lat="41.705020" lon="-8.084560">
        <ele>487.689</ele>
        <time>2020-07-15T08:27:56Z</time>
      </trkpt>
      <trkpt lat="41.705060" lon="-8.084680">
        <ele>489.936</ele>
        <time>2020-07-15T08:28:16Z</time>
      </trkpt>
      <trkpt lat="41.705170" lon="-8.085420">
        <ele>492.241</ele>
        <time>2020-07-15T08:28:36Z</time>
      </trkpt>
      <trkpt lat="41.705280" lon="-8.085960">
        <ele>491.199</ele>
        <time>2020-07-15T08:28:56Z</time>
      </trkpt>
      <trkpt lat="41.705350" lon="-8.086210">
        <ele>492.346</ele>
        <time>2020-07-15T08:29:16Z</time>
      </trkpt>
      <trkpt lat="41.705440" lon="-8.086410">
        <ele>494.646</ele>
        <time>2020-07-15T08:29:36Z</time>
      </trkpt>
      <trkpt lat="41.705440" lon="-8.086540">
        <ele>495.596</ele>
        <time>2020-07-15T08:29:56Z</time>
      </trkpt>
      <trkpt lat="41.705410" lon="-8.086680">
        <ele>496.057</ele>
        <time>2020-07-15T08:30:16Z</time>
      </trkpt>
      <trkpt lat="41.705360" lon="-8.086770">
        <ele>496.261</ele>
        <time>2020-07-15T08:30:36Z</time>
      </trkpt>
      <trkpt lat="41.705290" lon="-8.086820">
        <ele>495.821</ele>
        <time>2020-07-15T08:30:56Z</time>
      </trkpt>
      <trkpt lat="41.705030" lon="-8.086900">
        <ele>492.813</ele>
        <time>2020-07-15T08:31:16Z</time>
      </trkpt>
      <trkpt lat="41.704880" lon="-8.086920">
        <ele>491.808</ele>
        <time>2020-07-15T08:31:36Z</time>
      </trkpt>
      <trkpt lat="41.704700" lon="-8.087000">
        <ele>491.681</ele>
        <time>2020-07-15T08:31:56Z</time>
      </trkpt>
      <trkpt lat="41.704540" lon="-8.087250">
        <ele>493.468</ele>
        <time>2020-07-15T08:32:16Z</time>
      </trkpt>
      <trkpt lat="41.704390" lon="-8.087570">
        <ele>494.953</ele>
        <time>2020-07-15T08:32:36Z</time>
      </trkpt>
      <trkpt lat="41.704280" lon="-8.087760">
        <ele>494.011</ele>
        <time>2020-07-15T08:32:56Z</time>
      </trkpt>
      <trkpt lat="41.704120" lon="-8.087900">
        <ele>493.648</ele>
        <time>2020-07-15T08:33:16Z</time>
      </trkpt>
      <trkpt lat="41.703760" lon="-8.088020">
        <ele>489.418</ele>
        <time>2020-07-15T08:33:36Z</time>
      </trkpt>
      <trkpt lat="41.703650" lon="-8.088120">
        <ele>489.058</ele>
        <time>2020-07-15T08:33:56Z</time>
      </trkpt>
      <trkpt lat="41.703610" lon="-8.088200">
        <ele>489.639</ele>
        <time>2020-07-15T08:34:16Z</time>
      </trkpt>
      <trkpt lat="41.703590" lon="-8.088370">
        <ele>491.869</ele>
        <time>2020-07-15T08:34:36Z</time>
      </trkpt>
      <trkpt lat="41.703520" lon="-8.088700">
        <ele>494.204</ele>
        <time>2020-07-15T08:34:56Z</time>
      </trkpt>
      <trkpt lat="41.703340" lon="-8.088830">
        <ele>491.324</ele>
        <time>2020-07-15T08:35:16Z</time>
      </trkpt>
      <trkpt lat="41.703240" lon="-8.089020">
        <ele>492.208</ele>
        <time>2020-07-15T08:35:36Z</time>
      </trkpt>
      <trkpt lat="41.703110" lon="-8.089160">
        <ele>492.661</ele>
        <time>2020-07-15T08:35:56Z</time>
      </trkpt>
      <trkpt lat="41.702850" lon="-8.089360">
        <ele>492.158</ele>
        <time>2020-07-15T08:36:16Z</time>
      </trkpt>
      <trkpt lat="41.702780" lon="-8.089380">
        <ele>491.443</ele>
        <time>2020-07-15T08:36:36Z</time>
      </trkpt>
      <trkpt lat="41.702730" lon="-8.089670">
        <ele>496.871</ele>
        <time>2020-07-15T08:36:56Z</time>
      </trkpt>
      <trkpt lat="41.702650" lon="-8.089830">
        <ele>498.998</ele>
        <time>2020-07-15T08:37:16Z</time>
      </trkpt>
      <trkpt lat="41.702430" lon="-8.089970">
        <ele>500.018</ele>
        <time>2020-07-15T08:37:36Z</time>
      </trkpt>
      <trkpt lat="41.702220" lon="-8.089960">
        <ele>498.158</ele>
        <time>2020-07-15T08:37:56Z</time>
      </trkpt>
      <trkpt lat="41.702090" lon="-8.090020">
        <ele>496.869</ele>
        <time>2020-07-15T08:38:16Z</time>
      </trkpt>
      <trkpt lat="41.701840" lon="-8.090050">
        <ele>492.522</ele>
        <time>2020-07-15T08:38:36Z</time>
      </trkpt>
      <trkpt lat="41.701750" lon="-8.090170">
        <ele>492.262</ele>
        <time>2020-07-15T08:38:56Z</time>
      </trkpt>
      <trkpt lat="41.701340" lon="-8.090550">
        <ele>488.908</ele>
        <time>2020-07-15T08:39:16Z</time>
      </trkpt>
      <trkpt lat="41.701220" lon="-8.090710">
        <ele>485.208</ele>
        <time>2020-07-15T08:39:36Z</time>
      </trkpt>
      <trkpt lat="41.701200" lon="-8.090950">
        <ele>482.597</ele>
        <time>2020-07-15T08:39:56Z</time>
      </trkpt>
      <trkpt lat="41.701210" lon="-8.091070">
        <ele>481.384</ele>
        <time>2020-07-15T08:40:16Z</time>
      </trkpt>
      <trkpt lat="41.701370" lon="-8.091260">
        <ele>482.239</ele>
        <time>2020-07-15T08:40:36Z</time>
      </trkpt>
      <trkpt lat="41.701420" lon="-8.091460">
        <ele>481.167</ele>
        <time>2020-07-15T08:40:56Z</time>
      </trkpt>
      <trkpt lat="41.701420" lon="-8.091640">
        <ele>480.354</ele>
        <time>2020-07-15T08:41:16Z</time>
      </trkpt>
      <trkpt lat="41.701340" lon="-8.091970">
        <ele>480.534</ele>
        <time>2020-07-15T08:41:36Z</time>
      </trkpt>
      <trkpt lat="41.701320" lon="-8.092130">
        <ele>480.794</ele>
        <time>2020-07-15T08:41:56Z</time>
      </trkpt>
      <trkpt lat="41.701360" lon="-8.092260">
        <ele>480.665</ele>
        <time>2020-07-15T08:42:16Z</time>
      </trkpt>
      <trkpt lat="41.701430" lon="-8.092630">
        <ele>482.866</ele>
        <time>2020-07-15T08:42:36Z</time>
      </trkpt>
      <trkpt lat="41.701400" lon="-8.093370">
        <ele>478.129</ele>
        <time>2020-07-15T08:42:56Z</time>
      </trkpt>
      <trkpt lat="41.701450" lon="-8.093660">
        <ele>472.021</ele>
        <time>2020-07-15T08:43:16Z</time>
      </trkpt>
      <trkpt lat="41.701530" lon="-8.094450">
        <ele>459.908</ele>
        <time>2020-07-15T08:43:36Z</time>
      </trkpt>
      <trkpt lat="41.701540" lon="-8.094480">
        <ele>459.711</ele>
        <time>2020-07-15T08:43:56Z</time>
      </trkpt>
      <trkpt lat="41.701570" lon="-8.094490">
        <ele>458.878</ele>
        <time>2020-07-15T08:44:16Z</time>
      </trkpt>
      <trkpt lat="41.701600" lon="-8.094460">
        <ele>457.953</ele>
        <time>2020-07-15T08:44:36Z</time>
      </trkpt>
      <trkpt lat="41.701820" lon="-8.093920">
        <ele>459.581</ele>
        <time>2020-07-15T08:44:56Z</time>
      </trkpt>
      <trkpt lat="41.701890" lon="-8.093850">
        <ele>459.548</ele>
        <time>2020-07-15T08:45:16Z</time>
      </trkpt>
      <trkpt lat="41.702000" lon="-8.093870">
        <ele>458.268</ele>
        <time>2020-07-15T08:45:36Z</time>
      </trkpt>
      <trkpt lat="41.702600" lon="-8.094440">
        <ele>441.958</ele>
        <time>2020-07-15T08:45:56Z</time>
      </trkpt>
      <trkpt lat="41.702710" lon="-8.094640">
        <ele>436.999</ele>
        <time>2020-07-15T08:46:16Z</time>
      </trkpt>
      <trkpt lat="41.702800" lon="-8.094850">
        <ele>432.364</ele>
        <time>2020-07-15T08:46:36Z</time>
      </trkpt>
      <trkpt lat="41.703030" lon="-8.095080">
        <ele>429.106</ele>
        <time>2020-07-15T08:46:56Z</time>
      </trkpt>
      <trkpt lat="41.703290" lon="-8.095540">
        <ele>417.816</ele>
        <time>2020-07-15T08:47:16Z</time>
      </trkpt>
      <trkpt lat="41.703370" lon="-8.095620">
        <ele>416.908</ele>
        <time>2020-07-15T08:47:36Z</time>
      </trkpt>
      <trkpt lat="41.703720" lon="-8.095820">
        <ele>410.841</ele>
        <time>2020-07-15T08:47:56Z</time>
      </trkpt>
      <trkpt lat="41.703860" lon="-8.095830">
        <ele>408.558</ele>
        <time>2020-07-15T08:48:16Z</time>
      </trkpt>
      <trkpt lat="41.704010" lon="-8.095720">
        <ele>409.123</ele>
        <time>2020-07-15T08:48:36Z</time>
      </trkpt>
      <trkpt lat="41.704570" lon="-8.095180">
        <ele>402.341</ele>
        <time>2020-07-15T08:48:56Z</time>
      </trkpt>
      <trkpt lat="41.704810" lon="-8.094750">
        <ele>402.478</ele>
        <time>2020-07-15T08:49:16Z</time>
      </trkpt>
      <trkpt lat="41.705230" lon="-8.093860">
        <ele>395.488</ele>
        <time>2020-07-15T08:49:36Z</time>
      </trkpt>
      <trkpt lat="41.705280" lon="-8.093790">
        <ele>395.438</ele>
        <time>2020-07-15T08:49:56Z</time>
      </trkpt>
      <trkpt lat="41.705400" lon="-8.093700">
        <ele>398.149</ele>
        <time>2020-07-15T08:50:16Z</time>
      </trkpt>
      <trkpt lat="41.705460" lon="-8.093690">
        <ele>398.915</ele>
        <time>2020-07-15T08:50:36Z</time>
      </trkpt>
      <trkpt lat="41.705770" lon="-8.093780">
        <ele>395.465</ele>
        <time>2020-07-15T08:50:56Z</time>
      </trkpt>
      <trkpt lat="41.706090" lon="-8.093740">
        <ele>387.711</ele>
        <time>2020-07-15T08:51:16Z</time>
      </trkpt>
      <trkpt lat="41.706370" lon="-8.093620">
        <ele>386.908</ele>
        <time>2020-07-15T08:51:36Z</time>
      </trkpt>
      <trkpt lat="41.706930" lon="-8.093620">
        <ele>380.796</ele>
        <time>2020-07-15T08:51:56Z</time>
      </trkpt>
      <trkpt lat="41.707250" lon="-8.093590">
        <ele>379.883</ele>
        <time>2020-07-15T08:52:16Z</time>
      </trkpt>
      <trkpt lat="41.707920" lon="-8.093410">
        <ele>367.168</ele>
        <time>2020-07-15T08:52:36Z</time>
      </trkpt>
      <trkpt lat="41.708370" lon="-8.093270">
        <ele>364.596</ele>
        <time>2020-07-15T08:52:56Z</time>
      </trkpt>
      <trkpt lat="41.708980" lon="-8.093250">
        <ele>358.153</ele>
        <time>2020-07-15T08:53:16Z</time>
      </trkpt>
      <trkpt lat="41.709210" lon="-8.093240">
        <ele>361.353</ele>
        <time>2020-07-15T08:53:36Z</time>
      </trkpt>
      <trkpt lat="41.709290" lon="-8.093260">
        <ele>361.653</ele>
        <time>2020-07-15T08:53:56Z</time>
      </trkpt>
      <trkpt lat="41.709340" lon="-8.093310">
        <ele>360.454</ele>
        <time>2020-07-15T08:54:16Z</time>
      </trkpt>
      <trkpt lat="41.709360" lon="-8.093370">
        <ele>359.667</ele>
        <time>2020-07-15T08:54:36Z</time>
      </trkpt>
      <trkpt lat="41.709330" lon="-8.093760">
        <ele>359.881</ele>
        <time>2020-07-15T08:54:56Z</time>
      </trkpt>
      <trkpt lat="41.709280" lon="-8.093930">
        <ele>362.019</ele>
        <time>2020-07-15T08:55:16Z</time>
      </trkpt>
      <trkpt lat="41.709180" lon="-8.093980">
        <ele>362.408</ele>
        <time>2020-07-15T08:55:36Z</time>
      </trkpt>
      <trkpt lat="41.708780" lon="-8.094030">
        <ele>357.081</ele>
        <time>2020-07-15T08:55:56Z</time>
      </trkpt>
      <trkpt lat="41.708570" lon="-8.094100">
        <ele>353.548</ele>
        <time>2020-07-15T08:56:16Z</time>
      </trkpt>
      <trkpt lat="41.708090" lon="-8.094350">
        <ele>351.583</ele>
        <time>2020-07-15T08:56:36Z</time>
      </trkpt>
      <trkpt lat="41.707490" lon="-8.094710">
        <ele>340.211</ele>
        <time>2020-07-15T08:56:56Z</time>
      </trkpt>
      <trkpt lat="41.707390" lon="-8.094790">
        <ele>339.458</ele>
        <time>2020-07-15T08:57:16Z</time>
      </trkpt>
      <trkpt lat="41.707170" lon="-8.095130">
        <ele>338.528</ele>
        <time>2020-07-15T08:57:36Z</time>
      </trkpt>
      <trkpt lat="41.707050" lon="-8.095460">
        <ele>337.618</ele>
        <time>2020-07-15T08:57:56Z</time>
      </trkpt>
      <trkpt lat="41.706910" lon="-8.096030">
        <ele>334.679</ele>
        <time>2020-07-15T08:58:16Z</time>
      </trkpt>
      <trkpt lat="41.706710" lon="-8.097080">
        <ele>332.317</ele>
        <time>2020-07-15T08:58:36Z</time>
      </trkpt>
      <trkpt lat="41.706690" lon="-8.097360">
        <ele>333.487</ele>
        <time>2020-07-15T08:58:56Z</time>
      </trkpt>
      <trkpt lat="41.706610" lon="-8.097570">
        <ele>330.215</ele>
        <time>2020-07-15T08:59:16Z</time>
      </trkpt>
      <trkpt lat="41.706420" lon="-8.097930">
        <ele>322.508</ele>
        <time>2020-07-15T08:59:36Z</time>
      </trkpt>
      <trkpt lat="41.706330" lon="-8.098160">
        <ele>319.956</ele>
        <time>2020-07-15T08:59:56Z</time>
      </trkpt>
      <trkpt lat="41.706260" lon="-8.098650">
        <ele>320.063</ele>
        <time>2020-07-15T09:00:16Z</time>
      </trkpt>
      <trkpt lat="41.706120" lon="-8.099040">
        <ele>318.618</ele>
        <time>2020-07-15T09:00:36Z</time>
      </trkpt>
      <trkpt lat="41.706110" lon="-8.099200">
        <ele>320.396</ele>
        <time>2020-07-15T09:00:56Z</time>
      </trkpt>
      <trkpt lat="41.706180" lon="-8.099760">
        <ele>329.423</ele>
        <time>2020-07-15T09:01:16Z</time>
      </trkpt>
      <trkpt lat="41.706130" lon="-8.099990">
        <ele>329.753</ele>
        <time>2020-07-15T09:01:36Z</time>
      </trkpt>
      <trkpt lat="41.705980" lon="-8.100360">
        <ele>328.183</ele>
        <time>2020-07-15T09:01:56Z</time>
      </trkpt>
      <trkpt lat="41.705890" lon="-8.100760">
        <ele>324.614</ele>
        <time>2020-07-15T09:02:16Z</time>
      </trkpt>
      <trkpt lat="41.705900" lon="-8.101010">
        <ele>325.137</ele>
        <time>2020-07-15T09:02:36Z</time>
      </trkpt>
      <trkpt lat="41.705960" lon="-8.101260">
        <ele>327.449</ele>
        <time>2020-07-15T09:02:56Z</time>
      </trkpt>
      <trkpt lat="41.706030" lon="-8.101470">
        <ele>329.513</ele>
        <time>2020-07-15T09:03:16Z</time>
      </trkpt>
      <trkpt lat="41.706000" lon="-8.101570">
        <ele>328.308</ele>
        <time>2020-07-15T09:03:36Z</time>
      </trkpt>
      <trkpt lat="41.705790" lon="-8.101710">
        <ele>322.538</ele>
        <time>2020-07-15T09:03:56Z</time>
      </trkpt>
      <trkpt lat="41.705700" lon="-8.101890">
        <ele>320.325</ele>
        <time>2020-07-15T09:04:16Z</time>
      </trkpt>
      <trkpt lat="41.705710" lon="-8.101970">
        <ele>321.150</ele>
        <time>2020-07-15T09:04:36Z</time>
      </trkpt>
      <trkpt lat="41.705840" lon="-8.102220">
        <ele>326.158</ele>
        <time>2020-07-15T09:04:56Z</time>
      </trkpt>
      <trkpt lat="41.705800" lon="-8.102790">
        <ele>319.775</ele>
        <time>2020-07-15T09:05:16Z</time>
      </trkpt>
      <trkpt lat="41.705810" lon="-8.102870">
        <ele>319.735</ele>
        <time>2020-07-15T09:05:36Z</time>
      </trkpt>
      <trkpt lat="41.705970" lon="-8.103190">
        <ele>327.665</ele>
        <time>2020-07-15T09:05:56Z</time>
      </trkpt>
      <trkpt lat="41.705980" lon="-8.103300">
        <ele>328.776</ele>
        <time>2020-07-15T09:06:16Z</time>
      </trkpt>
      <trkpt lat="41.705880" lon="-8.103450">
        <ele>324.297</ele>
        <time>2020-07-15T09:06:36Z</time>
      </trkpt>
      <trkpt lat="41.705600" lon="-8.103710">
        <ele>312.223</ele>
        <time>2020-07-15T09:06:56Z</time>
      </trkpt>
      <trkpt lat="41.705310" lon="-8.104300">
        <ele>310.425</ele>
        <time>2020-07-15T09:07:16Z</time>
      </trkpt>
      <trkpt lat="41.705170" lon="-8.104700">
        <ele>310.208</ele>
        <time>2020-07-15T09:07:36Z</time>
      </trkpt>
      <trkpt lat="41.705120" lon="-8.104930">
        <ele>309.644</ele>
        <time>2020-07-15T09:07:56Z</time>
      </trkpt>
      <trkpt lat="41.704990" lon="-8.105090">
        <ele>306.551</ele>
        <time>2020-07-15T09:08:16Z</time>
      </trkpt>
      <trkpt lat="41.704750" lon="-8.105290">
        <ele>302.796</ele>
        <time>2020-07-15T09:08:36Z</time>
      </trkpt>
      <trkpt lat="41.704620" lon="-8.105350">
        <ele>300.754</ele>
        <time>2020-07-15T09:08:56Z</time>
      </trkpt>
      <trkpt lat="41.704440" lon="-8.105570">
        <ele>298.941</ele>
        <time>2020-07-15T09:09:16Z</time>
      </trkpt>
      <trkpt lat="41.704250" lon="-8.105850">
        <ele>294.441</ele>
        <time>2020-07-15T09:09:36Z</time>
      </trkpt>
      <trkpt lat="41.704130" lon="-8.105980">
        <ele>290.041</ele>
        <time>2020-07-15T09:09:56Z</time>
      </trkpt>
      <trkpt lat="41.703970" lon="-8.106210">
        <ele>284.452</ele>
        <time>2020-07-15T09:10:16Z</time>
      </trkpt>
      <trkpt lat="41.703950" lon="-8.106300">
        <ele>284.318</ele>
        <time>2020-07-15T09:10:36Z</time>
      </trkpt>
      <trkpt lat="41.703950" lon="-8.106440">
        <ele>284.898</ele>
        <time>2020-07-15T09:10:56Z</time>
      </trkpt>
      <trkpt lat="41.704130" lon="-8.106550">
        <ele>289.917</ele>
        <time>2020-07-15T09:11:16Z</time>
      </trkpt>
      <trkpt lat="41.704230" lon="-8.106570">
        <ele>292.808</ele>
        <time>2020-07-15T09:11:36Z</time>
      </trkpt>
      <trkpt lat="41.704370" lon="-8.106670">
        <ele>296.166</ele>
        <time>2020-07-15T09:11:56Z</time>
      </trkpt>
      <trkpt lat="41.704410" lon="-8.106750">
        <ele>296.853</ele>
        <time>2020-07-15T09:12:16Z</time>
      </trkpt>
      <trkpt lat="41.704410" lon="-8.106900">
        <ele>296.388</ele>
        <time>2020-07-15T09:12:36Z</time>
      </trkpt>
      <trkpt lat="41.704440" lon="-8.107070">
        <ele>296.416</ele>
        <time>2020-07-15T09:12:56Z</time>
      </trkpt>
      <trkpt lat="41.704430" lon="-8.107680">
        <ele>298.193</ele>
        <time>2020-07-15T09:13:16Z</time>
      </trkpt>
      <trkpt lat="41.704460" lon="-8.107740">
        <ele>299.493</ele>
        <time>2020-07-15T09:13:36Z</time>
      </trkpt>
      <trkpt lat="41.704710" lon="-8.107840">
        <ele>307.263</ele>
        <time>2020-07-15T09:13:56Z</time>
      </trkpt>
      <trkpt lat="41.704770" lon="-8.107890">
        <ele>308.824</ele>
        <time>2020-07-15T09:14:16Z</time>
      </trkpt>
      <trkpt lat="41.704870" lon="-8.108050">
        <ele>310.326</ele>
        <time>2020-07-15T09:14:36Z</time>
      </trkpt>
      <trkpt lat="41.704900" lon="-8.108160">
        <ele>310.647</ele>
        <time>2020-07-15T09:14:56Z</time>
      </trkpt>
      <trkpt lat="41.704920" lon="-8.108460">
        <ele>311.311</ele>
        <time>2020-07-15T09:15:16Z</time>
      </trkpt>
      <trkpt lat="41.704680" lon="-8.108730">
        <ele>306.408</ele>
        <time>2020-07-15T09:15:36Z</time>
      </trkpt>
      <trkpt lat="41.704550" lon="-8.109080">
        <ele>306.897</ele>
        <time>2020-07-15T09:15:56Z</time>
      </trkpt>
      <trkpt lat="41.704500" lon="-8.109360">
        <ele>305.544</ele>
        <time>2020-07-15T09:16:16Z</time>
      </trkpt>
      <trkpt lat="41.704530" lon="-8.109830">
        <ele>303.839</ele>
        <time>2020-07-15T09:16:36Z</time>
      </trkpt>
      <trkpt lat="41.704610" lon="-8.110260">
        <ele>303.127</ele>
        <time>2020-07-15T09:16:56Z</time>
      </trkpt>
      <trkpt lat="41.704590" lon="-8.110320">
        <ele>301.824</ele>
        <time>2020-07-15T09:17:16Z</time>
      </trkpt>
      <trkpt lat="41.704530" lon="-8.110340">
        <ele>299.774</ele>
        <time>2020-07-15T09:17:36Z</time>
      </trkpt>
      <trkpt lat="41.704470" lon="-8.110300">
        <ele>297.984</ele>
        <time>2020-07-15T09:17:56Z</time>
      </trkpt>
      <trkpt lat="41.704390" lon="-8.110170">
        <ele>296.895</ele>
        <time>2020-07-15T09:18:16Z</time>
      </trkpt>
      <trkpt lat="41.704330" lon="-8.110140">
        <ele>295.413</ele>
        <time>2020-07-15T09:18:36Z</time>
      </trkpt>
      <trkpt lat="41.704200" lon="-8.110170">
        <ele>292.143</ele>
        <time>2020-07-15T09:18:56Z</time>
      </trkpt>
      <trkpt lat="41.703980" lon="-8.110170">
        <ele>288.807</ele>
        <time>2020-07-15T09:19:16Z</time>
      </trkpt>
      <trkpt lat="41.703790" lon="-8.110220">
        <ele>289.608</ele>
        <time>2020-07-15T09:19:36Z</time>
      </trkpt>
      <trkpt lat="41.703650" lon="-8.110310">
        <ele>294.436</ele>
        <time>2020-07-15T09:19:56Z</time>
      </trkpt>
      <trkpt lat="41.703490" lon="-8.110450">
        <ele>300.283</ele>
        <time>2020-07-15T09:20:16Z</time>
      </trkpt>
      <trkpt lat="41.703660" lon="-8.111050">
        <ele>315.378</ele>
        <time>2020-07-15T09:20:36Z</time>
      </trkpt>
      <trkpt lat="41.703720" lon="-8.111350">
        <ele>317.446</ele>
        <time>2020-07-15T09:20:56Z</time>
      </trkpt>
      <trkpt lat="41.703710" lon="-8.111660">
        <ele>319.913</ele>
        <time>2020-07-15T09:21:16Z</time>
      </trkpt>
      <trkpt lat="41.703670" lon="-8.112030">
        <ele>321.933</ele>
        <time>2020-07-15T09:21:36Z</time>
      </trkpt>
      <trkpt lat="41.703630" lon="-8.112190">
        <ele>322.663</ele>
        <time>2020-07-15T09:21:56Z</time>
      </trkpt>
      <trkpt lat="41.703500" lon="-8.112390">
        <ele>324.074</ele>
        <time>2020-07-15T09:22:16Z</time>
      </trkpt>
      <trkpt lat="41.703250" lon="-8.112650">
        <ele>331.217</ele>
        <time>2020-07-15T09:22:36Z</time>
      </trkpt>
      <trkpt lat="41.703180" lon="-8.112640">
        <ele>334.787</ele>
        <time>2020-07-15T09:22:56Z</time>
      </trkpt>
      <trkpt lat="41.703140" lon="-8.112580">
        <ele>336.715</ele>
        <time>2020-07-15T09:23:16Z</time>
      </trkpt>
      <trkpt lat="41.703120" lon="-8.112480">
        <ele>337.908</ele>
        <time>2020-07-15T09:23:36Z</time>
      </trkpt>
      <trkpt lat="41.703110" lon="-8.112310">
        <ele>339.876</ele>
        <time>2020-07-15T09:23:56Z</time>
      </trkpt>
      <trkpt lat="41.703150" lon="-8.111890">
        <ele>341.023</ele>
        <time>2020-07-15T09:24:16Z</time>
      </trkpt>
      <trkpt lat="41.703140" lon="-8.111700">
        <ele>341.438</ele>
        <time>2020-07-15T09:24:36Z</time>
      </trkpt>
      <trkpt lat="41.703060" lon="-8.111660">
        <ele>341.876</ele>
        <time>2020-07-15T09:24:56Z</time>
      </trkpt>
      <trkpt lat="41.702960" lon="-8.111710">
        <ele>341.353</ele>
        <time>2020-07-15T09:25:16Z</time>
      </trkpt>
      <trkpt lat="41.702860" lon="-8.111830">
        <ele>341.513</ele>
        <time>2020-07-15T09:25:36Z</time>
      </trkpt>
      <trkpt lat="41.702700" lon="-8.112100">
        <ele>342.673</ele>
        <time>2020-07-15T09:25:56Z</time>
      </trkpt>
      <trkpt lat="41.702610" lon="-8.112290">
        <ele>343.994</ele>
        <time>2020-07-15T09:26:16Z</time>
      </trkpt>
      <trkpt lat="41.702560" lon="-8.112440">
        <ele>346.264</ele>
        <time>2020-07-15T09:26:36Z</time>
      </trkpt>
      <trkpt lat="41.702530" lon="-8.112630">
        <ele>350.106</ele>
        <time>2020-07-15T09:26:56Z</time>
      </trkpt>
      <trkpt lat="41.702530" lon="-8.112780">
        <ele>353.516</ele>
        <time>2020-07-15T09:27:16Z</time>
      </trkpt>
      <trkpt lat="41.702460" lon="-8.112900">
        <ele>355.608</ele>
        <time>2020-07-15T09:27:36Z</time>
      </trkpt>
      <trkpt lat="41.702440" lon="-8.113010">
        <ele>357.351</ele>
        <time>2020-07-15T09:27:56Z</time>
      </trkpt>
      <trkpt lat="41.702390" lon="-8.113060">
        <ele>358.198</ele>
        <time>2020-07-15T09:28:16Z</time>
      </trkpt>
      <trkpt lat="41.702170" lon="-8.113440">
        <ele>373.033</ele>
        <time>2020-07-15T09:28:36Z</time>
      </trkpt>
      <trkpt lat="41.702000" lon="-8.113500">
        <ele>378.051</ele>
        <time>2020-07-15T09:28:56Z</time>
      </trkpt>
      <trkpt lat="41.701600" lon="-8.113550">
        <ele>380.648</ele>
        <time>2020-07-15T09:29:16Z</time>
      </trkpt>
      <trkpt lat="41.701440" lon="-8.113530">
        <ele>374.068</ele>
        <time>2020-07-15T09:29:36Z</time>
      </trkpt>
      <trkpt lat="41.701360" lon="-8.113540">
        <ele>371.688</ele>
        <time>2020-07-15T09:29:56Z</time>
      </trkpt>
      <trkpt lat="41.701210" lon="-8.113640">
        <ele>369.729</ele>
        <time>2020-07-15T09:30:16Z</time>
      </trkpt>
      <trkpt lat="41.701190" lon="-8.113680">
        <ele>370.182</ele>
        <time>2020-07-15T09:30:36Z</time>
      </trkpt>
      <trkpt lat="41.701190" lon="-8.113900">
        <ele>376.443</ele>
        <time>2020-07-15T09:30:56Z</time>
      </trkpt>
      <trkpt lat="41.701220" lon="-8.114040">
        <ele>380.817</ele>
        <time>2020-07-15T09:31:16Z</time>
      </trkpt>
      <trkpt lat="41.701280" lon="-8.114180">
        <ele>385.508</ele>
        <time>2020-07-15T09:31:36Z</time>
      </trkpt>
      <trkpt lat="41.701480" lon="-8.114320">
        <ele>392.483</ele>
        <time>2020-07-15T09:31:56Z</time>
      </trkpt>
      <trkpt lat="41.701750" lon="-8.114590">
        <ele>403.350</ele>
        <time>2020-07-15T09:32:16Z</time>
      </trkpt>
      <trkpt lat="41.701810" lon="-8.114770">
        <ele>407.065</ele>
        <time>2020-07-15T09:32:36Z</time>
      </trkpt>
      <trkpt lat="41.701850" lon="-8.115050">
        <ele>411.683</ele>
        <time>2020-07-15T09:32:56Z</time>
      </trkpt>
      <trkpt lat="41.701850" lon="-8.115320">
        <ele>418.610</ele>
        <time>2020-07-15T09:33:16Z</time>
      </trkpt>
      <trkpt lat="41.701780" lon="-8.115730">
        <ele>423.240</ele>
        <time>2020-07-15T09:33:36Z</time>
      </trkpt>
      <trkpt lat="41.701680" lon="-8.116130">
        <ele>422.270</ele>
        <time>2020-07-15T09:33:56Z</time>
      </trkpt>
      <trkpt lat="41.701490" lon="-8.116560">
        <ele>424.841</ele>
        <time>2020-07-15T09:34:16Z</time>
      </trkpt>
      <trkpt lat="41.701400" lon="-8.116660">
        <ele>426.898</ele>
        <time>2020-07-15T09:34:36Z</time>
      </trkpt>
      <trkpt lat="41.701270" lon="-8.116720">
        <ele>426.915</ele>
        <time>2020-07-15T09:34:56Z</time>
      </trkpt>
      <trkpt lat="41.701190" lon="-8.116840">
        <ele>427.326</ele>
        <time>2020-07-15T09:35:16Z</time>
      </trkpt>
      <trkpt lat="41.701090" lon="-8.117060">
        <ele>426.408</ele>
        <time>2020-07-15T09:35:36Z</time>
      </trkpt>
      <trkpt lat="41.701040" lon="-8.117240">
        <ele>425.064</ele>
        <time>2020-07-15T09:35:56Z</time>
      </trkpt>
      <trkpt lat="41.701040" lon="-8.117340">
        <ele>425.551</ele>
        <time>2020-07-15T09:36:16Z</time>
      </trkpt>
      <trkpt lat="41.701070" lon="-8.117510">
        <ele>427.086</ele>
        <time>2020-07-15T09:36:36Z</time>
      </trkpt>
      <trkpt lat="41.701110" lon="-8.117560">
        <ele>428.474</ele>
        <time>2020-07-15T09:36:56Z</time>
      </trkpt>
      <trkpt lat="41.701150" lon="-8.117710">
        <ele>430.731</ele>
        <time>2020-07-15T09:37:16Z</time>
      </trkpt>
      <trkpt lat="41.701090" lon="-8.118020">
        <ele>430.481</ele>
        <time>2020-07-15T09:37:36Z</time>
      </trkpt>
      <trkpt lat="41.701000" lon="-8.118150">
        <ele>428.241</ele>
        <time>2020-07-15T09:37:56Z</time>
      </trkpt>
      <trkpt lat="41.700810" lon="-8.118320">
        <ele>424.782</ele>
        <time>2020-07-15T09:38:16Z</time>
      </trkpt>
      <trkpt lat="41.700660" lon="-8.118400">
        <ele>421.812</ele>
        <time>2020-07-15T09:38:36Z</time>
      </trkpt>
      <trkpt lat="41.700530" lon="-8.118520">
        <ele>418.332</ele>
        <time>2020-07-15T09:38:56Z</time>
      </trkpt>
      <trkpt lat="41.700490" lon="-8.118530">
        <ele>417.105</ele>
        <time>2020-07-15T09:39:16Z</time>
      </trkpt>
      <trkpt lat="41.700420" lon="-8.118600">
        <ele>414.708</ele>
        <time>2020-07-15T09:39:36Z</time>
      </trkpt>
      <trkpt lat="41.700390" lon="-8.118690">
        <ele>413.016</ele>
        <time>2020-07-15T09:39:56Z</time>
      </trkpt>
      <trkpt lat="41.700450" lon="-8.118970">
        <ele>413.113</ele>
        <time>2020-07-15T09:40:16Z</time>
      </trkpt>
      <trkpt lat="41.700610" lon="-8.119090">
        <ele>416.558</ele>
        <time>2020-07-15T09:40:36Z</time>
      </trkpt>
      <trkpt lat="41.700720" lon="-8.119120">
        <ele>417.996</ele>
        <time>2020-07-15T09:40:56Z</time>
      </trkpt>
      <trkpt lat="41.700890" lon="-8.119210">
        <ele>420.373</ele>
        <time>2020-07-15T09:41:16Z</time>
      </trkpt>
      <trkpt lat="41.700920" lon="-8.119300">
        <ele>421.583</ele>
        <time>2020-07-15T09:41:36Z</time>
      </trkpt>
      <trkpt lat="41.700910" lon="-8.119360">
        <ele>422.013</ele>
        <time>2020-07-15T09:41:56Z</time>
      </trkpt>
      <trkpt lat="41.700870" lon="-8.119420">
        <ele>422.174</ele>
        <time>2020-07-15T09:42:16Z</time>
      </trkpt>
      <trkpt lat="41.700800" lon="-8.119480">
        <ele>422.198</ele>
        <time>2020-07-15T09:42:36Z</time>
      </trkpt>
      <trkpt lat="41.700360" lon="-8.119690">
        <ele>420.515</ele>
        <time>2020-07-15T09:42:56Z</time>
      </trkpt>
      <trkpt lat="41.699650" lon="-8.120060">
        <ele>414.726</ele>
        <time>2020-07-15T09:43:16Z</time>
      </trkpt>
      <trkpt lat="41.699570" lon="-8.120200">
        <ele>415.408</ele>
        <time>2020-07-15T09:43:36Z</time>
      </trkpt>
      <trkpt lat="41.699460" lon="-8.120460">
        <ele>419.894</ele>
        <time>2020-07-15T09:43:56Z</time>
      </trkpt>
      <trkpt lat="41.699400" lon="-8.120830">
        <ele>425.781</ele>
        <time>2020-07-15T09:44:16Z</time>
      </trkpt>
      <trkpt lat="41.699420" lon="-8.121000">
        <ele>426.956</ele>
        <time>2020-07-15T09:44:36Z</time>
      </trkpt>
      <trkpt lat="41.699500" lon="-8.121360">
        <ele>430.094</ele>
        <time>2020-07-15T09:44:56Z</time>
      </trkpt>
      <trkpt lat="41.699480" lon="-8.121460">
        <ele>430.931</ele>
        <time>2020-07-15T09:45:16Z</time>
      </trkpt>
      <trkpt lat="41.699290" lon="-8.121630">
        <ele>429.621</ele>
        <time>2020-07-15T09:45:36Z</time>
      </trkpt>
      <trkpt lat="41.699130" lon="-8.121800">
        <ele>429.851</ele>
        <time>2020-07-15T09:45:56Z</time>
      </trkpt>
      <trkpt lat="41.699050" lon="-8.121970">
        <ele>431.072</ele>
        <time>2020-07-15T09:46:16Z</time>
      </trkpt>
      <trkpt lat="41.699030" lon="-8.122080">
        <ele>432.341</ele>
        <time>2020-07-15T09:46:36Z</time>
      </trkpt>
      <trkpt lat="41.699090" lon="-8.122950">
        <ele>441.681</ele>
        <time>2020-07-15T09:46:56Z</time>
      </trkpt>
      <trkpt lat="41.699000" lon="-8.123240">
        <ele>441.909</ele>
        <time>2020-07-15T09:47:16Z</time>
      </trkpt>
      <trkpt lat="41.699010" lon="-8.123340">
        <ele>442.308</ele>
        <time>2020-07-15T09:47:36Z</time>
      </trkpt>
      <trkpt lat="41.699090" lon="-8.123450">
        <ele>443.639</ele>
        <time>2020-07-15T09:47:56Z</time>
      </trkpt>
      <trkpt lat="41.699310" lon="-8.123650">
        <ele>447.246</ele>
        <time>2020-07-15T09:48:16Z</time>
      </trkpt>
      <trkpt lat="41.699380" lon="-8.124130">
        <ele>444.721</ele>
        <time>2020-07-15T09:48:36Z</time>
      </trkpt>
      <trkpt lat="41.699310" lon="-8.124420">
        <ele>445.459</ele>
        <time>2020-07-15T09:48:56Z</time>
      </trkpt>
      <trkpt lat="41.699240" lon="-8.124530">
        <ele>446.876</ele>
        <time>2020-07-15T09:49:16Z</time>
      </trkpt>
      <trkpt lat="41.699160" lon="-8.124610">
        <ele>448.646</ele>
        <time>2020-07-15T09:49:36Z</time>
      </trkpt>
      <trkpt lat="41.699020" lon="-8.124690">
        <ele>451.356</ele>
        <time>2020-07-15T09:49:56Z</time>
      </trkpt>
      <trkpt lat="41.698740" lon="-8.124790">
        <ele>455.167</ele>
        <time>2020-07-15T09:50:16Z</time>
      </trkpt>
      <trkpt lat="41.698550" lon="-8.124820">
        <ele>455.826</ele>
        <time>2020-07-15T09:50:36Z</time>
      </trkpt>
      <trkpt lat="41.698470" lon="-8.124860">
        <ele>456.547</ele>
        <time>2020-07-15T09:50:56Z</time>
      </trkpt>
      <trkpt lat="41.698370" lon="-8.124990">
        <ele>459.111</ele>
        <time>2020-07-15T09:51:16Z</time>
      </trkpt>
      <trkpt lat="41.698270" lon="-8.125060">
        <ele>462.008</ele>
        <time>2020-07-15T09:51:36Z</time>
      </trkpt>
      <trkpt lat="41.698150" lon="-8.125100">
        <ele>463.967</ele>
        <time>2020-07-15T09:51:56Z</time>
      </trkpt>
      <trkpt lat="41.697830" lon="-8.125130">
        <ele>464.474</ele>
        <time>2020-07-15T09:52:16Z</time>
      </trkpt>
      <trkpt lat="41.697720" lon="-8.125160">
        <ele>464.069</ele>
        <time>2020-07-15T09:52:36Z</time>
      </trkpt>
      <trkpt lat="41.697520" lon="-8.125260">
        <ele>462.937</ele>
        <time>2020-07-15T09:52:56Z</time>
      </trkpt>
      <trkpt lat="41.697410" lon="-8.125370">
        <ele>464.234</ele>
        <time>2020-07-15T09:53:16Z</time>
      </trkpt>
      <trkpt lat="41.697310" lon="-8.125550">
        <ele>468.584</ele>
        <time>2020-07-15T09:53:36Z</time>
      </trkpt>
      <trkpt lat="41.697260" lon="-8.125700">
        <ele>472.114</ele>
        <time>2020-07-15T09:53:56Z</time>
      </trkpt>
      <trkpt lat="41.697130" lon="-8.125930">
        <ele>474.845</ele>
        <time>2020-07-15T09:54:16Z</time>
      </trkpt>
      <trkpt lat="41.696840" lon="-8.126340">
        <ele>472.636</ele>
        <time>2020-07-15T09:54:36Z</time>
      </trkpt>
      <trkpt lat="41.696820" lon="-8.126430">
        <ele>472.817</ele>
        <time>2020-07-15T09:54:56Z</time>
      </trkpt>
      <trkpt lat="41.696840" lon="-8.126660">
        <ele>475.618</ele>
        <time>2020-07-15T09:55:16Z</time>
      </trkpt>
      <trkpt lat="41.696830" lon="-8.126810">
        <ele>477.808</ele>
        <time>2020-07-15T09:55:36Z</time>
      </trkpt>
      <trkpt lat="41.696770" lon="-8.126940">
        <ele>478.598</ele>
        <time>2020-07-15T09:55:56Z</time>
      </trkpt>
      <trkpt lat="41.696630" lon="-8.127170">
        <ele>479.475</ele>
        <time>2020-07-15T09:56:16Z</time>
      </trkpt>
      <trkpt lat="41.696550" lon="-8.127340">
        <ele>481.090</ele>
        <time>2020-07-15T09:56:36Z</time>
      </trkpt>
      <trkpt lat="41.696540" lon="-8.127420">
        <ele>482.398</ele>
        <time>2020-07-15T09:56:56Z</time>
      </trkpt>
      <trkpt lat="41.696580" lon="-8.127500">
        <ele>484.465</ele>
        <time>2020-07-15T09:57:16Z</time>
      </trkpt>
      <trkpt lat="41.696660" lon="-8.127570">
        <ele>487.445</ele>
        <time>2020-07-15T09:57:36Z</time>
      </trkpt>
      <trkpt lat="41.696700" lon="-8.127630">
        <ele>489.495</ele>
        <time>2020-07-15T09:57:56Z</time>
      </trkpt>
      <trkpt lat="41.696200" lon="-8.128500">
        <ele>489.096</ele>
        <time>2020-07-15T09:58:16Z</time>
      </trkpt>
      <trkpt lat="41.695670" lon="-8.129880">
        <ele>486.744</ele>
        <time>2020-07-15T09:58:36Z</time>
      </trkpt>
      <trkpt lat="41.695620" lon="-8.130180">
        <ele>482.005</ele>
        <time>2020-07-15T09:58:56Z</time>
      </trkpt>
      <trkpt lat="41.695660" lon="-8.130370">
        <ele>479.815</ele>
        <time>2020-07-15T09:59:16Z</time>
      </trkpt>
      <trkpt lat="41.695800" lon="-8.130630">
        <ele>476.308</ele>
        <time>2020-07-15T09:59:36Z</time>
      </trkpt>
      <trkpt lat="41.696020" lon="-8.130800">
        <ele>477.719</ele>
        <time>2020-07-15T09:59:56Z</time>
      </trkpt>
      <trkpt lat="41.696370" lon="-8.130990">
        <ele>478.126</ele>
        <time>2020-07-15T10:00:16Z</time>
      </trkpt>
      <trkpt lat="41.696660" lon="-8.131100">
        <ele>477.331</ele>
        <time>2020-07-15T10:00:36Z</time>
      </trkpt>
      <trkpt lat="41.696910" lon="-8.131270">
        <ele>480.889</ele>
        <time>2020-07-15T10:00:56Z</time>
      </trkpt>
      <trkpt lat="41.697190" lon="-8.131510">
        <ele>484.256</ele>
        <time>2020-07-15T10:01:16Z</time>
      </trkpt>
      <trkpt lat="41.697390" lon="-8.131750">
        <ele>487.046</ele>
        <time>2020-07-15T10:01:36Z</time>
      </trkpt>
      <trkpt lat="41.697690" lon="-8.132190">
        <ele>484.656</ele>
        <time>2020-07-15T10:01:56Z</time>
      </trkpt>
      <trkpt lat="41.697850" lon="-8.132340">
        <ele>483.997</ele>
        <time>2020-07-15T10:02:16Z</time>
      </trkpt>
      <trkpt lat="41.697960" lon="-8.132350">
        <ele>484.635</ele>
        <time>2020-07-15T10:02:36Z</time>
      </trkpt>
      <trkpt lat="41.698040" lon="-8.132320">
        <ele>486.386</ele>
        <time>2020-07-15T10:02:56Z</time>
      </trkpt>
      <trkpt lat="41.698370" lon="-8.132100">
        <ele>490.314</ele>
        <time>2020-07-15T10:03:16Z</time>
      </trkpt>
      <trkpt lat="41.698530" lon="-8.132030">
        <ele>493.008</ele>
        <time>2020-07-15T10:03:36Z</time>
      </trkpt>
      <trkpt lat="41.698790" lon="-8.132000">
        <ele>496.458</ele>
        <time>2020-07-15T10:03:56Z</time>
      </trkpt>
      <trkpt lat="41.699120" lon="-8.132000">
        <ele>497.055</ele>
        <time>2020-07-15T10:04:16Z</time>
      </trkpt>
      <trkpt lat="41.699490" lon="-8.132140">
        <ele>492.370</ele>
        <time>2020-07-15T10:04:36Z</time>
      </trkpt>
      <trkpt lat="41.699640" lon="-8.132140">
        <ele>494.818</ele>
        <time>2020-07-15T10:04:56Z</time>
      </trkpt>
      <trkpt lat="41.699830" lon="-8.132080">
        <ele>500.245</ele>
        <time>2020-07-15T10:05:16Z</time>
      </trkpt>
      <trkpt lat="41.699990" lon="-8.132090">
        <ele>502.215</ele>
        <time>2020-07-15T10:05:36Z</time>
      </trkpt>
      <trkpt lat="41.700350" lon="-8.132360">
        <ele>495.765</ele>
        <time>2020-07-15T10:05:56Z</time>
      </trkpt>
      <trkpt lat="41.700480" lon="-8.132380">
        <ele>497.176</ele>
        <time>2020-07-15T10:06:16Z</time>
      </trkpt>
      <trkpt lat="41.700580" lon="-8.132370">
        <ele>499.281</ele>
        <time>2020-07-15T10:06:36Z</time>
      </trkpt>
      <trkpt lat="41.700800" lon="-8.132520">
        <ele>498.661</ele>
        <time>2020-07-15T10:06:56Z</time>
      </trkpt>
      <trkpt lat="41.700940" lon="-8.132540">
        <ele>497.317</ele>
        <time>2020-07-15T10:07:16Z</time>
      </trkpt>
      <trkpt lat="41.701350" lon="-8.132470">
        <ele>497.108</ele>
        <time>2020-07-15T10:07:36Z</time>
      </trkpt>
      <trkpt lat="41.701710" lon="-8.132470">
        <ele>501.143</ele>
        <time>2020-07-15T10:07:56Z</time>
      </trkpt>
      <trkpt lat="41.701790" lon="-8.132530">
        <ele>503.250</ele>
        <time>2020-07-15T10:08:16Z</time>
      </trkpt>
      <trkpt lat="41.701820" lon="-8.132600">
        <ele>505.295</ele>
        <time>2020-07-15T10:08:36Z</time>
      </trkpt>
      <trkpt lat="41.701820" lon="-8.132700">
        <ele>507.163</ele>
        <time>2020-07-15T10:08:56Z</time>
      </trkpt>
      <trkpt lat="41.701760" lon="-8.132800">
        <ele>507.350</ele>
        <time>2020-07-15T10:09:16Z</time>
      </trkpt>
      <trkpt lat="41.701480" lon="-8.133080">
        <ele>510.290</ele>
        <time>2020-07-15T10:09:36Z</time>
      </trkpt>
      <trkpt lat="41.701320" lon="-8.133210">
        <ele>511.380</ele>
        <time>2020-07-15T10:09:56Z</time>
      </trkpt>
      <trkpt lat="41.700690" lon="-8.133600">
        <ele>505.661</ele>
        <time>2020-07-15T10:10:16Z</time>
      </trkpt>
      <trkpt lat="41.700280" lon="-8.133940">
        <ele>502.221</ele>
        <time>2020-07-15T10:10:36Z</time>
      </trkpt>
      <trkpt lat="41.700230" lon="-8.134050">
        <ele>503.341</ele>
        <time>2020-07-15T10:10:56Z</time>
      </trkpt>
      <trkpt lat="41.700120" lon="-8.134430">
        <ele>508.305</ele>
        <time>2020-07-15T10:11:16Z</time>
      </trkpt>
      <trkpt lat="41.700040" lon="-8.134570">
        <ele>508.508</ele>
        <time>2020-07-15T10:11:36Z</time>
      </trkpt>
      <trkpt lat="41.699480" lon="-8.135140">
        <ele>508.317</ele>
        <time>2020-07-15T10:11:56Z</time>
      </trkpt>
      <trkpt lat="41.698780" lon="-8.136110">
        <ele>512.044</ele>
        <time>2020-07-15T10:12:16Z</time>
      </trkpt>
      <trkpt lat="41.697810" lon="-8.136690">
        <ele>510.639</ele>
        <time>2020-07-15T10:12:36Z</time>
      </trkpt>
      <trkpt lat="41.697660" lon="-8.136900">
        <ele>509.467</ele>
        <time>2020-07-15T10:12:56Z</time>
      </trkpt>
      <trkpt lat="41.697420" lon="-8.137290">
        <ele>509.124</ele>
        <time>2020-07-15T10:13:16Z</time>
      </trkpt>
      <trkpt lat="41.697230" lon="-8.137450">
        <ele>507.654</ele>
        <time>2020-07-15T10:13:36Z</time>
      </trkpt>
      <trkpt lat="41.696860" lon="-8.137700">
        <ele>504.764</ele>
        <time>2020-07-15T10:13:56Z</time>
      </trkpt>
      <trkpt lat="41.696740" lon="-8.137740">
        <ele>505.235</ele>
        <time>2020-07-15T10:14:16Z</time>
      </trkpt>
      <trkpt lat="41.696650" lon="-8.137750">
        <ele>505.426</ele>
        <time>2020-07-15T10:14:36Z</time>
      </trkpt>
      <trkpt lat="41.696370" lon="-8.137610">
        <ele>499.447</ele>
        <time>2020-07-15T10:14:56Z</time>
      </trkpt>
      <trkpt lat="41.696230" lon="-8.137610">
        <ele>498.211</ele>
        <time>2020-07-15T10:15:16Z</time>
      </trkpt>
      <trkpt lat="41.695990" lon="-8.137670">
        <ele>498.008</ele>
        <time>2020-07-15T10:15:36Z</time>
      </trkpt>
      <trkpt lat="41.695110" lon="-8.137960">
        <ele>490.747</ele>
        <time>2020-07-15T10:15:56Z</time>
      </trkpt>
      <trkpt lat="41.695000" lon="-8.138020">
        <ele>487.014</ele>
        <time>2020-07-15T10:16:16Z</time>
      </trkpt>
      <trkpt lat="41.694250" lon="-8.138820">
        <ele>488.429</ele>
        <time>2020-07-15T10:16:36Z</time>
      </trkpt>
      <trkpt lat="41.693860" lon="-8.139050">
        <ele>480.787</ele>
        <time>2020-07-15T10:16:56Z</time>
      </trkpt>
      <trkpt lat="41.693790" lon="-8.139110">
        <ele>479.724</ele>
        <time>2020-07-15T10:17:16Z</time>
      </trkpt>
      <trkpt lat="41.693740" lon="-8.139210">
        <ele>478.774</ele>
        <time>2020-07-15T10:17:36Z</time>
      </trkpt>
      <trkpt lat="41.693720" lon="-8.139360">
        <ele>477.724</ele>
        <time>2020-07-15T10:17:56Z</time>
      </trkpt>
      <trkpt lat="41.693730" lon="-8.140500">
        <ele>468.545</ele>
        <time>2020-07-15T10:18:16Z</time>
      </trkpt>
      <trkpt lat="41.693690" lon="-8.142020">
        <ele>461.962</ele>
        <time>2020-07-15T10:18:36Z</time>
      </trkpt>
      <trkpt lat="41.693630" lon="-8.142340">
        <ele>460.783</ele>
        <time>2020-07-15T10:18:56Z</time>
      </trkpt>
      <trkpt lat="41.693620" lon="-8.142650">
        <ele>462.411</ele>
        <time>2020-07-15T10:19:16Z</time>
      </trkpt>
      <trkpt lat="41.693580" lon="-8.142890">
        <ele>462.608</ele>
        <time>2020-07-15T10:19:36Z</time>
      </trkpt>
      <trkpt lat="41.693540" lon="-8.143030">
        <ele>462.061</ele>
        <time>2020-07-15T10:19:56Z</time>
      </trkpt>
      <trkpt lat="41.693510" lon="-8.143390">
        <ele>461.488</ele>
        <time>2020-07-15T10:20:16Z</time>
      </trkpt>
      <trkpt lat="41.693520" lon="-8.143730">
        <ele>460.263</ele>
        <time>2020-07-15T10:20:36Z</time>
      </trkpt>
      <trkpt lat="41.693510" lon="-8.144220">
        <ele>454.691</ele>
        <time>2020-07-15T10:20:56Z</time>
      </trkpt>
      <trkpt lat="41.693560" lon="-8.144930">
        <ele>438.898</ele>
        <time>2020-07-15T10:21:16Z</time>
      </trkpt>
      <trkpt lat="41.693620" lon="-8.145120">
        <ele>437.248</ele>
        <time>2020-07-15T10:21:36Z</time>
      </trkpt>
      <trkpt lat="41.693720" lon="-8.145300">
        <ele>436.628</ele>
        <time>2020-07-15T10:21:56Z</time>
      </trkpt>
      <trkpt lat="41.693990" lon="-8.145600">
        <ele>436.799</ele>
        <time>2020-07-15T10:22:16Z</time>
      </trkpt>
      <trkpt lat="41.694210" lon="-8.145900">
        <ele>433.866</ele>
        <time>2020-07-15T10:22:36Z</time>
      </trkpt>
      <trkpt lat="41.694430" lon="-8.146120">
        <ele>438.829</ele>
        <time>2020-07-15T10:22:56Z</time>
      </trkpt>
      <trkpt lat="41.694710" lon="-8.146300">
        <ele>436.221</ele>
        <time>2020-07-15T10:23:16Z</time>
      </trkpt>
      <trkpt lat="41.694840" lon="-8.146360">
        <ele>436.208</ele>
        <time>2020-07-15T10:23:36Z</time>
      </trkpt>
      <trkpt lat="41.695460" lon="-8.146450">
        <ele>437.531</ele>
        <time>2020-07-15T10:23:56Z</time>
      </trkpt>
      <trkpt lat="41.696050" lon="-8.146440">
        <ele>439.458</ele>
        <time>2020-07-15T10:24:16Z</time>
      </trkpt>
      <trkpt lat="41.696280" lon="-8.146400">
        <ele>442.043</ele>
        <time>2020-07-15T10:24:36Z</time>
      </trkpt>
      <trkpt lat="41.696620" lon="-8.146280">
        <ele>447.941</ele>
        <time>2020-07-15T10:24:56Z</time>
      </trkpt>
      <trkpt lat="41.696840" lon="-8.146180">
        <ele>452.788</ele>
        <time>2020-07-15T10:25:16Z</time>
      </trkpt>
      <trkpt lat="41.696900" lon="-8.146170">
        <ele>453.418</ele>
        <time>2020-07-15T10:25:36Z</time>
      </trkpt>
      <trkpt lat="41.696950" lon="-8.146190">
        <ele>453.828</ele>
        <time>2020-07-15T10:25:56Z</time>
      </trkpt>
      <trkpt lat="41.697010" lon="-8.146350">
        <ele>454.529</ele>
        <time>2020-07-15T10:26:16Z</time>
      </trkpt>
      <trkpt lat="41.697020" lon="-8.146460">
        <ele>455.579</ele>
        <time>2020-07-15T10:26:36Z</time>
      </trkpt>
      <trkpt lat="41.697010" lon="-8.146520">
        <ele>456.105</ele>
        <time>2020-07-15T10:26:56Z</time>
      </trkpt>
      <trkpt lat="41.696850" lon="-8.146750">
        <ele>454.525</ele>
        <time>2020-07-15T10:27:16Z</time>
      </trkpt>
      <trkpt lat="41.696690" lon="-8.146920">
        <ele>451.608</ele>
        <time>2020-07-15T10:27:36Z</time>
      </trkpt>
      <trkpt lat="41.696510" lon="-8.147050">
        <ele>447.662</ele>
        <time>2020-07-15T10:27:56Z</time>
      </trkpt>
      <trkpt lat="41.696430" lon="-8.147140">
        <ele>446.779</ele>
        <time>2020-07-15T10:28:16Z</time>
      </trkpt>
      <trkpt lat="41.696280" lon="-8.147410">
        <ele>447.744</ele>
        <time>2020-07-15T10:28:36Z</time>
      </trkpt>
      <trkpt lat="41.695980" lon="-8.148040">
        <ele>445.122</ele>
        <time>2020-07-15T10:28:56Z</time>
      </trkpt>
      <trkpt lat="41.695830" lon="-8.148670">
        <ele>451.429</ele>
        <time>2020-07-15T10:29:16Z</time>
      </trkpt>
      <trkpt lat="41.695790" lon="-8.148720">
        <ele>451.729</ele>
        <time>2020-07-15T10:29:36Z</time>
      </trkpt>
      <trkpt lat="41.695740" lon="-8.148750">
        <ele>451.139</ele>
        <time>2020-07-15T10:29:56Z</time>
      </trkpt>
      <trkpt lat="41.695440" lon="-8.148810">
        <ele>444.330</ele>
        <time>2020-07-15T10:30:16Z</time>
      </trkpt>
      <trkpt lat="41.695350" lon="-8.148880">
        <ele>442.926</ele>
        <time>2020-07-15T10:30:36Z</time>
      </trkpt>
      <trkpt lat="41.695200" lon="-8.149060">
        <ele>439.947</ele>
        <time>2020-07-15T10:30:56Z</time>
      </trkpt>
      <trkpt lat="41.695160" lon="-8.149170">
        <ele>439.611</ele>
        <time>2020-07-15T10:31:16Z</time>
      </trkpt>
      <trkpt lat="41.695150" lon="-8.149240">
        <ele>439.808</ele>
        <time>2020-07-15T10:31:36Z</time>
      </trkpt>
      <trkpt lat="41.695230" lon="-8.149720">
        <ele>446.657</ele>
        <time>2020-07-15T10:31:56Z</time>
      </trkpt>
      <trkpt lat="41.695200" lon="-8.149910">
        <ele>449.624</ele>
        <time>2020-07-15T10:32:16Z</time>
      </trkpt>
      <trkpt lat="41.695160" lon="-8.149980">
        <ele>449.829</ele>
        <time>2020-07-15T10:32:36Z</time>
      </trkpt>
      <trkpt lat="41.695100" lon="-8.150030">
        <ele>448.877</ele>
        <time>2020-07-15T10:32:56Z</time>
      </trkpt>
      <trkpt lat="41.694960" lon="-8.150110">
        <ele>445.014</ele>
        <time>2020-07-15T10:33:16Z</time>
      </trkpt>
      <trkpt lat="41.694870" lon="-8.150200">
        <ele>441.854</ele>
        <time>2020-07-15T10:33:36Z</time>
      </trkpt>
      <trkpt lat="41.694840" lon="-8.150260">
        <ele>441.134</ele>
        <time>2020-07-15T10:33:56Z</time>
      </trkpt>
      <trkpt lat="41.694810" lon="-8.150360">
        <ele>441.025</ele>
        <time>2020-07-15T10:34:16Z</time>
      </trkpt>
      <trkpt lat="41.694810" lon="-8.150810">
        <ele>445.595</ele>
        <time>2020-07-15T10:34:36Z</time>
      </trkpt>
      <trkpt lat="41.694640" lon="-8.151620">
        <ele>441.849</ele>
        <time>2020-07-15T10:34:56Z</time>
      </trkpt>
      <trkpt lat="41.694600" lon="-8.151950">
        <ele>443.623</ele>
        <time>2020-07-15T10:35:16Z</time>
      </trkpt>
      <trkpt lat="41.694430" lon="-8.152210">
        <ele>433.508</ele>
        <time>2020-07-15T10:35:36Z</time>
      </trkpt>
      <trkpt lat="41.694330" lon="-8.152490">
        <ele>430.764</ele>
        <time>2020-07-15T10:35:56Z</time>
      </trkpt>
      <trkpt lat="41.694300" lon="-8.152740">
        <ele>431.241</ele>
        <time>2020-07-15T10:36:16Z</time>
      </trkpt>
      <trkpt lat="41.694310" lon="-8.153080">
        <ele>431.716</ele>
        <time>2020-07-15T10:36:36Z</time>
      </trkpt>
      <trkpt lat="41.694240" lon="-8.153740">
        <ele>422.354</ele>
        <time>2020-07-15T10:36:56Z</time>
      </trkpt>
      <trkpt lat="41.694260" lon="-8.154130">
        <ele>422.851</ele>
        <time>2020-07-15T10:37:16Z</time>
      </trkpt>
      <trkpt lat="41.694180" lon="-8.154600">
        <ele>418.911</ele>
        <time>2020-07-15T10:37:36Z</time>
      </trkpt>
      <trkpt lat="41.694120" lon="-8.155220">
        <ele>417.511</ele>
        <time>2020-07-15T10:37:56Z</time>
      </trkpt>
      <trkpt lat="41.694040" lon="-8.155440">
        <ele>415.862</ele>
        <time>2020-07-15T10:38:16Z</time>
      </trkpt>
      <trkpt lat="41.693990" lon="-8.155530">
        <ele>414.733</ele>
        <time>2020-07-15T10:38:36Z</time>
      </trkpt>
      <trkpt lat="41.693970" lon="-8.155640">
        <ele>415.223</ele>
        <time>2020-07-15T10:38:56Z</time>
      </trkpt>
      <trkpt lat="41.694030" lon="-8.156270">
        <ele>423.815</ele>
        <time>2020-07-15T10:39:16Z</time>
      </trkpt>
      <trkpt lat="41.694020" lon="-8.156350">
        <ele>424.408</ele>
        <time>2020-07-15T10:39:36Z</time>
      </trkpt>
      <trkpt lat="41.693970" lon="-8.156480">
        <ele>424.958</ele>
        <time>2020-07-15T10:39:56Z</time>
      </trkpt>
      <trkpt lat="41.693870" lon="-8.156550">
        <ele>424.375</ele>
        <time>2020-07-15T10:40:16Z</time>
      </trkpt>
      <trkpt lat="41.693820" lon="-8.156550">
        <ele>424.240</ele>
        <time>2020-07-15T10:40:36Z</time>
      </trkpt>
      <trkpt lat="41.693620" lon="-8.156440">
        <ele>421.988</ele>
        <time>2020-07-15T10:40:56Z</time>
      </trkpt>
      <trkpt lat="41.693550" lon="-8.156440">
        <ele>422.515</ele>
        <time>2020-07-15T10:41:16Z</time>
      </trkpt>
      <trkpt lat="41.692980" lon="-8.156730">
        <ele>425.115</ele>
        <time>2020-07-15T10:41:36Z</time>
      </trkpt>
      <trkpt lat="41.692800" lon="-8.156850">
        <ele>423.155</ele>
        <time>2020-07-15T10:41:56Z</time>
      </trkpt>
      <trkpt lat="41.692630" lon="-8.157020">
        <ele>422.276</ele>
        <time>2020-07-15T10:42:16Z</time>
      </trkpt>
      <trkpt lat="41.692460" lon="-8.157270">
        <ele>422.348</ele>
        <time>2020-07-15T10:42:36Z</time>
      </trkpt>
      <trkpt lat="41.692440" lon="-8.157370">
        <ele>422.261</ele>
        <time>2020-07-15T10:42:56Z</time>
      </trkpt>
      <trkpt lat="41.692460" lon="-8.157630">
        <ele>423.717</ele>
        <time>2020-07-15T10:43:16Z</time>
      </trkpt>
      <trkpt lat="41.692450" lon="-8.157940">
        <ele>426.508</ele>
        <time>2020-07-15T10:43:36Z</time>
      </trkpt>
      <trkpt lat="41.692430" lon="-8.158040">
        <ele>427.529</ele>
        <time>2020-07-15T10:43:56Z</time>
      </trkpt>
      <trkpt lat="41.692330" lon="-8.158140">
        <ele>427.576</ele>
        <time>2020-07-15T10:44:16Z</time>
      </trkpt>
      <trkpt lat="41.692210" lon="-8.158160">
        <ele>425.731</ele>
        <time>2020-07-15T10:44:36Z</time>
      </trkpt>
      <trkpt lat="41.691720" lon="-8.158160">
        <ele>420.119</ele>
        <time>2020-07-15T10:44:56Z</time>
      </trkpt>
      <trkpt lat="41.691590" lon="-8.158110">
        <ele>418.996</ele>
        <time>2020-07-15T10:45:16Z</time>
      </trkpt>
      <trkpt lat="41.691380" lon="-8.157990">
        <ele>417.456</ele>
        <time>2020-07-15T10:45:36Z</time>
      </trkpt>
      <trkpt lat="41.691290" lon="-8.157990">
        <ele>416.496</ele>
        <time>2020-07-15T10:45:56Z</time>
      </trkpt>
      <trkpt lat="41.691240" lon="-8.158040">
        <ele>416.247</ele>
        <time>2020-07-15T10:46:16Z</time>
      </trkpt>
      <trkpt lat="41.690890" lon="-8.159090">
        <ele>423.262</ele>
        <time>2020-07-15T10:46:36Z</time>
      </trkpt>
      <trkpt lat="41.690890" lon="-8.159230">
        <ele>423.683</ele>
        <time>2020-07-15T10:46:56Z</time>
      </trkpt>
      <trkpt lat="41.691010" lon="-8.159540">
        <ele>423.111</ele>
        <time>2020-07-15T10:47:16Z</time>
      </trkpt>
      <trkpt lat="41.691290" lon="-8.160170">
        <ele>409.608</ele>
        <time>2020-07-15T10:47:36Z</time>
      </trkpt>
      <trkpt lat="41.691370" lon="-8.160390">
        <ele>407.331</ele>
        <time>2020-07-15T10:47:56Z</time>
      </trkpt>
      <trkpt lat="41.691450" lon="-8.160790">
        <ele>404.798</ele>
        <time>2020-07-15T10:48:16Z</time>
      </trkpt>
      <trkpt lat="41.691610" lon="-8.161060">
        <ele>408.883</ele>
        <time>2020-07-15T10:48:36Z</time>
      </trkpt>
      <trkpt lat="41.691730" lon="-8.161340">
        <ele>409.771</ele>
        <time>2020-07-15T10:48:56Z</time>
      </trkpt>
      <trkpt lat="41.691750" lon="-8.161560">
        <ele>407.518</ele>
        <time>2020-07-15T10:49:16Z</time>
      </trkpt>
      <trkpt lat="41.691810" lon="-8.161770">
        <ele>406.048</ele>
        <time>2020-07-15T10:49:36Z</time>
      </trkpt>
      <trkpt lat="41.692010" lon="-8.162050">
        <ele>407.838</ele>
        <time>2020-07-15T10:49:56Z</time>
      </trkpt>
      <trkpt lat="41.692050" lon="-8.162250">
        <ele>407.829</ele>
        <time>2020-07-15T10:50:16Z</time>
      </trkpt>
      <trkpt lat="41.692090" lon="-8.162360">
        <ele>407.833</ele>
        <time>2020-07-15T10:50:36Z</time>
      </trkpt>
      <trkpt lat="41.692170" lon="-8.162470">
        <ele>407.923</ele>
        <time>2020-07-15T10:50:56Z</time>
      </trkpt>
      <trkpt lat="41.692400" lon="-8.162660">
        <ele>406.115</ele>
        <time>2020-07-15T10:51:16Z</time>
      </trkpt>
      <trkpt lat="41.692900" lon="-8.163000">
        <ele>397.508</ele>
        <time>2020-07-15T10:51:36Z</time>
      </trkpt>
      <trkpt lat="41.693010" lon="-8.162990">
        <ele>397.988</ele>
        <time>2020-07-15T10:51:56Z</time>
      </trkpt>
      <trkpt lat="41.693130" lon="-8.162890">
        <ele>399.775</ele>
        <time>2020-07-15T10:52:16Z</time>
      </trkpt>
      <trkpt lat="41.693210" lon="-8.162860">
        <ele>400.480</ele>
        <time>2020-07-15T10:52:36Z</time>
      </trkpt>
      <trkpt lat="41.693280" lon="-8.162860">
        <ele>400.668</ele>
        <time>2020-07-15T10:52:56Z</time>
      </trkpt>
      <trkpt lat="41.693360" lon="-8.162950">
        <ele>399.825</ele>
        <time>2020-07-15T10:53:16Z</time>
      </trkpt>
      <trkpt lat="41.693500" lon="-8.163290">
        <ele>394.855</ele>
        <time>2020-07-15T10:53:36Z</time>
      </trkpt>
      <trkpt lat="41.693560" lon="-8.163350">
        <ele>393.885</ele>
        <time>2020-07-15T10:53:56Z</time>
      </trkpt>
      <trkpt lat="41.693730" lon="-8.163380">
        <ele>393.796</ele>
        <time>2020-07-15T10:54:16Z</time>
      </trkpt>
      <trkpt lat="41.693820" lon="-8.163320">
        <ele>396.169</ele>
        <time>2020-07-15T10:54:36Z</time>
      </trkpt>
      <trkpt lat="41.693960" lon="-8.163120">
        <ele>401.804</ele>
        <time>2020-07-15T10:54:56Z</time>
      </trkpt>
      <trkpt lat="41.694100" lon="-8.163100">
        <ele>403.224</ele>
        <time>2020-07-15T10:55:16Z</time>
      </trkpt>
      <trkpt lat="41.694560" lon="-8.163440">
        <ele>400.408</ele>
        <time>2020-07-15T10:55:36Z</time>
      </trkpt>
      <trkpt lat="41.694760" lon="-8.163530">
        <ele>399.641</ele>
        <time>2020-07-15T10:55:56Z</time>
      </trkpt>
      <trkpt lat="41.694820" lon="-8.163590">
        <ele>398.678</ele>
        <time>2020-07-15T10:56:16Z</time>
      </trkpt>
      <trkpt lat="41.694930" lon="-8.163920">
        <ele>392.793</ele>
        <time>2020-07-15T10:56:36Z</time>
      </trkpt>
      <trkpt lat="41.694990" lon="-8.163980">
        <ele>392.321</ele>
        <time>2020-07-15T10:56:56Z</time>
      </trkpt>
      <trkpt lat="41.695030" lon="-8.163990">
        <ele>392.098</ele>
        <time>2020-07-15T10:57:16Z</time>
      </trkpt>
      <trkpt lat="41.695110" lon="-8.163970">
        <ele>391.918</ele>
        <time>2020-07-15T10:57:36Z</time>
      </trkpt>
      <trkpt lat="41.695660" lon="-8.163320">
        <ele>391.768</ele>
        <time>2020-07-15T10:57:56Z</time>
      </trkpt>
      <trkpt lat="41.695700" lon="-8.163290">
        <ele>391.599</ele>
        <time>2020-07-15T10:58:16Z</time>
      </trkpt>
      <trkpt lat="41.695860" lon="-8.163240">
        <ele>389.033</ele>
        <time>2020-07-15T10:58:36Z</time>
      </trkpt>
      <trkpt lat="41.696020" lon="-8.163220">
        <ele>385.323</ele>
        <time>2020-07-15T10:58:56Z</time>
      </trkpt>
      <trkpt lat="41.696500" lon="-8.163340">
        <ele>370.715</ele>
        <time>2020-07-15T10:59:16Z</time>
      </trkpt>
      <trkpt lat="41.696580" lon="-8.163290">
        <ele>370.408</ele>
        <time>2020-07-15T10:59:36Z</time>
      </trkpt>
      <trkpt lat="41.696630" lon="-8.163190">
        <ele>371.458</ele>
        <time>2020-07-15T10:59:56Z</time>
      </trkpt>
      <trkpt lat="41.696610" lon="-8.163060">
        <ele>374.365</ele>
        <time>2020-07-15T11:00:16Z</time>
      </trkpt>
      <trkpt lat="41.696510" lon="-8.162900">
        <ele>378.940</ele>
        <time>2020-07-15T11:00:36Z</time>
      </trkpt>
      <trkpt lat="41.696500" lon="-8.162760">
        <ele>380.828</ele>
        <time>2020-07-15T11:00:56Z</time>
      </trkpt>
      <trkpt lat="41.696540" lon="-8.162610">
        <ele>381.675</ele>
        <time>2020-07-15T11:01:16Z</time>
      </trkpt>
      <trkpt lat="41.696620" lon="-8.162510">
        <ele>381.575</ele>
        <time>2020-07-15T11:01:36Z</time>
      </trkpt>
      <trkpt lat="41.696740" lon="-8.162450">
        <ele>380.615</ele>
        <time>2020-07-15T11:01:56Z</time>
      </trkpt>
      <trkpt lat="41.697210" lon="-8.162290">
        <ele>378.776</ele>
        <time>2020-07-15T11:02:16Z</time>
      </trkpt>
      <trkpt lat="41.697580" lon="-8.162210">
        <ele>371.388</ele>
        <time>2020-07-15T11:02:36Z</time>
      </trkpt>
      <trkpt lat="41.698100" lon="-8.162160">
        <ele>360.624</ele>
        <time>2020-07-15T11:02:56Z</time>
      </trkpt>
      <trkpt lat="41.698450" lon="-8.162180">
        <ele>360.626</ele>
        <time>2020-07-15T11:03:16Z</time>
      </trkpt>
      <trkpt lat="41.698540" lon="-8.162210">
        <ele>360.908</ele>
        <time>2020-07-15T11:03:36Z</time>
      </trkpt>
      <trkpt lat="41.698610" lon="-8.162270">
        <ele>359.773</ele>
        <time>2020-07-15T11:03:56Z</time>
      </trkpt>
      <trkpt lat="41.698910" lon="-8.162720">
        <ele>345.460</ele>
        <time>2020-07-15T11:04:16Z</time>
      </trkpt>
      <trkpt lat="41.699130" lon="-8.162920">
        <ele>338.725</ele>
        <time>2020-07-15T11:04:36Z</time>
      </trkpt>
      <trkpt lat="41.699290" lon="-8.163000">
        <ele>335.323</ele>
        <time>2020-07-15T11:04:56Z</time>
      </trkpt>
      <trkpt lat="41.699440" lon="-8.163010">
        <ele>334.240</ele>
        <time>2020-07-15T11:05:16Z</time>
      </trkpt>
      <trkpt lat="41.699700" lon="-8.162960">
        <ele>337.690</ele>
        <time>2020-07-15T11:05:36Z</time>
      </trkpt>
      <trkpt lat="41.699820" lon="-8.162920">
        <ele>340.150</ele>
        <time>2020-07-15T11:05:56Z</time>
      </trkpt>
      <trkpt lat="41.700040" lon="-8.162790">
        <ele>345.911</ele>
        <time>2020-07-15T11:06:16Z</time>
      </trkpt>
      <trkpt lat="41.700270" lon="-8.162620">
        <ele>353.132</ele>
        <time>2020-07-15T11:06:36Z</time>
      </trkpt>
      <trkpt lat="41.700530" lon="-8.162490">
        <ele>353.792</ele>
        <time>2020-07-15T11:06:56Z</time>
      </trkpt>
      <trkpt lat="41.700600" lon="-8.162500">
        <ele>353.311</ele>
        <time>2020-07-15T11:07:16Z</time>
      </trkpt>
      <trkpt lat="41.700660" lon="-8.162560">
        <ele>351.908</ele>
        <time>2020-07-15T11:07:36Z</time>
      </trkpt>
      <trkpt lat="41.700800" lon="-8.162990">
        <ele>337.618</ele>
        <time>2020-07-15T11:07:56Z</time>
      </trkpt>
      <trkpt lat="41.700870" lon="-8.163100">
        <ele>333.545</ele>
        <time>2020-07-15T11:08:16Z</time>
      </trkpt>
      <trkpt lat="41.701000" lon="-8.163190">
        <ele>331.360</ele>
        <time>2020-07-15T11:08:36Z</time>
      </trkpt>
      <trkpt lat="41.701480" lon="-8.163320">
        <ele>333.118</ele>
        <time>2020-07-15T11:08:56Z</time>
      </trkpt>
      <trkpt lat="41.701620" lon="-8.163420">
        <ele>331.335</ele>
        <time>2020-07-15T11:09:16Z</time>
      </trkpt>
      <trkpt lat="41.701850" lon="-8.163770">
        <ele>323.665</ele>
        <time>2020-07-15T11:09:36Z</time>
      </trkpt>
      <trkpt lat="41.701940" lon="-8.163800">
        <ele>323.585</ele>
        <time>2020-07-15T11:09:56Z</time>
      </trkpt>
      <trkpt lat="41.702050" lon="-8.163760">
        <ele>323.056</ele>
        <time>2020-07-15T11:10:16Z</time>
      </trkpt>
      <trkpt lat="41.702140" lon="-8.163660">
        <ele>324.734</ele>
        <time>2020-07-15T11:10:36Z</time>
      </trkpt>
      <trkpt lat="41.702290" lon="-8.163330">
        <ele>330.155</ele>
        <time>2020-07-15T11:10:56Z</time>
      </trkpt>
      <trkpt lat="41.702360" lon="-8.163260">
        <ele>330.310</ele>
        <time>2020-07-15T11:11:16Z</time>
      </trkpt>
      <trkpt lat="41.702480" lon="-8.163230">
        <ele>328.508</ele>
        <time>2020-07-15T11:11:36Z</time>
      </trkpt>
      <trkpt lat="41.702950" lon="-8.163460">
        <ele>319.988</ele>
        <time>2020-07-15T11:11:56Z</time>
      </trkpt>
      <trkpt lat="41.703090" lon="-8.163490">
        <ele>320.165</ele>
        <time>2020-07-15T11:12:16Z</time>
      </trkpt>
      <trkpt lat="41.703190" lon="-8.163550">
        <ele>318.450</ele>
        <time>2020-07-15T11:12:36Z</time>
      </trkpt>
      <trkpt lat="41.703490" lon="-8.163790">
        <ele>313.318</ele>
        <time>2020-07-15T11:12:56Z</time>
      </trkpt>
      <trkpt lat="41.703840" lon="-8.164040">
        <ele>316.325</ele>
        <time>2020-07-15T11:13:16Z</time>
      </trkpt>
      <trkpt lat="41.703900" lon="-8.164120">
        <ele>316.025</ele>
        <time>2020-07-15T11:13:36Z</time>
      </trkpt>
      <trkpt lat="41.703950" lon="-8.164230">
        <ele>314.975</ele>
        <time>2020-07-15T11:13:56Z</time>
      </trkpt>
      <trkpt lat="41.703960" lon="-8.164400">
        <ele>310.866</ele>
        <time>2020-07-15T11:14:16Z</time>
      </trkpt>
      <trkpt lat="41.703910" lon="-8.165050">
        <ele>296.465</ele>
        <time>2020-07-15T11:14:36Z</time>
      </trkpt>
      <trkpt lat="41.703940" lon="-8.165130">
        <ele>295.268</ele>
        <time>2020-07-15T11:14:56Z</time>
      </trkpt>
      <trkpt lat="41.704010" lon="-8.165180">
        <ele>295.414</ele>
        <time>2020-07-15T11:15:16Z</time>
      </trkpt>
      <trkpt lat="41.704530" lon="-8.165370">
        <ele>304.408</ele>
        <time>2020-07-15T11:15:36Z</time>
      </trkpt>
      <trkpt lat="41.704620" lon="-8.165430">
        <ele>305.441</ele>
        <time>2020-07-15T11:15:56Z</time>
      </trkpt>
      <trkpt lat="41.705180" lon="-8.166040">
        <ele>287.488</ele>
        <time>2020-07-15T11:16:16Z</time>
      </trkpt>
      <trkpt lat="41.705280" lon="-8.166080">
        <ele>285.283</ele>
        <time>2020-07-15T11:16:36Z</time>
      </trkpt>
      <trkpt lat="41.705320" lon="-8.166080">
        <ele>285.231</ele>
        <time>2020-07-15T11:16:56Z</time>
      </trkpt>
      <trkpt lat="41.705500" lon="-8.165960">
        <ele>288.298</ele>
        <time>2020-07-15T11:17:16Z</time>
      </trkpt>
      <trkpt lat="41.705620" lon="-8.165970">
        <ele>288.528</ele>
        <time>2020-07-15T11:17:36Z</time>
      </trkpt>
      <trkpt lat="41.706280" lon="-8.166370">
        <ele>276.468</ele>
        <time>2020-07-15T11:17:56Z</time>
      </trkpt>
      <trkpt lat="41.706370" lon="-8.166380">
        <ele>275.599</ele>
        <time>2020-07-15T11:18:16Z</time>
      </trkpt>
      <trkpt lat="41.706570" lon="-8.166320">
        <ele>279.452</ele>
        <time>2020-07-15T11:18:36Z</time>
      </trkpt>
      <trkpt lat="41.706860" lon="-8.166440">
        <ele>272.853</ele>
        <time>2020-07-15T11:18:56Z</time>
      </trkpt>
      <trkpt lat="41.707190" lon="-8.166420">
        <ele>270.708</ele>
        <time>2020-07-15T11:19:16Z</time>
      </trkpt>
      <trkpt lat="41.707260" lon="-8.166440">
        <ele>269.008</ele>
        <time>2020-07-15T11:19:36Z</time>
      </trkpt>
      <trkpt lat="41.707310" lon="-8.166490">
        <ele>266.480</ele>
        <time>2020-07-15T11:19:56Z</time>
      </trkpt>
      <trkpt lat="41.707340" lon="-8.166570">
        <ele>262.947</ele>
        <time>2020-07-15T11:20:16Z</time>
      </trkpt>
      <trkpt lat="41.707360" lon="-8.166770">
        <ele>256.812</ele>
        <time>2020-07-15T11:20:36Z</time>
      </trkpt>
      <trkpt lat="41.707400" lon="-8.166920">
        <ele>253.850</ele>
        <time>2020-07-15T11:20:56Z</time>
      </trkpt>
      <trkpt lat="41.707490" lon="-8.166990">
        <ele>253.467</ele>
        <time>2020-07-15T11:21:16Z</time>
      </trkpt>
      <trkpt lat="41.707720" lon="-8.167020">
        <ele>255.137</ele>
        <time>2020-07-15T11:21:36Z</time>
      </trkpt>
      <trkpt lat="41.707790" lon="-8.167070">
        <ele>255.147</ele>
        <time>2020-07-15T11:21:56Z</time>
      </trkpt>
      <trkpt lat="41.707850" lon="-8.167160">
        <ele>255.278</ele>
        <time>2020-07-15T11:22:16Z</time>
      </trkpt>
      <trkpt lat="41.707890" lon="-8.167310">
        <ele>253.855</ele>
        <time>2020-07-15T11:22:36Z</time>
      </trkpt>
      <trkpt lat="41.707910" lon="-8.167540">
        <ele>250.107</ele>
        <time>2020-07-15T11:22:56Z</time>
      </trkpt>
      <trkpt lat="41.707580" lon="-8.167570">
        <ele>245.417</ele>
        <time>2020-07-15T11:23:16Z</time>
      </trkpt>
      <trkpt lat="41.707390" lon="-8.167650">
        <ele>242.808</ele>
        <time>2020-07-15T11:23:36Z</time>
      </trkpt>
      <trkpt lat="41.707250" lon="-8.167680">
        <ele>242.170</ele>
        <time>2020-07-15T11:23:56Z</time>
      </trkpt>
      <trkpt lat="41.707150" lon="-8.167650">
        <ele>241.857</ele>
        <time>2020-07-15T11:24:16Z</time>
      </trkpt>
      <trkpt lat="41.706800" lon="-8.167450">
        <ele>239.892</ele>
        <time>2020-07-15T11:24:36Z</time>
      </trkpt>
      <trkpt lat="41.706330" lon="-8.167340">
        <ele>240.120</ele>
        <time>2020-07-15T11:24:56Z</time>
      </trkpt>
      <trkpt lat="41.706000" lon="-8.167300">
        <ele>243.047</ele>
        <time>2020-07-15T11:25:16Z</time>
      </trkpt>
      <trkpt lat="41.705840" lon="-8.167330">
        <ele>244.017</ele>
        <time>2020-07-15T11:25:36Z</time>
      </trkpt>
      <trkpt lat="41.705450" lon="-8.167530">
        <ele>236.867</ele>
        <time>2020-07-15T11:25:56Z</time>
      </trkpt>
      <trkpt lat="41.705280" lon="-8.167560">
        <ele>234.178</ele>
        <time>2020-07-15T11:26:16Z</time>
      </trkpt>
      <trkpt lat="41.705140" lon="-8.167540">
        <ele>232.495</ele>
        <time>2020-07-15T11:26:36Z</time>
      </trkpt>
      <trkpt lat="41.704970" lon="-8.167470">
        <ele>231.549</ele>
        <time>2020-07-15T11:26:56Z</time>
      </trkpt>
      <trkpt lat="41.704640" lon="-8.167240">
        <ele>235.423</ele>
        <time>2020-07-15T11:27:16Z</time>
      </trkpt>
      <trkpt lat="41.704540" lon="-8.167220">
        <ele>236.108</ele>
        <time>2020-07-15T11:27:36Z</time>
      </trkpt>
      <trkpt lat="41.703730" lon="-8.167270">
        <ele>227.064</ele>
        <time>2020-07-15T11:27:56Z</time>
      </trkpt>
      <trkpt lat="41.703650" lon="-8.167250">
        <ele>225.231</ele>
        <time>2020-07-15T11:28:16Z</time>
      </trkpt>
      <trkpt lat="41.703490" lon="-8.167160">
        <ele>224.056</ele>
        <time>2020-07-15T11:28:36Z</time>
      </trkpt>
      <trkpt lat="41.703130" lon="-8.166760">
        <ele>231.964</ele>
        <time>2020-07-15T11:28:56Z</time>
      </trkpt>
      <trkpt lat="41.703020" lon="-8.166670">
        <ele>235.131</ele>
        <time>2020-07-15T11:29:16Z</time>
      </trkpt>
      <trkpt lat="41.702890" lon="-8.166670">
        <ele>236.081</ele>
        <time>2020-07-15T11:29:36Z</time>
      </trkpt>
      <trkpt lat="41.702330" lon="-8.166990">
        <ele>227.941</ele>
        <time>2020-07-15T11:29:56Z</time>
      </trkpt>
      <trkpt lat="41.702040" lon="-8.167210">
        <ele>221.362</ele>
        <time>2020-07-15T11:30:16Z</time>
      </trkpt>
      <trkpt lat="41.701680" lon="-8.167960">
        <ele>217.183</ele>
        <time>2020-07-15T11:30:36Z</time>
      </trkpt>
      <trkpt lat="41.701500" lon="-8.168140">
        <ele>214.425</ele>
        <time>2020-07-15T11:30:56Z</time>
      </trkpt>
      <trkpt lat="41.701340" lon="-8.168200">
        <ele>211.317</ele>
        <time>2020-07-15T11:31:16Z</time>
      </trkpt>
      <trkpt lat="41.701270" lon="-8.168190">
        <ele>210.008</ele>
        <time>2020-07-15T11:31:36Z</time>
      </trkpt>
      <trkpt lat="41.701140" lon="-8.168130">
        <ele>208.753</ele>
        <time>2020-07-15T11:31:56Z</time>
      </trkpt>
      <trkpt lat="41.700300" lon="-8.167700">
        <ele>218.680</ele>
        <time>2020-07-15T11:32:16Z</time>
      </trkpt>
      <trkpt lat="41.700030" lon="-8.167620">
        <ele>214.485</ele>
        <time>2020-07-15T11:32:36Z</time>
      </trkpt>
      <trkpt lat="41.699840" lon="-8.167640">
        <ele>209.973</ele>
        <time>2020-07-15T11:32:56Z</time>
      </trkpt>
      <trkpt lat="41.698910" lon="-8.167930">
        <ele>199.890</ele>
        <time>2020-07-15T11:33:16Z</time>
      </trkpt>
      <trkpt lat="41.698730" lon="-8.167970">
        <ele>196.650</ele>
        <time>2020-07-15T11:33:36Z</time>
      </trkpt>
      <trkpt lat="41.698570" lon="-8.167970">
        <ele>194.790</ele>
        <time>2020-07-15T11:33:56Z</time>
      </trkpt>
      <trkpt lat="41.698470" lon="-8.167900">
        <ele>195.151</ele>
        <time>2020-07-15T11:34:16Z</time>
      </trkpt>
      <trkpt lat="41.698270" lon="-8.167640">
        <ele>199.157</ele>
        <time>2020-07-15T11:34:36Z</time>
      </trkpt>
      <trkpt lat="41.698210" lon="-8.167590">
        <ele>200.400</ele>
        <time>2020-07-15T11:34:56Z</time>
      </trkpt>
      <trkpt lat="41.698100" lon="-8.167560">
        <ele>201.420</ele>
        <time>2020-07-15T11:35:16Z</time>
      </trkpt>
      <trkpt lat="41.697970" lon="-8.167610">
        <ele>201.808</ele>
        <time>2020-07-15T11:35:36Z</time>
      </trkpt>
      <trkpt lat="41.697860" lon="-8.167740">
        <ele>198.830</ele>
        <time>2020-07-15T11:35:56Z</time>
      </trkpt>
      <trkpt lat="41.697730" lon="-8.168190">
        <ele>189.717</ele>
        <time>2020-07-15T11:36:16Z</time>
      </trkpt>
      <trkpt lat="41.697620" lon="-8.168260">
        <ele>188.562</ele>
        <time>2020-07-15T11:36:36Z</time>
      </trkpt>
      <trkpt lat="41.697510" lon="-8.168260">
        <ele>188.660</ele>
        <time>2020-07-15T11:36:56Z</time>
      </trkpt>
      <trkpt lat="41.697190" lon="-8.168130">
        <ele>195.457</ele>
        <time>2020-07-15T11:37:16Z</time>
      </trkpt>
      <trkpt lat="41.697080" lon="-8.168120">
        <ele>197.647</ele>
        <time>2020-07-15T11:37:36Z</time>
      </trkpt>
      <trkpt lat="41.696940" lon="-8.168190">
        <ele>197.877</ele>
        <time>2020-07-15T11:37:56Z</time>
      </trkpt>
      <trkpt lat="41.696860" lon="-8.168290">
        <ele>198.518</ele>
        <time>2020-07-15T11:38:16Z</time>
      </trkpt>
      <trkpt lat="41.696830" lon="-8.168490">
        <ele>194.746</ele>
        <time>2020-07-15T11:38:36Z</time>
      </trkpt>
      <trkpt lat="41.696830" lon="-8.168720">
        <ele>188.888</ele>
        <time>2020-07-15T11:38:56Z</time>
      </trkpt>
      <trkpt lat="41.696740" lon="-8.169600">
        <ele>182.316</ele>
        <time>2020-07-15T11:39:16Z</time>
      </trkpt>
      <trkpt lat="41.696680" lon="-8.169800">
        <ele>180.108</ele>
        <time>2020-07-15T11:39:36Z</time>
      </trkpt>
      <trkpt lat="41.696550" lon="-8.169940">
        <ele>179.289</ele>
        <time>2020-07-15T11:39:56Z</time>
      </trkpt>
      <trkpt lat="41.696300" lon="-8.170110">
        <ele>180.026</ele>
        <time>2020-07-15T11:40:16Z</time>
      </trkpt>
      <trkpt lat="41.696190" lon="-8.170210">
        <ele>179.751</ele>
        <time>2020-07-15T11:40:36Z</time>
      </trkpt>
      <trkpt lat="41.695880" lon="-8.170620">
        <ele>175.439</ele>
        <time>2020-07-15T11:40:56Z</time>
      </trkpt>
      <trkpt lat="41.695720" lon="-8.170770">
        <ele>172.566</ele>
        <time>2020-07-15T11:41:16Z</time>
      </trkpt>
      <trkpt lat="41.695520" lon="-8.170910">
        <ele>169.766</ele>
        <time>2020-07-15T11:41:36Z</time>
      </trkpt>
      <trkpt lat="41.695390" lon="-8.170970">
        <ele>167.566</ele>
        <time>2020-07-15T11:41:56Z</time>
      </trkpt>
      <trkpt lat="41.694920" lon="-8.171090">
        <ele>168.917</ele>
        <time>2020-07-15T11:42:16Z</time>
      </trkpt>
      <trkpt lat="41.694800" lon="-8.171150">
        <ele>171.116</ele>
        <time>2020-07-15T11:42:36Z</time>
      </trkpt>
      <trkpt lat="41.694700" lon="-8.171250">
        <ele>170.876</ele>
        <time>2020-07-15T11:42:56Z</time>
      </trkpt>
      <trkpt lat="41.694540" lon="-8.171480">
        <ele>165.913</ele>
        <time>2020-07-15T11:43:16Z</time>
      </trkpt>
      <trkpt lat="41.694430" lon="-8.171570">
        <ele>165.508</ele>
        <time>2020-07-15T11:43:36Z</time>
      </trkpt>
      <trkpt lat="41.694300" lon="-8.171600">
        <ele>165.226</ele>
        <time>2020-07-15T11:43:56Z</time>
      </trkpt>
      <trkpt lat="41.694030" lon="-8.171630">
        <ele>166.433</ele>
        <time>2020-07-15T11:44:16Z</time>
      </trkpt>
      <trkpt lat="41.693740" lon="-8.171750">
        <ele>166.528</ele>
        <time>2020-07-15T11:44:36Z</time>
      </trkpt>
      <trkpt lat="41.693650" lon="-8.171760">
        <ele>167.596</ele>
        <time>2020-07-15T11:44:56Z</time>
      </trkpt>
      <trkpt lat="41.693230" lon="-8.171730">
        <ele>171.733</ele>
        <time>2020-07-15T11:45:16Z</time>
      </trkpt>
      <trkpt lat="41.693090" lon="-8.171820">
        <ele>170.783</ele>
        <time>2020-07-15T11:45:36Z</time>
      </trkpt>
      <trkpt lat="41.692870" lon="-8.172150">
        <ele>158.663</ele>
        <time>2020-07-15T11:45:56Z</time>
      </trkpt>
      <trkpt lat="41.692720" lon="-8.172260">
        <ele>156.634</ele>
        <time>2020-07-15T11:46:16Z</time>
      </trkpt>
      <trkpt lat="41.692370" lon="-8.172310">
        <ele>160.585</ele>
        <time>2020-07-15T11:46:36Z</time>
      </trkpt>
      <trkpt lat="41.692080" lon="-8.172300">
        <ele>159.789</ele>
        <time>2020-07-15T11:46:56Z</time>
      </trkpt>
      <trkpt lat="41.690970" lon="-8.172450">
        <ele>159.017</ele>
        <time>2020-07-15T11:47:16Z</time>
      </trkpt>
      <trkpt lat="41.690560" lon="-8.172460">
        <ele>160.708</ele>
        <time>2020-07-15T11:47:36Z</time>
      </trkpt>
      <trkpt lat="41.690140" lon="-8.172380">
        <ele>161.863</ele>
        <time>2020-07-15T11:47:56Z</time>
      </trkpt>
      <trkpt lat="41.689720" lon="-8.172270">
        <ele>163.590</ele>
        <time>2020-07-15T11:48:16Z</time>
      </trkpt>
      <trkpt lat="41.689490" lon="-8.172230">
        <ele>165.655</ele>
        <time>2020-07-15T11:48:36Z</time>
      </trkpt>
      <trkpt lat="41.689140" lon="-8.172230">
        <ele>168.743</ele>
        <time>2020-07-15T11:48:56Z</time>
      </trkpt>
      <trkpt lat="41.688960" lon="-8.172280">
        <ele>172.870</ele>
        <time>2020-07-15T11:49:16Z</time>
      </trkpt>
      <trkpt lat="41.688460" lon="-8.172770">
        <ele>179.770</ele>
        <time>2020-07-15T11:49:36Z</time>
      </trkpt>
      <trkpt lat="41.688070" lon="-8.172990">
        <ele>177.610</ele>
        <time>2020-07-15T11:49:56Z</time>
      </trkpt>
      <trkpt lat="41.687780" lon="-8.173060">
        <ele>179.711</ele>
        <time>2020-07-15T11:50:16Z</time>
      </trkpt>
      <trkpt lat="41.687600" lon="-8.173070">
        <ele>180.043</ele>
        <time>2020-07-15T11:50:36Z</time>
      </trkpt>
      <trkpt lat="41.687280" lon="-8.172990">
        <ele>181.364</ele>
        <time>2020-07-15T11:50:56Z</time>
      </trkpt>
      <trkpt lat="41.685160" lon="-8.171990">
        <ele>182.910</ele>
        <time>2020-07-15T11:51:16Z</time>
      </trkpt>
      <trkpt lat="41.684760" lon="-8.171830">
        <ele>181.508</ele>
        <time>2020-07-15T11:51:36Z</time>
      </trkpt>
      <trkpt lat="41.684580" lon="-8.171780">
        <ele>182.039</ele>
        <time>2020-07-15T11:51:56Z</time>
      </trkpt>
      <trkpt lat="41.684340" lon="-8.171770">
        <ele>183.616</ele>
        <time>2020-07-15T11:52:16Z</time>
      </trkpt>
      <trkpt lat="41.684160" lon="-8.171810">
        <ele>185.491</ele>
        <time>2020-07-15T11:52:36Z</time>
      </trkpt>
      <trkpt lat="41.683680" lon="-8.171990">
        <ele>179.549</ele>
        <time>2020-07-15T11:52:56Z</time>
      </trkpt>
      <trkpt lat="41.682540" lon="-8.172480">
        <ele>166.056</ele>
        <time>2020-07-15T11:53:16Z</time>
      </trkpt>
      <trkpt lat="41.682320" lon="-8.172600">
        <ele>164.186</ele>
        <time>2020-07-15T11:53:36Z</time>
      </trkpt>
      <trkpt lat="41.682110" lon="-8.172770">
        <ele>162.996</ele>
        <time>2020-07-15T11:53:56Z</time>
      </trkpt>
      <trkpt lat="41.681880" lon="-8.173020">
        <ele>161.427</ele>
        <time>2020-07-15T11:54:16Z</time>
      </trkpt>
      <trkpt lat="41.681670" lon="-8.173320">
        <ele>162.089</ele>
        <time>2020-07-15T11:54:36Z</time>
      </trkpt>
      <trkpt lat="41.681520" lon="-8.173480">
        <ele>159.606</ele>
        <time>2020-07-15T11:54:56Z</time>
      </trkpt>
      <trkpt lat="41.681390" lon="-8.173560">
        <ele>157.226</ele>
        <time>2020-07-15T11:55:16Z</time>
      </trkpt>
      <trkpt lat="41.681250" lon="-8.173590">
        <ele>160.008</ele>
        <time>2020-07-15T11:55:36Z</time>
      </trkpt>
      <trkpt lat="41.681100" lon="-8.173550">
        <ele>164.283</ele>
        <time>2020-07-15T11:55:56Z</time>
      </trkpt>
      <trkpt lat="41.680740" lon="-8.173350">
        <ele>161.190</ele>
        <time>2020-07-15T11:56:16Z</time>
      </trkpt>
      <trkpt lat="41.680560" lon="-8.173290">
        <ele>160.065</ele>
        <time>2020-07-15T11:56:36Z</time>
      </trkpt>
      <trkpt lat="41.680370" lon="-8.173280">
        <ele>160.073</ele>
        <time>2020-07-15T11:56:56Z</time>
      </trkpt>
      <trkpt lat="41.680150" lon="-8.173400">
        <ele>160.120</ele>
        <time>2020-07-15T11:57:16Z</time>
      </trkpt>
      <trkpt lat="41.680000" lon="-8.173550">
        <ele>161.080</ele>
        <time>2020-07-15T11:57:36Z</time>
      </trkpt>
      <trkpt lat="41.679920" lon="-8.173680">
        <ele>162.090</ele>
        <time>2020-07-15T11:57:56Z</time>
      </trkpt>
      <trkpt lat="41.679780" lon="-8.174130">
        <ele>166.691</ele>
        <time>2020-07-15T11:58:16Z</time>
      </trkpt>
      <trkpt lat="41.679470" lon="-8.175310">
        <ele>162.368</ele>
        <time>2020-07-15T11:58:36Z</time>
      </trkpt>
      <trkpt lat="41.679360" lon="-8.175620">
        <ele>162.042</ele>
        <time>2020-07-15T11:58:56Z</time>
      </trkpt>
      <trkpt lat="41.679230" lon="-8.175820">
        <ele>161.126</ele>
        <time>2020-07-15T11:59:16Z</time>
      </trkpt>
      <trkpt lat="41.679050" lon="-8.175980">
        <ele>159.208</ele>
        <time>2020-07-15T11:59:36Z</time>
      </trkpt>
      <trkpt lat="41.678890" lon="-8.176050">
        <ele>157.241</ele>
        <time>2020-07-15T11:59:56Z</time>
      </trkpt>
      <trkpt lat="41.677850" lon="-8.176110">
        <ele>163.978</ele>
        <time>2020-07-15T12:00:16Z</time>
      </trkpt>
      <trkpt lat="41.677620" lon="-8.176140">
        <ele>165.263</ele>
        <time>2020-07-15T12:00:36Z</time>
      </trkpt>
      <trkpt lat="41.677490" lon="-8.176240">
        <ele>160.841</ele>
        <time>2020-07-15T12:00:56Z</time>
      </trkpt>
      <trkpt lat="41.677430" lon="-8.176310">
        <ele>157.818</ele>
        <time>2020-07-15T12:01:16Z</time>
      </trkpt>
      <trkpt lat="41.676860" lon="-8.178980">
        <ele>155.748</ele>
        <time>2020-07-15T12:01:36Z</time>
      </trkpt>
      <trkpt lat="41.676770" lon="-8.179330">
        <ele>160.348</ele>
        <time>2020-07-15T12:01:56Z</time>
      </trkpt>
      <trkpt lat="41.676700" lon="-8.179480">
        <ele>163.319</ele>
        <time>2020-07-15T12:02:16Z</time>
      </trkpt>
      <trkpt lat="41.676610" lon="-8.179620">
        <ele>166.714</ele>
        <time>2020-07-15T12:02:36Z</time>
      </trkpt>
      <trkpt lat="41.676150" lon="-8.180220">
        <ele>163.754</ele>
        <time>2020-07-15T12:02:56Z</time>
      </trkpt>
      <trkpt lat="41.676030" lon="-8.180350">
        <ele>161.609</ele>
        <time>2020-07-15T12:03:16Z</time>
      </trkpt>
      <trkpt lat="41.676020" lon="-8.180380">
        <ele>161.308</ele>
        <time>2020-07-15T12:03:36Z</time>
      </trkpt>
      <trkpt lat="41.676070" lon="-8.180510">
        <ele>161.616</ele>
        <time>2020-07-15T12:03:56Z</time>
      </trkpt>
      <trkpt lat="41.676040" lon="-8.180650">
        <ele>161.283</ele>
        <time>2020-07-15T12:04:16Z</time>
      </trkpt>
      <trkpt lat="41.676350" lon="-8.181070">
        <ele>162.478</ele>
        <time>2020-07-15T12:04:36Z</time>
      </trkpt>
      <trkpt lat="41.676460" lon="-8.181310">
        <ele>161.166</ele>
        <time>2020-07-15T12:04:56Z</time>
      </trkpt>
      <trkpt lat="41.676510" lon="-8.181600">
        <ele>160.743</ele>
        <time>2020-07-15T12:05:16Z</time>
      </trkpt>
      <trkpt lat="41.676430" lon="-8.182300">
        <ele>162.793</ele>
        <time>2020-07-15T12:05:36Z</time>
      </trkpt>
      <trkpt lat="41.676440" lon="-8.182460">
        <ele>163.633</ele>
        <time>2020-07-15T12:05:56Z</time>
      </trkpt>
      <trkpt lat="41.676490" lon="-8.182630">
        <ele>164.624</ele>
        <time>2020-07-15T12:06:16Z</time>
      </trkpt>
      <trkpt lat="41.676550" lon="-8.182720">
        <ele>165.662</ele>
        <time>2020-07-15T12:06:36Z</time>
      </trkpt>
      <trkpt lat="41.676650" lon="-8.182790">
        <ele>167.083</ele>
        <time>2020-07-15T12:06:56Z</time>
      </trkpt>
      <trkpt lat="41.676770" lon="-8.182820">
        <ele>167.411</ele>
        <time>2020-07-15T12:07:16Z</time>
      </trkpt>
      <trkpt lat="41.677180" lon="-8.182770">
        <ele>165.208</ele>
        <time>2020-07-15T12:07:36Z</time>
      </trkpt>
      <trkpt lat="41.677280" lon="-8.182780">
        <ele>164.461</ele>
        <time>2020-07-15T12:07:56Z</time>
      </trkpt>
      <trkpt lat="41.677370" lon="-8.182840">
        <ele>165.078</ele>
        <time>2020-07-15T12:08:16Z</time>
      </trkpt>
      <trkpt lat="41.677680" lon="-8.183200">
        <ele>170.423</ele>
        <time>2020-07-15T12:08:36Z</time>
      </trkpt>
      <trkpt lat="41.677930" lon="-8.183550">
        <ele>168.441</ele>
        <time>2020-07-15T12:08:56Z</time>
      </trkpt>
      <trkpt lat="41.678000" lon="-8.183810">
        <ele>169.568</ele>
        <time>2020-07-15T12:09:16Z</time>
      </trkpt>
      <trkpt lat="41.678090" lon="-8.184490">
        <ele>170.958</ele>
        <time>2020-07-15T12:09:36Z</time>
      </trkpt>
      <trkpt lat="41.678160" lon="-8.184640">
        <ele>168.488</ele>
        <time>2020-07-15T12:09:56Z</time>
      </trkpt>
      <trkpt lat="41.678280" lon="-8.184790">
        <ele>165.099</ele>
        <time>2020-07-15T12:10:16Z</time>
      </trkpt>
      <trkpt lat="41.678480" lon="-8.184910">
        <ele>163.883</ele>
        <time>2020-07-15T12:10:36Z</time>
      </trkpt>
      <trkpt lat="41.679090" lon="-8.185200">
        <ele>166.425</ele>
        <time>2020-07-15T12:10:56Z</time>
      </trkpt>
      <trkpt lat="41.679220" lon="-8.185290">
        <ele>168.217</ele>
        <time>2020-07-15T12:11:16Z</time>
      </trkpt>
      <trkpt lat="41.679400" lon="-8.185460">
        <ele>170.608</ele>
        <time>2020-07-15T12:11:36Z</time>
      </trkpt>
      <trkpt lat="41.679630" lon="-8.185720">
        <ele>173.933</ele>
        <time>2020-07-15T12:11:56Z</time>
      </trkpt>
      <trkpt lat="41.679740" lon="-8.185810">
        <ele>174.630</ele>
        <time>2020-07-15T12:12:16Z</time>
      </trkpt>
      <trkpt lat="41.679880" lon="-8.185890">
        <ele>175.535</ele>
        <time>2020-07-15T12:12:36Z</time>
      </trkpt>
      <trkpt lat="41.680040" lon="-8.185940">
        <ele>175.893</ele>
        <time>2020-07-15T12:12:56Z</time>
      </trkpt>
      <trkpt lat="41.680290" lon="-8.186050">
        <ele>177.470</ele>
        <time>2020-07-15T12:13:16Z</time>
      </trkpt>
      <trkpt lat="41.680410" lon="-8.186150">
        <ele>177.520</ele>
        <time>2020-07-15T12:13:36Z</time>
      </trkpt>
      <trkpt lat="41.680500" lon="-8.186260">
        <ele>179.030</ele>
        <time>2020-07-15T12:13:56Z</time>
      </trkpt>
      <trkpt lat="41.680730" lon="-8.186730">
        <ele>182.691</ele>
        <time>2020-07-15T12:14:16Z</time>
      </trkpt>
      <trkpt lat="41.680810" lon="-8.186940">
        <ele>184.343</ele>
        <time>2020-07-15T12:14:36Z</time>
      </trkpt>
      <trkpt lat="41.680860" lon="-8.187170">
        <ele>184.864</ele>
        <time>2020-07-15T12:14:56Z</time>
      </trkpt>
      <trkpt lat="41.680930" lon="-8.187780">
        <ele>188.610</ele>
        <time>2020-07-15T12:15:16Z</time>
      </trkpt>
      <trkpt lat="41.680970" lon="-8.187950">
        <ele>190.308</ele>
        <time>2020-07-15T12:15:36Z</time>
      </trkpt>
      <trkpt lat="41.681080" lon="-8.188210">
        <ele>193.259</ele>
        <time>2020-07-15T12:15:56Z</time>
      </trkpt>
      <trkpt lat="41.681290" lon="-8.188620">
        <ele>194.036</ele>
        <time>2020-07-15T12:16:16Z</time>
      </trkpt>
      <trkpt lat="41.681370" lon="-8.188950">
        <ele>195.941</ele>
        <time>2020-07-15T12:16:36Z</time>
      </trkpt>
      <trkpt lat="41.681370" lon="-8.189140">
        <ele>197.259</ele>
        <time>2020-07-15T12:16:56Z</time>
      </trkpt>
      <trkpt lat="41.681310" lon="-8.189810">
        <ele>199.496</ele>
        <time>2020-07-15T12:17:16Z</time>
      </trkpt>
      <trkpt lat="41.681310" lon="-8.190130">
        <ele>200.896</ele>
        <time>2020-07-15T12:17:36Z</time>
      </trkpt>
      <trkpt lat="41.681370" lon="-8.191450">
        <ele>206.856</ele>
        <time>2020-07-15T12:17:56Z</time>
      </trkpt>
      <trkpt lat="41.681560" lon="-8.192150">
        <ele>205.817</ele>
        <time>2020-07-15T12:18:16Z</time>
      </trkpt>
      <trkpt lat="41.681610" lon="-8.192450">
        <ele>205.369</ele>
        <time>2020-07-15T12:18:36Z</time>
      </trkpt>
      <trkpt lat="41.681590" lon="-8.193920">
        <ele>214.304</ele>
        <time>2020-07-15T12:18:56Z</time>
      </trkpt>
      <trkpt lat="41.681620" lon="-8.194090">
        <ele>215.324</ele>
        <time>2020-07-15T12:19:16Z</time>
      </trkpt>
      <trkpt lat="41.681770" lon="-8.194470">
        <ele>217.208</ele>
        <time>2020-07-15T12:19:36Z</time>
      </trkpt>
      <trkpt lat="41.681900" lon="-8.194660">
        <ele>216.561</ele>
        <time>2020-07-15T12:19:56Z</time>
      </trkpt>
      <trkpt lat="41.681970" lon="-8.194850">
        <ele>217.328</ele>
        <time>2020-07-15T12:20:16Z</time>
      </trkpt>
      <trkpt lat="41.682050" lon="-8.195380">
        <ele>228.433</ele>
        <time>2020-07-15T12:20:36Z</time>
      </trkpt>
      <trkpt lat="41.682100" lon="-8.195530">
        <ele>229.231</ele>
        <time>2020-07-15T12:20:56Z</time>
      </trkpt>
      <trkpt lat="41.682230" lon="-8.195690">
        <ele>225.028</ele>
        <time>2020-07-15T12:21:16Z</time>
      </trkpt>
      <trkpt lat="41.682330" lon="-8.195740">
        <ele>225.118</ele>
        <time>2020-07-15T12:21:36Z</time>
      </trkpt>
      <trkpt lat="41.682510" lon="-8.195750">
        <ele>224.818</ele>
        <time>2020-07-15T12:21:56Z</time>
      </trkpt>
      <trkpt lat="41.683060" lon="-8.195770">
        <ele>226.899</ele>
        <time>2020-07-15T12:22:16Z</time>
      </trkpt>
      <trkpt lat="41.683650" lon="-8.195700">
        <ele>231.757</ele>
        <time>2020-07-15T12:22:36Z</time>
      </trkpt>
      <trkpt lat="41.683850" lon="-8.195720">
        <ele>232.600</ele>
        <time>2020-07-15T12:22:56Z</time>
      </trkpt>
      <trkpt lat="41.683920" lon="-8.195740">
        <ele>232.620</ele>
        <time>2020-07-15T12:23:16Z</time>
      </trkpt>
      <trkpt lat="41.684000" lon="-8.195790">
        <ele>232.208</ele>
        <time>2020-07-15T12:23:36Z</time>
      </trkpt>
      <trkpt lat="41.684250" lon="-8.196070">
        <ele>231.060</ele>
        <time>2020-07-15T12:23:56Z</time>
      </trkpt>
      <trkpt lat="41.684460" lon="-8.196510">
        <ele>232.727</ele>
        <time>2020-07-15T12:24:16Z</time>
      </trkpt>
      <trkpt lat="41.684470" lon="-8.196690">
        <ele>233.722</ele>
        <time>2020-07-15T12:24:36Z</time>
      </trkpt>
      <trkpt lat="41.684390" lon="-8.197070">
        <ele>236.140</ele>
        <time>2020-07-15T12:24:56Z</time>
      </trkpt>
      <trkpt lat="41.684390" lon="-8.197420">
        <ele>240.437</ele>
        <time>2020-07-15T12:25:16Z</time>
      </trkpt>
      <trkpt lat="41.684430" lon="-8.197550">
        <ele>242.147</ele>
        <time>2020-07-15T12:25:36Z</time>
      </trkpt>
      <trkpt lat="41.684480" lon="-8.197650">
        <ele>244.097</ele>
        <time>2020-07-15T12:25:56Z</time>
      </trkpt>
      <trkpt lat="41.684770" lon="-8.198000">
        <ele>244.598</ele>
        <time>2020-07-15T12:26:16Z</time>
      </trkpt>
      <trkpt lat="41.684820" lon="-8.198130">
        <ele>245.477</ele>
        <time>2020-07-15T12:26:36Z</time>
      </trkpt>
      <trkpt lat="41.684940" lon="-8.198900">
        <ele>256.061</ele>
        <time>2020-07-15T12:26:56Z</time>
      </trkpt>
      <trkpt lat="41.685040" lon="-8.199120">
        <ele>259.727</ele>
        <time>2020-07-15T12:27:16Z</time>
      </trkpt>
      <trkpt lat="41.685150" lon="-8.199240">
        <ele>261.408</ele>
        <time>2020-07-15T12:27:36Z</time>
      </trkpt>
      <trkpt lat="41.685270" lon="-8.199330">
        <ele>263.222</ele>
        <time>2020-07-15T12:27:56Z</time>
      </trkpt>
      <trkpt lat="41.685410" lon="-8.199400">
        <ele>263.059</ele>
        <time>2020-07-15T12:28:16Z</time>
      </trkpt>
      <trkpt lat="41.685820" lon="-8.199530">
        <ele>256.864</ele>
        <time>2020-07-15T12:28:36Z</time>
      </trkpt>
      <trkpt lat="41.685920" lon="-8.199590">
        <ele>256.332</ele>
        <time>2020-07-15T12:28:56Z</time>
      </trkpt>
      <trkpt lat="41.686040" lon="-8.199710">
        <ele>256.549</ele>
        <time>2020-07-15T12:29:16Z</time>
      </trkpt>
      <trkpt lat="41.686130" lon="-8.199870">
        <ele>256.729</ele>
        <time>2020-07-15T12:29:36Z</time>
      </trkpt>
      <trkpt lat="41.686450" lon="-8.200660">
        <ele>265.049</ele>
        <time>2020-07-15T12:29:56Z</time>
      </trkpt>
      <trkpt lat="41.686550" lon="-8.200820">
        <ele>267.480</ele>
        <time>2020-07-15T12:30:16Z</time>
      </trkpt>
      <trkpt lat="41.686780" lon="-8.200980">
        <ele>270.573</ele>
        <time>2020-07-15T12:30:36Z</time>
      </trkpt>
      <trkpt lat="41.687000" lon="-8.200850">
        <ele>266.585</ele>
        <time>2020-07-15T12:30:56Z</time>
      </trkpt>
      <trkpt lat="41.687200" lon="-8.200880">
        <ele>267.313</ele>
        <time>2020-07-15T12:31:16Z</time>
      </trkpt>
      <trkpt lat="41.687380" lon="-8.200930">
        <ele>268.208</ele>
        <time>2020-07-15T12:31:36Z</time>
      </trkpt>
      <trkpt lat="41.687610" lon="-8.201140">
        <ele>269.942</ele>
        <time>2020-07-15T12:31:56Z</time>
      </trkpt>
      <trkpt lat="41.687740" lon="-8.201330">
        <ele>268.449</ele>
        <time>2020-07-15T12:32:16Z</time>
      </trkpt>
      <trkpt lat="41.688070" lon="-8.202290">
        <ele>272.384</ele>
        <time>2020-07-15T12:32:36Z</time>
      </trkpt>
      <trkpt lat="41.688160" lon="-8.202460">
        <ele>272.542</ele>
        <time>2020-07-15T12:32:56Z</time>
      </trkpt>
      <trkpt lat="41.688340" lon="-8.202670">
        <ele>275.439</ele>
        <time>2020-07-15T12:33:16Z</time>
      </trkpt>
      <trkpt lat="41.688680" lon="-8.202950">
        <ele>281.729</ele>
        <time>2020-07-15T12:33:36Z</time>
      </trkpt>
      <trkpt lat="41.689840" lon="-8.203770">
        <ele>287.779</ele>
        <time>2020-07-15T12:33:56Z</time>
      </trkpt>
      <trkpt lat="41.690770" lon="-8.204150">
        <ele>286.240</ele>
        <time>2020-07-15T12:34:16Z</time>
      </trkpt>
      <trkpt lat="41.690970" lon="-8.204260">
        <ele>285.247</ele>
        <time>2020-07-15T12:34:36Z</time>
      </trkpt>
      <trkpt lat="41.691120" lon="-8.204400">
        <ele>285.829</ele>
        <time>2020-07-15T12:34:56Z</time>
      </trkpt>
      <trkpt lat="41.691200" lon="-8.204480">
        <ele>286.021</ele>
        <time>2020-07-15T12:35:16Z</time>
      </trkpt>
      <trkpt lat="41.691460" lon="-8.204940">
        <ele>290.408</ele>
        <time>2020-07-15T12:35:36Z</time>
      </trkpt>
      <trkpt lat="41.691620" lon="-8.205180">
        <ele>294.839</ele>
        <time>2020-07-15T12:35:56Z</time>
      </trkpt>
      <trkpt lat="41.692100" lon="-8.205390">
        <ele>292.866</ele>
        <time>2020-07-15T12:36:16Z</time>
      </trkpt>
      <trkpt lat="41.692300" lon="-8.205530">
        <ele>289.791</ele>
        <time>2020-07-15T12:36:36Z</time>
      </trkpt>
      <trkpt lat="41.692410" lon="-8.205670">
        <ele>288.899</ele>
        <time>2020-07-15T12:36:56Z</time>
      </trkpt>
      <trkpt lat="41.692440" lon="-8.205780">
        <ele>289.366</ele>
        <time>2020-07-15T12:37:16Z</time>
      </trkpt>
      <trkpt lat="41.692460" lon="-8.206140">
        <ele>294.016</ele>
        <time>2020-07-15T12:37:36Z</time>
      </trkpt>
      <trkpt lat="41.692520" lon="-8.206250">
        <ele>295.246</ele>
        <time>2020-07-15T12:37:56Z</time>
      </trkpt>
      <trkpt lat="41.692670" lon="-8.206400">
        <ele>297.637</ele>
        <time>2020-07-15T12:38:16Z</time>
      </trkpt>
      <trkpt lat="41.692730" lon="-8.206440">
        <ele>298.779</ele>
        <time>2020-07-15T12:38:36Z</time>
      </trkpt>
      <trkpt lat="41.693050" lon="-8.206440">
        <ele>296.905</ele>
        <time>2020-07-15T12:38:56Z</time>
      </trkpt>
      <trkpt lat="41.693190" lon="-8.206410">
        <ele>294.725</ele>
        <time>2020-07-15T12:39:16Z</time>
      </trkpt>
      <trkpt lat="41.693350" lon="-8.206410">
        <ele>293.408</ele>
        <time>2020-07-15T12:39:36Z</time>
      </trkpt>
      <trkpt lat="41.693460" lon="-8.206470">
        <ele>294.162</ele>
        <time>2020-07-15T12:39:56Z</time>
      </trkpt>
      <trkpt lat="41.693600" lon="-8.206590">
        <ele>296.669</ele>
        <time>2020-07-15T12:40:16Z</time>
      </trkpt>
      <trkpt lat="41.693920" lon="-8.206690">
        <ele>298.694</ele>
        <time>2020-07-15T12:40:36Z</time>
      </trkpt>
      <trkpt lat="41.694100" lon="-8.206840">
        <ele>302.792</ele>
        <time>2020-07-15T12:40:56Z</time>
      </trkpt>
      <trkpt lat="41.694200" lon="-8.206900">
        <ele>304.619</ele>
        <time>2020-07-15T12:41:16Z</time>
      </trkpt>
      <trkpt lat="41.694270" lon="-8.206910">
        <ele>304.919</ele>
        <time>2020-07-15T12:41:36Z</time>
      </trkpt>
      <trkpt lat="41.694370" lon="-8.206890">
        <ele>304.459</ele>
        <time>2020-07-15T12:41:56Z</time>
      </trkpt>
      <trkpt lat="41.694780" lon="-8.206720">
        <ele>298.540</ele>
        <time>2020-07-15T12:42:16Z</time>
      </trkpt>
      <trkpt lat="41.694790" lon="-8.206800">
        <ele>300.494</ele>
        <time>2020-07-15T12:42:36Z</time>
      </trkpt>
      <trkpt lat="41.694860" lon="-8.206810">
        <ele>299.657</ele>
        <time>2020-07-15T12:42:56Z</time>
      </trkpt>
      <trkpt lat="41.694960" lon="-8.206860">
        <ele>299.422</ele>
        <time>2020-07-15T12:43:16Z</time>
      </trkpt>
      <trkpt lat="41.695090" lon="-8.207050">
        <ele>302.308</ele>
        <time>2020-07-15T12:43:36Z</time>
      </trkpt>
      <trkpt lat="41.695160" lon="-8.207250">
        <ele>304.944</ele>
        <time>2020-07-15T12:43:56Z</time>
      </trkpt>
      <trkpt lat="41.695190" lon="-8.207640">
        <ele>311.941</ele>
        <time>2020-07-15T12:44:16Z</time>
      </trkpt>
      <trkpt lat="41.695230" lon="-8.207730">
        <ele>312.596</ele>
        <time>2020-07-15T12:44:36Z</time>
      </trkpt>
      <trkpt lat="41.695440" lon="-8.207910">
        <ele>312.254</ele>
        <time>2020-07-15T12:44:56Z</time>
      </trkpt>
      <trkpt lat="41.695510" lon="-8.207930">
        <ele>311.621</ele>
        <time>2020-07-15T12:45:16Z</time>
      </trkpt>
      <trkpt lat="41.695670" lon="-8.207930">
        <ele>309.641</ele>
        <time>2020-07-15T12:45:36Z</time>
      </trkpt>
      <trkpt lat="41.695750" lon="-8.207960">
        <ele>309.341</ele>
        <time>2020-07-15T12:45:56Z</time>
      </trkpt>
      <trkpt lat="41.695800" lon="-8.208010">
        <ele>309.662</ele>
        <time>2020-07-15T12:46:16Z</time>
      </trkpt>
      <trkpt lat="41.695840" lon="-8.208100">
        <ele>310.521</ele>
        <time>2020-07-15T12:46:36Z</time>
      </trkpt>
      <trkpt lat="41.695920" lon="-8.208420">
        <ele>313.641</ele>
        <time>2020-07-15T12:46:56Z</time>
      </trkpt>
      <trkpt lat="41.696030" lon="-8.208640">
        <ele>314.805</ele>
        <time>2020-07-15T12:47:16Z</time>
      </trkpt>
      <trkpt lat="41.696110" lon="-8.208710">
        <ele>314.508</ele>
        <time>2020-07-15T12:47:36Z</time>
      </trkpt>
      <trkpt lat="41.696540" lon="-8.208980">
        <ele>320.417</ele>
        <time>2020-07-15T12:47:56Z</time>
      </trkpt>
      <trkpt lat="41.696960" lon="-8.209170">
        <ele>327.024</ele>
        <time>2020-07-15T12:48:16Z</time>
      </trkpt>
      <trkpt lat="41.697050" lon="-8.209180">
        <ele>327.179</ele>
        <time>2020-07-15T12:48:36Z</time>
      </trkpt>
      <trkpt lat="41.697300" lon="-8.209120">
        <ele>324.687</ele>
        <time>2020-07-15T12:48:56Z</time>
      </trkpt>
      <trkpt lat="41.697580" lon="-8.209160">
        <ele>326.034</ele>
        <time>2020-07-15T12:49:16Z</time>
      </trkpt>
      <trkpt lat="41.697850" lon="-8.209100">
        <ele>323.434</ele>
        <time>2020-07-15T12:49:36Z</time>
      </trkpt>
      <trkpt lat="41.697960" lon="-8.209110">
        <ele>323.214</ele>
        <time>2020-07-15T12:49:56Z</time>
      </trkpt>
      <trkpt lat="41.698030" lon="-8.209140">
        <ele>324.555</ele>
        <time>2020-07-15T12:50:16Z</time>
      </trkpt>
      <trkpt lat="41.698340" lon="-8.209470">
        <ele>332.753</ele>
        <time>2020-07-15T12:50:36Z</time>
      </trkpt>
      <trkpt lat="41.698670" lon="-8.209920">
        <ele>332.304</ele>
        <time>2020-07-15T12:50:56Z</time>
      </trkpt>
      <trkpt lat="41.698880" lon="-8.210430">
        <ele>335.314</ele>
        <time>2020-07-15T12:51:16Z</time>
      </trkpt>
      <trkpt lat="41.699020" lon="-8.210600">
        <ele>333.108</ele>
        <time>2020-07-15T12:51:36Z</time>
      </trkpt>
      <trkpt lat="41.699140" lon="-8.210780">
        <ele>332.880</ele>
        <time>2020-07-15T12:51:56Z</time>
      </trkpt>
      <trkpt lat="41.699320" lon="-8.211160">
        <ele>337.397</ele>
        <time>2020-07-15T12:52:16Z</time>
      </trkpt>
      <trkpt lat="41.699390" lon="-8.211250">
        <ele>337.772</ele>
        <time>2020-07-15T12:52:36Z</time>
      </trkpt>
      <trkpt lat="41.699510" lon="-8.211300">
        <ele>339.480</ele>
        <time>2020-07-15T12:52:56Z</time>
      </trkpt>
      <trkpt lat="41.699610" lon="-8.211300">
        <ele>341.887</ele>
        <time>2020-07-15T12:53:16Z</time>
      </trkpt>
      <trkpt lat="41.699680" lon="-8.211270">
        <ele>341.827</ele>
        <time>2020-07-15T12:53:36Z</time>
      </trkpt>
      <trkpt lat="41.699800" lon="-8.211140">
        <ele>338.077</ele>
        <time>2020-07-15T12:53:56Z</time>
      </trkpt>
      <trkpt lat="41.699940" lon="-8.211070">
        <ele>340.618</ele>
        <time>2020-07-15T12:54:16Z</time>
      </trkpt>
      <trkpt lat="41.700280" lon="-8.211050">
        <ele>345.063</ele>
        <time>2020-07-15T12:54:36Z</time>
      </trkpt>
      <trkpt lat="41.700530" lon="-8.211080">
        <ele>345.744</ele>
        <time>2020-07-15T12:54:56Z</time>
      </trkpt>
      <trkpt lat="41.700880" lon="-8.211170">
        <ele>340.818</ele>
        <time>2020-07-15T12:55:16Z</time>
      </trkpt>
      <trkpt lat="41.700970" lon="-8.211220">
        <ele>340.808</ele>
        <time>2020-07-15T12:55:36Z</time>
      </trkpt>
      <trkpt lat="41.701090" lon="-8.211360">
        <ele>342.611</ele>
        <time>2020-07-15T12:55:56Z</time>
      </trkpt>
      <trkpt lat="41.701400" lon="-8.211800">
        <ele>347.728</ele>
        <time>2020-07-15T12:56:16Z</time>
      </trkpt>
      <trkpt lat="41.701450" lon="-8.211900">
        <ele>349.573</ele>
        <time>2020-07-15T12:56:36Z</time>
      </trkpt>
      <trkpt lat="41.701540" lon="-8.212200">
        <ele>360.031</ele>
        <time>2020-07-15T12:56:56Z</time>
      </trkpt>
      <trkpt lat="41.701610" lon="-8.212270">
        <ele>362.378</ele>
        <time>2020-07-15T12:57:16Z</time>
      </trkpt>
      <trkpt lat="41.701710" lon="-8.212310">
        <ele>363.688</ele>
        <time>2020-07-15T12:57:36Z</time>
      </trkpt>
      <trkpt lat="41.701820" lon="-8.212290">
        <ele>363.058</ele>
        <time>2020-07-15T12:57:56Z</time>
      </trkpt>
      <trkpt lat="41.702070" lon="-8.212170">
        <ele>357.739</ele>
        <time>2020-07-15T12:58:16Z</time>
      </trkpt>
      <trkpt lat="41.702170" lon="-8.212170">
        <ele>357.733</ele>
        <time>2020-07-15T12:58:36Z</time>
      </trkpt>
      <trkpt lat="41.702340" lon="-8.212220">
        <ele>358.223</ele>
        <time>2020-07-15T12:58:56Z</time>
      </trkpt>
      <trkpt lat="41.702650" lon="-8.212390">
        <ele>358.015</ele>
        <time>2020-07-15T12:59:16Z</time>
      </trkpt>
      <trkpt lat="41.702990" lon="-8.212700">
        <ele>359.808</ele>
        <time>2020-07-15T12:59:36Z</time>
      </trkpt>
      <trkpt lat="41.703110" lon="-8.212720">
        <ele>360.538</ele>
        <time>2020-07-15T12:59:56Z</time>
      </trkpt>
      <trkpt lat="41.703210" lon="-8.212710">
        <ele>361.315</ele>
        <time>2020-07-15T13:00:16Z</time>
      </trkpt>
      <trkpt lat="41.703410" lon="-8.212650">
        <ele>360.310</ele>
        <time>2020-07-15T13:00:36Z</time>
      </trkpt>
      <trkpt lat="41.703550" lon="-8.212690">
        <ele>359.848</ele>
        <time>2020-07-15T13:00:56Z</time>
      </trkpt>
      <trkpt lat="41.703600" lon="-8.212770">
        <ele>361.895</ele>
        <time>2020-07-15T13:01:16Z</time>
      </trkpt>
      <trkpt lat="41.703800" lon="-8.213280">
        <ele>365.245</ele>
        <time>2020-07-15T13:01:36Z</time>
      </trkpt>
      <trkpt lat="41.703910" lon="-8.213450">
        <ele>362.635</ele>
        <time>2020-07-15T13:01:56Z</time>
      </trkpt>
      <trkpt lat="41.704160" lon="-8.213750">
        <ele>361.356</ele>
        <time>2020-07-15T13:02:16Z</time>
      </trkpt>
      <trkpt lat="41.704610" lon="-8.214940">
        <ele>378.054</ele>
        <time>2020-07-15T13:02:36Z</time>
      </trkpt>
      <trkpt lat="41.704660" lon="-8.215180">
        <ele>378.156</ele>
        <time>2020-07-15T13:02:56Z</time>
      </trkpt>
      <trkpt lat="41.704650" lon="-8.215460">
        <ele>378.611</ele>
        <time>2020-07-15T13:03:16Z</time>
      </trkpt>
      <trkpt lat="41.704610" lon="-8.215790">
        <ele>379.408</ele>
        <time>2020-07-15T13:03:36Z</time>
      </trkpt>
      <trkpt lat="41.704560" lon="-8.216020">
        <ele>381.250</ele>
        <time>2020-07-15T13:03:56Z</time>
      </trkpt>
      <trkpt lat="41.704300" lon="-8.216740">
        <ele>393.337</ele>
        <time>2020-07-15T13:04:16Z</time>
      </trkpt>
      <trkpt lat="41.704320" lon="-8.216920">
        <ele>395.252</ele>
        <time>2020-07-15T13:04:36Z</time>
      </trkpt>
      <trkpt lat="41.704360" lon="-8.217010">
        <ele>397.180</ele>
        <time>2020-07-15T13:04:56Z</time>
      </trkpt>
      <trkpt lat="41.704410" lon="-8.217070">
        <ele>398.657</ele>
        <time>2020-07-15T13:05:16Z</time>
      </trkpt>
      <trkpt lat="41.704470" lon="-8.217090">
        <ele>398.927</ele>
        <time>2020-07-15T13:05:36Z</time>
      </trkpt>
      <trkpt lat="41.704560" lon="-8.217080">
        <ele>398.847</ele>
        <time>2020-07-15T13:05:56Z</time>
      </trkpt>
      <trkpt lat="41.705390" lon="-8.216960">
        <ele>385.088</ele>
        <time>2020-07-15T13:06:16Z</time>
      </trkpt>
      <trkpt lat="41.705530" lon="-8.216980">
        <ele>383.527</ele>
        <time>2020-07-15T13:06:36Z</time>
      </trkpt>
      <trkpt lat="41.705590" lon="-8.217020">
        <ele>383.268</ele>
        <time>2020-07-15T13:06:56Z</time>
      </trkpt>
      <trkpt lat="41.705940" lon="-8.217430">
        <ele>387.914</ele>
        <time>2020-07-15T13:07:16Z</time>
      </trkpt>
      <trkpt lat="41.706050" lon="-8.217490">
        <ele>389.808</ele>
        <time>2020-07-15T13:07:36Z</time>
      </trkpt>
      <trkpt lat="41.706320" lon="-8.217560">
        <ele>395.997</ele>
        <time>2020-07-15T13:07:56Z</time>
      </trkpt>
      <trkpt lat="41.706600" lon="-8.217560">
        <ele>400.674</ele>
        <time>2020-07-15T13:08:16Z</time>
      </trkpt>
      <trkpt lat="41.706690" lon="-8.217520">
        <ele>400.719</ele>
        <time>2020-07-15T13:08:36Z</time>
      </trkpt>
      <trkpt lat="41.707040" lon="-8.217230">
        <ele>394.547</ele>
        <time>2020-07-15T13:08:56Z</time>
      </trkpt>
      <trkpt lat="41.707110" lon="-8.217200">
        <ele>393.634</ele>
        <time>2020-07-15T13:09:16Z</time>
      </trkpt>
      <trkpt lat="41.707190" lon="-8.217190">
        <ele>393.784</ele>
        <time>2020-07-15T13:09:36Z</time>
      </trkpt>
      <trkpt lat="41.707450" lon="-8.217300">
        <ele>402.384</ele>
        <time>2020-07-15T13:09:56Z</time>
      </trkpt>
      <trkpt lat="41.707830" lon="-8.217530">
        <ele>414.315</ele>
        <time>2020-07-15T13:10:16Z</time>
      </trkpt>
      <trkpt lat="41.707960" lon="-8.217580">
        <ele>411.379</ele>
        <time>2020-07-15T13:10:36Z</time>
      </trkpt>
      <trkpt lat="41.708050" lon="-8.217640">
        <ele>410.305</ele>
        <time>2020-07-15T13:10:56Z</time>
      </trkpt>
      <trkpt lat="41.708180" lon="-8.217790">
        <ele>413.325</ele>
        <time>2020-07-15T13:11:16Z</time>
      </trkpt>
      <trkpt lat="41.708330" lon="-8.217920">
        <ele>416.308</ele>
        <time>2020-07-15T13:11:36Z</time>
      </trkpt>
      <trkpt lat="41.708630" lon="-8.218070">
        <ele>414.482</ele>
        <time>2020-07-15T13:11:56Z</time>
      </trkpt>
      <trkpt lat="41.708860" lon="-8.218290">
        <ele>420.599</ele>
        <time>2020-07-15T13:12:16Z</time>
      </trkpt>
      <trkpt lat="41.709130" lon="-8.218380">
        <ele>415.274</ele>
        <time>2020-07-15T13:12:36Z</time>
      </trkpt>
      <trkpt lat="41.709220" lon="-8.218430">
        <ele>413.652</ele>
        <time>2020-07-15T13:12:56Z</time>
      </trkpt>
      <trkpt lat="41.709490" lon="-8.218750">
        <ele>412.559</ele>
        <time>2020-07-15T13:13:16Z</time>
      </trkpt>
      <trkpt lat="41.709590" lon="-8.219140">
        <ele>421.499</ele>
        <time>2020-07-15T13:13:36Z</time>
      </trkpt>
      <trkpt lat="41.709630" lon="-8.219220">
        <ele>422.899</ele>
        <time>2020-07-15T13:13:56Z</time>
      </trkpt>
      <trkpt lat="41.709680" lon="-8.219280">
        <ele>423.270</ele>
        <time>2020-07-15T13:14:16Z</time>
      </trkpt>
      <trkpt lat="41.709880" lon="-8.219420">
        <ele>425.876</ele>
        <time>2020-07-15T13:14:36Z</time>
      </trkpt>
      <trkpt lat="41.710140" lon="-8.219550">
        <ele>431.390</ele>
        <time>2020-07-15T13:14:56Z</time>
      </trkpt>
      <trkpt lat="41.710210" lon="-8.219570">
        <ele>432.319</ele>
        <time>2020-07-15T13:15:16Z</time>
      </trkpt>
      <trkpt lat="41.710600" lon="-8.219480">
        <ele>425.508</ele>
        <time>2020-07-15T13:15:36Z</time>
      </trkpt>
      <trkpt lat="41.710720" lon="-8.219490">
        <ele>425.162</ele>
        <time>2020-07-15T13:15:56Z</time>
      </trkpt>
      <trkpt lat="41.710820" lon="-8.219540">
        <ele>426.949</ele>
        <time>2020-07-15T13:16:16Z</time>
      </trkpt>
      <trkpt lat="41.711240" lon="-8.219860">
        <ele>438.364</ele>
        <time>2020-07-15T13:16:36Z</time>
      </trkpt>
      <trkpt lat="41.711390" lon="-8.219940">
        <ele>439.872</ele>
        <time>2020-07-15T13:16:56Z</time>
      </trkpt>
      <trkpt lat="41.711450" lon="-8.219930">
        <ele>439.629</ele>
        <time>2020-07-15T13:17:16Z</time>
      </trkpt>
      <trkpt lat="41.711510" lon="-8.219890">
        <ele>438.669</ele>
        <time>2020-07-15T13:17:36Z</time>
      </trkpt>
      <trkpt lat="41.711590" lon="-8.219790">
        <ele>436.139</ele>
        <time>2020-07-15T13:17:56Z</time>
      </trkpt>
      <trkpt lat="41.711860" lon="-8.218900">
        <ele>426.590</ele>
        <time>2020-07-15T13:18:16Z</time>
      </trkpt>
      <trkpt lat="41.711960" lon="-8.218750">
        <ele>427.862</ele>
        <time>2020-07-15T13:18:36Z</time>
      </trkpt>
      <trkpt lat="41.712090" lon="-8.218670">
        <ele>428.283</ele>
        <time>2020-07-15T13:18:56Z</time>
      </trkpt>
      <trkpt lat="41.712230" lon="-8.218660">
        <ele>429.811</ele>
        <time>2020-07-15T13:19:16Z</time>
      </trkpt>
      <trkpt lat="41.712700" lon="-8.218790">
        <ele>434.708</ele>
        <time>2020-07-15T13:19:36Z</time>
      </trkpt>
      <trkpt lat="41.712940" lon="-8.218880">
        <ele>436.251</ele>
        <time>2020-07-15T13:19:56Z</time>
      </trkpt>
      <trkpt lat="41.713040" lon="-8.218970">
        <ele>437.828</ele>
        <time>2020-07-15T13:20:16Z</time>
      </trkpt>
      <trkpt lat="41.713090" lon="-8.219060">
        <ele>439.323</ele>
        <time>2020-07-15T13:20:36Z</time>
      </trkpt>
      <trkpt lat="41.713220" lon="-8.219210">
        <ele>443.511</ele>
        <time>2020-07-15T13:20:56Z</time>
      </trkpt>
      <trkpt lat="41.713360" lon="-8.219280">
        <ele>447.058</ele>
        <time>2020-07-15T13:21:16Z</time>
      </trkpt>
      <trkpt lat="41.713460" lon="-8.219280">
        <ele>448.158</ele>
        <time>2020-07-15T13:21:36Z</time>
      </trkpt>
      <trkpt lat="41.713550" lon="-8.219250">
        <ele>447.598</ele>
        <time>2020-07-15T13:21:56Z</time>
      </trkpt>
      <trkpt lat="41.713930" lon="-8.218910">
        <ele>443.979</ele>
        <time>2020-07-15T13:22:16Z</time>
      </trkpt>
      <trkpt lat="41.714100" lon="-8.218810">
        <ele>445.953</ele>
        <time>2020-07-15T13:22:36Z</time>
      </trkpt>
      <trkpt lat="41.715060" lon="-8.218500">
        <ele>448.704</ele>
        <time>2020-07-15T13:22:56Z</time>
      </trkpt>
      <trkpt lat="41.715210" lon="-8.218480">
        <ele>450.514</ele>
        <time>2020-07-15T13:23:16Z</time>
      </trkpt>
      <trkpt lat="41.715620" lon="-8.218570">
        <ele>453.208</ele>
        <time>2020-07-15T13:23:36Z</time>
      </trkpt>
      <trkpt lat="41.715750" lon="-8.218610">
        <ele>453.640</ele>
        <time>2020-07-15T13:23:56Z</time>
      </trkpt>
      <trkpt lat="41.715900" lon="-8.218680">
        <ele>455.957</ele>
        <time>2020-07-15T13:24:16Z</time>
      </trkpt>
      <trkpt lat="41.715980" lon="-8.218760">
        <ele>459.122</ele>
        <time>2020-07-15T13:24:36Z</time>
      </trkpt>
      <trkpt lat="41.716110" lon="-8.218980">
        <ele>465.620</ele>
        <time>2020-07-15T13:24:56Z</time>
      </trkpt>
      <trkpt lat="41.716270" lon="-8.219060">
        <ele>468.197</ele>
        <time>2020-07-15T13:25:16Z</time>
      </trkpt>
      <trkpt lat="41.716460" lon="-8.219030">
        <ele>468.567</ele>
        <time>2020-07-15T13:25:36Z</time>
      </trkpt>
      <trkpt lat="41.716810" lon="-8.218940">
        <ele>466.597</ele>
        <time>2020-07-15T13:25:56Z</time>
      </trkpt>
      <trkpt lat="41.716910" lon="-8.218940">
        <ele>466.998</ele>
        <time>2020-07-15T13:26:16Z</time>
      </trkpt>
      <trkpt lat="41.717350" lon="-8.219010">
        <ele>471.564</ele>
        <time>2020-07-15T13:26:36Z</time>
      </trkpt>
      <trkpt lat="41.717420" lon="-8.219040">
        <ele>472.406</ele>
        <time>2020-07-15T13:26:56Z</time>
      </trkpt>
      <trkpt lat="41.717860" lon="-8.219320">
        <ele>481.216</ele>
        <time>2020-07-15T13:27:16Z</time>
      </trkpt>
      <trkpt lat="41.717950" lon="-8.219360">
        <ele>484.508</ele>
        <time>2020-07-15T13:27:36Z</time>
      </trkpt>
      <trkpt lat="41.718090" lon="-8.219360">
        <ele>488.081</ele>
        <time>2020-07-15T13:27:56Z</time>
      </trkpt>
      <trkpt lat="41.718190" lon="-8.219330">
        <ele>490.278</ele>
        <time>2020-07-15T13:28:16Z</time>
      </trkpt>
      <trkpt lat="41.718300" lon="-8.219200">
        <ele>489.863</ele>
        <time>2020-07-15T13:28:36Z</time>
      </trkpt>
      <trkpt lat="41.718550" lon="-8.218540">
        <ele>483.981</ele>
        <time>2020-07-15T13:28:56Z</time>
      </trkpt>
      <trkpt lat="41.718610" lon="-8.218460">
        <ele>484.738</ele>
        <time>2020-07-15T13:29:16Z</time>
      </trkpt>
      <trkpt lat="41.718700" lon="-8.218410">
        <ele>486.838</ele>
        <time>2020-07-15T13:29:36Z</time>
      </trkpt>
      <trkpt lat="41.719050" lon="-8.218370">
        <ele>494.568</ele>
        <time>2020-07-15T13:29:56Z</time>
      </trkpt>
      <trkpt lat="41.719160" lon="-8.218340">
        <ele>495.249</ele>
        <time>2020-07-15T13:30:16Z</time>
      </trkpt>
      <trkpt lat="41.719350" lon="-8.218250">
        <ele>494.076</ele>
        <time>2020-07-15T13:30:36Z</time>
      </trkpt>
      <trkpt lat="41.719670" lon="-8.218010">
        <ele>497.090</ele>
        <time>2020-07-15T13:30:56Z</time>
      </trkpt>
      <trkpt lat="41.720250" lon="-8.217650">
        <ele>500.019</ele>
        <time>2020-07-15T13:31:16Z</time>
      </trkpt>
      <trkpt lat="41.721020" lon="-8.217420">
        <ele>514.008</ele>
        <time>2020-07-15T13:31:36Z</time>
      </trkpt>
      <trkpt lat="41.721170" lon="-8.217360">
        <ele>515.172</ele>
        <time>2020-07-15T13:31:56Z</time>
      </trkpt>
      <trkpt lat="41.721310" lon="-8.217270">
        <ele>513.269</ele>
        <time>2020-07-15T13:32:16Z</time>
      </trkpt>
      <trkpt lat="41.721690" lon="-8.216860">
        <ele>508.914</ele>
        <time>2020-07-15T13:32:36Z</time>
      </trkpt>
      <trkpt lat="41.721800" lon="-8.216760">
        <ele>508.812</ele>
        <time>2020-07-15T13:32:56Z</time>
      </trkpt>
      <trkpt lat="41.721880" lon="-8.216740">
        <ele>509.659</ele>
        <time>2020-07-15T13:33:16Z</time>
      </trkpt>
      <trkpt lat="41.721990" lon="-8.216740">
        <ele>511.249</ele>
        <time>2020-07-15T13:33:36Z</time>
      </trkpt>
      <trkpt lat="41.722530" lon="-8.216820">
        <ele>518.839</ele>
        <time>2020-07-15T13:33:56Z</time>
      </trkpt>
      <trkpt lat="41.723020" lon="-8.216820">
        <ele>528.410</ele>
        <time>2020-07-15T13:34:16Z</time>
      </trkpt>
      <trkpt lat="41.723320" lon="-8.216840">
        <ele>534.468</ele>
        <time>2020-07-15T13:34:36Z</time>
      </trkpt>
      <trkpt lat="41.723470" lon="-8.216870">
        <ele>534.242</ele>
        <time>2020-07-15T13:34:56Z</time>
      </trkpt>
      <trkpt lat="41.723720" lon="-8.216970">
        <ele>533.826</ele>
        <time>2020-07-15T13:35:16Z</time>
      </trkpt>
      <trkpt lat="41.724210" lon="-8.217230">
        <ele>541.608</ele>
        <time>2020-07-15T13:35:36Z</time>
      </trkpt>
      <trkpt lat="41.724320" lon="-8.217260">
        <ele>546.011</ele>
        <time>2020-07-15T13:35:56Z</time>
      </trkpt>
      <trkpt lat="41.724460" lon="-8.217260">
        <ele>550.368</ele>
        <time>2020-07-15T13:36:16Z</time>
      </trkpt>
      <trkpt lat="41.724650" lon="-8.217200">
        <ele>555.253</ele>
        <time>2020-07-15T13:36:36Z</time>
      </trkpt>
      <trkpt lat="41.724770" lon="-8.217120">
        <ele>556.161</ele>
        <time>2020-07-15T13:36:56Z</time>
      </trkpt>
      <trkpt lat="41.725030" lon="-8.216690">
        <ele>546.578</ele>
        <time>2020-07-15T13:37:16Z</time>
      </trkpt>
      <trkpt lat="41.725150" lon="-8.216590">
        <ele>545.238</ele>
        <time>2020-07-15T13:37:36Z</time>
      </trkpt>
      <trkpt lat="41.725390" lon="-8.216530">
        <ele>547.768</ele>
        <time>2020-07-15T13:37:56Z</time>
      </trkpt>
      <trkpt lat="41.725800" lon="-8.216510">
        <ele>552.129</ele>
        <time>2020-07-15T13:38:16Z</time>
      </trkpt>
      <trkpt lat="41.726030" lon="-8.216480">
        <ele>551.232</ele>
        <time>2020-07-15T13:38:36Z</time>
      </trkpt>
      <trkpt lat="41.726460" lon="-8.216270">
        <ele>545.992</ele>
        <time>2020-07-15T13:38:56Z</time>
      </trkpt>
      <trkpt lat="41.726600" lon="-8.216280">
        <ele>547.811</ele>
        <time>2020-07-15T13:39:16Z</time>
      </trkpt>
      <trkpt lat="41.726990" lon="-8.216530">
        <ele>556.508</ele>
        <time>2020-07-15T13:39:36Z</time>
      </trkpt>
      <trkpt lat="41.727380" lon="-8.216810">
        <ele>558.018</ele>
        <time>2020-07-15T13:39:56Z</time>
      </trkpt>
      <trkpt lat="41.727630" lon="-8.217080">
        <ele>557.435</ele>
        <time>2020-07-15T13:40:16Z</time>
      </trkpt>
      <trkpt lat="41.727760" lon="-8.217160">
        <ele>555.940</ele>
        <time>2020-07-15T13:40:36Z</time>
      </trkpt>
      <trkpt lat="41.727920" lon="-8.217210">
        <ele>555.888</ele>
        <time>2020-07-15T13:40:56Z</time>
      </trkpt>
      <trkpt lat="41.728300" lon="-8.217250">
        <ele>557.535</ele>
        <time>2020-07-15T13:41:16Z</time>
      </trkpt>
      <trkpt lat="41.728420" lon="-8.217240">
        <ele>557.795</ele>
        <time>2020-07-15T13:41:36Z</time>
      </trkpt>
      <trkpt lat="41.728510" lon="-8.217180">
        <ele>556.745</ele>
        <time>2020-07-15T13:41:56Z</time>
      </trkpt>
      <trkpt lat="41.728820" lon="-8.216910">
        <ele>554.436</ele>
        <time>2020-07-15T13:42:16Z</time>
      </trkpt>
      <trkpt lat="41.728890" lon="-8.216870">
        <ele>555.029</ele>
        <time>2020-07-15T13:42:36Z</time>
      </trkpt>
      <trkpt lat="41.729060" lon="-8.216860">
        <ele>555.600</ele>
        <time>2020-07-15T13:42:56Z</time>
      </trkpt>
      <trkpt lat="41.729180" lon="-8.216820">
        <ele>556.120</ele>
        <time>2020-07-15T13:43:16Z</time>
      </trkpt>
      <trkpt lat="41.729290" lon="-8.216740">
        <ele>557.208</ele>
        <time>2020-07-15T13:43:36Z</time>
      </trkpt>
      <trkpt lat="41.729430" lon="-8.216530">
        <ele>559.857</ele>
        <time>2020-07-15T13:43:56Z</time>
      </trkpt>
      <trkpt lat="41.729510" lon="-8.216310">
        <ele>562.744</ele>
        <time>2020-07-15T13:44:16Z</time>
      </trkpt>
      <trkpt lat="41.730190" lon="-8.213760">
        <ele>577.099</ele>
        <time>2020-07-15T13:44:36Z</time>
      </trkpt>
      <trkpt lat="41.730250" lon="-8.213670">
        <ele>576.587</ele>
        <time>2020-07-15T13:44:56Z</time>
      </trkpt>
      <trkpt lat="41.730430" lon="-8.213480">
        <ele>573.484</ele>
        <time>2020-07-15T13:45:16Z</time>
      </trkpt>
      <trkpt lat="41.730620" lon="-8.213420">
        <ele>573.444</ele>
        <time>2020-07-15T13:45:36Z</time>
      </trkpt>
      <trkpt lat="41.731040" lon="-8.213440">
        <ele>576.254</ele>
        <time>2020-07-15T13:45:56Z</time>
      </trkpt>
      <trkpt lat="41.731130" lon="-8.213430">
        <ele>576.785</ele>
        <time>2020-07-15T13:46:16Z</time>
      </trkpt>
      <trkpt lat="41.731490" lon="-8.213260">
        <ele>576.877</ele>
        <time>2020-07-15T13:46:36Z</time>
      </trkpt>
      <trkpt lat="41.732050" lon="-8.212940">
        <ele>577.761</ele>
        <time>2020-07-15T13:46:56Z</time>
      </trkpt>
      <trkpt lat="41.732170" lon="-8.212850">
        <ele>576.927</ele>
        <time>2020-07-15T13:47:16Z</time>
      </trkpt>
      <trkpt lat="41.732330" lon="-8.212690">
        <ele>575.708</ele>
        <time>2020-07-15T13:47:36Z</time>
      </trkpt>
      <trkpt lat="41.732770" lon="-8.212070">
        <ele>564.962</ele>
        <time>2020-07-15T13:47:56Z</time>
      </trkpt>
      <trkpt lat="41.732970" lon="-8.211880">
        <ele>559.759</ele>
        <time>2020-07-15T13:48:16Z</time>
      </trkpt>
      <trkpt lat="41.733170" lon="-8.211730">
        <ele>559.084</ele>
        <time>2020-07-15T13:48:36Z</time>
      </trkpt>
      <trkpt lat="41.733290" lon="-8.211650">
        <ele>559.462</ele>
        <time>2020-07-15T13:48:56Z</time>
      </trkpt>
      <trkpt lat="41.733490" lon="-8.211590">
        <ele>560.129</ele>
        <time>2020-07-15T13:49:16Z</time>
      </trkpt>
      <trkpt lat="41.733590" lon="-8.211600">
        <ele>560.769</ele>
        <time>2020-07-15T13:49:36Z</time>
      </trkpt>
      <trkpt lat="41.733710" lon="-8.211640">
        <ele>560.549</ele>
        <time>2020-07-15T13:49:56Z</time>
      </trkpt>
      <trkpt lat="41.734160" lon="-8.211390">
        <ele>553.070</ele>
        <time>2020-07-15T13:50:16Z</time>
      </trkpt>
      <trkpt lat="41.734250" lon="-8.211080">
        <ele>550.426</ele>
        <time>2020-07-15T13:50:36Z</time>
      </trkpt>
      <trkpt lat="41.734330" lon="-8.210910">
        <ele>548.747</ele>
        <time>2020-07-15T13:50:56Z</time>
      </trkpt>
      <trkpt lat="41.734600" lon="-8.210440">
        <ele>548.511</ele>
        <time>2020-07-15T13:51:16Z</time>
      </trkpt>
      <trkpt lat="41.734700" lon="-8.210210">
        <ele>549.608</ele>
        <time>2020-07-15T13:51:36Z</time>
      </trkpt>
      <trkpt lat="41.734940" lon="-8.209530">
        <ele>549.017</ele>
        <time>2020-07-15T13:51:56Z</time>
      </trkpt>
      <trkpt lat="41.735010" lon="-8.209430">
        <ele>550.224</ele>
        <time>2020-07-15T13:52:16Z</time>
      </trkpt>
      <trkpt lat="41.735090" lon="-8.209360">
        <ele>551.669</ele>
        <time>2020-07-15T13:52:36Z</time>
      </trkpt>
      <trkpt lat="41.735200" lon="-8.209300">
        <ele>553.667</ele>
        <time>2020-07-15T13:52:56Z</time>
      </trkpt>
      <trkpt lat="41.736100" lon="-8.208970">
        <ele>549.154</ele>
        <time>2020-07-15T13:53:16Z</time>
      </trkpt>
      <trkpt lat="41.736340" lon="-8.208810">
        <ele>547.914</ele>
        <time>2020-07-15T13:53:36Z</time>
      </trkpt>
      <trkpt lat="41.736490" lon="-8.208620">
        <ele>547.484</ele>
        <time>2020-07-15T13:53:56Z</time>
      </trkpt>
      <trkpt lat="41.736820" lon="-8.207990">
        <ele>546.755</ele>
        <time>2020-07-15T13:54:16Z</time>
      </trkpt>
      <trkpt lat="41.736950" lon="-8.207850">
        <ele>546.683</ele>
        <time>2020-07-15T13:54:36Z</time>
      </trkpt>
      <trkpt lat="41.737040" lon="-8.207790">
        <ele>546.825</ele>
        <time>2020-07-15T13:54:56Z</time>
      </trkpt>
      <trkpt lat="41.737140" lon="-8.207760">
        <ele>547.117</ele>
        <time>2020-07-15T13:55:16Z</time>
      </trkpt>
      <trkpt lat="41.737280" lon="-8.207780">
        <ele>548.008</ele>
        <time>2020-07-15T13:55:36Z</time>
      </trkpt>
      <trkpt lat="41.737630" lon="-8.208100">
        <ele>550.963</ele>
        <time>2020-07-15T13:55:56Z</time>
      </trkpt>
      <trkpt lat="41.737780" lon="-8.208180">
        <ele>552.060</ele>
        <time>2020-07-15T13:56:16Z</time>
      </trkpt>
      <trkpt lat="41.738210" lon="-8.208370">
        <ele>555.595</ele>
        <time>2020-07-15T13:56:36Z</time>
      </trkpt>
      <trkpt lat="41.738330" lon="-8.208460">
        <ele>556.473</ele>
        <time>2020-07-15T13:56:56Z</time>
      </trkpt>
      <trkpt lat="41.738460" lon="-8.208640">
        <ele>558.880</ele>
        <time>2020-07-15T13:57:16Z</time>
      </trkpt>
      <trkpt lat="41.738620" lon="-8.208940">
        <ele>560.920</ele>
        <time>2020-07-15T13:57:36Z</time>
      </trkpt>
      <trkpt lat="41.739090" lon="-8.210030">
        <ele>563.880</ele>
        <time>2020-07-15T13:57:56Z</time>
      </trkpt>
      <trkpt lat="41.739140" lon="-8.210090">
        <ele>564.321</ele>
        <time>2020-07-15T13:58:16Z</time>
      </trkpt>
      <trkpt lat="41.739220" lon="-8.210120">
        <ele>566.367</ele>
        <time>2020-07-15T13:58:36Z</time>
      </trkpt>
      <trkpt lat="41.739290" lon="-8.210110">
        <ele>568.781</ele>
        <time>2020-07-15T13:58:56Z</time>
      </trkpt>
      <trkpt lat="41.739360" lon="-8.210040">
        <ele>571.619</ele>
        <time>2020-07-15T13:59:16Z</time>
      </trkpt>
      <trkpt lat="41.739400" lon="-8.209970">
        <ele>573.508</ele>
        <time>2020-07-15T13:59:36Z</time>
      </trkpt>
      <trkpt lat="41.739430" lon="-8.209820">
        <ele>575.281</ele>
        <time>2020-07-15T13:59:56Z</time>
      </trkpt>
      <trkpt lat="41.739510" lon="-8.209090">
        <ele>579.888</ele>
        <time>2020-07-15T14:00:16Z</time>
      </trkpt>
      <trkpt lat="41.739570" lon="-8.208880">
        <ele>580.413</ele>
        <time>2020-07-15T14:00:36Z</time>
      </trkpt>
      <trkpt lat="41.739760" lon="-8.208600">
        <ele>586.661</ele>
        <time>2020-07-15T14:00:56Z</time>
      </trkpt>
      <trkpt lat="41.740180" lon="-8.208100">
        <ele>593.218</ele>
        <time>2020-07-15T14:01:16Z</time>
      </trkpt>
      <trkpt lat="41.740420" lon="-8.207870">
        <ele>594.738</ele>
        <time>2020-07-15T14:01:36Z</time>
      </trkpt>
      <trkpt lat="41.740550" lon="-8.207700">
        <ele>594.718</ele>
        <time>2020-07-15T14:01:56Z</time>
      </trkpt>
      <trkpt lat="41.740820" lon="-8.207180">
        <ele>595.179</ele>
        <time>2020-07-15T14:02:16Z</time>
      </trkpt>
      <trkpt lat="41.741070" lon="-8.206760">
        <ele>596.148</ele>
        <time>2020-07-15T14:02:36Z</time>
      </trkpt>
      <trkpt lat="41.742670" lon="-8.204910">
        <ele>594.661</ele>
        <time>2020-07-15T14:02:56Z</time>
      </trkpt>
      <trkpt lat="41.743280" lon="-8.204420">
        <ele>593.317</ele>
        <time>2020-07-15T14:03:16Z</time>
      </trkpt>
      <trkpt lat="41.743370" lon="-8.204310">
        <ele>592.208</ele>
        <time>2020-07-15T14:03:36Z</time>
      </trkpt>
      <trkpt lat="41.743450" lon="-8.204160">
        <ele>590.839</ele>
        <time>2020-07-15T14:03:56Z</time>
      </trkpt>
      <trkpt lat="41.743700" lon="-8.203510">
        <ele>589.576</ele>
        <time>2020-07-15T14:04:16Z</time>
      </trkpt>
      <trkpt lat="41.743790" lon="-8.203340">
        <ele>591.851</ele>
        <time>2020-07-15T14:04:36Z</time>
      </trkpt>
      <trkpt lat="41.744140" lon="-8.203000">
        <ele>596.239</ele>
        <time>2020-07-15T14:04:56Z</time>
      </trkpt>
      <trkpt lat="41.744370" lon="-8.202670">
        <ele>594.676</ele>
        <time>2020-07-15T14:05:16Z</time>
      </trkpt>
      <trkpt lat="41.744410" lon="-8.202520">
        <ele>593.266</ele>
        <time>2020-07-15T14:05:36Z</time>
      </trkpt>
      <trkpt lat="41.744420" lon="-8.202360">
        <ele>591.866</ele>
        <time>2020-07-15T14:05:56Z</time>
      </trkpt>
      <trkpt lat="41.744400" lon="-8.202150">
        <ele>590.637</ele>
        <time>2020-07-15T14:06:16Z</time>
      </trkpt>
      <trkpt lat="41.744210" lon="-8.201470">
        <ele>595.869</ele>
        <time>2020-07-15T14:06:36Z</time>
      </trkpt>
      <trkpt lat="41.744200" lon="-8.201300">
        <ele>596.504</ele>
        <time>2020-07-15T14:06:56Z</time>
      </trkpt>
      <trkpt lat="41.744250" lon="-8.201110">
        <ele>597.224</ele>
        <time>2020-07-15T14:07:16Z</time>
      </trkpt>
      <trkpt lat="41.744340" lon="-8.200970">
        <ele>596.808</ele>
        <time>2020-07-15T14:07:36Z</time>
      </trkpt>
      <trkpt lat="41.744510" lon="-8.200780">
        <ele>598.221</ele>
        <time>2020-07-15T14:07:56Z</time>
      </trkpt>
      <trkpt lat="41.745130" lon="-8.200290">
        <ele>602.558</ele>
        <time>2020-07-15T14:08:16Z</time>
      </trkpt>
      <trkpt lat="41.745300" lon="-8.200230">
        <ele>604.553</ele>
        <time>2020-07-15T14:08:36Z</time>
      </trkpt>
      <trkpt lat="41.745670" lon="-8.200170">
        <ele>607.651</ele>
        <time>2020-07-15T14:08:56Z</time>
      </trkpt>
      <trkpt lat="41.745800" lon="-8.200060">
        <ele>607.168</ele>
        <time>2020-07-15T14:09:16Z</time>
      </trkpt>
      <trkpt lat="41.745920" lon="-8.199860">
        <ele>606.448</ele>
        <time>2020-07-15T14:09:36Z</time>
      </trkpt>
      <trkpt lat="41.746090" lon="-8.199500">
        <ele>608.798</ele>
        <time>2020-07-15T14:09:56Z</time>
      </trkpt>
      <trkpt lat="41.746190" lon="-8.199370">
        <ele>611.129</ele>
        <time>2020-07-15T14:10:16Z</time>
      </trkpt>
      <trkpt lat="41.746340" lon="-8.199280">
        <ele>614.681</ele>
        <time>2020-07-15T14:10:36Z</time>
      </trkpt>
      <trkpt lat="41.746760" lon="-8.199180">
        <ele>615.261</ele>
        <time>2020-07-15T14:10:56Z</time>
      </trkpt>
      <trkpt lat="41.746950" lon="-8.199100">
        <ele>616.417</ele>
        <time>2020-07-15T14:11:16Z</time>
      </trkpt>
      <trkpt lat="41.747120" lon="-8.198990">
        <ele>619.108</ele>
        <time>2020-07-15T14:11:36Z</time>
      </trkpt>
      <trkpt lat="41.747850" lon="-8.198370">
        <ele>621.023</ele>
        <time>2020-07-15T14:11:56Z</time>
      </trkpt>
      <trkpt lat="41.747950" lon="-8.198250">
        <ele>621.470</ele>
        <time>2020-07-15T14:12:16Z</time>
      </trkpt>
      <trkpt lat="41.748010" lon="-8.198140">
        <ele>620.765</ele>
        <time>2020-07-15T14:12:36Z</time>
      </trkpt>
      <trkpt lat="41.748070" lon="-8.197900">
        <ele>618.763</ele>
        <time>2020-07-15T14:12:56Z</time>
      </trkpt>
      <trkpt lat="41.748180" lon="-8.197620">
        <ele>620.520</ele>
        <time>2020-07-15T14:13:16Z</time>
      </trkpt>
      <trkpt lat="41.748290" lon="-8.197500">
        <ele>622.480</ele>
        <time>2020-07-15T14:13:36Z</time>
      </trkpt>
      <trkpt lat="41.748440" lon="-8.197400">
        <ele>626.440</ele>
        <time>2020-07-15T14:13:56Z</time>
      </trkpt>
      <trkpt lat="41.749600" lon="-8.197070">
        <ele>634.291</ele>
        <time>2020-07-15T14:14:16Z</time>
      </trkpt>
      <trkpt lat="41.749720" lon="-8.196960">
        <ele>633.191</ele>
        <time>2020-07-15T14:14:36Z</time>
      </trkpt>
      <trkpt lat="41.750060" lon="-8.196760">
        <ele>633.781</ele>
        <time>2020-07-15T14:14:56Z</time>
      </trkpt>
      <trkpt lat="41.750210" lon="-8.196620">
        <ele>633.919</ele>
        <time>2020-07-15T14:15:16Z</time>
      </trkpt>
      <trkpt lat="41.750290" lon="-8.196490">
        <ele>634.208</ele>
        <time>2020-07-15T14:15:36Z</time>
      </trkpt>
      <trkpt lat="41.750410" lon="-8.196180">
        <ele>634.854</ele>
        <time>2020-07-15T14:15:56Z</time>
      </trkpt>
      <trkpt lat="41.750690" lon="-8.195840">
        <ele>634.081</ele>
        <time>2020-07-15T14:16:16Z</time>
      </trkpt>
      <trkpt lat="41.751940" lon="-8.194590">
        <ele>631.586</ele>
        <time>2020-07-15T14:16:36Z</time>
      </trkpt>
      <trkpt lat="41.752550" lon="-8.194040">
        <ele>633.624</ele>
        <time>2020-07-15T14:16:56Z</time>
      </trkpt>
      <trkpt lat="41.752670" lon="-8.193980">
        <ele>633.591</ele>
        <time>2020-07-15T14:17:16Z</time>
      </trkpt>
      <trkpt lat="41.752880" lon="-8.193930">
        <ele>632.821</ele>
        <time>2020-07-15T14:17:36Z</time>
      </trkpt>
      <trkpt lat="41.753210" lon="-8.193900">
        <ele>631.981</ele>
        <time>2020-07-15T14:17:56Z</time>
      </trkpt>
      <trkpt lat="41.753880" lon="-8.193780">
        <ele>627.522</ele>
        <time>2020-07-15T14:18:16Z</time>
      </trkpt>
      <trkpt lat="41.754900" lon="-8.193420">
        <ele>621.481</ele>
        <time>2020-07-15T14:18:36Z</time>
      </trkpt>
      <trkpt lat="41.755530" lon="-8.193180">
        <ele>617.661</ele>
        <time>2020-07-15T14:18:56Z</time>
      </trkpt>
      <trkpt lat="41.755700" lon="-8.193170">
        <ele>616.917</ele>
        <time>2020-07-15T14:19:16Z</time>
      </trkpt>
      <trkpt lat="41.755950" lon="-8.193270">
        <ele>616.408</ele>
        <time>2020-07-15T14:19:36Z</time>
      </trkpt>
      <trkpt lat="41.756360" lon="-8.193480">
        <ele>616.653</ele>
        <time>2020-07-15T14:19:56Z</time>
      </trkpt>
      <trkpt lat="41.756510" lon="-8.193500">
        <ele>616.940</ele>
        <time>2020-07-15T14:20:16Z</time>
      </trkpt>
      <trkpt lat="41.756680" lon="-8.193450">
        <ele>617.675</ele>
        <time>2020-07-15T14:20:36Z</time>
      </trkpt>
      <trkpt lat="41.757260" lon="-8.192970">
        <ele>618.313</ele>
        <time>2020-07-15T14:20:56Z</time>
      </trkpt>
      <trkpt lat="41.757320" lon="-8.192960">
        <ele>618.320</ele>
        <time>2020-07-15T14:21:16Z</time>
      </trkpt>
      <trkpt lat="41.757380" lon="-8.192980">
        <ele>618.310</ele>
        <time>2020-07-15T14:21:36Z</time>
      </trkpt>
      <trkpt lat="41.757470" lon="-8.193070">
        <ele>618.030</ele>
        <time>2020-07-15T14:21:56Z</time>
      </trkpt>
      <trkpt lat="41.758000" lon="-8.193980">
        <ele>623.141</ele>
        <time>2020-07-15T14:22:16Z</time>
      </trkpt>
      <trkpt lat="41.758100" lon="-8.194180">
        <ele>624.375</ele>
        <time>2020-07-15T14:22:36Z</time>
      </trkpt>
      <trkpt lat="41.758330" lon="-8.193980">
        <ele>625.328</ele>
        <time>2020-07-15T14:22:56Z</time>
      </trkpt>
      <trkpt lat="41.758610" lon="-8.193670">
        <ele>625.420</ele>
        <time>2020-07-15T14:23:16Z</time>
      </trkpt>
      <trkpt lat="41.759670" lon="-8.192590">
        <ele>631.508</ele>
        <time>2020-07-15T14:23:36Z</time>
      </trkpt>
      <trkpt lat="41.760120" lon="-8.192350">
        <ele>631.212</ele>
        <time>2020-07-15T14:23:56Z</time>
      </trkpt>
      <trkpt lat="41.760330" lon="-8.192340">
        <ele>631.559</ele>
        <time>2020-07-15T14:24:16Z</time>
      </trkpt>
      <trkpt lat="41.760940" lon="-8.192150">
        <ele>635.214</ele>
        <time>2020-07-15T14:24:36Z</time>
      </trkpt>
      <trkpt lat="41.761080" lon="-8.192090">
        <ele>636.532</ele>
        <time>2020-07-15T14:24:56Z</time>
      </trkpt>
      <trkpt lat="41.761590" lon="-8.191720">
        <ele>636.199</ele>
        <time>2020-07-15T14:25:16Z</time>
      </trkpt>
      <trkpt lat="41.762570" lon="-8.191280">
        <ele>637.779</ele>
        <time>2020-07-15T14:25:36Z</time>
      </trkpt>
      <trkpt lat="41.763000" lon="-8.191060">
        <ele>639.389</ele>
        <time>2020-07-15T14:25:56Z</time>
      </trkpt>
      <trkpt lat="41.763100" lon="-8.190970">
        <ele>640.110</ele>
        <time>2020-07-15T14:26:16Z</time>
      </trkpt>
      <trkpt lat="41.763170" lon="-8.190850">
        <ele>640.139</ele>
        <time>2020-07-15T14:26:36Z</time>
      </trkpt>
      <trkpt lat="41.763280" lon="-8.190390">
        <ele>639.401</ele>
        <time>2020-07-15T14:26:56Z</time>
      </trkpt>
      <trkpt lat="41.763380" lon="-8.190210">
        <ele>640.321</ele>
        <time>2020-07-15T14:27:16Z</time>
      </trkpt>
      <trkpt lat="41.763460" lon="-8.190150">
        <ele>641.108</ele>
        <time>2020-07-15T14:27:36Z</time>
      </trkpt>
      <trkpt lat="41.763570" lon="-8.190100">
        <ele>642.488</ele>
        <time>2020-07-15T14:27:56Z</time>
      </trkpt>
      <trkpt lat="41.763760" lon="-8.190070">
        <ele>644.645</ele>
        <time>2020-07-15T14:28:16Z</time>
      </trkpt>
      <trkpt lat="41.764190" lon="-8.190050">
        <ele>648.920</ele>
        <time>2020-07-15T14:28:36Z</time>
      </trkpt>
      <trkpt lat="41.764890" lon="-8.190110">
        <ele>647.438</ele>
        <time>2020-07-15T14:28:56Z</time>
      </trkpt>
      <trkpt lat="41.766000" lon="-8.189960">
        <ele>650.255</ele>
        <time>2020-07-15T14:29:16Z</time>
      </trkpt>
      <trkpt lat="41.766180" lon="-8.189970">
        <ele>649.685</ele>
        <time>2020-07-15T14:29:36Z</time>
      </trkpt>
      <trkpt lat="41.766370" lon="-8.190010">
        <ele>647.475</ele>
        <time>2020-07-15T14:29:56Z</time>
      </trkpt>
      <trkpt lat="41.766530" lon="-8.190090">
        <ele>647.026</ele>
        <time>2020-07-15T14:30:16Z</time>
      </trkpt>
      <trkpt lat="41.767080" lon="-8.190390">
        <ele>648.598</ele>
        <time>2020-07-15T14:30:36Z</time>
      </trkpt>
      <trkpt lat="41.767320" lon="-8.190580">
        <ele>646.615</ele>
        <time>2020-07-15T14:30:56Z</time>
      </trkpt>
      <trkpt lat="41.767510" lon="-8.190850">
        <ele>645.126</ele>
        <time>2020-07-15T14:31:16Z</time>
      </trkpt>
      <trkpt lat="41.767940" lon="-8.192000">
        <ele>640.908</ele>
        <time>2020-07-15T14:31:36Z</time>
      </trkpt>
      <trkpt lat="41.768280" lon="-8.192740">
        <ele>636.494</ele>
        <time>2020-07-15T14:31:56Z</time>
      </trkpt>
      <trkpt lat="41.768450" lon="-8.193340">
        <ele>639.641</ele>
        <time>2020-07-15T14:32:16Z</time>
      </trkpt>
      <trkpt lat="41.768480" lon="-8.193590">
        <ele>636.616</ele>
        <time>2020-07-15T14:32:36Z</time>
      </trkpt>
      <trkpt lat="41.768480" lon="-8.193810">
        <ele>635.264</ele>
        <time>2020-07-15T14:32:56Z</time>
      </trkpt>
      <trkpt lat="41.768360" lon="-8.194560">
        <ele>634.541</ele>
        <time>2020-07-15T14:33:16Z</time>
      </trkpt>
      <trkpt lat="41.768270" lon="-8.194850">
        <ele>633.931</ele>
        <time>2020-07-15T14:33:36Z</time>
      </trkpt>
      <trkpt lat="41.768210" lon="-8.194950">
        <ele>633.671</ele>
        <time>2020-07-15T14:33:56Z</time>
      </trkpt>
      <trkpt lat="41.768130" lon="-8.195040">
        <ele>633.192</ele>
        <time>2020-07-15T14:34:16Z</time>
      </trkpt>
      <trkpt lat="41.767880" lon="-8.195230">
        <ele>633.985</ele>
        <time>2020-07-15T14:34:36Z</time>
      </trkpt>
      <trkpt lat="41.767660" lon="-8.195370">
        <ele>635.589</ele>
        <time>2020-07-15T14:34:56Z</time>
      </trkpt>
      <trkpt lat="41.767110" lon="-8.195840">
        <ele>632.917</ele>
        <time>2020-07-15T14:35:16Z</time>
      </trkpt>
      <trkpt lat="41.766840" lon="-8.196000">
        <ele>635.008</ele>
        <time>2020-07-15T14:35:36Z</time>
      </trkpt>
      <trkpt lat="41.766640" lon="-8.196140">
        <ele>633.553</ele>
        <time>2020-07-15T14:35:56Z</time>
      </trkpt>
      <trkpt lat="41.765920" lon="-8.196860">
        <ele>625.040</ele>
        <time>2020-07-15T14:36:16Z</time>
      </trkpt>
      <trkpt lat="41.765750" lon="-8.197160">
        <ele>623.615</ele>
        <time>2020-07-15T14:36:36Z</time>
      </trkpt>
      <trkpt lat="41.765630" lon="-8.197600">
        <ele>623.783</ele>
        <time>2020-07-15T14:36:56Z</time>
      </trkpt>
      <trkpt lat="41.765550" lon="-8.197810">
        <ele>623.840</ele>
        <time>2020-07-15T14:37:16Z</time>
      </trkpt>
      <trkpt lat="41.765440" lon="-8.197950">
        <ele>624.580</ele>
        <time>2020-07-15T14:37:36Z</time>
      </trkpt>
      <trkpt lat="41.765230" lon="-8.198050">
        <ele>627.090</ele>
        <time>2020-07-15T14:37:56Z</time>
      </trkpt>
      <trkpt lat="41.764680" lon="-8.198250">
        <ele>624.331</ele>
        <time>2020-07-15T14:38:16Z</time>
      </trkpt>
      <trkpt lat="41.764390" lon="-8.198440">
        <ele>623.169</ele>
        <time>2020-07-15T14:38:36Z</time>
      </trkpt>
      <trkpt lat="41.764130" lon="-8.198690">
        <ele>622.404</ele>
        <time>2020-07-15T14:38:56Z</time>
      </trkpt>
      <trkpt lat="41.764000" lon="-8.198940">
        <ele>621.924</ele>
        <time>2020-07-15T14:39:16Z</time>
      </trkpt>
      <trkpt lat="41.763580" lon="-8.200380">
        <ele>611.108</ele>
        <time>2020-07-15T14:39:36Z</time>
      </trkpt>
      <trkpt lat="41.763420" lon="-8.200860">
        <ele>607.181</ele>
        <time>2020-07-15T14:39:56Z</time>
      </trkpt>
      <trkpt lat="41.762910" lon="-8.201920">
        <ele>601.818</ele>
        <time>2020-07-15T14:40:16Z</time>
      </trkpt>
      <trkpt lat="41.762890" lon="-8.202030">
        <ele>601.573</ele>
        <time>2020-07-15T14:40:36Z</time>
      </trkpt>
      <trkpt lat="41.762850" lon="-8.202400">
        <ele>600.931</ele>
        <time>2020-07-15T14:40:56Z</time>
      </trkpt>
      <trkpt lat="41.762870" lon="-8.202600">
        <ele>599.358</ele>
        <time>2020-07-15T14:41:16Z</time>
      </trkpt>
      <trkpt lat="41.763110" lon="-8.203670">
        <ele>587.898</ele>
        <time>2020-07-15T14:41:36Z</time>
      </trkpt>
      <trkpt lat="41.763120" lon="-8.203840">
        <ele>587.148</ele>
        <time>2020-07-15T14:41:56Z</time>
      </trkpt>
      <trkpt lat="41.763100" lon="-8.204040">
        <ele>586.999</ele>
        <time>2020-07-15T14:42:16Z</time>
      </trkpt>
      <trkpt lat="41.763040" lon="-8.204310">
        <ele>588.788</ele>
        <time>2020-07-15T14:42:36Z</time>
      </trkpt>
      <trkpt lat="41.763030" lon="-8.204600">
        <ele>589.124</ele>
        <time>2020-07-15T14:42:56Z</time>
      </trkpt>
      <trkpt lat="41.763120" lon="-8.205000">
        <ele>584.326</ele>
        <time>2020-07-15T14:43:16Z</time>
      </trkpt>
      <trkpt lat="41.763160" lon="-8.205190">
        <ele>580.508</ele>
        <time>2020-07-15T14:43:36Z</time>
      </trkpt>
      <trkpt lat="41.763170" lon="-8.205330">
        <ele>578.633</ele>
        <time>2020-07-15T14:43:56Z</time>
      </trkpt>
      <trkpt lat="41.763130" lon="-8.205510">
        <ele>578.820</ele>
        <time>2020-07-15T14:44:16Z</time>
      </trkpt>
      <trkpt lat="41.763050" lon="-8.205660">
        <ele>579.525</ele>
        <time>2020-07-15T14:44:36Z</time>
      </trkpt>
      <trkpt lat="41.762940" lon="-8.205790">
        <ele>578.423</ele>
        <time>2020-07-15T14:44:56Z</time>
      </trkpt>
      <trkpt lat="41.762620" lon="-8.206060">
        <ele>575.720</ele>
        <time>2020-07-15T14:45:16Z</time>
      </trkpt>
      <trkpt lat="41.762450" lon="-8.206230">
        <ele>575.220</ele>
        <time>2020-07-15T14:45:36Z</time>
      </trkpt>
      <trkpt lat="41.761910" lon="-8.206860">
        <ele>575.570</ele>
        <time>2020-07-15T14:45:56Z</time>
      </trkpt>
      <trkpt lat="41.761860" lon="-8.206950">
        <ele>575.311</ele>
        <time>2020-07-15T14:46:16Z</time>
      </trkpt>
      <trkpt lat="41.761830" lon="-8.207050">
        <ele>576.585</ele>
        <time>2020-07-15T14:46:36Z</time>
      </trkpt>
      <trkpt lat="41.761830" lon="-8.207150">
        <ele>576.589</ele>
        <time>2020-07-15T14:46:56Z</time>
      </trkpt>
      <trkpt lat="41.761870" lon="-8.207390">
        <ele>577.517</ele>
        <time>2020-07-15T14:47:16Z</time>
      </trkpt>
      <trkpt lat="41.762060" lon="-8.208200">
        <ele>569.308</ele>
        <time>2020-07-15T14:47:36Z</time>
      </trkpt>
      <trkpt lat="41.762060" lon="-8.208310">
        <ele>567.493</ele>
        <time>2020-07-15T14:47:56Z</time>
      </trkpt>
      <trkpt lat="41.762030" lon="-8.208440">
        <ele>565.510</ele>
        <time>2020-07-15T14:48:16Z</time>
      </trkpt>
      <trkpt lat="41.761910" lon="-8.208680">
        <ele>563.995</ele>
        <time>2020-07-15T14:48:36Z</time>
      </trkpt>
      <trkpt lat="41.762060" lon="-8.208650">
        <ele>558.633</ele>
        <time>2020-07-15T14:48:56Z</time>
      </trkpt>
      <trkpt lat="41.762510" lon="-8.208620">
        <ele>550.710</ele>
        <time>2020-07-15T14:49:16Z</time>
      </trkpt>
      <trkpt lat="41.762830" lon="-8.208630">
        <ele>547.780</ele>
        <time>2020-07-15T14:49:36Z</time>
      </trkpt>
      <trkpt lat="41.763070" lon="-8.208680">
        <ele>542.150</ele>
        <time>2020-07-15T14:49:56Z</time>
      </trkpt>
      <trkpt lat="41.763480" lon="-8.208870">
        <ele>538.421</ele>
        <time>2020-07-15T14:50:16Z</time>
      </trkpt>
      <trkpt lat="41.763730" lon="-8.209090">
        <ele>539.495</ele>
        <time>2020-07-15T14:50:36Z</time>
      </trkpt>
      <trkpt lat="41.763900" lon="-8.209320">
        <ele>540.049</ele>
        <time>2020-07-15T14:50:56Z</time>
      </trkpt>
      <trkpt lat="41.764050" lon="-8.209590">
        <ele>529.123</ele>
        <time>2020-07-15T14:51:16Z</time>
      </trkpt>
      <trkpt lat="41.764230" lon="-8.210200">
        <ele>538.708</ele>
        <time>2020-07-15T14:51:36Z</time>
      </trkpt>
      <trkpt lat="41.764300" lon="-8.210700">
        <ele>558.724</ele>
        <time>2020-07-15T14:51:56Z</time>
      </trkpt>
      <trkpt lat="41.764310" lon="-8.210920">
        <ele>562.111</ele>
        <time>2020-07-15T14:52:16Z</time>
      </trkpt>
      <trkpt lat="41.764290" lon="-8.211000">
        <ele>563.256</ele>
        <time>2020-07-15T14:52:36Z</time>
      </trkpt>
      <trkpt lat="41.764070" lon="-8.211460">
        <ele>566.084</ele>
        <time>2020-07-15T14:52:56Z</time>
      </trkpt>
      <trkpt lat="41.764050" lon="-8.211620">
        <ele>567.141</ele>
        <time>2020-07-15T14:53:16Z</time>
      </trkpt>
      <trkpt lat="41.764060" lon="-8.211770">
        <ele>567.051</ele>
        <time>2020-07-15T14:53:36Z</time>
      </trkpt>
      <trkpt lat="41.764130" lon="-8.211910">
        <ele>568.711</ele>
        <time>2020-07-15T14:53:56Z</time>
      </trkpt>
      <trkpt lat="41.764300" lon="-8.212080">
        <ele>568.052</ele>
        <time>2020-07-15T14:54:16Z</time>
      </trkpt>
      <trkpt lat="41.764450" lon="-8.212130">
        <ele>569.325</ele>
        <time>2020-07-15T14:54:36Z</time>
      </trkpt>
      <trkpt lat="41.764590" lon="-8.212100">
        <ele>570.826</ele>
        <time>2020-07-15T14:54:56Z</time>
      </trkpt>
      <trkpt lat="41.764630" lon="-8.212060">
        <ele>572.008</ele>
        <time>2020-07-15T14:55:16Z</time>
      </trkpt>
      <trkpt lat="41.764820" lon="-8.211670">
        <ele>575.208</ele>
        <time>2020-07-15T14:55:36Z</time>
      </trkpt>
      <trkpt lat="41.764910" lon="-8.211530">
        <ele>574.567</ele>
        <time>2020-07-15T14:55:56Z</time>
      </trkpt>
      <trkpt lat="41.764990" lon="-8.211450">
        <ele>574.434</ele>
        <time>2020-07-15T14:56:16Z</time>
      </trkpt>
      <trkpt lat="41.765470" lon="-8.211120">
        <ele>574.779</ele>
        <time>2020-07-15T14:56:36Z</time>
      </trkpt>
      <trkpt lat="41.765730" lon="-8.211030">
        <ele>578.197</ele>
        <time>2020-07-15T14:56:56Z</time>
      </trkpt>
      <trkpt lat="41.766040" lon="-8.211000">
        <ele>583.144</ele>
        <time>2020-07-15T14:57:16Z</time>
      </trkpt>
      <trkpt lat="41.766320" lon="-8.211000">
        <ele>590.814</ele>
        <time>2020-07-15T14:57:36Z</time>
      </trkpt>
      <trkpt lat="41.766430" lon="-8.211060">
        <ele>590.854</ele>
        <time>2020-07-15T14:57:56Z</time>
      </trkpt>
      <trkpt lat="41.766580" lon="-8.211210">
        <ele>585.745</ele>
        <time>2020-07-15T14:58:16Z</time>
      </trkpt>
      <trkpt lat="41.766780" lon="-8.211340">
        <ele>584.065</ele>
        <time>2020-07-15T14:58:36Z</time>
      </trkpt>
      <trkpt lat="41.767000" lon="-8.211430">
        <ele>587.368</ele>
        <time>2020-07-15T14:58:56Z</time>
      </trkpt>
      <trkpt lat="41.767160" lon="-8.211470">
        <ele>594.014</ele>
        <time>2020-07-15T14:59:16Z</time>
      </trkpt>
      <trkpt lat="41.767220" lon="-8.211510">
        <ele>595.308</ele>
        <time>2020-07-15T14:59:36Z</time>
      </trkpt>
      <trkpt lat="41.767290" lon="-8.211580">
        <ele>595.621</ele>
        <time>2020-07-15T14:59:56Z</time>
      </trkpt>
      <trkpt lat="41.767410" lon="-8.211790">
        <ele>590.328</ele>
        <time>2020-07-15T15:00:16Z</time>
      </trkpt>
      <trkpt lat="41.767530" lon="-8.211950">
        <ele>588.813</ele>
        <time>2020-07-15T15:00:36Z</time>
      </trkpt>
      <trkpt lat="41.767680" lon="-8.212050">
        <ele>593.021</ele>
        <time>2020-07-15T15:00:56Z</time>
      </trkpt>
      <trkpt lat="41.767870" lon="-8.212130">
        <ele>599.248</ele>
        <time>2020-07-15T15:01:16Z</time>
      </trkpt>
      <trkpt lat="41.767930" lon="-8.212170">
        <ele>599.658</ele>
        <time>2020-07-15T15:01:36Z</time>
      </trkpt>
      <trkpt lat="41.768330" lon="-8.212670">
        <ele>584.688</ele>
        <time>2020-07-15T15:01:56Z</time>
      </trkpt>
      <trkpt lat="41.768400" lon="-8.212720">
        <ele>583.739</ele>
        <time>2020-07-15T15:02:16Z</time>
      </trkpt>
      <trkpt lat="41.768510" lon="-8.212700">
        <ele>586.578</ele>
        <time>2020-07-15T15:02:36Z</time>
      </trkpt>
      <trkpt lat="41.768660" lon="-8.212640">
        <ele>592.133</ele>
        <time>2020-07-15T15:02:56Z</time>
      </trkpt>
      <trkpt lat="41.769310" lon="-8.212620">
        <ele>608.026</ele>
        <time>2020-07-15T15:03:16Z</time>
      </trkpt>
      <trkpt lat="41.769780" lon="-8.212710">
        <ele>608.408</ele>
        <time>2020-07-15T15:03:36Z</time>
      </trkpt>
      <trkpt lat="41.769840" lon="-8.212710">
        <ele>605.182</ele>
        <time>2020-07-15T15:03:56Z</time>
      </trkpt>
      <trkpt lat="41.769900" lon="-8.212680">
        <ele>604.979</ele>
        <time>2020-07-15T15:04:16Z</time>
      </trkpt>
      <trkpt lat="41.769950" lon="-8.212470">
        <ele>622.774</ele>
        <time>2020-07-15T15:04:36Z</time>
      </trkpt>
      <trkpt lat="41.769990" lon="-8.212390">
        <ele>624.912</ele>
        <time>2020-07-15T15:04:56Z</time>
      </trkpt>
      <trkpt lat="41.770050" lon="-8.212340">
        <ele>628.189</ele>
        <time>2020-07-15T15:05:16Z</time>
      </trkpt>
      <trkpt lat="41.770130" lon="-8.212310">
        <ele>631.289</ele>
        <time>2020-07-15T15:05:36Z</time>
      </trkpt>
      <trkpt lat="41.770690" lon="-8.212590">
        <ele>621.849</ele>
        <time>2020-07-15T15:05:56Z</time>
      </trkpt>
      <trkpt lat="41.770880" lon="-8.212670">
        <ele>617.830</ele>
        <time>2020-07-15T15:06:16Z</time>
      </trkpt>
      <trkpt lat="41.771040" lon="-8.212690">
        <ele>620.748</ele>
        <time>2020-07-15T15:06:36Z</time>
      </trkpt>
      <trkpt lat="41.771190" lon="-8.212670">
        <ele>628.661</ele>
        <time>2020-07-15T15:06:56Z</time>
      </trkpt>
      <trkpt lat="41.771310" lon="-8.212740">
        <ele>630.317</ele>
        <time>2020-07-15T15:07:16Z</time>
      </trkpt>
      <trkpt lat="41.771420" lon="-8.212870">
        <ele>625.108</ele>
        <time>2020-07-15T15:07:36Z</time>
      </trkpt>
      <trkpt lat="41.771560" lon="-8.213000">
        <ele>620.249</ele>
        <time>2020-07-15T15:07:56Z</time>
      </trkpt>
      <trkpt lat="41.771680" lon="-8.213070">
        <ele>620.986</ele>
        <time>2020-07-15T15:08:16Z</time>
      </trkpt>
      <trkpt lat="41.771710" lon="-8.213130">
        <ele>619.531</ele>
        <time>2020-07-15T15:08:36Z</time>
      </trkpt>
      <trkpt lat="41.771760" lon="-8.213380">
        <ele>612.839</ele>
        <time>2020-07-15T15:08:56Z</time>
      </trkpt>
      <trkpt lat="41.772040" lon="-8.213450">
        <ele>621.436</ele>
        <time>2020-07-15T15:09:16Z</time>
      </trkpt>
      <trkpt lat="41.772080" lon="-8.213480">
        <ele>621.296</ele>
        <time>2020-07-15T15:09:36Z</time>
      </trkpt>
      <trkpt lat="41.772100" lon="-8.213730">
        <ele>620.726</ele>
        <time>2020-07-15T15:09:56Z</time>
      </trkpt>
      <trkpt lat="41.772090" lon="-8.213850">
        <ele>621.337</ele>
        <time>2020-07-15T15:10:16Z</time>
      </trkpt>
      <trkpt lat="41.772060" lon="-8.213910">
        <ele>621.876</ele>
        <time>2020-07-15T15:10:36Z</time>
      </trkpt>
      <trkpt lat="41.771590" lon="-8.214050">
        <ele>614.790</ele>
        <time>2020-07-15T15:10:56Z</time>
      </trkpt>
      <trkpt lat="41.771080" lon="-8.214420">
        <ele>634.019</ele>
        <time>2020-07-15T15:11:16Z</time>
      </trkpt>
      <trkpt lat="41.770530" lon="-8.214700">
        <ele>628.108</ele>
        <time>2020-07-15T15:11:36Z</time>
      </trkpt>
      <trkpt lat="41.770440" lon="-8.214730">
        <ele>626.992</ele>
        <time>2020-07-15T15:11:56Z</time>
      </trkpt>
      <trkpt lat="41.770130" lon="-8.214700">
        <ele>620.999</ele>
        <time>2020-07-15T15:12:16Z</time>
      </trkpt>
      <trkpt lat="41.769990" lon="-8.214720">
        <ele>622.854</ele>
        <time>2020-07-15T15:12:36Z</time>
      </trkpt>
      <trkpt lat="41.769760" lon="-8.214810">
        <ele>623.482</ele>
        <time>2020-07-15T15:12:56Z</time>
      </trkpt>
      <trkpt lat="41.769700" lon="-8.214870">
        <ele>624.079</ele>
        <time>2020-07-15T15:13:16Z</time>
      </trkpt>
      <trkpt lat="41.769600" lon="-8.215030">
        <ele>625.999</ele>
        <time>2020-07-15T15:13:36Z</time>
      </trkpt>
      <trkpt lat="41.769540" lon="-8.215220">
        <ele>628.959</ele>
        <time>2020-07-15T15:13:56Z</time>
      </trkpt>
      <trkpt lat="41.769500" lon="-8.215720">
        <ele>643.660</ele>
        <time>2020-07-15T15:14:16Z</time>
      </trkpt>
      <trkpt lat="41.769460" lon="-8.215790">
        <ele>644.388</ele>
        <time>2020-07-15T15:14:36Z</time>
      </trkpt>
      <trkpt lat="41.769260" lon="-8.215980">
        <ele>644.824</ele>
        <time>2020-07-15T15:14:56Z</time>
      </trkpt>
      <trkpt lat="41.769080" lon="-8.216090">
        <ele>644.326</ele>
        <time>2020-07-15T15:15:16Z</time>
      </trkpt>
      <trkpt lat="41.768950" lon="-8.216130">
        <ele>644.308</ele>
        <time>2020-07-15T15:15:36Z</time>
      </trkpt>
      <trkpt lat="41.768440" lon="-8.216200">
        <ele>642.713</ele>
        <time>2020-07-15T15:15:56Z</time>
      </trkpt>
      <trkpt lat="41.768390" lon="-8.216270">
        <ele>644.070</ele>
        <time>2020-07-15T15:16:16Z</time>
      </trkpt>
      <trkpt lat="41.768170" lon="-8.216710">
        <ele>649.455</ele>
        <time>2020-07-15T15:16:36Z</time>
      </trkpt>
      <trkpt lat="41.768080" lon="-8.216920">
        <ele>649.583</ele>
        <time>2020-07-15T15:16:56Z</time>
      </trkpt>
      <trkpt lat="41.768000" lon="-8.217170">
        <ele>649.410</ele>
        <time>2020-07-15T15:17:16Z</time>
      </trkpt>
      <trkpt lat="41.767950" lon="-8.217580">
        <ele>651.240</ele>
        <time>2020-07-15T15:17:36Z</time>
      </trkpt>
      <trkpt lat="41.767950" lon="-8.217810">
        <ele>649.970</ele>
        <time>2020-07-15T15:17:56Z</time>
      </trkpt>
      <trkpt lat="41.767970" lon="-8.217900">
        <ele>649.921</ele>
        <time>2020-07-15T15:18:16Z</time>
      </trkpt>
      <trkpt lat="41.768030" lon="-8.218020">
        <ele>650.634</ele>
        <time>2020-07-15T15:18:36Z</time>
      </trkpt>
      <trkpt lat="41.768200" lon="-8.218280">
        <ele>653.555</ele>
        <time>2020-07-15T15:18:56Z</time>
      </trkpt>
      <trkpt lat="41.768330" lon="-8.218730">
        <ele>656.110</ele>
        <time>2020-07-15T15:19:16Z</time>
      </trkpt>
      <trkpt lat="41.768430" lon="-8.218900">
        <ele>657.008</ele>
        <time>2020-07-15T15:19:36Z</time>
      </trkpt>
      <trkpt lat="41.768790" lon="-8.219370">
        <ele>662.858</ele>
        <time>2020-07-15T15:19:56Z</time>
      </trkpt>
      <trkpt lat="41.768820" lon="-8.219480">
        <ele>663.365</ele>
        <time>2020-07-15T15:20:16Z</time>
      </trkpt>
      <trkpt lat="41.768810" lon="-8.219630">
        <ele>663.490</ele>
        <time>2020-07-15T15:20:36Z</time>
      </trkpt>
      <trkpt lat="41.768770" lon="-8.219770">
        <ele>663.378</ele>
        <time>2020-07-15T15:20:56Z</time>
      </trkpt>
      <trkpt lat="41.768490" lon="-8.220280">
        <ele>661.825</ele>
        <time>2020-07-15T15:21:16Z</time>
      </trkpt>
      <trkpt lat="41.768430" lon="-8.220450">
        <ele>661.865</ele>
        <time>2020-07-15T15:21:36Z</time>
      </trkpt>
      <trkpt lat="41.768420" lon="-8.221170">
        <ele>671.585</ele>
        <time>2020-07-15T15:21:56Z</time>
      </trkpt>
      <trkpt lat="41.768400" lon="-8.221390">
        <ele>673.746</ele>
        <time>2020-07-15T15:22:16Z</time>
      </trkpt>
      <trkpt lat="41.768360" lon="-8.221510">
        <ele>674.888</ele>
        <time>2020-07-15T15:22:36Z</time>
      </trkpt>
      <trkpt lat="41.768300" lon="-8.221590">
        <ele>674.824</ele>
        <time>2020-07-15T15:22:56Z</time>
      </trkpt>
      <trkpt lat="41.768160" lon="-8.221700">
        <ele>674.226</ele>
        <time>2020-07-15T15:23:16Z</time>
      </trkpt>
      <trkpt lat="41.767770" lon="-8.221950">
        <ele>678.008</ele>
        <time>2020-07-15T15:23:36Z</time>
      </trkpt>
      <trkpt lat="41.767640" lon="-8.222100">
        <ele>678.173</ele>
        <time>2020-07-15T15:23:56Z</time>
      </trkpt>
      <trkpt lat="41.767520" lon="-8.222360">
        <ele>679.030</ele>
        <time>2020-07-15T15:24:16Z</time>
      </trkpt>
      <trkpt lat="41.767360" lon="-8.222780">
        <ele>682.015</ele>
        <time>2020-07-15T15:24:36Z</time>
      </trkpt>
      <trkpt lat="41.767260" lon="-8.222950">
        <ele>684.243</ele>
        <time>2020-07-15T15:24:56Z</time>
      </trkpt>
      <trkpt lat="41.767010" lon="-8.223160">
        <ele>686.750</ele>
        <time>2020-07-15T15:25:16Z</time>
      </trkpt>
      <trkpt lat="41.766830" lon="-8.223360">
        <ele>688.370</ele>
        <time>2020-07-15T15:25:36Z</time>
      </trkpt>
      <trkpt lat="41.766350" lon="-8.224060">
        <ele>686.450</ele>
        <time>2020-07-15T15:25:56Z</time>
      </trkpt>
      <trkpt lat="41.765790" lon="-8.225260">
        <ele>689.391</ele>
        <time>2020-07-15T15:26:16Z</time>
      </trkpt>
      <trkpt lat="41.765720" lon="-8.225480">
        <ele>692.496</ele>
        <time>2020-07-15T15:26:36Z</time>
      </trkpt>
      <trkpt lat="41.765630" lon="-8.226200">
        <ele>704.031</ele>
        <time>2020-07-15T15:26:56Z</time>
      </trkpt>
      <trkpt lat="41.765590" lon="-8.226320">
        <ele>705.524</ele>
        <time>2020-07-15T15:27:16Z</time>
      </trkpt>
      <trkpt lat="41.765510" lon="-8.226410">
        <ele>705.308</ele>
        <time>2020-07-15T15:27:36Z</time>
      </trkpt>
      <trkpt lat="41.765140" lon="-8.226590">
        <ele>700.024</ele>
        <time>2020-07-15T15:27:56Z</time>
      </trkpt>
      <trkpt lat="41.765030" lon="-8.226730">
        <ele>700.671</ele>
        <time>2020-07-15T15:28:16Z</time>
      </trkpt>
      <trkpt lat="41.764870" lon="-8.227040">
        <ele>700.196</ele>
        <time>2020-07-15T15:28:36Z</time>
      </trkpt>
      <trkpt lat="41.764840" lon="-8.227230">
        <ele>701.134</ele>
        <time>2020-07-15T15:28:56Z</time>
      </trkpt>
      <trkpt lat="41.764780" lon="-8.227900">
        <ele>710.511</ele>
        <time>2020-07-15T15:29:16Z</time>
      </trkpt>
      <trkpt lat="41.764710" lon="-8.228080">
        <ele>709.351</ele>
        <time>2020-07-15T15:29:36Z</time>
      </trkpt>
      <trkpt lat="41.764450" lon="-8.228610">
        <ele>711.321</ele>
        <time>2020-07-15T15:29:56Z</time>
      </trkpt>
      <trkpt lat="41.764380" lon="-8.228870">
        <ele>718.782</ele>
        <time>2020-07-15T15:30:16Z</time>
      </trkpt>
      <trkpt lat="41.764300" lon="-8.229010">
        <ele>720.281</ele>
        <time>2020-07-15T15:30:36Z</time>
      </trkpt>
      <trkpt lat="41.764140" lon="-8.229190">
        <ele>720.261</ele>
        <time>2020-07-15T15:30:56Z</time>
      </trkpt>
      <trkpt lat="41.763980" lon="-8.229310">
        <ele>720.617</ele>
        <time>2020-07-15T15:31:16Z</time>
      </trkpt>
      <trkpt lat="41.763580" lon="-8.229420">
        <ele>716.908</ele>
        <time>2020-07-15T15:31:36Z</time>
      </trkpt>
      <trkpt lat="41.763090" lon="-8.229460">
        <ele>719.393</ele>
        <time>2020-07-15T15:31:56Z</time>
      </trkpt>
      <trkpt lat="41.762840" lon="-8.229620">
        <ele>722.480</ele>
        <time>2020-07-15T15:32:16Z</time>
      </trkpt>
      <trkpt lat="41.762750" lon="-8.229710">
        <ele>723.075</ele>
        <time>2020-07-15T15:32:36Z</time>
      </trkpt>
      <trkpt lat="41.762710" lon="-8.229790">
        <ele>722.923</ele>
        <time>2020-07-15T15:32:56Z</time>
      </trkpt>
      <trkpt lat="41.762690" lon="-8.229870">
        <ele>723.030</ele>
        <time>2020-07-15T15:33:16Z</time>
      </trkpt>
      <trkpt lat="41.762690" lon="-8.229970">
        <ele>723.920</ele>
        <time>2020-07-15T15:33:36Z</time>
      </trkpt>
      <trkpt lat="41.762960" lon="-8.231290">
        <ele>736.240</ele>
        <time>2020-07-15T15:33:56Z</time>
      </trkpt>
      <trkpt lat="41.763010" lon="-8.232570">
        <ele>746.141</ele>
        <time>2020-07-15T15:34:16Z</time>
      </trkpt>
      <trkpt lat="41.763000" lon="-8.232690">
        <ele>746.548</ele>
        <time>2020-07-15T15:34:36Z</time>
      </trkpt>
      <trkpt lat="41.762920" lon="-8.233040">
        <ele>746.961</ele>
        <time>2020-07-15T15:34:56Z</time>
      </trkpt>
      <trkpt lat="41.762780" lon="-8.233330">
        <ele>747.017</ele>
        <time>2020-07-15T15:35:16Z</time>
      </trkpt>
      <trkpt lat="41.762530" lon="-8.233700">
        <ele>743.408</ele>
        <time>2020-07-15T15:35:36Z</time>
      </trkpt>
      <trkpt lat="41.762410" lon="-8.234100">
        <ele>745.489</ele>
        <time>2020-07-15T15:35:56Z</time>
      </trkpt>
      <trkpt lat="41.762300" lon="-8.234370">
        <ele>745.586</ele>
        <time>2020-07-15T15:36:16Z</time>
      </trkpt>
      <trkpt lat="41.762200" lon="-8.234770">
        <ele>750.071</ele>
        <time>2020-07-15T15:36:36Z</time>
      </trkpt>
      <trkpt lat="41.762150" lon="-8.234890">
        <ele>750.119</ele>
        <time>2020-07-15T15:36:56Z</time>
      </trkpt>
      <trkpt lat="41.761810" lon="-8.235310">
        <ele>737.416</ele>
        <time>2020-07-15T15:37:16Z</time>
      </trkpt>
      <trkpt lat="41.761750" lon="-8.235450">
        <ele>739.236</ele>
        <time>2020-07-15T15:37:36Z</time>
      </trkpt>
      <trkpt lat="41.761720" lon="-8.235730">
        <ele>743.246</ele>
        <time>2020-07-15T15:37:56Z</time>
      </trkpt>
      <trkpt lat="41.761730" lon="-8.236400">
        <ele>750.447</ele>
        <time>2020-07-15T15:38:16Z</time>
      </trkpt>
      <trkpt lat="41.761780" lon="-8.236780">
        <ele>747.554</ele>
        <time>2020-07-15T15:38:36Z</time>
      </trkpt>
      <trkpt lat="41.761840" lon="-8.236990">
        <ele>745.756</ele>
        <time>2020-07-15T15:38:56Z</time>
      </trkpt>
      <trkpt lat="41.761890" lon="-8.237080">
        <ele>745.711</ele>
        <time>2020-07-15T15:39:16Z</time>
      </trkpt>
      <trkpt lat="41.762100" lon="-8.237390">
        <ele>750.008</ele>
        <time>2020-07-15T15:39:36Z</time>
      </trkpt>
      <trkpt lat="41.762220" lon="-8.237530">
        <ele>753.570</ele>
        <time>2020-07-15T15:39:56Z</time>
      </trkpt>
      <trkpt lat="41.762400" lon="-8.238020">
        <ele>751.127</ele>
        <time>2020-07-15T15:40:16Z</time>
      </trkpt>
      <trkpt lat="41.762480" lon="-8.238150">
        <ele>751.122</ele>
        <time>2020-07-15T15:40:36Z</time>
      </trkpt>
      <trkpt lat="41.762570" lon="-8.238230">
        <ele>752.130</ele>
        <time>2020-07-15T15:40:56Z</time>
      </trkpt>
      <trkpt lat="41.762840" lon="-8.238380">
        <ele>754.747</ele>
        <time>2020-07-15T15:41:16Z</time>
      </trkpt>
      <trkpt lat="41.763220" lon="-8.238520">
        <ele>754.447</ele>
        <time>2020-07-15T15:41:36Z</time>
      </trkpt>
      <trkpt lat="41.763580" lon="-8.238570">
        <ele>758.187</ele>
        <time>2020-07-15T15:41:56Z</time>
      </trkpt>
      <trkpt lat="41.763680" lon="-8.238620">
        <ele>758.868</ele>
        <time>2020-07-15T15:42:16Z</time>
      </trkpt>
      <trkpt lat="41.763890" lon="-8.238850">
        <ele>758.654</ele>
        <time>2020-07-15T15:42:36Z</time>
      </trkpt>
      <trkpt lat="41.764130" lon="-8.239220">
        <ele>757.456</ele>
        <time>2020-07-15T15:42:56Z</time>
      </trkpt>
      <trkpt lat="41.764310" lon="-8.239460">
        <ele>756.811</ele>
        <time>2020-07-15T15:43:16Z</time>
      </trkpt>
      <trkpt lat="41.764410" lon="-8.239530">
        <ele>757.308</ele>
        <time>2020-07-15T15:43:36Z</time>
      </trkpt>
      <trkpt lat="41.764740" lon="-8.239420">
        <ele>757.310</ele>
        <time>2020-07-15T15:43:56Z</time>
      </trkpt>
      <trkpt lat="41.764970" lon="-8.239280">
        <ele>757.927</ele>
        <time>2020-07-15T15:44:16Z</time>
      </trkpt>
      <trkpt lat="41.765920" lon="-8.238420">
        <ele>760.742</ele>
        <time>2020-07-15T15:44:36Z</time>
      </trkpt>
      <trkpt lat="41.766110" lon="-8.238180">
        <ele>758.230</ele>
        <time>2020-07-15T15:44:56Z</time>
      </trkpt>
      <trkpt lat="41.766190" lon="-8.237990">
        <ele>759.357</ele>
        <time>2020-07-15T15:45:16Z</time>
      </trkpt>
      <trkpt lat="41.766600" lon="-8.236260">
        <ele>757.487</ele>
        <time>2020-07-15T15:45:36Z</time>
      </trkpt>
      <trkpt lat="41.766670" lon="-8.236170">
        <ele>757.627</ele>
        <time>2020-07-15T15:45:56Z</time>
      </trkpt>
      <trkpt lat="41.766730" lon="-8.236160">
        <ele>758.278</ele>
        <time>2020-07-15T15:46:16Z</time>
      </trkpt>
      <trkpt lat="41.766830" lon="-8.236190">
        <ele>758.925</ele>
        <time>2020-07-15T15:46:36Z</time>
      </trkpt>
      <trkpt lat="41.766920" lon="-8.236240">
        <ele>759.726</ele>
        <time>2020-07-15T15:46:56Z</time>
      </trkpt>
      <trkpt lat="41.766960" lon="-8.236320">
        <ele>760.408</ele>
        <time>2020-07-15T15:47:16Z</time>
      </trkpt>
      <trkpt lat="41.766980" lon="-8.236440">
        <ele>760.908</ele>
        <time>2020-07-15T15:47:36Z</time>
      </trkpt>
      <trkpt lat="41.766980" lon="-8.236800">
        <ele>759.227</ele>
        <time>2020-07-15T15:47:56Z</time>
      </trkpt>
      <trkpt lat="41.767000" lon="-8.237000">
        <ele>758.284</ele>
        <time>2020-07-15T15:48:16Z</time>
      </trkpt>
      <trkpt lat="41.767080" lon="-8.237350">
        <ele>756.329</ele>
        <time>2020-07-15T15:48:36Z</time>
      </trkpt>
      <trkpt lat="41.767190" lon="-8.237670">
        <ele>752.837</ele>
        <time>2020-07-15T15:48:56Z</time>
      </trkpt>
      <trkpt lat="41.767300" lon="-8.237860">
        <ele>751.844</ele>
        <time>2020-07-15T15:49:16Z</time>
      </trkpt>
      <trkpt lat="41.767660" lon="-8.238250">
        <ele>750.634</ele>
        <time>2020-07-15T15:49:36Z</time>
      </trkpt>
      <trkpt lat="41.767790" lon="-8.238470">
        <ele>747.594</ele>
        <time>2020-07-15T15:49:56Z</time>
      </trkpt>
      <trkpt lat="41.767930" lon="-8.238760">
        <ele>744.815</ele>
        <time>2020-07-15T15:50:16Z</time>
      </trkpt>
      <trkpt lat="41.768250" lon="-8.239590">
        <ele>743.595</ele>
        <time>2020-07-15T15:50:36Z</time>
      </trkpt>
      <trkpt lat="41.768270" lon="-8.239720">
        <ele>742.049</ele>
        <time>2020-07-15T15:50:56Z</time>
      </trkpt>
      <trkpt lat="41.768240" lon="-8.239890">
        <ele>739.623</ele>
        <time>2020-07-15T15:51:16Z</time>
      </trkpt>
      <trkpt lat="41.768180" lon="-8.240010">
        <ele>737.008</ele>
        <time>2020-07-15T15:51:36Z</time>
      </trkpt>
      <trkpt lat="41.767800" lon="-8.240500">
        <ele>724.784</ele>
        <time>2020-07-15T15:51:56Z</time>
      </trkpt>
      <trkpt lat="41.767110" lon="-8.241060">
        <ele>720.571</ele>
        <time>2020-07-15T15:52:16Z</time>
      </trkpt>
      <trkpt lat="41.767070" lon="-8.241130">
        <ele>719.516</ele>
        <time>2020-07-15T15:52:36Z</time>
      </trkpt>
      <trkpt lat="41.767010" lon="-8.241350">
        <ele>716.374</ele>
        <time>2020-07-15T15:52:56Z</time>
      </trkpt>
      <trkpt lat="41.766860" lon="-8.242430">
        <ele>706.451</ele>
        <time>2020-07-15T15:53:16Z</time>
      </trkpt>
      <trkpt lat="41.766890" lon="-8.242650">
        <ele>702.891</ele>
        <time>2020-07-15T15:53:36Z</time>
      </trkpt>
      <trkpt lat="41.767080" lon="-8.243080">
        <ele>701.761</ele>
        <time>2020-07-15T15:53:56Z</time>
      </trkpt>
      <trkpt lat="41.767090" lon="-8.243210">
        <ele>703.212</ele>
        <time>2020-07-15T15:54:16Z</time>
      </trkpt>
      <trkpt lat="41.767060" lon="-8.243420">
        <ele>706.734</ele>
        <time>2020-07-15T15:54:36Z</time>
      </trkpt>
      <trkpt lat="41.767160" lon="-8.243570">
        <ele>710.355</ele>
        <time>2020-07-15T15:54:56Z</time>
      </trkpt>
      <trkpt lat="41.767400" lon="-8.244310">
        <ele>721.710</ele>
        <time>2020-07-15T15:55:16Z</time>
      </trkpt>
      <trkpt lat="41.767430" lon="-8.244480">
        <ele>723.408</ele>
        <time>2020-07-15T15:55:36Z</time>
      </trkpt>
      <trkpt lat="41.767430" lon="-8.244620">
        <ele>724.778</ele>
        <time>2020-07-15T15:55:56Z</time>
      </trkpt>
      <trkpt lat="41.767420" lon="-8.244700">
        <ele>725.635</ele>
        <time>2020-07-15T15:56:16Z</time>
      </trkpt>
      <trkpt lat="41.767390" lon="-8.244770">
        <ele>726.590</ele>
        <time>2020-07-15T15:56:36Z</time>
      </trkpt>
      <trkpt lat="41.767350" lon="-8.244800">
        <ele>727.028</ele>
        <time>2020-07-15T15:56:56Z</time>
      </trkpt>
      <trkpt lat="41.767280" lon="-8.244830">
        <ele>727.855</ele>
        <time>2020-07-15T15:57:16Z</time>
      </trkpt>
      <trkpt lat="41.766920" lon="-8.244910">
        <ele>731.185</ele>
        <time>2020-07-15T15:57:36Z</time>
      </trkpt>
      <trkpt lat="41.766870" lon="-8.244960">
        <ele>731.675</ele>
        <time>2020-07-15T15:57:56Z</time>
      </trkpt>
      <trkpt lat="41.766830" lon="-8.245040">
        <ele>732.666</ele>
        <time>2020-07-15T15:58:16Z</time>
      </trkpt>
      <trkpt lat="41.766810" lon="-8.245140">
        <ele>733.923</ele>
        <time>2020-07-15T15:58:36Z</time>
      </trkpt>
      <trkpt lat="41.766820" lon="-8.245450">
        <ele>738.083</ele>
        <time>2020-07-15T15:58:56Z</time>
      </trkpt>
      <trkpt lat="41.766950" lon="-8.246950">
        <ele>752.111</ele>
        <time>2020-07-15T15:59:16Z</time>
      </trkpt>
      <trkpt lat="41.766940" lon="-8.247240">
        <ele>755.308</ele>
        <time>2020-07-15T15:59:36Z</time>
      </trkpt>
      <trkpt lat="41.766890" lon="-8.247640">
        <ele>760.637</ele>
        <time>2020-07-15T15:59:56Z</time>
      </trkpt>
      <trkpt lat="41.766820" lon="-8.247940">
        <ele>760.314</ele>
        <time>2020-07-15T16:00:16Z</time>
      </trkpt>
      <trkpt lat="41.766190" lon="-8.249800">
        <ele>763.249</ele>
        <time>2020-07-15T16:00:36Z</time>
      </trkpt>
      <trkpt lat="41.766060" lon="-8.250210">
        <ele>762.977</ele>
        <time>2020-07-15T16:00:56Z</time>
      </trkpt>
      <trkpt lat="41.766020" lon="-8.250400">
        <ele>761.364</ele>
        <time>2020-07-15T16:01:16Z</time>
      </trkpt>
      <trkpt lat="41.765980" lon="-8.250670">
        <ele>758.074</ele>
        <time>2020-07-15T16:01:36Z</time>
      </trkpt>
      <trkpt lat="41.765970" lon="-8.251030">
        <ele>753.824</ele>
        <time>2020-07-15T16:01:56Z</time>
      </trkpt>
      <trkpt lat="41.766090" lon="-8.252310">
        <ele>756.875</ele>
        <time>2020-07-15T16:02:16Z</time>
      </trkpt>
      <trkpt lat="41.766150" lon="-8.252520">
        <ele>757.066</ele>
        <time>2020-07-15T16:02:36Z</time>
      </trkpt>
      <trkpt lat="41.766260" lon="-8.252710">
        <ele>758.329</ele>
        <time>2020-07-15T16:02:56Z</time>
      </trkpt>
      <trkpt lat="41.766800" lon="-8.253460">
        <ele>764.721</ele>
        <time>2020-07-15T16:03:16Z</time>
      </trkpt>
      <trkpt lat="41.766860" lon="-8.253570">
        <ele>764.908</ele>
        <time>2020-07-15T16:03:36Z</time>
      </trkpt>
      <trkpt lat="41.766970" lon="-8.253850">
        <ele>766.531</ele>
        <time>2020-07-15T16:03:56Z</time>
      </trkpt>
      <trkpt lat="41.767110" lon="-8.254330">
        <ele>768.748</ele>
        <time>2020-07-15T16:04:16Z</time>
      </trkpt>
      <trkpt lat="41.767230" lon="-8.254770">
        <ele>766.983</ele>
        <time>2020-07-15T16:04:36Z</time>
      </trkpt>
      <trkpt lat="41.767230" lon="-8.254870">
        <ele>766.981</ele>
        <time>2020-07-15T16:04:56Z</time>
      </trkpt>
      <trkpt lat="41.767170" lon="-8.255040">
        <ele>767.518</ele>
        <time>2020-07-15T16:05:16Z</time>
      </trkpt>
      <trkpt lat="41.767130" lon="-8.255120">
        <ele>768.268</ele>
        <time>2020-07-15T16:05:36Z</time>
      </trkpt>
      <trkpt lat="41.767090" lon="-8.255160">
        <ele>768.838</ele>
        <time>2020-07-15T16:05:56Z</time>
      </trkpt>
      <trkpt lat="41.766270" lon="-8.255400">
        <ele>756.579</ele>
        <time>2020-07-15T16:06:16Z</time>
      </trkpt>
      <trkpt lat="41.766140" lon="-8.255470">
        <ele>752.972</ele>
        <time>2020-07-15T16:06:36Z</time>
      </trkpt>
      <trkpt lat="41.766050" lon="-8.255560">
        <ele>750.513</ele>
        <time>2020-07-15T16:06:56Z</time>
      </trkpt>
      <trkpt lat="41.765970" lon="-8.255710">
        <ele>748.714</ele>
        <time>2020-07-15T16:07:16Z</time>
      </trkpt>
      <trkpt lat="41.765660" lon="-8.256770">
        <ele>742.008</ele>
        <time>2020-07-15T16:07:36Z</time>
      </trkpt>
      <trkpt lat="41.765650" lon="-8.256970">
        <ele>742.172</ele>
        <time>2020-07-15T16:07:56Z</time>
      </trkpt>
      <trkpt lat="41.765750" lon="-8.257560">
        <ele>747.819</ele>
        <time>2020-07-15T16:08:16Z</time>
      </trkpt>
      <trkpt lat="41.765680" lon="-8.257790">
        <ele>746.274</ele>
        <time>2020-07-15T16:08:36Z</time>
      </trkpt>
      <trkpt lat="41.765590" lon="-8.257940">
        <ele>745.892</ele>
        <time>2020-07-15T16:08:56Z</time>
      </trkpt>
      <trkpt lat="41.765020" lon="-8.258590">
        <ele>744.099</ele>
        <time>2020-07-15T16:09:16Z</time>
      </trkpt>
      <trkpt lat="41.764900" lon="-8.258770">
        <ele>744.079</ele>
        <time>2020-07-15T16:09:36Z</time>
      </trkpt>
      <trkpt lat="41.764860" lon="-8.258950">
        <ele>745.789</ele>
        <time>2020-07-15T16:09:56Z</time>
      </trkpt>
      <trkpt lat="41.764850" lon="-8.259110">
        <ele>747.530</ele>
        <time>2020-07-15T16:10:16Z</time>
      </trkpt>
      <trkpt lat="41.764880" lon="-8.259350">
        <ele>749.052</ele>
        <time>2020-07-15T16:10:36Z</time>
      </trkpt>
      <trkpt lat="41.764990" lon="-8.259710">
        <ele>750.853</ele>
        <time>2020-07-15T16:10:56Z</time>
      </trkpt>
      <trkpt lat="41.765420" lon="-8.260720">
        <ele>748.408</ele>
        <time>2020-07-15T16:11:16Z</time>
      </trkpt>
      <trkpt lat="41.765520" lon="-8.260860">
        <ele>749.008</ele>
        <time>2020-07-15T16:11:36Z</time>
      </trkpt>
      <trkpt lat="41.765610" lon="-8.260950">
        <ele>749.380</ele>
        <time>2020-07-15T16:11:56Z</time>
      </trkpt>
      <trkpt lat="41.765750" lon="-8.261020">
        <ele>750.837</ele>
        <time>2020-07-15T16:12:16Z</time>
      </trkpt>
      <trkpt lat="41.765830" lon="-8.261100">
        <ele>751.152</ele>
        <time>2020-07-15T16:12:36Z</time>
      </trkpt>
      <trkpt lat="41.765860" lon="-8.261170">
        <ele>751.360</ele>
        <time>2020-07-15T16:12:56Z</time>
      </trkpt>
      <trkpt lat="41.765890" lon="-8.261370">
        <ele>751.397</ele>
        <time>2020-07-15T16:13:16Z</time>
      </trkpt>
      <trkpt lat="41.765900" lon="-8.261900">
        <ele>753.997</ele>
        <time>2020-07-15T16:13:36Z</time>
      </trkpt>
      <trkpt lat="41.765950" lon="-8.262130">
        <ele>755.557</ele>
        <time>2020-07-15T16:13:56Z</time>
      </trkpt>
      <trkpt lat="41.766130" lon="-8.262680">
        <ele>759.288</ele>
        <time>2020-07-15T16:14:16Z</time>
      </trkpt>
      <trkpt lat="41.766800" lon="-8.264500">
        <ele>751.427</ele>
        <time>2020-07-15T16:14:36Z</time>
      </trkpt>
      <trkpt lat="41.766840" lon="-8.264710">
        <ele>751.068</ele>
        <time>2020-07-15T16:14:56Z</time>
      </trkpt>
      <trkpt lat="41.766860" lon="-8.265080">
        <ele>751.514</ele>
        <time>2020-07-15T16:15:16Z</time>
      </trkpt>
      <trkpt lat="41.766850" lon="-8.265360">
        <ele>752.208</ele>
        <time>2020-07-15T16:15:36Z</time>
      </trkpt>
      <trkpt lat="41.766800" lon="-8.265770">
        <ele>751.757</ele>
        <time>2020-07-15T16:15:56Z</time>
      </trkpt>
      <trkpt lat="41.766640" lon="-8.266290">
        <ele>751.224</ele>
        <time>2020-07-15T16:16:16Z</time>
      </trkpt>
      <trkpt lat="41.766590" lon="-8.266380">
        <ele>751.739</ele>
        <time>2020-07-15T16:16:36Z</time>
      </trkpt>
      <trkpt lat="41.766310" lon="-8.266740">
        <ele>754.927</ele>
        <time>2020-07-15T16:16:56Z</time>
      </trkpt>
      <trkpt lat="41.766160" lon="-8.266960">
        <ele>755.794</ele>
        <time>2020-07-15T16:17:16Z</time>
      </trkpt>
      <trkpt lat="41.766020" lon="-8.267360">
        <ele>757.744</ele>
        <time>2020-07-15T16:17:36Z</time>
      </trkpt>
      <trkpt lat="41.765680" lon="-8.268480">
        <ele>763.444</ele>
        <time>2020-07-15T16:17:56Z</time>
      </trkpt>
      <trkpt lat="41.764030" lon="-8.273620">
        <ele>763.555</ele>
        <time>2020-07-15T16:18:16Z</time>
      </trkpt>
      <trkpt lat="41.763990" lon="-8.273970">
        <ele>763.022</ele>
        <time>2020-07-15T16:18:36Z</time>
      </trkpt>
      <trkpt lat="41.763990" lon="-8.274240">
        <ele>762.962</ele>
        <time>2020-07-15T16:18:56Z</time>
      </trkpt>
      <trkpt lat="41.764390" lon="-8.277990">
        <ele>771.708</ele>
        <time>2020-07-15T16:19:16Z</time>
      </trkpt>
      <trkpt lat="41.764470" lon="-8.278150">
        <ele>771.008</ele>
        <time>2020-07-15T16:19:36Z</time>
      </trkpt>
      <trkpt lat="41.764750" lon="-8.278450">
        <ele>770.477</ele>
        <time>2020-07-15T16:19:56Z</time>
      </trkpt>
      <trkpt lat="41.764900" lon="-8.278640">
        <ele>771.654</ele>
        <time>2020-07-15T16:20:16Z</time>
      </trkpt>
      <trkpt lat="41.765020" lon="-8.278920">
        <ele>773.989</ele>
        <time>2020-07-15T16:20:36Z</time>
      </trkpt>
      <trkpt lat="41.765070" lon="-8.279210">
        <ele>776.097</ele>
        <time>2020-07-15T16:20:56Z</time>
      </trkpt>
      <trkpt lat="41.765090" lon="-8.279530">
        <ele>776.924</ele>
        <time>2020-07-15T16:21:16Z</time>
      </trkpt>
      <trkpt lat="41.765170" lon="-8.281410">
        <ele>779.554</ele>
        <time>2020-07-15T16:21:36Z</time>
      </trkpt>
      <trkpt lat="41.765610" lon="-8.281920">
        <ele>780.774</ele>
        <time>2020-07-15T16:21:56Z</time>
      </trkpt>
      <trkpt lat="41.765660" lon="-8.282020">
        <ele>780.985</ele>
        <time>2020-07-15T16:22:16Z</time>
      </trkpt>
      <trkpt lat="41.765700" lon="-8.282210">
        <ele>781.187</ele>
        <time>2020-07-15T16:22:36Z</time>
      </trkpt>
      <trkpt lat="41.765350" lon="-8.284780">
        <ele>777.642</ele>
        <time>2020-07-15T16:22:56Z</time>
      </trkpt>
      <trkpt lat="41.765230" lon="-8.286010">
        <ele>764.526</ele>
        <time>2020-07-15T16:23:16Z</time>
      </trkpt>
      <trkpt lat="41.765170" lon="-8.286280">
        <ele>759.508</ele>
        <time>2020-07-15T16:23:36Z</time>
      </trkpt>
      <trkpt lat="41.765010" lon="-8.286690">
        <ele>753.163</ele>
        <time>2020-07-15T16:23:56Z</time>
      </trkpt>
      <trkpt lat="41.764830" lon="-8.287060">
        <ele>749.110</ele>
        <time>2020-07-15T16:24:16Z</time>
      </trkpt>
      <trkpt lat="41.764390" lon="-8.287910">
        <ele>741.835</ele>
        <time>2020-07-15T16:24:36Z</time>
      </trkpt>
      <trkpt lat="41.764020" lon="-8.288550">
        <ele>735.733</ele>
        <time>2020-07-15T16:24:56Z</time>
      </trkpt>
      <trkpt lat="41.763890" lon="-8.288660">
        <ele>735.080</ele>
        <time>2020-07-15T16:25:16Z</time>
      </trkpt>
      <trkpt lat="41.763640" lon="-8.288720">
        <ele>731.280</ele>
        <time>2020-07-15T16:25:36Z</time>
      </trkpt>
      <trkpt lat="41.763590" lon="-8.288760">
        <ele>730.430</ele>
        <time>2020-07-15T16:25:56Z</time>
      </trkpt>
      <trkpt lat="41.763390" lon="-8.289130">
        <ele>725.161</ele>
        <time>2020-07-15T16:26:16Z</time>
      </trkpt>
      <trkpt lat="41.763230" lon="-8.289180">
        <ele>720.782</ele>
        <time>2020-07-15T16:26:36Z</time>
      </trkpt>
      <trkpt lat="41.763200" lon="-8.289230">
        <ele>719.943</ele>
        <time>2020-07-15T16:26:56Z</time>
      </trkpt>
      <trkpt lat="41.763170" lon="-8.289380">
        <ele>719.617</ele>
        <time>2020-07-15T16:27:16Z</time>
      </trkpt>
      <trkpt lat="41.763080" lon="-8.289450">
        <ele>717.608</ele>
        <time>2020-07-15T16:27:36Z</time>
      </trkpt>
      <trkpt lat="41.762960" lon="-8.289470">
        <ele>714.533</ele>
        <time>2020-07-15T16:27:56Z</time>
      </trkpt>
      <trkpt lat="41.762900" lon="-8.289450">
        <ele>713.140</ele>
        <time>2020-07-15T16:28:16Z</time>
      </trkpt>
      <trkpt lat="41.762840" lon="-8.289400">
        <ele>711.675</ele>
        <time>2020-07-15T16:28:36Z</time>
      </trkpt>
      <trkpt lat="41.762800" lon="-8.289300">
        <ele>711.073</ele>
        <time>2020-07-15T16:28:56Z</time>
      </trkpt>
      <trkpt lat="41.762740" lon="-8.288940">
        <ele>709.730</ele>
        <time>2020-07-15T16:29:16Z</time>
      </trkpt>
      <trkpt lat="41.762690" lon="-8.288880">
        <ele>709.110</ele>
        <time>2020-07-15T16:29:36Z</time>
      </trkpt>
      <trkpt lat="41.762600" lon="-8.288820">
        <ele>708.370</ele>
        <time>2020-07-15T16:29:56Z</time>
      </trkpt>
      <trkpt lat="41.762500" lon="-8.288800">
        <ele>707.371</ele>
        <time>2020-07-15T16:30:16Z</time>
      </trkpt>
      <trkpt lat="41.762430" lon="-8.288820">
        <ele>707.032</ele>
        <time>2020-07-15T16:30:36Z</time>
      </trkpt>
      <trkpt lat="41.761780" lon="-8.289130">
        <ele>702.692</ele>
        <time>2020-07-15T16:30:56Z</time>
      </trkpt>
      <trkpt lat="41.761610" lon="-8.289230">
        <ele>701.911</ele>
        <time>2020-07-15T16:31:16Z</time>
      </trkpt>
      <trkpt lat="41.761060" lon="-8.289620">
        <ele>706.508</ele>
        <time>2020-07-15T16:31:36Z</time>
      </trkpt>
      <trkpt lat="41.760970" lon="-8.289660">
        <ele>706.818</ele>
        <time>2020-07-15T16:31:56Z</time>
      </trkpt>
      <trkpt lat="41.760690" lon="-8.289670">
        <ele>707.395</ele>
        <time>2020-07-15T16:32:16Z</time>
      </trkpt>
      <trkpt lat="41.759920" lon="-8.289400">
        <ele>705.220</ele>
        <time>2020-07-15T16:32:36Z</time>
      </trkpt>
      <trkpt lat="41.759180" lon="-8.289080">
        <ele>712.258</ele>
        <time>2020-07-15T16:32:56Z</time>
      </trkpt>
      <trkpt lat="41.758620" lon="-8.288590">
        <ele>714.015</ele>
        <time>2020-07-15T16:33:16Z</time>
      </trkpt>
      <trkpt lat="41.758460" lon="-8.288580">
        <ele>715.375</ele>
        <time>2020-07-15T16:33:36Z</time>
      </trkpt>
      <trkpt lat="41.758240" lon="-8.288630">
        <ele>716.815</ele>
        <time>2020-07-15T16:33:56Z</time>
      </trkpt>
      <trkpt lat="41.758060" lon="-8.288640">
        <ele>718.246</ele>
        <time>2020-07-15T16:34:16Z</time>
      </trkpt>
      <trkpt lat="41.757640" lon="-8.288560">
        <ele>719.545</ele>
        <time>2020-07-15T16:34:36Z</time>
      </trkpt>
      <trkpt lat="41.757440" lon="-8.288550">
        <ele>720.647</ele>
        <time>2020-07-15T16:34:56Z</time>
      </trkpt>
      <trkpt lat="41.757530" lon="-8.290090">
        <ele>728.311</ele>
        <time>2020-07-15T16:35:16Z</time>
      </trkpt>
      <trkpt lat="41.757550" lon="-8.290650">
        <ele>728.608</ele>
        <time>2020-07-15T16:35:36Z</time>
      </trkpt>
      <trkpt lat="41.757540" lon="-8.291250">
        <ele>726.619</ele>
        <time>2020-07-15T16:35:56Z</time>
      </trkpt>
      <trkpt lat="41.757490" lon="-8.291730">
        <ele>727.266</ele>
        <time>2020-07-15T16:36:16Z</time>
      </trkpt>
      <trkpt lat="41.757400" lon="-8.292240">
        <ele>727.361</ele>
        <time>2020-07-15T16:36:36Z</time>
      </trkpt>
      <trkpt lat="41.757350" lon="-8.293410">
        <ele>724.569</ele>
        <time>2020-07-15T16:36:56Z</time>
      </trkpt>
      <trkpt lat="41.757360" lon="-8.293630">
        <ele>723.456</ele>
        <time>2020-07-15T16:37:16Z</time>
      </trkpt>
      <trkpt lat="41.757520" lon="-8.294230">
        <ele>720.666</ele>
        <time>2020-07-15T16:37:36Z</time>
      </trkpt>
      <trkpt lat="41.757580" lon="-8.294610">
        <ele>720.276</ele>
        <time>2020-07-15T16:37:56Z</time>
      </trkpt>
      <trkpt lat="41.757570" lon="-8.295060">
        <ele>723.347</ele>
        <time>2020-07-15T16:38:16Z</time>
      </trkpt>
      <trkpt lat="41.757480" lon="-8.295630">
        <ele>730.697</ele>
        <time>2020-07-15T16:38:36Z</time>
      </trkpt>
      <trkpt lat="41.757480" lon="-8.296020">
        <ele>733.423</ele>
        <time>2020-07-15T16:38:56Z</time>
      </trkpt>
      <trkpt lat="41.757510" lon="-8.296250">
        <ele>733.525</ele>
        <time>2020-07-15T16:39:16Z</time>
      </trkpt>
      <trkpt lat="41.757680" lon="-8.296970">
        <ele>733.808</ele>
        <time>2020-07-15T16:39:36Z</time>
      </trkpt>
      <trkpt lat="41.757740" lon="-8.297380">
        <ele>735.084</ele>
        <time>2020-07-15T16:39:56Z</time>
      </trkpt>
      <trkpt lat="41.757740" lon="-8.297530">
        <ele>735.521</ele>
        <time>2020-07-15T16:40:16Z</time>
      </trkpt>
      <trkpt lat="41.757580" lon="-8.298070">
        <ele>740.616</ele>
        <time>2020-07-15T16:40:36Z</time>
      </trkpt>
      <trkpt lat="41.757510" lon="-8.298940">
        <ele>748.064</ele>
        <time>2020-07-15T16:40:56Z</time>
      </trkpt>
      <trkpt lat="41.757500" lon="-8.299330">
        <ele>747.451</ele>
        <time>2020-07-15T16:41:16Z</time>
      </trkpt>
      <trkpt lat="41.757540" lon="-8.299610">
        <ele>745.031</ele>
        <time>2020-07-15T16:41:36Z</time>
      </trkpt>
      <trkpt lat="41.757700" lon="-8.300300">
        <ele>737.891</ele>
        <time>2020-07-15T16:41:56Z</time>
      </trkpt>
      <trkpt lat="41.757790" lon="-8.300780">
        <ele>735.872</ele>
        <time>2020-07-15T16:42:16Z</time>
      </trkpt>
      <trkpt lat="41.757800" lon="-8.301070">
        <ele>735.818</ele>
        <time>2020-07-15T16:42:36Z</time>
      </trkpt>
      <trkpt lat="41.757770" lon="-8.302210">
        <ele>732.898</ele>
        <time>2020-07-15T16:42:56Z</time>
      </trkpt>
      <trkpt lat="41.757830" lon="-8.302560">
        <ele>728.717</ele>
        <time>2020-07-15T16:43:16Z</time>
      </trkpt>
      <trkpt lat="41.757900" lon="-8.302750">
        <ele>727.908</ele>
        <time>2020-07-15T16:43:36Z</time>
      </trkpt>
      <trkpt lat="41.757970" lon="-8.302880">
        <ele>728.916</ele>
        <time>2020-07-15T16:43:56Z</time>
      </trkpt>
      <trkpt lat="41.758590" lon="-8.303610">
        <ele>730.233</ele>
        <time>2020-07-15T16:44:16Z</time>
      </trkpt>
      <trkpt lat="41.759000" lon="-8.304190">
        <ele>729.498</ele>
        <time>2020-07-15T16:44:36Z</time>
      </trkpt>
      <trkpt lat="41.759170" lon="-8.304580">
        <ele>730.386</ele>
        <time>2020-07-15T16:44:56Z</time>
      </trkpt>
      <trkpt lat="41.759220" lon="-8.304750">
        <ele>728.553</ele>
        <time>2020-07-15T16:45:16Z</time>
      </trkpt>
      <trkpt lat="41.759240" lon="-8.304900">
        <ele>728.283</ele>
        <time>2020-07-15T16:45:36Z</time>
      </trkpt>
      <trkpt lat="41.759200" lon="-8.305180">
        <ele>730.133</ele>
        <time>2020-07-15T16:45:56Z</time>
      </trkpt>
      <trkpt lat="41.759150" lon="-8.305470">
        <ele>730.984</ele>
        <time>2020-07-15T16:46:16Z</time>
      </trkpt>
      <trkpt lat="41.759150" lon="-8.305630">
        <ele>731.453</ele>
        <time>2020-07-15T16:46:36Z</time>
      </trkpt>
      <trkpt lat="41.759460" lon="-8.306110">
        <ele>729.704</ele>
        <time>2020-07-15T16:46:56Z</time>
      </trkpt>
      <trkpt lat="41.759520" lon="-8.306350">
        <ele>734.414</ele>
        <time>2020-07-15T16:47:16Z</time>
      </trkpt>
      <trkpt lat="41.759620" lon="-8.306960">
        <ele>740.208</ele>
        <time>2020-07-15T16:47:36Z</time>
      </trkpt>
      <trkpt lat="41.759630" lon="-8.307260">
        <ele>741.510</ele>
        <time>2020-07-15T16:47:56Z</time>
      </trkpt>
      <trkpt lat="41.759600" lon="-8.307780">
        <ele>742.637</ele>
        <time>2020-07-15T16:48:16Z</time>
      </trkpt>
      <trkpt lat="41.759620" lon="-8.308140">
        <ele>741.832</ele>
        <time>2020-07-15T16:48:36Z</time>
      </trkpt>
      <trkpt lat="41.759670" lon="-8.308430">
        <ele>741.340</ele>
        <time>2020-07-15T16:48:56Z</time>
      </trkpt>
      <trkpt lat="41.759840" lon="-8.308960">
        <ele>740.237</ele>
        <time>2020-07-15T16:49:16Z</time>
      </trkpt>
      <trkpt lat="41.760270" lon="-8.309940">
        <ele>733.817</ele>
        <time>2020-07-15T16:49:36Z</time>
      </trkpt>
      <trkpt lat="41.760300" lon="-8.310160">
        <ele>733.547</ele>
        <time>2020-07-15T16:49:56Z</time>
      </trkpt>
      <trkpt lat="41.760300" lon="-8.310310">
        <ele>732.818</ele>
        <time>2020-07-15T16:50:16Z</time>
      </trkpt>
      <trkpt lat="41.760200" lon="-8.311240">
        <ele>729.674</ele>
        <time>2020-07-15T16:50:36Z</time>
      </trkpt>
      <trkpt lat="41.760220" lon="-8.311630">
        <ele>729.856</ele>
        <time>2020-07-15T16:50:56Z</time>
      </trkpt>
      <trkpt lat="41.760190" lon="-8.311820">
        <ele>729.321</ele>
        <time>2020-07-15T16:51:16Z</time>
      </trkpt>
      <trkpt lat="41.760090" lon="-8.312130">
        <ele>727.808</ele>
        <time>2020-07-15T16:51:36Z</time>
      </trkpt>
      <trkpt lat="41.760020" lon="-8.312460">
        <ele>726.312</ele>
        <time>2020-07-15T16:51:56Z</time>
      </trkpt>
      <trkpt lat="41.759970" lon="-8.313200">
        <ele>720.959</ele>
        <time>2020-07-15T16:52:16Z</time>
      </trkpt>
      <trkpt lat="41.759860" lon="-8.314090">
        <ele>712.914</ele>
        <time>2020-07-15T16:52:36Z</time>
      </trkpt>
      <trkpt lat="41.759750" lon="-8.314370">
        <ele>710.772</ele>
        <time>2020-07-15T16:52:56Z</time>
      </trkpt>
      <trkpt lat="41.759500" lon="-8.314740">
        <ele>704.589</ele>
        <time>2020-07-15T16:53:16Z</time>
      </trkpt>
      <trkpt lat="41.759240" lon="-8.315230">
        <ele>698.829</ele>
        <time>2020-07-15T16:53:36Z</time>
      </trkpt>
      <trkpt lat="41.759050" lon="-8.315410">
        <ele>697.449</ele>
        <time>2020-07-15T16:53:56Z</time>
      </trkpt>
      <trkpt lat="41.758890" lon="-8.315490">
        <ele>696.870</ele>
        <time>2020-07-15T16:54:16Z</time>
      </trkpt>
      <trkpt lat="41.758560" lon="-8.315600">
        <ele>695.962</ele>
        <time>2020-07-15T16:54:36Z</time>
      </trkpt>
      <trkpt lat="41.758570" lon="-8.315700">
        <ele>696.383</ele>
        <time>2020-07-15T16:54:56Z</time>
      </trkpt>
      <trkpt lat="41.758550" lon="-8.316200">
        <ele>698.411</ele>
        <time>2020-07-15T16:55:16Z</time>
      </trkpt>
      <trkpt lat="41.758520" lon="-8.316390">
        <ele>698.308</ele>
        <time>2020-07-15T16:55:36Z</time>
      </trkpt>
      <trkpt lat="41.758230" lon="-8.317110">
        <ele>700.391</ele>
        <time>2020-07-15T16:55:56Z</time>
      </trkpt>
      <trkpt lat="41.758180" lon="-8.317330">
        <ele>701.668</ele>
        <time>2020-07-15T16:56:16Z</time>
      </trkpt>
      <trkpt lat="41.758180" lon="-8.317930">
        <ele>701.563</ele>
        <time>2020-07-15T16:56:36Z</time>
      </trkpt>
      <trkpt lat="41.758240" lon="-8.318760">
        <ele>712.211</ele>
        <time>2020-07-15T16:56:56Z</time>
      </trkpt>
      <trkpt lat="41.758510" lon="-8.320280">
        <ele>717.928</ele>
        <time>2020-07-15T16:57:16Z</time>
      </trkpt>
      <trkpt lat="41.758500" lon="-8.320460">
        <ele>718.198</ele>
        <time>2020-07-15T16:57:36Z</time>
      </trkpt>
      <trkpt lat="41.758430" lon="-8.320710">
        <ele>718.658</ele>
        <time>2020-07-15T16:57:56Z</time>
      </trkpt>
      <trkpt lat="41.758290" lon="-8.321010">
        <ele>719.079</ele>
        <time>2020-07-15T16:58:16Z</time>
      </trkpt>
      <trkpt lat="41.758250" lon="-8.321140">
        <ele>718.854</ele>
        <time>2020-07-15T16:58:36Z</time>
      </trkpt>
      <trkpt lat="41.758250" lon="-8.321350">
        <ele>718.856</ele>
        <time>2020-07-15T16:58:56Z</time>
      </trkpt>
      <trkpt lat="41.758280" lon="-8.321490">
        <ele>718.811</ele>
        <time>2020-07-15T16:59:16Z</time>
      </trkpt>
      <trkpt lat="41.758550" lon="-8.322030">
        <ele>721.508</ele>
        <time>2020-07-15T16:59:36Z</time>
      </trkpt>
      <trkpt lat="41.758950" lon="-8.323030">
        <ele>725.780</ele>
        <time>2020-07-15T16:59:56Z</time>
      </trkpt>
      <trkpt lat="41.759000" lon="-8.322980">
        <ele>727.357</ele>
        <time>2020-07-15T17:00:16Z</time>
      </trkpt>
      <trkpt lat="41.759010" lon="-8.322640">
        <ele>729.892</ele>
        <time>2020-07-15T17:00:36Z</time>
      </trkpt>
      <trkpt lat="41.759100" lon="-8.322460">
        <ele>732.540</ele>
        <time>2020-07-15T17:00:56Z</time>
      </trkpt>
      <trkpt lat="41.759260" lon="-8.322300">
        <ele>734.747</ele>
        <time>2020-07-15T17:01:16Z</time>
      </trkpt>
      <trkpt lat="41.759370" lon="-8.322250">
        <ele>736.137</ele>
        <time>2020-07-15T17:01:36Z</time>
      </trkpt>
      <trkpt lat="41.759780" lon="-8.322170">
        <ele>739.767</ele>
        <time>2020-07-15T17:01:56Z</time>
      </trkpt>
      <trkpt lat="41.759870" lon="-8.322120">
        <ele>739.898</ele>
        <time>2020-07-15T17:02:16Z</time>
      </trkpt>
      <trkpt lat="41.760150" lon="-8.321740">
        <ele>739.654</ele>
        <time>2020-07-15T17:02:36Z</time>
      </trkpt>
      <trkpt lat="41.760230" lon="-8.321670">
        <ele>740.556</ele>
        <time>2020-07-15T17:02:56Z</time>
      </trkpt>
      <trkpt lat="41.760270" lon="-8.321660">
        <ele>741.011</ele>
        <time>2020-07-15T17:03:16Z</time>
      </trkpt>
      <trkpt lat="41.760410" lon="-8.321460">
        <ele>742.808</ele>
        <time>2020-07-15T17:03:36Z</time>
      </trkpt>
      <trkpt lat="41.760520" lon="-8.321280">
        <ele>744.850</ele>
        <time>2020-07-15T17:03:56Z</time>
      </trkpt>
      <trkpt lat="41.760780" lon="-8.320670">
        <ele>746.237</ele>
        <time>2020-07-15T17:04:16Z</time>
      </trkpt>
      <trkpt lat="41.760950" lon="-8.320110">
        <ele>747.472</ele>
        <time>2020-07-15T17:04:36Z</time>
      </trkpt>
      <trkpt lat="41.761090" lon="-8.319850">
        <ele>749.450</ele>
        <time>2020-07-15T17:04:56Z</time>
      </trkpt>
      <trkpt lat="41.761220" lon="-8.319700">
        <ele>751.917</ele>
        <time>2020-07-15T17:05:16Z</time>
      </trkpt>
      <trkpt lat="41.761390" lon="-8.319550">
        <ele>754.447</ele>
        <time>2020-07-15T17:05:36Z</time>
      </trkpt>
      <trkpt lat="41.761810" lon="-8.319360">
        <ele>755.737</ele>
        <time>2020-07-15T17:05:56Z</time>
      </trkpt>
      <trkpt lat="41.762000" lon="-8.319310">
        <ele>753.898</ele>
        <time>2020-07-15T17:06:16Z</time>
      </trkpt>
      <trkpt lat="41.762550" lon="-8.318980">
        <ele>747.364</ele>
        <time>2020-07-15T17:06:36Z</time>
      </trkpt>
      <trkpt lat="41.762680" lon="-8.318950">
        <ele>746.906</ele>
        <time>2020-07-15T17:06:56Z</time>
      </trkpt>
      <trkpt lat="41.762930" lon="-8.318960">
        <ele>747.216</ele>
        <time>2020-07-15T17:07:16Z</time>
      </trkpt>
      <trkpt lat="41.763030" lon="-8.318910">
        <ele>746.408</ele>
        <time>2020-07-15T17:07:36Z</time>
      </trkpt>
      <trkpt lat="41.763150" lon="-8.318760">
        <ele>745.161</ele>
        <time>2020-07-15T17:07:56Z</time>
      </trkpt>
      <trkpt lat="41.763460" lon="-8.318490">
        <ele>744.618</ele>
        <time>2020-07-15T17:08:16Z</time>
      </trkpt>
      <trkpt lat="41.763560" lon="-8.318350">
        <ele>743.683</ele>
        <time>2020-07-15T17:08:36Z</time>
      </trkpt>
      <trkpt lat="41.763720" lon="-8.318010">
        <ele>739.871</ele>
        <time>2020-07-15T17:08:56Z</time>
      </trkpt>
      <trkpt lat="41.763840" lon="-8.317820">
        <ele>738.298</ele>
        <time>2020-07-15T17:09:16Z</time>
      </trkpt>
      <trkpt lat="41.763960" lon="-8.317670">
        <ele>735.818</ele>
        <time>2020-07-15T17:09:36Z</time>
      </trkpt>
      <trkpt lat="41.764020" lon="-8.317630">
        <ele>735.038</ele>
        <time>2020-07-15T17:09:56Z</time>
      </trkpt>
      <trkpt lat="41.764300" lon="-8.317640">
        <ele>735.139</ele>
        <time>2020-07-15T17:10:16Z</time>
      </trkpt>
      <trkpt lat="41.764600" lon="-8.317610">
        <ele>733.996</ele>
        <time>2020-07-15T17:10:36Z</time>
      </trkpt>
      <trkpt lat="41.764800" lon="-8.317610">
        <ele>734.131</ele>
        <time>2020-07-15T17:10:56Z</time>
      </trkpt>
      <trkpt lat="41.764940" lon="-8.317590">
        <ele>733.324</ele>
        <time>2020-07-15T17:11:16Z</time>
      </trkpt>
      <trkpt lat="41.765000" lon="-8.317560">
        <ele>732.508</ele>
        <time>2020-07-15T17:11:36Z</time>
      </trkpt>
      <trkpt lat="41.765060" lon="-8.317500">
        <ele>731.644</ele>
        <time>2020-07-15T17:11:56Z</time>
      </trkpt>
      <trkpt lat="41.765100" lon="-8.317380">
        <ele>730.231</ele>
        <time>2020-07-15T17:12:16Z</time>
      </trkpt>
      <trkpt lat="41.765080" lon="-8.317150">
        <ele>726.736</ele>
        <time>2020-07-15T17:12:36Z</time>
      </trkpt>
      <trkpt lat="41.764930" lon="-8.316540">
        <ele>717.464</ele>
        <time>2020-07-15T17:12:56Z</time>
      </trkpt>
      <trkpt lat="41.764940" lon="-8.316380">
        <ele>715.821</ele>
        <time>2020-07-15T17:13:16Z</time>
      </trkpt>
      <trkpt lat="41.765010" lon="-8.316160">
        <ele>713.721</ele>
        <time>2020-07-15T17:13:36Z</time>
      </trkpt>
      <trkpt lat="41.765210" lon="-8.315740">
        <ele>707.211</ele>
        <time>2020-07-15T17:13:56Z</time>
      </trkpt>
      <trkpt lat="41.765440" lon="-8.315390">
        <ele>705.382</ele>
        <time>2020-07-15T17:14:16Z</time>
      </trkpt>
      <trkpt lat="41.765480" lon="-8.315280">
        <ele>704.913</ele>
        <time>2020-07-15T17:14:36Z</time>
      </trkpt>
      <trkpt lat="41.765500" lon="-8.314910">
        <ele>702.243</ele>
        <time>2020-07-15T17:14:56Z</time>
      </trkpt>
      <trkpt lat="41.765520" lon="-8.314830">
        <ele>701.707</ele>
        <time>2020-07-15T17:15:16Z</time>
      </trkpt>
      <trkpt lat="41.765640" lon="-8.314610">
        <ele>699.408</ele>
        <time>2020-07-15T17:15:36Z</time>
      </trkpt>
      <trkpt lat="41.765730" lon="-8.314550">
        <ele>698.926</ele>
        <time>2020-07-15T17:15:56Z</time>
      </trkpt>
      <trkpt lat="41.765980" lon="-8.314430">
        <ele>696.733</ele>
        <time>2020-07-15T17:16:16Z</time>
      </trkpt>
      <trkpt lat="41.766120" lon="-8.314320">
        <ele>694.218</ele>
        <time>2020-07-15T17:16:36Z</time>
      </trkpt>
      <trkpt lat="41.766440" lon="-8.313920">
        <ele>691.186</ele>
        <time>2020-07-15T17:16:56Z</time>
      </trkpt>
      <trkpt lat="41.766650" lon="-8.313800">
        <ele>691.683</ele>
        <time>2020-07-15T17:17:16Z</time>
      </trkpt>
      <trkpt lat="41.767080" lon="-8.313510">
        <ele>693.953</ele>
        <time>2020-07-15T17:17:36Z</time>
      </trkpt>
      <trkpt lat="41.767550" lon="-8.313290">
        <ele>697.013</ele>
        <time>2020-07-15T17:17:56Z</time>
      </trkpt>
      <trkpt lat="41.767760" lon="-8.313150">
        <ele>699.644</ele>
        <time>2020-07-15T17:18:16Z</time>
      </trkpt>
      <trkpt lat="41.767850" lon="-8.313050">
        <ele>700.545</ele>
        <time>2020-07-15T17:18:36Z</time>
      </trkpt>
      <trkpt lat="41.767960" lon="-8.312740">
        <ele>699.647</ele>
        <time>2020-07-15T17:18:56Z</time>
      </trkpt>
      <trkpt lat="41.768080" lon="-8.312530">
        <ele>697.911</ele>
        <time>2020-07-15T17:19:16Z</time>
      </trkpt>
      <trkpt lat="41.768150" lon="-8.312310">
        <ele>696.308</ele>
        <time>2020-07-15T17:19:36Z</time>
      </trkpt>
      <trkpt lat="41.768200" lon="-8.311940">
        <ele>693.579</ele>
        <time>2020-07-15T17:19:56Z</time>
      </trkpt>
      <trkpt lat="41.768310" lon="-8.311490">
        <ele>685.466</ele>
        <time>2020-07-15T17:20:16Z</time>
      </trkpt>
      <trkpt lat="41.768560" lon="-8.310730">
        <ele>674.681</ele>
        <time>2020-07-15T17:20:36Z</time>
      </trkpt>
      <trkpt lat="41.768700" lon="-8.310090">
        <ele>669.769</ele>
        <time>2020-07-15T17:20:56Z</time>
      </trkpt>
      <trkpt lat="41.768730" lon="-8.310030">
        <ele>669.676</ele>
        <time>2020-07-15T17:21:16Z</time>
      </trkpt>
      <trkpt lat="41.768930" lon="-8.309730">
        <ele>668.236</ele>
        <time>2020-07-15T17:21:36Z</time>
      </trkpt>
      <trkpt lat="41.769050" lon="-8.309510">
        <ele>666.786</ele>
        <time>2020-07-15T17:21:56Z</time>
      </trkpt>
      <trkpt lat="41.769090" lon="-8.309310">
        <ele>665.327</ele>
        <time>2020-07-15T17:22:16Z</time>
      </trkpt>
      <trkpt lat="41.769100" lon="-8.309040">
        <ele>663.798</ele>
        <time>2020-07-15T17:22:36Z</time>
      </trkpt>
      <trkpt lat="41.769070" lon="-8.308800">
        <ele>662.815</ele>
        <time>2020-07-15T17:22:56Z</time>
      </trkpt>
      <trkpt lat="41.768960" lon="-8.308550">
        <ele>661.326</ele>
        <time>2020-07-15T17:23:16Z</time>
      </trkpt>
      <trkpt lat="41.768900" lon="-8.308340">
        <ele>661.108</ele>
        <time>2020-07-15T17:23:36Z</time>
      </trkpt>
      <trkpt lat="41.768850" lon="-8.308120">
        <ele>658.644</ele>
        <time>2020-07-15T17:23:56Z</time>
      </trkpt>
      <trkpt lat="41.768860" lon="-8.307920">
        <ele>657.591</ele>
        <time>2020-07-15T17:24:16Z</time>
      </trkpt>
      <trkpt lat="41.768880" lon="-8.307790">
        <ele>656.956</ele>
        <time>2020-07-15T17:24:36Z</time>
      </trkpt>
      <trkpt lat="41.768980" lon="-8.307520">
        <ele>654.044</ele>
        <time>2020-07-15T17:24:56Z</time>
      </trkpt>
      <trkpt lat="41.769230" lon="-8.306930">
        <ele>646.021</ele>
        <time>2020-07-15T17:25:16Z</time>
      </trkpt>
      <trkpt lat="41.769330" lon="-8.306750">
        <ele>643.441</ele>
        <time>2020-07-15T17:25:36Z</time>
      </trkpt>
      <trkpt lat="41.769440" lon="-8.306640">
        <ele>641.621</ele>
        <time>2020-07-15T17:25:56Z</time>
      </trkpt>
      <trkpt lat="41.769540" lon="-8.306600">
        <ele>640.112</ele>
        <time>2020-07-15T17:26:16Z</time>
      </trkpt>
      <trkpt lat="41.769660" lon="-8.306630">
        <ele>639.255</ele>
        <time>2020-07-15T17:26:36Z</time>
      </trkpt>
      <trkpt lat="41.770010" lon="-8.306800">
        <ele>632.707</ele>
        <time>2020-07-15T17:26:56Z</time>
      </trkpt>
      <trkpt lat="41.770220" lon="-8.306950">
        <ele>630.417</ele>
        <time>2020-07-15T17:27:16Z</time>
      </trkpt>
      <trkpt lat="41.770300" lon="-8.306990">
        <ele>629.908</ele>
        <time>2020-07-15T17:27:36Z</time>
      </trkpt>
      <trkpt lat="41.770320" lon="-8.306970">
        <ele>629.130</ele>
        <time>2020-07-15T17:27:56Z</time>
      </trkpt>
      <trkpt lat="41.770330" lon="-8.306910">
        <ele>627.847</ele>
        <time>2020-07-15T17:28:16Z</time>
      </trkpt>
      <trkpt lat="41.770200" lon="-8.306630">
        <ele>625.492</ele>
        <time>2020-07-15T17:28:36Z</time>
      </trkpt>
      <trkpt lat="41.770140" lon="-8.306380">
        <ele>623.320</ele>
        <time>2020-07-15T17:28:56Z</time>
      </trkpt>
      <trkpt lat="41.770000" lon="-8.305960">
        <ele>616.677</ele>
        <time>2020-07-15T17:29:16Z</time>
      </trkpt>
      <trkpt lat="41.770000" lon="-8.305860">
        <ele>613.887</ele>
        <time>2020-07-15T17:29:36Z</time>
      </trkpt>
      <trkpt lat="41.770320" lon="-8.306040">
        <ele>610.337</ele>
        <time>2020-07-15T17:29:56Z</time>
      </trkpt>
      <trkpt lat="41.771540" lon="-8.306590">
        <ele>594.368</ele>
        <time>2020-07-15T17:30:16Z</time>
      </trkpt>
      <trkpt lat="41.771640" lon="-8.306720">
        <ele>592.597</ele>
        <time>2020-07-15T17:30:36Z</time>
      </trkpt>
      <trkpt lat="41.771920" lon="-8.307290">
        <ele>588.923</ele>
        <time>2020-07-15T17:30:56Z</time>
      </trkpt>
      <trkpt lat="41.772120" lon="-8.307750">
        <ele>584.925</ele>
        <time>2020-07-15T17:31:16Z</time>
      </trkpt>
      <trkpt lat="41.772200" lon="-8.307860">
        <ele>582.408</ele>
        <time>2020-07-15T17:31:36Z</time>
      </trkpt>
      <trkpt lat="41.772870" lon="-8.308420">
        <ele>571.974</ele>
        <time>2020-07-15T17:31:56Z</time>
      </trkpt>
      <trkpt lat="41.773050" lon="-8.308510">
        <ele>570.381</ele>
        <time>2020-07-15T17:32:16Z</time>
      </trkpt>
      <trkpt lat="41.773370" lon="-8.308560">
        <ele>563.646</ele>
        <time>2020-07-15T17:32:36Z</time>
      </trkpt>
      <trkpt lat="41.774290" lon="-8.308560">
        <ele>554.254</ele>
        <time>2020-07-15T17:32:56Z</time>
      </trkpt>
      <trkpt lat="41.774570" lon="-8.308580">
        <ele>551.331</ele>
        <time>2020-07-15T17:33:16Z</time>
      </trkpt>
      <trkpt lat="41.774760" lon="-8.308620">
        <ele>549.881</ele>
        <time>2020-07-15T17:33:36Z</time>
      </trkpt>
      <trkpt lat="41.775150" lon="-8.308760">
        <ele>547.521</ele>
        <time>2020-07-15T17:33:56Z</time>
      </trkpt>
      <trkpt lat="41.775710" lon="-8.309000">
        <ele>541.852</ele>
        <time>2020-07-15T17:34:16Z</time>
      </trkpt>
      <trkpt lat="41.776050" lon="-8.309090">
        <ele>536.172</ele>
        <time>2020-07-15T17:34:36Z</time>
      </trkpt>
      <trkpt lat="41.776270" lon="-8.309180">
        <ele>530.513</ele>
        <time>2020-07-15T17:34:56Z</time>
      </trkpt>
      <trkpt lat="41.776340" lon="-8.309240">
        <ele>528.914</ele>
        <time>2020-07-15T17:35:16Z</time>
      </trkpt>
      <trkpt lat="41.776550" lon="-8.309790">
        <ele>533.808</ele>
        <time>2020-07-15T17:35:36Z</time>
      </trkpt>
      <trkpt lat="41.776630" lon="-8.309870">
        <ele>534.432</ele>
        <time>2020-07-15T17:35:56Z</time>
      </trkpt>
      <trkpt lat="41.777190" lon="-8.310180">
        <ele>528.219</ele>
        <time>2020-07-15T17:36:16Z</time>
      </trkpt>
      <trkpt lat="41.777540" lon="-8.310330">
        <ele>526.744</ele>
        <time>2020-07-15T17:36:36Z</time>
      </trkpt>
      <trkpt lat="41.778020" lon="-8.310340">
        <ele>520.672</ele>
        <time>2020-07-15T17:36:56Z</time>
      </trkpt>
      <trkpt lat="41.778110" lon="-8.310360">
        <ele>518.849</ele>
        <time>2020-07-15T17:37:16Z</time>
      </trkpt>
      <trkpt lat="41.778250" lon="-8.310460">
        <ele>516.099</ele>
        <time>2020-07-15T17:37:36Z</time>
      </trkpt>
      <trkpt lat="41.778330" lon="-8.310550">
        <ele>514.139</ele>
        <time>2020-07-15T17:37:56Z</time>
      </trkpt>
      <trkpt lat="41.778380" lon="-8.310680">
        <ele>513.670</ele>
        <time>2020-07-15T17:38:16Z</time>
      </trkpt>
      <trkpt lat="41.778440" lon="-8.310930">
        <ele>514.385</ele>
        <time>2020-07-15T17:38:36Z</time>
      </trkpt>
      <trkpt lat="41.778520" lon="-8.311090">
        <ele>514.489</ele>
        <time>2020-07-15T17:38:56Z</time>
      </trkpt>
      <trkpt lat="41.778710" lon="-8.311380">
        <ele>514.817</ele>
        <time>2020-07-15T17:39:16Z</time>
      </trkpt>
      <trkpt lat="41.779010" lon="-8.311790">
        <ele>513.108</ele>
        <time>2020-07-15T17:39:36Z</time>
      </trkpt>
      <trkpt lat="41.779530" lon="-8.312390">
        <ele>510.963</ele>
        <time>2020-07-15T17:39:56Z</time>
      </trkpt>
      <trkpt lat="41.779660" lon="-8.312530">
        <ele>511.840</ele>
        <time>2020-07-15T17:40:16Z</time>
      </trkpt>
      <trkpt lat="41.779800" lon="-8.312630">
        <ele>511.715</ele>
        <time>2020-07-15T17:40:36Z</time>
      </trkpt>
      <trkpt lat="41.780230" lon="-8.312870">
        <ele>504.763</ele>
        <time>2020-07-15T17:40:56Z</time>
      </trkpt>
      <trkpt lat="41.780950" lon="-8.313230">
        <ele>488.180</ele>
        <time>2020-07-15T17:41:16Z</time>
      </trkpt>
      <trkpt lat="41.781170" lon="-8.313300">
        <ele>484.760</ele>
        <time>2020-07-15T17:41:36Z</time>
      </trkpt>
      <trkpt lat="41.782000" lon="-8.313420">
        <ele>470.650</ele>
        <time>2020-07-15T17:41:56Z</time>
      </trkpt>
      <trkpt lat="41.782430" lon="-8.313510">
        <ele>462.641</ele>
        <time>2020-07-15T17:42:16Z</time>
      </trkpt>
      <trkpt lat="41.782700" lon="-8.313630">
        <ele>458.432</ele>
        <time>2020-07-15T17:42:36Z</time>
      </trkpt>
      <trkpt lat="41.782810" lon="-8.313720">
        <ele>456.892</ele>
        <time>2020-07-15T17:42:56Z</time>
      </trkpt>
      <trkpt lat="41.782840" lon="-8.313800">
        <ele>456.011</ele>
        <time>2020-07-15T17:43:16Z</time>
      </trkpt>
      <trkpt lat="41.782850" lon="-8.314630">
        <ele>447.508</ele>
        <time>2020-07-15T17:43:36Z</time>
      </trkpt>
      <trkpt lat="41.782890" lon="-8.315620">
        <ele>433.968</ele>
        <time>2020-07-15T17:43:56Z</time>
      </trkpt>
      <trkpt lat="41.782930" lon="-8.315850">
        <ele>432.765</ele>
        <time>2020-07-15T17:44:16Z</time>
      </trkpt>
      <trkpt lat="41.783240" lon="-8.316770">
        <ele>426.070</ele>
        <time>2020-07-15T17:44:36Z</time>
      </trkpt>
      <trkpt lat="41.783260" lon="-8.316910">
        <ele>425.658</ele>
        <time>2020-07-15T17:44:56Z</time>
      </trkpt>
      <trkpt lat="41.783260" lon="-8.317690">
        <ele>416.085</ele>
        <time>2020-07-15T17:45:16Z</time>
      </trkpt>
      <trkpt lat="41.783350" lon="-8.320560">
        <ele>397.025</ele>
        <time>2020-07-15T17:45:36Z</time>
      </trkpt>
      <trkpt lat="41.783390" lon="-8.320940">
        <ele>394.595</ele>
        <time>2020-07-15T17:45:56Z</time>
      </trkpt>
      <trkpt lat="41.783430" lon="-8.321090">
        <ele>394.086</ele>
        <time>2020-07-15T17:46:16Z</time>
      </trkpt>
      <trkpt lat="41.783630" lon="-8.321440">
        <ele>390.642</ele>
        <time>2020-07-15T17:46:36Z</time>
      </trkpt>
      <trkpt lat="41.784190" lon="-8.322210">
        <ele>381.522</ele>
        <time>2020-07-15T17:46:56Z</time>
      </trkpt>
      <trkpt lat="41.784460" lon="-8.322420">
        <ele>376.914</ele>
        <time>2020-07-15T17:47:16Z</time>
      </trkpt>
      <trkpt lat="41.785080" lon="-8.322740">
        <ele>373.608</ele>
        <time>2020-07-15T17:47:36Z</time>
      </trkpt>
      <trkpt lat="41.785160" lon="-8.322810">
        <ele>372.849</ele>
        <time>2020-07-15T17:47:56Z</time>
      </trkpt>
      <trkpt lat="41.785830" lon="-8.323820">
        <ele>368.866</ele>
        <time>2020-07-15T17:48:16Z</time>
      </trkpt>
      <trkpt lat="41.786010" lon="-8.324050">
        <ele>369.271</ele>
        <time>2020-07-15T17:48:36Z</time>
      </trkpt>
      <trkpt lat="41.786160" lon="-8.324140">
        <ele>368.889</ele>
        <time>2020-07-15T17:48:56Z</time>
      </trkpt>
      <trkpt lat="41.786250" lon="-8.324150">
        <ele>368.586</ele>
        <time>2020-07-15T17:49:16Z</time>
      </trkpt>
      <trkpt lat="41.786330" lon="-8.324130">
        <ele>368.146</ele>
        <time>2020-07-15T17:49:36Z</time>
      </trkpt>
      <trkpt lat="41.786410" lon="-8.324090">
        <ele>367.546</ele>
        <time>2020-07-15T17:49:56Z</time>
      </trkpt>
      <trkpt lat="41.786760" lon="-8.323750">
        <ele>360.587</ele>
        <time>2020-07-15T17:50:16Z</time>
      </trkpt>
      <trkpt lat="41.786850" lon="-8.323700">
        <ele>358.368</ele>
        <time>2020-07-15T17:50:36Z</time>
      </trkpt>
      <trkpt lat="41.787030" lon="-8.323660">
        <ele>354.942</ele>
        <time>2020-07-15T17:50:56Z</time>
      </trkpt>
      <trkpt lat="41.787120" lon="-8.323680">
        <ele>354.226</ele>
        <time>2020-07-15T17:51:16Z</time>
      </trkpt>
      <trkpt lat="41.788190" lon="-8.324260">
        <ele>351.708</ele>
        <time>2020-07-15T17:51:36Z</time>
      </trkpt>
      <trkpt lat="41.788380" lon="-8.324340">
        <ele>350.261</ele>
        <time>2020-07-15T17:51:56Z</time>
      </trkpt>
      <trkpt lat="41.788690" lon="-8.324400">
        <ele>344.198</ele>
        <time>2020-07-15T17:52:16Z</time>
      </trkpt>
      <trkpt lat="41.788770" lon="-8.324440">
        <ele>342.663</ele>
        <time>2020-07-15T17:52:36Z</time>
      </trkpt>
      <trkpt lat="41.788830" lon="-8.324500">
        <ele>341.311</ele>
        <time>2020-07-15T17:52:56Z</time>
      </trkpt>
      <trkpt lat="41.788880" lon="-8.324590">
        <ele>339.888</ele>
        <time>2020-07-15T17:53:16Z</time>
      </trkpt>
      <trkpt lat="41.788990" lon="-8.324870">
        <ele>335.948</ele>
        <time>2020-07-15T17:53:36Z</time>
      </trkpt>
      <trkpt lat="41.789140" lon="-8.325380">
        <ele>330.518</ele>
        <time>2020-07-15T17:53:56Z</time>
      </trkpt>
      <trkpt lat="41.789170" lon="-8.326490">
        <ele>322.679</ele>
        <time>2020-07-15T17:54:16Z</time>
      </trkpt>
      <trkpt lat="41.789200" lon="-8.326820">
        <ele>321.299</ele>
        <time>2020-07-15T17:54:36Z</time>
      </trkpt>
      <trkpt lat="41.789270" lon="-8.327100">
        <ele>320.007</ele>
        <time>2020-07-15T17:54:56Z</time>
      </trkpt>
      <trkpt lat="41.789360" lon="-8.327230">
        <ele>318.527</ele>
        <time>2020-07-15T17:55:16Z</time>
      </trkpt>
      <trkpt lat="41.789660" lon="-8.327460">
        <ele>312.208</ele>
        <time>2020-07-15T17:55:36Z</time>
      </trkpt>
      <trkpt lat="41.789880" lon="-8.327550">
        <ele>308.824</ele>
        <time>2020-07-15T17:55:56Z</time>
      </trkpt>
      <trkpt lat="41.790220" lon="-8.327650">
        <ele>303.881</ele>
        <time>2020-07-15T17:56:16Z</time>
      </trkpt>
      <trkpt lat="41.790520" lon="-8.327770">
        <ele>297.866</ele>
        <time>2020-07-15T17:56:36Z</time>
      </trkpt>
      <trkpt lat="41.790700" lon="-8.327890">
        <ele>292.574</ele>
        <time>2020-07-15T17:56:56Z</time>
      </trkpt>
      <trkpt lat="41.790810" lon="-8.328040">
        <ele>287.991</ele>
        <time>2020-07-15T17:57:16Z</time>
      </trkpt>
      <trkpt lat="41.790800" lon="-8.328190">
        <ele>286.751</ele>
        <time>2020-07-15T17:57:36Z</time>
      </trkpt>
      <trkpt lat="41.790440" lon="-8.329220">
        <ele>281.441</ele>
        <time>2020-07-15T17:57:56Z</time>
      </trkpt>
      <trkpt lat="41.790310" lon="-8.329530">
        <ele>281.622</ele>
        <time>2020-07-15T17:58:16Z</time>
      </trkpt>
      <trkpt lat="41.790220" lon="-8.329690">
        <ele>280.024</ele>
        <time>2020-07-15T17:58:36Z</time>
      </trkpt>
      <trkpt lat="41.789870" lon="-8.330020">
        <ele>279.404</ele>
        <time>2020-07-15T17:58:56Z</time>
      </trkpt>
      <trkpt lat="41.789800" lon="-8.330150">
        <ele>277.614</ele>
        <time>2020-07-15T17:59:16Z</time>
      </trkpt>
      <trkpt lat="41.789800" lon="-8.330280">
        <ele>274.808</ele>
        <time>2020-07-15T17:59:36Z</time>
      </trkpt>
      <trkpt lat="41.789830" lon="-8.330350">
        <ele>272.797</ele>
        <time>2020-07-15T17:59:56Z</time>
      </trkpt>
      <trkpt lat="41.789790" lon="-8.331230">
        <ele>262.464</ele>
        <time>2020-07-15T18:00:16Z</time>
      </trkpt>
      <trkpt lat="41.789900" lon="-8.331710">
        <ele>258.579</ele>
        <time>2020-07-15T18:00:36Z</time>
      </trkpt>
      <trkpt lat="41.790070" lon="-8.332220">
        <ele>253.827</ele>
        <time>2020-07-15T18:00:56Z</time>
      </trkpt>
      <trkpt lat="41.790110" lon="-8.332270">
        <ele>254.794</ele>
        <time>2020-07-15T18:01:16Z</time>
      </trkpt>
      <trkpt lat="41.790160" lon="-8.332280">
        <ele>255.474</ele>
        <time>2020-07-15T18:01:36Z</time>
      </trkpt>
      <trkpt lat="41.790220" lon="-8.332280">
        <ele>256.194</ele>
        <time>2020-07-15T18:01:56Z</time>
      </trkpt>
      <trkpt lat="41.790300" lon="-8.332250">
        <ele>256.955</ele>
        <time>2020-07-15T18:02:16Z</time>
      </trkpt>
      <trkpt lat="41.790510" lon="-8.332020">
        <ele>260.627</ele>
        <time>2020-07-15T18:02:36Z</time>
      </trkpt>
      <trkpt lat="41.790570" lon="-8.331900">
        <ele>261.268</ele>
        <time>2020-07-15T18:02:56Z</time>
      </trkpt>
      <trkpt lat="41.790700" lon="-8.331710">
        <ele>262.914</ele>
        <time>2020-07-15T18:03:16Z</time>
      </trkpt>
      <trkpt lat="41.790910" lon="-8.331590">
        <ele>265.608</ele>
        <time>2020-07-15T18:03:36Z</time>
      </trkpt>
      <trkpt lat="41.791220" lon="-8.331210">
        <ele>267.067</ele>
        <time>2020-07-15T18:03:56Z</time>
      </trkpt>
      <trkpt lat="41.791320" lon="-8.331120">
        <ele>268.234</ele>
        <time>2020-07-15T18:04:16Z</time>
      </trkpt>
      <trkpt lat="41.791700" lon="-8.330860">
        <ele>269.129</ele>
        <time>2020-07-15T18:04:36Z</time>
      </trkpt>
      <trkpt lat="41.792030" lon="-8.330570">
        <ele>272.457</ele>
        <time>2020-07-15T18:04:56Z</time>
      </trkpt>
      <trkpt lat="41.792270" lon="-8.330470">
        <ele>273.344</ele>
        <time>2020-07-15T18:05:16Z</time>
      </trkpt>
      <trkpt lat="41.792920" lon="-8.330240">
        <ele>266.934</ele>
        <time>2020-07-15T18:05:36Z</time>
      </trkpt>
      <trkpt lat="41.793080" lon="-8.330220">
        <ele>266.014</ele>
        <time>2020-07-15T18:05:56Z</time>
      </trkpt>
      <trkpt lat="41.793180" lon="-8.330260">
        <ele>265.085</ele>
        <time>2020-07-15T18:06:16Z</time>
      </trkpt>
      <trkpt lat="41.793240" lon="-8.330350">
        <ele>264.486</ele>
        <time>2020-07-15T18:06:36Z</time>
      </trkpt>
      <trkpt lat="41.793280" lon="-8.330470">
        <ele>263.960</ele>
        <time>2020-07-15T18:06:56Z</time>
      </trkpt>
      <trkpt lat="41.793330" lon="-8.330740">
        <ele>263.126</ele>
        <time>2020-07-15T18:07:16Z</time>
      </trkpt>
      <trkpt lat="41.793410" lon="-8.331000">
        <ele>262.208</ele>
        <time>2020-07-15T18:07:36Z</time>
      </trkpt>
      <trkpt lat="41.793610" lon="-8.331330">
        <ele>260.023</ele>
        <time>2020-07-15T18:07:56Z</time>
      </trkpt>
      <trkpt lat="41.793640" lon="-8.331410">
        <ele>259.620</ele>
        <time>2020-07-15T18:08:16Z</time>
      </trkpt>
      <trkpt lat="41.793660" lon="-8.331600">
        <ele>258.185</ele>
        <time>2020-07-15T18:08:36Z</time>
      </trkpt>
      <trkpt lat="41.793610" lon="-8.331790">
        <ele>257.143</ele>
        <time>2020-07-15T18:08:56Z</time>
      </trkpt>
      <trkpt lat="41.793580" lon="-8.332030">
        <ele>255.650</ele>
        <time>2020-07-15T18:09:16Z</time>
      </trkpt>
      <trkpt lat="41.793610" lon="-8.332740">
        <ele>253.950</ele>
        <time>2020-07-15T18:09:36Z</time>
      </trkpt>
      <trkpt lat="41.793690" lon="-8.333790">
        <ele>256.340</ele>
        <time>2020-07-15T18:09:56Z</time>
      </trkpt>
      <trkpt lat="41.793730" lon="-8.334070">
        <ele>255.851</ele>
        <time>2020-07-15T18:10:16Z</time>
      </trkpt>
      <trkpt lat="41.793760" lon="-8.334170">
        <ele>255.511</ele>
        <time>2020-07-15T18:10:36Z</time>
      </trkpt>
      <trkpt lat="41.794240" lon="-8.334950">
        <ele>253.921</ele>
        <time>2020-07-15T18:10:56Z</time>
      </trkpt>
      <trkpt lat="41.794300" lon="-8.335110">
        <ele>253.103</ele>
        <time>2020-07-15T18:11:16Z</time>
      </trkpt>
      <trkpt lat="41.794320" lon="-8.335310">
        <ele>252.408</ele>
        <time>2020-07-15T18:11:36Z</time>
      </trkpt>
      <trkpt lat="41.794330" lon="-8.336170">
        <ele>250.246</ele>
        <time>2020-07-15T18:11:56Z</time>
      </trkpt>
      <trkpt lat="41.794310" lon="-8.336590">
        <ele>250.533</ele>
        <time>2020-07-15T18:12:16Z</time>
      </trkpt>
      <trkpt lat="41.794210" lon="-8.337030">
        <ele>249.998</ele>
        <time>2020-07-15T18:12:36Z</time>
      </trkpt>
      <trkpt lat="41.793950" lon="-8.337940">
        <ele>242.116</ele>
        <time>2020-07-15T18:12:56Z</time>
      </trkpt>
      <trkpt lat="41.793730" lon="-8.338790">
        <ele>241.683</ele>
        <time>2020-07-15T18:13:16Z</time>
      </trkpt>
      <trkpt lat="41.793720" lon="-8.338930">
        <ele>241.263</ele>
        <time>2020-07-15T18:13:36Z</time>
      </trkpt>
      <trkpt lat="41.793740" lon="-8.339070">
        <ele>240.143</ele>
        <time>2020-07-15T18:13:56Z</time>
      </trkpt>
      <trkpt lat="41.793820" lon="-8.339220">
        <ele>238.924</ele>
        <time>2020-07-15T18:14:16Z</time>
      </trkpt>
      <trkpt lat="41.793920" lon="-8.339300">
        <ele>238.373</ele>
        <time>2020-07-15T18:14:36Z</time>
      </trkpt>
      <trkpt lat="41.794050" lon="-8.339330">
        <ele>237.985</ele>
        <time>2020-07-15T18:14:56Z</time>
      </trkpt>
      <trkpt lat="41.794400" lon="-8.339330">
        <ele>235.713</ele>
        <time>2020-07-15T18:15:16Z</time>
      </trkpt>
      <trkpt lat="41.794630" lon="-8.339440">
        <ele>232.908</ele>
        <time>2020-07-15T18:15:36Z</time>
      </trkpt>
      <trkpt lat="41.795040" lon="-8.339710">
        <ele>228.442</ele>
        <time>2020-07-15T18:15:56Z</time>
      </trkpt>
      <trkpt lat="41.795420" lon="-8.339910">
        <ele>225.889</ele>
        <time>2020-07-15T18:16:16Z</time>
      </trkpt>
      <trkpt lat="41.795990" lon="-8.340440">
        <ele>226.664</ele>
        <time>2020-07-15T18:16:36Z</time>
      </trkpt>
      <trkpt lat="41.796080" lon="-8.340490">
        <ele>227.342</ele>
        <time>2020-07-15T18:16:56Z</time>
      </trkpt>
      <trkpt lat="41.796280" lon="-8.340540">
        <ele>229.089</ele>
        <time>2020-07-15T18:17:16Z</time>
      </trkpt>
      <trkpt lat="41.796930" lon="-8.340570">
        <ele>233.189</ele>
        <time>2020-07-15T18:17:36Z</time>
      </trkpt>
      <trkpt lat="41.797420" lon="-8.340450">
        <ele>234.099</ele>
        <time>2020-07-15T18:17:56Z</time>
      </trkpt>
      <trkpt lat="41.797650" lon="-8.340330">
        <ele>233.840</ele>
        <time>2020-07-15T18:18:16Z</time>
      </trkpt>
      <trkpt lat="41.797770" lon="-8.340320">
        <ele>234.637</ele>
        <time>2020-07-15T18:18:36Z</time>
      </trkpt>
      <trkpt lat="41.797850" lon="-8.340360">
        <ele>234.849</ele>
        <time>2020-07-15T18:18:56Z</time>
      </trkpt>
      <trkpt lat="41.798570" lon="-8.340980">
        <ele>226.013</ele>
        <time>2020-07-15T18:19:16Z</time>
      </trkpt>
      <trkpt lat="41.799430" lon="-8.341750">
        <ele>230.308</ele>
        <time>2020-07-15T18:19:36Z</time>
      </trkpt>
      <trkpt lat="41.799500" lon="-8.341790">
        <ele>230.698</ele>
        <time>2020-07-15T18:19:56Z</time>
      </trkpt>
      <trkpt lat="41.799890" lon="-8.341700">
        <ele>231.075</ele>
        <time>2020-07-15T18:20:16Z</time>
      </trkpt>
      <trkpt lat="41.800030" lon="-8.341690">
        <ele>231.240</ele>
        <time>2020-07-15T18:20:36Z</time>
      </trkpt>
      <trkpt lat="41.800210" lon="-8.341740">
        <ele>232.148</ele>
        <time>2020-07-15T18:20:56Z</time>
      </trkpt>
      <trkpt lat="41.800610" lon="-8.341900">
        <ele>232.465</ele>
        <time>2020-07-15T18:21:16Z</time>
      </trkpt>
      <trkpt lat="41.800810" lon="-8.341960">
        <ele>232.975</ele>
        <time>2020-07-15T18:21:36Z</time>
      </trkpt>
      <trkpt lat="41.801170" lon="-8.341990">
        <ele>234.975</ele>
        <time>2020-07-15T18:21:56Z</time>
      </trkpt>
      <trkpt lat="41.801390" lon="-8.341900">
        <ele>234.516</ele>
        <time>2020-07-15T18:22:16Z</time>
      </trkpt>
      <trkpt lat="41.801480" lon="-8.341910">
        <ele>233.751</ele>
        <time>2020-07-15T18:22:36Z</time>
      </trkpt>
      <trkpt lat="41.801540" lon="-8.341940">
        <ele>233.301</ele>
        <time>2020-07-15T18:22:56Z</time>
      </trkpt>
      <trkpt lat="41.801880" lon="-8.342330">
        <ele>231.411</ele>
        <time>2020-07-15T18:23:16Z</time>
      </trkpt>
      <trkpt lat="41.802020" lon="-8.342440">
        <ele>229.908</ele>
        <time>2020-07-15T18:23:36Z</time>
      </trkpt>
      <trkpt lat="41.802330" lon="-8.342540">
        <ele>228.620</ele>
        <time>2020-07-15T18:23:56Z</time>
      </trkpt>
      <trkpt lat="41.802650" lon="-8.342600">
        <ele>228.077</ele>
        <time>2020-07-15T18:24:16Z</time>
      </trkpt>
      <trkpt lat="41.803020" lon="-8.342640">
        <ele>228.092</ele>
        <time>2020-07-15T18:24:36Z</time>
      </trkpt>
      <trkpt lat="41.803290" lon="-8.342640">
        <ele>226.330</ele>
        <time>2020-07-15T18:24:56Z</time>
      </trkpt>
      <trkpt lat="41.803410" lon="-8.342670">
        <ele>225.317</ele>
        <time>2020-07-15T18:25:16Z</time>
      </trkpt>
      <trkpt lat="41.803500" lon="-8.342720">
        <ele>224.367</ele>
        <time>2020-07-15T18:25:36Z</time>
      </trkpt>
      <trkpt lat="41.803650" lon="-8.342910">
        <ele>222.067</ele>
        <time>2020-07-15T18:25:56Z</time>
      </trkpt>
      <trkpt lat="41.803770" lon="-8.343220">
        <ele>221.058</ele>
        <time>2020-07-15T18:26:16Z</time>
      </trkpt>
      <trkpt lat="41.803800" lon="-8.343490">
        <ele>220.391</ele>
        <time>2020-07-15T18:26:36Z</time>
      </trkpt>
      <trkpt lat="41.803770" lon="-8.344440">
        <ele>211.981</ele>
        <time>2020-07-15T18:26:56Z</time>
      </trkpt>
      <trkpt lat="41.803790" lon="-8.344650">
        <ele>209.019</ele>
        <time>2020-07-15T18:27:16Z</time>
      </trkpt>
      <trkpt lat="41.803870" lon="-8.344770">
        <ele>206.708</ele>
        <time>2020-07-15T18:27:36Z</time>
      </trkpt>
      <trkpt lat="41.803930" lon="-8.344810">
        <ele>205.654</ele>
        <time>2020-07-15T18:27:56Z</time>
      </trkpt>
      <trkpt lat="41.803990" lon="-8.344810">
        <ele>205.091</ele>
        <time>2020-07-15T18:28:16Z</time>
      </trkpt>
      <trkpt lat="41.805860" lon="-8.343900">
        <ele>176.826</ele>
        <time>2020-07-15T18:28:36Z</time>
      </trkpt>
      <trkpt lat="41.806000" lon="-8.343900">
        <ele>174.744</ele>
        <time>2020-07-15T18:28:56Z</time>
      </trkpt>
      <trkpt lat="41.806180" lon="-8.343990">
        <ele>172.781</ele>
        <time>2020-07-15T18:29:16Z</time>
      </trkpt>
      <trkpt lat="41.806460" lon="-8.344230">
        <ele>170.431</ele>
        <time>2020-07-15T18:29:36Z</time>
      </trkpt>
      <trkpt lat="41.806950" lon="-8.344740">
        <ele>163.071</ele>
        <time>2020-07-15T18:29:56Z</time>
      </trkpt>
      <trkpt lat="41.807090" lon="-8.344930">
        <ele>161.732</ele>
        <time>2020-07-15T18:30:16Z</time>
      </trkpt>
      <trkpt lat="41.807180" lon="-8.345150">
        <ele>160.484</ele>
        <time>2020-07-15T18:30:36Z</time>
      </trkpt>
      <trkpt lat="41.807370" lon="-8.346470">
        <ele>147.107</ele>
        <time>2020-07-15T18:30:56Z</time>
      </trkpt>
      <trkpt lat="41.807440" lon="-8.346770">
        <ele>142.717</ele>
        <time>2020-07-15T18:31:16Z</time>
      </trkpt>
      <trkpt lat="41.807700" lon="-8.347190">
        <ele>134.508</ele>
        <time>2020-07-15T18:31:36Z</time>
      </trkpt>
      <trkpt lat="41.807870" lon="-8.347670">
        <ele>129.863</ele>
        <time>2020-07-15T18:31:56Z</time>
      </trkpt>
      <trkpt lat="41.808020" lon="-8.348240">
        <ele>125.160</ele>
        <time>2020-07-15T18:32:16Z</time>
      </trkpt>
      <trkpt lat="41.808030" lon="-8.348480">
        <ele>123.095</ele>
        <time>2020-07-15T18:32:36Z</time>
      </trkpt>
      <trkpt lat="41.807910" lon="-8.349080">
        <ele>119.043</ele>
        <time>2020-07-15T18:32:56Z</time>
      </trkpt>
      <trkpt lat="41.807890" lon="-8.349250">
        <ele>118.160</ele>
        <time>2020-07-15T18:33:16Z</time>
      </trkpt>
      <trkpt lat="41.807910" lon="-8.349680">
        <ele>116.790</ele>
        <time>2020-07-15T18:33:36Z</time>
      </trkpt>
      <trkpt lat="41.808030" lon="-8.350570">
        <ele>111.160</ele>
        <time>2020-07-15T18:33:56Z</time>
      </trkpt>
      <trkpt lat="41.808130" lon="-8.351160">
        <ele>104.581</ele>
        <time>2020-07-15T18:34:16Z</time>
      </trkpt>
      <trkpt lat="41.808270" lon="-8.351710">
        <ele>101.026</ele>
        <time>2020-07-15T18:34:36Z</time>
      </trkpt>
      <trkpt lat="41.808360" lon="-8.352000">
        <ele>99.247</ele>
        <time>2020-07-15T18:34:56Z</time>
      </trkpt>
      <trkpt lat="41.808470" lon="-8.352260">
        <ele>100.511</ele>
        <time>2020-07-15T18:35:16Z</time>
      </trkpt>
      <trkpt lat="41.808540" lon="-8.352330">
        <ele>100.108</ele>
        <time>2020-07-15T18:35:36Z</time>
      </trkpt>
      <trkpt lat="41.808680" lon="-8.352430">
        <ele>99.697</ele>
        <time>2020-07-15T18:35:56Z</time>
      </trkpt>
      <trkpt lat="41.808730" lon="-8.352100">
        <ele>99.794</ele>
        <time>2020-07-15T18:36:16Z</time>
      </trkpt>
      <trkpt lat="41.808790" lon="-8.351940">
        <ele>98.979</ele>
        <time>2020-07-15T18:36:36Z</time>
      </trkpt>
      <trkpt lat="41.808970" lon="-8.351610">
        <ele>97.827</ele>
        <time>2020-07-15T18:36:56Z</time>
      </trkpt>
      <trkpt lat="41.809070" lon="-8.351500">
        <ele>97.144</ele>
        <time>2020-07-15T18:37:16Z</time>
      </trkpt>
      <trkpt lat="41.809220" lon="-8.351370">
        <ele>95.864</ele>
        <time>2020-07-15T18:37:36Z</time>
      </trkpt>
      <trkpt lat="41.809810" lon="-8.350930">
        <ele>87.054</ele>
        <time>2020-07-15T18:37:56Z</time>
      </trkpt>
      <trkpt lat="41.810040" lon="-8.350730">
        <ele>83.165</ele>
        <time>2020-07-15T18:38:16Z</time>
      </trkpt>
      <trkpt lat="41.810150" lon="-8.350590">
        <ele>81.768</ele>
        <time>2020-07-15T18:38:36Z</time>
      </trkpt>
      <trkpt lat="41.810250" lon="-8.350410">
        <ele>79.542</ele>
        <time>2020-07-15T18:38:56Z</time>
      </trkpt>
      <trkpt lat="41.810600" lon="-8.349630">
        <ele>73.326</ele>
        <time>2020-07-15T18:39:16Z</time>
      </trkpt>
      <trkpt lat="41.811470" lon="-8.347530">
        <ele>62.708</ele>
        <time>2020-07-15T18:39:36Z</time>
      </trkpt>
      <trkpt lat="41.811540" lon="-8.347270">
        <ele>61.611</ele>
        <time>2020-07-15T18:39:56Z</time>
      </trkpt>
      <trkpt lat="41.811550" lon="-8.346940">
        <ele>61.888</ele>
        <time>2020-07-15T18:40:16Z</time>
      </trkpt>
      <trkpt lat="41.811520" lon="-8.346750">
        <ele>63.043</ele>
        <time>2020-07-15T18:40:36Z</time>
      </trkpt>
      <trkpt lat="41.811480" lon="-8.346610">
        <ele>64.771</ele>
        <time>2020-07-15T18:40:56Z</time>
      </trkpt>
      <trkpt lat="41.810820" lon="-8.345350">
        <ele>68.598</ele>
        <time>2020-07-15T18:41:16Z</time>
      </trkpt>
      <trkpt lat="41.810060" lon="-8.344340">
        <ele>78.478</ele>
        <time>2020-07-15T18:41:36Z</time>
      </trkpt>
      <trkpt lat="41.809820" lon="-8.343970">
        <ele>79.438</ele>
        <time>2020-07-15T18:41:56Z</time>
      </trkpt>
      <trkpt lat="41.809680" lon="-8.343640">
        <ele>81.089</ele>
        <time>2020-07-15T18:42:16Z</time>
      </trkpt>
      <trkpt lat="41.809630" lon="-8.343450">
        <ele>83.094</ele>
        <time>2020-07-15T18:42:36Z</time>
      </trkpt>
      <trkpt lat="41.809620" lon="-8.343280">
        <ele>83.057</ele>
        <time>2020-07-15T18:42:56Z</time>
      </trkpt>
      <trkpt lat="41.809640" lon="-8.343050">
        <ele>81.922</ele>
        <time>2020-07-15T18:43:16Z</time>
      </trkpt>
      <trkpt lat="41.809720" lon="-8.342790">
        <ele>82.008</ele>
        <time>2020-07-15T18:43:36Z</time>
      </trkpt>
      <trkpt lat="41.809820" lon="-8.342580">
        <ele>82.554</ele>
        <time>2020-07-15T18:43:56Z</time>
      </trkpt>
      <trkpt lat="41.809930" lon="-8.342430">
        <ele>82.641</ele>
        <time>2020-07-15T18:44:16Z</time>
      </trkpt>
      <trkpt lat="41.810760" lon="-8.341510">
        <ele>85.916</ele>
        <time>2020-07-15T18:44:36Z</time>
      </trkpt>
      <trkpt lat="41.810970" lon="-8.341320">
        <ele>85.344</ele>
        <time>2020-07-15T18:44:56Z</time>
      </trkpt>
      <trkpt lat="41.811810" lon="-8.340800">
        <ele>80.661</ele>
        <time>2020-07-15T18:45:16Z</time>
      </trkpt>
      <trkpt lat="41.812580" lon="-8.340350">
        <ele>76.991</ele>
        <time>2020-07-15T18:45:36Z</time>
      </trkpt>
      <trkpt lat="41.812810" lon="-8.340130">
        <ele>76.941</ele>
        <time>2020-07-15T18:45:56Z</time>
      </trkpt>
      <trkpt lat="41.812940" lon="-8.339930">
        <ele>76.082</ele>
        <time>2020-07-15T18:46:16Z</time>
      </trkpt>
      <trkpt lat="41.813010" lon="-8.339730">
        <ele>75.383</ele>
        <time>2020-07-15T18:46:36Z</time>
      </trkpt>
      <trkpt lat="41.813060" lon="-8.339420">
        <ele>71.825</ele>
        <time>2020-07-15T18:46:56Z</time>
      </trkpt>
      <trkpt lat="41.812960" lon="-8.337640">
        <ele>74.017</ele>
        <time>2020-07-15T18:47:16Z</time>
      </trkpt>
      <trkpt lat="41.812980" lon="-8.337360">
        <ele>73.708</ele>
        <time>2020-07-15T18:47:36Z</time>
      </trkpt>
      <trkpt lat="41.813290" lon="-8.335970">
        <ele>72.523</ele>
        <time>2020-07-15T18:47:56Z</time>
      </trkpt>
      <trkpt lat="41.813330" lon="-8.335690">
        <ele>70.260</ele>
        <time>2020-07-15T18:48:16Z</time>
      </trkpt>
      <trkpt lat="41.813400" lon="-8.334460">
        <ele>68.425</ele>
        <time>2020-07-15T18:48:36Z</time>
      </trkpt>
      <trkpt lat="41.813350" lon="-8.334130">
        <ele>68.683</ele>
        <time>2020-07-15T18:48:56Z</time>
      </trkpt>
      <trkpt lat="41.813250" lon="-8.333870">
        <ele>71.390</ele>
        <time>2020-07-15T18:49:16Z</time>
      </trkpt>
      <trkpt lat="41.813010" lon="-8.333450">
        <ele>71.440</ele>
        <time>2020-07-15T18:49:36Z</time>
      </trkpt>
      <trkpt lat="41.812870" lon="-8.333140">
        <ele>72.680</ele>
        <time>2020-07-15T18:49:56Z</time>
      </trkpt>
      <trkpt lat="41.812810" lon="-8.332910">
        <ele>72.711</ele>
        <time>2020-07-15T18:50:16Z</time>
      </trkpt>
      <trkpt lat="41.812790" lon="-8.332560">
        <ele>71.059</ele>
        <time>2020-07-15T18:50:36Z</time>
      </trkpt>
      <trkpt lat="41.812800" lon="-8.332400">
        <ele>70.603</ele>
        <time>2020-07-15T18:50:56Z</time>
      </trkpt>
      <trkpt lat="41.812870" lon="-8.332200">
        <ele>69.023</ele>
        <time>2020-07-15T18:51:16Z</time>
      </trkpt>
      <trkpt lat="41.812960" lon="-8.332030">
        <ele>66.808</ele>
        <time>2020-07-15T18:51:36Z</time>
      </trkpt>
      <trkpt lat="41.813040" lon="-8.331920">
        <ele>65.490</ele>
        <time>2020-07-15T18:51:56Z</time>
      </trkpt>
      <trkpt lat="41.813220" lon="-8.331740">
        <ele>66.897</ele>
        <time>2020-07-15T18:52:16Z</time>
      </trkpt>
      <trkpt lat="41.813820" lon="-8.331250">
        <ele>74.642</ele>
        <time>2020-07-15T18:52:36Z</time>
      </trkpt>
      <trkpt lat="41.814020" lon="-8.330980">
        <ele>74.150</ele>
        <time>2020-07-15T18:52:56Z</time>
      </trkpt>
      <trkpt lat="41.814140" lon="-8.330690">
        <ele>73.587</ele>
        <time>2020-07-15T18:53:16Z</time>
      </trkpt>
      <trkpt lat="41.814800" lon="-8.328690">
        <ele>78.867</ele>
        <time>2020-07-15T18:53:36Z</time>
      </trkpt>
      <trkpt lat="41.814950" lon="-8.328390">
        <ele>81.097</ele>
        <time>2020-07-15T18:53:56Z</time>
      </trkpt>
      <trkpt lat="41.815130" lon="-8.328190">
        <ele>80.768</ele>
        <time>2020-07-15T18:54:16Z</time>
      </trkpt>
      <trkpt lat="41.815260" lon="-8.328110">
        <ele>79.724</ele>
        <time>2020-07-15T18:54:36Z</time>
      </trkpt>
      <trkpt lat="41.815370" lon="-8.328070">
        <ele>79.204</ele>
        <time>2020-07-15T18:54:56Z</time>
      </trkpt>
      <trkpt lat="41.815580" lon="-8.328060">
        <ele>78.214</ele>
        <time>2020-07-15T18:55:16Z</time>
      </trkpt>
      <trkpt lat="41.815760" lon="-8.328120">
        <ele>79.308</ele>
        <time>2020-07-15T18:55:36Z</time>
      </trkpt>
      <trkpt lat="41.815950" lon="-8.328240">
        <ele>79.677</ele>
        <time>2020-07-15T18:55:56Z</time>
      </trkpt>
      <trkpt lat="41.816430" lon="-8.328700">
        <ele>82.654</ele>
        <time>2020-07-15T18:56:16Z</time>
      </trkpt>
      <trkpt lat="41.816790" lon="-8.328990">
        <ele>82.739</ele>
        <time>2020-07-15T18:56:36Z</time>
      </trkpt>
      <trkpt lat="41.816960" lon="-8.329070">
        <ele>84.117</ele>
        <time>2020-07-15T18:56:56Z</time>
      </trkpt>
      <trkpt lat="41.817180" lon="-8.329110">
        <ele>84.864</ele>
        <time>2020-07-15T18:57:16Z</time>
      </trkpt>
      <trkpt lat="41.817330" lon="-8.329090">
        <ele>85.634</ele>
        <time>2020-07-15T18:57:36Z</time>
      </trkpt>
      <trkpt lat="41.817430" lon="-8.329050">
        <ele>86.284</ele>
        <time>2020-07-15T18:57:56Z</time>
      </trkpt>
      <trkpt lat="41.817580" lon="-8.328960">
        <ele>87.035</ele>
        <time>2020-07-15T18:58:16Z</time>
      </trkpt>
      <trkpt lat="41.817730" lon="-8.328820">
        <ele>88.012</ele>
        <time>2020-07-15T18:58:36Z</time>
      </trkpt>
      <trkpt lat="41.819030" lon="-8.327420">
        <ele>100.632</ele>
        <time>2020-07-15T18:58:56Z</time>
      </trkpt>
      <trkpt lat="41.819280" lon="-8.327110">
        <ele>103.905</ele>
        <time>2020-07-15T18:59:16Z</time>
      </trkpt>
      <trkpt lat="41.819430" lon="-8.326860">
        <ele>105.308</ele>
        <time>2020-07-15T18:59:36Z</time>
      </trkpt>
      <trkpt lat="41.819640" lon="-8.326440">
        <ele>104.026</ele>
        <time>2020-07-15T18:59:56Z</time>
      </trkpt>
      <trkpt lat="41.820260" lon="-8.325080">
        <ele>91.883</ele>
        <time>2020-07-15T19:00:16Z</time>
      </trkpt>
      <trkpt lat="41.820570" lon="-8.324320">
        <ele>89.978</ele>
        <time>2020-07-15T19:00:36Z</time>
      </trkpt>
      <trkpt lat="41.821630" lon="-8.321190">
        <ele>65.456</ele>
        <time>2020-07-15T19:00:56Z</time>
      </trkpt>
      <trkpt lat="41.821730" lon="-8.320800">
        <ele>59.243</ele>
        <time>2020-07-15T19:01:16Z</time>
      </trkpt>
      <trkpt lat="41.821800" lon="-8.320400">
        <ele>58.723</ele>
        <time>2020-07-15T19:01:36Z</time>
      </trkpt>
      <trkpt lat="41.821820" lon="-8.320050">
        <ele>57.233</ele>
        <time>2020-07-15T19:01:56Z</time>
      </trkpt>
      <trkpt lat="41.821810" lon="-8.319440">
        <ele>53.094</ele>
        <time>2020-07-15T19:02:16Z</time>
      </trkpt>
      <trkpt lat="41.821660" lon="-8.316630">
        <ele>62.257</ele>
        <time>2020-07-15T19:02:36Z</time>
      </trkpt>
      <trkpt lat="41.821640" lon="-8.315170">
        <ele>60.900</ele>
        <time>2020-07-15T19:02:56Z</time>
      </trkpt>
      <trkpt lat="41.821660" lon="-8.314590">
        <ele>53.120</ele>
        <time>2020-07-15T19:03:16Z</time>
      </trkpt>
      <trkpt lat="41.821720" lon="-8.314210">
        <ele>51.208</ele>
        <time>2020-07-15T19:03:36Z</time>
      </trkpt>
      <trkpt lat="41.821810" lon="-8.313940">
        <ele>51.450</ele>
        <time>2020-07-15T19:03:56Z</time>
      </trkpt>
      <trkpt lat="41.821960" lon="-8.313620">
        <ele>57.077</ele>
        <time>2020-07-15T19:04:16Z</time>
      </trkpt>
      <trkpt lat="41.822150" lon="-8.313360">
        <ele>64.682</ele>
        <time>2020-07-15T19:04:36Z</time>
      </trkpt>
      <trkpt lat="41.822320" lon="-8.313200">
        <ele>68.610</ele>
        <time>2020-07-15T19:04:56Z</time>
      </trkpt>
      <trkpt lat="41.822620" lon="-8.312960">
        <ele>72.027</ele>
        <time>2020-07-15T19:05:16Z</time>
      </trkpt>
      <trkpt lat="41.823220" lon="-8.312530">
        <ele>72.177</ele>
        <time>2020-07-15T19:05:36Z</time>
      </trkpt>
      <trkpt lat="41.823780" lon="-8.312100">
        <ele>74.317</ele>
        <time>2020-07-15T19:05:56Z</time>
      </trkpt>
      <trkpt lat="41.824110" lon="-8.311890">
        <ele>75.078</ele>
        <time>2020-07-15T19:06:16Z</time>
      </trkpt>
      <trkpt lat="41.824440" lon="-8.311710">
        <ele>74.043</ele>
        <time>2020-07-15T19:06:36Z</time>
      </trkpt>
      <trkpt lat="41.826090" lon="-8.310930">
        <ele>68.864</ele>
        <time>2020-07-15T19:06:56Z</time>
      </trkpt>
      <trkpt lat="41.826280" lon="-8.310810">
        <ele>68.510</ele>
        <time>2020-07-15T19:07:16Z</time>
      </trkpt>
      <trkpt lat="41.826430" lon="-8.310680">
        <ele>68.008</ele>
        <time>2020-07-15T19:07:36Z</time>
      </trkpt>
      <trkpt lat="41.826600" lon="-8.310480">
        <ele>66.179</ele>
        <time>2020-07-15T19:07:56Z</time>
      </trkpt>
      <trkpt lat="41.827560" lon="-8.309040">
        <ele>58.496</ele>
        <time>2020-07-15T19:08:16Z</time>
      </trkpt>
      <trkpt lat="41.827800" lon="-8.308740">
        <ele>56.961</ele>
        <time>2020-07-15T19:08:36Z</time>
      </trkpt>
      <trkpt lat="41.827960" lon="-8.308590">
        <ele>57.049</ele>
        <time>2020-07-15T19:08:56Z</time>
      </trkpt>
      <trkpt lat="41.828580" lon="-8.308210">
        <ele>61.066</ele>
        <time>2020-07-15T19:09:16Z</time>
      </trkpt>
      <trkpt lat="41.828830" lon="-8.307990">
        <ele>60.246</ele>
        <time>2020-07-15T19:09:36Z</time>
      </trkpt>
      <trkpt lat="41.829000" lon="-8.307760">
        <ele>58.656</ele>
        <time>2020-07-15T19:09:56Z</time>
      </trkpt>
      <trkpt lat="41.829260" lon="-8.307300">
        <ele>60.427</ele>
        <time>2020-07-15T19:10:16Z</time>
      </trkpt>
      <trkpt lat="41.829680" lon="-8.306460">
        <ele>61.922</ele>
        <time>2020-07-15T19:10:36Z</time>
      </trkpt>
      <trkpt lat="41.829820" lon="-8.306070">
        <ele>61.762</ele>
        <time>2020-07-15T19:10:56Z</time>
      </trkpt>
      <trkpt lat="41.830210" lon="-8.304510">
        <ele>61.708</ele>
        <time>2020-07-15T19:11:16Z</time>
      </trkpt>
      <trkpt lat="41.830320" lon="-8.304210">
        <ele>63.308</ele>
        <time>2020-07-15T19:11:36Z</time>
      </trkpt>
      <trkpt lat="41.830410" lon="-8.304080">
        <ele>64.077</ele>
        <time>2020-07-15T19:11:56Z</time>
      </trkpt>
      <trkpt lat="41.830520" lon="-8.303970">
        <ele>64.414</ele>
        <time>2020-07-15T19:12:16Z</time>
      </trkpt>
      <trkpt lat="41.831140" lon="-8.303670">
        <ele>68.069</ele>
        <time>2020-07-15T19:12:36Z</time>
      </trkpt>
      <trkpt lat="41.831270" lon="-8.303560">
        <ele>69.587</ele>
        <time>2020-07-15T19:12:56Z</time>
      </trkpt>
      <trkpt lat="41.831410" lon="-8.303370">
        <ele>72.044</ele>
        <time>2020-07-15T19:13:16Z</time>
      </trkpt>
      <trkpt lat="41.831520" lon="-8.303100">
        <ele>75.074</ele>
        <time>2020-07-15T19:13:36Z</time>
      </trkpt>
      <trkpt lat="41.831830" lon="-8.301940">
        <ele>79.374</ele>
        <time>2020-07-15T19:13:56Z</time>
      </trkpt>
      <trkpt lat="41.831850" lon="-8.301720">
        <ele>80.165</ele>
        <time>2020-07-15T19:14:16Z</time>
      </trkpt>
      <trkpt lat="41.831820" lon="-8.301470">
        <ele>80.412</ele>
        <time>2020-07-15T19:14:36Z</time>
      </trkpt>
      <trkpt lat="41.831700" lon="-8.300940">
        <ele>80.532</ele>
        <time>2020-07-15T19:14:56Z</time>
      </trkpt>
      <trkpt lat="41.831670" lon="-8.300650">
        <ele>78.005</ele>
        <time>2020-07-15T19:15:16Z</time>
      </trkpt>
      <trkpt lat="41.831680" lon="-8.300480">
        <ele>76.608</ele>
        <time>2020-07-15T19:15:36Z</time>
      </trkpt>
      <trkpt lat="41.831770" lon="-8.300210">
        <ele>75.896</ele>
        <time>2020-07-15T19:15:56Z</time>
      </trkpt>
      <trkpt lat="41.831900" lon="-8.300050">
        <ele>76.673</ele>
        <time>2020-07-15T19:16:16Z</time>
      </trkpt>
      <trkpt lat="41.832000" lon="-8.299970">
        <ele>77.028</ele>
        <time>2020-07-15T19:16:36Z</time>
      </trkpt>
      <trkpt lat="41.832190" lon="-8.299870">
        <ele>77.136</ele>
        <time>2020-07-15T19:16:56Z</time>
      </trkpt>
      <trkpt lat="41.832810" lon="-8.299640">
        <ele>76.483</ele>
        <time>2020-07-15T19:17:16Z</time>
      </trkpt>
      <trkpt lat="41.833000" lon="-8.299610">
        <ele>78.493</ele>
        <time>2020-07-15T19:17:36Z</time>
      </trkpt>
      <trkpt lat="41.833170" lon="-8.299610">
        <ele>80.393</ele>
        <time>2020-07-15T19:17:56Z</time>
      </trkpt>
      <trkpt lat="41.833310" lon="-8.299650">
        <ele>81.294</ele>
        <time>2020-07-15T19:18:16Z</time>
      </trkpt>
      <trkpt lat="41.833940" lon="-8.299930">
        <ele>84.479</ele>
        <time>2020-07-15T19:18:36Z</time>
      </trkpt>
      <trkpt lat="41.834250" lon="-8.299950">
        <ele>84.005</ele>
        <time>2020-07-15T19:18:56Z</time>
      </trkpt>
      <trkpt lat="41.834380" lon="-8.299900">
        <ele>84.825</ele>
        <time>2020-07-15T19:19:16Z</time>
      </trkpt>
      <trkpt lat="41.834480" lon="-8.299810">
        <ele>86.308</ele>
        <time>2020-07-15T19:19:36Z</time>
      </trkpt>
      <trkpt lat="41.834580" lon="-8.299680">
        <ele>87.922</ele>
        <time>2020-07-15T19:19:56Z</time>
      </trkpt>
      <trkpt lat="41.834740" lon="-8.299370">
        <ele>90.899</ele>
        <time>2020-07-15T19:20:16Z</time>
      </trkpt>
      <trkpt lat="41.835000" lon="-8.298800">
        <ele>94.344</ele>
        <time>2020-07-15T19:20:36Z</time>
      </trkpt>
      <trkpt lat="41.835120" lon="-8.298470">
        <ele>95.862</ele>
        <time>2020-07-15T19:20:56Z</time>
      </trkpt>
      <trkpt lat="41.835160" lon="-8.298220">
        <ele>95.659</ele>
        <time>2020-07-15T19:21:16Z</time>
      </trkpt>
      <trkpt lat="41.835130" lon="-8.297740">
        <ele>96.059</ele>
        <time>2020-07-15T19:21:36Z</time>
      </trkpt>
      <trkpt lat="41.835140" lon="-8.297580">
        <ele>95.369</ele>
        <time>2020-07-15T19:21:56Z</time>
      </trkpt>
      <trkpt lat="41.835230" lon="-8.297260">
        <ele>93.820</ele>
        <time>2020-07-15T19:22:16Z</time>
      </trkpt>
      <trkpt lat="41.835630" lon="-8.296470">
        <ele>97.095</ele>
        <time>2020-07-15T19:22:36Z</time>
      </trkpt>
      <trkpt lat="41.835740" lon="-8.296130">
        <ele>98.549</ele>
        <time>2020-07-15T19:22:56Z</time>
      </trkpt>
      <trkpt lat="41.835870" lon="-8.295640">
        <ele>97.223</ele>
        <time>2020-07-15T19:23:16Z</time>
      </trkpt>
      <trkpt lat="41.836000" lon="-8.295390">
        <ele>94.808</ele>
        <time>2020-07-15T19:23:36Z</time>
      </trkpt>
      <trkpt lat="41.836100" lon="-8.295280">
        <ele>93.244</ele>
        <time>2020-07-15T19:23:56Z</time>
      </trkpt>
      <trkpt lat="41.836290" lon="-8.295190">
        <ele>92.181</ele>
        <time>2020-07-15T19:24:16Z</time>
      </trkpt>
      <trkpt lat="41.836420" lon="-8.295180">
        <ele>91.896</ele>
        <time>2020-07-15T19:24:36Z</time>
      </trkpt>
      <trkpt lat="41.836530" lon="-8.295200">
        <ele>92.114</ele>
        <time>2020-07-15T19:24:56Z</time>
      </trkpt>
      <trkpt lat="41.836730" lon="-8.295310">
        <ele>91.711</ele>
        <time>2020-07-15T19:25:16Z</time>
      </trkpt>
      <trkpt lat="41.837120" lon="-8.295590">
        <ele>87.061</ele>
        <time>2020-07-15T19:25:36Z</time>
      </trkpt>
      <trkpt lat="41.837250" lon="-8.295620">
        <ele>86.021</ele>
        <time>2020-07-15T19:25:56Z</time>
      </trkpt>
      <trkpt lat="41.837350" lon="-8.295620">
        <ele>84.852</ele>
        <time>2020-07-15T19:26:16Z</time>
      </trkpt>
      <trkpt lat="41.837450" lon="-8.295590">
        <ele>84.176</ele>
        <time>2020-07-15T19:26:36Z</time>
      </trkpt>
      <trkpt lat="41.837540" lon="-8.295530">
        <ele>83.590</ele>
        <time>2020-07-15T19:26:56Z</time>
      </trkpt>
      <trkpt lat="41.837880" lon="-8.295180">
        <ele>81.619</ele>
        <time>2020-07-15T19:27:16Z</time>
      </trkpt>
      <trkpt lat="41.838030" lon="-8.295120">
        <ele>81.308</ele>
        <time>2020-07-15T19:27:36Z</time>
      </trkpt>
      <trkpt lat="41.838140" lon="-8.295110">
        <ele>81.582</ele>
        <time>2020-07-15T19:27:56Z</time>
      </trkpt>
      <trkpt lat="41.838560" lon="-8.295120">
        <ele>79.779</ele>
        <time>2020-07-15T19:28:16Z</time>
      </trkpt>
      <trkpt lat="41.838860" lon="-8.295020">
        <ele>78.044</ele>
        <time>2020-07-15T19:28:36Z</time>
      </trkpt>
      <trkpt lat="41.839620" lon="-8.294440">
        <ele>80.342</ele>
        <time>2020-07-15T19:28:56Z</time>
      </trkpt>
      <trkpt lat="41.840020" lon="-8.294090">
        <ele>80.729</ele>
        <time>2020-07-15T19:29:16Z</time>
      </trkpt>
      <trkpt lat="41.840420" lon="-8.293630">
        <ele>78.369</ele>
        <time>2020-07-15T19:29:36Z</time>
      </trkpt>
      <trkpt lat="41.840520" lon="-8.293450">
        <ele>76.639</ele>
        <time>2020-07-15T19:29:56Z</time>
      </trkpt>
      <trkpt lat="41.840580" lon="-8.293220">
        <ele>75.890</ele>
        <time>2020-07-15T19:30:16Z</time>
      </trkpt>
      <trkpt lat="41.840610" lon="-8.293050">
        <ele>75.964</ele>
        <time>2020-07-15T19:30:36Z</time>
      </trkpt>
      <trkpt lat="41.840640" lon="-8.292620">
        <ele>78.306</ele>
        <time>2020-07-15T19:30:56Z</time>
      </trkpt>
      <trkpt lat="41.840680" lon="-8.291510">
        <ele>80.116</ele>
        <time>2020-07-15T19:31:16Z</time>
      </trkpt>
      <trkpt lat="41.840620" lon="-8.290480">
        <ele>74.008</ele>
        <time>2020-07-15T19:31:36Z</time>
      </trkpt>
      <trkpt lat="41.840630" lon="-8.290210">
        <ele>75.681</ele>
        <time>2020-07-15T19:31:56Z</time>
      </trkpt>
      <trkpt lat="41.840670" lon="-8.290030">
        <ele>77.838</ele>
        <time>2020-07-15T19:32:16Z</time>
      </trkpt>
      <trkpt lat="41.840750" lon="-8.289890">
        <ele>80.493</ele>
        <time>2020-07-15T19:32:36Z</time>
      </trkpt>
      <trkpt lat="41.841250" lon="-8.289420">
        <ele>85.581</ele>
        <time>2020-07-15T19:32:56Z</time>
      </trkpt>
      <trkpt lat="41.841920" lon="-8.288350">
        <ele>91.458</ele>
        <time>2020-07-15T19:33:16Z</time>
      </trkpt>
      <trkpt lat="41.841960" lon="-8.288310">
        <ele>91.278</ele>
        <time>2020-07-15T19:33:36Z</time>
      </trkpt>
      <trkpt lat="41.842160" lon="-8.288110">
        <ele>91.228</ele>
        <time>2020-07-15T19:33:56Z</time>
      </trkpt>
      <trkpt lat="41.842800" lon="-8.287840">
        <ele>89.119</ele>
        <time>2020-07-15T19:34:16Z</time>
      </trkpt>
      <trkpt lat="41.843010" lon="-8.287680">
        <ele>89.171</ele>
        <time>2020-07-15T19:34:36Z</time>
      </trkpt>
      <trkpt lat="41.843710" lon="-8.286750">
        <ele>94.341</ele>
        <time>2020-07-15T19:34:56Z</time>
      </trkpt>
      <trkpt lat="41.843860" lon="-8.286610">
        <ele>97.315</ele>
        <time>2020-07-15T19:35:16Z</time>
      </trkpt>
      <trkpt lat="41.844020" lon="-8.286520">
        <ele>99.408</ele>
        <time>2020-07-15T19:35:36Z</time>
      </trkpt>
      <trkpt lat="41.844150" lon="-8.286470">
        <ele>100.532</ele>
        <time>2020-07-15T19:35:56Z</time>
      </trkpt>
      <trkpt lat="41.844260" lon="-8.286470">
        <ele>101.539</ele>
        <time>2020-07-15T19:36:16Z</time>
      </trkpt>
      <trkpt lat="41.844940" lon="-8.286660">
        <ele>104.544</ele>
        <time>2020-07-15T19:36:36Z</time>
      </trkpt>
      <trkpt lat="41.845120" lon="-8.286680">
        <ele>104.772</ele>
        <time>2020-07-15T19:36:56Z</time>
      </trkpt>
      <trkpt lat="41.845250" lon="-8.286670">
        <ele>104.999</ele>
        <time>2020-07-15T19:37:16Z</time>
      </trkpt>
      <trkpt lat="41.845350" lon="-8.286630">
        <ele>105.279</ele>
        <time>2020-07-15T19:37:36Z</time>
      </trkpt>
      <trkpt lat="41.845460" lon="-8.286530">
        <ele>105.859</ele>
        <time>2020-07-15T19:37:56Z</time>
      </trkpt>
      <trkpt lat="41.845540" lon="-8.286410">
        <ele>106.190</ele>
        <time>2020-07-15T19:38:16Z</time>
      </trkpt>
      <trkpt lat="41.845700" lon="-8.285900">
        <ele>107.648</ele>
        <time>2020-07-15T19:38:36Z</time>
      </trkpt>
      <trkpt lat="41.845780" lon="-8.285750">
        <ele>105.161</ele>
        <time>2020-07-15T19:38:56Z</time>
      </trkpt>
      <trkpt lat="41.845860" lon="-8.285640">
        <ele>103.417</ele>
        <time>2020-07-15T19:39:16Z</time>
      </trkpt>
      <trkpt lat="41.845950" lon="-8.285580">
        <ele>103.808</ele>
        <time>2020-07-15T19:39:36Z</time>
      </trkpt>
      <trkpt lat="41.846110" lon="-8.285570">
        <ele>103.859</ele>
        <time>2020-07-15T19:39:56Z</time>
      </trkpt>
      <trkpt lat="41.846200" lon="-8.285610">
        <ele>105.126</ele>
        <time>2020-07-15T19:40:16Z</time>
      </trkpt>
      <trkpt lat="41.846330" lon="-8.285720">
        <ele>106.631</ele>
        <time>2020-07-15T19:40:36Z</time>
      </trkpt>
      <trkpt lat="41.846620" lon="-8.286200">
        <ele>108.469</ele>
        <time>2020-07-15T19:40:56Z</time>
      </trkpt>
      <trkpt lat="41.846770" lon="-8.286350">
        <ele>109.986</ele>
        <time>2020-07-15T19:41:16Z</time>
      </trkpt>
      <trkpt lat="41.846930" lon="-8.286440">
        <ele>111.686</ele>
        <time>2020-07-15T19:41:36Z</time>
      </trkpt>
      <trkpt lat="41.847190" lon="-8.286460">
        <ele>113.736</ele>
        <time>2020-07-15T19:41:56Z</time>
      </trkpt>
      <trkpt lat="41.847580" lon="-8.286440">
        <ele>115.947</ele>
        <time>2020-07-15T19:42:16Z</time>
      </trkpt>
      <trkpt lat="41.847750" lon="-8.286400">
        <ele>117.723</ele>
        <time>2020-07-15T19:42:36Z</time>
      </trkpt>
      <trkpt lat="41.847870" lon="-8.286310">
        <ele>118.283</ele>
        <time>2020-07-15T19:42:56Z</time>
      </trkpt>
      <trkpt lat="41.848030" lon="-8.286120">
        <ele>120.011</ele>
        <time>2020-07-15T19:43:16Z</time>
      </trkpt>
      <trkpt lat="41.848550" lon="-8.285390">
        <ele>121.808</ele>
        <time>2020-07-15T19:43:36Z</time>
      </trkpt>
      <trkpt lat="41.848730" lon="-8.285180">
        <ele>123.857</ele>
        <time>2020-07-15T19:43:56Z</time>
      </trkpt>
      <trkpt lat="41.848940" lon="-8.285050">
        <ele>125.434</ele>
        <time>2020-07-15T19:44:16Z</time>
      </trkpt>
      <trkpt lat="41.849210" lon="-8.284920">
        <ele>126.779</ele>
        <time>2020-07-15T19:44:36Z</time>
      </trkpt>
      <trkpt lat="41.849700" lon="-8.284710">
        <ele>129.457</ele>
        <time>2020-07-15T19:44:56Z</time>
      </trkpt>
      <trkpt lat="41.850320" lon="-8.284490">
        <ele>134.624</ele>
        <time>2020-07-15T19:45:16Z</time>
      </trkpt>
      <trkpt lat="41.850540" lon="-8.284480">
        <ele>138.894</ele>
        <time>2020-07-15T19:45:36Z</time>
      </trkpt>
      <trkpt lat="41.850700" lon="-8.284510">
        <ele>140.814</ele>
        <time>2020-07-15T19:45:56Z</time>
      </trkpt>
      <trkpt lat="41.850850" lon="-8.284590">
        <ele>142.375</ele>
        <time>2020-07-15T19:46:16Z</time>
      </trkpt>
      <trkpt lat="41.851050" lon="-8.284790">
        <ele>145.038</ele>
        <time>2020-07-15T19:46:36Z</time>
      </trkpt>
      <trkpt lat="41.851540" lon="-8.285400">
        <ele>147.270</ele>
        <time>2020-07-15T19:46:56Z</time>
      </trkpt>
      <trkpt lat="41.851710" lon="-8.285550">
        <ele>148.117</ele>
        <time>2020-07-15T19:47:16Z</time>
      </trkpt>
      <trkpt lat="41.851880" lon="-8.285630">
        <ele>149.008</ele>
        <time>2020-07-15T19:47:36Z</time>
      </trkpt>
      <trkpt lat="41.852070" lon="-8.285640">
        <ele>150.648</ele>
        <time>2020-07-15T19:47:56Z</time>
      </trkpt>
      <trkpt lat="41.852470" lon="-8.285480">
        <ele>155.445</ele>
        <time>2020-07-15T19:48:16Z</time>
      </trkpt>
      <trkpt lat="41.853040" lon="-8.285200">
        <ele>154.060</ele>
        <time>2020-07-15T19:48:36Z</time>
      </trkpt>
      <trkpt lat="41.853360" lon="-8.285030">
        <ele>153.918</ele>
        <time>2020-07-15T19:48:56Z</time>
      </trkpt>
      <trkpt lat="41.853500" lon="-8.284920">
        <ele>153.755</ele>
        <time>2020-07-15T19:49:16Z</time>
      </trkpt>
      <trkpt lat="41.853660" lon="-8.284740">
        <ele>154.245</ele>
        <time>2020-07-15T19:49:36Z</time>
      </trkpt>
      <trkpt lat="41.853840" lon="-8.284470">
        <ele>155.025</ele>
        <time>2020-07-15T19:49:56Z</time>
      </trkpt>
      <trkpt lat="41.854100" lon="-8.284000">
        <ele>156.916</ele>
        <time>2020-07-15T19:50:16Z</time>
      </trkpt>
      <trkpt lat="41.854160" lon="-8.283860">
        <ele>157.667</ele>
        <time>2020-07-15T19:50:36Z</time>
      </trkpt>
      <trkpt lat="41.854290" lon="-8.283440">
        <ele>162.081</ele>
        <time>2020-07-15T19:50:56Z</time>
      </trkpt>
      <trkpt lat="41.854680" lon="-8.282490">
        <ele>170.119</ele>
        <time>2020-07-15T19:51:16Z</time>
      </trkpt>
      <trkpt lat="41.854740" lon="-8.282390">
        <ele>170.708</ele>
        <time>2020-07-15T19:51:36Z</time>
      </trkpt>
      <trkpt lat="41.854850" lon="-8.282260">
        <ele>171.211</ele>
        <time>2020-07-15T19:51:56Z</time>
      </trkpt>
      <trkpt lat="41.855220" lon="-8.281910">
        <ele>174.098</ele>
        <time>2020-07-15T19:52:16Z</time>
      </trkpt>
      <trkpt lat="41.855350" lon="-8.281740">
        <ele>175.923</ele>
        <time>2020-07-15T19:52:36Z</time>
      </trkpt>
      <trkpt lat="41.855560" lon="-8.281350">
        <ele>178.641</ele>
        <time>2020-07-15T19:52:56Z</time>
      </trkpt>
      <trkpt lat="41.855670" lon="-8.281070">
        <ele>181.178</ele>
        <time>2020-07-15T19:53:16Z</time>
      </trkpt>
      <trkpt lat="41.855730" lon="-8.280770">
        <ele>182.418</ele>
        <time>2020-07-15T19:53:36Z</time>
      </trkpt>
      <trkpt lat="41.855740" lon="-8.280500">
        <ele>181.538</ele>
        <time>2020-07-15T19:53:56Z</time>
      </trkpt>
      <trkpt lat="41.855400" lon="-8.278340">
        <ele>194.899</ele>
        <time>2020-07-15T19:54:16Z</time>
      </trkpt>
      <trkpt lat="41.855360" lon="-8.278220">
        <ele>195.676</ele>
        <time>2020-07-15T19:54:36Z</time>
      </trkpt>
      <trkpt lat="41.855060" lon="-8.277680">
        <ele>203.090</ele>
        <time>2020-07-15T19:54:56Z</time>
      </trkpt>
      <trkpt lat="41.855000" lon="-8.277470">
        <ele>206.519</ele>
        <time>2020-07-15T19:55:16Z</time>
      </trkpt>
      <trkpt lat="41.855030" lon="-8.276780">
        <ele>212.308</ele>
        <time>2020-07-15T19:55:36Z</time>
      </trkpt>
      <trkpt lat="41.855100" lon="-8.276010">
        <ele>208.222</ele>
        <time>2020-07-15T19:55:56Z</time>
      </trkpt>
      <trkpt lat="41.855240" lon="-8.275530">
        <ele>203.949</ele>
        <time>2020-07-15T19:56:16Z</time>
      </trkpt>
      <trkpt lat="41.855240" lon="-8.275390">
        <ele>204.684</ele>
        <time>2020-07-15T19:56:36Z</time>
      </trkpt>
      <trkpt lat="41.855200" lon="-8.275230">
        <ele>206.692</ele>
        <time>2020-07-15T19:56:56Z</time>
      </trkpt>
      <trkpt lat="41.855110" lon="-8.275060">
        <ele>209.399</ele>
        <time>2020-07-15T19:57:16Z</time>
      </trkpt>
      <trkpt lat="41.854890" lon="-8.274870">
        <ele>213.779</ele>
        <time>2020-07-15T19:57:36Z</time>
      </trkpt>
      <trkpt lat="41.854760" lon="-8.274730">
        <ele>216.839</ele>
        <time>2020-07-15T19:57:56Z</time>
      </trkpt>
      <trkpt lat="41.854700" lon="-8.274610">
        <ele>218.870</ele>
        <time>2020-07-15T19:58:16Z</time>
      </trkpt>
      <trkpt lat="41.854670" lon="-8.274420">
        <ele>219.751</ele>
        <time>2020-07-15T19:58:36Z</time>
      </trkpt>
      <trkpt lat="41.854690" lon="-8.274270">
        <ele>219.501</ele>
        <time>2020-07-15T19:58:56Z</time>
      </trkpt>
      <trkpt lat="41.854760" lon="-8.274100">
        <ele>218.511</ele>
        <time>2020-07-15T19:59:16Z</time>
      </trkpt>
      <trkpt lat="41.854890" lon="-8.273900">
        <ele>217.008</ele>
        <time>2020-07-15T19:59:36Z</time>
      </trkpt>
      <trkpt lat="41.855640" lon="-8.273020">
        <ele>212.590</ele>
        <time>2020-07-15T19:59:56Z</time>
      </trkpt>
      <trkpt lat="41.855720" lon="-8.272870">
        <ele>212.447</ele>
        <time>2020-07-15T20:00:16Z</time>
      </trkpt>
      <trkpt lat="41.855780" lon="-8.272680">
        <ele>213.962</ele>
        <time>2020-07-15T20:00:36Z</time>
      </trkpt>
      <trkpt lat="41.855810" lon="-8.272410">
        <ele>218.590</ele>
        <time>2020-07-15T20:00:56Z</time>
      </trkpt>
      <trkpt lat="41.855810" lon="-8.272050">
        <ele>221.787</ele>
        <time>2020-07-15T20:01:16Z</time>
      </trkpt>
      <trkpt lat="41.855840" lon="-8.271750">
        <ele>223.047</ele>
        <time>2020-07-15T20:01:36Z</time>
      </trkpt>
      <trkpt lat="41.855920" lon="-8.271310">
        <ele>226.217</ele>
        <time>2020-07-15T20:01:56Z</time>
      </trkpt>
      <trkpt lat="41.855900" lon="-8.271040">
        <ele>228.128</ele>
        <time>2020-07-15T20:02:16Z</time>
      </trkpt>
      <trkpt lat="41.855900" lon="-8.270740">
        <ele>229.042</ele>
        <time>2020-07-15T20:02:36Z</time>
      </trkpt>
      <trkpt lat="41.855920" lon="-8.270540">
        <ele>228.622</ele>
        <time>2020-07-15T20:02:56Z</time>
      </trkpt>
      <trkpt lat="41.856170" lon="-8.269840">
        <ele>222.814</ele>
        <time>2020-07-15T20:03:16Z</time>
      </trkpt>
      <trkpt lat="41.856190" lon="-8.269700">
        <ele>223.808</ele>
        <time>2020-07-15T20:03:36Z</time>
      </trkpt>
      <trkpt lat="41.856180" lon="-8.269600">
        <ele>225.129</ele>
        <time>2020-07-15T20:03:56Z</time>
      </trkpt>
      <trkpt lat="41.856100" lon="-8.269290">
        <ele>229.776</ele>
        <time>2020-07-15T20:04:16Z</time>
      </trkpt>
      <trkpt lat="41.856070" lon="-8.269070">
        <ele>229.981</ele>
        <time>2020-07-15T20:04:36Z</time>
      </trkpt>
      <trkpt lat="41.856080" lon="-8.268970">
        <ele>229.629</ele>
        <time>2020-07-15T20:04:56Z</time>
      </trkpt>
      <trkpt lat="41.856110" lon="-8.268790">
        <ele>229.476</ele>
        <time>2020-07-15T20:05:16Z</time>
      </trkpt>
      <trkpt lat="41.856360" lon="-8.268190">
        <ele>226.926</ele>
        <time>2020-07-15T20:05:36Z</time>
      </trkpt>
      <trkpt lat="41.856430" lon="-8.267940">
        <ele>226.366</ele>
        <time>2020-07-15T20:05:56Z</time>
      </trkpt>
      <trkpt lat="41.856430" lon="-8.267670">
        <ele>228.457</ele>
        <time>2020-07-15T20:06:16Z</time>
      </trkpt>
      <trkpt lat="41.856400" lon="-8.267450">
        <ele>230.993</ele>
        <time>2020-07-15T20:06:36Z</time>
      </trkpt>
      <trkpt lat="41.856280" lon="-8.267190">
        <ele>235.465</ele>
        <time>2020-07-15T20:06:56Z</time>
      </trkpt>
      <trkpt lat="41.855920" lon="-8.266660">
        <ele>232.921</ele>
        <time>2020-07-15T20:07:16Z</time>
      </trkpt>
      <trkpt lat="41.855740" lon="-8.266420">
        <ele>229.508</ele>
        <time>2020-07-15T20:07:36Z</time>
      </trkpt>
      <trkpt lat="41.855590" lon="-8.266290">
        <ele>230.624</ele>
        <time>2020-07-15T20:07:56Z</time>
      </trkpt>
      <trkpt lat="41.855330" lon="-8.266120">
        <ele>235.731</ele>
        <time>2020-07-15T20:08:16Z</time>
      </trkpt>
      <trkpt lat="41.855200" lon="-8.265960">
        <ele>236.936</ele>
        <time>2020-07-15T20:08:36Z</time>
      </trkpt>
      <trkpt lat="41.854720" lon="-8.265110">
        <ele>236.544</ele>
        <time>2020-07-15T20:08:56Z</time>
      </trkpt>
      <trkpt lat="41.854660" lon="-8.264790">
        <ele>237.461</ele>
        <time>2020-07-15T20:09:16Z</time>
      </trkpt>
      <trkpt lat="41.854670" lon="-8.264590">
        <ele>237.681</ele>
        <time>2020-07-15T20:09:36Z</time>
      </trkpt>
      <trkpt lat="41.854720" lon="-8.264430">
        <ele>237.211</ele>
        <time>2020-07-15T20:09:56Z</time>
      </trkpt>
      <trkpt lat="41.854800" lon="-8.264300">
        <ele>235.982</ele>
        <time>2020-07-15T20:10:16Z</time>
      </trkpt>
      <trkpt lat="41.855300" lon="-8.263800">
        <ele>224.771</ele>
        <time>2020-07-15T20:10:36Z</time>
      </trkpt>
      <trkpt lat="41.855770" lon="-8.262860">
        <ele>227.841</ele>
        <time>2020-07-15T20:10:56Z</time>
      </trkpt>
      <trkpt lat="41.856050" lon="-8.262460">
        <ele>229.715</ele>
        <time>2020-07-15T20:11:16Z</time>
      </trkpt>
      <trkpt lat="41.856310" lon="-8.262190">
        <ele>231.508</ele>
        <time>2020-07-15T20:11:36Z</time>
      </trkpt>
      <trkpt lat="41.856690" lon="-8.261520">
        <ele>241.582</ele>
        <time>2020-07-15T20:11:56Z</time>
      </trkpt>
      <trkpt lat="41.856920" lon="-8.261290">
        <ele>240.889</ele>
        <time>2020-07-15T20:12:16Z</time>
      </trkpt>
      <trkpt lat="41.857050" lon="-8.261120">
        <ele>240.754</ele>
        <time>2020-07-15T20:12:36Z</time>
      </trkpt>
      <trkpt lat="41.857210" lon="-8.260880">
        <ele>240.662</ele>
        <time>2020-07-15T20:12:56Z</time>
      </trkpt>
      <trkpt lat="41.857410" lon="-8.260330">
        <ele>245.799</ele>
        <time>2020-07-15T20:13:16Z</time>
      </trkpt>
      <trkpt lat="41.857500" lon="-8.260140">
        <ele>246.559</ele>
        <time>2020-07-15T20:13:36Z</time>
      </trkpt>
      <trkpt lat="41.857800" lon="-8.259760">
        <ele>250.739</ele>
        <time>2020-07-15T20:13:56Z</time>
      </trkpt>
      <trkpt lat="41.857970" lon="-8.259570">
        <ele>250.130</ele>
        <time>2020-07-15T20:14:16Z</time>
      </trkpt>
      <trkpt lat="41.858100" lon="-8.259390">
        <ele>248.994</ele>
        <time>2020-07-15T20:14:36Z</time>
      </trkpt>
      <trkpt lat="41.858160" lon="-8.259260">
        <ele>248.557</ele>
        <time>2020-07-15T20:14:56Z</time>
      </trkpt>
      <trkpt lat="41.858220" lon="-8.259030">
        <ele>249.222</ele>
        <time>2020-07-15T20:15:16Z</time>
      </trkpt>
      <trkpt lat="41.858250" lon="-8.258710">
        <ele>252.008</ele>
        <time>2020-07-15T20:15:36Z</time>
      </trkpt>
      <trkpt lat="41.858230" lon="-8.258310">
        <ele>254.564</ele>
        <time>2020-07-15T20:15:56Z</time>
      </trkpt>
      <trkpt lat="41.858260" lon="-8.258020">
        <ele>254.521</ele>
        <time>2020-07-15T20:16:16Z</time>
      </trkpt>
      <trkpt lat="41.858340" lon="-8.257760">
        <ele>256.196</ele>
        <time>2020-07-15T20:16:36Z</time>
      </trkpt>
      <trkpt lat="41.858720" lon="-8.256820">
        <ele>256.594</ele>
        <time>2020-07-15T20:16:56Z</time>
      </trkpt>
      <trkpt lat="41.858910" lon="-8.256300">
        <ele>251.021</ele>
        <time>2020-07-15T20:17:16Z</time>
      </trkpt>
      <trkpt lat="41.859090" lon="-8.255550">
        <ele>251.691</ele>
        <time>2020-07-15T20:17:36Z</time>
      </trkpt>
      <trkpt lat="41.859190" lon="-8.255020">
        <ele>254.061</ele>
        <time>2020-07-15T20:17:56Z</time>
      </trkpt>
      <trkpt lat="41.859210" lon="-8.254720">
        <ele>258.142</ele>
        <time>2020-07-15T20:18:16Z</time>
      </trkpt>
      <trkpt lat="41.859190" lon="-8.254580">
        <ele>260.578</ele>
        <time>2020-07-15T20:18:36Z</time>
      </trkpt>
      <trkpt lat="41.859150" lon="-8.254440">
        <ele>263.433</ele>
        <time>2020-07-15T20:18:56Z</time>
      </trkpt>
      <trkpt lat="41.858780" lon="-8.253620">
        <ele>264.526</ele>
        <time>2020-07-15T20:19:16Z</time>
      </trkpt>
      <trkpt lat="41.858640" lon="-8.253450">
        <ele>263.608</ele>
        <time>2020-07-15T20:19:36Z</time>
      </trkpt>
      <trkpt lat="41.858450" lon="-8.253260">
        <ele>262.822</ele>
        <time>2020-07-15T20:19:56Z</time>
      </trkpt>
      <trkpt lat="41.858370" lon="-8.253130">
        <ele>262.279</ele>
        <time>2020-07-15T20:20:16Z</time>
      </trkpt>
      <trkpt lat="41.858320" lon="-8.252980">
        <ele>262.014</ele>
        <time>2020-07-15T20:20:36Z</time>
      </trkpt>
      <trkpt lat="41.858300" lon="-8.252700">
        <ele>262.482</ele>
        <time>2020-07-15T20:20:56Z</time>
      </trkpt>
      <trkpt lat="41.858440" lon="-8.251980">
        <ele>262.979</ele>
        <time>2020-07-15T20:21:16Z</time>
      </trkpt>
      <trkpt lat="41.858470" lon="-8.251700">
        <ele>263.479</ele>
        <time>2020-07-15T20:21:36Z</time>
      </trkpt>
      <trkpt lat="41.858380" lon="-8.251020">
        <ele>269.999</ele>
        <time>2020-07-15T20:21:56Z</time>
      </trkpt>
      <trkpt lat="41.858380" lon="-8.250710">
        <ele>272.910</ele>
        <time>2020-07-15T20:22:16Z</time>
      </trkpt>
      <trkpt lat="41.858570" lon="-8.248900">
        <ele>270.347</ele>
        <time>2020-07-15T20:22:36Z</time>
      </trkpt>
      <trkpt lat="41.858560" lon="-8.248610">
        <ele>268.529</ele>
        <time>2020-07-15T20:22:56Z</time>
      </trkpt>
      <trkpt lat="41.858470" lon="-8.247980">
        <ele>263.821</ele>
        <time>2020-07-15T20:23:16Z</time>
      </trkpt>
      <trkpt lat="41.858360" lon="-8.247610">
        <ele>260.508</ele>
        <time>2020-07-15T20:23:36Z</time>
      </trkpt>
      <trkpt lat="41.858140" lon="-8.247230">
        <ele>260.269</ele>
        <time>2020-07-15T20:23:56Z</time>
      </trkpt>
      <trkpt lat="41.857920" lon="-8.246900">
        <ele>264.126</ele>
        <time>2020-07-15T20:24:16Z</time>
      </trkpt>
      <trkpt lat="41.857800" lon="-8.246650">
        <ele>266.271</ele>
        <time>2020-07-15T20:24:36Z</time>
      </trkpt>
      <trkpt lat="41.857700" lon="-8.246400">
        <ele>266.259</ele>
        <time>2020-07-15T20:24:56Z</time>
      </trkpt>
      <trkpt lat="41.857660" lon="-8.246160">
        <ele>263.986</ele>
        <time>2020-07-15T20:25:16Z</time>
      </trkpt>
      <trkpt lat="41.857680" lon="-8.245970">
        <ele>262.436</ele>
        <time>2020-07-15T20:25:36Z</time>
      </trkpt>
      <trkpt lat="41.857750" lon="-8.245820">
        <ele>261.216</ele>
        <time>2020-07-15T20:25:56Z</time>
      </trkpt>
      <trkpt lat="41.857840" lon="-8.245720">
        <ele>261.157</ele>
        <time>2020-07-15T20:26:16Z</time>
      </trkpt>
      <trkpt lat="41.857990" lon="-8.245660">
        <ele>260.695</ele>
        <time>2020-07-15T20:26:36Z</time>
      </trkpt>
      <trkpt lat="41.858670" lon="-8.245610">
        <ele>260.649</ele>
        <time>2020-07-15T20:26:56Z</time>
      </trkpt>
      <trkpt lat="41.858840" lon="-8.245540">
        <ele>262.023</ele>
        <time>2020-07-15T20:27:16Z</time>
      </trkpt>
      <trkpt lat="41.858930" lon="-8.245470">
        <ele>262.608</ele>
        <time>2020-07-15T20:27:36Z</time>
      </trkpt>
      <trkpt lat="41.860030" lon="-8.244070">
        <ele>260.164</ele>
        <time>2020-07-15T20:27:56Z</time>
      </trkpt>
      <trkpt lat="41.860360" lon="-8.243590">
        <ele>258.051</ele>
        <time>2020-07-15T20:28:16Z</time>
      </trkpt>
      <trkpt lat="41.860630" lon="-8.243030">
        <ele>261.826</ele>
        <time>2020-07-15T20:28:36Z</time>
      </trkpt>
      <trkpt lat="41.860660" lon="-8.242810">
        <ele>265.264</ele>
        <time>2020-07-15T20:28:56Z</time>
      </trkpt>
      <trkpt lat="41.860630" lon="-8.242590">
        <ele>268.631</ele>
        <time>2020-07-15T20:29:16Z</time>
      </trkpt>
      <trkpt lat="41.860550" lon="-8.242260">
        <ele>273.021</ele>
        <time>2020-07-15T20:29:36Z</time>
      </trkpt>
      <trkpt lat="41.860550" lon="-8.242120">
        <ele>273.511</ele>
        <time>2020-07-15T20:29:56Z</time>
      </trkpt>
      <trkpt lat="41.860740" lon="-8.241190">
        <ele>273.132</ele>
        <time>2020-07-15T20:30:16Z</time>
      </trkpt>
      <trkpt lat="41.860740" lon="-8.240920">
        <ele>273.381</ele>
        <time>2020-07-15T20:30:36Z</time>
      </trkpt>
      <trkpt lat="41.860670" lon="-8.240670">
        <ele>274.461</ele>
        <time>2020-07-15T20:30:56Z</time>
      </trkpt>
      <trkpt lat="41.860560" lon="-8.240510">
        <ele>276.517</ele>
        <time>2020-07-15T20:31:16Z</time>
      </trkpt>
      <trkpt lat="41.860400" lon="-8.240390">
        <ele>279.208</ele>
        <time>2020-07-15T20:31:36Z</time>
      </trkpt>
      <trkpt lat="41.860290" lon="-8.240340">
        <ele>281.253</ele>
        <time>2020-07-15T20:31:56Z</time>
      </trkpt>
      <trkpt lat="41.859190" lon="-8.239970">
        <ele>284.210</ele>
        <time>2020-07-15T20:32:16Z</time>
      </trkpt>
      <trkpt lat="41.859070" lon="-8.239910">
        <ele>283.665</ele>
        <time>2020-07-15T20:32:36Z</time>
      </trkpt>
      <trkpt lat="41.858960" lon="-8.239830">
        <ele>283.633</ele>
        <time>2020-07-15T20:32:56Z</time>
      </trkpt>
      <trkpt lat="41.858840" lon="-8.239710">
        <ele>284.230</ele>
        <time>2020-07-15T20:33:16Z</time>
      </trkpt>
      <trkpt lat="41.858730" lon="-8.239500">
        <ele>284.220</ele>
        <time>2020-07-15T20:33:36Z</time>
      </trkpt>
      <trkpt lat="41.858700" lon="-8.239410">
        <ele>284.770</ele>
        <time>2020-07-15T20:33:56Z</time>
      </trkpt>
      <trkpt lat="41.858660" lon="-8.239140">
        <ele>285.081</ele>
        <time>2020-07-15T20:34:16Z</time>
      </trkpt>
      <trkpt lat="41.858690" lon="-8.238890">
        <ele>285.185</ele>
        <time>2020-07-15T20:34:36Z</time>
      </trkpt>
      <trkpt lat="41.858780" lon="-8.238670">
        <ele>287.989</ele>
        <time>2020-07-15T20:34:56Z</time>
      </trkpt>
      <trkpt lat="41.858950" lon="-8.238490">
        <ele>289.617</ele>
        <time>2020-07-15T20:35:16Z</time>
      </trkpt>
      <trkpt lat="41.859140" lon="-8.238380">
        <ele>289.408</ele>
        <time>2020-07-15T20:35:36Z</time>
      </trkpt>
      <trkpt lat="41.860480" lon="-8.237890">
        <ele>290.853</ele>
        <time>2020-07-15T20:35:56Z</time>
      </trkpt>
      <trkpt lat="41.860670" lon="-8.237780">
        <ele>290.990</ele>
        <time>2020-07-15T20:36:16Z</time>
      </trkpt>
      <trkpt lat="41.861420" lon="-8.237170">
        <ele>295.925</ele>
        <time>2020-07-15T20:36:36Z</time>
      </trkpt>
      <trkpt lat="41.861680" lon="-8.236930">
        <ele>296.913</ele>
        <time>2020-07-15T20:36:56Z</time>
      </trkpt>
      <trkpt lat="41.861810" lon="-8.236710">
        <ele>296.550</ele>
        <time>2020-07-15T20:37:16Z</time>
      </trkpt>
      <trkpt lat="41.861860" lon="-8.236480">
        <ele>297.180</ele>
        <time>2020-07-15T20:37:36Z</time>
      </trkpt>
      <trkpt lat="41.861910" lon="-8.235700">
        <ele>303.660</ele>
        <time>2020-07-15T20:37:56Z</time>
      </trkpt>
      <trkpt lat="41.861930" lon="-8.235530">
        <ele>304.551</ele>
        <time>2020-07-15T20:38:16Z</time>
      </trkpt>
      <trkpt lat="41.861990" lon="-8.235360">
        <ele>306.034</ele>
        <time>2020-07-15T20:38:36Z</time>
      </trkpt>
      <trkpt lat="41.862070" lon="-8.235230">
        <ele>307.955</ele>
        <time>2020-07-15T20:38:56Z</time>
      </trkpt>
      <trkpt lat="41.862680" lon="-8.234720">
        <ele>311.210</ele>
        <time>2020-07-15T20:39:16Z</time>
      </trkpt>
      <trkpt lat="41.862840" lon="-8.234530">
        <ele>308.508</ele>
        <time>2020-07-15T20:39:36Z</time>
      </trkpt>
      <trkpt lat="41.862950" lon="-8.234310">
        <ele>307.948</ele>
        <time>2020-07-15T20:39:56Z</time>
      </trkpt>
      <trkpt lat="41.863010" lon="-8.234070">
        <ele>309.155</ele>
        <time>2020-07-15T20:40:16Z</time>
      </trkpt>
      <trkpt lat="41.863100" lon="-8.233340">
        <ele>317.040</ele>
        <time>2020-07-15T20:40:36Z</time>
      </trkpt>
      <trkpt lat="41.863100" lon="-8.232980">
        <ele>318.198</ele>
        <time>2020-07-15T20:40:56Z</time>
      </trkpt>
      <trkpt lat="41.863070" lon="-8.232730">
        <ele>317.425</ele>
        <time>2020-07-15T20:41:16Z</time>
      </trkpt>
      <trkpt lat="41.862550" lon="-8.229370">
        <ele>325.185</ele>
        <time>2020-07-15T20:41:36Z</time>
      </trkpt>
      <trkpt lat="41.862450" lon="-8.229140">
        <ele>324.635</ele>
        <time>2020-07-15T20:41:56Z</time>
      </trkpt>
      <trkpt lat="41.861630" lon="-8.227970">
        <ele>330.956</ele>
        <time>2020-07-15T20:42:16Z</time>
      </trkpt>
      <trkpt lat="41.861530" lon="-8.227770">
        <ele>333.419</ele>
        <time>2020-07-15T20:42:36Z</time>
      </trkpt>
      <trkpt lat="41.861440" lon="-8.227440">
        <ele>334.009</ele>
        <time>2020-07-15T20:42:56Z</time>
      </trkpt>
      <trkpt lat="41.861350" lon="-8.226880">
        <ele>336.219</ele>
        <time>2020-07-15T20:43:16Z</time>
      </trkpt>
      <trkpt lat="41.861240" lon="-8.226030">
        <ele>338.408</ele>
        <time>2020-07-15T20:43:36Z</time>
      </trkpt>
      <trkpt lat="41.861180" lon="-8.225790">
        <ele>339.266</ele>
        <time>2020-07-15T20:43:56Z</time>
      </trkpt>
      <trkpt lat="41.861080" lon="-8.225640">
        <ele>340.823</ele>
        <time>2020-07-15T20:44:16Z</time>
      </trkpt>
      <trkpt lat="41.860990" lon="-8.225560">
        <ele>341.388</ele>
        <time>2020-07-15T20:44:36Z</time>
      </trkpt>
      <trkpt lat="41.860570" lon="-8.225300">
        <ele>344.126</ele>
        <time>2020-07-15T20:44:56Z</time>
      </trkpt>
      <trkpt lat="41.860320" lon="-8.225110">
        <ele>346.693</ele>
        <time>2020-07-15T20:45:16Z</time>
      </trkpt>
      <trkpt lat="41.860180" lon="-8.224940">
        <ele>347.553</ele>
        <time>2020-07-15T20:45:36Z</time>
      </trkpt>
      <trkpt lat="41.859910" lon="-8.224300">
        <ele>344.893</ele>
        <time>2020-07-15T20:45:56Z</time>
      </trkpt>
      <trkpt lat="41.859720" lon="-8.223900">
        <ele>344.344</ele>
        <time>2020-07-15T20:46:16Z</time>
      </trkpt>
      <trkpt lat="41.859610" lon="-8.223610">
        <ele>341.419</ele>
        <time>2020-07-15T20:46:36Z</time>
      </trkpt>
      <trkpt lat="41.859580" lon="-8.223460">
        <ele>340.709</ele>
        <time>2020-07-15T20:46:56Z</time>
      </trkpt>
      <trkpt lat="41.859570" lon="-8.223160">
        <ele>340.619</ele>
        <time>2020-07-15T20:47:16Z</time>
      </trkpt>
      <trkpt lat="41.859600" lon="-8.223010">
        <ele>341.908</ele>
        <time>2020-07-15T20:47:36Z</time>
      </trkpt>
      <trkpt lat="41.859660" lon="-8.222840">
        <ele>345.396</ele>
        <time>2020-07-15T20:47:56Z</time>
      </trkpt>
      <trkpt lat="41.859760" lon="-8.222680">
        <ele>348.383</ele>
        <time>2020-07-15T20:48:16Z</time>
      </trkpt>
      <trkpt lat="41.859940" lon="-8.222510">
        <ele>349.888</ele>
        <time>2020-07-15T20:48:36Z</time>
      </trkpt>
      <trkpt lat="41.860320" lon="-8.222240">
        <ele>348.196</ele>
        <time>2020-07-15T20:48:56Z</time>
      </trkpt>
      <trkpt lat="41.861070" lon="-8.221530">
        <ele>345.343</ele>
        <time>2020-07-15T20:49:16Z</time>
      </trkpt>
      <trkpt lat="41.861220" lon="-8.221360">
        <ele>345.623</ele>
        <time>2020-07-15T20:49:36Z</time>
      </trkpt>
      <trkpt lat="41.861310" lon="-8.221220">
        <ele>346.593</ele>
        <time>2020-07-15T20:49:56Z</time>
      </trkpt>
      <trkpt lat="41.862100" lon="-8.219710">
        <ele>348.444</ele>
        <time>2020-07-15T20:50:16Z</time>
      </trkpt>
      <trkpt lat="41.862240" lon="-8.219510">
        <ele>348.858</ele>
        <time>2020-07-15T20:50:36Z</time>
      </trkpt>
      <trkpt lat="41.862320" lon="-8.219440">
        <ele>348.352</ele>
        <time>2020-07-15T20:50:56Z</time>
      </trkpt>
      <trkpt lat="41.862870" lon="-8.219130">
        <ele>349.917</ele>
        <time>2020-07-15T20:51:16Z</time>
      </trkpt>
      <trkpt lat="41.863190" lon="-8.219000">
        <ele>353.008</ele>
        <time>2020-07-15T20:51:36Z</time>
      </trkpt>
      <trkpt lat="41.863520" lon="-8.218920">
        <ele>354.650</ele>
        <time>2020-07-15T20:51:56Z</time>
      </trkpt>
      <trkpt lat="41.863990" lon="-8.218860">
        <ele>353.987</ele>
        <time>2020-07-15T20:52:16Z</time>
      </trkpt>
      <trkpt lat="41.864130" lon="-8.218820">
        <ele>353.852</ele>
        <time>2020-07-15T20:52:36Z</time>
      </trkpt>
      <trkpt lat="41.864280" lon="-8.218730">
        <ele>353.630</ele>
        <time>2020-07-15T20:52:56Z</time>
      </trkpt>
      <trkpt lat="41.864450" lon="-8.218520">
        <ele>354.547</ele>
        <time>2020-07-15T20:53:16Z</time>
      </trkpt>
      <trkpt lat="41.864510" lon="-8.218410">
        <ele>355.397</ele>
        <time>2020-07-15T20:53:36Z</time>
      </trkpt>
      <trkpt lat="41.864570" lon="-8.218200">
        <ele>356.777</ele>
        <time>2020-07-15T20:53:56Z</time>
      </trkpt>
      <trkpt lat="41.864590" lon="-8.217810">
        <ele>358.738</ele>
        <time>2020-07-15T20:54:16Z</time>
      </trkpt>
      <trkpt lat="41.864590" lon="-8.217080">
        <ele>359.965</ele>
        <time>2020-07-15T20:54:36Z</time>
      </trkpt>
      <trkpt lat="41.864560" lon="-8.216870">
        <ele>361.568</ele>
        <time>2020-07-15T20:54:56Z</time>
      </trkpt>
      <trkpt lat="41.864490" lon="-8.216730">
        <ele>362.514</ele>
        <time>2020-07-15T20:55:16Z</time>
      </trkpt>
      <trkpt lat="41.864060" lon="-8.216120">
        <ele>366.308</ele>
        <time>2020-07-15T20:55:36Z</time>
      </trkpt>
      <trkpt lat="41.863940" lon="-8.215890">
        <ele>368.761</ele>
        <time>2020-07-15T20:55:56Z</time>
      </trkpt>
      <trkpt lat="41.863370" lon="-8.214500">
        <ele>373.668</ele>
        <time>2020-07-15T20:56:16Z</time>
      </trkpt>
      <trkpt lat="41.863310" lon="-8.214280">
        <ele>375.733</ele>
        <time>2020-07-15T20:56:36Z</time>
      </trkpt>
      <trkpt lat="41.863300" lon="-8.214160">
        <ele>376.021</ele>
        <time>2020-07-15T20:56:56Z</time>
      </trkpt>
      <trkpt lat="41.863320" lon="-8.213980">
        <ele>376.798</ele>
        <time>2020-07-15T20:57:16Z</time>
      </trkpt>
      <trkpt lat="41.863360" lon="-8.213850">
        <ele>377.068</ele>
        <time>2020-07-15T20:57:36Z</time>
      </trkpt>
      <trkpt lat="41.863470" lon="-8.213710">
        <ele>377.118</ele>
        <time>2020-07-15T20:57:56Z</time>
      </trkpt>
      <trkpt lat="41.863840" lon="-8.213440">
        <ele>377.069</ele>
        <time>2020-07-15T20:58:16Z</time>
      </trkpt>
      <trkpt lat="41.864130" lon="-8.213280">
        <ele>378.085</ele>
        <time>2020-07-15T20:58:36Z</time>
      </trkpt>
      <trkpt lat="41.864870" lon="-8.212940">
        <ele>381.489</ele>
        <time>2020-07-15T20:58:56Z</time>
      </trkpt>
      <trkpt lat="41.864980" lon="-8.212870">
        <ele>381.917</ele>
        <time>2020-07-15T20:59:16Z</time>
      </trkpt>
      <trkpt lat="41.865080" lon="-8.212750">
        <ele>382.808</ele>
        <time>2020-07-15T20:59:36Z</time>
      </trkpt>
      <trkpt lat="41.865170" lon="-8.212570">
        <ele>383.983</ele>
        <time>2020-07-15T20:59:56Z</time>
      </trkpt>
      <trkpt lat="41.865310" lon="-8.211970">
        <ele>385.430</ele>
        <time>2020-07-15T21:00:16Z</time>
      </trkpt>
      <trkpt lat="41.865420" lon="-8.211600">
        <ele>389.345</ele>
        <time>2020-07-15T21:00:36Z</time>
      </trkpt>
      <trkpt lat="41.865530" lon="-8.211440">
        <ele>391.223</ele>
        <time>2020-07-15T21:00:56Z</time>
      </trkpt>
      <trkpt lat="41.865620" lon="-8.211360">
        <ele>391.830</ele>
        <time>2020-07-15T21:01:16Z</time>
      </trkpt>
      <trkpt lat="41.865730" lon="-8.211310">
        <ele>391.840</ele>
        <time>2020-07-15T21:01:36Z</time>
      </trkpt>
      <trkpt lat="41.866250" lon="-8.211150">
        <ele>392.570</ele>
        <time>2020-07-15T21:01:56Z</time>
      </trkpt>
      <trkpt lat="41.866340" lon="-8.211100">
        <ele>392.511</ele>
        <time>2020-07-15T21:02:16Z</time>
      </trkpt>
      <trkpt lat="41.866470" lon="-8.211000">
        <ele>392.552</ele>
        <time>2020-07-15T21:02:36Z</time>
      </trkpt>
      <trkpt lat="41.866570" lon="-8.210890">
        <ele>392.653</ele>
        <time>2020-07-15T21:02:56Z</time>
      </trkpt>
      <trkpt lat="41.866680" lon="-8.210630">
        <ele>393.808</ele>
        <time>2020-07-15T21:03:16Z</time>
      </trkpt>
      <trkpt lat="41.866700" lon="-8.210330">
        <ele>397.108</ele>
        <time>2020-07-15T21:03:36Z</time>
      </trkpt>
      <trkpt lat="41.866660" lon="-8.210180">
        <ele>399.840</ele>
        <time>2020-07-15T21:03:56Z</time>
      </trkpt>
      <trkpt lat="41.866600" lon="-8.210030">
        <ele>402.057</ele>
        <time>2020-07-15T21:04:16Z</time>
      </trkpt>
      <trkpt lat="41.866210" lon="-8.209290">
        <ele>409.092</ele>
        <time>2020-07-15T21:04:36Z</time>
      </trkpt>
      <trkpt lat="41.866140" lon="-8.209090">
        <ele>410.620</ele>
        <time>2020-07-15T21:04:56Z</time>
      </trkpt>
      <trkpt lat="41.866120" lon="-8.208840">
        <ele>412.087</ele>
        <time>2020-07-15T21:05:16Z</time>
      </trkpt>
      <trkpt lat="41.866150" lon="-8.208610">
        <ele>412.277</ele>
        <time>2020-07-15T21:05:36Z</time>
      </trkpt>
      <trkpt lat="41.867090" lon="-8.206050">
        <ele>417.677</ele>
        <time>2020-07-15T21:05:56Z</time>
      </trkpt>
      <trkpt lat="41.867150" lon="-8.205770">
        <ele>417.758</ele>
        <time>2020-07-15T21:06:16Z</time>
      </trkpt>
      <trkpt lat="41.867190" lon="-8.205270">
        <ele>418.197</ele>
        <time>2020-07-15T21:06:36Z</time>
      </trkpt>
      <trkpt lat="41.867170" lon="-8.205070">
        <ele>416.823</ele>
        <time>2020-07-15T21:06:56Z</time>
      </trkpt>
      <trkpt lat="41.867100" lon="-8.204820">
        <ele>416.325</ele>
        <time>2020-07-15T21:07:16Z</time>
      </trkpt>
      <trkpt lat="41.866950" lon="-8.204520">
        <ele>415.308</ele>
        <time>2020-07-15T21:07:36Z</time>
      </trkpt>
      <trkpt lat="41.866340" lon="-8.203730">
        <ele>415.664</ele>
        <time>2020-07-15T21:07:56Z</time>
      </trkpt>
      <trkpt lat="41.866210" lon="-8.203500">
        <ele>415.571</ele>
        <time>2020-07-15T21:08:16Z</time>
      </trkpt>
      <trkpt lat="41.866150" lon="-8.203300">
        <ele>415.746</ele>
        <time>2020-07-15T21:08:36Z</time>
      </trkpt>
      <trkpt lat="41.866160" lon="-8.203080">
        <ele>415.674</ele>
        <time>2020-07-15T21:08:56Z</time>
      </trkpt>
      <trkpt lat="41.866200" lon="-8.202940">
        <ele>416.311</ele>
        <time>2020-07-15T21:09:16Z</time>
      </trkpt>
      <trkpt lat="41.866480" lon="-8.202350">
        <ele>420.771</ele>
        <time>2020-07-15T21:09:36Z</time>
      </trkpt>
      <trkpt lat="41.866820" lon="-8.201720">
        <ele>423.161</ele>
        <time>2020-07-15T21:09:56Z</time>
      </trkpt>
      <trkpt lat="41.868500" lon="-8.199550">
        <ele>428.332</ele>
        <time>2020-07-15T21:10:16Z</time>
      </trkpt>
      <trkpt lat="41.868600" lon="-8.199340">
        <ele>428.986</ele>
        <time>2020-07-15T21:10:36Z</time>
      </trkpt>
      <trkpt lat="41.868690" lon="-8.199070">
        <ele>429.060</ele>
        <time>2020-07-15T21:10:56Z</time>
      </trkpt>
      <trkpt lat="41.869320" lon="-8.195430">
        <ele>431.126</ele>
        <time>2020-07-15T21:11:16Z</time>
      </trkpt>
      <trkpt lat="41.869370" lon="-8.195260">
        <ele>430.808</ele>
        <time>2020-07-15T21:11:36Z</time>
      </trkpt>
      <trkpt lat="41.869510" lon="-8.195050">
        <ele>431.483</ele>
        <time>2020-07-15T21:11:56Z</time>
      </trkpt>
      <trkpt lat="41.869590" lon="-8.194970">
        <ele>432.170</ele>
        <time>2020-07-15T21:12:16Z</time>
      </trkpt>
      <trkpt lat="41.869680" lon="-8.194930">
        <ele>432.475</ele>
        <time>2020-07-15T21:12:36Z</time>
      </trkpt>
      <trkpt lat="41.869990" lon="-8.194880">
        <ele>428.663</ele>
        <time>2020-07-15T21:12:56Z</time>
      </trkpt>
      <trkpt lat="41.870400" lon="-8.194850">
        <ele>423.460</ele>
        <time>2020-07-15T21:13:16Z</time>
      </trkpt>
      <trkpt lat="41.870540" lon="-8.194800">
        <ele>422.360</ele>
        <time>2020-07-15T21:13:36Z</time>
      </trkpt>
      <trkpt lat="41.870760" lon="-8.194680">
        <ele>421.510</ele>
        <time>2020-07-15T21:13:56Z</time>
      </trkpt>
      <trkpt lat="41.871420" lon="-8.194010">
        <ele>414.281</ele>
        <time>2020-07-15T21:14:16Z</time>
      </trkpt>
      <trkpt lat="41.871520" lon="-8.193890">
        <ele>414.155</ele>
        <time>2020-07-15T21:14:36Z</time>
      </trkpt>
      <trkpt lat="41.871590" lon="-8.193770">
        <ele>414.507</ele>
        <time>2020-07-15T21:14:56Z</time>
      </trkpt>
      <trkpt lat="41.871650" lon="-8.193600">
        <ele>415.317</ele>
        <time>2020-07-15T21:15:16Z</time>
      </trkpt>
      <trkpt lat="41.871710" lon="-8.193350">
        <ele>415.208</ele>
        <time>2020-07-15T21:15:36Z</time>
      </trkpt>
      <trkpt lat="41.871690" lon="-8.193090">
        <ele>414.610</ele>
        <time>2020-07-15T21:15:56Z</time>
      </trkpt>
      <trkpt lat="41.871640" lon="-8.192940">
        <ele>414.267</ele>
        <time>2020-07-15T21:16:16Z</time>
      </trkpt>
      <trkpt lat="41.871910" lon="-8.192710">
        <ele>408.222</ele>
        <time>2020-07-15T21:16:36Z</time>
      </trkpt>
      <trkpt lat="41.872170" lon="-8.192550">
        <ele>405.340</ele>
        <time>2020-07-15T21:16:56Z</time>
      </trkpt>
      <trkpt lat="41.872310" lon="-8.192850">
        <ele>402.587</ele>
        <time>2020-07-15T21:17:16Z</time>
      </trkpt>
      <trkpt lat="41.872460" lon="-8.193680">
        <ele>395.437</ele>
        <time>2020-07-15T21:17:36Z</time>
      </trkpt>
      <trkpt lat="41.872470" lon="-8.193920">
        <ele>392.437</ele>
        <time>2020-07-15T21:17:56Z</time>
      </trkpt>
      <trkpt lat="41.872460" lon="-8.194120">
        <ele>389.978</ele>
        <time>2020-07-15T21:18:16Z</time>
      </trkpt>
      <trkpt lat="41.872410" lon="-8.194310">
        <ele>389.224</ele>
        <time>2020-07-15T21:18:36Z</time>
      </trkpt>
      <trkpt lat="41.872250" lon="-8.194540">
        <ele>390.504</ele>
        <time>2020-07-15T21:18:56Z</time>
      </trkpt>
      <trkpt lat="41.871740" lon="-8.195160">
        <ele>389.414</ele>
        <time>2020-07-15T21:19:16Z</time>
      </trkpt>
      <trkpt lat="41.871370" lon="-8.195720">
        <ele>390.208</ele>
        <time>2020-07-15T21:19:36Z</time>
      </trkpt>
      <trkpt lat="41.871450" lon="-8.195840">
        <ele>387.987</ele>
        <time>2020-07-15T21:19:56Z</time>
      </trkpt>
      <trkpt lat="41.871500" lon="-8.195990">
        <ele>388.014</ele>
        <time>2020-07-15T21:20:16Z</time>
      </trkpt>
      <trkpt lat="41.871540" lon="-8.196060">
        <ele>388.039</ele>
        <time>2020-07-15T21:20:36Z</time>
      </trkpt>
      <trkpt lat="41.872040" lon="-8.196390">
        <ele>382.627</ele>
        <time>2020-07-15T21:20:56Z</time>
      </trkpt>
      <trkpt lat="41.872210" lon="-8.196560">
        <ele>377.874</ele>
        <time>2020-07-15T21:21:16Z</time>
      </trkpt>
      <trkpt lat="41.872310" lon="-8.196730">
        <ele>375.364</ele>
        <time>2020-07-15T21:21:36Z</time>
      </trkpt>
      <trkpt lat="41.872470" lon="-8.197120">
        <ele>374.584</ele>
        <time>2020-07-15T21:21:56Z</time>
      </trkpt>
      <trkpt lat="41.872560" lon="-8.197430">
        <ele>372.395</ele>
        <time>2020-07-15T21:22:16Z</time>
      </trkpt>
      <trkpt lat="41.872600" lon="-8.197700">
        <ele>369.153</ele>
        <time>2020-07-15T21:22:36Z</time>
      </trkpt>
      <trkpt lat="41.872600" lon="-8.197970">
        <ele>365.904</ele>
        <time>2020-07-15T21:22:56Z</time>
      </trkpt>
      <trkpt lat="41.872550" lon="-8.198260">
        <ele>362.714</ele>
        <time>2020-07-15T21:23:16Z</time>
      </trkpt>
      <trkpt lat="41.872260" lon="-8.198980">
        <ele>358.708</ele>
        <time>2020-07-15T21:23:36Z</time>
      </trkpt>
      <trkpt lat="41.872150" lon="-8.199170">
        <ele>360.810</ele>
        <time>2020-07-15T21:23:56Z</time>
      </trkpt>
      <trkpt lat="41.871530" lon="-8.199970">
        <ele>356.927</ele>
        <time>2020-07-15T21:24:16Z</time>
      </trkpt>
      <trkpt lat="41.871060" lon="-8.200770">
        <ele>352.722</ele>
        <time>2020-07-15T21:24:36Z</time>
      </trkpt>
      <trkpt lat="41.870960" lon="-8.200970">
        <ele>351.470</ele>
        <time>2020-07-15T21:24:56Z</time>
      </trkpt>
      <trkpt lat="41.870900" lon="-8.201110">
        <ele>349.247</ele>
        <time>2020-07-15T21:25:16Z</time>
      </trkpt>
      <trkpt lat="41.870800" lon="-8.201520">
        <ele>342.957</ele>
        <time>2020-07-15T21:25:36Z</time>
      </trkpt>
      <trkpt lat="41.870730" lon="-8.202120">
        <ele>342.787</ele>
        <time>2020-07-15T21:25:56Z</time>
      </trkpt>
      <trkpt lat="41.870730" lon="-8.202230">
        <ele>341.688</ele>
        <time>2020-07-15T21:26:16Z</time>
      </trkpt>
      <trkpt lat="41.870760" lon="-8.202360">
        <ele>338.022</ele>
        <time>2020-07-15T21:26:36Z</time>
      </trkpt>
      <trkpt lat="41.870800" lon="-8.202430">
        <ele>334.762</ele>
        <time>2020-07-15T21:26:56Z</time>
      </trkpt>
      <trkpt lat="41.870850" lon="-8.202470">
        <ele>331.608</ele>
        <time>2020-07-15T21:27:16Z</time>
      </trkpt>
      <trkpt lat="41.870920" lon="-8.202500">
        <ele>328.308</ele>
        <time>2020-07-15T21:27:36Z</time>
      </trkpt>
      <trkpt lat="41.871290" lon="-8.202550">
        <ele>310.127</ele>
        <time>2020-07-15T21:27:56Z</time>
      </trkpt>
      <trkpt lat="41.871700" lon="-8.202650">
        <ele>298.154</ele>
        <time>2020-07-15T21:28:16Z</time>
      </trkpt>
      <trkpt lat="41.871830" lon="-8.202710">
        <ele>298.849</ele>
        <time>2020-07-15T21:28:36Z</time>
      </trkpt>
      <trkpt lat="41.872100" lon="-8.202870">
        <ele>299.017</ele>
        <time>2020-07-15T21:28:56Z</time>
      </trkpt>
      <trkpt lat="41.872360" lon="-8.203160">
        <ele>298.684</ele>
        <time>2020-07-15T21:29:16Z</time>
      </trkpt>
      <trkpt lat="41.872500" lon="-8.203380">
        <ele>305.634</ele>
        <time>2020-07-15T21:29:36Z</time>
      </trkpt>
      <trkpt lat="41.872580" lon="-8.203600">
        <ele>298.544</ele>
        <time>2020-07-15T21:29:56Z</time>
      </trkpt>
      <trkpt lat="41.872680" lon="-8.204110">
        <ele>301.585</ele>
        <time>2020-07-15T21:30:16Z</time>
      </trkpt>
      <trkpt lat="41.872700" lon="-8.204330">
        <ele>303.054</ele>
        <time>2020-07-15T21:30:36Z</time>
      </trkpt>
      <trkpt lat="41.872770" lon="-8.204640">
        <ele>307.456</ele>
        <time>2020-07-15T21:30:56Z</time>
      </trkpt>
      <trkpt lat="41.872840" lon="-8.204730">
        <ele>313.111</ele>
        <time>2020-07-15T21:31:16Z</time>
      </trkpt>
      <trkpt lat="41.872940" lon="-8.204790">
        <ele>321.908</ele>
        <time>2020-07-15T21:31:36Z</time>
      </trkpt>
      <trkpt lat="41.873520" lon="-8.204920">
        <ele>348.390</ele>
        <time>2020-07-15T21:31:56Z</time>
      </trkpt>
      <trkpt lat="41.873740" lon="-8.205240">
        <ele>349.727</ele>
        <time>2020-07-15T21:32:16Z</time>
      </trkpt>
      <trkpt lat="41.873850" lon="-8.205460">
        <ele>351.712</ele>
        <time>2020-07-15T21:32:36Z</time>
      </trkpt>
      <trkpt lat="41.873910" lon="-8.205640">
        <ele>353.410</ele>
        <time>2020-07-15T21:32:56Z</time>
      </trkpt>
      <trkpt lat="41.874250" lon="-8.206410">
        <ele>357.087</ele>
        <time>2020-07-15T21:33:16Z</time>
      </trkpt>
      <trkpt lat="41.874490" lon="-8.206980">
        <ele>359.757</ele>
        <time>2020-07-15T21:33:36Z</time>
      </trkpt>
      <trkpt lat="41.874600" lon="-8.207290">
        <ele>362.787</ele>
        <time>2020-07-15T21:33:56Z</time>
      </trkpt>
      <trkpt lat="41.874630" lon="-8.207420">
        <ele>363.958</ele>
        <time>2020-07-15T21:34:16Z</time>
      </trkpt>
      <trkpt lat="41.874660" lon="-8.207890">
        <ele>367.968</ele>
        <time>2020-07-15T21:34:36Z</time>
      </trkpt>
      <trkpt lat="41.874640" lon="-8.208300">
        <ele>368.142</ele>
        <time>2020-07-15T21:34:56Z</time>
      </trkpt>
      <trkpt lat="41.874560" lon="-8.208680">
        <ele>369.126</ele>
        <time>2020-07-15T21:35:16Z</time>
      </trkpt>
      <trkpt lat="41.874460" lon="-8.208920">
        <ele>371.808</ele>
        <time>2020-07-15T21:35:36Z</time>
      </trkpt>
      <trkpt lat="41.874300" lon="-8.209170">
        <ele>373.041</ele>
        <time>2020-07-15T21:35:56Z</time>
      </trkpt>
      <trkpt lat="41.873980" lon="-8.209590">
        <ele>374.068</ele>
        <time>2020-07-15T21:36:16Z</time>
      </trkpt>
      <trkpt lat="41.873810" lon="-8.209920">
        <ele>373.413</ele>
        <time>2020-07-15T21:36:36Z</time>
      </trkpt>
      <trkpt lat="41.873740" lon="-8.210300">
        <ele>372.881</ele>
        <time>2020-07-15T21:36:56Z</time>
      </trkpt>
      <trkpt lat="41.873750" lon="-8.210480">
        <ele>372.848</ele>
        <time>2020-07-15T21:37:16Z</time>
      </trkpt>
      <trkpt lat="41.873790" lon="-8.210700">
        <ele>373.168</ele>
        <time>2020-07-15T21:37:36Z</time>
      </trkpt>
      <trkpt lat="41.873950" lon="-8.211270">
        <ele>370.388</ele>
        <time>2020-07-15T21:37:56Z</time>
      </trkpt>
      <trkpt lat="41.874120" lon="-8.211490">
        <ele>378.969</ele>
        <time>2020-07-15T21:38:16Z</time>
      </trkpt>
      <trkpt lat="41.874230" lon="-8.211710">
        <ele>383.113</ele>
        <time>2020-07-15T21:38:36Z</time>
      </trkpt>
      <trkpt lat="41.874330" lon="-8.212040">
        <ele>388.543</ele>
        <time>2020-07-15T21:38:56Z</time>
      </trkpt>
      <trkpt lat="41.874470" lon="-8.212660">
        <ele>383.707</ele>
        <time>2020-07-15T21:39:16Z</time>
      </trkpt>
      <trkpt lat="41.874540" lon="-8.212820">
        <ele>383.408</ele>
        <time>2020-07-15T21:39:36Z</time>
      </trkpt>
      <trkpt lat="41.875300" lon="-8.213990">
        <ele>398.996</ele>
        <time>2020-07-15T21:39:56Z</time>
      </trkpt>
      <trkpt lat="41.875430" lon="-8.214260">
        <ele>397.153</ele>
        <time>2020-07-15T21:40:16Z</time>
      </trkpt>
      <trkpt lat="41.875480" lon="-8.214490">
        <ele>393.538</ele>
        <time>2020-07-15T21:40:36Z</time>
      </trkpt>
      <trkpt lat="41.875490" lon="-8.214690">
        <ele>388.826</ele>
        <time>2020-07-15T21:40:56Z</time>
      </trkpt>
      <trkpt lat="41.875480" lon="-8.214820">
        <ele>387.283</ele>
        <time>2020-07-15T21:41:16Z</time>
      </trkpt>
      <trkpt lat="41.875390" lon="-8.215120">
        <ele>384.383</ele>
        <time>2020-07-15T21:41:36Z</time>
      </trkpt>
      <trkpt lat="41.875310" lon="-8.215280">
        <ele>384.093</ele>
        <time>2020-07-15T21:41:56Z</time>
      </trkpt>
      <trkpt lat="41.875080" lon="-8.215610">
        <ele>387.214</ele>
        <time>2020-07-15T21:42:16Z</time>
      </trkpt>
      <trkpt lat="41.874950" lon="-8.215770">
        <ele>388.561</ele>
        <time>2020-07-15T21:42:36Z</time>
      </trkpt>
      <trkpt lat="41.874740" lon="-8.216100">
        <ele>389.421</ele>
        <time>2020-07-15T21:42:56Z</time>
      </trkpt>
      <trkpt lat="41.874460" lon="-8.216820">
        <ele>397.313</ele>
        <time>2020-07-15T21:43:16Z</time>
      </trkpt>
      <trkpt lat="41.873800" lon="-8.217940">
        <ele>407.408</ele>
        <time>2020-07-15T21:43:36Z</time>
      </trkpt>
      <trkpt lat="41.873390" lon="-8.218500">
        <ele>411.081</ele>
        <time>2020-07-15T21:43:56Z</time>
      </trkpt>
      <trkpt lat="41.872930" lon="-8.219210">
        <ele>412.238</ele>
        <time>2020-07-15T21:44:16Z</time>
      </trkpt>
      <trkpt lat="41.872730" lon="-8.219550">
        <ele>408.773</ele>
        <time>2020-07-15T21:44:36Z</time>
      </trkpt>
      <trkpt lat="41.872680" lon="-8.219780">
        <ele>405.711</ele>
        <time>2020-07-15T21:44:56Z</time>
      </trkpt>
      <trkpt lat="41.872680" lon="-8.219930">
        <ele>404.638</ele>
        <time>2020-07-15T21:45:16Z</time>
      </trkpt>
      <trkpt lat="41.872740" lon="-8.220170">
        <ele>405.168</ele>
        <time>2020-07-15T21:45:36Z</time>
      </trkpt>
      <trkpt lat="41.873190" lon="-8.221000">
        <ele>419.148</ele>
        <time>2020-07-15T21:45:56Z</time>
      </trkpt>
      <trkpt lat="41.873630" lon="-8.221730">
        <ele>419.189</ele>
        <time>2020-07-15T21:46:16Z</time>
      </trkpt>
      <trkpt lat="41.873880" lon="-8.222010">
        <ele>423.436</ele>
        <time>2020-07-15T21:46:36Z</time>
      </trkpt>
      <trkpt lat="41.874030" lon="-8.222140">
        <ele>426.817</ele>
        <time>2020-07-15T21:46:56Z</time>
      </trkpt>
      <trkpt lat="41.874360" lon="-8.222490">
        <ele>437.018</ele>
        <time>2020-07-15T21:47:16Z</time>
      </trkpt>
      <trkpt lat="41.875100" lon="-8.223590">
        <ele>445.608</ele>
        <time>2020-07-15T21:47:36Z</time>
      </trkpt>
      <trkpt lat="41.875110" lon="-8.223480">
        <ele>444.818</ele>
        <time>2020-07-15T21:47:56Z</time>
      </trkpt>
      <trkpt lat="41.875150" lon="-8.223380">
        <ele>444.415</ele>
        <time>2020-07-15T21:48:16Z</time>
      </trkpt>
      <trkpt lat="41.875240" lon="-8.223190">
        <ele>444.740</ele>
        <time>2020-07-15T21:48:36Z</time>
      </trkpt>
      <trkpt lat="41.875370" lon="-8.223020">
        <ele>447.868</ele>
        <time>2020-07-15T21:48:56Z</time>
      </trkpt>
      <trkpt lat="41.875450" lon="-8.222810">
        <ele>450.695</ele>
        <time>2020-07-15T21:49:16Z</time>
      </trkpt>
      <trkpt lat="41.875650" lon="-8.222040">
        <ele>456.835</ele>
        <time>2020-07-15T21:49:36Z</time>
      </trkpt>
      <trkpt lat="41.875660" lon="-8.221950">
        <ele>457.615</ele>
        <time>2020-07-15T21:49:56Z</time>
      </trkpt>
      <trkpt lat="41.875650" lon="-8.221740">
        <ele>459.386</ele>
        <time>2020-07-15T21:50:16Z</time>
      </trkpt>
      <trkpt lat="41.875610" lon="-8.221570">
        <ele>459.927</ele>
        <time>2020-07-15T21:50:36Z</time>
      </trkpt>
      <trkpt lat="41.875480" lon="-8.221290">
        <ele>460.768</ele>
        <time>2020-07-15T21:50:56Z</time>
      </trkpt>
      <trkpt lat="41.875320" lon="-8.221110">
        <ele>461.614</ele>
        <time>2020-07-15T21:51:16Z</time>
      </trkpt>
      <trkpt lat="41.875120" lon="-8.220980">
        <ele>461.308</ele>
        <time>2020-07-15T21:51:36Z</time>
      </trkpt>
      <trkpt lat="41.874770" lon="-8.220830">
        <ele>458.517</ele>
        <time>2020-07-15T21:51:56Z</time>
      </trkpt>
      <trkpt lat="41.874740" lon="-8.220730">
        <ele>458.254</ele>
        <time>2020-07-15T21:52:16Z</time>
      </trkpt>
      <trkpt lat="41.874760" lon="-8.220660">
        <ele>458.439</ele>
        <time>2020-07-15T21:52:36Z</time>
      </trkpt>
      <trkpt lat="41.874870" lon="-8.220560">
        <ele>459.627</ele>
        <time>2020-07-15T21:52:56Z</time>
      </trkpt>
      <trkpt lat="41.875000" lon="-8.220470">
        <ele>461.374</ele>
        <time>2020-07-15T21:53:16Z</time>
      </trkpt>
      <trkpt lat="41.875380" lon="-8.220110">
        <ele>467.284</ele>
        <time>2020-07-15T21:53:36Z</time>
      </trkpt>
      <trkpt lat="41.875570" lon="-8.219870">
        <ele>468.684</ele>
        <time>2020-07-15T21:53:56Z</time>
      </trkpt>
      <trkpt lat="41.875640" lon="-8.219830">
        <ele>468.965</ele>
        <time>2020-07-15T21:54:16Z</time>
      </trkpt>
      <trkpt lat="41.875720" lon="-8.219810">
        <ele>469.322</ele>
        <time>2020-07-15T21:54:36Z</time>
      </trkpt>
      <trkpt lat="41.875960" lon="-8.219810">
        <ele>471.162</ele>
        <time>2020-07-15T21:54:56Z</time>
      </trkpt>
      <trkpt lat="41.876100" lon="-8.219790">
        <ele>472.108</ele>
        <time>2020-07-15T21:55:16Z</time>
      </trkpt>
      <trkpt lat="41.876370" lon="-8.219650">
        <ele>473.208</ele>
        <time>2020-07-15T21:55:36Z</time>
      </trkpt>
      <trkpt lat="41.876540" lon="-8.219590">
        <ele>474.927</ele>
        <time>2020-07-15T21:55:56Z</time>
      </trkpt>
      <trkpt lat="41.876730" lon="-8.219580">
        <ele>476.834</ele>
        <time>2020-07-15T21:56:16Z</time>
      </trkpt>
      <trkpt lat="41.877370" lon="-8.219640">
        <ele>482.949</ele>
        <time>2020-07-15T21:56:36Z</time>
      </trkpt>
      <trkpt lat="41.877570" lon="-8.219620">
        <ele>486.217</ele>
        <time>2020-07-15T21:56:56Z</time>
      </trkpt>
      <trkpt lat="41.878570" lon="-8.219280">
        <ele>491.044</ele>
        <time>2020-07-15T21:57:16Z</time>
      </trkpt>
      <trkpt lat="41.878760" lon="-8.219230">
        <ele>490.584</ele>
        <time>2020-07-15T21:57:36Z</time>
      </trkpt>
      <trkpt lat="41.879410" lon="-8.219270">
        <ele>496.364</ele>
        <time>2020-07-15T21:57:56Z</time>
      </trkpt>
      <trkpt lat="41.879580" lon="-8.219340">
        <ele>501.325</ele>
        <time>2020-07-15T21:58:16Z</time>
      </trkpt>
      <trkpt lat="41.879760" lon="-8.219380">
        <ele>504.957</ele>
        <time>2020-07-15T21:58:36Z</time>
      </trkpt>
      <trkpt lat="41.880170" lon="-8.219330">
        <ele>507.200</ele>
        <time>2020-07-15T21:58:56Z</time>
      </trkpt>
      <trkpt lat="41.880370" lon="-8.219360">
        <ele>509.120</ele>
        <time>2020-07-15T21:59:16Z</time>
      </trkpt>
      <trkpt lat="41.880480" lon="-8.219340">
        <ele>509.608</ele>
        <time>2020-07-15T21:59:36Z</time>
      </trkpt>
      <trkpt lat="41.881290" lon="-8.218840">
        <ele>503.430</ele>
        <time>2020-07-15T21:59:56Z</time>
      </trkpt>
      <trkpt lat="41.881490" lon="-8.218760">
        <ele>505.127</ele>
        <time>2020-07-15T22:00:16Z</time>
      </trkpt>
      <trkpt lat="41.881760" lon="-8.218750">
        <ele>508.512</ele>
        <time>2020-07-15T22:00:36Z</time>
      </trkpt>
      <trkpt lat="41.881910" lon="-8.218720">
        <ele>509.860</ele>
        <time>2020-07-15T22:00:56Z</time>
      </trkpt>
      <trkpt lat="41.882570" lon="-8.218380">
        <ele>515.347</ele>
        <time>2020-07-15T22:01:16Z</time>
      </trkpt>
      <trkpt lat="41.882810" lon="-8.218070">
        <ele>514.137</ele>
        <time>2020-07-15T22:01:36Z</time>
      </trkpt>
      <trkpt lat="41.883050" lon="-8.217830">
        <ele>515.017</ele>
        <time>2020-07-15T22:01:56Z</time>
      </trkpt>
      <trkpt lat="41.883710" lon="-8.217260">
        <ele>520.848</ele>
        <time>2020-07-15T22:02:16Z</time>
      </trkpt>
      <trkpt lat="41.883760" lon="-8.217190">
        <ele>521.761</ele>
        <time>2020-07-15T22:02:36Z</time>
      </trkpt>
      <trkpt lat="41.883780" lon="-8.217040">
        <ele>521.621</ele>
        <time>2020-07-15T22:02:56Z</time>
      </trkpt>
      <trkpt lat="41.883710" lon="-8.216460">
        <ele>522.613</ele>
        <time>2020-07-15T22:03:16Z</time>
      </trkpt>
      <trkpt lat="41.883640" lon="-8.216320">
        <ele>522.708</ele>
        <time>2020-07-15T22:03:36Z</time>
      </trkpt>
      <trkpt lat="41.883440" lon="-8.216150">
        <ele>519.461</ele>
        <time>2020-07-15T22:03:56Z</time>
      </trkpt>
      <trkpt lat="41.883370" lon="-8.216060">
        <ele>518.588</ele>
        <time>2020-07-15T22:04:16Z</time>
      </trkpt>
      <trkpt lat="41.883350" lon="-8.215880">
        <ele>521.643</ele>
        <time>2020-07-15T22:04:36Z</time>
      </trkpt>
      <trkpt lat="41.883350" lon="-8.215580">
        <ele>527.151</ele>
        <time>2020-07-15T22:04:56Z</time>
      </trkpt>
      <trkpt lat="41.883320" lon="-8.215320">
        <ele>531.028</ele>
        <time>2020-07-15T22:05:16Z</time>
      </trkpt>
      <trkpt lat="41.883250" lon="-8.215130">
        <ele>532.368</ele>
        <time>2020-07-15T22:05:36Z</time>
      </trkpt>
      <trkpt lat="41.883180" lon="-8.215040">
        <ele>532.368</ele>
        <time>2020-07-15T22:05:56Z</time>
      </trkpt>
      <trkpt lat="41.883060" lon="-8.214980">
        <ele>531.339</ele>
        <time>2020-07-15T22:06:16Z</time>
      </trkpt>
      <trkpt lat="41.882810" lon="-8.214940">
        <ele>529.085</ele>
        <time>2020-07-15T22:06:36Z</time>
      </trkpt>
      <trkpt lat="41.882770" lon="-8.214920">
        <ele>528.889</ele>
        <time>2020-07-15T22:06:56Z</time>
      </trkpt>
      <trkpt lat="41.882740" lon="-8.214840">
        <ele>529.417</ele>
        <time>2020-07-15T22:07:16Z</time>
      </trkpt>
      <trkpt lat="41.882740" lon="-8.214710">
        <ele>530.608</ele>
        <time>2020-07-15T22:07:36Z</time>
      </trkpt>
      <trkpt lat="41.882780" lon="-8.214620">
        <ele>531.433</ele>
        <time>2020-07-15T22:07:56Z</time>
      </trkpt>
      <trkpt lat="41.882840" lon="-8.214580">
        <ele>532.050</ele>
        <time>2020-07-15T22:08:16Z</time>
      </trkpt>
      <trkpt lat="41.883620" lon="-8.214410">
        <ele>537.715</ele>
        <time>2020-07-15T22:08:36Z</time>
      </trkpt>
      <trkpt lat="41.883700" lon="-8.214420">
        <ele>539.383</ele>
        <time>2020-07-15T22:08:56Z</time>
      </trkpt>
      <trkpt lat="41.883790" lon="-8.214400">
        <ele>540.790</ele>
        <time>2020-07-15T22:09:16Z</time>
      </trkpt>
      <trkpt lat="41.884070" lon="-8.214260">
        <ele>543.860</ele>
        <time>2020-07-15T22:09:36Z</time>
      </trkpt>
      <trkpt lat="41.884310" lon="-8.214200">
        <ele>548.630</ele>
        <time>2020-07-15T22:09:56Z</time>
      </trkpt>
      <trkpt lat="41.884430" lon="-8.214120">
        <ele>551.411</ele>
        <time>2020-07-15T22:10:16Z</time>
      </trkpt>
      <trkpt lat="41.884480" lon="-8.214040">
        <ele>552.977</ele>
        <time>2020-07-15T22:10:36Z</time>
      </trkpt>
      <trkpt lat="41.884500" lon="-8.213910">
        <ele>553.361</ele>
        <time>2020-07-15T22:10:56Z</time>
      </trkpt>
      <trkpt lat="41.884480" lon="-8.213750">
        <ele>553.527</ele>
        <time>2020-07-15T22:11:16Z</time>
      </trkpt>
      <trkpt lat="41.884300" lon="-8.213270">
        <ele>553.808</ele>
        <time>2020-07-15T22:11:36Z</time>
      </trkpt>
      <trkpt lat="41.884170" lon="-8.212610">
        <ele>562.792</ele>
        <time>2020-07-15T22:11:56Z</time>
      </trkpt>
      <trkpt lat="41.884120" lon="-8.212210">
        <ele>564.349</ele>
        <time>2020-07-15T22:12:16Z</time>
      </trkpt>
      <trkpt lat="41.884180" lon="-8.211390">
        <ele>564.314</ele>
        <time>2020-07-15T22:12:36Z</time>
      </trkpt>
      <trkpt lat="41.884220" lon="-8.211230">
        <ele>565.512</ele>
        <time>2020-07-15T22:12:56Z</time>
      </trkpt>
      <trkpt lat="41.884350" lon="-8.210900">
        <ele>569.369</ele>
        <time>2020-07-15T22:13:16Z</time>
      </trkpt>
      <trkpt lat="41.884600" lon="-8.210510">
        <ele>572.959</ele>
        <time>2020-07-15T22:13:36Z</time>
      </trkpt>
      <trkpt lat="41.884670" lon="-8.210510">
        <ele>573.399</ele>
        <time>2020-07-15T22:13:56Z</time>
      </trkpt>
      <trkpt lat="41.884830" lon="-8.210650">
        <ele>573.990</ele>
        <time>2020-07-15T22:14:16Z</time>
      </trkpt>
      <trkpt lat="41.885030" lon="-8.210760">
        <ele>573.393</ele>
        <time>2020-07-15T22:14:36Z</time>
      </trkpt>
      <trkpt lat="41.886150" lon="-8.211810">
        <ele>588.765</ele>
        <time>2020-07-15T22:14:56Z</time>
      </trkpt>
      <trkpt lat="41.886500" lon="-8.212160">
        <ele>592.521</ele>
        <time>2020-07-15T22:15:16Z</time>
      </trkpt>
      <trkpt lat="41.886940" lon="-8.212830">
        <ele>600.808</ele>
        <time>2020-07-15T22:15:36Z</time>
      </trkpt>
      <trkpt lat="41.887030" lon="-8.212990">
        <ele>603.134</ele>
        <time>2020-07-15T22:15:56Z</time>
      </trkpt>
      <trkpt lat="41.887000" lon="-8.213130">
        <ele>605.131</ele>
        <time>2020-07-15T22:16:16Z</time>
      </trkpt>
      <trkpt lat="41.886780" lon="-8.213670">
        <ele>610.126</ele>
        <time>2020-07-15T22:16:36Z</time>
      </trkpt>
      <trkpt lat="41.886790" lon="-8.213800">
        <ele>610.334</ele>
        <time>2020-07-15T22:16:56Z</time>
      </trkpt>
      <trkpt lat="41.886830" lon="-8.213890">
        <ele>610.681</ele>
        <time>2020-07-15T22:17:16Z</time>
      </trkpt>
      <trkpt lat="41.886970" lon="-8.214020">
        <ele>610.781</ele>
        <time>2020-07-15T22:17:36Z</time>
      </trkpt>
      <trkpt lat="41.887350" lon="-8.214230">
        <ele>612.711</ele>
        <time>2020-07-15T22:17:56Z</time>
      </trkpt>
      <trkpt lat="41.888040" lon="-8.214350">
        <ele>616.942</ele>
        <time>2020-07-15T22:18:16Z</time>
      </trkpt>
      <trkpt lat="41.888210" lon="-8.214410">
        <ele>618.152</ele>
        <time>2020-07-15T22:18:36Z</time>
      </trkpt>
      <trkpt lat="41.888340" lon="-8.214540">
        <ele>618.353</ele>
        <time>2020-07-15T22:18:56Z</time>
      </trkpt>
      <trkpt lat="41.888450" lon="-8.214710">
        <ele>617.508</ele>
        <time>2020-07-15T22:19:16Z</time>
      </trkpt>
      <trkpt lat="41.888800" lon="-8.216030">
        <ele>620.208</ele>
        <time>2020-07-15T22:19:36Z</time>
      </trkpt>
      <trkpt lat="41.888930" lon="-8.216410">
        <ele>622.240</ele>
        <time>2020-07-15T22:19:56Z</time>
      </trkpt>
      <trkpt lat="41.889470" lon="-8.217670">
        <ele>621.487</ele>
        <time>2020-07-15T22:20:16Z</time>
      </trkpt>
      <trkpt lat="41.889500" lon="-8.217840">
        <ele>621.312</ele>
        <time>2020-07-15T22:20:36Z</time>
      </trkpt>
      <trkpt lat="41.889520" lon="-8.218180">
        <ele>622.750</ele>
        <time>2020-07-15T22:20:56Z</time>
      </trkpt>
      <trkpt lat="41.889500" lon="-8.218270">
        <ele>622.947</ele>
        <time>2020-07-15T22:21:16Z</time>
      </trkpt>
      <trkpt lat="41.889300" lon="-8.218670">
        <ele>626.597</ele>
        <time>2020-07-15T22:21:36Z</time>
      </trkpt>
      <trkpt lat="41.888940" lon="-8.218960">
        <ele>629.537</ele>
        <time>2020-07-15T22:21:56Z</time>
      </trkpt>
      <trkpt lat="41.888830" lon="-8.219070">
        <ele>629.718</ele>
        <time>2020-07-15T22:22:16Z</time>
      </trkpt>
      <trkpt lat="41.888790" lon="-8.219160">
        <ele>630.253</ele>
        <time>2020-07-15T22:22:36Z</time>
      </trkpt>
      <trkpt lat="41.888780" lon="-8.219320">
        <ele>631.904</ele>
        <time>2020-07-15T22:22:56Z</time>
      </trkpt>
      <trkpt lat="41.888830" lon="-8.219480">
        <ele>634.014</ele>
        <time>2020-07-15T22:23:16Z</time>
      </trkpt>
      <trkpt lat="41.889100" lon="-8.219950">
        <ele>638.708</ele>
        <time>2020-07-15T22:23:36Z</time>
      </trkpt>
      <trkpt lat="41.889120" lon="-8.220120">
        <ele>640.150</ele>
        <time>2020-07-15T22:23:56Z</time>
      </trkpt>
      <trkpt lat="41.888890" lon="-8.221120">
        <ele>643.037</ele>
        <time>2020-07-15T22:24:16Z</time>
      </trkpt>
      <trkpt lat="41.888880" lon="-8.221810">
        <ele>647.172</ele>
        <time>2020-07-15T22:24:36Z</time>
      </trkpt>
      <trkpt lat="41.888970" lon="-8.222300">
        <ele>649.150</ele>
        <time>2020-07-15T22:24:56Z</time>
      </trkpt>
      <trkpt lat="41.889050" lon="-8.222940">
        <ele>655.957</ele>
        <time>2020-07-15T22:25:16Z</time>
      </trkpt>
      <trkpt lat="41.889230" lon="-8.223590">
        <ele>651.897</ele>
        <time>2020-07-15T22:25:36Z</time>
      </trkpt>
      <trkpt lat="41.889270" lon="-8.223850">
        <ele>654.437</ele>
        <time>2020-07-15T22:25:56Z</time>
      </trkpt>
      <trkpt lat="41.889350" lon="-8.223980">
        <ele>654.828</ele>
        <time>2020-07-15T22:26:16Z</time>
      </trkpt>
      <trkpt lat="41.889560" lon="-8.224150">
        <ele>651.551</ele>
        <time>2020-07-15T22:26:36Z</time>
      </trkpt>
      <trkpt lat="41.889750" lon="-8.224810">
        <ele>656.701</ele>
        <time>2020-07-15T22:26:56Z</time>
      </trkpt>
      <trkpt lat="41.889920" lon="-8.225150">
        <ele>651.211</ele>
        <time>2020-07-15T22:27:16Z</time>
      </trkpt>
      <trkpt lat="41.889950" lon="-8.225280">
        <ele>649.508</ele>
        <time>2020-07-15T22:27:36Z</time>
      </trkpt>
      <trkpt lat="41.889950" lon="-8.225660">
        <ele>652.210</ele>
        <time>2020-07-15T22:27:56Z</time>
      </trkpt>
      <trkpt lat="41.890010" lon="-8.226010">
        <ele>652.947</ele>
        <time>2020-07-15T22:28:16Z</time>
      </trkpt>
      <trkpt lat="41.890020" lon="-8.226200">
        <ele>655.412</ele>
        <time>2020-07-15T22:28:36Z</time>
      </trkpt>
      <trkpt lat="41.889980" lon="-8.226590">
        <ele>668.370</ele>
        <time>2020-07-15T22:28:56Z</time>
      </trkpt>
      <trkpt lat="41.890010" lon="-8.226720">
        <ele>671.287</ele>
        <time>2020-07-15T22:29:16Z</time>
      </trkpt>
      <trkpt lat="41.890080" lon="-8.226800">
        <ele>671.537</ele>
        <time>2020-07-15T22:29:36Z</time>
      </trkpt>
      <trkpt lat="41.890300" lon="-8.226870">
        <ele>668.677</ele>
        <time>2020-07-15T22:29:56Z</time>
      </trkpt>
      <trkpt lat="41.890500" lon="-8.226910">
        <ele>669.028</ele>
        <time>2020-07-15T22:30:16Z</time>
      </trkpt>
      <trkpt lat="41.890870" lon="-8.226870">
        <ele>659.392</ele>
        <time>2020-07-15T22:30:36Z</time>
      </trkpt>
      <trkpt lat="41.890930" lon="-8.226900">
        <ele>658.673</ele>
        <time>2020-07-15T22:30:56Z</time>
      </trkpt>
      <trkpt lat="41.890980" lon="-8.227010">
        <ele>660.620</ele>
        <time>2020-07-15T22:31:16Z</time>
      </trkpt>
      <trkpt lat="41.890990" lon="-8.227350">
        <ele>669.408</ele>
        <time>2020-07-15T22:31:36Z</time>
      </trkpt>
      <trkpt lat="41.891010" lon="-8.227460">
        <ele>671.324</ele>
        <time>2020-07-15T22:31:56Z</time>
      </trkpt>
      <trkpt lat="41.891030" lon="-8.227520">
        <ele>672.171</ele>
        <time>2020-07-15T22:32:16Z</time>
      </trkpt>
      <trkpt lat="41.891170" lon="-8.227670">
        <ele>670.016</ele>
        <time>2020-07-15T22:32:36Z</time>
      </trkpt>
      <trkpt lat="41.891230" lon="-8.227810">
        <ele>671.344</ele>
        <time>2020-07-15T22:32:56Z</time>
      </trkpt>
      <trkpt lat="41.891300" lon="-8.228210">
        <ele>681.591</ele>
        <time>2020-07-15T22:33:16Z</time>
      </trkpt>
      <trkpt lat="41.891340" lon="-8.228340">
        <ele>684.191</ele>
        <time>2020-07-15T22:33:36Z</time>
      </trkpt>
      <trkpt lat="41.891510" lon="-8.228460">
        <ele>679.241</ele>
        <time>2020-07-15T22:33:56Z</time>
      </trkpt>
      <trkpt lat="41.891920" lon="-8.228640">
        <ele>671.242</ele>
        <time>2020-07-15T22:34:16Z</time>
      </trkpt>
      <trkpt lat="41.892030" lon="-8.228760">
        <ele>674.688</ele>
        <time>2020-07-15T22:34:36Z</time>
      </trkpt>
      <trkpt lat="41.892140" lon="-8.229000">
        <ele>681.924</ele>
        <time>2020-07-15T22:34:56Z</time>
      </trkpt>
      <trkpt lat="41.892190" lon="-8.229190">
        <ele>687.326</ele>
        <time>2020-07-15T22:35:16Z</time>
      </trkpt>
      <trkpt lat="41.892210" lon="-8.229360">
        <ele>689.208</ele>
        <time>2020-07-15T22:35:36Z</time>
      </trkpt>
      <trkpt lat="41.892260" lon="-8.229520">
        <ele>690.463</ele>
        <time>2020-07-15T22:35:56Z</time>
      </trkpt>
      <trkpt lat="41.892510" lon="-8.229700">
        <ele>688.550</ele>
        <time>2020-07-15T22:36:16Z</time>
      </trkpt>
      <trkpt lat="41.892590" lon="-8.229720">
        <ele>689.355</ele>
        <time>2020-07-15T22:36:36Z</time>
      </trkpt>
      <trkpt lat="41.892800" lon="-8.229640">
        <ele>686.713</ele>
        <time>2020-07-15T22:36:56Z</time>
      </trkpt>
      <trkpt lat="41.892990" lon="-8.229620">
        <ele>685.420</ele>
        <time>2020-07-15T22:37:16Z</time>
      </trkpt>
      <trkpt lat="41.893200" lon="-8.229650">
        <ele>686.280</ele>
        <time>2020-07-15T22:37:36Z</time>
      </trkpt>
      <trkpt lat="41.893330" lon="-8.229710">
        <ele>688.540</ele>
        <time>2020-07-15T22:37:56Z</time>
      </trkpt>
      <trkpt lat="41.893490" lon="-8.229890">
        <ele>698.741</ele>
        <time>2020-07-15T22:38:16Z</time>
      </trkpt>
      <trkpt lat="41.893570" lon="-8.229950">
        <ele>701.254</ele>
        <time>2020-07-15T22:38:36Z</time>
      </trkpt>
      <trkpt lat="41.893640" lon="-8.229950">
        <ele>701.156</ele>
        <time>2020-07-15T22:38:56Z</time>
      </trkpt>
      <trkpt lat="41.893820" lon="-8.229830">
        <ele>697.511</ele>
        <time>2020-07-15T22:39:16Z</time>
      </trkpt>
      <trkpt lat="41.893930" lon="-8.229790">
        <ele>696.808</ele>
        <time>2020-07-15T22:39:36Z</time>
      </trkpt>
      <trkpt lat="41.894000" lon="-8.229810">
        <ele>698.270</ele>
        <time>2020-07-15T22:39:56Z</time>
      </trkpt>
      <trkpt lat="41.894110" lon="-8.229910">
        <ele>702.697</ele>
        <time>2020-07-15T22:40:16Z</time>
      </trkpt>
      <trkpt lat="41.894240" lon="-8.230140">
        <ele>708.012</ele>
        <time>2020-07-15T22:40:36Z</time>
      </trkpt>
      <trkpt lat="41.894290" lon="-8.230230">
        <ele>709.270</ele>
        <time>2020-07-15T22:40:56Z</time>
      </trkpt>
      <trkpt lat="41.894710" lon="-8.230490">
        <ele>713.167</ele>
        <time>2020-07-15T22:41:16Z</time>
      </trkpt>
      <trkpt lat="41.894820" lon="-8.230490">
        <ele>713.317</ele>
        <time>2020-07-15T22:41:36Z</time>
      </trkpt>
      <trkpt lat="41.895000" lon="-8.230460">
        <ele>712.677</ele>
        <time>2020-07-15T22:41:56Z</time>
      </trkpt>
      <trkpt lat="41.895090" lon="-8.230480">
        <ele>713.468</ele>
        <time>2020-07-15T22:42:16Z</time>
      </trkpt>
      <trkpt lat="41.895150" lon="-8.230550">
        <ele>716.376</ele>
        <time>2020-07-15T22:42:36Z</time>
      </trkpt>
      <trkpt lat="41.895670" lon="-8.231600">
        <ele>732.190</ele>
        <time>2020-07-15T22:42:56Z</time>
      </trkpt>
      <trkpt lat="41.895740" lon="-8.231630">
        <ele>733.319</ele>
        <time>2020-07-15T22:43:16Z</time>
      </trkpt>
      <trkpt lat="41.895870" lon="-8.231570">
        <ele>733.208</ele>
        <time>2020-07-15T22:43:36Z</time>
      </trkpt>
      <trkpt lat="41.896260" lon="-8.231210">
        <ele>730.882</ele>
        <time>2020-07-15T22:43:56Z</time>
      </trkpt>
      <trkpt lat="41.896380" lon="-8.231190">
        <ele>732.549</ele>
        <time>2020-07-15T22:44:16Z</time>
      </trkpt>
      <trkpt lat="41.896950" lon="-8.231410">
        <ele>745.324</ele>
        <time>2020-07-15T22:44:36Z</time>
      </trkpt>
      <trkpt lat="41.897150" lon="-8.231520">
        <ele>747.392</ele>
        <time>2020-07-15T22:44:56Z</time>
      </trkpt>
      <trkpt lat="41.897240" lon="-8.231620">
        <ele>748.279</ele>
        <time>2020-07-15T22:45:16Z</time>
      </trkpt>
      <trkpt lat="41.897550" lon="-8.232280">
        <ele>757.099</ele>
        <time>2020-07-15T22:45:36Z</time>
      </trkpt>
      <trkpt lat="41.897640" lon="-8.232410">
        <ele>758.219</ele>
        <time>2020-07-15T22:45:56Z</time>
      </trkpt>
      <trkpt lat="41.897760" lon="-8.232500">
        <ele>759.140</ele>
        <time>2020-07-15T22:46:16Z</time>
      </trkpt>
      <trkpt lat="41.898040" lon="-8.232580">
        <ele>758.214</ele>
        <time>2020-07-15T22:46:36Z</time>
      </trkpt>
      <trkpt lat="41.898190" lon="-8.232650">
        <ele>760.254</ele>
        <time>2020-07-15T22:46:56Z</time>
      </trkpt>
      <trkpt lat="41.898310" lon="-8.232650">
        <ele>760.609</ele>
        <time>2020-07-15T22:47:16Z</time>
      </trkpt>
      <trkpt lat="41.898530" lon="-8.232590">
        <ele>762.908</ele>
        <time>2020-07-15T22:47:36Z</time>
      </trkpt>
      <trkpt lat="41.898920" lon="-8.232400">
        <ele>762.296</ele>
        <time>2020-07-15T22:47:56Z</time>
      </trkpt>
      <trkpt lat="41.899000" lon="-8.232410">
        <ele>762.423</ele>
        <time>2020-07-15T22:48:16Z</time>
      </trkpt>
      <trkpt lat="41.899130" lon="-8.232510">
        <ele>764.218</ele>
        <time>2020-07-15T22:48:36Z</time>
      </trkpt>
      <trkpt lat="41.899460" lon="-8.232860">
        <ele>769.146</ele>
        <time>2020-07-15T22:48:56Z</time>
      </trkpt>
      <trkpt lat="41.899840" lon="-8.233030">
        <ele>773.013</ele>
        <time>2020-07-15T22:49:16Z</time>
      </trkpt>
      <trkpt lat="41.900230" lon="-8.233170">
        <ele>777.523</ele>
        <time>2020-07-15T22:49:36Z</time>
      </trkpt>
      <trkpt lat="41.900690" lon="-8.233290">
        <ele>780.013</ele>
        <time>2020-07-15T22:49:56Z</time>
      </trkpt>
      <trkpt lat="41.900900" lon="-8.233250">
        <ele>781.084</ele>
        <time>2020-07-15T22:50:16Z</time>
      </trkpt>
      <trkpt lat="41.901480" lon="-8.232980">
        <ele>778.032</ele>
        <time>2020-07-15T22:50:36Z</time>
      </trkpt>
      <trkpt lat="41.901820" lon="-8.232800">
        <ele>778.692</ele>
        <time>2020-07-15T22:50:56Z</time>
      </trkpt>
      <trkpt lat="41.902050" lon="-8.232710">
        <ele>781.411</ele>
        <time>2020-07-15T22:51:16Z</time>
      </trkpt>
      <trkpt lat="41.902230" lon="-8.232710">
        <ele>782.208</ele>
        <time>2020-07-15T22:51:36Z</time>
      </trkpt>
      <trkpt lat="41.902740" lon="-8.232670">
        <ele>782.778</ele>
        <time>2020-07-15T22:51:56Z</time>
      </trkpt>
      <trkpt lat="41.903000" lon="-8.232680">
        <ele>787.025</ele>
        <time>2020-07-15T22:52:16Z</time>
      </trkpt>
      <trkpt lat="41.903220" lon="-8.232730">
        <ele>789.050</ele>
        <time>2020-07-15T22:52:36Z</time>
      </trkpt>
      <trkpt lat="41.904420" lon="-8.233390">
        <ele>785.448</ele>
        <time>2020-07-15T22:52:56Z</time>
      </trkpt>
      <trkpt lat="41.904990" lon="-8.233980">
        <ele>787.435</ele>
        <time>2020-07-15T22:53:16Z</time>
      </trkpt>
      <trkpt lat="41.905290" lon="-8.234430">
        <ele>792.565</ele>
        <time>2020-07-15T22:53:36Z</time>
      </trkpt>
      <trkpt lat="41.905400" lon="-8.234670">
        <ele>791.315</ele>
        <time>2020-07-15T22:53:56Z</time>
      </trkpt>
      <trkpt lat="41.905650" lon="-8.235390">
        <ele>790.846</ele>
        <time>2020-07-15T22:54:16Z</time>
      </trkpt>
      <trkpt lat="41.905770" lon="-8.235660">
        <ele>790.631</ele>
        <time>2020-07-15T22:54:36Z</time>
      </trkpt>
      <trkpt lat="41.906150" lon="-8.236230">
        <ele>785.561</ele>
        <time>2020-07-15T22:54:56Z</time>
      </trkpt>
      <trkpt lat="41.906520" lon="-8.236680">
        <ele>780.907</ele>
        <time>2020-07-15T22:55:16Z</time>
      </trkpt>
      <trkpt lat="41.906610" lon="-8.236840">
        <ele>782.208</ele>
        <time>2020-07-15T22:55:36Z</time>
      </trkpt>
      <trkpt lat="41.906640" lon="-8.236960">
        <ele>782.768</ele>
        <time>2020-07-15T22:55:56Z</time>
      </trkpt>
      <trkpt lat="41.906650" lon="-8.237110">
        <ele>783.885</ele>
        <time>2020-07-15T22:56:16Z</time>
      </trkpt>
      <trkpt lat="41.906630" lon="-8.237280">
        <ele>784.120</ele>
        <time>2020-07-15T22:56:36Z</time>
      </trkpt>
      <trkpt lat="41.906640" lon="-8.237800">
        <ele>784.298</ele>
        <time>2020-07-15T22:56:56Z</time>
      </trkpt>
      <trkpt lat="41.906660" lon="-8.237970">
        <ele>783.535</ele>
        <time>2020-07-15T22:57:16Z</time>
      </trkpt>
      <trkpt lat="41.906720" lon="-8.238080">
        <ele>783.095</ele>
        <time>2020-07-15T22:57:36Z</time>
      </trkpt>
      <trkpt lat="41.906820" lon="-8.238170">
        <ele>782.325</ele>
        <time>2020-07-15T22:57:56Z</time>
      </trkpt>
      <trkpt lat="41.906970" lon="-8.238180">
        <ele>782.146</ele>
        <time>2020-07-15T22:58:16Z</time>
      </trkpt>
      <trkpt lat="41.907420" lon="-8.238100">
        <ele>780.261</ele>
        <time>2020-07-15T22:58:36Z</time>
      </trkpt>
      <trkpt lat="41.907690" lon="-8.238100">
        <ele>780.721</ele>
        <time>2020-07-15T22:58:56Z</time>
      </trkpt>
      <trkpt lat="41.908020" lon="-8.238200">
        <ele>782.513</ele>
        <time>2020-07-15T22:59:16Z</time>
      </trkpt>
      <trkpt lat="41.908900" lon="-8.238180">
        <ele>782.708</ele>
        <time>2020-07-15T22:59:36Z</time>
      </trkpt>
      <trkpt lat="41.909490" lon="-8.238360">
        <ele>783.211</ele>
        <time>2020-07-15T22:59:56Z</time>
      </trkpt>
      <trkpt lat="41.909850" lon="-8.238540">
        <ele>780.728</ele>
        <time>2020-07-15T23:00:16Z</time>
      </trkpt>
      <trkpt lat="41.910130" lon="-8.238790">
        <ele>780.543</ele>
        <time>2020-07-15T23:00:36Z</time>
      </trkpt>
      <trkpt lat="41.910230" lon="-8.238910">
        <ele>779.781</ele>
        <time>2020-07-15T23:00:56Z</time>
      </trkpt>
      <trkpt lat="41.910720" lon="-8.239700">
        <ele>773.228</ele>
        <time>2020-07-15T23:01:16Z</time>
      </trkpt>
      <trkpt lat="41.910790" lon="-8.239790">
        <ele>772.438</ele>
        <time>2020-07-15T23:01:36Z</time>
      </trkpt>
      <trkpt lat="41.910900" lon="-8.239860">
        <ele>770.848</ele>
        <time>2020-07-15T23:01:56Z</time>
      </trkpt>
      <trkpt lat="41.911050" lon="-8.239880">
        <ele>768.779</ele>
        <time>2020-07-15T23:02:16Z</time>
      </trkpt>
      <trkpt lat="41.911230" lon="-8.239800">
        <ele>769.892</ele>
        <time>2020-07-15T23:02:36Z</time>
      </trkpt>
      <trkpt lat="41.911430" lon="-8.239650">
        <ele>774.573</ele>
        <time>2020-07-15T23:02:56Z</time>
      </trkpt>
      <trkpt lat="41.911580" lon="-8.239630">
        <ele>775.720</ele>
        <time>2020-07-15T23:03:16Z</time>
      </trkpt>
      <trkpt lat="41.911710" lon="-8.239670">
        <ele>775.208</ele>
        <time>2020-07-15T23:03:36Z</time>
      </trkpt>
      <trkpt lat="41.911790" lon="-8.239750">
        <ele>773.424</ele>
        <time>2020-07-15T23:03:56Z</time>
      </trkpt>
      <trkpt lat="41.912020" lon="-8.239900">
        <ele>770.911</ele>
        <time>2020-07-15T23:04:16Z</time>
      </trkpt>
      <trkpt lat="41.912220" lon="-8.239990">
        <ele>769.316</ele>
        <time>2020-07-15T23:04:36Z</time>
      </trkpt>
      <trkpt lat="41.912910" lon="-8.240150">
        <ele>774.584</ele>
        <time>2020-07-15T23:04:56Z</time>
      </trkpt>
      <trkpt lat="41.913410" lon="-8.240290">
        <ele>777.611</ele>
        <time>2020-07-15T23:05:16Z</time>
      </trkpt>
      <trkpt lat="41.913610" lon="-8.240390">
        <ele>775.771</ele>
        <time>2020-07-15T23:05:36Z</time>
      </trkpt>
      <trkpt lat="41.913860" lon="-8.240570">
        <ele>778.291</ele>
        <time>2020-07-15T23:05:56Z</time>
      </trkpt>
      <trkpt lat="41.914360" lon="-8.241090">
        <ele>779.482</ele>
        <time>2020-07-15T23:06:16Z</time>
      </trkpt>
      <trkpt lat="41.914390" lon="-8.241210">
        <ele>777.748</ele>
        <time>2020-07-15T23:06:36Z</time>
      </trkpt>
      <trkpt lat="41.914340" lon="-8.241540">
        <ele>766.861</ele>
        <time>2020-07-15T23:06:56Z</time>
      </trkpt>
      <trkpt lat="41.914360" lon="-8.241640">
        <ele>764.717</ele>
        <time>2020-07-15T23:07:16Z</time>
      </trkpt>
      <trkpt lat="41.914440" lon="-8.241770">
        <ele>762.808</ele>
        <time>2020-07-15T23:07:36Z</time>
      </trkpt>
      <trkpt lat="41.914570" lon="-8.241920">
        <ele>762.839</ele>
        <time>2020-07-15T23:07:56Z</time>
      </trkpt>
      <trkpt lat="41.914820" lon="-8.242130">
        <ele>763.236</ele>
        <time>2020-07-15T23:08:16Z</time>
      </trkpt>
      <trkpt lat="41.915150" lon="-8.242370">
        <ele>756.581</ele>
        <time>2020-07-15T23:08:36Z</time>
      </trkpt>
      <trkpt lat="41.915580" lon="-8.242510">
        <ele>758.059</ele>
        <time>2020-07-15T23:08:56Z</time>
      </trkpt>
      <trkpt lat="41.916200" lon="-8.242740">
        <ele>758.276</ele>
        <time>2020-07-15T23:09:16Z</time>
      </trkpt>
      <trkpt lat="41.916360" lon="-8.242850">
        <ele>757.716</ele>
        <time>2020-07-15T23:09:36Z</time>
      </trkpt>
      <trkpt lat="41.916470" lon="-8.243000">
        <ele>757.886</ele>
        <time>2020-07-15T23:09:56Z</time>
      </trkpt>
      <trkpt lat="41.916640" lon="-8.243250">
        <ele>758.347</ele>
        <time>2020-07-15T23:10:16Z</time>
      </trkpt>
      <trkpt lat="41.916660" lon="-8.243380">
        <ele>757.328</ele>
        <time>2020-07-15T23:10:36Z</time>
      </trkpt>
      <trkpt lat="41.916510" lon="-8.243830">
        <ele>746.289</ele>
        <time>2020-07-15T23:10:56Z</time>
      </trkpt>
      <trkpt lat="41.916470" lon="-8.244040">
        <ele>742.317</ele>
        <time>2020-07-15T23:11:16Z</time>
      </trkpt>
      <trkpt lat="41.916460" lon="-8.244250">
        <ele>739.308</ele>
        <time>2020-07-15T23:11:36Z</time>
      </trkpt>
      <trkpt lat="41.916480" lon="-8.244680">
        <ele>733.687</ele>
        <time>2020-07-15T23:11:56Z</time>
      </trkpt>
      <trkpt lat="41.916500" lon="-8.244680">
        <ele>734.224</ele>
        <time>2020-07-15T23:12:16Z</time>
      </trkpt>
      <trkpt lat="41.916730" lon="-8.244830">
        <ele>738.819</ele>
        <time>2020-07-15T23:12:36Z</time>
      </trkpt>
      <trkpt lat="41.916920" lon="-8.244920">
        <ele>741.757</ele>
        <time>2020-07-15T23:12:56Z</time>
      </trkpt>
      <trkpt lat="41.917110" lon="-8.244960">
        <ele>743.174</ele>
        <time>2020-07-15T23:13:16Z</time>
      </trkpt>
      <trkpt lat="41.917280" lon="-8.244950">
        <ele>745.174</ele>
        <time>2020-07-15T23:13:36Z</time>
      </trkpt>
      <trkpt lat="41.917760" lon="-8.244790">
        <ele>753.414</ele>
        <time>2020-07-15T23:13:56Z</time>
      </trkpt>
      <trkpt lat="41.918060" lon="-8.244610">
        <ele>761.875</ele>
        <time>2020-07-15T23:14:16Z</time>
      </trkpt>
      <trkpt lat="41.918130" lon="-8.244610">
        <ele>764.734</ele>
        <time>2020-07-15T23:14:36Z</time>
      </trkpt>
      <trkpt lat="41.918210" lon="-8.244650">
        <ele>766.955</ele>
        <time>2020-07-15T23:14:56Z</time>
      </trkpt>
      <trkpt lat="41.918270" lon="-8.244730">
        <ele>767.110</ele>
        <time>2020-07-15T23:15:16Z</time>
      </trkpt>
      <trkpt lat="41.918380" lon="-8.245190">
        <ele>760.908</ele>
        <time>2020-07-15T23:15:36Z</time>
      </trkpt>
      <trkpt lat="41.918420" lon="-8.245290">
        <ele>760.158</ele>
        <time>2020-07-15T23:15:56Z</time>
      </trkpt>
      <trkpt lat="41.918700" lon="-8.245520">
        <ele>762.795</ele>
        <time>2020-07-15T23:16:16Z</time>
      </trkpt>
      <trkpt lat="41.918970" lon="-8.245610">
        <ele>764.070</ele>
        <time>2020-07-15T23:16:36Z</time>
      </trkpt>
      <trkpt lat="41.919160" lon="-8.245630">
        <ele>765.848</ele>
        <time>2020-07-15T23:16:56Z</time>
      </trkpt>
      <trkpt lat="41.919370" lon="-8.245620">
        <ele>768.935</ele>
        <time>2020-07-15T23:17:16Z</time>
      </trkpt>
      <trkpt lat="41.919580" lon="-8.245570">
        <ele>772.435</ele>
        <time>2020-07-15T23:17:36Z</time>
      </trkpt>
      <trkpt lat="41.920370" lon="-8.245020">
        <ele>779.925</ele>
        <time>2020-07-15T23:17:56Z</time>
      </trkpt>
      <trkpt lat="41.920660" lon="-8.244860">
        <ele>782.446</ele>
        <time>2020-07-15T23:18:16Z</time>
      </trkpt>
      <trkpt lat="41.921190" lon="-8.244500">
        <ele>788.665</ele>
        <time>2020-07-15T23:18:36Z</time>
      </trkpt>
      <trkpt lat="41.921680" lon="-8.244260">
        <ele>794.168</ele>
        <time>2020-07-15T23:18:56Z</time>
      </trkpt>
      <trkpt lat="41.922890" lon="-8.243990">
        <ele>807.314</ele>
        <time>2020-07-15T23:19:16Z</time>
      </trkpt>
      <trkpt lat="41.923040" lon="-8.243910">
        <ele>809.608</ele>
        <time>2020-07-15T23:19:36Z</time>
      </trkpt>
      <trkpt lat="41.923270" lon="-8.243640">
        <ele>816.331</ele>
        <time>2020-07-15T23:19:56Z</time>
      </trkpt>
      <trkpt lat="41.923450" lon="-8.243460">
        <ele>818.778</ele>
        <time>2020-07-15T23:20:16Z</time>
      </trkpt>
      <trkpt lat="41.923920" lon="-8.243180">
        <ele>818.963</ele>
        <time>2020-07-15T23:20:36Z</time>
      </trkpt>
      <trkpt lat="41.924080" lon="-8.243020">
        <ele>820.321</ele>
        <time>2020-07-15T23:20:56Z</time>
      </trkpt>
      <trkpt lat="41.924290" lon="-8.242760">
        <ele>825.038</ele>
        <time>2020-07-15T23:21:16Z</time>
      </trkpt>
      <trkpt lat="41.924320" lon="-8.242600">
        <ele>825.938</ele>
        <time>2020-07-15T23:21:36Z</time>
      </trkpt>
      <trkpt lat="41.924280" lon="-8.242450">
        <ele>825.118</ele>
        <time>2020-07-15T23:21:56Z</time>
      </trkpt>
      <trkpt lat="41.923580" lon="-8.241370">
        <ele>829.319</ele>
        <time>2020-07-15T23:22:16Z</time>
      </trkpt>
      <trkpt lat="41.923380" lon="-8.240940">
        <ele>829.365</ele>
        <time>2020-07-15T23:22:36Z</time>
      </trkpt>
      <trkpt lat="41.923320" lon="-8.240710">
        <ele>829.368</ele>
        <time>2020-07-15T23:22:56Z</time>
      </trkpt>
      <trkpt lat="41.923270" lon="-8.239840">
        <ele>832.714</ele>
        <time>2020-07-15T23:23:16Z</time>
      </trkpt>
      <trkpt lat="41.923290" lon="-8.239620">
        <ele>832.008</ele>
        <time>2020-07-15T23:23:36Z</time>
      </trkpt>
      <trkpt lat="41.923350" lon="-8.239430">
        <ele>832.391</ele>
        <time>2020-07-15T23:23:56Z</time>
      </trkpt>
      <trkpt lat="41.923490" lon="-8.239250">
        <ele>833.958</ele>
        <time>2020-07-15T23:24:16Z</time>
      </trkpt>
      <trkpt lat="41.923760" lon="-8.239000">
        <ele>835.673</ele>
        <time>2020-07-15T23:24:36Z</time>
      </trkpt>
      <trkpt lat="41.923890" lon="-8.238900">
        <ele>836.321</ele>
        <time>2020-07-15T23:24:56Z</time>
      </trkpt>
      <trkpt lat="41.924030" lon="-8.238860">
        <ele>837.888</ele>
        <time>2020-07-15T23:25:16Z</time>
      </trkpt>
      <trkpt lat="41.925840" lon="-8.238670">
        <ele>845.748</ele>
        <time>2020-07-15T23:25:36Z</time>
      </trkpt>
      <trkpt lat="41.925970" lon="-8.238610">
        <ele>845.048</ele>
        <time>2020-07-15T23:25:56Z</time>
      </trkpt>
      <trkpt lat="41.926070" lon="-8.238510">
        <ele>844.079</ele>
        <time>2020-07-15T23:26:16Z</time>
      </trkpt>
      <trkpt lat="41.926110" lon="-8.238390">
        <ele>842.849</ele>
        <time>2020-07-15T23:26:36Z</time>
      </trkpt>
      <trkpt lat="41.926180" lon="-8.237700">
        <ele>836.102</ele>
        <time>2020-07-15T23:26:56Z</time>
      </trkpt>
      <trkpt lat="41.926210" lon="-8.237530">
        <ele>833.322</ele>
        <time>2020-07-15T23:27:16Z</time>
      </trkpt>
      <trkpt lat="41.926270" lon="-8.237430">
        <ele>831.808</ele>
        <time>2020-07-15T23:27:36Z</time>
      </trkpt>
      <trkpt lat="41.926360" lon="-8.237390">
        <ele>831.239</ele>
        <time>2020-07-15T23:27:56Z</time>
      </trkpt>
      <trkpt lat="41.926520" lon="-8.237380">
        <ele>829.436</ele>
        <time>2020-07-15T23:28:16Z</time>
      </trkpt>
      <trkpt lat="41.927140" lon="-8.237410">
        <ele>833.471</ele>
        <time>2020-07-15T23:28:36Z</time>
      </trkpt>
      <trkpt lat="41.927420" lon="-8.237510">
        <ele>831.769</ele>
        <time>2020-07-15T23:28:56Z</time>
      </trkpt>
      <trkpt lat="41.927770" lon="-8.237500">
        <ele>822.296</ele>
        <time>2020-07-15T23:29:16Z</time>
      </trkpt>
      <trkpt lat="41.927870" lon="-8.237570">
        <ele>821.436</ele>
        <time>2020-07-15T23:29:36Z</time>
      </trkpt>
      <trkpt lat="41.927970" lon="-8.237710">
        <ele>821.736</ele>
        <time>2020-07-15T23:29:56Z</time>
      </trkpt>
      <trkpt lat="41.928020" lon="-8.237820">
        <ele>822.557</ele>
        <time>2020-07-15T23:30:16Z</time>
      </trkpt>
      <trkpt lat="41.928120" lon="-8.238050">
        <ele>823.285</ele>
        <time>2020-07-15T23:30:36Z</time>
      </trkpt>
      <trkpt lat="41.928190" lon="-8.238300">
        <ele>821.989</ele>
        <time>2020-07-15T23:30:56Z</time>
      </trkpt>
      <trkpt lat="41.928210" lon="-8.238580">
        <ele>820.217</ele>
        <time>2020-07-15T23:31:16Z</time>
      </trkpt>
      <trkpt lat="41.928160" lon="-8.238960">
        <ele>821.908</ele>
        <time>2020-07-15T23:31:36Z</time>
      </trkpt>
      <trkpt lat="41.928060" lon="-8.239410">
        <ele>823.283</ele>
        <time>2020-07-15T23:31:56Z</time>
      </trkpt>
      <trkpt lat="41.927930" lon="-8.239740">
        <ele>825.150</ele>
        <time>2020-07-15T23:32:16Z</time>
      </trkpt>
      <trkpt lat="41.927920" lon="-8.239870">
        <ele>825.475</ele>
        <time>2020-07-15T23:32:36Z</time>
      </trkpt>
      <trkpt lat="41.928000" lon="-8.240120">
        <ele>823.133</ele>
        <time>2020-07-15T23:32:56Z</time>
      </trkpt>
      <trkpt lat="41.928200" lon="-8.240490">
        <ele>813.880</ele>
        <time>2020-07-15T23:33:16Z</time>
      </trkpt>
      <trkpt lat="41.928490" lon="-8.240950">
        <ele>804.960</ele>
        <time>2020-07-15T23:33:36Z</time>
      </trkpt>
      <trkpt lat="41.928630" lon="-8.241090">
        <ele>801.920</ele>
        <time>2020-07-15T23:33:56Z</time>
      </trkpt>
      <trkpt lat="41.928930" lon="-8.241330">
        <ele>793.821</ele>
        <time>2020-07-15T23:34:16Z</time>
      </trkpt>
      <trkpt lat="41.928960" lon="-8.241460">
        <ele>793.295</ele>
        <time>2020-07-15T23:34:36Z</time>
      </trkpt>
      <trkpt lat="41.928960" lon="-8.241610">
        <ele>792.349</ele>
        <time>2020-07-15T23:34:56Z</time>
      </trkpt>
      <trkpt lat="41.928920" lon="-8.241780">
        <ele>790.623</ele>
        <time>2020-07-15T23:35:16Z</time>
      </trkpt>
      <trkpt lat="41.928810" lon="-8.242010">
        <ele>787.508</ele>
        <time>2020-07-15T23:35:36Z</time>
      </trkpt>
      <trkpt lat="41.928710" lon="-8.242140">
        <ele>785.634</ele>
        <time>2020-07-15T23:35:56Z</time>
      </trkpt>
      <trkpt lat="41.928090" lon="-8.242780">
        <ele>786.861</ele>
        <time>2020-07-15T23:36:16Z</time>
      </trkpt>
      <trkpt lat="41.928030" lon="-8.242900">
        <ele>787.496</ele>
        <time>2020-07-15T23:36:36Z</time>
      </trkpt>
      <trkpt lat="41.928020" lon="-8.243020">
        <ele>786.374</ele>
        <time>2020-07-15T23:36:56Z</time>
      </trkpt>
      <trkpt lat="41.928050" lon="-8.243140">
        <ele>783.451</ele>
        <time>2020-07-15T23:37:16Z</time>
      </trkpt>
      <trkpt lat="41.928190" lon="-8.243450">
        <ele>773.841</ele>
        <time>2020-07-15T23:37:36Z</time>
      </trkpt>
      <trkpt lat="41.928200" lon="-8.243580">
        <ele>773.261</ele>
        <time>2020-07-15T23:37:56Z</time>
      </trkpt>
      <trkpt lat="41.928130" lon="-8.244100">
        <ele>782.882</ele>
        <time>2020-07-15T23:38:16Z</time>
      </trkpt>
      <trkpt lat="41.928170" lon="-8.244230">
        <ele>783.449</ele>
        <time>2020-07-15T23:38:36Z</time>
      </trkpt>
      <trkpt lat="41.928250" lon="-8.244340">
        <ele>782.102</ele>
        <time>2020-07-15T23:38:56Z</time>
      </trkpt>
      <trkpt lat="41.928410" lon="-8.244490">
        <ele>779.422</ele>
        <time>2020-07-15T23:39:16Z</time>
      </trkpt>
      <trkpt lat="41.928640" lon="-8.244560">
        <ele>773.708</ele>
        <time>2020-07-15T23:39:36Z</time>
      </trkpt>
      <trkpt lat="41.929700" lon="-8.244790">
        <ele>754.749</ele>
        <time>2020-07-15T23:39:56Z</time>
      </trkpt>
      <trkpt lat="41.929860" lon="-8.244850">
        <ele>748.776</ele>
        <time>2020-07-15T23:40:16Z</time>
      </trkpt>
      <trkpt lat="41.930000" lon="-8.244950">
        <ele>743.541</ele>
        <time>2020-07-15T23:40:36Z</time>
      </trkpt>
      <trkpt lat="41.930030" lon="-8.245020">
        <ele>742.539</ele>
        <time>2020-07-15T23:40:56Z</time>
      </trkpt>
      <trkpt lat="41.930040" lon="-8.245180">
        <ele>742.766</ele>
        <time>2020-07-15T23:41:16Z</time>
      </trkpt>
      <trkpt lat="41.929990" lon="-8.245550">
        <ele>749.346</ele>
        <time>2020-07-15T23:41:36Z</time>
      </trkpt>
      <trkpt lat="41.930000" lon="-8.245750">
        <ele>753.986</ele>
        <time>2020-07-15T23:41:56Z</time>
      </trkpt>
      <trkpt lat="41.930050" lon="-8.245890">
        <ele>755.277</ele>
        <time>2020-07-15T23:42:16Z</time>
      </trkpt>
      <trkpt lat="41.930090" lon="-8.245950">
        <ele>755.293</ele>
        <time>2020-07-15T23:42:36Z</time>
      </trkpt>
      <trkpt lat="41.930620" lon="-8.246270">
        <ele>746.665</ele>
        <time>2020-07-15T23:42:56Z</time>
      </trkpt>
      <trkpt lat="41.930920" lon="-8.246500">
        <ele>736.221</ele>
        <time>2020-07-15T23:43:16Z</time>
      </trkpt>
      <trkpt lat="41.931100" lon="-8.246710">
        <ele>731.808</ele>
        <time>2020-07-15T23:43:36Z</time>
      </trkpt>
      <trkpt lat="41.931370" lon="-8.247100">
        <ele>735.284</ele>
        <time>2020-07-15T23:43:56Z</time>
      </trkpt>
      <trkpt lat="41.931810" lon="-8.247520">
        <ele>733.461</ele>
        <time>2020-07-15T23:44:16Z</time>
      </trkpt>
      <trkpt lat="41.931890" lon="-8.247520">
        <ele>733.416</ele>
        <time>2020-07-15T23:44:36Z</time>
      </trkpt>
      <trkpt lat="41.931960" lon="-8.247460">
        <ele>732.634</ele>
        <time>2020-07-15T23:44:56Z</time>
      </trkpt>
      <trkpt lat="41.932090" lon="-8.247070">
        <ele>726.241</ele>
        <time>2020-07-15T23:45:16Z</time>
      </trkpt>
      <trkpt lat="41.932190" lon="-8.246840">
        <ele>720.191</ele>
        <time>2020-07-15T23:45:36Z</time>
      </trkpt>
      <trkpt lat="41.932940" lon="-8.245910">
        <ele>716.431</ele>
        <time>2020-07-15T23:45:56Z</time>
      </trkpt>
      <trkpt lat="41.933090" lon="-8.245570">
        <ele>709.162</ele>
        <time>2020-07-15T23:46:16Z</time>
      </trkpt>
      <trkpt lat="41.933150" lon="-8.245320">
        <ele>702.066</ele>
        <time>2020-07-15T23:46:36Z</time>
      </trkpt>
      <trkpt lat="41.933250" lon="-8.245050">
        <ele>694.729</ele>
        <time>2020-07-15T23:46:56Z</time>
      </trkpt>
      <trkpt lat="41.933350" lon="-8.244920">
        <ele>691.921</ele>
        <time>2020-07-15T23:47:16Z</time>
      </trkpt>
      <trkpt lat="41.933540" lon="-8.244830">
        <ele>694.208</ele>
        <time>2020-07-15T23:47:36Z</time>
      </trkpt>
      <trkpt lat="41.933940" lon="-8.244740">
        <ele>699.611</ele>
        <time>2020-07-15T23:47:56Z</time>
      </trkpt>
      <trkpt lat="41.934020" lon="-8.244680">
        <ele>697.228</ele>
        <time>2020-07-15T23:48:16Z</time>
      </trkpt>
      <trkpt lat="41.934200" lon="-8.244460">
        <ele>686.493</ele>
        <time>2020-07-15T23:48:36Z</time>
      </trkpt>
      <trkpt lat="41.934530" lon="-8.244340">
        <ele>683.361</ele>
        <time>2020-07-15T23:48:56Z</time>
      </trkpt>
      <trkpt lat="41.935270" lon="-8.244120">
        <ele>665.918</ele>
        <time>2020-07-15T23:49:16Z</time>
      </trkpt>
      <trkpt lat="41.935380" lon="-8.244140">
        <ele>664.698</ele>
        <time>2020-07-15T23:49:36Z</time>
      </trkpt>
      <trkpt lat="41.935420" lon="-8.244170">
        <ele>665.018</ele>
        <time>2020-07-15T23:49:56Z</time>
      </trkpt>
      <trkpt lat="41.935940" lon="-8.244800">
        <ele>658.379</ele>
        <time>2020-07-15T23:50:16Z</time>
      </trkpt>
      <trkpt lat="41.936180" lon="-8.245120">
        <ele>659.393</ele>
        <time>2020-07-15T23:50:36Z</time>
      </trkpt>
      <trkpt lat="41.936480" lon="-8.245680">
        <ele>665.865</ele>
        <time>2020-07-15T23:50:56Z</time>
      </trkpt>
      <trkpt lat="41.936530" lon="-8.245740">
        <ele>666.221</ele>
        <time>2020-07-15T23:51:16Z</time>
      </trkpt>
      <trkpt lat="41.936670" lon="-8.245780">
        <ele>662.708</ele>
        <time>2020-07-15T23:51:36Z</time>
      </trkpt>
      <trkpt lat="41.936850" lon="-8.245740">
        <ele>659.014</ele>
        <time>2020-07-15T23:51:56Z</time>
      </trkpt>
      <trkpt lat="41.937320" lon="-8.245570">
        <ele>645.231</ele>
        <time>2020-07-15T23:52:16Z</time>
      </trkpt>
      <trkpt lat="41.937420" lon="-8.245570">
        <ele>642.716</ele>
        <time>2020-07-15T23:52:36Z</time>
      </trkpt>
      <trkpt lat="41.937530" lon="-8.245600">
        <ele>640.884</ele>
        <time>2020-07-15T23:52:56Z</time>
      </trkpt>
      <trkpt lat="41.937630" lon="-8.245680">
        <ele>639.671</ele>
        <time>2020-07-15T23:53:16Z</time>
      </trkpt>
      <trkpt lat="41.937720" lon="-8.245780">
        <ele>638.651</ele>
        <time>2020-07-15T23:53:36Z</time>
      </trkpt>
      <trkpt lat="41.937810" lon="-8.246000">
        <ele>638.721</ele>
        <time>2020-07-15T23:53:56Z</time>
      </trkpt>
      <trkpt lat="41.938200" lon="-8.247610">
        <ele>643.532</ele>
        <time>2020-07-15T23:54:16Z</time>
      </trkpt>
      <trkpt lat="41.938280" lon="-8.247820">
        <ele>646.084</ele>
        <time>2020-07-15T23:54:36Z</time>
      </trkpt>
      <trkpt lat="41.938380" lon="-8.247980">
        <ele>652.207</ele>
        <time>2020-07-15T23:54:56Z</time>
      </trkpt>
      <trkpt lat="41.938440" lon="-8.248020">
        <ele>653.717</ele>
        <time>2020-07-15T23:55:16Z</time>
      </trkpt>
      <trkpt lat="41.938530" lon="-8.248050">
        <ele>654.108</ele>
        <time>2020-07-15T23:55:36Z</time>
      </trkpt>
      <trkpt lat="41.938660" lon="-8.248000">
        <ele>649.893</ele>
        <time>2020-07-15T23:55:56Z</time>
      </trkpt>
      <trkpt lat="41.939340" lon="-8.247370">
        <ele>619.180</ele>
        <time>2020-07-15T23:56:16Z</time>
      </trkpt>
      <trkpt lat="41.939500" lon="-8.247290">
        <ele>614.735</ele>
        <time>2020-07-15T23:56:36Z</time>
      </trkpt>
      <trkpt lat="41.939630" lon="-8.247300">
        <ele>612.843</ele>
        <time>2020-07-15T23:56:56Z</time>
      </trkpt>
      <trkpt lat="41.939690" lon="-8.247340">
        <ele>613.080</ele>
        <time>2020-07-15T23:57:16Z</time>
      </trkpt>
      <trkpt lat="41.940150" lon="-8.248140">
        <ele>616.670</ele>
        <time>2020-07-15T23:57:36Z</time>
      </trkpt>
      <trkpt lat="41.940250" lon="-8.248420">
        <ele>618.060</ele>
        <time>2020-07-15T23:57:56Z</time>
      </trkpt>
      <trkpt lat="41.940390" lon="-8.248690">
        <ele>619.991</ele>
        <time>2020-07-15T23:58:16Z</time>
      </trkpt>
      <trkpt lat="41.940460" lon="-8.248740">
        <ele>620.363</ele>
        <time>2020-07-15T23:58:36Z</time>
      </trkpt>
      <trkpt lat="41.940580" lon="-8.248770">
        <ele>619.244</ele>
        <time>2020-07-15T23:58:56Z</time>
      </trkpt>
      <trkpt lat="41.941090" lon="-8.248630">
        <ele>621.418</ele>
        <time>2020-07-15T23:59:16Z</time>
      </trkpt>
      <trkpt lat="41.941290" lon="-8.248420">
        <ele>621.008</ele>
        <time>2020-07-15T23:59:36Z</time>
      </trkpt>
      <trkpt lat="41.941510" lon="-8.248120">
        <ele>610.671</ele>
        <time>2020-07-15T23:59:56Z</time>
      </trkpt>
      <trkpt lat="41.941880" lon="-8.247830">
        <ele>601.028</ele>
        <time>2020-07-16T00:00:16Z</time>
      </trkpt>
      <trkpt lat="41.942170" lon="-8.247620">
        <ele>589.023</ele>
        <time>2020-07-16T00:00:36Z</time>
      </trkpt>
      <trkpt lat="41.942240" lon="-8.247630">
        <ele>587.941</ele>
        <time>2020-07-16T00:00:56Z</time>
      </trkpt>
      <trkpt lat="41.942370" lon="-8.248180">
        <ele>607.628</ele>
        <time>2020-07-16T00:01:16Z</time>
      </trkpt>
      <trkpt lat="41.942420" lon="-8.248310">
        <ele>614.578</ele>
        <time>2020-07-16T00:01:36Z</time>
      </trkpt>
      <trkpt lat="41.942520" lon="-8.248430">
        <ele>617.148</ele>
        <time>2020-07-16T00:01:56Z</time>
      </trkpt>
      <trkpt lat="41.942660" lon="-8.248500">
        <ele>617.239</ele>
        <time>2020-07-16T00:02:16Z</time>
      </trkpt>
      <trkpt lat="41.942730" lon="-8.248500">
        <ele>616.078</ele>
        <time>2020-07-16T00:02:36Z</time>
      </trkpt>
      <trkpt lat="41.943210" lon="-8.248320">
        <ele>600.433</ele>
        <time>2020-07-16T00:02:56Z</time>
      </trkpt>
      <trkpt lat="41.943430" lon="-8.248260">
        <ele>595.426</ele>
        <time>2020-07-16T00:03:16Z</time>
      </trkpt>
      <trkpt lat="41.943690" lon="-8.248220">
        <ele>594.408</ele>
        <time>2020-07-16T00:03:36Z</time>
      </trkpt>
      <trkpt lat="41.943980" lon="-8.248210">
        <ele>595.112</ele>
        <time>2020-07-16T00:03:56Z</time>
      </trkpt>
      <trkpt lat="41.944290" lon="-8.248250">
        <ele>593.199</ele>
        <time>2020-07-16T00:04:16Z</time>
      </trkpt>
      <trkpt lat="41.944400" lon="-8.248290">
        <ele>592.074</ele>
        <time>2020-07-16T00:04:36Z</time>
      </trkpt>
      <trkpt lat="41.944500" lon="-8.248380">
        <ele>593.082</ele>
        <time>2020-07-16T00:04:56Z</time>
      </trkpt>
      <trkpt lat="41.944660" lon="-8.248570">
        <ele>594.169</ele>
        <time>2020-07-16T00:05:16Z</time>
      </trkpt>
      <trkpt lat="41.944830" lon="-8.248860">
        <ele>599.579</ele>
        <time>2020-07-16T00:05:36Z</time>
      </trkpt>
      <trkpt lat="41.945120" lon="-8.249290">
        <ele>602.329</ele>
        <time>2020-07-16T00:05:56Z</time>
      </trkpt>
      <trkpt lat="41.945260" lon="-8.249640">
        <ele>601.780</ele>
        <time>2020-07-16T00:06:16Z</time>
      </trkpt>
      <trkpt lat="41.945470" lon="-8.250030">
        <ele>602.295</ele>
        <time>2020-07-16T00:06:36Z</time>
      </trkpt>
      <trkpt lat="41.945630" lon="-8.250210">
        <ele>605.149</ele>
        <time>2020-07-16T00:06:56Z</time>
      </trkpt>
      <trkpt lat="41.945930" lon="-8.250330">
        <ele>604.423</ele>
        <time>2020-07-16T00:07:16Z</time>
      </trkpt>
      <trkpt lat="41.946170" lon="-8.250450">
        <ele>603.008</ele>
        <time>2020-07-16T00:07:36Z</time>
      </trkpt>
      <trkpt lat="41.946500" lon="-8.250650">
        <ele>600.414</ele>
        <time>2020-07-16T00:07:56Z</time>
      </trkpt>
      <trkpt lat="41.946720" lon="-8.250830">
        <ele>600.251</ele>
        <time>2020-07-16T00:08:16Z</time>
      </trkpt>
      <trkpt lat="41.946910" lon="-8.251150">
        <ele>601.916</ele>
        <time>2020-07-16T00:08:36Z</time>
      </trkpt>
      <trkpt lat="41.947240" lon="-8.251530">
        <ele>606.234</ele>
        <time>2020-07-16T00:08:56Z</time>
      </trkpt>
      <trkpt lat="41.947390" lon="-8.251560">
        <ele>612.261</ele>
        <time>2020-07-16T00:09:16Z</time>
      </trkpt>
      <trkpt lat="41.947540" lon="-8.251540">
        <ele>617.761</ele>
        <time>2020-07-16T00:09:36Z</time>
      </trkpt>
      <trkpt lat="41.947590" lon="-8.251500">
        <ele>618.941</ele>
        <time>2020-07-16T00:09:56Z</time>
      </trkpt>
      <trkpt lat="41.947790" lon="-8.250980">
        <ele>612.352</ele>
        <time>2020-07-16T00:10:16Z</time>
      </trkpt>
      <trkpt lat="41.947930" lon="-8.250550">
        <ele>609.543</ele>
        <time>2020-07-16T00:10:36Z</time>
      </trkpt>
      <trkpt lat="41.948050" lon="-8.250300">
        <ele>603.964</ele>
        <time>2020-07-16T00:10:56Z</time>
      </trkpt>
      <trkpt lat="41.948180" lon="-8.250110">
        <ele>602.810</ele>
        <time>2020-07-16T00:11:16Z</time>
      </trkpt>
      <trkpt lat="41.948320" lon="-8.249960">
        <ele>603.308</ele>
        <time>2020-07-16T00:11:36Z</time>
      </trkpt>
      <trkpt lat="41.948780" lon="-8.249860">
        <ele>612.869</ele>
        <time>2020-07-16T00:11:56Z</time>
      </trkpt>
      <trkpt lat="41.948860" lon="-8.249730">
        <ele>608.776</ele>
        <time>2020-07-16T00:12:16Z</time>
      </trkpt>
      <trkpt lat="41.949240" lon="-8.249630">
        <ele>611.611</ele>
        <time>2020-07-16T00:12:36Z</time>
      </trkpt>
      <trkpt lat="41.949510" lon="-8.249510">
        <ele>607.439</ele>
        <time>2020-07-16T00:12:56Z</time>
      </trkpt>
      <trkpt lat="41.949770" lon="-8.249450">
        <ele>603.386</ele>
        <time>2020-07-16T00:13:16Z</time>
      </trkpt>
      <trkpt lat="41.950320" lon="-8.249470">
        <ele>602.586</ele>
        <time>2020-07-16T00:13:36Z</time>
      </trkpt>
      <trkpt lat="41.950600" lon="-8.249500">
        <ele>594.446</ele>
        <time>2020-07-16T00:13:56Z</time>
      </trkpt>
      <trkpt lat="41.950730" lon="-8.249560">
        <ele>593.087</ele>
        <time>2020-07-16T00:14:16Z</time>
      </trkpt>
      <trkpt lat="41.950860" lon="-8.249660">
        <ele>591.071</ele>
        <time>2020-07-16T00:14:36Z</time>
      </trkpt>
      <trkpt lat="41.951090" lon="-8.249910">
        <ele>588.741</ele>
        <time>2020-07-16T00:14:56Z</time>
      </trkpt>
      <trkpt lat="41.951230" lon="-8.249990">
        <ele>584.215</ele>
        <time>2020-07-16T00:15:16Z</time>
      </trkpt>
      <trkpt lat="41.951870" lon="-8.250220">
        <ele>582.408</ele>
        <time>2020-07-16T00:15:36Z</time>
      </trkpt>
      <trkpt lat="41.951950" lon="-8.250220">
        <ele>582.722</ele>
        <time>2020-07-16T00:15:56Z</time>
      </trkpt>
      <trkpt lat="41.952010" lon="-8.250180">
        <ele>583.319</ele>
        <time>2020-07-16T00:16:16Z</time>
      </trkpt>
      <trkpt lat="41.952070" lon="-8.250060">
        <ele>584.274</ele>
        <time>2020-07-16T00:16:36Z</time>
      </trkpt>
      <trkpt lat="41.952280" lon="-8.248900">
        <ele>590.632</ele>
        <time>2020-07-16T00:16:56Z</time>
      </trkpt>
      <trkpt lat="41.952340" lon="-8.248400">
        <ele>595.979</ele>
        <time>2020-07-16T00:17:16Z</time>
      </trkpt>
      <trkpt lat="41.952300" lon="-8.248240">
        <ele>597.969</ele>
        <time>2020-07-16T00:17:36Z</time>
      </trkpt>
      <trkpt lat="41.951870" lon="-8.247740">
        <ele>600.479</ele>
        <time>2020-07-16T00:17:56Z</time>
      </trkpt>
      <trkpt lat="41.951620" lon="-8.247480">
        <ele>602.440</ele>
        <time>2020-07-16T00:18:16Z</time>
      </trkpt>
      <trkpt lat="41.950290" lon="-8.246550">
        <ele>611.785</ele>
        <time>2020-07-16T00:18:36Z</time>
      </trkpt>
      <trkpt lat="41.950010" lon="-8.246370">
        <ele>610.289</ele>
        <time>2020-07-16T00:18:56Z</time>
      </trkpt>
      <trkpt lat="41.949610" lon="-8.246180">
        <ele>608.617</ele>
        <time>2020-07-16T00:19:16Z</time>
      </trkpt>
      <trkpt lat="41.949320" lon="-8.246000">
        <ele>603.108</ele>
        <time>2020-07-16T00:19:36Z</time>
      </trkpt>
      <trkpt lat="41.949130" lon="-8.245850">
        <ele>594.223</ele>
        <time>2020-07-16T00:19:56Z</time>
      </trkpt>
      <trkpt lat="41.949060" lon="-8.245730">
        <ele>591.430</ele>
        <time>2020-07-16T00:20:16Z</time>
      </trkpt>
      <trkpt lat="41.949040" lon="-8.245590">
        <ele>590.955</ele>
        <time>2020-07-16T00:20:36Z</time>
      </trkpt>
      <trkpt lat="41.949070" lon="-8.245290">
        <ele>598.573</ele>
        <time>2020-07-16T00:20:56Z</time>
      </trkpt>
      <trkpt lat="41.949040" lon="-8.245230">
        <ele>600.260</ele>
        <time>2020-07-16T00:21:16Z</time>
      </trkpt>
      <trkpt lat="41.948950" lon="-8.245130">
        <ele>600.990</ele>
        <time>2020-07-16T00:21:36Z</time>
      </trkpt>
      <trkpt lat="41.948800" lon="-8.245100">
        <ele>594.370</ele>
        <time>2020-07-16T00:21:56Z</time>
      </trkpt>
      <trkpt lat="41.948180" lon="-8.245100">
        <ele>581.291</ele>
        <time>2020-07-16T00:22:16Z</time>
      </trkpt>
      <trkpt lat="41.948020" lon="-8.245070">
        <ele>576.956</ele>
        <time>2020-07-16T00:22:36Z</time>
      </trkpt>
      <trkpt lat="41.947350" lon="-8.244870">
        <ele>596.259</ele>
        <time>2020-07-16T00:22:56Z</time>
      </trkpt>
      <trkpt lat="41.946830" lon="-8.244740">
        <ele>589.214</ele>
        <time>2020-07-16T00:23:16Z</time>
      </trkpt>
      <trkpt lat="41.946600" lon="-8.244650">
        <ele>585.708</ele>
        <time>2020-07-16T00:23:36Z</time>
      </trkpt>
      <trkpt lat="41.946360" lon="-8.244510">
        <ele>581.860</ele>
        <time>2020-07-16T00:23:56Z</time>
      </trkpt>
      <trkpt lat="41.945880" lon="-8.244190">
        <ele>586.917</ele>
        <time>2020-07-16T00:24:16Z</time>
      </trkpt>
      <trkpt lat="41.945510" lon="-8.244120">
        <ele>582.582</ele>
        <time>2020-07-16T00:24:36Z</time>
      </trkpt>
      <trkpt lat="41.945230" lon="-8.244020">
        <ele>580.010</ele>
        <time>2020-07-16T00:24:56Z</time>
      </trkpt>
      <trkpt lat="41.945070" lon="-8.243920">
        <ele>577.227</ele>
        <time>2020-07-16T00:25:16Z</time>
      </trkpt>
      <trkpt lat="41.944960" lon="-8.243800">
        <ele>576.127</ele>
        <time>2020-07-16T00:25:36Z</time>
      </trkpt>
      <trkpt lat="41.944680" lon="-8.243340">
        <ele>576.357</ele>
        <time>2020-07-16T00:25:56Z</time>
      </trkpt>
      <trkpt lat="41.944520" lon="-8.243210">
        <ele>574.928</ele>
        <time>2020-07-16T00:26:16Z</time>
      </trkpt>
      <trkpt lat="41.944220" lon="-8.243020">
        <ele>571.892</ele>
        <time>2020-07-16T00:26:36Z</time>
      </trkpt>
      <trkpt lat="41.943970" lon="-8.242920">
        <ele>568.773</ele>
        <time>2020-07-16T00:26:56Z</time>
      </trkpt>
      <trkpt lat="41.943810" lon="-8.242800">
        <ele>567.120</ele>
        <time>2020-07-16T00:27:16Z</time>
      </trkpt>
      <trkpt lat="41.943700" lon="-8.242660">
        <ele>566.708</ele>
        <time>2020-07-16T00:27:36Z</time>
      </trkpt>
      <trkpt lat="41.943640" lon="-8.242500">
        <ele>568.194</ele>
        <time>2020-07-16T00:27:56Z</time>
      </trkpt>
      <trkpt lat="41.943640" lon="-8.242350">
        <ele>570.781</ele>
        <time>2020-07-16T00:28:16Z</time>
      </trkpt>
      <trkpt lat="41.943740" lon="-8.241990">
        <ele>573.696</ele>
        <time>2020-07-16T00:28:36Z</time>
      </trkpt>
      <trkpt lat="41.944150" lon="-8.241050">
        <ele>584.144</ele>
        <time>2020-07-16T00:28:56Z</time>
      </trkpt>
      <trkpt lat="41.944620" lon="-8.240300">
        <ele>581.961</ele>
        <time>2020-07-16T00:29:16Z</time>
      </trkpt>
      <trkpt lat="41.944770" lon="-8.240110">
        <ele>583.471</ele>
        <time>2020-07-16T00:29:36Z</time>
      </trkpt>
      <trkpt lat="41.945390" lon="-8.239490">
        <ele>582.851</ele>
        <time>2020-07-16T00:29:56Z</time>
      </trkpt>
      <trkpt lat="41.945640" lon="-8.239260">
        <ele>577.752</ele>
        <time>2020-07-16T00:30:16Z</time>
      </trkpt>
      <trkpt lat="41.945940" lon="-8.239020">
        <ele>577.155</ele>
        <time>2020-07-16T00:30:36Z</time>
      </trkpt>
      <trkpt lat="41.946360" lon="-8.238700">
        <ele>576.607</ele>
        <time>2020-07-16T00:30:56Z</time>
      </trkpt>
      <trkpt lat="41.946650" lon="-8.238630">
        <ele>578.417</ele>
        <time>2020-07-16T00:31:16Z</time>
      </trkpt>
      <trkpt lat="41.946870" lon="-8.238420">
        <ele>575.508</ele>
        <time>2020-07-16T00:31:36Z</time>
      </trkpt>
      <trkpt lat="41.947030" lon="-8.238320">
        <ele>574.390</ele>
        <time>2020-07-16T00:31:56Z</time>
      </trkpt>
      <trkpt lat="41.947170" lon="-8.238300">
        <ele>575.067</ele>
        <time>2020-07-16T00:32:16Z</time>
      </trkpt>
      <trkpt lat="41.947530" lon="-8.238380">
        <ele>577.042</ele>
        <time>2020-07-16T00:32:36Z</time>
      </trkpt>
      <trkpt lat="41.947620" lon="-8.238340">
        <ele>577.390</ele>
        <time>2020-07-16T00:32:56Z</time>
      </trkpt>
      <trkpt lat="41.947680" lon="-8.238240">
        <ele>577.087</ele>
        <time>2020-07-16T00:33:16Z</time>
      </trkpt>
      <trkpt lat="41.947710" lon="-8.238100">
        <ele>575.617</ele>
        <time>2020-07-16T00:33:36Z</time>
      </trkpt>
      <trkpt lat="41.947710" lon="-8.237660">
        <ele>573.617</ele>
        <time>2020-07-16T00:33:56Z</time>
      </trkpt>
      <trkpt lat="41.947670" lon="-8.237460">
        <ele>572.258</ele>
        <time>2020-07-16T00:34:16Z</time>
      </trkpt>
      <trkpt lat="41.947540" lon="-8.237170">
        <ele>568.133</ele>
        <time>2020-07-16T00:34:36Z</time>
      </trkpt>
      <trkpt lat="41.947520" lon="-8.237010">
        <ele>566.023</ele>
        <time>2020-07-16T00:34:56Z</time>
      </trkpt>
      <trkpt lat="41.947530" lon="-8.236910">
        <ele>564.615</ele>
        <time>2020-07-16T00:35:16Z</time>
      </trkpt>
      <trkpt lat="41.947590" lon="-8.236820">
        <ele>563.508</ele>
        <time>2020-07-16T00:35:36Z</time>
      </trkpt>
      <trkpt lat="41.947690" lon="-8.236760">
        <ele>564.038</ele>
        <time>2020-07-16T00:35:56Z</time>
      </trkpt>
      <trkpt lat="41.947810" lon="-8.236730">
        <ele>565.935</ele>
        <time>2020-07-16T00:36:16Z</time>
      </trkpt>
      <trkpt lat="41.948190" lon="-8.236790">
        <ele>577.830</ele>
        <time>2020-07-16T00:36:36Z</time>
      </trkpt>
      <trkpt lat="41.948300" lon="-8.236770">
        <ele>581.618</ele>
        <time>2020-07-16T00:36:56Z</time>
      </trkpt>
      <trkpt lat="41.948340" lon="-8.236720">
        <ele>582.255</ele>
        <time>2020-07-16T00:37:16Z</time>
      </trkpt>
      <trkpt lat="41.948360" lon="-8.236600">
        <ele>580.525</ele>
        <time>2020-07-16T00:37:36Z</time>
      </trkpt>
      <trkpt lat="41.948370" lon="-8.236220">
        <ele>573.025</ele>
        <time>2020-07-16T00:37:56Z</time>
      </trkpt>
      <trkpt lat="41.948420" lon="-8.236070">
        <ele>571.626</ele>
        <time>2020-07-16T00:38:16Z</time>
      </trkpt>
      <trkpt lat="41.948510" lon="-8.235970">
        <ele>572.357</ele>
        <time>2020-07-16T00:38:36Z</time>
      </trkpt>
      <trkpt lat="41.948570" lon="-8.235940">
        <ele>573.100</ele>
        <time>2020-07-16T00:38:56Z</time>
      </trkpt>
      <trkpt lat="41.948670" lon="-8.235960">
        <ele>575.220</ele>
        <time>2020-07-16T00:39:16Z</time>
      </trkpt>
      <trkpt lat="41.949030" lon="-8.235950">
        <ele>581.508</ele>
        <time>2020-07-16T00:39:36Z</time>
      </trkpt>
      <trkpt lat="41.949280" lon="-8.235800">
        <ele>582.610</ele>
        <time>2020-07-16T00:39:56Z</time>
      </trkpt>
      <trkpt lat="41.949430" lon="-8.235750">
        <ele>584.337</ele>
        <time>2020-07-16T00:40:16Z</time>
      </trkpt>
      <trkpt lat="41.949640" lon="-8.235740">
        <ele>590.252</ele>
        <time>2020-07-16T00:40:36Z</time>
      </trkpt>
      <trkpt lat="41.949710" lon="-8.235710">
        <ele>591.290</ele>
        <time>2020-07-16T00:40:56Z</time>
      </trkpt>
      <trkpt lat="41.949760" lon="-8.235670">
        <ele>591.247</ele>
        <time>2020-07-16T00:41:16Z</time>
      </trkpt>
      <trkpt lat="41.949900" lon="-8.235410">
        <ele>585.747</ele>
        <time>2020-07-16T00:41:36Z</time>
      </trkpt>
      <trkpt lat="41.950020" lon="-8.235240">
        <ele>582.367</ele>
        <time>2020-07-16T00:41:56Z</time>
      </trkpt>
      <trkpt lat="41.950230" lon="-8.235060">
        <ele>583.088</ele>
        <time>2020-07-16T00:42:16Z</time>
      </trkpt>
      <trkpt lat="41.950510" lon="-8.234870">
        <ele>583.748</ele>
        <time>2020-07-16T00:42:36Z</time>
      </trkpt>
      <trkpt lat="41.950800" lon="-8.234630">
        <ele>580.561</ele>
        <time>2020-07-16T00:42:56Z</time>
      </trkpt>
      <trkpt lat="41.950950" lon="-8.234550">
        <ele>578.317</ele>
        <time>2020-07-16T00:43:16Z</time>
      </trkpt>
      <trkpt lat="41.951030" lon="-8.234540">
        <ele>577.908</ele>
        <time>2020-07-16T00:43:36Z</time>
      </trkpt>
      <trkpt lat="41.951210" lon="-8.234590">
        <ele>578.949</ele>
        <time>2020-07-16T00:43:56Z</time>
      </trkpt>
      <trkpt lat="41.951360" lon="-8.234660">
        <ele>580.056</ele>
        <time>2020-07-16T00:44:16Z</time>
      </trkpt>
      <trkpt lat="41.951440" lon="-8.234670">
        <ele>580.731</ele>
        <time>2020-07-16T00:44:36Z</time>
      </trkpt>
      <trkpt lat="41.951530" lon="-8.234650">
        <ele>581.139</ele>
        <time>2020-07-16T00:44:56Z</time>
      </trkpt>
      <trkpt lat="41.951660" lon="-8.234580">
        <ele>580.336</ele>
        <time>2020-07-16T00:45:16Z</time>
      </trkpt>
      <trkpt lat="41.951820" lon="-8.234530">
        <ele>583.056</ele>
        <time>2020-07-16T00:45:36Z</time>
      </trkpt>
      <trkpt lat="41.952110" lon="-8.234540">
        <ele>588.146</ele>
        <time>2020-07-16T00:45:56Z</time>
      </trkpt>
      <trkpt lat="41.952290" lon="-8.234470">
        <ele>588.367</ele>
        <time>2020-07-16T00:46:16Z</time>
      </trkpt>
      <trkpt lat="41.952490" lon="-8.234340">
        <ele>586.972</ele>
        <time>2020-07-16T00:46:36Z</time>
      </trkpt>
      <trkpt lat="41.952650" lon="-8.234280">
        <ele>585.913</ele>
        <time>2020-07-16T00:46:56Z</time>
      </trkpt>
      <trkpt lat="41.952770" lon="-8.234260">
        <ele>586.014</ele>
        <time>2020-07-16T00:47:16Z</time>
      </trkpt>
      <trkpt lat="41.952920" lon="-8.234280">
        <ele>586.408</ele>
        <time>2020-07-16T00:47:36Z</time>
      </trkpt>
      <trkpt lat="41.953010" lon="-8.234330">
        <ele>587.582</ele>
        <time>2020-07-16T00:47:56Z</time>
      </trkpt>
      <trkpt lat="41.953460" lon="-8.234930">
        <ele>590.159</ele>
        <time>2020-07-16T00:48:16Z</time>
      </trkpt>
      <trkpt lat="41.953630" lon="-8.235040">
        <ele>592.934</ele>
        <time>2020-07-16T00:48:36Z</time>
      </trkpt>
      <trkpt lat="41.953740" lon="-8.235050">
        <ele>595.392</ele>
        <time>2020-07-16T00:48:56Z</time>
      </trkpt>
      <trkpt lat="41.953870" lon="-8.235010">
        <ele>595.299</ele>
        <time>2020-07-16T00:49:16Z</time>
      </trkpt>
      <trkpt lat="41.954300" lon="-8.234780">
        <ele>594.139</ele>
        <time>2020-07-16T00:49:36Z</time>
      </trkpt>
      <trkpt lat="41.954470" lon="-8.234740">
        <ele>595.819</ele>
        <time>2020-07-16T00:49:56Z</time>
      </trkpt>
      <trkpt lat="41.954670" lon="-8.234730">
        <ele>602.590</ele>
        <time>2020-07-16T00:50:16Z</time>
      </trkpt>
      <trkpt lat="41.954760" lon="-8.234690">
        <ele>603.195</ele>
        <time>2020-07-16T00:50:36Z</time>
      </trkpt>
      <trkpt lat="41.954800" lon="-8.234610">
        <ele>600.249</ele>
        <time>2020-07-16T00:50:56Z</time>
      </trkpt>
      <trkpt lat="41.954900" lon="-8.234270">
        <ele>589.123</ele>
        <time>2020-07-16T00:51:16Z</time>
      </trkpt>
      <trkpt lat="41.955000" lon="-8.234160">
        <ele>587.708</ele>
        <time>2020-07-16T00:51:36Z</time>
      </trkpt>
      <trkpt lat="41.955070" lon="-8.234110">
        <ele>586.784</ele>
        <time>2020-07-16T00:51:56Z</time>
      </trkpt>
      <trkpt lat="41.955180" lon="-8.234070">
        <ele>587.221</ele>
        <time>2020-07-16T00:52:16Z</time>
      </trkpt>
      <trkpt lat="41.955330" lon="-8.234050">
        <ele>587.336</ele>
        <time>2020-07-16T00:52:36Z</time>
      </trkpt>
      <trkpt lat="41.955450" lon="-8.234080">
        <ele>586.384</ele>
        <time>2020-07-16T00:52:56Z</time>
      </trkpt>
      <trkpt lat="41.955670" lon="-8.234240">
        <ele>593.961</ele>
        <time>2020-07-16T00:53:16Z</time>
      </trkpt>
      <trkpt lat="41.955750" lon="-8.234240">
        <ele>594.491</ele>
        <time>2020-07-16T00:53:36Z</time>
      </trkpt>
      <trkpt lat="41.956030" lon="-8.234050">
        <ele>592.981</ele>
        <time>2020-07-16T00:53:56Z</time>
      </trkpt>
      <trkpt lat="41.956120" lon="-8.233960">
        <ele>592.482</ele>
        <time>2020-07-16T00:54:16Z</time>
      </trkpt>
      <trkpt lat="41.956170" lon="-8.233820">
        <ele>588.921</ele>
        <time>2020-07-16T00:54:36Z</time>
      </trkpt>
      <trkpt lat="41.956300" lon="-8.233120">
        <ele>571.941</ele>
        <time>2020-07-16T00:54:56Z</time>
      </trkpt>
      <trkpt lat="41.956360" lon="-8.232900">
        <ele>571.605</ele>
        <time>2020-07-16T00:55:16Z</time>
      </trkpt>
      <trkpt lat="41.956440" lon="-8.232730">
        <ele>571.708</ele>
        <time>2020-07-16T00:55:36Z</time>
      </trkpt>
      <trkpt lat="41.956580" lon="-8.232560">
        <ele>570.947</ele>
        <time>2020-07-16T00:55:56Z</time>
      </trkpt>
      <trkpt lat="41.956690" lon="-8.232490">
        <ele>572.534</ele>
        <time>2020-07-16T00:56:16Z</time>
      </trkpt>
      <trkpt lat="41.956840" lon="-8.232450">
        <ele>570.479</ele>
        <time>2020-07-16T00:56:36Z</time>
      </trkpt>
      <trkpt lat="41.957050" lon="-8.232460">
        <ele>568.737</ele>
        <time>2020-07-16T00:56:56Z</time>
      </trkpt>
      <trkpt lat="41.957330" lon="-8.232530">
        <ele>568.684</ele>
        <time>2020-07-16T00:57:16Z</time>
      </trkpt>
      <trkpt lat="41.957430" lon="-8.232600">
        <ele>571.544</ele>
        <time>2020-07-16T00:57:36Z</time>
      </trkpt>
      <trkpt lat="41.957720" lon="-8.233140">
        <ele>590.214</ele>
        <time>2020-07-16T00:57:56Z</time>
      </trkpt>
      <trkpt lat="41.957860" lon="-8.233280">
        <ele>595.525</ele>
        <time>2020-07-16T00:58:16Z</time>
      </trkpt>
      <trkpt lat="41.957960" lon="-8.233330">
        <ele>597.697</ele>
        <time>2020-07-16T00:58:36Z</time>
      </trkpt>
      <trkpt lat="41.958000" lon="-8.233330">
        <ele>597.723</ele>
        <time>2020-07-16T00:58:56Z</time>
      </trkpt>
      <trkpt lat="41.958060" lon="-8.233270">
        <ele>596.525</ele>
        <time>2020-07-16T00:59:16Z</time>
      </trkpt>
      <trkpt lat="41.958130" lon="-8.233140">
        <ele>595.508</ele>
        <time>2020-07-16T00:59:36Z</time>
      </trkpt>
      <trkpt lat="41.958160" lon="-8.232980">
        <ele>593.974</ele>
        <time>2020-07-16T00:59:56Z</time>
      </trkpt>
      <trkpt lat="41.958180" lon="-8.232600">
        <ele>589.311</ele>
        <time>2020-07-16T01:00:16Z</time>
      </trkpt>
      <trkpt lat="41.958170" lon="-8.232370">
        <ele>584.186</ele>
        <time>2020-07-16T01:00:36Z</time>
      </trkpt>
      <trkpt lat="41.958200" lon="-8.232170">
        <ele>580.654</ele>
        <time>2020-07-16T01:00:56Z</time>
      </trkpt>
      <trkpt lat="41.958550" lon="-8.231380">
        <ele>578.231</ele>
        <time>2020-07-16T01:01:16Z</time>
      </trkpt>
      <trkpt lat="41.958640" lon="-8.231240">
        <ele>575.531</ele>
        <time>2020-07-16T01:01:36Z</time>
      </trkpt>
      <trkpt lat="41.958740" lon="-8.231140">
        <ele>574.441</ele>
        <time>2020-07-16T01:01:56Z</time>
      </trkpt>
      <trkpt lat="41.959380" lon="-8.230770">
        <ele>575.462</ele>
        <time>2020-07-16T01:02:16Z</time>
      </trkpt>
      <trkpt lat="41.959760" lon="-8.230760">
        <ele>579.645</ele>
        <time>2020-07-16T01:02:36Z</time>
      </trkpt>
      <trkpt lat="41.959900" lon="-8.230730">
        <ele>580.547</ele>
        <time>2020-07-16T01:02:56Z</time>
      </trkpt>
      <trkpt lat="41.960000" lon="-8.230650">
        <ele>578.711</ele>
        <time>2020-07-16T01:03:16Z</time>
      </trkpt>
      <trkpt lat="41.960450" lon="-8.230070">
        <ele>572.508</ele>
        <time>2020-07-16T01:03:36Z</time>
      </trkpt>
      <trkpt lat="41.960720" lon="-8.229650">
        <ele>566.959</ele>
        <time>2020-07-16T01:03:56Z</time>
      </trkpt>
      <trkpt lat="41.960950" lon="-8.229350">
        <ele>564.266</ele>
        <time>2020-07-16T01:04:16Z</time>
      </trkpt>
      <trkpt lat="41.961420" lon="-8.228840">
        <ele>569.481</ele>
        <time>2020-07-16T01:04:36Z</time>
      </trkpt>
      <trkpt lat="41.961940" lon="-8.228360">
        <ele>580.199</ele>
        <time>2020-07-16T01:04:56Z</time>
      </trkpt>
      <trkpt lat="41.962020" lon="-8.228230">
        <ele>581.346</ele>
        <time>2020-07-16T01:05:16Z</time>
      </trkpt>
      <trkpt lat="41.962140" lon="-8.227880">
        <ele>579.416</ele>
        <time>2020-07-16T01:05:36Z</time>
      </trkpt>
      <trkpt lat="41.962230" lon="-8.227490">
        <ele>575.126</ele>
        <time>2020-07-16T01:05:56Z</time>
      </trkpt>
      <trkpt lat="41.962330" lon="-8.227220">
        <ele>573.957</ele>
        <time>2020-07-16T01:06:16Z</time>
      </trkpt>
      <trkpt lat="41.962540" lon="-8.226930">
        <ele>575.339</ele>
        <time>2020-07-16T01:06:36Z</time>
      </trkpt>
      <trkpt lat="41.962860" lon="-8.226530">
        <ele>576.901</ele>
        <time>2020-07-16T01:06:56Z</time>
      </trkpt>
      <trkpt lat="41.963060" lon="-8.226360">
        <ele>579.521</ele>
        <time>2020-07-16T01:07:16Z</time>
      </trkpt>
      <trkpt lat="41.963150" lon="-8.226300">
        <ele>581.908</ele>
        <time>2020-07-16T01:07:36Z</time>
      </trkpt>
      <trkpt lat="41.963260" lon="-8.226260">
        <ele>584.598</ele>
        <time>2020-07-16T01:07:56Z</time>
      </trkpt>
      <trkpt lat="41.963460" lon="-8.226270">
        <ele>587.425</ele>
        <time>2020-07-16T01:08:16Z</time>
      </trkpt>
      <trkpt lat="41.963640" lon="-8.226310">
        <ele>589.110</ele>
        <time>2020-07-16T01:08:36Z</time>
      </trkpt>
      <trkpt lat="41.963790" lon="-8.226280">
        <ele>592.228</ele>
        <time>2020-07-16T01:08:56Z</time>
      </trkpt>
      <trkpt lat="41.964130" lon="-8.226170">
        <ele>595.685</ele>
        <time>2020-07-16T01:09:16Z</time>
      </trkpt>
      <trkpt lat="41.964330" lon="-8.226130">
        <ele>598.815</ele>
        <time>2020-07-16T01:09:36Z</time>
      </trkpt>
      <trkpt lat="41.964880" lon="-8.225960">
        <ele>603.485</ele>
        <time>2020-07-16T01:09:56Z</time>
      </trkpt>
      <trkpt lat="41.966050" lon="-8.225210">
        <ele>620.956</ele>
        <time>2020-07-16T01:10:16Z</time>
      </trkpt>
      <trkpt lat="41.966280" lon="-8.225070">
        <ele>622.652</ele>
        <time>2020-07-16T01:10:36Z</time>
      </trkpt>
      <trkpt lat="41.966740" lon="-8.224860">
        <ele>621.553</ele>
        <time>2020-07-16T01:10:56Z</time>
      </trkpt>
      <trkpt lat="41.967190" lon="-8.224680">
        <ele>627.808</ele>
        <time>2020-07-16T01:11:16Z</time>
      </trkpt>
      <trkpt lat="41.967610" lon="-8.224480">
        <ele>631.108</ele>
        <time>2020-07-16T01:11:36Z</time>
      </trkpt>
      <trkpt lat="41.967850" lon="-8.224330">
        <ele>632.070</ele>
        <time>2020-07-16T01:11:56Z</time>
      </trkpt>
      <trkpt lat="41.968020" lon="-8.224170">
        <ele>634.617</ele>
        <time>2020-07-16T01:12:16Z</time>
      </trkpt>
      <trkpt lat="41.968190" lon="-8.223940">
        <ele>634.492</ele>
        <time>2020-07-16T01:12:36Z</time>
      </trkpt>
      <trkpt lat="41.968680" lon="-8.223190">
        <ele>643.040</ele>
        <time>2020-07-16T01:12:56Z</time>
      </trkpt>
      <trkpt lat="41.969170" lon="-8.222670">
        <ele>647.127</ele>
        <time>2020-07-16T01:13:16Z</time>
      </trkpt>
      <trkpt lat="41.969730" lon="-8.222030">
        <ele>646.847</ele>
        <time>2020-07-16T01:13:36Z</time>
      </trkpt>
      <trkpt lat="41.969960" lon="-8.221860">
        <ele>647.827</ele>
        <time>2020-07-16T01:13:56Z</time>
      </trkpt>
      <trkpt lat="41.970450" lon="-8.221600">
        <ele>654.868</ele>
        <time>2020-07-16T01:14:16Z</time>
      </trkpt>
      <trkpt lat="41.970540" lon="-8.221590">
        <ele>655.771</ele>
        <time>2020-07-16T01:14:36Z</time>
      </trkpt>
      <trkpt lat="41.970930" lon="-8.221840">
        <ele>651.541</ele>
        <time>2020-07-16T01:14:56Z</time>
      </trkpt>
      <trkpt lat="41.971030" lon="-8.221870">
        <ele>652.315</ele>
        <time>2020-07-16T01:15:16Z</time>
      </trkpt>
      <trkpt lat="41.971160" lon="-8.221850">
        <ele>654.308</ele>
        <time>2020-07-16T01:15:36Z</time>
      </trkpt>
      <trkpt lat="41.971370" lon="-8.221770">
        <ele>657.322</ele>
        <time>2020-07-16T01:15:56Z</time>
      </trkpt>
      <trkpt lat="41.972240" lon="-8.221530">
        <ele>657.939</ele>
        <time>2020-07-16T01:16:16Z</time>
      </trkpt>
      <trkpt lat="41.973170" lon="-8.221150">
        <ele>667.024</ele>
        <time>2020-07-16T01:16:36Z</time>
      </trkpt>
      <trkpt lat="41.973330" lon="-8.220950">
        <ele>671.972</ele>
        <time>2020-07-16T01:16:56Z</time>
      </trkpt>
      <trkpt lat="41.973520" lon="-8.220830">
        <ele>675.439</ele>
        <time>2020-07-16T01:17:16Z</time>
      </trkpt>
      <trkpt lat="41.973640" lon="-8.220810">
        <ele>676.519</ele>
        <time>2020-07-16T01:17:36Z</time>
      </trkpt>
      <trkpt lat="41.973850" lon="-8.220820">
        <ele>676.339</ele>
        <time>2020-07-16T01:17:56Z</time>
      </trkpt>
      <trkpt lat="41.974090" lon="-8.220720">
        <ele>678.720</ele>
        <time>2020-07-16T01:18:16Z</time>
      </trkpt>
      <trkpt lat="41.974190" lon="-8.220700">
        <ele>679.393</ele>
        <time>2020-07-16T01:18:36Z</time>
      </trkpt>
      <trkpt lat="41.974420" lon="-8.220690">
        <ele>679.765</ele>
        <time>2020-07-16T01:18:56Z</time>
      </trkpt>
      <trkpt lat="41.975230" lon="-8.220520">
        <ele>679.321</ele>
        <time>2020-07-16T01:19:16Z</time>
      </trkpt>
      <trkpt lat="41.975460" lon="-8.220450">
        <ele>684.708</ele>
        <time>2020-07-16T01:19:36Z</time>
      </trkpt>
      <trkpt lat="41.975680" lon="-8.220430">
        <ele>686.154</ele>
        <time>2020-07-16T01:19:56Z</time>
      </trkpt>
      <trkpt lat="41.976640" lon="-8.220570">
        <ele>684.721</ele>
        <time>2020-07-16T01:20:16Z</time>
      </trkpt>
      <trkpt lat="41.976790" lon="-8.220570">
        <ele>684.866</ele>
        <time>2020-07-16T01:20:36Z</time>
      </trkpt>
      <trkpt lat="41.977310" lon="-8.220410">
        <ele>692.214</ele>
        <time>2020-07-16T01:20:56Z</time>
      </trkpt>
      <trkpt lat="41.977580" lon="-8.220290">
        <ele>695.861</ele>
        <time>2020-07-16T01:21:16Z</time>
      </trkpt>
      <trkpt lat="41.978060" lon="-8.220020">
        <ele>699.571</ele>
        <time>2020-07-16T01:21:36Z</time>
      </trkpt>
      <trkpt lat="41.978170" lon="-8.220010">
        <ele>699.471</ele>
        <time>2020-07-16T01:21:56Z</time>
      </trkpt>
      <trkpt lat="41.978280" lon="-8.220060">
        <ele>698.472</ele>
        <time>2020-07-16T01:22:16Z</time>
      </trkpt>
      <trkpt lat="41.978340" lon="-8.220160">
        <ele>697.374</ele>
        <time>2020-07-16T01:22:36Z</time>
      </trkpt>
      <trkpt lat="41.978440" lon="-8.220410">
        <ele>702.856</ele>
        <time>2020-07-16T01:22:56Z</time>
      </trkpt>
      <trkpt lat="41.978580" lon="-8.220390">
        <ele>706.521</ele>
        <time>2020-07-16T01:23:16Z</time>
      </trkpt>
      <trkpt lat="41.978740" lon="-8.220410">
        <ele>710.808</ele>
        <time>2020-07-16T01:23:36Z</time>
      </trkpt>
      <trkpt lat="41.978870" lon="-8.220360">
        <ele>710.882</ele>
        <time>2020-07-16T01:23:56Z</time>
      </trkpt>
      <trkpt lat="41.979010" lon="-8.220240">
        <ele>709.139</ele>
        <time>2020-07-16T01:24:16Z</time>
      </trkpt>
      <trkpt lat="41.979170" lon="-8.220060">
        <ele>708.654</ele>
        <time>2020-07-16T01:24:36Z</time>
      </trkpt>
      <trkpt lat="41.979370" lon="-8.219920">
        <ele>711.142</ele>
        <time>2020-07-16T01:24:56Z</time>
      </trkpt>
      <trkpt lat="41.980490" lon="-8.219380">
        <ele>722.019</ele>
        <time>2020-07-16T01:25:16Z</time>
      </trkpt>
      <trkpt lat="41.980670" lon="-8.219340">
        <ele>723.449</ele>
        <time>2020-07-16T01:25:36Z</time>
      </trkpt>
      <trkpt lat="41.981270" lon="-8.219260">
        <ele>727.379</ele>
        <time>2020-07-16T01:25:56Z</time>
      </trkpt>
      <trkpt lat="41.981460" lon="-8.219260">
        <ele>728.560</ele>
        <time>2020-07-16T01:26:16Z</time>
      </trkpt>
      <trkpt lat="41.981800" lon="-8.219370">
        <ele>736.111</ele>
        <time>2020-07-16T01:26:36Z</time>
      </trkpt>
      <trkpt lat="41.981990" lon="-8.219380">
        <ele>737.521</ele>
        <time>2020-07-16T01:26:56Z</time>
      </trkpt>
      <trkpt lat="41.982820" lon="-8.219160">
        <ele>740.303</ele>
        <time>2020-07-16T01:27:16Z</time>
      </trkpt>
      <trkpt lat="41.982930" lon="-8.219090">
        <ele>744.908</ele>
        <time>2020-07-16T01:27:36Z</time>
      </trkpt>
      <trkpt lat="41.983010" lon="-8.218940">
        <ele>744.286</ele>
        <time>2020-07-16T01:27:56Z</time>
      </trkpt>
      <trkpt lat="41.983050" lon="-8.218810">
        <ele>742.453</ele>
        <time>2020-07-16T01:28:16Z</time>
      </trkpt>
      <trkpt lat="41.983080" lon="-8.218570">
        <ele>739.968</ele>
        <time>2020-07-16T01:28:36Z</time>
      </trkpt>
      <trkpt lat="41.983090" lon="-8.218200">
        <ele>738.536</ele>
        <time>2020-07-16T01:28:56Z</time>
      </trkpt>
      <trkpt lat="41.983180" lon="-8.217870">
        <ele>737.113</ele>
        <time>2020-07-16T01:29:16Z</time>
      </trkpt>
      <trkpt lat="41.983250" lon="-8.217710">
        <ele>736.343</ele>
        <time>2020-07-16T01:29:36Z</time>
      </trkpt>
      <trkpt lat="41.983350" lon="-8.217590">
        <ele>736.453</ele>
        <time>2020-07-16T01:29:56Z</time>
      </trkpt>
      <trkpt lat="41.983450" lon="-8.217550">
        <ele>736.844</ele>
        <time>2020-07-16T01:30:16Z</time>
      </trkpt>
      <trkpt lat="41.983510" lon="-8.217560">
        <ele>737.114</ele>
        <time>2020-07-16T01:30:36Z</time>
      </trkpt>
      <trkpt lat="41.983810" lon="-8.217820">
        <ele>742.354</ele>
        <time>2020-07-16T01:30:56Z</time>
      </trkpt>
      <trkpt lat="41.983990" lon="-8.217910">
        <ele>746.309</ele>
        <time>2020-07-16T01:31:16Z</time>
      </trkpt>
      <trkpt lat="41.984130" lon="-8.217930">
        <ele>748.908</ele>
        <time>2020-07-16T01:31:36Z</time>
      </trkpt>
      <trkpt lat="41.984220" lon="-8.217890">
        <ele>749.226</ele>
        <time>2020-07-16T01:31:56Z</time>
      </trkpt>
      <trkpt lat="41.984270" lon="-8.217840">
        <ele>748.313</ele>
        <time>2020-07-16T01:32:16Z</time>
      </trkpt>
      <trkpt lat="41.984980" lon="-8.216850">
        <ele>744.398</ele>
        <time>2020-07-16T01:32:36Z</time>
      </trkpt>
      <trkpt lat="41.985110" lon="-8.216750">
        <ele>746.466</ele>
        <time>2020-07-16T01:32:56Z</time>
      </trkpt>
      <trkpt lat="41.985390" lon="-8.216610">
        <ele>751.373</ele>
        <time>2020-07-16T01:33:16Z</time>
      </trkpt>
      <trkpt lat="41.985670" lon="-8.216550">
        <ele>757.483</ele>
        <time>2020-07-16T01:33:36Z</time>
      </trkpt>
      <trkpt lat="41.985770" lon="-8.216510">
        <ele>759.563</ele>
        <time>2020-07-16T01:33:56Z</time>
      </trkpt>
      <trkpt lat="41.986130" lon="-8.216220">
        <ele>761.294</ele>
        <time>2020-07-16T01:34:16Z</time>
      </trkpt>
      <trkpt lat="41.986680" lon="-8.215810">
        <ele>758.841</ele>
        <time>2020-07-16T01:34:36Z</time>
      </trkpt>
      <trkpt lat="41.986880" lon="-8.215580">
        <ele>758.481</ele>
        <time>2020-07-16T01:34:56Z</time>
      </trkpt>
      <trkpt lat="41.987080" lon="-8.215410">
        <ele>760.909</ele>
        <time>2020-07-16T01:35:16Z</time>
      </trkpt>
      <trkpt lat="41.987250" lon="-8.215350">
        <ele>762.108</ele>
        <time>2020-07-16T01:35:36Z</time>
      </trkpt>
      <trkpt lat="41.987380" lon="-8.215350">
        <ele>764.749</ele>
        <time>2020-07-16T01:35:56Z</time>
      </trkpt>
      <trkpt lat="41.987550" lon="-8.215320">
        <ele>767.786</ele>
        <time>2020-07-16T01:36:16Z</time>
      </trkpt>
      <trkpt lat="41.987690" lon="-8.215220">
        <ele>768.721</ele>
        <time>2020-07-16T01:36:36Z</time>
      </trkpt>
      <trkpt lat="41.987760" lon="-8.215150">
        <ele>768.459</ele>
        <time>2020-07-16T01:36:56Z</time>
      </trkpt>
      <trkpt lat="41.987910" lon="-8.214970">
        <ele>768.546</ele>
        <time>2020-07-16T01:37:16Z</time>
      </trkpt>
      <trkpt lat="41.988040" lon="-8.214860">
        <ele>769.066</ele>
        <time>2020-07-16T01:37:36Z</time>
      </trkpt>
      <trkpt lat="41.988440" lon="-8.214600">
        <ele>767.956</ele>
        <time>2020-07-16T01:37:56Z</time>
      </trkpt>
      <trkpt lat="41.988660" lon="-8.214470">
        <ele>764.717</ele>
        <time>2020-07-16T01:38:16Z</time>
      </trkpt>
      <trkpt lat="41.989580" lon="-8.214020">
        <ele>766.073</ele>
        <time>2020-07-16T01:38:36Z</time>
      </trkpt>
      <trkpt lat="41.990010" lon="-8.213790">
        <ele>765.385</ele>
        <time>2020-07-16T01:38:56Z</time>
      </trkpt>
      <trkpt lat="41.990090" lon="-8.213700">
        <ele>764.213</ele>
        <time>2020-07-16T01:39:16Z</time>
      </trkpt>
      <trkpt lat="41.990260" lon="-8.213390">
        <ele>763.108</ele>
        <time>2020-07-16T01:39:36Z</time>
      </trkpt>
      <trkpt lat="41.990360" lon="-8.213280">
        <ele>763.972</ele>
        <time>2020-07-16T01:39:56Z</time>
      </trkpt>
      <trkpt lat="41.990600" lon="-8.213080">
        <ele>767.529</ele>
        <time>2020-07-16T01:40:16Z</time>
      </trkpt>
      <trkpt lat="41.991260" lon="-8.212750">
        <ele>771.614</ele>
        <time>2020-07-16T01:40:36Z</time>
      </trkpt>
      <trkpt lat="41.991600" lon="-8.212620">
        <ele>773.552</ele>
        <time>2020-07-16T01:40:56Z</time>
      </trkpt>
      <trkpt lat="41.992390" lon="-8.212490">
        <ele>775.859</ele>
        <time>2020-07-16T01:41:16Z</time>
      </trkpt>
      <trkpt lat="41.992490" lon="-8.212450">
        <ele>776.929</ele>
        <time>2020-07-16T01:41:36Z</time>
      </trkpt>
      <trkpt lat="41.992810" lon="-8.212240">
        <ele>783.979</ele>
        <time>2020-07-16T01:41:56Z</time>
      </trkpt>
      <trkpt lat="41.993240" lon="-8.212020">
        <ele>790.110</ele>
        <time>2020-07-16T01:42:16Z</time>
      </trkpt>
      <trkpt lat="41.993710" lon="-8.211860">
        <ele>795.071</ele>
        <time>2020-07-16T01:42:36Z</time>
      </trkpt>
      <trkpt lat="41.994350" lon="-8.211610">
        <ele>793.941</ele>
        <time>2020-07-16T01:42:56Z</time>
      </trkpt>
      <trkpt lat="41.994700" lon="-8.211530">
        <ele>795.415</ele>
        <time>2020-07-16T01:43:16Z</time>
      </trkpt>
      <trkpt lat="41.995740" lon="-8.211510">
        <ele>804.508</ele>
        <time>2020-07-16T01:43:36Z</time>
      </trkpt>
      <trkpt lat="41.995940" lon="-8.211410">
        <ele>804.242</ele>
        <time>2020-07-16T01:43:56Z</time>
      </trkpt>
      <trkpt lat="41.996550" lon="-8.210830">
        <ele>803.919</ele>
        <time>2020-07-16T01:44:16Z</time>
      </trkpt>
      <trkpt lat="41.996690" lon="-8.210760">
        <ele>804.654</ele>
        <time>2020-07-16T01:44:36Z</time>
      </trkpt>
      <trkpt lat="41.997340" lon="-8.210600">
        <ele>807.912</ele>
        <time>2020-07-16T01:44:56Z</time>
      </trkpt>
      <trkpt lat="41.998210" lon="-8.210100">
        <ele>815.639</ele>
        <time>2020-07-16T01:45:16Z</time>
      </trkpt>
      <trkpt lat="41.998670" lon="-8.209790">
        <ele>816.579</ele>
        <time>2020-07-16T01:45:36Z</time>
      </trkpt>
      <trkpt lat="41.998810" lon="-8.209720">
        <ele>815.629</ele>
        <time>2020-07-16T01:45:56Z</time>
      </trkpt>
      <trkpt lat="41.999750" lon="-8.209530">
        <ele>826.060</ele>
        <time>2020-07-16T01:46:16Z</time>
      </trkpt>
      <trkpt lat="42.000280" lon="-8.209620">
        <ele>822.528</ele>
        <time>2020-07-16T01:46:36Z</time>
      </trkpt>
      <trkpt lat="42.001000" lon="-8.209680">
        <ele>828.389</ele>
        <time>2020-07-16T01:46:56Z</time>
      </trkpt>
      <trkpt lat="42.001150" lon="-8.209670">
        <ele>828.617</ele>
        <time>2020-07-16T01:47:16Z</time>
      </trkpt>
      <trkpt lat="42.001320" lon="-8.209630">
        <ele>828.308</ele>
        <time>2020-07-16T01:47:36Z</time>
      </trkpt>
      <trkpt lat="42.001600" lon="-8.209530">
        <ele>828.367</ele>
        <time>2020-07-16T01:47:56Z</time>
      </trkpt>
      <trkpt lat="42.001810" lon="-8.209480">
        <ele>829.294</ele>
        <time>2020-07-16T01:48:16Z</time>
      </trkpt>
      <trkpt lat="42.002420" lon="-8.209380">
        <ele>836.539</ele>
        <time>2020-07-16T01:48:36Z</time>
      </trkpt>
      <trkpt lat="42.002680" lon="-8.209320">
        <ele>839.557</ele>
        <time>2020-07-16T01:48:56Z</time>
      </trkpt>
      <trkpt lat="42.002840" lon="-8.209210">
        <ele>841.494</ele>
        <time>2020-07-16T01:49:16Z</time>
      </trkpt>
      <trkpt lat="42.003310" lon="-8.208640">
        <ele>846.054</ele>
        <time>2020-07-16T01:49:36Z</time>
      </trkpt>
      <trkpt lat="42.003450" lon="-8.208520">
        <ele>847.124</ele>
        <time>2020-07-16T01:49:56Z</time>
      </trkpt>
      <trkpt lat="42.003860" lon="-8.208290">
        <ele>848.235</ele>
        <time>2020-07-16T01:50:16Z</time>
      </trkpt>
      <trkpt lat="42.004240" lon="-8.207960">
        <ele>849.463</ele>
        <time>2020-07-16T01:50:36Z</time>
      </trkpt>
      <trkpt lat="42.004600" lon="-8.207600">
        <ele>854.244</ele>
        <time>2020-07-16T01:50:56Z</time>
      </trkpt>
      <trkpt lat="42.004880" lon="-8.207410">
        <ele>857.918</ele>
        <time>2020-07-16T01:51:16Z</time>
      </trkpt>
      <trkpt lat="42.005520" lon="-8.207080">
        <ele>860.608</ele>
        <time>2020-07-16T01:51:36Z</time>
      </trkpt>
      <trkpt lat="42.005960" lon="-8.206810">
        <ele>860.521</ele>
        <time>2020-07-16T01:51:56Z</time>
      </trkpt>
      <trkpt lat="42.006070" lon="-8.206810">
        <ele>860.528</ele>
        <time>2020-07-16T01:52:16Z</time>
      </trkpt>
      <trkpt lat="42.006180" lon="-8.206840">
        <ele>860.693</ele>
        <time>2020-07-16T01:52:36Z</time>
      </trkpt>
      <trkpt lat="42.006390" lon="-8.206970">
        <ele>860.841</ele>
        <time>2020-07-16T01:52:56Z</time>
      </trkpt>
      <trkpt lat="42.006950" lon="-8.207460">
        <ele>859.788</ele>
        <time>2020-07-16T01:53:16Z</time>
      </trkpt>
      <trkpt lat="42.007600" lon="-8.207780">
        <ele>867.528</ele>
        <time>2020-07-16T01:53:36Z</time>
      </trkpt>
      <trkpt lat="42.007680" lon="-8.207930">
        <ele>869.758</ele>
        <time>2020-07-16T01:53:56Z</time>
      </trkpt>
      <trkpt lat="42.007680" lon="-8.208080">
        <ele>870.889</ele>
        <time>2020-07-16T01:54:16Z</time>
      </trkpt>
      <trkpt lat="42.007660" lon="-8.208150">
        <ele>871.177</ele>
        <time>2020-07-16T01:54:36Z</time>
      </trkpt>
      <trkpt lat="42.007510" lon="-8.208430">
        <ele>873.861</ele>
        <time>2020-07-16T01:54:56Z</time>
      </trkpt>
      <trkpt lat="42.007470" lon="-8.208570">
        <ele>876.427</ele>
        <time>2020-07-16T01:55:16Z</time>
      </trkpt>
      <trkpt lat="42.007470" lon="-8.208690">
        <ele>878.008</ele>
        <time>2020-07-16T01:55:36Z</time>
      </trkpt>
      <trkpt lat="42.007530" lon="-8.208780">
        <ele>878.752</ele>
        <time>2020-07-16T01:55:56Z</time>
      </trkpt>
      <trkpt lat="42.007600" lon="-8.208800">
        <ele>878.799</ele>
        <time>2020-07-16T01:56:16Z</time>
      </trkpt>
      <trkpt lat="42.007770" lon="-8.208790">
        <ele>878.014</ele>
        <time>2020-07-16T01:56:36Z</time>
      </trkpt>
      <trkpt lat="42.008570" lon="-8.208550">
        <ele>883.482</ele>
        <time>2020-07-16T01:56:56Z</time>
      </trkpt>
      <trkpt lat="42.009250" lon="-8.208550">
        <ele>890.419</ele>
        <time>2020-07-16T01:57:16Z</time>
      </trkpt>
      <trkpt lat="42.009540" lon="-8.208520">
        <ele>892.879</ele>
        <time>2020-07-16T01:57:36Z</time>
      </trkpt>
      <trkpt lat="42.010330" lon="-8.208100">
        <ele>906.719</ele>
        <time>2020-07-16T01:57:56Z</time>
      </trkpt>
      <trkpt lat="42.010510" lon="-8.207980">
        <ele>911.510</ele>
        <time>2020-07-16T01:58:16Z</time>
      </trkpt>
      <trkpt lat="42.010670" lon="-8.207790">
        <ele>911.884</ele>
        <time>2020-07-16T01:58:36Z</time>
      </trkpt>
      <trkpt lat="42.010800" lon="-8.207570">
        <ele>909.007</ele>
        <time>2020-07-16T01:58:56Z</time>
      </trkpt>
      <trkpt lat="42.010880" lon="-8.207490">
        <ele>909.417</ele>
        <time>2020-07-16T01:59:16Z</time>
      </trkpt>
      <trkpt lat="42.011280" lon="-8.207170">
        <ele>917.108</ele>
        <time>2020-07-16T01:59:36Z</time>
      </trkpt>
      <trkpt lat="42.011450" lon="-8.207080">
        <ele>919.143</ele>
        <time>2020-07-16T01:59:56Z</time>
      </trkpt>
      <trkpt lat="42.011930" lon="-8.206970">
        <ele>928.640</ele>
        <time>2020-07-16T02:00:16Z</time>
      </trkpt>
      <trkpt lat="42.012560" lon="-8.206700">
        <ele>939.225</ele>
        <time>2020-07-16T02:00:36Z</time>
      </trkpt>
      <trkpt lat="42.013770" lon="-8.205920">
        <ele>950.223</ele>
        <time>2020-07-16T02:00:56Z</time>
      </trkpt>
      <trkpt lat="42.014550" lon="-8.205590">
        <ele>958.220</ele>
        <time>2020-07-16T02:01:16Z</time>
      </trkpt>
      <trkpt lat="42.015370" lon="-8.205350">
        <ele>972.710</ele>
        <time>2020-07-16T02:01:36Z</time>
      </trkpt>
      <trkpt lat="42.015860" lon="-8.205120">
        <ele>977.910</ele>
        <time>2020-07-16T02:01:56Z</time>
      </trkpt>
      <trkpt lat="42.017440" lon="-8.204330">
        <ele>981.131</ele>
        <time>2020-07-16T02:02:16Z</time>
      </trkpt>
      <trkpt lat="42.017590" lon="-8.204290">
        <ele>983.778</ele>
        <time>2020-07-16T02:02:36Z</time>
      </trkpt>
      <trkpt lat="42.017860" lon="-8.204260">
        <ele>988.733</ele>
        <time>2020-07-16T02:02:56Z</time>
      </trkpt>
      <trkpt lat="42.018670" lon="-8.204240">
        <ele>993.626</ele>
        <time>2020-07-16T02:03:16Z</time>
      </trkpt>
      <trkpt lat="42.018770" lon="-8.204210">
        <ele>993.008</ele>
        <time>2020-07-16T02:03:36Z</time>
      </trkpt>
      <trkpt lat="42.018880" lon="-8.204150">
        <ele>992.062</ele>
        <time>2020-07-16T02:03:56Z</time>
      </trkpt>
      <trkpt lat="42.019110" lon="-8.203930">
        <ele>987.439</ele>
        <time>2020-07-16T02:04:16Z</time>
      </trkpt>
      <trkpt lat="42.019240" lon="-8.203780">
        <ele>984.984</ele>
        <time>2020-07-16T02:04:36Z</time>
      </trkpt>
      <trkpt lat="42.019450" lon="-8.203380">
        <ele>979.532</ele>
        <time>2020-07-16T02:04:56Z</time>
      </trkpt>
      <trkpt lat="42.019580" lon="-8.203050">
        <ele>976.749</ele>
        <time>2020-07-16T02:05:16Z</time>
      </trkpt>
      <trkpt lat="42.019630" lon="-8.202300">
        <ele>972.839</ele>
        <time>2020-07-16T02:05:36Z</time>
      </trkpt>
      <trkpt lat="42.019610" lon="-8.202190">
        <ele>972.079</ele>
        <time>2020-07-16T02:05:56Z</time>
      </trkpt>
      <trkpt lat="42.019540" lon="-8.202000">
        <ele>970.960</ele>
        <time>2020-07-16T02:06:16Z</time>
      </trkpt>
      <trkpt lat="42.019460" lon="-8.201880">
        <ele>972.074</ele>
        <time>2020-07-16T02:06:36Z</time>
      </trkpt>
      <trkpt lat="42.019400" lon="-8.201730">
        <ele>970.656</ele>
        <time>2020-07-16T02:06:56Z</time>
      </trkpt>
      <trkpt lat="42.019390" lon="-8.201580">
        <ele>969.221</ele>
        <time>2020-07-16T02:07:16Z</time>
      </trkpt>
      <trkpt lat="42.019420" lon="-8.201470">
        <ele>967.908</ele>
        <time>2020-07-16T02:07:36Z</time>
      </trkpt>
      <trkpt lat="42.019490" lon="-8.201390">
        <ele>966.072</ele>
        <time>2020-07-16T02:07:56Z</time>
      </trkpt>
      <trkpt lat="42.019670" lon="-8.201290">
        <ele>964.589</ele>
        <time>2020-07-16T02:08:16Z</time>
      </trkpt>
      <trkpt lat="42.020400" lon="-8.201010">
        <ele>956.764</ele>
        <time>2020-07-16T02:08:36Z</time>
      </trkpt>
      <trkpt lat="42.020560" lon="-8.200990">
        <ele>954.582</ele>
        <time>2020-07-16T02:08:56Z</time>
      </trkpt>
      <trkpt lat="42.020680" lon="-8.201030">
        <ele>953.769</ele>
        <time>2020-07-16T02:09:16Z</time>
      </trkpt>
      <trkpt lat="42.020820" lon="-8.201140">
        <ele>951.549</ele>
        <time>2020-07-16T02:09:36Z</time>
      </trkpt>
      <trkpt lat="42.021060" lon="-8.201440">
        <ele>947.819</ele>
        <time>2020-07-16T02:09:56Z</time>
      </trkpt>
      <trkpt lat="42.021290" lon="-8.201650">
        <ele>942.120</ele>
        <time>2020-07-16T02:10:16Z</time>
      </trkpt>
      <trkpt lat="42.021430" lon="-8.201720">
        <ele>938.999</ele>
        <time>2020-07-16T02:10:36Z</time>
      </trkpt>
      <trkpt lat="42.021550" lon="-8.201730">
        <ele>936.607</ele>
        <time>2020-07-16T02:10:56Z</time>
      </trkpt>
      <trkpt lat="42.021720" lon="-8.201690">
        <ele>934.627</ele>
        <time>2020-07-16T02:11:16Z</time>
      </trkpt>
      <trkpt lat="42.023010" lon="-8.201150">
        <ele>920.308</ele>
        <time>2020-07-16T02:11:36Z</time>
      </trkpt>
      <trkpt lat="42.023150" lon="-8.201140">
        <ele>918.214</ele>
        <time>2020-07-16T02:11:56Z</time>
      </trkpt>
      <trkpt lat="42.023270" lon="-8.201170">
        <ele>914.881</ele>
        <time>2020-07-16T02:12:16Z</time>
      </trkpt>
      <trkpt lat="42.023470" lon="-8.201180">
        <ele>911.056</ele>
        <time>2020-07-16T02:12:36Z</time>
      </trkpt>
      <trkpt lat="42.028220" lon="-8.199760">
        <ele>886.364</ele>
        <time>2020-07-16T02:12:56Z</time>
      </trkpt>
      <trkpt lat="42.028400" lon="-8.199670">
        <ele>886.751</ele>
        <time>2020-07-16T02:13:16Z</time>
      </trkpt>
      <trkpt lat="42.028760" lon="-8.199310">
        <ele>885.821</ele>
        <time>2020-07-16T02:13:36Z</time>
      </trkpt>
      <trkpt lat="42.029020" lon="-8.199140">
        <ele>885.291</ele>
        <time>2020-07-16T02:13:56Z</time>
      </trkpt>
      <trkpt lat="42.029520" lon="-8.198840">
        <ele>886.852</ele>
        <time>2020-07-16T02:14:16Z</time>
      </trkpt>
      <trkpt lat="42.029670" lon="-8.198820">
        <ele>887.411</ele>
        <time>2020-07-16T02:14:36Z</time>
      </trkpt>
      <trkpt lat="42.030770" lon="-8.198990">
        <ele>883.921</ele>
        <time>2020-07-16T02:14:56Z</time>
      </trkpt>
      <trkpt lat="42.031080" lon="-8.199080">
        <ele>880.603</ele>
        <time>2020-07-16T02:15:16Z</time>
      </trkpt>
      <trkpt lat="42.031220" lon="-8.199170">
        <ele>879.608</ele>
        <time>2020-07-16T02:15:36Z</time>
      </trkpt>
      <trkpt lat="42.031530" lon="-8.199470">
        <ele>879.056</ele>
        <time>2020-07-16T02:15:56Z</time>
      </trkpt>
      <trkpt lat="42.031750" lon="-8.199610">
        <ele>880.553</ele>
        <time>2020-07-16T02:16:16Z</time>
      </trkpt>
      <trkpt lat="42.032270" lon="-8.199800">
        <ele>880.978</ele>
        <time>2020-07-16T02:16:36Z</time>
      </trkpt>
      <trkpt lat="42.032500" lon="-8.199860">
        <ele>880.576</ele>
        <time>2020-07-16T02:16:56Z</time>
      </trkpt>
      <trkpt lat="42.032640" lon="-8.199870">
        <ele>880.253</ele>
        <time>2020-07-16T02:17:16Z</time>
      </trkpt>
      <trkpt lat="42.033170" lon="-8.199700">
        <ele>877.083</ele>
        <time>2020-07-16T02:17:36Z</time>
      </trkpt>
      <trkpt lat="42.033420" lon="-8.199560">
        <ele>875.963</ele>
        <time>2020-07-16T02:17:56Z</time>
      </trkpt>
      <trkpt lat="42.033590" lon="-8.199400">
        <ele>875.264</ele>
        <time>2020-07-16T02:18:16Z</time>
      </trkpt>
      <trkpt lat="42.033970" lon="-8.198870">
        <ele>873.387</ele>
        <time>2020-07-16T02:18:36Z</time>
      </trkpt>
      <trkpt lat="42.034720" lon="-8.197700">
        <ele>877.342</ele>
        <time>2020-07-16T02:18:56Z</time>
      </trkpt>
      <trkpt lat="42.034910" lon="-8.197490">
        <ele>878.026</ele>
        <time>2020-07-16T02:19:16Z</time>
      </trkpt>
      <trkpt lat="42.035220" lon="-8.197240">
        <ele>876.608</ele>
        <time>2020-07-16T02:19:36Z</time>
      </trkpt>
      <trkpt lat="42.035980" lon="-8.196740">
        <ele>876.693</ele>
        <time>2020-07-16T02:19:56Z</time>
      </trkpt>
      <trkpt lat="42.036290" lon="-8.196590">
        <ele>876.380</ele>
        <time>2020-07-16T02:20:16Z</time>
      </trkpt>
      <trkpt lat="42.036790" lon="-8.196420">
        <ele>876.945</ele>
        <time>2020-07-16T02:20:36Z</time>
      </trkpt>
      <trkpt lat="42.037610" lon="-8.196180">
        <ele>873.463</ele>
        <time>2020-07-16T02:20:56Z</time>
      </trkpt>
      <trkpt lat="42.037880" lon="-8.196120">
        <ele>874.330</ele>
        <time>2020-07-16T02:21:16Z</time>
      </trkpt>
      <trkpt lat="42.038170" lon="-8.196100">
        <ele>874.670</ele>
        <time>2020-07-16T02:21:36Z</time>
      </trkpt>
      <trkpt lat="42.039300" lon="-8.196130">
        <ele>867.610</ele>
        <time>2020-07-16T02:21:56Z</time>
      </trkpt>
      <trkpt lat="42.040130" lon="-8.196110">
        <ele>870.031</ele>
        <time>2020-07-16T02:22:16Z</time>
      </trkpt>
      <trkpt lat="42.040710" lon="-8.196130">
        <ele>869.418</ele>
        <time>2020-07-16T02:22:36Z</time>
      </trkpt>
      <trkpt lat="42.040790" lon="-8.196150">
        <ele>869.098</ele>
        <time>2020-07-16T02:22:56Z</time>
      </trkpt>
      <trkpt lat="42.040910" lon="-8.196220">
        <ele>868.417</ele>
        <time>2020-07-16T02:23:16Z</time>
      </trkpt>
      <trkpt lat="42.041210" lon="-8.196460">
        <ele>867.708</ele>
        <time>2020-07-16T02:23:36Z</time>
      </trkpt>
      <trkpt lat="42.041350" lon="-8.196610">
        <ele>867.816</ele>
        <time>2020-07-16T02:23:56Z</time>
      </trkpt>
      <trkpt lat="42.041740" lon="-8.197230">
        <ele>867.513</ele>
        <time>2020-07-16T02:24:16Z</time>
      </trkpt>
      <trkpt lat="42.042100" lon="-8.197860">
        <ele>866.048</ele>
        <time>2020-07-16T02:24:36Z</time>
      </trkpt>
      <trkpt lat="42.042220" lon="-8.198140">
        <ele>866.046</ele>
        <time>2020-07-16T02:24:56Z</time>
      </trkpt>
      <trkpt lat="42.042300" lon="-8.198510">
        <ele>867.573</ele>
        <time>2020-07-16T02:25:16Z</time>
      </trkpt>
      <trkpt lat="42.042400" lon="-8.199540">
        <ele>870.443</ele>
        <time>2020-07-16T02:25:36Z</time>
      </trkpt>
      <trkpt lat="42.042470" lon="-8.199850">
        <ele>870.153</ele>
        <time>2020-07-16T02:25:56Z</time>
      </trkpt>
      <trkpt lat="42.042710" lon="-8.200380">
        <ele>869.214</ele>
        <time>2020-07-16T02:26:16Z</time>
      </trkpt>
      <trkpt lat="42.042780" lon="-8.200590">
        <ele>868.914</ele>
        <time>2020-07-16T02:26:36Z</time>
      </trkpt>
      <trkpt lat="42.042950" lon="-8.200680">
        <ele>869.254</ele>
        <time>2020-07-16T02:26:56Z</time>
      </trkpt>
      <trkpt lat="42.043280" lon="-8.200920">
        <ele>869.509</ele>
        <time>2020-07-16T02:27:16Z</time>
      </trkpt>
      <trkpt lat="42.043350" lon="-8.200940">
        <ele>869.608</ele>
        <time>2020-07-16T02:27:36Z</time>
      </trkpt>
      <trkpt lat="42.043430" lon="-8.200930">
        <ele>869.516</ele>
        <time>2020-07-16T02:27:56Z</time>
      </trkpt>
      <trkpt lat="42.043440" lon="-8.201060">
        <ele>868.973</ele>
        <time>2020-07-16T02:28:16Z</time>
      </trkpt>
      <trkpt lat="42.043490" lon="-8.201220">
        <ele>867.798</ele>
        <time>2020-07-16T02:28:36Z</time>
      </trkpt>
      <trkpt lat="42.043540" lon="-8.201310">
        <ele>866.836</ele>
        <time>2020-07-16T02:28:56Z</time>
      </trkpt>
      <trkpt lat="42.044210" lon="-8.202250">
        <ele>863.743</ele>
        <time>2020-07-16T02:29:16Z</time>
      </trkpt>
      <trkpt lat="42.044560" lon="-8.202700">
        <ele>860.573</ele>
        <time>2020-07-16T02:29:36Z</time>
      </trkpt>
      <trkpt lat="42.045480" lon="-8.203640">
        <ele>867.013</ele>
        <time>2020-07-16T02:29:56Z</time>
      </trkpt>
      <trkpt lat="42.045670" lon="-8.203800">
        <ele>867.774</ele>
        <time>2020-07-16T02:30:16Z</time>
      </trkpt>
      <trkpt lat="42.045800" lon="-8.203880">
        <ele>868.664</ele>
        <time>2020-07-16T02:30:36Z</time>
      </trkpt>
      <trkpt lat="42.047070" lon="-8.204450">
        <ele>870.706</ele>
        <time>2020-07-16T02:30:56Z</time>
      </trkpt>
      <trkpt lat="42.047230" lon="-8.204620">
        <ele>870.116</ele>
        <time>2020-07-16T02:31:16Z</time>
      </trkpt>
      <trkpt lat="42.047310" lon="-8.204780">
        <ele>870.308</ele>
        <time>2020-07-16T02:31:36Z</time>
      </trkpt>
      <trkpt lat="42.047360" lon="-8.205030">
        <ele>869.511</ele>
        <time>2020-07-16T02:31:56Z</time>
      </trkpt>
      <trkpt lat="42.047410" lon="-8.207160">
        <ele>867.878</ele>
        <time>2020-07-16T02:32:16Z</time>
      </trkpt>
      <trkpt lat="42.047370" lon="-8.207960">
        <ele>864.623</ele>
        <time>2020-07-16T02:32:36Z</time>
      </trkpt>
      <trkpt lat="42.047230" lon="-8.208890">
        <ele>858.191</ele>
        <time>2020-07-16T02:32:56Z</time>
      </trkpt>
      <trkpt lat="42.047180" lon="-8.209120">
        <ele>859.258</ele>
        <time>2020-07-16T02:33:16Z</time>
      </trkpt>
      <trkpt lat="42.047130" lon="-8.209240">
        <ele>859.858</ele>
        <time>2020-07-16T02:33:36Z</time>
      </trkpt>
      <trkpt lat="42.047020" lon="-8.209400">
        <ele>860.388</ele>
        <time>2020-07-16T02:33:56Z</time>
      </trkpt>
      <trkpt lat="42.046880" lon="-8.209540">
        <ele>860.089</ele>
        <time>2020-07-16T02:34:16Z</time>
      </trkpt>
      <trkpt lat="42.046770" lon="-8.209680">
        <ele>859.828</ele>
        <time>2020-07-16T02:34:36Z</time>
      </trkpt>
      <trkpt lat="42.046740" lon="-8.209750">
        <ele>859.889</ele>
        <time>2020-07-16T02:34:56Z</time>
      </trkpt>
      <trkpt lat="42.046700" lon="-8.209990">
        <ele>859.517</ele>
        <time>2020-07-16T02:35:16Z</time>
      </trkpt>
      <trkpt lat="42.046720" lon="-8.210160">
        <ele>859.208</ele>
        <time>2020-07-16T02:35:36Z</time>
      </trkpt>
      <trkpt lat="42.046950" lon="-8.210890">
        <ele>860.097</ele>
        <time>2020-07-16T02:35:56Z</time>
      </trkpt>
      <trkpt lat="42.047010" lon="-8.211200">
        <ele>860.894</ele>
        <time>2020-07-16T02:36:16Z</time>
      </trkpt>
      <trkpt lat="42.047020" lon="-8.211490">
        <ele>862.079</ele>
        <time>2020-07-16T02:36:36Z</time>
      </trkpt>
      <trkpt lat="42.047010" lon="-8.211720">
        <ele>862.967</ele>
        <time>2020-07-16T02:36:56Z</time>
      </trkpt>
      <trkpt lat="42.046970" lon="-8.211930">
        <ele>862.864</ele>
        <time>2020-07-16T02:37:16Z</time>
      </trkpt>
      <trkpt lat="42.046870" lon="-8.212220">
        <ele>861.894</ele>
        <time>2020-07-16T02:37:36Z</time>
      </trkpt>
      <trkpt lat="42.046710" lon="-8.212500">
        <ele>861.914</ele>
        <time>2020-07-16T02:37:56Z</time>
      </trkpt>
      <trkpt lat="42.046420" lon="-8.212870">
        <ele>861.165</ele>
        <time>2020-07-16T02:38:16Z</time>
      </trkpt>
      <trkpt lat="42.046310" lon="-8.213050">
        <ele>861.293</ele>
        <time>2020-07-16T02:38:36Z</time>
      </trkpt>
      <trkpt lat="42.046230" lon="-8.213270">
        <ele>861.665</ele>
        <time>2020-07-16T02:38:56Z</time>
      </trkpt>
      <trkpt lat="42.046190" lon="-8.213510">
        <ele>862.121</ele>
        <time>2020-07-16T02:39:16Z</time>
      </trkpt>
      <trkpt lat="42.046250" lon="-8.214610">
        <ele>862.608</ele>
        <time>2020-07-16T02:39:36Z</time>
      </trkpt>
      <trkpt lat="42.046220" lon="-8.214840">
        <ele>862.924</ele>
        <time>2020-07-16T02:39:56Z</time>
      </trkpt>
      <trkpt lat="42.046160" lon="-8.215030">
        <ele>863.171</ele>
        <time>2020-07-16T02:40:16Z</time>
      </trkpt>
      <trkpt lat="42.046090" lon="-8.215140">
        <ele>863.426</ele>
        <time>2020-07-16T02:40:36Z</time>
      </trkpt>
      <trkpt lat="42.045200" lon="-8.215950">
        <ele>865.164</ele>
        <time>2020-07-16T02:40:56Z</time>
      </trkpt>
      <trkpt lat="42.044910" lon="-8.216240">
        <ele>866.871</ele>
        <time>2020-07-16T02:41:16Z</time>
      </trkpt>
      <trkpt lat="42.044760" lon="-8.216510">
        <ele>868.741</ele>
        <time>2020-07-16T02:41:36Z</time>
      </trkpt>
      <trkpt lat="42.044670" lon="-8.216800">
        <ele>869.091</ele>
        <time>2020-07-16T02:41:56Z</time>
      </trkpt>
      <trkpt lat="42.044530" lon="-8.218260">
        <ele>874.392</ele>
        <time>2020-07-16T02:42:16Z</time>
      </trkpt>
      <trkpt lat="42.044570" lon="-8.218630">
        <ele>875.233</ele>
        <time>2020-07-16T02:42:36Z</time>
      </trkpt>
      <trkpt lat="42.044630" lon="-8.218840">
        <ele>874.423</ele>
        <time>2020-07-16T02:42:56Z</time>
      </trkpt>
      <trkpt lat="42.047120" lon="-8.224930">
        <ele>874.715</ele>
        <time>2020-07-16T02:43:16Z</time>
      </trkpt>
      <trkpt lat="42.047190" lon="-8.225060">
        <ele>874.708</ele>
        <time>2020-07-16T02:43:36Z</time>
      </trkpt>
      <trkpt lat="42.047360" lon="-8.225250">
        <ele>876.318</ele>
        <time>2020-07-16T02:43:56Z</time>
      </trkpt>
      <trkpt lat="42.047550" lon="-8.225400">
        <ele>876.565</ele>
        <time>2020-07-16T02:44:16Z</time>
      </trkpt>
      <trkpt lat="42.048330" lon="-8.225850">
        <ele>876.710</ele>
        <time>2020-07-16T02:44:36Z</time>
      </trkpt>
      <trkpt lat="42.049170" lon="-8.226370">
        <ele>879.488</ele>
        <time>2020-07-16T02:44:56Z</time>
      </trkpt>
      <trkpt lat="42.049410" lon="-8.226570">
        <ele>882.225</ele>
        <time>2020-07-16T02:45:16Z</time>
      </trkpt>
      <trkpt lat="42.049530" lon="-8.226750">
        <ele>882.665</ele>
        <time>2020-07-16T02:45:36Z</time>
      </trkpt>
      <trkpt lat="42.049590" lon="-8.226980">
        <ele>882.755</ele>
        <time>2020-07-16T02:45:56Z</time>
      </trkpt>
      <trkpt lat="42.049580" lon="-8.227550">
        <ele>882.046</ele>
        <time>2020-07-16T02:46:16Z</time>
      </trkpt>
      <trkpt lat="42.049600" lon="-8.227710">
        <ele>880.724</ele>
        <time>2020-07-16T02:46:36Z</time>
      </trkpt>
      <trkpt lat="42.049680" lon="-8.227990">
        <ele>879.104</ele>
        <time>2020-07-16T02:46:56Z</time>
      </trkpt>
      <trkpt lat="42.049830" lon="-8.228210">
        <ele>877.714</ele>
        <time>2020-07-16T02:47:16Z</time>
      </trkpt>
      <trkpt lat="42.049930" lon="-8.228310">
        <ele>876.908</ele>
        <time>2020-07-16T02:47:36Z</time>
      </trkpt>
      <trkpt lat="42.050040" lon="-8.228380">
        <ele>876.047</ele>
        <time>2020-07-16T02:47:56Z</time>
      </trkpt>
      <trkpt lat="42.050160" lon="-8.228430">
        <ele>875.314</ele>
        <time>2020-07-16T02:48:16Z</time>
      </trkpt>
      <trkpt lat="42.050280" lon="-8.228450">
        <ele>875.589</ele>
        <time>2020-07-16T02:48:36Z</time>
      </trkpt>
      <trkpt lat="42.050540" lon="-8.228440">
        <ele>875.387</ele>
        <time>2020-07-16T02:48:56Z</time>
      </trkpt>
      <trkpt lat="42.050790" lon="-8.228380">
        <ele>875.494</ele>
        <time>2020-07-16T02:49:16Z</time>
      </trkpt>
      <trkpt lat="42.051070" lon="-8.228230">
        <ele>873.594</ele>
        <time>2020-07-16T02:49:36Z</time>
      </trkpt>
      <trkpt lat="42.051170" lon="-8.228130">
        <ele>873.374</ele>
        <time>2020-07-16T02:49:56Z</time>
      </trkpt>
      <trkpt lat="42.051350" lon="-8.227880">
        <ele>873.365</ele>
        <time>2020-07-16T02:50:16Z</time>
      </trkpt>
      <trkpt lat="42.051820" lon="-8.226970">
        <ele>871.728</ele>
        <time>2020-07-16T02:50:36Z</time>
      </trkpt>
      <trkpt lat="42.052050" lon="-8.226630">
        <ele>866.589</ele>
        <time>2020-07-16T02:50:56Z</time>
      </trkpt>
      <trkpt lat="42.052180" lon="-8.226520">
        <ele>864.817</ele>
        <time>2020-07-16T02:51:16Z</time>
      </trkpt>
      <trkpt lat="42.052240" lon="-8.226500">
        <ele>864.208</ele>
        <time>2020-07-16T02:51:36Z</time>
      </trkpt>
      <trkpt lat="42.052320" lon="-8.226500">
        <ele>864.857</ele>
        <time>2020-07-16T02:51:56Z</time>
      </trkpt>
      <trkpt lat="42.052480" lon="-8.226540">
        <ele>865.694</ele>
        <time>2020-07-16T02:52:16Z</time>
      </trkpt>
      <trkpt lat="42.052590" lon="-8.226620">
        <ele>867.939</ele>
        <time>2020-07-16T02:52:36Z</time>
      </trkpt>
      <trkpt lat="42.052690" lon="-8.226750">
        <ele>869.827</ele>
        <time>2020-07-16T02:52:56Z</time>
      </trkpt>
      <trkpt lat="42.052750" lon="-8.226890">
        <ele>871.034</ele>
        <time>2020-07-16T02:53:16Z</time>
      </trkpt>
      <trkpt lat="42.052810" lon="-8.227130">
        <ele>871.324</ele>
        <time>2020-07-16T02:53:36Z</time>
      </trkpt>
      <trkpt lat="42.052810" lon="-8.227330">
        <ele>869.674</ele>
        <time>2020-07-16T02:53:56Z</time>
      </trkpt>
      <trkpt lat="42.052480" lon="-8.230080">
        <ele>861.415</ele>
        <time>2020-07-16T02:54:16Z</time>
      </trkpt>
      <trkpt lat="42.052370" lon="-8.230720">
        <ele>863.577</ele>
        <time>2020-07-16T02:54:36Z</time>
      </trkpt>
      <trkpt lat="42.052290" lon="-8.230970">
        <ele>860.561</ele>
        <time>2020-07-16T02:54:56Z</time>
      </trkpt>
      <trkpt lat="42.051290" lon="-8.233550">
        <ele>839.127</ele>
        <time>2020-07-16T02:55:16Z</time>
      </trkpt>
      <trkpt lat="42.051150" lon="-8.233850">
        <ele>837.208</ele>
        <time>2020-07-16T02:55:36Z</time>
      </trkpt>
      <trkpt lat="42.050260" lon="-8.235210">
        <ele>834.142</ele>
        <time>2020-07-16T02:55:56Z</time>
      </trkpt>
      <trkpt lat="42.049840" lon="-8.235810">
        <ele>829.229</ele>
        <time>2020-07-16T02:56:16Z</time>
      </trkpt>
      <trkpt lat="42.049650" lon="-8.236160">
        <ele>826.244</ele>
        <time>2020-07-16T02:56:36Z</time>
      </trkpt>
      <trkpt lat="42.049560" lon="-8.236550">
        <ele>824.982</ele>
        <time>2020-07-16T02:56:56Z</time>
      </trkpt>
      <trkpt lat="42.049560" lon="-8.236900">
        <ele>824.439</ele>
        <time>2020-07-16T02:57:16Z</time>
      </trkpt>
      <trkpt lat="42.049610" lon="-8.237170">
        <ele>823.039</ele>
        <time>2020-07-16T02:57:36Z</time>
      </trkpt>
      <trkpt lat="42.049740" lon="-8.237450">
        <ele>821.469</ele>
        <time>2020-07-16T02:57:56Z</time>
      </trkpt>
      <trkpt lat="42.049910" lon="-8.237670">
        <ele>819.430</ele>
        <time>2020-07-16T02:58:16Z</time>
      </trkpt>
      <trkpt lat="42.050170" lon="-8.237830">
        <ele>817.436</ele>
        <time>2020-07-16T02:58:36Z</time>
      </trkpt>
      <trkpt lat="42.050290" lon="-8.237870">
        <ele>817.017</ele>
        <time>2020-07-16T02:58:56Z</time>
      </trkpt>
      <trkpt lat="42.050420" lon="-8.237880">
        <ele>816.718</ele>
        <time>2020-07-16T02:59:16Z</time>
      </trkpt>
      <trkpt lat="42.051400" lon="-8.237780">
        <ele>809.008</ele>
        <time>2020-07-16T02:59:36Z</time>
      </trkpt>
      <trkpt lat="42.051610" lon="-8.237790">
        <ele>808.958</ele>
        <time>2020-07-16T02:59:56Z</time>
      </trkpt>
      <trkpt lat="42.051890" lon="-8.237850">
        <ele>807.095</ele>
        <time>2020-07-16T03:00:16Z</time>
      </trkpt>
      <trkpt lat="42.052130" lon="-8.237950">
        <ele>806.450</ele>
        <time>2020-07-16T03:00:36Z</time>
      </trkpt>
      <trkpt lat="42.052560" lon="-8.238260">
        <ele>806.738</ele>
        <time>2020-07-16T03:00:56Z</time>
      </trkpt>
      <trkpt lat="42.053290" lon="-8.238750">
        <ele>803.635</ele>
        <time>2020-07-16T03:01:16Z</time>
      </trkpt>
      <trkpt lat="42.054190" lon="-8.239450">
        <ele>805.115</ele>
        <time>2020-07-16T03:01:36Z</time>
      </trkpt>
      <trkpt lat="42.054340" lon="-8.239590">
        <ele>804.525</ele>
        <time>2020-07-16T03:01:56Z</time>
      </trkpt>
      <trkpt lat="42.054400" lon="-8.239700">
        <ele>804.266</ele>
        <time>2020-07-16T03:02:16Z</time>
      </trkpt>
      <trkpt lat="42.054450" lon="-8.239850">
        <ele>803.838</ele>
        <time>2020-07-16T03:02:36Z</time>
      </trkpt>
      <trkpt lat="42.054470" lon="-8.239960">
        <ele>803.370</ele>
        <time>2020-07-16T03:02:56Z</time>
      </trkpt>
      <trkpt lat="42.054460" lon="-8.240130">
        <ele>801.617</ele>
        <time>2020-07-16T03:03:16Z</time>
      </trkpt>
      <trkpt lat="42.054430" lon="-8.240270">
        <ele>799.608</ele>
        <time>2020-07-16T03:03:36Z</time>
      </trkpt>
      <trkpt lat="42.054340" lon="-8.240490">
        <ele>797.338</ele>
        <time>2020-07-16T03:03:56Z</time>
      </trkpt>
      <trkpt lat="42.053950" lon="-8.241300">
        <ele>794.165</ele>
        <time>2020-07-16T03:04:16Z</time>
      </trkpt>
      <trkpt lat="42.053740" lon="-8.242090">
        <ele>786.220</ele>
        <time>2020-07-16T03:04:36Z</time>
      </trkpt>
      <trkpt lat="42.053710" lon="-8.242410">
        <ele>784.368</ele>
        <time>2020-07-16T03:04:56Z</time>
      </trkpt>
      <trkpt lat="42.053740" lon="-8.242560">
        <ele>784.045</ele>
        <time>2020-07-16T03:05:16Z</time>
      </trkpt>
      <trkpt lat="42.053800" lon="-8.242720">
        <ele>783.215</ele>
        <time>2020-07-16T03:05:36Z</time>
      </trkpt>
      <trkpt lat="42.053890" lon="-8.242850">
        <ele>782.015</ele>
        <time>2020-07-16T03:05:56Z</time>
      </trkpt>
      <trkpt lat="42.054000" lon="-8.242960">
        <ele>781.336</ele>
        <time>2020-07-16T03:06:16Z</time>
      </trkpt>
      <trkpt lat="42.054710" lon="-8.243530">
        <ele>778.896</ele>
        <time>2020-07-16T03:06:36Z</time>
      </trkpt>
      <trkpt lat="42.054810" lon="-8.243650">
        <ele>778.531</ele>
        <time>2020-07-16T03:06:56Z</time>
      </trkpt>
      <trkpt lat="42.054880" lon="-8.243770">
        <ele>778.024</ele>
        <time>2020-07-16T03:07:16Z</time>
      </trkpt>
      <trkpt lat="42.054960" lon="-8.244100">
        <ele>775.908</ele>
        <time>2020-07-16T03:07:36Z</time>
      </trkpt>
      <trkpt lat="42.055090" lon="-8.245190">
        <ele>770.534</ele>
        <time>2020-07-16T03:07:56Z</time>
      </trkpt>
      <trkpt lat="42.055080" lon="-8.245380">
        <ele>769.611</ele>
        <time>2020-07-16T03:08:16Z</time>
      </trkpt>
      <trkpt lat="42.055050" lon="-8.245610">
        <ele>768.786</ele>
        <time>2020-07-16T03:08:36Z</time>
      </trkpt>
      <trkpt lat="42.054960" lon="-8.245890">
        <ele>766.994</ele>
        <time>2020-07-16T03:08:56Z</time>
      </trkpt>
      <trkpt lat="42.054810" lon="-8.246190">
        <ele>761.551</ele>
        <time>2020-07-16T03:09:16Z</time>
      </trkpt>
      <trkpt lat="42.054720" lon="-8.246470">
        <ele>757.411</ele>
        <time>2020-07-16T03:09:36Z</time>
      </trkpt>
      <trkpt lat="42.054690" lon="-8.246690">
        <ele>755.421</ele>
        <time>2020-07-16T03:09:56Z</time>
      </trkpt>
      <trkpt lat="42.054690" lon="-8.246830">
        <ele>754.492</ele>
        <time>2020-07-16T03:10:16Z</time>
      </trkpt>
      <trkpt lat="42.054750" lon="-8.247220">
        <ele>753.144</ele>
        <time>2020-07-16T03:10:36Z</time>
      </trkpt>
      <trkpt lat="42.054830" lon="-8.247420">
        <ele>752.005</ele>
        <time>2020-07-16T03:10:56Z</time>
      </trkpt>
      <trkpt lat="42.054930" lon="-8.247600">
        <ele>750.915</ele>
        <time>2020-07-16T03:11:16Z</time>
      </trkpt>
      <trkpt lat="42.055100" lon="-8.247870">
        <ele>750.108</ele>
        <time>2020-07-16T03:11:36Z</time>
      </trkpt>
      <trkpt lat="42.055280" lon="-8.248100">
        <ele>749.539</ele>
        <time>2020-07-16T03:11:56Z</time>
      </trkpt>
      <trkpt lat="42.055490" lon="-8.248290">
        <ele>747.786</ele>
        <time>2020-07-16T03:12:16Z</time>
      </trkpt>
      <trkpt lat="42.056390" lon="-8.248850">
        <ele>743.741</ele>
        <time>2020-07-16T03:12:36Z</time>
      </trkpt>
      <trkpt lat="42.056590" lon="-8.249050">
        <ele>741.519</ele>
        <time>2020-07-16T03:12:56Z</time>
      </trkpt>
      <trkpt lat="42.056730" lon="-8.249320">
        <ele>738.766</ele>
        <time>2020-07-16T03:13:16Z</time>
      </trkpt>
      <trkpt lat="42.056790" lon="-8.249580">
        <ele>736.776</ele>
        <time>2020-07-16T03:13:36Z</time>
      </trkpt>
      <trkpt lat="42.056780" lon="-8.249900">
        <ele>734.946</ele>
        <time>2020-07-16T03:13:56Z</time>
      </trkpt>
      <trkpt lat="42.056730" lon="-8.250210">
        <ele>734.887</ele>
        <time>2020-07-16T03:14:16Z</time>
      </trkpt>
      <trkpt lat="42.056600" lon="-8.250490">
        <ele>735.687</ele>
        <time>2020-07-16T03:14:36Z</time>
      </trkpt>
      <trkpt lat="42.056430" lon="-8.250700">
        <ele>736.142</ele>
        <time>2020-07-16T03:14:56Z</time>
      </trkpt>
      <trkpt lat="42.056330" lon="-8.250770">
        <ele>736.126</ele>
        <time>2020-07-16T03:15:16Z</time>
      </trkpt>
      <trkpt lat="42.056210" lon="-8.250820">
        <ele>735.608</ele>
        <time>2020-07-16T03:15:36Z</time>
      </trkpt>
      <trkpt lat="42.055780" lon="-8.250890">
        <ele>732.063</ele>
        <time>2020-07-16T03:15:56Z</time>
      </trkpt>
      <trkpt lat="42.054840" lon="-8.250990">
        <ele>727.640</ele>
        <time>2020-07-16T03:16:16Z</time>
      </trkpt>
      <trkpt lat="42.054670" lon="-8.250990">
        <ele>726.835</ele>
        <time>2020-07-16T03:16:36Z</time>
      </trkpt>
      <trkpt lat="42.054260" lon="-8.250930">
        <ele>723.653</ele>
        <time>2020-07-16T03:16:56Z</time>
      </trkpt>
      <trkpt lat="42.054160" lon="-8.250930">
        <ele>723.090</ele>
        <time>2020-07-16T03:17:16Z</time>
      </trkpt>
      <trkpt lat="42.054060" lon="-8.250960">
        <ele>722.820</ele>
        <time>2020-07-16T03:17:36Z</time>
      </trkpt>
      <trkpt lat="42.053940" lon="-8.251040">
        <ele>722.870</ele>
        <time>2020-07-16T03:17:56Z</time>
      </trkpt>
      <trkpt lat="42.053830" lon="-8.251160">
        <ele>722.211</ele>
        <time>2020-07-16T03:18:16Z</time>
      </trkpt>
      <trkpt lat="42.053760" lon="-8.251300">
        <ele>721.133</ele>
        <time>2020-07-16T03:18:36Z</time>
      </trkpt>
      <trkpt lat="42.053710" lon="-8.251460">
        <ele>719.523</ele>
        <time>2020-07-16T03:18:56Z</time>
      </trkpt>
      <trkpt lat="42.053690" lon="-8.251630">
        <ele>716.915</ele>
        <time>2020-07-16T03:19:16Z</time>
      </trkpt>
      <trkpt lat="42.053700" lon="-8.251800">
        <ele>713.708</ele>
        <time>2020-07-16T03:19:36Z</time>
      </trkpt>
      <trkpt lat="42.053810" lon="-8.252110">
        <ele>709.438</ele>
        <time>2020-07-16T03:19:56Z</time>
      </trkpt>
      <trkpt lat="42.054120" lon="-8.252640">
        <ele>709.725</ele>
        <time>2020-07-16T03:20:16Z</time>
      </trkpt>
      <trkpt lat="42.054360" lon="-8.252930">
        <ele>709.540</ele>
        <time>2020-07-16T03:20:36Z</time>
      </trkpt>
      <trkpt lat="42.054560" lon="-8.253090">
        <ele>707.928</ele>
        <time>2020-07-16T03:20:56Z</time>
      </trkpt>
      <trkpt lat="42.056170" lon="-8.254240">
        <ele>697.175</ele>
        <time>2020-07-16T03:21:16Z</time>
      </trkpt>
      <trkpt lat="42.056490" lon="-8.254600">
        <ele>695.335</ele>
        <time>2020-07-16T03:21:36Z</time>
      </trkpt>
      <trkpt lat="42.056690" lon="-8.254910">
        <ele>696.435</ele>
        <time>2020-07-16T03:21:56Z</time>
      </trkpt>
      <trkpt lat="42.056830" lon="-8.255230">
        <ele>695.226</ele>
        <time>2020-07-16T03:22:16Z</time>
      </trkpt>
      <trkpt lat="42.057170" lon="-8.256230">
        <ele>692.066</ele>
        <time>2020-07-16T03:22:36Z</time>
      </trkpt>
      <trkpt lat="42.057430" lon="-8.256690">
        <ele>685.529</ele>
        <time>2020-07-16T03:22:56Z</time>
      </trkpt>
      <trkpt lat="42.057530" lon="-8.256820">
        <ele>682.921</ele>
        <time>2020-07-16T03:23:16Z</time>
      </trkpt>
      <trkpt lat="42.057700" lon="-8.256990">
        <ele>678.508</ele>
        <time>2020-07-16T03:23:36Z</time>
      </trkpt>
      <trkpt lat="42.057850" lon="-8.257110">
        <ele>675.731</ele>
        <time>2020-07-16T03:23:56Z</time>
      </trkpt>
      <trkpt lat="42.058060" lon="-8.257230">
        <ele>672.958</ele>
        <time>2020-07-16T03:24:16Z</time>
      </trkpt>
      <trkpt lat="42.058240" lon="-8.257310">
        <ele>671.623</ele>
        <time>2020-07-16T03:24:36Z</time>
      </trkpt>
      <trkpt lat="42.058420" lon="-8.257360">
        <ele>671.151</ele>
        <time>2020-07-16T03:24:56Z</time>
      </trkpt>
      <trkpt lat="42.058670" lon="-8.257380">
        <ele>672.178</ele>
        <time>2020-07-16T03:25:16Z</time>
      </trkpt>
      <trkpt lat="42.058940" lon="-8.257360">
        <ele>671.748</ele>
        <time>2020-07-16T03:25:36Z</time>
      </trkpt>
      <trkpt lat="42.059150" lon="-8.257310">
        <ele>670.898</ele>
        <time>2020-07-16T03:25:56Z</time>
      </trkpt>
      <trkpt lat="42.059290" lon="-8.257230">
        <ele>669.279</ele>
        <time>2020-07-16T03:26:16Z</time>
      </trkpt>
      <trkpt lat="42.059590" lon="-8.257010">
        <ele>666.124</ele>
        <time>2020-07-16T03:26:36Z</time>
      </trkpt>
      <trkpt lat="42.059900" lon="-8.256660">
        <ele>664.704</ele>
        <time>2020-07-16T03:26:56Z</time>
      </trkpt>
      <trkpt lat="42.060100" lon="-8.256320">
        <ele>665.414</ele>
        <time>2020-07-16T03:27:16Z</time>
      </trkpt>
      <trkpt lat="42.060530" lon="-8.255460">
        <ele>657.308</ele>
        <time>2020-07-16T03:27:36Z</time>
      </trkpt>
      <trkpt lat="42.060610" lon="-8.255130">
        <ele>656.977</ele>
        <time>2020-07-16T03:27:56Z</time>
      </trkpt>
      <trkpt lat="42.060670" lon="-8.254970">
        <ele>656.424</ele>
        <time>2020-07-16T03:28:16Z</time>
      </trkpt>
      <trkpt lat="42.060730" lon="-8.254880">
        <ele>656.129</ele>
        <time>2020-07-16T03:28:36Z</time>
      </trkpt>
      <trkpt lat="42.060850" lon="-8.254770">
        <ele>656.437</ele>
        <time>2020-07-16T03:28:56Z</time>
      </trkpt>
      <trkpt lat="42.060970" lon="-8.254740">
        <ele>659.114</ele>
        <time>2020-07-16T03:29:16Z</time>
      </trkpt>
      <trkpt lat="42.061090" lon="-8.254750">
        <ele>661.034</ele>
        <time>2020-07-16T03:29:36Z</time>
      </trkpt>
      <trkpt lat="42.061200" lon="-8.254790">
        <ele>663.264</ele>
        <time>2020-07-16T03:29:56Z</time>
      </trkpt>
      <trkpt lat="42.061280" lon="-8.254840">
        <ele>664.655</ele>
        <time>2020-07-16T03:30:16Z</time>
      </trkpt>
      <trkpt lat="42.061350" lon="-8.254930">
        <ele>665.036</ele>
        <time>2020-07-16T03:30:36Z</time>
      </trkpt>
      <trkpt lat="42.061450" lon="-8.255120">
        <ele>665.317</ele>
        <time>2020-07-16T03:30:56Z</time>
      </trkpt>
      <trkpt lat="42.061510" lon="-8.255420">
        <ele>663.818</ele>
        <time>2020-07-16T03:31:16Z</time>
      </trkpt>
      <trkpt lat="42.061510" lon="-8.255620">
        <ele>662.208</ele>
        <time>2020-07-16T03:31:36Z</time>
      </trkpt>
      <trkpt lat="42.061430" lon="-8.256280">
        <ele>659.628</ele>
        <time>2020-07-16T03:31:56Z</time>
      </trkpt>
      <trkpt lat="42.061360" lon="-8.257350">
        <ele>657.985</ele>
        <time>2020-07-16T03:32:16Z</time>
      </trkpt>
      <trkpt lat="42.061330" lon="-8.258220">
        <ele>659.190</ele>
        <time>2020-07-16T03:32:36Z</time>
      </trkpt>
      <trkpt lat="42.061270" lon="-8.259250">
        <ele>661.388</ele>
        <time>2020-07-16T03:32:56Z</time>
      </trkpt>
      <trkpt lat="42.061060" lon="-8.260980">
        <ele>653.385</ele>
        <time>2020-07-16T03:33:16Z</time>
      </trkpt>
      <trkpt lat="42.061050" lon="-8.261240">
        <ele>652.715</ele>
        <time>2020-07-16T03:33:36Z</time>
      </trkpt>
      <trkpt lat="42.061090" lon="-8.261700">
        <ele>651.365</ele>
        <time>2020-07-16T03:33:56Z</time>
      </trkpt>
      <trkpt lat="42.061300" lon="-8.262820">
        <ele>644.936</ele>
        <time>2020-07-16T03:34:16Z</time>
      </trkpt>
      <trkpt lat="42.061440" lon="-8.263480">
        <ele>642.667</ele>
        <time>2020-07-16T03:34:36Z</time>
      </trkpt>
      <trkpt lat="42.061460" lon="-8.263640">
        <ele>643.481</ele>
        <time>2020-07-16T03:34:56Z</time>
      </trkpt>
      <trkpt lat="42.061460" lon="-8.263810">
        <ele>645.219</ele>
        <time>2020-07-16T03:35:16Z</time>
      </trkpt>
      <trkpt lat="42.061430" lon="-8.264000">
        <ele>646.408</ele>
        <time>2020-07-16T03:35:36Z</time>
      </trkpt>
      <trkpt lat="42.061300" lon="-8.264310">
        <ele>647.271</ele>
        <time>2020-07-16T03:35:56Z</time>
      </trkpt>
      <trkpt lat="42.061260" lon="-8.264370">
        <ele>647.028</ele>
        <time>2020-07-16T03:36:16Z</time>
      </trkpt>
      <trkpt lat="42.061100" lon="-8.264510">
        <ele>644.213</ele>
        <time>2020-07-16T03:36:36Z</time>
      </trkpt>
      <trkpt lat="42.059530" lon="-8.265500">
        <ele>634.011</ele>
        <time>2020-07-16T03:36:56Z</time>
      </trkpt>
      <trkpt lat="42.059340" lon="-8.265690">
        <ele>633.418</ele>
        <time>2020-07-16T03:37:16Z</time>
      </trkpt>
      <trkpt lat="42.059240" lon="-8.265860">
        <ele>632.828</ele>
        <time>2020-07-16T03:37:36Z</time>
      </trkpt>
      <trkpt lat="42.059200" lon="-8.265960">
        <ele>632.458</ele>
        <time>2020-07-16T03:37:56Z</time>
      </trkpt>
      <trkpt lat="42.058990" lon="-8.266850">
        <ele>629.089</ele>
        <time>2020-07-16T03:38:16Z</time>
      </trkpt>
      <trkpt lat="42.058920" lon="-8.267350">
        <ele>623.374</ele>
        <time>2020-07-16T03:38:36Z</time>
      </trkpt>
      <trkpt lat="42.058910" lon="-8.267990">
        <ele>617.956</ele>
        <time>2020-07-16T03:38:56Z</time>
      </trkpt>
      <trkpt lat="42.059020" lon="-8.269670">
        <ele>609.821</ele>
        <time>2020-07-16T03:39:16Z</time>
      </trkpt>
      <trkpt lat="42.059130" lon="-8.271530">
        <ele>599.908</ele>
        <time>2020-07-16T03:39:36Z</time>
      </trkpt>
      <trkpt lat="42.059180" lon="-8.272820">
        <ele>592.912</ele>
        <time>2020-07-16T03:39:56Z</time>
      </trkpt>
      <trkpt lat="42.059300" lon="-8.275020">
        <ele>583.389</ele>
        <time>2020-07-16T03:40:16Z</time>
      </trkpt>
      <trkpt lat="42.059300" lon="-8.275440">
        <ele>581.794</ele>
        <time>2020-07-16T03:40:36Z</time>
      </trkpt>
      <trkpt lat="42.059220" lon="-8.276000">
        <ele>578.932</ele>
        <time>2020-07-16T03:40:56Z</time>
      </trkpt>
      <trkpt lat="42.058810" lon="-8.277280">
        <ele>574.779</ele>
        <time>2020-07-16T03:41:16Z</time>
      </trkpt>
      <trkpt lat="42.058750" lon="-8.277620">
        <ele>572.179</ele>
        <time>2020-07-16T03:41:36Z</time>
      </trkpt>
      <trkpt lat="42.058740" lon="-8.277940">
        <ele>570.089</ele>
        <time>2020-07-16T03:41:56Z</time>
      </trkpt>
      <trkpt lat="42.058760" lon="-8.278240">
        <ele>569.060</ele>
        <time>2020-07-16T03:42:16Z</time>
      </trkpt>
      <trkpt lat="42.058800" lon="-8.278540">
        <ele>568.145</ele>
        <time>2020-07-16T03:42:36Z</time>
      </trkpt>
      <trkpt lat="42.058910" lon="-8.278940">
        <ele>565.547</ele>
        <time>2020-07-16T03:42:56Z</time>
      </trkpt>
      <trkpt lat="42.059050" lon="-8.279210">
        <ele>563.211</ele>
        <time>2020-07-16T03:43:16Z</time>
      </trkpt>
      <trkpt lat="42.059140" lon="-8.279320">
        <ele>562.608</ele>
        <time>2020-07-16T03:43:36Z</time>
      </trkpt>
      <trkpt lat="42.059180" lon="-8.279320">
        <ele>563.049</ele>
        <time>2020-07-16T03:43:56Z</time>
      </trkpt>
      <trkpt lat="42.059220" lon="-8.279360">
        <ele>563.086</ele>
        <time>2020-07-16T03:44:16Z</time>
      </trkpt>
      <trkpt lat="42.059230" lon="-8.279400">
        <ele>562.651</ele>
        <time>2020-07-16T03:44:36Z</time>
      </trkpt>
      <trkpt lat="42.059570" lon="-8.279650">
        <ele>561.819</ele>
        <time>2020-07-16T03:44:56Z</time>
      </trkpt>
      <trkpt lat="42.059790" lon="-8.279770">
        <ele>559.466</ele>
        <time>2020-07-16T03:45:16Z</time>
      </trkpt>
      <trkpt lat="42.060010" lon="-8.279850">
        <ele>558.186</ele>
        <time>2020-07-16T03:45:36Z</time>
      </trkpt>
      <trkpt lat="42.060140" lon="-8.279860">
        <ele>556.586</ele>
        <time>2020-07-16T03:45:56Z</time>
      </trkpt>
      <trkpt lat="42.060280" lon="-8.279860">
        <ele>555.077</ele>
        <time>2020-07-16T03:46:16Z</time>
      </trkpt>
      <trkpt lat="42.060470" lon="-8.279820">
        <ele>554.013</ele>
        <time>2020-07-16T03:46:36Z</time>
      </trkpt>
      <trkpt lat="42.060670" lon="-8.279750">
        <ele>551.643</ele>
        <time>2020-07-16T03:46:56Z</time>
      </trkpt>
      <trkpt lat="42.062130" lon="-8.278670">
        <ele>543.507</ele>
        <time>2020-07-16T03:47:16Z</time>
      </trkpt>
      <trkpt lat="42.062450" lon="-8.278410">
        <ele>540.608</ele>
        <time>2020-07-16T03:47:36Z</time>
      </trkpt>
      <trkpt lat="42.062930" lon="-8.277960">
        <ele>536.856</ele>
        <time>2020-07-16T03:47:56Z</time>
      </trkpt>
      <trkpt lat="42.063450" lon="-8.277280">
        <ele>535.063</ele>
        <time>2020-07-16T03:48:16Z</time>
      </trkpt>
      <trkpt lat="42.063710" lon="-8.277040">
        <ele>536.998</ele>
        <time>2020-07-16T03:48:36Z</time>
      </trkpt>
      <trkpt lat="42.063820" lon="-8.277000">
        <ele>538.566</ele>
        <time>2020-07-16T03:48:56Z</time>
      </trkpt>
      <trkpt lat="42.063900" lon="-8.277000">
        <ele>539.253</ele>
        <time>2020-07-16T03:49:16Z</time>
      </trkpt>
      <trkpt lat="42.064080" lon="-8.277020">
        <ele>539.023</ele>
        <time>2020-07-16T03:49:36Z</time>
      </trkpt>
      <trkpt lat="42.064360" lon="-8.277080">
        <ele>535.163</ele>
        <time>2020-07-16T03:49:56Z</time>
      </trkpt>
      <trkpt lat="42.064560" lon="-8.277090">
        <ele>532.494</ele>
        <time>2020-07-16T03:50:16Z</time>
      </trkpt>
      <trkpt lat="42.064770" lon="-8.277020">
        <ele>530.936</ele>
        <time>2020-07-16T03:50:36Z</time>
      </trkpt>
      <trkpt lat="42.064990" lon="-8.276910">
        <ele>529.817</ele>
        <time>2020-07-16T03:50:56Z</time>
      </trkpt>
      <trkpt lat="42.065270" lon="-8.276720">
        <ele>527.818</ele>
        <time>2020-07-16T03:51:16Z</time>
      </trkpt>
      <trkpt lat="42.065720" lon="-8.276380">
        <ele>526.108</ele>
        <time>2020-07-16T03:51:36Z</time>
      </trkpt>
      <trkpt lat="42.066340" lon="-8.275820">
        <ele>527.058</ele>
        <time>2020-07-16T03:51:56Z</time>
      </trkpt>
      <trkpt lat="42.066950" lon="-8.275200">
        <ele>516.645</ele>
        <time>2020-07-16T03:52:16Z</time>
      </trkpt>
      <trkpt lat="42.067010" lon="-8.275090">
        <ele>517.640</ele>
        <time>2020-07-16T03:52:36Z</time>
      </trkpt>
      <trkpt lat="42.067090" lon="-8.274820">
        <ele>518.958</ele>
        <time>2020-07-16T03:52:56Z</time>
      </trkpt>
      <trkpt lat="42.067080" lon="-8.274650">
        <ele>520.035</ele>
        <time>2020-07-16T03:53:16Z</time>
      </trkpt>
      <trkpt lat="42.067040" lon="-8.274460">
        <ele>520.935</ele>
        <time>2020-07-16T03:53:36Z</time>
      </trkpt>
      <trkpt lat="42.066950" lon="-8.274240">
        <ele>522.315</ele>
        <time>2020-07-16T03:53:56Z</time>
      </trkpt>
      <trkpt lat="42.066940" lon="-8.274070">
        <ele>521.576</ele>
        <time>2020-07-16T03:54:16Z</time>
      </trkpt>
      <trkpt lat="42.066980" lon="-8.273900">
        <ele>519.034</ele>
        <time>2020-07-16T03:54:36Z</time>
      </trkpt>
      <trkpt lat="42.067070" lon="-8.273760">
        <ele>517.955</ele>
        <time>2020-07-16T03:54:56Z</time>
      </trkpt>
      <trkpt lat="42.067150" lon="-8.273690">
        <ele>517.110</ele>
        <time>2020-07-16T03:55:16Z</time>
      </trkpt>
      <trkpt lat="42.067250" lon="-8.273640">
        <ele>516.108</ele>
        <time>2020-07-16T03:55:36Z</time>
      </trkpt>
      <trkpt lat="42.067360" lon="-8.273610">
        <ele>515.538</ele>
        <time>2020-07-16T03:55:56Z</time>
      </trkpt>
      <trkpt lat="42.067460" lon="-8.273610">
        <ele>514.555</ele>
        <time>2020-07-16T03:56:16Z</time>
      </trkpt>
      <trkpt lat="42.067820" lon="-8.273670">
        <ele>509.040</ele>
        <time>2020-07-16T03:56:36Z</time>
      </trkpt>
      <trkpt lat="42.068060" lon="-8.273640">
        <ele>506.998</ele>
        <time>2020-07-16T03:56:56Z</time>
      </trkpt>
      <trkpt lat="42.068130" lon="-8.273610">
        <ele>505.995</ele>
        <time>2020-07-16T03:57:16Z</time>
      </trkpt>
      <trkpt lat="42.068870" lon="-8.273130">
        <ele>502.595</ele>
        <time>2020-07-16T03:57:36Z</time>
      </trkpt>
      <trkpt lat="42.069120" lon="-8.273060">
        <ele>499.945</ele>
        <time>2020-07-16T03:57:56Z</time>
      </trkpt>
      <trkpt lat="42.069240" lon="-8.273070">
        <ele>498.856</ele>
        <time>2020-07-16T03:58:16Z</time>
      </trkpt>
      <trkpt lat="42.069380" lon="-8.273130">
        <ele>497.666</ele>
        <time>2020-07-16T03:58:36Z</time>
      </trkpt>
      <trkpt lat="42.069670" lon="-8.273420">
        <ele>492.829</ele>
        <time>2020-07-16T03:58:56Z</time>
      </trkpt>
      <trkpt lat="42.069800" lon="-8.273490">
        <ele>492.221</ele>
        <time>2020-07-16T03:59:16Z</time>
      </trkpt>
      <trkpt lat="42.070690" lon="-8.273600">
        <ele>490.808</ele>
        <time>2020-07-16T03:59:36Z</time>
      </trkpt>
      <trkpt lat="42.071110" lon="-8.273620">
        <ele>493.761</ele>
        <time>2020-07-16T03:59:56Z</time>
      </trkpt>
      <trkpt lat="42.071300" lon="-8.273610">
        <ele>490.038</ele>
        <time>2020-07-16T04:00:16Z</time>
      </trkpt>
      <trkpt lat="42.071670" lon="-8.273560">
        <ele>486.483</ele>
        <time>2020-07-16T04:00:36Z</time>
      </trkpt>
      <trkpt lat="42.071970" lon="-8.273490">
        <ele>484.361</ele>
        <time>2020-07-16T04:00:56Z</time>
      </trkpt>
      <trkpt lat="42.072210" lon="-8.273410">
        <ele>484.288</ele>
        <time>2020-07-16T04:01:16Z</time>
      </trkpt>
      <trkpt lat="42.072390" lon="-8.273300">
        <ele>483.038</ele>
        <time>2020-07-16T04:01:36Z</time>
      </trkpt>
      <trkpt lat="42.072520" lon="-8.273170">
        <ele>482.438</ele>
        <time>2020-07-16T04:01:56Z</time>
      </trkpt>
      <trkpt lat="42.072870" lon="-8.272620">
        <ele>481.449</ele>
        <time>2020-07-16T04:02:16Z</time>
      </trkpt>
      <trkpt lat="42.073150" lon="-8.272260">
        <ele>482.892</ele>
        <time>2020-07-16T04:02:36Z</time>
      </trkpt>
      <trkpt lat="42.073400" lon="-8.272010">
        <ele>484.673</ele>
        <time>2020-07-16T04:02:56Z</time>
      </trkpt>
      <trkpt lat="42.073610" lon="-8.271940">
        <ele>483.120</ele>
        <time>2020-07-16T04:03:16Z</time>
      </trkpt>
      <trkpt lat="42.073770" lon="-8.271910">
        <ele>481.508</ele>
        <time>2020-07-16T04:03:36Z</time>
      </trkpt>
      <trkpt lat="42.073960" lon="-8.271780">
        <ele>480.184</ele>
        <time>2020-07-16T04:03:56Z</time>
      </trkpt>
      <trkpt lat="42.074120" lon="-8.271550">
        <ele>477.891</ele>
        <time>2020-07-16T04:04:16Z</time>
      </trkpt>
      <trkpt lat="42.074240" lon="-8.271330">
        <ele>476.096</ele>
        <time>2020-07-16T04:04:36Z</time>
      </trkpt>
      <trkpt lat="42.074300" lon="-8.271170">
        <ele>476.854</ele>
        <time>2020-07-16T04:04:56Z</time>
      </trkpt>
      <trkpt lat="42.074380" lon="-8.271080">
        <ele>476.261</ele>
        <time>2020-07-16T04:05:16Z</time>
      </trkpt>
      <trkpt lat="42.074490" lon="-8.271010">
        <ele>476.321</ele>
        <time>2020-07-16T04:05:36Z</time>
      </trkpt>
      <trkpt lat="42.074650" lon="-8.271010">
        <ele>476.981</ele>
        <time>2020-07-16T04:05:56Z</time>
      </trkpt>
      <trkpt lat="42.074810" lon="-8.271100">
        <ele>476.892</ele>
        <time>2020-07-16T04:06:16Z</time>
      </trkpt>
      <trkpt lat="42.074940" lon="-8.271290">
        <ele>474.711</ele>
        <time>2020-07-16T04:06:36Z</time>
      </trkpt>
      <trkpt lat="42.075040" lon="-8.271500">
        <ele>472.121</ele>
        <time>2020-07-16T04:06:56Z</time>
      </trkpt>
      <trkpt lat="42.075150" lon="-8.271670">
        <ele>471.103</ele>
        <time>2020-07-16T04:07:16Z</time>
      </trkpt>
      <trkpt lat="42.075330" lon="-8.271870">
        <ele>469.608</ele>
        <time>2020-07-16T04:07:36Z</time>
      </trkpt>
      <trkpt lat="42.075520" lon="-8.271990">
        <ele>467.916</ele>
        <time>2020-07-16T04:07:56Z</time>
      </trkpt>
      <trkpt lat="42.075660" lon="-8.272030">
        <ele>466.073</ele>
        <time>2020-07-16T04:08:16Z</time>
      </trkpt>
      <trkpt lat="42.075790" lon="-8.272040">
        <ele>464.428</ele>
        <time>2020-07-16T04:08:36Z</time>
      </trkpt>
      <trkpt lat="42.076000" lon="-8.272020">
        <ele>463.326</ele>
        <time>2020-07-16T04:08:56Z</time>
      </trkpt>
      <trkpt lat="42.076150" lon="-8.271960">
        <ele>463.073</ele>
        <time>2020-07-16T04:09:16Z</time>
      </trkpt>
      <trkpt lat="42.076360" lon="-8.271830">
        <ele>462.053</ele>
        <time>2020-07-16T04:09:36Z</time>
      </trkpt>
      <trkpt lat="42.077540" lon="-8.270770">
        <ele>456.533</ele>
        <time>2020-07-16T04:09:56Z</time>
      </trkpt>
      <trkpt lat="42.077820" lon="-8.270550">
        <ele>455.714</ele>
        <time>2020-07-16T04:10:16Z</time>
      </trkpt>
      <trkpt lat="42.078070" lon="-8.270420">
        <ele>455.316</ele>
        <time>2020-07-16T04:10:36Z</time>
      </trkpt>
      <trkpt lat="42.078160" lon="-8.270390">
        <ele>455.276</ele>
        <time>2020-07-16T04:10:56Z</time>
      </trkpt>
      <trkpt lat="42.078470" lon="-8.270270">
        <ele>454.113</ele>
        <time>2020-07-16T04:11:16Z</time>
      </trkpt>
      <trkpt lat="42.078740" lon="-8.269990">
        <ele>451.708</ele>
        <time>2020-07-16T04:11:36Z</time>
      </trkpt>
      <trkpt lat="42.079110" lon="-8.269540">
        <ele>450.226</ele>
        <time>2020-07-16T04:11:56Z</time>
      </trkpt>
      <trkpt lat="42.079210" lon="-8.269350">
        <ele>449.763</ele>
        <time>2020-07-16T04:12:16Z</time>
      </trkpt>
      <trkpt lat="42.079230" lon="-8.269210">
        <ele>449.528</ele>
        <time>2020-07-16T04:12:36Z</time>
      </trkpt>
      <trkpt lat="42.079220" lon="-8.269070">
        <ele>449.386</ele>
        <time>2020-07-16T04:12:56Z</time>
      </trkpt>
      <trkpt lat="42.078940" lon="-8.268090">
        <ele>445.493</ele>
        <time>2020-07-16T04:13:16Z</time>
      </trkpt>
      <trkpt lat="42.078920" lon="-8.267960">
        <ele>445.123</ele>
        <time>2020-07-16T04:13:36Z</time>
      </trkpt>
      <trkpt lat="42.078940" lon="-8.267720">
        <ele>444.123</ele>
        <time>2020-07-16T04:13:56Z</time>
      </trkpt>
      <trkpt lat="42.078980" lon="-8.267590">
        <ele>443.574</ele>
        <time>2020-07-16T04:14:16Z</time>
      </trkpt>
      <trkpt lat="42.079070" lon="-8.267480">
        <ele>441.794</ele>
        <time>2020-07-16T04:14:36Z</time>
      </trkpt>
      <trkpt lat="42.079240" lon="-8.267330">
        <ele>440.357</ele>
        <time>2020-07-16T04:14:56Z</time>
      </trkpt>
      <trkpt lat="42.079430" lon="-8.267130">
        <ele>439.022</ele>
        <time>2020-07-16T04:15:16Z</time>
      </trkpt>
      <trkpt lat="42.079500" lon="-8.267010">
        <ele>438.608</ele>
        <time>2020-07-16T04:15:36Z</time>
      </trkpt>
      <trkpt lat="42.079550" lon="-8.266840">
        <ele>438.384</ele>
        <time>2020-07-16T04:15:56Z</time>
      </trkpt>
      <trkpt lat="42.079520" lon="-8.266310">
        <ele>437.281</ele>
        <time>2020-07-16T04:16:16Z</time>
      </trkpt>
      <trkpt lat="42.079540" lon="-8.266080">
        <ele>436.096</ele>
        <time>2020-07-16T04:16:36Z</time>
      </trkpt>
      <trkpt lat="42.079590" lon="-8.265990">
        <ele>435.764</ele>
        <time>2020-07-16T04:16:56Z</time>
      </trkpt>
      <trkpt lat="42.079670" lon="-8.265900">
        <ele>435.281</ele>
        <time>2020-07-16T04:17:16Z</time>
      </trkpt>
      <trkpt lat="42.079770" lon="-8.265830">
        <ele>434.531</ele>
        <time>2020-07-16T04:17:36Z</time>
      </trkpt>
      <trkpt lat="42.079950" lon="-8.265790">
        <ele>433.111</ele>
        <time>2020-07-16T04:17:56Z</time>
      </trkpt>
      <trkpt lat="42.080310" lon="-8.265750">
        <ele>427.942</ele>
        <time>2020-07-16T04:18:16Z</time>
      </trkpt>
      <trkpt lat="42.080580" lon="-8.265690">
        <ele>424.326</ele>
        <time>2020-07-16T04:18:36Z</time>
      </trkpt>
      <trkpt lat="42.080750" lon="-8.265590">
        <ele>423.747</ele>
        <time>2020-07-16T04:18:56Z</time>
      </trkpt>
      <trkpt lat="42.080930" lon="-8.265370">
        <ele>423.011</ele>
        <time>2020-07-16T04:19:16Z</time>
      </trkpt>
      <trkpt lat="42.081050" lon="-8.265110">
        <ele>421.008</ele>
        <time>2020-07-16T04:19:36Z</time>
      </trkpt>
      <trkpt lat="42.081120" lon="-8.264870">
        <ele>418.377</ele>
        <time>2020-07-16T04:19:56Z</time>
      </trkpt>
      <trkpt lat="42.081150" lon="-8.264690">
        <ele>416.954</ele>
        <time>2020-07-16T04:20:16Z</time>
      </trkpt>
      <trkpt lat="42.081130" lon="-8.264490">
        <ele>416.619</ele>
        <time>2020-07-16T04:20:36Z</time>
      </trkpt>
      <trkpt lat="42.081070" lon="-8.264260">
        <ele>417.157</ele>
        <time>2020-07-16T04:20:56Z</time>
      </trkpt>
      <trkpt lat="42.080860" lon="-8.263760">
        <ele>420.694</ele>
        <time>2020-07-16T04:21:16Z</time>
      </trkpt>
      <trkpt lat="42.080770" lon="-8.263450">
        <ele>422.434</ele>
        <time>2020-07-16T04:21:36Z</time>
      </trkpt>
      <trkpt lat="42.080740" lon="-8.263250">
        <ele>423.494</ele>
        <time>2020-07-16T04:21:56Z</time>
      </trkpt>
      <trkpt lat="42.080750" lon="-8.263060">
        <ele>422.995</ele>
        <time>2020-07-16T04:22:16Z</time>
      </trkpt>
      <trkpt lat="42.080800" lon="-8.262860">
        <ele>421.054</ele>
        <time>2020-07-16T04:22:36Z</time>
      </trkpt>
      <trkpt lat="42.080900" lon="-8.262660">
        <ele>417.656</ele>
        <time>2020-07-16T04:22:56Z</time>
      </trkpt>
      <trkpt lat="42.081110" lon="-8.262370">
        <ele>412.011</ele>
        <time>2020-07-16T04:23:16Z</time>
      </trkpt>
      <trkpt lat="42.081550" lon="-8.261830">
        <ele>407.808</ele>
        <time>2020-07-16T04:23:36Z</time>
      </trkpt>
      <trkpt lat="42.081750" lon="-8.261520">
        <ele>404.790</ele>
        <time>2020-07-16T04:23:56Z</time>
      </trkpt>
      <trkpt lat="42.081790" lon="-8.261330">
        <ele>403.147</ele>
        <time>2020-07-16T04:24:16Z</time>
      </trkpt>
      <trkpt lat="42.081750" lon="-8.261080">
        <ele>402.772</ele>
        <time>2020-07-16T04:24:36Z</time>
      </trkpt>
      <trkpt lat="42.081470" lon="-8.260340">
        <ele>403.250</ele>
        <time>2020-07-16T04:24:56Z</time>
      </trkpt>
      <trkpt lat="42.081390" lon="-8.259930">
        <ele>402.547</ele>
        <time>2020-07-16T04:25:16Z</time>
      </trkpt>
      <trkpt lat="42.081370" lon="-8.258810">
        <ele>398.097</ele>
        <time>2020-07-16T04:25:36Z</time>
      </trkpt>
      <trkpt lat="42.081400" lon="-8.258440">
        <ele>400.917</ele>
        <time>2020-07-16T04:25:56Z</time>
      </trkpt>
      <trkpt lat="42.081480" lon="-8.258250">
        <ele>402.318</ele>
        <time>2020-07-16T04:26:16Z</time>
      </trkpt>
      <trkpt lat="42.081600" lon="-8.258160">
        <ele>401.157</ele>
        <time>2020-07-16T04:26:36Z</time>
      </trkpt>
      <trkpt lat="42.081670" lon="-8.258140">
        <ele>400.100</ele>
        <time>2020-07-16T04:26:56Z</time>
      </trkpt>
      <trkpt lat="42.081800" lon="-8.258160">
        <ele>398.620</ele>
        <time>2020-07-16T04:27:16Z</time>
      </trkpt>
      <trkpt lat="42.081950" lon="-8.258230">
        <ele>396.708</ele>
        <time>2020-07-16T04:27:36Z</time>
      </trkpt>
      <trkpt lat="42.082040" lon="-8.258320">
        <ele>395.130</ele>
        <time>2020-07-16T04:27:56Z</time>
      </trkpt>
      <trkpt lat="42.082440" lon="-8.259070">
        <ele>390.677</ele>
        <time>2020-07-16T04:28:16Z</time>
      </trkpt>
      <trkpt lat="42.082560" lon="-8.259210">
        <ele>389.792</ele>
        <time>2020-07-16T04:28:36Z</time>
      </trkpt>
      <trkpt lat="42.082650" lon="-8.259240">
        <ele>389.990</ele>
        <time>2020-07-16T04:28:56Z</time>
      </trkpt>
      <trkpt lat="42.082880" lon="-8.259270">
        <ele>390.527</ele>
        <time>2020-07-16T04:29:16Z</time>
      </trkpt>
      <trkpt lat="42.083100" lon="-8.259320">
        <ele>390.177</ele>
        <time>2020-07-16T04:29:36Z</time>
      </trkpt>
      <trkpt lat="42.083480" lon="-8.259480">
        <ele>387.367</ele>
        <time>2020-07-16T04:29:56Z</time>
      </trkpt>
      <trkpt lat="42.083900" lon="-8.259610">
        <ele>381.688</ele>
        <time>2020-07-16T04:30:16Z</time>
      </trkpt>
      <trkpt lat="42.084790" lon="-8.259690">
        <ele>370.475</ele>
        <time>2020-07-16T04:30:36Z</time>
      </trkpt>
      <trkpt lat="42.085360" lon="-8.259870">
        <ele>364.728</ele>
        <time>2020-07-16T04:30:56Z</time>
      </trkpt>
      <trkpt lat="42.085650" lon="-8.259830">
        <ele>365.520</ele>
        <time>2020-07-16T04:31:16Z</time>
      </trkpt>
      <trkpt lat="42.085760" lon="-8.259780">
        <ele>366.208</ele>
        <time>2020-07-16T04:31:36Z</time>
      </trkpt>
      <trkpt lat="42.085900" lon="-8.259670">
        <ele>367.352</ele>
        <time>2020-07-16T04:31:56Z</time>
      </trkpt>
      <trkpt lat="42.086810" lon="-8.258670">
        <ele>357.599</ele>
        <time>2020-07-16T04:32:16Z</time>
      </trkpt>
      <trkpt lat="42.087150" lon="-8.258200">
        <ele>355.064</ele>
        <time>2020-07-16T04:32:36Z</time>
      </trkpt>
      <trkpt lat="42.087890" lon="-8.257600">
        <ele>352.652</ele>
        <time>2020-07-16T04:32:56Z</time>
      </trkpt>
      <trkpt lat="42.088010" lon="-8.257470">
        <ele>351.339</ele>
        <time>2020-07-16T04:33:16Z</time>
      </trkpt>
      <trkpt lat="42.088100" lon="-8.257340">
        <ele>350.529</ele>
        <time>2020-07-16T04:33:36Z</time>
      </trkpt>
      <trkpt lat="42.088170" lon="-8.257150">
        <ele>349.849</ele>
        <time>2020-07-16T04:33:56Z</time>
      </trkpt>
      <trkpt lat="42.088210" lon="-8.256860">
        <ele>350.930</ele>
        <time>2020-07-16T04:34:16Z</time>
      </trkpt>
      <trkpt lat="42.088220" lon="-8.256620">
        <ele>353.267</ele>
        <time>2020-07-16T04:34:36Z</time>
      </trkpt>
      <trkpt lat="42.088260" lon="-8.256430">
        <ele>354.381</ele>
        <time>2020-07-16T04:34:56Z</time>
      </trkpt>
      <trkpt lat="42.088330" lon="-8.256280">
        <ele>353.719</ele>
        <time>2020-07-16T04:35:16Z</time>
      </trkpt>
      <trkpt lat="42.088430" lon="-8.256180">
        <ele>353.808</ele>
        <time>2020-07-16T04:35:36Z</time>
      </trkpt>
      <trkpt lat="42.088570" lon="-8.256150">
        <ele>352.641</ele>
        <time>2020-07-16T04:35:56Z</time>
      </trkpt>
      <trkpt lat="42.088700" lon="-8.256200">
        <ele>350.658</ele>
        <time>2020-07-16T04:36:16Z</time>
      </trkpt>
      <trkpt lat="42.089060" lon="-8.256410">
        <ele>345.983</ele>
        <time>2020-07-16T04:36:36Z</time>
      </trkpt>
      <trkpt lat="42.089210" lon="-8.256440">
        <ele>346.651</ele>
        <time>2020-07-16T04:36:56Z</time>
      </trkpt>
      <trkpt lat="42.089340" lon="-8.256420">
        <ele>347.838</ele>
        <time>2020-07-16T04:37:16Z</time>
      </trkpt>
      <trkpt lat="42.089460" lon="-8.256380">
        <ele>349.238</ele>
        <time>2020-07-16T04:37:36Z</time>
      </trkpt>
      <trkpt lat="42.090040" lon="-8.255980">
        <ele>343.248</ele>
        <time>2020-07-16T04:37:56Z</time>
      </trkpt>
      <trkpt lat="42.090650" lon="-8.255770">
        <ele>333.979</ele>
        <time>2020-07-16T04:38:16Z</time>
      </trkpt>
      <trkpt lat="42.091210" lon="-8.255510">
        <ele>332.272</ele>
        <time>2020-07-16T04:38:36Z</time>
      </trkpt>
      <trkpt lat="42.091620" lon="-8.255270">
        <ele>328.913</ele>
        <time>2020-07-16T04:38:56Z</time>
      </trkpt>
      <trkpt lat="42.091820" lon="-8.255070">
        <ele>327.214</ele>
        <time>2020-07-16T04:39:16Z</time>
      </trkpt>
      <trkpt lat="42.091920" lon="-8.254920">
        <ele>327.008</ele>
        <time>2020-07-16T04:39:36Z</time>
      </trkpt>
      <trkpt lat="42.091980" lon="-8.254750">
        <ele>326.562</ele>
        <time>2020-07-16T04:39:56Z</time>
      </trkpt>
      <trkpt lat="42.092020" lon="-8.254580">
        <ele>325.939</ele>
        <time>2020-07-16T04:40:16Z</time>
      </trkpt>
      <trkpt lat="42.092020" lon="-8.254390">
        <ele>326.074</ele>
        <time>2020-07-16T04:40:36Z</time>
      </trkpt>
      <trkpt lat="42.091870" lon="-8.253730">
        <ele>324.242</ele>
        <time>2020-07-16T04:40:56Z</time>
      </trkpt>
      <trkpt lat="42.091870" lon="-8.253630">
        <ele>323.569</ele>
        <time>2020-07-16T04:41:16Z</time>
      </trkpt>
      <trkpt lat="42.091900" lon="-8.253470">
        <ele>322.069</ele>
        <time>2020-07-16T04:41:36Z</time>
      </trkpt>
      <trkpt lat="42.091960" lon="-8.253340">
        <ele>319.869</ele>
        <time>2020-07-16T04:41:56Z</time>
      </trkpt>
      <trkpt lat="42.092070" lon="-8.253220">
        <ele>319.650</ele>
        <time>2020-07-16T04:42:16Z</time>
      </trkpt>
      <trkpt lat="42.092600" lon="-8.252930">
        <ele>315.178</ele>
        <time>2020-07-16T04:42:36Z</time>
      </trkpt>
      <trkpt lat="42.092760" lon="-8.252920">
        <ele>314.133</ele>
        <time>2020-07-16T04:42:56Z</time>
      </trkpt>
      <trkpt lat="42.092870" lon="-8.252970">
        <ele>314.026</ele>
        <time>2020-07-16T04:43:16Z</time>
      </trkpt>
      <trkpt lat="42.092970" lon="-8.253070">
        <ele>313.208</ele>
        <time>2020-07-16T04:43:36Z</time>
      </trkpt>
      <trkpt lat="42.093050" lon="-8.253190">
        <ele>312.562</ele>
        <time>2020-07-16T04:43:56Z</time>
      </trkpt>
      <trkpt lat="42.093140" lon="-8.253430">
        <ele>311.069</ele>
        <time>2020-07-16T04:44:16Z</time>
      </trkpt>
      <trkpt lat="42.093330" lon="-8.254120">
        <ele>306.564</ele>
        <time>2020-07-16T04:44:36Z</time>
      </trkpt>
      <trkpt lat="42.093380" lon="-8.254250">
        <ele>304.592</ele>
        <time>2020-07-16T04:44:56Z</time>
      </trkpt>
      <trkpt lat="42.093440" lon="-8.254330">
        <ele>303.439</ele>
        <time>2020-07-16T04:45:16Z</time>
      </trkpt>
      <trkpt lat="42.093620" lon="-8.254450">
        <ele>302.939</ele>
        <time>2020-07-16T04:45:36Z</time>
      </trkpt>
      <trkpt lat="42.093880" lon="-8.254520">
        <ele>302.249</ele>
        <time>2020-07-16T04:45:56Z</time>
      </trkpt>
      <trkpt lat="42.094470" lon="-8.254590">
        <ele>299.910</ele>
        <time>2020-07-16T04:46:16Z</time>
      </trkpt>
      <trkpt lat="42.094640" lon="-8.254650">
        <ele>298.965</ele>
        <time>2020-07-16T04:46:36Z</time>
      </trkpt>
      <trkpt lat="42.094810" lon="-8.254750">
        <ele>297.968</ele>
        <time>2020-07-16T04:46:56Z</time>
      </trkpt>
      <trkpt lat="42.094930" lon="-8.254850">
        <ele>297.314</ele>
        <time>2020-07-16T04:47:16Z</time>
      </trkpt>
      <trkpt lat="42.095030" lon="-8.254970">
        <ele>296.508</ele>
        <time>2020-07-16T04:47:36Z</time>
      </trkpt>
      <trkpt lat="42.095100" lon="-8.255100">
        <ele>295.891</ele>
        <time>2020-07-16T04:47:56Z</time>
      </trkpt>
      <trkpt lat="42.095650" lon="-8.256490">
        <ele>287.958</ele>
        <time>2020-07-16T04:48:16Z</time>
      </trkpt>
      <trkpt lat="42.095800" lon="-8.256820">
        <ele>285.543</ele>
        <time>2020-07-16T04:48:36Z</time>
      </trkpt>
      <trkpt lat="42.095880" lon="-8.256920">
        <ele>284.311</ele>
        <time>2020-07-16T04:48:56Z</time>
      </trkpt>
      <trkpt lat="42.096040" lon="-8.257010">
        <ele>283.198</ele>
        <time>2020-07-16T04:49:16Z</time>
      </trkpt>
      <trkpt lat="42.096410" lon="-8.257100">
        <ele>280.798</ele>
        <time>2020-07-16T04:49:36Z</time>
      </trkpt>
      <trkpt lat="42.096550" lon="-8.257090">
        <ele>280.318</ele>
        <time>2020-07-16T04:49:56Z</time>
      </trkpt>
      <trkpt lat="42.096670" lon="-8.257010">
        <ele>281.029</ele>
        <time>2020-07-16T04:50:16Z</time>
      </trkpt>
      <trkpt lat="42.096840" lon="-8.256840">
        <ele>281.581</ele>
        <time>2020-07-16T04:50:36Z</time>
      </trkpt>
      <trkpt lat="42.097340" lon="-8.255780">
        <ele>278.061</ele>
        <time>2020-07-16T04:50:56Z</time>
      </trkpt>
      <trkpt lat="42.097520" lon="-8.255470">
        <ele>275.117</ele>
        <time>2020-07-16T04:51:16Z</time>
      </trkpt>
      <trkpt lat="42.098040" lon="-8.254910">
        <ele>273.508</ele>
        <time>2020-07-16T04:51:36Z</time>
      </trkpt>
      <trkpt lat="42.098140" lon="-8.254820">
        <ele>272.823</ele>
        <time>2020-07-16T04:51:56Z</time>
      </trkpt>
      <trkpt lat="42.098250" lon="-8.254750">
        <ele>271.920</ele>
        <time>2020-07-16T04:52:16Z</time>
      </trkpt>
      <trkpt lat="42.098400" lon="-8.254710">
        <ele>270.875</ele>
        <time>2020-07-16T04:52:36Z</time>
      </trkpt>
      <trkpt lat="42.099430" lon="-8.254670">
        <ele>261.333</ele>
        <time>2020-07-16T04:52:56Z</time>
      </trkpt>
      <trkpt lat="42.099590" lon="-8.254700">
        <ele>260.040</ele>
        <time>2020-07-16T04:53:16Z</time>
      </trkpt>
      <trkpt lat="42.099670" lon="-8.254760">
        <ele>259.520</ele>
        <time>2020-07-16T04:53:36Z</time>
      </trkpt>
      <trkpt lat="42.099810" lon="-8.254990">
        <ele>260.030</ele>
        <time>2020-07-16T04:53:56Z</time>
      </trkpt>
      <trkpt lat="42.100180" lon="-8.255800">
        <ele>259.281</ele>
        <time>2020-07-16T04:54:16Z</time>
      </trkpt>
      <trkpt lat="42.100290" lon="-8.255970">
        <ele>258.027</ele>
        <time>2020-07-16T04:54:36Z</time>
      </trkpt>
      <trkpt lat="42.100450" lon="-8.256140">
        <ele>256.268</ele>
        <time>2020-07-16T04:54:56Z</time>
      </trkpt>
      <trkpt lat="42.100910" lon="-8.256570">
        <ele>251.814</ele>
        <time>2020-07-16T04:55:16Z</time>
      </trkpt>
      <trkpt lat="42.101010" lon="-8.256620">
        <ele>250.908</ele>
        <time>2020-07-16T04:55:36Z</time>
      </trkpt>
      <trkpt lat="42.101650" lon="-8.256680">
        <ele>246.817</ele>
        <time>2020-07-16T04:55:56Z</time>
      </trkpt>
      <trkpt lat="42.101800" lon="-8.256610">
        <ele>246.564</ele>
        <time>2020-07-16T04:56:16Z</time>
      </trkpt>
      <trkpt lat="42.101890" lon="-8.256470">
        <ele>247.469</ele>
        <time>2020-07-16T04:56:36Z</time>
      </trkpt>
      <trkpt lat="42.101940" lon="-8.256330">
        <ele>247.477</ele>
        <time>2020-07-16T04:56:56Z</time>
      </trkpt>
      <trkpt lat="42.101990" lon="-8.256110">
        <ele>244.294</ele>
        <time>2020-07-16T04:57:16Z</time>
      </trkpt>
      <trkpt lat="42.102000" lon="-8.255930">
        <ele>241.474</ele>
        <time>2020-07-16T04:57:36Z</time>
      </trkpt>
      <trkpt lat="42.101980" lon="-8.255730">
        <ele>239.324</ele>
        <time>2020-07-16T04:57:56Z</time>
      </trkpt>
      <trkpt lat="42.101920" lon="-8.255550">
        <ele>238.635</ele>
        <time>2020-07-16T04:58:16Z</time>
      </trkpt>
      <trkpt lat="42.101740" lon="-8.255390">
        <ele>240.967</ele>
        <time>2020-07-16T04:58:36Z</time>
      </trkpt>
      <trkpt lat="42.101650" lon="-8.255250">
        <ele>240.781</ele>
        <time>2020-07-16T04:58:56Z</time>
      </trkpt>
      <trkpt lat="42.101630" lon="-8.255130">
        <ele>238.619</ele>
        <time>2020-07-16T04:59:16Z</time>
      </trkpt>
      <trkpt lat="42.101660" lon="-8.254950">
        <ele>235.708</ele>
        <time>2020-07-16T04:59:36Z</time>
      </trkpt>
      <trkpt lat="42.101720" lon="-8.254800">
        <ele>237.011</ele>
        <time>2020-07-16T04:59:56Z</time>
      </trkpt>
      <trkpt lat="42.101820" lon="-8.254690">
        <ele>238.568</ele>
        <time>2020-07-16T05:00:16Z</time>
      </trkpt>
      <trkpt lat="42.101920" lon="-8.254650">
        <ele>240.333</ele>
        <time>2020-07-16T05:00:36Z</time>
      </trkpt>
      <trkpt lat="42.102100" lon="-8.254660">
        <ele>241.211</ele>
        <time>2020-07-16T05:00:56Z</time>
      </trkpt>
      <trkpt lat="42.102210" lon="-8.254700">
        <ele>240.018</ele>
        <time>2020-07-16T05:01:16Z</time>
      </trkpt>
      <trkpt lat="42.102700" lon="-8.255040">
        <ele>241.598</ele>
        <time>2020-07-16T05:01:36Z</time>
      </trkpt>
      <trkpt lat="42.102820" lon="-8.255210">
        <ele>240.288</ele>
        <time>2020-07-16T05:01:56Z</time>
      </trkpt>
      <trkpt lat="42.103480" lon="-8.256620">
        <ele>227.829</ele>
        <time>2020-07-16T05:02:16Z</time>
      </trkpt>
      <trkpt lat="42.103790" lon="-8.257230">
        <ele>225.648</ele>
        <time>2020-07-16T05:02:36Z</time>
      </trkpt>
      <trkpt lat="42.103900" lon="-8.257330">
        <ele>225.161</ele>
        <time>2020-07-16T05:02:56Z</time>
      </trkpt>
      <trkpt lat="42.104030" lon="-8.257370">
        <ele>223.117</ele>
        <time>2020-07-16T05:03:16Z</time>
      </trkpt>
      <trkpt lat="42.104460" lon="-8.257330">
        <ele>221.208</ele>
        <time>2020-07-16T05:03:36Z</time>
      </trkpt>
      <trkpt lat="42.105030" lon="-8.257390">
        <ele>218.889</ele>
        <time>2020-07-16T05:03:56Z</time>
      </trkpt>
      <trkpt lat="42.105430" lon="-8.257470">
        <ele>216.586</ele>
        <time>2020-07-16T05:04:16Z</time>
      </trkpt>
      <trkpt lat="42.105690" lon="-8.257520">
        <ele>214.691</ele>
        <time>2020-07-16T05:04:36Z</time>
      </trkpt>
      <trkpt lat="42.105830" lon="-8.257500">
        <ele>213.079</ele>
        <time>2020-07-16T05:04:56Z</time>
      </trkpt>
      <trkpt lat="42.105880" lon="-8.257470">
        <ele>212.316</ele>
        <time>2020-07-16T05:05:16Z</time>
      </trkpt>
      <trkpt lat="42.106050" lon="-8.257300">
        <ele>210.426</ele>
        <time>2020-07-16T05:05:36Z</time>
      </trkpt>
      <trkpt lat="42.106490" lon="-8.256780">
        <ele>208.126</ele>
        <time>2020-07-16T05:05:56Z</time>
      </trkpt>
      <trkpt lat="42.106640" lon="-8.256930">
        <ele>204.587</ele>
        <time>2020-07-16T05:06:16Z</time>
      </trkpt>
      <trkpt lat="42.106860" lon="-8.256990">
        <ele>201.992</ele>
        <time>2020-07-16T05:06:36Z</time>
      </trkpt>
      <trkpt lat="42.106940" lon="-8.257030">
        <ele>200.573</ele>
        <time>2020-07-16T05:06:56Z</time>
      </trkpt>
      <trkpt lat="42.106710" lon="-8.257910">
        <ele>201.320</ele>
        <time>2020-07-16T05:07:16Z</time>
      </trkpt>
      <trkpt lat="42.106550" lon="-8.258460">
        <ele>202.208</ele>
        <time>2020-07-16T05:07:36Z</time>
      </trkpt>
      <trkpt lat="42.106440" lon="-8.258750">
        <ele>201.264</ele>
        <time>2020-07-16T05:07:56Z</time>
      </trkpt>
      <trkpt lat="42.106290" lon="-8.259300">
        <ele>194.161</ele>
        <time>2020-07-16T05:08:16Z</time>
      </trkpt>
      <trkpt lat="42.106240" lon="-8.259540">
        <ele>189.836</ele>
        <time>2020-07-16T05:08:36Z</time>
      </trkpt>
      <trkpt lat="42.106180" lon="-8.260020">
        <ele>184.314</ele>
        <time>2020-07-16T05:08:56Z</time>
      </trkpt>
      <trkpt lat="42.106240" lon="-8.260620">
        <ele>177.061</ele>
        <time>2020-07-16T05:09:16Z</time>
      </trkpt>
      <trkpt lat="42.106330" lon="-8.260960">
        <ele>173.041</ele>
        <time>2020-07-16T05:09:36Z</time>
      </trkpt>
      <trkpt lat="42.106410" lon="-8.261150">
        <ele>171.791</ele>
        <time>2020-07-16T05:09:56Z</time>
      </trkpt>
      <trkpt lat="42.106610" lon="-8.261530">
        <ele>169.152</ele>
        <time>2020-07-16T05:10:16Z</time>
      </trkpt>
      <trkpt lat="42.108070" lon="-8.263590">
        <ele>157.244</ele>
        <time>2020-07-16T05:10:36Z</time>
      </trkpt>
      <trkpt lat="42.108120" lon="-8.263550">
        <ele>157.605</ele>
        <time>2020-07-16T05:10:56Z</time>
      </trkpt>
      <trkpt lat="42.108170" lon="-8.263540">
        <ele>157.915</ele>
        <time>2020-07-16T05:11:16Z</time>
      </trkpt>
      <trkpt lat="42.108220" lon="-8.263560">
        <ele>158.208</ele>
        <time>2020-07-16T05:11:36Z</time>
      </trkpt>
      <trkpt lat="42.108260" lon="-8.263610">
        <ele>158.569</ele>
        <time>2020-07-16T05:11:56Z</time>
      </trkpt>
      <trkpt lat="42.108290" lon="-8.263720">
        <ele>157.916</ele>
        <time>2020-07-16T05:12:16Z</time>
      </trkpt>
      <trkpt lat="42.108260" lon="-8.263860">
        <ele>156.781</ele>
        <time>2020-07-16T05:12:36Z</time>
      </trkpt>
      <trkpt lat="42.108830" lon="-8.264730">
        <ele>148.549</ele>
        <time>2020-07-16T05:12:56Z</time>
      </trkpt>
      <trkpt lat="42.108950" lon="-8.264990">
        <ele>146.196</ele>
        <time>2020-07-16T05:13:16Z</time>
      </trkpt>
      <trkpt lat="42.109030" lon="-8.265220">
        <ele>145.246</ele>
        <time>2020-07-16T05:13:36Z</time>
      </trkpt>
      <trkpt lat="42.109120" lon="-8.265580">
        <ele>145.316</ele>
        <time>2020-07-16T05:13:56Z</time>
      </trkpt>
      <trkpt lat="42.109160" lon="-8.265890">
        <ele>145.957</ele>
        <time>2020-07-16T05:14:16Z</time>
      </trkpt>
      <trkpt lat="42.109170" lon="-8.267110">
        <ele>141.346</ele>
        <time>2020-07-16T05:14:36Z</time>
      </trkpt>
      <trkpt lat="42.109200" lon="-8.267570">
        <ele>139.688</ele>
        <time>2020-07-16T05:14:56Z</time>
      </trkpt>
      <trkpt lat="42.109290" lon="-8.268140">
        <ele>134.816</ele>
        <time>2020-07-16T05:15:16Z</time>
      </trkpt>
      <trkpt lat="42.109600" lon="-8.269450">
        <ele>130.408</ele>
        <time>2020-07-16T05:15:36Z</time>
      </trkpt>
      <trkpt lat="42.110440" lon="-8.273220">
        <ele>119.619</ele>
        <time>2020-07-16T05:15:56Z</time>
      </trkpt>
      <trkpt lat="42.110500" lon="-8.273600">
        <ele>118.826</ele>
        <time>2020-07-16T05:16:16Z</time>
      </trkpt>
      <trkpt lat="42.110540" lon="-8.274270">
        <ele>119.551</ele>
        <time>2020-07-16T05:16:36Z</time>
      </trkpt>
      <trkpt lat="42.110500" lon="-8.274770">
        <ele>115.759</ele>
        <time>2020-07-16T05:16:56Z</time>
      </trkpt>
      <trkpt lat="42.110450" lon="-8.275070">
        <ele>113.596</ele>
        <time>2020-07-16T05:17:16Z</time>
      </trkpt>
      <trkpt lat="42.110340" lon="-8.275500">
        <ele>111.016</ele>
        <time>2020-07-16T05:17:36Z</time>
      </trkpt>
      <trkpt lat="42.110140" lon="-8.276040">
        <ele>106.346</ele>
        <time>2020-07-16T05:17:56Z</time>
      </trkpt>
      <trkpt lat="42.109950" lon="-8.276450">
        <ele>101.997</ele>
        <time>2020-07-16T05:18:16Z</time>
      </trkpt>
      <trkpt lat="42.109810" lon="-8.276700">
        <ele>100.233</ele>
        <time>2020-07-16T05:18:36Z</time>
      </trkpt>
      <trkpt lat="42.108750" lon="-8.278870">
        <ele>85.023</ele>
        <time>2020-07-16T05:18:56Z</time>
      </trkpt>
      <trkpt lat="42.108550" lon="-8.279350">
        <ele>85.115</ele>
        <time>2020-07-16T05:19:16Z</time>
      </trkpt>
      <trkpt lat="42.108170" lon="-8.280440">
        <ele>80.408</ele>
        <time>2020-07-16T05:19:36Z</time>
      </trkpt>
      <trkpt lat="42.108060" lon="-8.280820">
        <ele>77.148</ele>
        <time>2020-07-16T05:19:56Z</time>
      </trkpt>
      <trkpt lat="42.107860" lon="-8.281630">
        <ele>71.065</ele>
        <time>2020-07-16T05:20:16Z</time>
      </trkpt>
      <trkpt lat="42.107550" lon="-8.283060">
        <ele>56.650</ele>
        <time>2020-07-16T05:20:36Z</time>
      </trkpt>
      <trkpt lat="42.107360" lon="-8.283850">
        <ele>49.538</ele>
        <time>2020-07-16T05:20:56Z</time>
      </trkpt>
      <trkpt lat="42.107080" lon="-8.284630">
        <ele>54.825</ele>
        <time>2020-07-16T05:21:16Z</time>
      </trkpt>
      <trkpt lat="42.106670" lon="-8.285540">
        <ele>64.095</ele>
        <time>2020-07-16T05:21:36Z</time>
      </trkpt>
      <trkpt lat="42.106510" lon="-8.285800">
        <ele>64.955</ele>
        <time>2020-07-16T05:21:56Z</time>
      </trkpt>
      <trkpt lat="42.105220" lon="-8.287730">
        <ele>65.516</ele>
        <time>2020-07-16T05:22:16Z</time>
      </trkpt>
      <trkpt lat="42.104020" lon="-8.289420">
        <ele>61.833</ele>
        <time>2020-07-16T05:22:36Z</time>
      </trkpt>
      <trkpt lat="42.103770" lon="-8.289830">
        <ele>64.423</ele>
        <time>2020-07-16T05:22:56Z</time>
      </trkpt>
      <trkpt lat="42.103810" lon="-8.289940">
        <ele>62.115</ele>
        <time>2020-07-16T05:23:16Z</time>
      </trkpt>
      <trkpt lat="42.103790" lon="-8.290080">
        <ele>60.308</ele>
        <time>2020-07-16T05:23:36Z</time>
      </trkpt>
      <trkpt lat="42.103740" lon="-8.290140">
        <ele>60.248</ele>
        <time>2020-07-16T05:23:56Z</time>
      </trkpt>
      <trkpt lat="42.103690" lon="-8.290160">
        <ele>60.755</ele>
        <time>2020-07-16T05:24:16Z</time>
      </trkpt>
      <trkpt lat="42.103620" lon="-8.290130">
        <ele>62.580</ele>
        <time>2020-07-16T05:24:36Z</time>
      </trkpt>
      <trkpt lat="42.103510" lon="-8.290330">
        <ele>61.678</ele>
        <time>2020-07-16T05:24:56Z</time>
      </trkpt>
      <trkpt lat="42.103400" lon="-8.290610">
        <ele>62.645</ele>
        <time>2020-07-16T05:25:16Z</time>
      </trkpt>
      <trkpt lat="42.103270" lon="-8.291010">
        <ele>62.295</ele>
        <time>2020-07-16T05:25:36Z</time>
      </trkpt>
      <trkpt lat="42.103120" lon="-8.291700">
        <ele>64.595</ele>
        <time>2020-07-16T05:25:56Z</time>
      </trkpt>
      <trkpt lat="42.103070" lon="-8.292460">
        <ele>72.366</ele>
        <time>2020-07-16T05:26:16Z</time>
      </trkpt>
      <trkpt lat="42.103080" lon="-8.292790">
        <ele>76.042</ele>
        <time>2020-07-16T05:26:36Z</time>
      </trkpt>
      <trkpt lat="42.103290" lon="-8.294860">
        <ele>73.222</ele>
        <time>2020-07-16T05:26:56Z</time>
      </trkpt>
      <trkpt lat="42.103590" lon="-8.298070">
        <ele>69.614</ele>
        <time>2020-07-16T05:27:16Z</time>
      </trkpt>
      <trkpt lat="42.103630" lon="-8.298670">
        <ele>68.708</ele>
        <time>2020-07-16T05:27:36Z</time>
      </trkpt>
      <trkpt lat="42.103630" lon="-8.299290">
        <ele>72.359</ele>
        <time>2020-07-16T05:27:56Z</time>
      </trkpt>
      <trkpt lat="42.103600" lon="-8.299740">
        <ele>72.156</ele>
        <time>2020-07-16T05:28:16Z</time>
      </trkpt>
      <trkpt lat="42.103510" lon="-8.300340">
        <ele>68.431</ele>
        <time>2020-07-16T05:28:36Z</time>
      </trkpt>
      <trkpt lat="42.103410" lon="-8.300810">
        <ele>68.289</ele>
        <time>2020-07-16T05:28:56Z</time>
      </trkpt>
      <trkpt lat="42.103000" lon="-8.302340">
        <ele>65.726</ele>
        <time>2020-07-16T05:29:16Z</time>
      </trkpt>
      <trkpt lat="42.102740" lon="-8.303400">
        <ele>61.666</ele>
        <time>2020-07-16T05:29:36Z</time>
      </trkpt>
      <trkpt lat="42.102660" lon="-8.303860">
        <ele>61.186</ele>
        <time>2020-07-16T05:29:56Z</time>
      </trkpt>
      <trkpt lat="42.102630" lon="-8.304100">
        <ele>62.597</ele>
        <time>2020-07-16T05:30:16Z</time>
      </trkpt>
      <trkpt lat="42.102590" lon="-8.304780">
        <ele>61.644</ele>
        <time>2020-07-16T05:30:36Z</time>
      </trkpt>
      <trkpt lat="42.102620" lon="-8.305730">
        <ele>66.305</ele>
        <time>2020-07-16T05:30:56Z</time>
      </trkpt>
      <trkpt lat="42.102620" lon="-8.306660">
        <ele>65.515</ele>
        <time>2020-07-16T05:31:16Z</time>
      </trkpt>
      <trkpt lat="42.102570" lon="-8.307260">
        <ele>66.208</ele>
        <time>2020-07-16T05:31:36Z</time>
      </trkpt>
      <trkpt lat="42.102430" lon="-8.307920">
        <ele>69.529</ele>
        <time>2020-07-16T05:31:56Z</time>
      </trkpt>
      <trkpt lat="42.102260" lon="-8.308510">
        <ele>68.636</ele>
        <time>2020-07-16T05:32:16Z</time>
      </trkpt>
      <trkpt lat="42.101540" lon="-8.310600">
        <ele>63.541</ele>
        <time>2020-07-16T05:32:36Z</time>
      </trkpt>
      <trkpt lat="42.101420" lon="-8.311170">
        <ele>63.189</ele>
        <time>2020-07-16T05:32:56Z</time>
      </trkpt>
      <trkpt lat="42.101360" lon="-8.311880">
        <ele>60.446</ele>
        <time>2020-07-16T05:33:16Z</time>
      </trkpt>
      <trkpt lat="42.101370" lon="-8.312670">
        <ele>64.996</ele>
        <time>2020-07-16T05:33:36Z</time>
      </trkpt>
      <trkpt lat="42.101500" lon="-8.314840">
        <ele>79.446</ele>
        <time>2020-07-16T05:33:56Z</time>
      </trkpt>
      <trkpt lat="42.101510" lon="-8.315430">
        <ele>80.127</ele>
        <time>2020-07-16T05:34:16Z</time>
      </trkpt>
      <trkpt lat="42.101480" lon="-8.315900">
        <ele>82.991</ele>
        <time>2020-07-16T05:34:36Z</time>
      </trkpt>
      <trkpt lat="42.101390" lon="-8.316520">
        <ele>78.681</ele>
        <time>2020-07-16T05:34:56Z</time>
      </trkpt>
      <trkpt lat="42.101220" lon="-8.317160">
        <ele>77.419</ele>
        <time>2020-07-16T05:35:16Z</time>
      </trkpt>
      <trkpt lat="42.101090" lon="-8.317540">
        <ele>76.608</ele>
        <time>2020-07-16T05:35:36Z</time>
      </trkpt>
      <trkpt lat="42.099740" lon="-8.320900">
        <ele>79.114</ele>
        <time>2020-07-16T05:35:56Z</time>
      </trkpt>
      <trkpt lat="42.099540" lon="-8.321280">
        <ele>76.681</ele>
        <time>2020-07-16T05:36:16Z</time>
      </trkpt>
      <trkpt lat="42.099400" lon="-8.321510">
        <ele>74.336</ele>
        <time>2020-07-16T05:36:36Z</time>
      </trkpt>
      <trkpt lat="42.099210" lon="-8.321740">
        <ele>70.924</ele>
        <time>2020-07-16T05:36:56Z</time>
      </trkpt>
      <trkpt lat="42.098740" lon="-8.322160">
        <ele>71.561</ele>
        <time>2020-07-16T05:37:16Z</time>
      </trkpt>
      <trkpt lat="42.098430" lon="-8.322350">
        <ele>71.371</ele>
        <time>2020-07-16T05:37:36Z</time>
      </trkpt>
      <trkpt lat="42.098120" lon="-8.322500">
        <ele>73.461</ele>
        <time>2020-07-16T05:37:56Z</time>
      </trkpt>
      <trkpt lat="42.097820" lon="-8.322600">
        <ele>74.432</ele>
        <time>2020-07-16T05:38:16Z</time>
      </trkpt>
      <trkpt lat="42.097540" lon="-8.322660">
        <ele>74.999</ele>
        <time>2020-07-16T05:38:36Z</time>
      </trkpt>
      <trkpt lat="42.097250" lon="-8.322680">
        <ele>75.707</ele>
        <time>2020-07-16T05:38:56Z</time>
      </trkpt>
      <trkpt lat="42.096800" lon="-8.322660">
        <ele>77.327</ele>
        <time>2020-07-16T05:39:16Z</time>
      </trkpt>
      <trkpt lat="42.095040" lon="-8.322510">
        <ele>68.908</ele>
        <time>2020-07-16T05:39:36Z</time>
      </trkpt>
      <trkpt lat="42.091900" lon="-8.322450">
        <ele>77.634</ele>
        <time>2020-07-16T05:39:56Z</time>
      </trkpt>
      <trkpt lat="42.090940" lon="-8.322390">
        <ele>78.661</ele>
        <time>2020-07-16T05:40:16Z</time>
      </trkpt>
      <trkpt lat="42.090630" lon="-8.322400">
        <ele>77.436</ele>
        <time>2020-07-16T05:40:36Z</time>
      </trkpt>
      <trkpt lat="42.090370" lon="-8.322440">
        <ele>75.424</ele>
        <time>2020-07-16T05:40:56Z</time>
      </trkpt>
      <trkpt lat="42.090070" lon="-8.322520">
        <ele>73.631</ele>
        <time>2020-07-16T05:41:16Z</time>
      </trkpt>
      <trkpt lat="42.089850" lon="-8.322620">
        <ele>74.611</ele>
        <time>2020-07-16T05:41:36Z</time>
      </trkpt>
      <trkpt lat="42.089640" lon="-8.322760">
        <ele>76.721</ele>
        <time>2020-07-16T05:41:56Z</time>
      </trkpt>
      <trkpt lat="42.089240" lon="-8.323090">
        <ele>80.512</ele>
        <time>2020-07-16T05:42:16Z</time>
      </trkpt>
      <trkpt lat="42.089110" lon="-8.323230">
        <ele>82.387</ele>
        <time>2020-07-16T05:42:36Z</time>
      </trkpt>
      <trkpt lat="42.088160" lon="-8.324440">
        <ele>80.942</ele>
        <time>2020-07-16T05:42:56Z</time>
      </trkpt>
      <trkpt lat="42.087650" lon="-8.325060">
        <ele>85.326</ele>
        <time>2020-07-16T05:43:16Z</time>
      </trkpt>
      <trkpt lat="42.087360" lon="-8.325380">
        <ele>86.008</ele>
        <time>2020-07-16T05:43:36Z</time>
      </trkpt>
      <trkpt lat="42.087150" lon="-8.325560">
        <ele>86.013</ele>
        <time>2020-07-16T05:43:56Z</time>
      </trkpt>
      <trkpt lat="42.086670" lon="-8.325870">
        <ele>89.870</ele>
        <time>2020-07-16T05:44:16Z</time>
      </trkpt>
      <trkpt lat="42.086320" lon="-8.326030">
        <ele>92.545</ele>
        <time>2020-07-16T05:44:36Z</time>
      </trkpt>
      <trkpt lat="42.085540" lon="-8.326290">
        <ele>88.293</ele>
        <time>2020-07-16T05:44:56Z</time>
      </trkpt>
      <trkpt lat="42.085220" lon="-8.326490">
        <ele>89.880</ele>
        <time>2020-07-16T05:45:16Z</time>
      </trkpt>
      <trkpt lat="42.085080" lon="-8.326610">
        <ele>92.060</ele>
        <time>2020-07-16T05:45:36Z</time>
      </trkpt>
      <trkpt lat="42.084900" lon="-8.326820">
        <ele>94.510</ele>
        <time>2020-07-16T05:45:56Z</time>
      </trkpt>
      <trkpt lat="42.084730" lon="-8.327100">
        <ele>95.461</ele>
        <time>2020-07-16T05:46:16Z</time>
      </trkpt>
      <trkpt lat="42.084610" lon="-8.327340">
        <ele>94.691</ele>
        <time>2020-07-16T05:46:36Z</time>
      </trkpt>
      <trkpt lat="42.084250" lon="-8.328320">
        <ele>93.081</ele>
        <time>2020-07-16T05:46:56Z</time>
      </trkpt>
      <trkpt lat="42.084040" lon="-8.328740">
        <ele>92.119</ele>
        <time>2020-07-16T05:47:16Z</time>
      </trkpt>
      <trkpt lat="42.083910" lon="-8.328940">
        <ele>92.608</ele>
        <time>2020-07-16T05:47:36Z</time>
      </trkpt>
      <trkpt lat="42.083760" lon="-8.329110">
        <ele>93.394</ele>
        <time>2020-07-16T05:47:56Z</time>
      </trkpt>
      <trkpt lat="42.083600" lon="-8.329230">
        <ele>92.771</ele>
        <time>2020-07-16T05:48:16Z</time>
      </trkpt>
      <trkpt lat="42.083320" lon="-8.329360">
        <ele>91.746</ele>
        <time>2020-07-16T05:48:36Z</time>
      </trkpt>
      <trkpt lat="42.083050" lon="-8.329410">
        <ele>95.574</ele>
        <time>2020-07-16T05:48:56Z</time>
      </trkpt>
      <trkpt lat="42.082700" lon="-8.329380">
        <ele>96.961</ele>
        <time>2020-07-16T05:49:16Z</time>
      </trkpt>
      <trkpt lat="42.082200" lon="-8.329240">
        <ele>93.291</ele>
        <time>2020-07-16T05:49:36Z</time>
      </trkpt>
      <trkpt lat="42.081840" lon="-8.329180">
        <ele>88.411</ele>
        <time>2020-07-16T05:49:56Z</time>
      </trkpt>
      <trkpt lat="42.081660" lon="-8.329190">
        <ele>87.792</ele>
        <time>2020-07-16T05:50:16Z</time>
      </trkpt>
      <trkpt lat="42.081490" lon="-8.329230">
        <ele>88.353</ele>
        <time>2020-07-16T05:50:36Z</time>
      </trkpt>
      <trkpt lat="42.081290" lon="-8.329330">
        <ele>90.204</ele>
        <time>2020-07-16T05:50:56Z</time>
      </trkpt>
      <trkpt lat="42.081130" lon="-8.329470">
        <ele>90.914</ele>
        <time>2020-07-16T05:51:16Z</time>
      </trkpt>
      <trkpt lat="42.080960" lon="-8.329670">
        <ele>91.608</ele>
        <time>2020-07-16T05:51:36Z</time>
      </trkpt>
      <trkpt lat="42.080780" lon="-8.330030">
        <ele>94.420</ele>
        <time>2020-07-16T05:51:56Z</time>
      </trkpt>
      <trkpt lat="42.080700" lon="-8.330290">
        <ele>97.617</ele>
        <time>2020-07-16T05:52:16Z</time>
      </trkpt>
      <trkpt lat="42.080660" lon="-8.330520">
        <ele>100.842</ele>
        <time>2020-07-16T05:52:36Z</time>
      </trkpt>
      <trkpt lat="42.080660" lon="-8.330770">
        <ele>105.430</ele>
        <time>2020-07-16T05:52:56Z</time>
      </trkpt>
      <trkpt lat="42.080720" lon="-8.331210">
        <ele>112.017</ele>
        <time>2020-07-16T05:53:16Z</time>
      </trkpt>
      <trkpt lat="42.080890" lon="-8.332130">
        <ele>115.257</ele>
        <time>2020-07-16T05:53:36Z</time>
      </trkpt>
      <trkpt lat="42.080910" lon="-8.332640">
        <ele>115.567</ele>
        <time>2020-07-16T05:53:56Z</time>
      </trkpt>
      <trkpt lat="42.080810" lon="-8.333090">
        <ele>117.168</ele>
        <time>2020-07-16T05:54:16Z</time>
      </trkpt>
      <trkpt lat="42.080730" lon="-8.333280">
        <ele>117.228</ele>
        <time>2020-07-16T05:54:36Z</time>
      </trkpt>
      <trkpt lat="42.080470" lon="-8.333720">
        <ele>116.289</ele>
        <time>2020-07-16T05:54:56Z</time>
      </trkpt>
      <trkpt lat="42.079950" lon="-8.334360">
        <ele>114.517</ele>
        <time>2020-07-16T05:55:16Z</time>
      </trkpt>
      <trkpt lat="42.079640" lon="-8.334780">
        <ele>113.208</ele>
        <time>2020-07-16T05:55:36Z</time>
      </trkpt>
      <trkpt lat="42.079420" lon="-8.335240">
        <ele>114.487</ele>
        <time>2020-07-16T05:55:56Z</time>
      </trkpt>
      <trkpt lat="42.079340" lon="-8.335560">
        <ele>115.944</ele>
        <time>2020-07-16T05:56:16Z</time>
      </trkpt>
      <trkpt lat="42.079290" lon="-8.335890">
        <ele>118.179</ele>
        <time>2020-07-16T05:56:36Z</time>
      </trkpt>
      <trkpt lat="42.079290" lon="-8.336220">
        <ele>117.177</ele>
        <time>2020-07-16T05:56:56Z</time>
      </trkpt>
      <trkpt lat="42.079320" lon="-8.336500">
        <ele>115.664</ele>
        <time>2020-07-16T05:57:16Z</time>
      </trkpt>
      <trkpt lat="42.079390" lon="-8.336780">
        <ele>114.674</ele>
        <time>2020-07-16T05:57:36Z</time>
      </trkpt>
      <trkpt lat="42.079470" lon="-8.337020">
        <ele>115.594</ele>
        <time>2020-07-16T05:57:56Z</time>
      </trkpt>
      <trkpt lat="42.079710" lon="-8.337470">
        <ele>119.735</ele>
        <time>2020-07-16T05:58:16Z</time>
      </trkpt>
      <trkpt lat="42.080890" lon="-8.339230">
        <ele>108.541</ele>
        <time>2020-07-16T05:58:36Z</time>
      </trkpt>
      <trkpt lat="42.081080" lon="-8.339600">
        <ele>105.081</ele>
        <time>2020-07-16T05:58:56Z</time>
      </trkpt>
      <trkpt lat="42.081200" lon="-8.339900">
        <ele>101.609</ele>
        <time>2020-07-16T05:59:16Z</time>
      </trkpt>
      <trkpt lat="42.081310" lon="-8.340280">
        <ele>98.008</ele>
        <time>2020-07-16T05:59:36Z</time>
      </trkpt>
      <trkpt lat="42.081360" lon="-8.340490">
        <ele>97.579</ele>
        <time>2020-07-16T05:59:56Z</time>
      </trkpt>
      <trkpt lat="42.081580" lon="-8.341980">
        <ele>89.926</ele>
        <time>2020-07-16T06:00:16Z</time>
      </trkpt>
      <trkpt lat="42.081910" lon="-8.343950">
        <ele>89.431</ele>
        <time>2020-07-16T06:00:36Z</time>
      </trkpt>
      <trkpt lat="42.082450" lon="-8.347520">
        <ele>74.559</ele>
        <time>2020-07-16T06:00:56Z</time>
      </trkpt>
      <trkpt lat="42.082600" lon="-8.347990">
        <ele>74.586</ele>
        <time>2020-07-16T06:01:16Z</time>
      </trkpt>
      <trkpt lat="42.082720" lon="-8.348260">
        <ele>74.636</ele>
        <time>2020-07-16T06:01:36Z</time>
      </trkpt>
      <trkpt lat="42.082900" lon="-8.348550">
        <ele>76.666</ele>
        <time>2020-07-16T06:01:56Z</time>
      </trkpt>
      <trkpt lat="42.083050" lon="-8.348740">
        <ele>77.947</ele>
        <time>2020-07-16T06:02:16Z</time>
      </trkpt>
      <trkpt lat="42.083220" lon="-8.348900">
        <ele>77.582</ele>
        <time>2020-07-16T06:02:36Z</time>
      </trkpt>
      <trkpt lat="42.083450" lon="-8.349080">
        <ele>76.643</ele>
        <time>2020-07-16T06:02:56Z</time>
      </trkpt>
      <trkpt lat="42.084070" lon="-8.349400">
        <ele>72.217</ele>
        <time>2020-07-16T06:03:16Z</time>
      </trkpt>
      <trkpt lat="42.084710" lon="-8.349700">
        <ele>72.608</ele>
        <time>2020-07-16T06:03:36Z</time>
      </trkpt>
      <trkpt lat="42.085010" lon="-8.349870">
        <ele>74.693</ele>
        <time>2020-07-16T06:03:56Z</time>
      </trkpt>
      <trkpt lat="42.085320" lon="-8.350080">
        <ele>74.770</ele>
        <time>2020-07-16T06:04:16Z</time>
      </trkpt>
      <trkpt lat="42.085550" lon="-8.350300">
        <ele>73.475</ele>
        <time>2020-07-16T06:04:36Z</time>
      </trkpt>
      <trkpt lat="42.085770" lon="-8.350560">
        <ele>73.933</ele>
        <time>2020-07-16T06:04:56Z</time>
      </trkpt>
      <trkpt lat="42.085940" lon="-8.350810">
        <ele>73.990</ele>
        <time>2020-07-16T06:05:16Z</time>
      </trkpt>
      <trkpt lat="42.086080" lon="-8.351090">
        <ele>73.330</ele>
        <time>2020-07-16T06:05:36Z</time>
      </trkpt>
      <trkpt lat="42.086220" lon="-8.351440">
        <ele>71.990</ele>
        <time>2020-07-16T06:05:56Z</time>
      </trkpt>
      <trkpt lat="42.086350" lon="-8.351910">
        <ele>67.441</ele>
        <time>2020-07-16T06:06:16Z</time>
      </trkpt>
      <trkpt lat="42.086600" lon="-8.353720">
        <ele>61.196</ele>
        <time>2020-07-16T06:06:36Z</time>
      </trkpt>
      <trkpt lat="42.086890" lon="-8.356490">
        <ele>50.131</ele>
        <time>2020-07-16T06:06:56Z</time>
      </trkpt>
      <trkpt lat="42.087020" lon="-8.357970">
        <ele>52.224</ele>
        <time>2020-07-16T06:07:16Z</time>
      </trkpt>
      <trkpt lat="42.087030" lon="-8.358330">
        <ele>50.208</ele>
        <time>2020-07-16T06:07:36Z</time>
      </trkpt>
      <trkpt lat="42.087020" lon="-8.358980">
        <ele>47.344</ele>
        <time>2020-07-16T06:07:56Z</time>
      </trkpt>
      <trkpt lat="42.086960" lon="-8.359550">
        <ele>51.151</ele>
        <time>2020-07-16T06:08:16Z</time>
      </trkpt>
      <trkpt lat="42.086810" lon="-8.360260">
        <ele>50.076</ele>
        <time>2020-07-16T06:08:36Z</time>
      </trkpt>
      <trkpt lat="42.086620" lon="-8.360900">
        <ele>50.624</ele>
        <time>2020-07-16T06:08:56Z</time>
      </trkpt>
      <trkpt lat="42.086230" lon="-8.361780">
        <ele>53.091</ele>
        <time>2020-07-16T06:09:16Z</time>
      </trkpt>
      <trkpt lat="42.084480" lon="-8.364730">
        <ele>44.241</ele>
        <time>2020-07-16T06:09:36Z</time>
      </trkpt>
      <trkpt lat="42.082010" lon="-8.369560">
        <ele>52.411</ele>
        <time>2020-07-16T06:09:56Z</time>
      </trkpt>
      <trkpt lat="42.081670" lon="-8.370210">
        <ele>51.222</ele>
        <time>2020-07-16T06:10:16Z</time>
      </trkpt>
      <trkpt lat="42.081360" lon="-8.370740">
        <ele>54.113</ele>
        <time>2020-07-16T06:10:36Z</time>
      </trkpt>
      <trkpt lat="42.081010" lon="-8.371210">
        <ele>55.943</ele>
        <time>2020-07-16T06:10:56Z</time>
      </trkpt>
      <trkpt lat="42.080640" lon="-8.371620">
        <ele>52.607</ele>
        <time>2020-07-16T06:11:16Z</time>
      </trkpt>
      <trkpt lat="42.080260" lon="-8.371960">
        <ele>52.108</ele>
        <time>2020-07-16T06:11:36Z</time>
      </trkpt>
      <trkpt lat="42.078040" lon="-8.373680">
        <ele>48.956</ele>
        <time>2020-07-16T06:11:56Z</time>
      </trkpt>
      <trkpt lat="42.077460" lon="-8.374150">
        <ele>49.543</ele>
        <time>2020-07-16T06:12:16Z</time>
      </trkpt>
      <trkpt lat="42.077090" lon="-8.374540">
        <ele>47.848</ele>
        <time>2020-07-16T06:12:36Z</time>
      </trkpt>
      <trkpt lat="42.076910" lon="-8.374770">
        <ele>46.626</ele>
        <time>2020-07-16T06:12:56Z</time>
      </trkpt>
      <trkpt lat="42.076690" lon="-8.375130">
        <ele>44.063</ele>
        <time>2020-07-16T06:13:16Z</time>
      </trkpt>
      <trkpt lat="42.076490" lon="-8.375570">
        <ele>40.983</ele>
        <time>2020-07-16T06:13:36Z</time>
      </trkpt>
      <trkpt lat="42.076310" lon="-8.376160">
        <ele>42.723</ele>
        <time>2020-07-16T06:13:56Z</time>
      </trkpt>
      <trkpt lat="42.076170" lon="-8.376940">
        <ele>47.394</ele>
        <time>2020-07-16T06:14:16Z</time>
      </trkpt>
      <trkpt lat="42.075990" lon="-8.378180">
        <ele>52.817</ele>
        <time>2020-07-16T06:14:36Z</time>
      </trkpt>
      <trkpt lat="42.075830" lon="-8.378860">
        <ele>60.887</ele>
        <time>2020-07-16T06:14:56Z</time>
      </trkpt>
      <trkpt lat="42.075610" lon="-8.379490">
        <ele>60.315</ele>
        <time>2020-07-16T06:15:16Z</time>
      </trkpt>
      <trkpt lat="42.075370" lon="-8.380000">
        <ele>60.708</ele>
        <time>2020-07-16T06:15:36Z</time>
      </trkpt>
      <trkpt lat="42.074560" lon="-8.381360">
        <ele>58.186</ele>
        <time>2020-07-16T06:15:56Z</time>
      </trkpt>
      <trkpt lat="42.074280" lon="-8.381870">
        <ele>61.733</ele>
        <time>2020-07-16T06:16:16Z</time>
      </trkpt>
      <trkpt lat="42.074050" lon="-8.382340">
        <ele>65.158</ele>
        <time>2020-07-16T06:16:36Z</time>
      </trkpt>
      <trkpt lat="42.073930" lon="-8.382670">
        <ele>63.096</ele>
        <time>2020-07-16T06:16:56Z</time>
      </trkpt>
      <trkpt lat="42.073770" lon="-8.383200">
        <ele>59.653</ele>
        <time>2020-07-16T06:17:16Z</time>
      </trkpt>
      <trkpt lat="42.073640" lon="-8.383850">
        <ele>61.543</ele>
        <time>2020-07-16T06:17:36Z</time>
      </trkpt>
      <trkpt lat="42.073570" lon="-8.384660">
        <ele>56.893</ele>
        <time>2020-07-16T06:17:56Z</time>
      </trkpt>
      <trkpt lat="42.073540" lon="-8.386430">
        <ele>47.684</ele>
        <time>2020-07-16T06:18:16Z</time>
      </trkpt>
      <trkpt lat="42.073560" lon="-8.386640">
        <ele>47.261</ele>
        <time>2020-07-16T06:18:36Z</time>
      </trkpt>
      <trkpt lat="42.073510" lon="-8.387840">
        <ele>44.921</ele>
        <time>2020-07-16T06:18:56Z</time>
      </trkpt>
      <trkpt lat="42.073290" lon="-8.389600">
        <ele>35.413</ele>
        <time>2020-07-16T06:19:16Z</time>
      </trkpt>
      <trkpt lat="42.073080" lon="-8.390800">
        <ele>39.508</ele>
        <time>2020-07-16T06:19:36Z</time>
      </trkpt>
      <trkpt lat="42.072950" lon="-8.391660">
        <ele>38.261</ele>
        <time>2020-07-16T06:19:56Z</time>
      </trkpt>
      <trkpt lat="42.072820" lon="-8.392170">
        <ele>38.548</ele>
        <time>2020-07-16T06:20:16Z</time>
      </trkpt>
      <trkpt lat="42.072650" lon="-8.392660">
        <ele>41.223</ele>
        <time>2020-07-16T06:20:36Z</time>
      </trkpt>
      <trkpt lat="42.072510" lon="-8.392980">
        <ele>41.991</ele>
        <time>2020-07-16T06:20:56Z</time>
      </trkpt>
      <trkpt lat="42.072240" lon="-8.393480">
        <ele>43.098</ele>
        <time>2020-07-16T06:21:16Z</time>
      </trkpt>
      <trkpt lat="42.071940" lon="-8.393990">
        <ele>40.248</ele>
        <time>2020-07-16T06:21:36Z</time>
      </trkpt>
      <trkpt lat="42.070880" lon="-8.395740">
        <ele>46.778</ele>
        <time>2020-07-16T06:21:56Z</time>
      </trkpt>
      <trkpt lat="42.070560" lon="-8.396370">
        <ele>45.029</ele>
        <time>2020-07-16T06:22:16Z</time>
      </trkpt>
      <trkpt lat="42.070390" lon="-8.396810">
        <ele>49.013</ele>
        <time>2020-07-16T06:22:36Z</time>
      </trkpt>
      <trkpt lat="42.070130" lon="-8.397640">
        <ele>56.643</ele>
        <time>2020-07-16T06:22:56Z</time>
      </trkpt>
      <trkpt lat="42.069130" lon="-8.401400">
        <ele>78.907</ele>
        <time>2020-07-16T06:23:16Z</time>
      </trkpt>
      <trkpt lat="42.068910" lon="-8.402330">
        <ele>82.608</ele>
        <time>2020-07-16T06:23:36Z</time>
      </trkpt>
      <trkpt lat="42.068800" lon="-8.403000">
        <ele>83.326</ele>
        <time>2020-07-16T06:23:56Z</time>
      </trkpt>
      <trkpt lat="42.068690" lon="-8.404360">
        <ele>78.363</ele>
        <time>2020-07-16T06:24:16Z</time>
      </trkpt>
      <trkpt lat="42.068700" lon="-8.405230">
        <ele>79.128</ele>
        <time>2020-07-16T06:24:36Z</time>
      </trkpt>
      <trkpt lat="42.068750" lon="-8.405910">
        <ele>76.486</ele>
        <time>2020-07-16T06:24:56Z</time>
      </trkpt>
      <trkpt lat="42.069000" lon="-8.408070">
        <ele>76.563</ele>
        <time>2020-07-16T06:25:16Z</time>
      </trkpt>
      <trkpt lat="42.069050" lon="-8.408690">
        <ele>71.363</ele>
        <time>2020-07-16T06:25:36Z</time>
      </trkpt>
      <trkpt lat="42.069080" lon="-8.409340">
        <ele>67.463</ele>
        <time>2020-07-16T06:25:56Z</time>
      </trkpt>
      <trkpt lat="42.069030" lon="-8.410300">
        <ele>63.324</ele>
        <time>2020-07-16T06:26:16Z</time>
      </trkpt>
      <trkpt lat="42.068930" lon="-8.411040">
        <ele>57.343</ele>
        <time>2020-07-16T06:26:36Z</time>
      </trkpt>
      <trkpt lat="42.068160" lon="-8.414980">
        <ele>54.264</ele>
        <time>2020-07-16T06:26:56Z</time>
      </trkpt>
      <trkpt lat="42.067990" lon="-8.415920">
        <ele>57.910</ele>
        <time>2020-07-16T06:27:16Z</time>
      </trkpt>
      <trkpt lat="42.067910" lon="-8.416440">
        <ele>55.108</ele>
        <time>2020-07-16T06:27:36Z</time>
      </trkpt>
      <trkpt lat="42.067890" lon="-8.417060">
        <ele>54.479</ele>
        <time>2020-07-16T06:27:56Z</time>
      </trkpt>
      <trkpt lat="42.067960" lon="-8.417720">
        <ele>53.326</ele>
        <time>2020-07-16T06:28:16Z</time>
      </trkpt>
      <trkpt lat="42.068040" lon="-8.418090">
        <ele>54.121</ele>
        <time>2020-07-16T06:28:36Z</time>
      </trkpt>
      <trkpt lat="42.068320" lon="-8.419210">
        <ele>57.189</ele>
        <time>2020-07-16T06:28:56Z</time>
      </trkpt>
      <trkpt lat="42.068380" lon="-8.419320">
        <ele>57.236</ele>
        <time>2020-07-16T06:29:16Z</time>
      </trkpt>
      <trkpt lat="42.068750" lon="-8.420640">
        <ele>54.036</ele>
        <time>2020-07-16T06:29:36Z</time>
      </trkpt>
      <trkpt lat="42.069080" lon="-8.422030">
        <ele>53.996</ele>
        <time>2020-07-16T06:29:56Z</time>
      </trkpt>
      <trkpt lat="42.069200" lon="-8.422980">
        <ele>45.287</ele>
        <time>2020-07-16T06:30:16Z</time>
      </trkpt>
      <trkpt lat="42.069220" lon="-8.423500">
        <ele>46.288</ele>
        <time>2020-07-16T06:30:36Z</time>
      </trkpt>
      <trkpt lat="42.069170" lon="-8.424270">
        <ele>45.324</ele>
        <time>2020-07-16T06:30:56Z</time>
      </trkpt>
      <trkpt lat="42.069080" lon="-8.424800">
        <ele>48.626</ele>
        <time>2020-07-16T06:31:16Z</time>
      </trkpt>
      <trkpt lat="42.068980" lon="-8.425190">
        <ele>50.408</ele>
        <time>2020-07-16T06:31:36Z</time>
      </trkpt>
      <trkpt lat="42.068850" lon="-8.425610">
        <ele>51.783</ele>
        <time>2020-07-16T06:31:56Z</time>
      </trkpt>
      <trkpt lat="42.068590" lon="-8.426260">
        <ele>49.830</ele>
        <time>2020-07-16T06:32:16Z</time>
      </trkpt>
      <trkpt lat="42.065280" lon="-8.433260">
        <ele>68.795</ele>
        <time>2020-07-16T06:32:36Z</time>
      </trkpt>
      <trkpt lat="42.065010" lon="-8.434040">
        <ele>68.513</ele>
        <time>2020-07-16T06:32:56Z</time>
      </trkpt>
      <trkpt lat="42.064890" lon="-8.434450">
        <ele>68.470</ele>
        <time>2020-07-16T06:33:16Z</time>
      </trkpt>
      <trkpt lat="42.064830" lon="-8.434720">
        <ele>68.640</ele>
        <time>2020-07-16T06:33:36Z</time>
      </trkpt>
      <trkpt lat="42.064780" lon="-8.435080">
        <ele>69.590</ele>
        <time>2020-07-16T06:33:56Z</time>
      </trkpt>
      <trkpt lat="42.064760" lon="-8.435360">
        <ele>70.771</ele>
        <time>2020-07-16T06:34:16Z</time>
      </trkpt>
      <trkpt lat="42.064790" lon="-8.435810">
        <ele>73.176</ele>
        <time>2020-07-16T06:34:36Z</time>
      </trkpt>
      <trkpt lat="42.064920" lon="-8.436570">
        <ele>73.890</ele>
        <time>2020-07-16T06:34:56Z</time>
      </trkpt>
      <trkpt lat="42.065300" lon="-8.437410">
        <ele>70.919</ele>
        <time>2020-07-16T06:35:16Z</time>
      </trkpt>
      <trkpt lat="42.066990" lon="-8.440460">
        <ele>44.408</ele>
        <time>2020-07-16T06:35:36Z</time>
      </trkpt>
      <trkpt lat="42.067290" lon="-8.441160">
        <ele>44.472</ele>
        <time>2020-07-16T06:35:56Z</time>
      </trkpt>
      <trkpt lat="42.067480" lon="-8.441750">
        <ele>48.069</ele>
        <time>2020-07-16T06:36:16Z</time>
      </trkpt>
      <trkpt lat="42.067560" lon="-8.442100">
        <ele>51.874</ele>
        <time>2020-07-16T06:36:36Z</time>
      </trkpt>
      <trkpt lat="42.067640" lon="-8.442580">
        <ele>55.612</ele>
        <time>2020-07-16T06:36:56Z</time>
      </trkpt>
      <trkpt lat="42.067660" lon="-8.443010">
        <ele>55.679</ele>
        <time>2020-07-16T06:37:16Z</time>
      </trkpt>
      <trkpt lat="42.067650" lon="-8.443520">
        <ele>56.239</ele>
        <time>2020-07-16T06:37:36Z</time>
      </trkpt>
      <trkpt lat="42.067540" lon="-8.444450">
        <ele>63.079</ele>
        <time>2020-07-16T06:37:56Z</time>
      </trkpt>
      <trkpt lat="42.067080" lon="-8.447320">
        <ele>73.130</ele>
        <time>2020-07-16T06:38:16Z</time>
      </trkpt>
      <trkpt lat="42.066970" lon="-8.448350">
        <ele>76.148</ele>
        <time>2020-07-16T06:38:36Z</time>
      </trkpt>
      <trkpt lat="42.066950" lon="-8.449220">
        <ele>77.061</ele>
        <time>2020-07-16T06:38:56Z</time>
      </trkpt>
      <trkpt lat="42.066930" lon="-8.449360">
        <ele>77.217</ele>
        <time>2020-07-16T06:39:16Z</time>
      </trkpt>
      <trkpt lat="42.067000" lon="-8.449830">
        <ele>77.008</ele>
        <time>2020-07-16T06:39:36Z</time>
      </trkpt>
      <trkpt lat="42.067160" lon="-8.450380">
        <ele>77.189</ele>
        <time>2020-07-16T06:39:56Z</time>
      </trkpt>
      <trkpt lat="42.067390" lon="-8.450890">
        <ele>76.786</ele>
        <time>2020-07-16T06:40:16Z</time>
      </trkpt>
      <trkpt lat="42.067600" lon="-8.451230">
        <ele>76.611</ele>
        <time>2020-07-16T06:40:36Z</time>
      </trkpt>
      <trkpt lat="42.067720" lon="-8.451390">
        <ele>76.049</ele>
        <time>2020-07-16T06:40:56Z</time>
      </trkpt>
      <trkpt lat="42.068000" lon="-8.451700">
        <ele>73.826</ele>
        <time>2020-07-16T06:41:16Z</time>
      </trkpt>
      <trkpt lat="42.068310" lon="-8.451970">
        <ele>71.276</ele>
        <time>2020-07-16T06:41:36Z</time>
      </trkpt>
      <trkpt lat="42.069600" lon="-8.452840">
        <ele>64.776</ele>
        <time>2020-07-16T06:41:56Z</time>
      </trkpt>
      <trkpt lat="42.069800" lon="-8.453010">
        <ele>64.697</ele>
        <time>2020-07-16T06:42:16Z</time>
      </trkpt>
      <trkpt lat="42.070030" lon="-8.453230">
        <ele>64.888</ele>
        <time>2020-07-16T06:42:36Z</time>
      </trkpt>
      <trkpt lat="42.070260" lon="-8.453530">
        <ele>67.624</ele>
        <time>2020-07-16T06:42:56Z</time>
      </trkpt>
      <trkpt lat="42.070450" lon="-8.453840">
        <ele>69.226</ele>
        <time>2020-07-16T06:43:16Z</time>
      </trkpt>
      <trkpt lat="42.070630" lon="-8.454220">
        <ele>68.608</ele>
        <time>2020-07-16T06:43:36Z</time>
      </trkpt>
      <trkpt lat="42.070850" lon="-8.454800">
        <ele>64.553</ele>
        <time>2020-07-16T06:43:56Z</time>
      </trkpt>
      <trkpt lat="42.071440" lon="-8.456670">
        <ele>60.620</ele>
        <time>2020-07-16T06:44:16Z</time>
      </trkpt>
      <trkpt lat="42.071500" lon="-8.456990">
        <ele>61.295</ele>
        <time>2020-07-16T06:44:36Z</time>
      </trkpt>
      <trkpt lat="42.071550" lon="-8.457470">
        <ele>60.843</ele>
        <time>2020-07-16T06:44:56Z</time>
      </trkpt>
      <trkpt lat="42.071540" lon="-8.457990">
        <ele>63.810</ele>
        <time>2020-07-16T06:45:16Z</time>
      </trkpt>
      <trkpt lat="42.071470" lon="-8.458430">
        <ele>66.630</ele>
        <time>2020-07-16T06:45:36Z</time>
      </trkpt>
      <trkpt lat="42.071330" lon="-8.458990">
        <ele>68.330</ele>
        <time>2020-07-16T06:45:56Z</time>
      </trkpt>
      <trkpt lat="42.070990" lon="-8.459940">
        <ele>68.481</ele>
        <time>2020-07-16T06:46:16Z</time>
      </trkpt>
      <trkpt lat="42.070660" lon="-8.460930">
        <ele>68.364</ele>
        <time>2020-07-16T06:46:36Z</time>
      </trkpt>
      <trkpt lat="42.070560" lon="-8.461440">
        <ele>65.806</ele>
        <time>2020-07-16T06:46:56Z</time>
      </trkpt>
      <trkpt lat="42.070520" lon="-8.461750">
        <ele>64.716</ele>
        <time>2020-07-16T06:47:16Z</time>
      </trkpt>
      <trkpt lat="42.070510" lon="-8.462120">
        <ele>63.308</ele>
        <time>2020-07-16T06:47:36Z</time>
      </trkpt>
      <trkpt lat="42.070540" lon="-8.462640">
        <ele>60.961</ele>
        <time>2020-07-16T06:47:56Z</time>
      </trkpt>
      <trkpt lat="42.070650" lon="-8.463680">
        <ele>58.158</ele>
        <time>2020-07-16T06:48:16Z</time>
      </trkpt>
      <trkpt lat="42.070670" lon="-8.464520">
        <ele>64.943</ele>
        <time>2020-07-16T06:48:36Z</time>
      </trkpt>
      <trkpt lat="42.070640" lon="-8.464780">
        <ele>65.811</ele>
        <time>2020-07-16T06:48:56Z</time>
      </trkpt>
      <trkpt lat="42.070540" lon="-8.465270">
        <ele>67.338</ele>
        <time>2020-07-16T06:49:16Z</time>
      </trkpt>
      <trkpt lat="42.070430" lon="-8.465590">
        <ele>70.218</ele>
        <time>2020-07-16T06:49:36Z</time>
      </trkpt>
      <trkpt lat="42.070290" lon="-8.465910">
        <ele>72.848</ele>
        <time>2020-07-16T06:49:56Z</time>
      </trkpt>
      <trkpt lat="42.070130" lon="-8.466220">
        <ele>72.729</ele>
        <time>2020-07-16T06:50:16Z</time>
      </trkpt>
      <trkpt lat="42.069840" lon="-8.466700">
        <ele>70.525</ele>
        <time>2020-07-16T06:50:36Z</time>
      </trkpt>
      <trkpt lat="42.069500" lon="-8.467370">
        <ele>69.526</ele>
        <time>2020-07-16T06:50:56Z</time>
      </trkpt>
      <trkpt lat="42.069110" lon="-8.468180">
        <ele>66.108</ele>
        <time>2020-07-16T06:51:16Z</time>
      </trkpt>
      <trkpt lat="42.068920" lon="-8.468620">
        <ele>66.708</ele>
        <time>2020-07-16T06:51:36Z</time>
      </trkpt>
      <trkpt lat="42.068780" lon="-8.469030">
        <ele>63.917</ele>
        <time>2020-07-16T06:51:56Z</time>
      </trkpt>
      <trkpt lat="42.068610" lon="-8.469720">
        <ele>59.044</ele>
        <time>2020-07-16T06:52:16Z</time>
      </trkpt>
      <trkpt lat="42.068530" lon="-8.470210">
        <ele>56.089</ele>
        <time>2020-07-16T06:52:36Z</time>
      </trkpt>
      <trkpt lat="42.068470" lon="-8.470800">
        <ele>54.667</ele>
        <time>2020-07-16T06:52:56Z</time>
      </trkpt>
      <trkpt lat="42.068450" lon="-8.471740">
        <ele>58.984</ele>
        <time>2020-07-16T06:53:16Z</time>
      </trkpt>
      <trkpt lat="42.068520" lon="-8.474580">
        <ele>72.014</ele>
        <time>2020-07-16T06:53:36Z</time>
      </trkpt>
      <trkpt lat="42.068710" lon="-8.479350">
        <ele>82.114</ele>
        <time>2020-07-16T06:53:56Z</time>
      </trkpt>
      <trkpt lat="42.068680" lon="-8.480400">
        <ele>73.925</ele>
        <time>2020-07-16T06:54:16Z</time>
      </trkpt>
      <trkpt lat="42.068460" lon="-8.483190">
        <ele>67.537</ele>
        <time>2020-07-16T06:54:36Z</time>
      </trkpt>
      <trkpt lat="42.068330" lon="-8.484700">
        <ele>71.949</ele>
        <time>2020-07-16T06:54:56Z</time>
      </trkpt>
      <trkpt lat="42.068260" lon="-8.485730">
        <ele>72.613</ele>
        <time>2020-07-16T06:55:16Z</time>
      </trkpt>
      <trkpt lat="42.068250" lon="-8.486370">
        <ele>73.008</ele>
        <time>2020-07-16T06:55:36Z</time>
      </trkpt>
      <trkpt lat="42.068210" lon="-8.487250">
        <ele>68.288</ele>
        <time>2020-07-16T06:55:56Z</time>
      </trkpt>
      <trkpt lat="42.068250" lon="-8.487330">
        <ele>67.495</ele>
        <time>2020-07-16T06:56:16Z</time>
      </trkpt>
      <trkpt lat="42.068260" lon="-8.487420">
        <ele>66.570</ele>
        <time>2020-07-16T06:56:36Z</time>
      </trkpt>
      <trkpt lat="42.068220" lon="-8.487530">
        <ele>66.278</ele>
        <time>2020-07-16T06:56:56Z</time>
      </trkpt>
      <trkpt lat="42.068150" lon="-8.487850">
        <ele>67.115</ele>
        <time>2020-07-16T06:57:16Z</time>
      </trkpt>
      <trkpt lat="42.068020" lon="-8.489060">
        <ele>70.585</ele>
        <time>2020-07-16T06:57:36Z</time>
      </trkpt>
      <trkpt lat="42.067980" lon="-8.489250">
        <ele>70.315</ele>
        <time>2020-07-16T06:57:56Z</time>
      </trkpt>
      <trkpt lat="42.067640" lon="-8.493630">
        <ele>78.486</ele>
        <time>2020-07-16T06:58:16Z</time>
      </trkpt>
      <trkpt lat="42.067530" lon="-8.495320">
        <ele>70.047</ele>
        <time>2020-07-16T06:58:36Z</time>
      </trkpt>
      <trkpt lat="42.067600" lon="-8.495340">
        <ele>69.929</ele>
        <time>2020-07-16T06:58:56Z</time>
      </trkpt>
      <trkpt lat="42.067660" lon="-8.495400">
        <ele>69.721</ele>
        <time>2020-07-16T06:59:16Z</time>
      </trkpt>
      <trkpt lat="42.067690" lon="-8.495510">
        <ele>69.408</ele>
        <time>2020-07-16T06:59:36Z</time>
      </trkpt>
      <trkpt lat="42.067670" lon="-8.495620">
        <ele>69.419</ele>
        <time>2020-07-16T06:59:56Z</time>
      </trkpt>
      <trkpt lat="42.067620" lon="-8.495700">
        <ele>69.666</ele>
        <time>2020-07-16T07:00:16Z</time>
      </trkpt>
      <trkpt lat="42.067520" lon="-8.495730">
        <ele>69.981</ele>
        <time>2020-07-16T07:00:36Z</time>
      </trkpt>
      <trkpt lat="42.067400" lon="-8.496870">
        <ele>69.619</ele>
        <time>2020-07-16T07:00:56Z</time>
      </trkpt>
      <trkpt lat="42.067120" lon="-8.500240">
        <ele>75.766</ele>
        <time>2020-07-16T07:01:16Z</time>
      </trkpt>
      <trkpt lat="42.067060" lon="-8.500700">
        <ele>74.556</ele>
        <time>2020-07-16T07:01:36Z</time>
      </trkpt>
      <trkpt lat="42.066890" lon="-8.501560">
        <ele>74.326</ele>
        <time>2020-07-16T07:01:56Z</time>
      </trkpt>
      <trkpt lat="42.066810" lon="-8.501860">
        <ele>73.517</ele>
        <time>2020-07-16T07:02:16Z</time>
      </trkpt>
      <trkpt lat="42.066580" lon="-8.502540">
        <ele>71.316</ele>
        <time>2020-07-16T07:02:36Z</time>
      </trkpt>
      <trkpt lat="42.066290" lon="-8.503230">
        <ele>73.776</ele>
        <time>2020-07-16T07:02:56Z</time>
      </trkpt>
      <trkpt lat="42.066110" lon="-8.503600">
        <ele>73.113</ele>
        <time>2020-07-16T07:03:16Z</time>
      </trkpt>
      <trkpt lat="42.066090" lon="-8.503700">
        <ele>72.708</ele>
        <time>2020-07-16T07:03:36Z</time>
      </trkpt>
      <trkpt lat="42.065970" lon="-8.504000">
        <ele>70.726</ele>
        <time>2020-07-16T07:03:56Z</time>
      </trkpt>
      <trkpt lat="42.065960" lon="-8.504130">
        <ele>69.733</ele>
        <time>2020-07-16T07:04:16Z</time>
      </trkpt>
      <trkpt lat="42.065910" lon="-8.504200">
        <ele>69.088</ele>
        <time>2020-07-16T07:04:36Z</time>
      </trkpt>
      <trkpt lat="42.065850" lon="-8.504230">
        <ele>68.686</ele>
        <time>2020-07-16T07:04:56Z</time>
      </trkpt>
      <trkpt lat="42.065810" lon="-8.504230">
        <ele>68.593</ele>
        <time>2020-07-16T07:05:16Z</time>
      </trkpt>
      <trkpt lat="42.065670" lon="-8.504360">
        <ele>67.683</ele>
        <time>2020-07-16T07:05:36Z</time>
      </trkpt>
      <trkpt lat="42.061880" lon="-8.509940">
        <ele>61.623</ele>
        <time>2020-07-16T07:05:56Z</time>
      </trkpt>
      <trkpt lat="42.061730" lon="-8.510190">
        <ele>63.294</ele>
        <time>2020-07-16T07:06:16Z</time>
      </trkpt>
      <trkpt lat="42.061680" lon="-8.510300">
        <ele>63.923</ele>
        <time>2020-07-16T07:06:36Z</time>
      </trkpt>
      <trkpt lat="42.061660" lon="-8.510410">
        <ele>64.083</ele>
        <time>2020-07-16T07:06:56Z</time>
      </trkpt>
      <trkpt lat="42.061610" lon="-8.510470">
        <ele>63.911</ele>
        <time>2020-07-16T07:07:16Z</time>
      </trkpt>
      <trkpt lat="42.061530" lon="-8.510490">
        <ele>63.908</ele>
        <time>2020-07-16T07:07:36Z</time>
      </trkpt>
      <trkpt lat="42.061350" lon="-8.510700">
        <ele>63.987</ele>
        <time>2020-07-16T07:07:56Z</time>
      </trkpt>
      <trkpt lat="42.060810" lon="-8.511480">
        <ele>66.044</ele>
        <time>2020-07-16T07:08:16Z</time>
      </trkpt>
      <trkpt lat="42.060670" lon="-8.511740">
        <ele>66.449</ele>
        <time>2020-07-16T07:08:36Z</time>
      </trkpt>
      <trkpt lat="42.060490" lon="-8.512170">
        <ele>68.017</ele>
        <time>2020-07-16T07:08:56Z</time>
      </trkpt>
      <trkpt lat="42.060340" lon="-8.512660">
        <ele>69.474</ele>
        <time>2020-07-16T07:09:16Z</time>
      </trkpt>
      <trkpt lat="42.060250" lon="-8.513080">
        <ele>71.974</ele>
        <time>2020-07-16T07:09:36Z</time>
      </trkpt>
      <trkpt lat="42.060210" lon="-8.513790">
        <ele>76.974</ele>
        <time>2020-07-16T07:09:56Z</time>
      </trkpt>
      <trkpt lat="42.060220" lon="-8.514140">
        <ele>76.825</ele>
        <time>2020-07-16T07:10:16Z</time>
      </trkpt>
      <trkpt lat="42.060270" lon="-8.514640">
        <ele>74.561</ele>
        <time>2020-07-16T07:10:36Z</time>
      </trkpt>
      <trkpt lat="42.060470" lon="-8.515690">
        <ele>71.421</ele>
        <time>2020-07-16T07:10:56Z</time>
      </trkpt>
      <trkpt lat="42.061760" lon="-8.521870">
        <ele>48.313</ele>
        <time>2020-07-16T07:11:16Z</time>
      </trkpt>
      <trkpt lat="42.061820" lon="-8.522250">
        <ele>48.008</ele>
        <time>2020-07-16T07:11:36Z</time>
      </trkpt>
      <trkpt lat="42.061850" lon="-8.522580">
        <ele>48.831</ele>
        <time>2020-07-16T07:11:56Z</time>
      </trkpt>
      <trkpt lat="42.061850" lon="-8.522880">
        <ele>50.468</ele>
        <time>2020-07-16T07:12:16Z</time>
      </trkpt>
      <trkpt lat="42.061770" lon="-8.523500">
        <ele>50.023</ele>
        <time>2020-07-16T07:12:36Z</time>
      </trkpt>
      <trkpt lat="42.061710" lon="-8.523790">
        <ele>47.921</ele>
        <time>2020-07-16T07:12:56Z</time>
      </trkpt>
      <trkpt lat="42.061600" lon="-8.524080">
        <ele>44.938</ele>
        <time>2020-07-16T07:13:16Z</time>
      </trkpt>
      <trkpt lat="42.061480" lon="-8.524350">
        <ele>42.688</ele>
        <time>2020-07-16T07:13:36Z</time>
      </trkpt>
      <trkpt lat="42.061360" lon="-8.524540">
        <ele>41.228</ele>
        <time>2020-07-16T07:13:56Z</time>
      </trkpt>
      <trkpt lat="42.061210" lon="-8.524780">
        <ele>39.769</ele>
        <time>2020-07-16T07:14:16Z</time>
      </trkpt>
      <trkpt lat="42.060930" lon="-8.525150">
        <ele>38.249</ele>
        <time>2020-07-16T07:14:36Z</time>
      </trkpt>
      <trkpt lat="42.059920" lon="-8.526390">
        <ele>31.602</ele>
        <time>2020-07-16T07:14:56Z</time>
      </trkpt>
      <trkpt lat="42.057830" lon="-8.529090">
        <ele>52.222</ele>
        <time>2020-07-16T07:15:16Z</time>
      </trkpt>
      <trkpt lat="42.057590" lon="-8.529460">
        <ele>47.808</ele>
        <time>2020-07-16T07:15:36Z</time>
      </trkpt>
      <trkpt lat="42.056790" lon="-8.530550">
        <ele>48.749</ele>
        <time>2020-07-16T07:15:56Z</time>
      </trkpt>
      <trkpt lat="42.056060" lon="-8.531400">
        <ele>47.266</ele>
        <time>2020-07-16T07:16:16Z</time>
      </trkpt>
      <trkpt lat="42.055920" lon="-8.531510">
        <ele>46.071</ele>
        <time>2020-07-16T07:16:36Z</time>
      </trkpt>
      <trkpt lat="42.054530" lon="-8.533210">
        <ele>36.139</ele>
        <time>2020-07-16T07:16:56Z</time>
      </trkpt>
      <trkpt lat="42.053480" lon="-8.534590">
        <ele>42.356</ele>
        <time>2020-07-16T07:17:16Z</time>
      </trkpt>
      <trkpt lat="42.053130" lon="-8.535010">
        <ele>44.546</ele>
        <time>2020-07-16T07:17:36Z</time>
      </trkpt>
      <trkpt lat="42.052880" lon="-8.535240">
        <ele>46.136</ele>
        <time>2020-07-16T07:17:56Z</time>
      </trkpt>
      <trkpt lat="42.052670" lon="-8.535390">
        <ele>46.257</ele>
        <time>2020-07-16T07:18:16Z</time>
      </trkpt>
      <trkpt lat="42.052280" lon="-8.535580">
        <ele>44.898</ele>
        <time>2020-07-16T07:18:36Z</time>
      </trkpt>
      <trkpt lat="42.051970" lon="-8.535660">
        <ele>42.115</ele>
        <time>2020-07-16T07:18:56Z</time>
      </trkpt>
      <trkpt lat="42.051700" lon="-8.535660">
        <ele>39.226</ele>
        <time>2020-07-16T07:19:16Z</time>
      </trkpt>
      <trkpt lat="42.050330" lon="-8.535530">
        <ele>43.508</ele>
        <time>2020-07-16T07:19:36Z</time>
      </trkpt>
      <trkpt lat="42.049930" lon="-8.535550">
        <ele>41.694</ele>
        <time>2020-07-16T07:19:56Z</time>
      </trkpt>
      <trkpt lat="42.049600" lon="-8.535630">
        <ele>34.731</ele>
        <time>2020-07-16T07:20:16Z</time>
      </trkpt>
      <trkpt lat="42.049390" lon="-8.535730">
        <ele>32.116</ele>
        <time>2020-07-16T07:20:36Z</time>
      </trkpt>
      <trkpt lat="42.049210" lon="-8.535850">
        <ele>31.754</ele>
        <time>2020-07-16T07:20:56Z</time>
      </trkpt>
      <trkpt lat="42.048910" lon="-8.536110">
        <ele>31.871</ele>
        <time>2020-07-16T07:21:16Z</time>
      </trkpt>
      <trkpt lat="42.048650" lon="-8.536410">
        <ele>31.251</ele>
        <time>2020-07-16T07:21:36Z</time>
      </trkpt>
      <trkpt lat="42.048420" lon="-8.536820">
        <ele>32.251</ele>
        <time>2020-07-16T07:21:56Z</time>
      </trkpt>
      <trkpt lat="42.048270" lon="-8.537190">
        <ele>34.582</ele>
        <time>2020-07-16T07:22:16Z</time>
      </trkpt>
      <trkpt lat="42.048180" lon="-8.537550">
        <ele>39.057</ele>
        <time>2020-07-16T07:22:36Z</time>
      </trkpt>
      <trkpt lat="42.048110" lon="-8.537930">
        <ele>42.400</ele>
        <time>2020-07-16T07:22:56Z</time>
      </trkpt>
      <trkpt lat="42.047510" lon="-8.543490">
        <ele>56.420</ele>
        <time>2020-07-16T07:23:16Z</time>
      </trkpt>
      <trkpt lat="42.047510" lon="-8.543880">
        <ele>56.608</ele>
        <time>2020-07-16T07:23:36Z</time>
      </trkpt>
      <trkpt lat="42.047540" lon="-8.544230">
        <ele>55.260</ele>
        <time>2020-07-16T07:23:56Z</time>
      </trkpt>
      <trkpt lat="42.047600" lon="-8.544660">
        <ele>52.957</ele>
        <time>2020-07-16T07:24:16Z</time>
      </trkpt>
      <trkpt lat="42.048010" lon="-8.546710">
        <ele>53.332</ele>
        <time>2020-07-16T07:24:36Z</time>
      </trkpt>
      <trkpt lat="42.048080" lon="-8.547390">
        <ele>49.030</ele>
        <time>2020-07-16T07:24:56Z</time>
      </trkpt>
      <trkpt lat="42.048240" lon="-8.550990">
        <ele>32.947</ele>
        <time>2020-07-16T07:25:16Z</time>
      </trkpt>
      <trkpt lat="42.048230" lon="-8.551760">
        <ele>36.767</ele>
        <time>2020-07-16T07:25:36Z</time>
      </trkpt>
      <trkpt lat="42.048140" lon="-8.552440">
        <ele>35.567</ele>
        <time>2020-07-16T07:25:56Z</time>
      </trkpt>
      <trkpt lat="42.047970" lon="-8.553480">
        <ele>28.638</ele>
        <time>2020-07-16T07:26:16Z</time>
      </trkpt>
      <trkpt lat="42.047910" lon="-8.554000">
        <ele>29.945</ele>
        <time>2020-07-16T07:26:36Z</time>
      </trkpt>
      <trkpt lat="42.047890" lon="-8.554450">
        <ele>29.547</ele>
        <time>2020-07-16T07:26:56Z</time>
      </trkpt>
      <trkpt lat="42.047930" lon="-8.554940">
        <ele>27.311</ele>
        <time>2020-07-16T07:27:16Z</time>
      </trkpt>
      <trkpt lat="42.048110" lon="-8.556340">
        <ele>27.808</ele>
        <time>2020-07-16T07:27:36Z</time>
      </trkpt>
      <trkpt lat="42.048160" lon="-8.556950">
        <ele>29.159</ele>
        <time>2020-07-16T07:27:56Z</time>
      </trkpt>
      <trkpt lat="42.048140" lon="-8.557500">
        <ele>25.146</ele>
        <time>2020-07-16T07:28:16Z</time>
      </trkpt>
      <trkpt lat="42.048040" lon="-8.558030">
        <ele>23.391</ele>
        <time>2020-07-16T07:28:36Z</time>
      </trkpt>
      <trkpt lat="42.047950" lon="-8.558290">
        <ele>25.129</ele>
        <time>2020-07-16T07:28:56Z</time>
      </trkpt>
      <trkpt lat="42.047750" lon="-8.558740">
        <ele>24.296</ele>
        <time>2020-07-16T07:29:16Z</time>
      </trkpt>
      <trkpt lat="42.047540" lon="-8.559070">
        <ele>23.596</ele>
        <time>2020-07-16T07:29:36Z</time>
      </trkpt>
      <trkpt lat="42.047200" lon="-8.559520">
        <ele>23.796</ele>
        <time>2020-07-16T07:29:56Z</time>
      </trkpt>
      <trkpt lat="42.046180" lon="-8.560750">
        <ele>29.217</ele>
        <time>2020-07-16T07:30:16Z</time>
      </trkpt>
      <trkpt lat="42.045820" lon="-8.561120">
        <ele>30.096</ele>
        <time>2020-07-16T07:30:36Z</time>
      </trkpt>
      <trkpt lat="42.045550" lon="-8.561300">
        <ele>30.131</ele>
        <time>2020-07-16T07:30:56Z</time>
      </trkpt>
      <trkpt lat="42.045220" lon="-8.561450">
        <ele>34.624</ele>
        <time>2020-07-16T07:31:16Z</time>
      </trkpt>
      <trkpt lat="42.044970" lon="-8.561510">
        <ele>43.008</ele>
        <time>2020-07-16T07:31:36Z</time>
      </trkpt>
      <trkpt lat="42.044340" lon="-8.561460">
        <ele>42.374</ele>
        <time>2020-07-16T07:31:56Z</time>
      </trkpt>
      <trkpt lat="42.043460" lon="-8.561360">
        <ele>43.321</ele>
        <time>2020-07-16T07:32:16Z</time>
      </trkpt>
      <trkpt lat="42.043100" lon="-8.561390">
        <ele>46.586</ele>
        <time>2020-07-16T07:32:36Z</time>
      </trkpt>
      <trkpt lat="42.042650" lon="-8.561500">
        <ele>54.094</ele>
        <time>2020-07-16T07:32:56Z</time>
      </trkpt>
      <trkpt lat="42.042400" lon="-8.561630">
        <ele>56.831</ele>
        <time>2020-07-16T07:33:16Z</time>
      </trkpt>
      <trkpt lat="42.042210" lon="-8.561760">
        <ele>59.791</ele>
        <time>2020-07-16T07:33:36Z</time>
      </trkpt>
      <trkpt lat="42.041960" lon="-8.561990">
        <ele>63.371</ele>
        <time>2020-07-16T07:33:56Z</time>
      </trkpt>
      <trkpt lat="42.041800" lon="-8.562190">
        <ele>64.522</ele>
        <time>2020-07-16T07:34:16Z</time>
      </trkpt>
      <trkpt lat="42.041460" lon="-8.562720">
        <ele>64.735</ele>
        <time>2020-07-16T07:34:36Z</time>
      </trkpt>
      <trkpt lat="42.041420" lon="-8.562830">
        <ele>64.986</ele>
        <time>2020-07-16T07:34:56Z</time>
      </trkpt>
      <trkpt lat="42.040750" lon="-8.564130">
        <ele>70.014</ele>
        <time>2020-07-16T07:35:16Z</time>
      </trkpt>
      <trkpt lat="42.040580" lon="-8.564500">
        <ele>69.908</ele>
        <time>2020-07-16T07:35:36Z</time>
      </trkpt>
      <trkpt lat="42.040370" lon="-8.565290">
        <ele>68.728</ele>
        <time>2020-07-16T07:35:56Z</time>
      </trkpt>
      <trkpt lat="42.040330" lon="-8.565560">
        <ele>69.825</ele>
        <time>2020-07-16T07:36:16Z</time>
      </trkpt>
      <trkpt lat="42.040310" lon="-8.565950">
        <ele>71.250</ele>
        <time>2020-07-16T07:36:36Z</time>
      </trkpt>
      <trkpt lat="42.040340" lon="-8.566290">
        <ele>72.238</ele>
        <time>2020-07-16T07:36:56Z</time>
      </trkpt>
      <trkpt lat="42.040400" lon="-8.566630">
        <ele>73.155</ele>
        <time>2020-07-16T07:37:16Z</time>
      </trkpt>
      <trkpt lat="42.040490" lon="-8.566930">
        <ele>72.925</ele>
        <time>2020-07-16T07:37:36Z</time>
      </trkpt>
      <trkpt lat="42.040800" lon="-8.567710">
        <ele>72.695</ele>
        <time>2020-07-16T07:37:56Z</time>
      </trkpt>
      <trkpt lat="42.041120" lon="-8.568430">
        <ele>74.976</ele>
        <time>2020-07-16T07:38:16Z</time>
      </trkpt>
      <trkpt lat="42.041340" lon="-8.568990">
        <ele>74.735</ele>
        <time>2020-07-16T07:38:36Z</time>
      </trkpt>
      <trkpt lat="42.041510" lon="-8.569610">
        <ele>72.486</ele>
        <time>2020-07-16T07:38:56Z</time>
      </trkpt>
      <trkpt lat="42.041560" lon="-8.569960">
        <ele>71.414</ele>
        <time>2020-07-16T07:39:16Z</time>
      </trkpt>
      <trkpt lat="42.041580" lon="-8.570250">
        <ele>70.708</ele>
        <time>2020-07-16T07:39:36Z</time>
      </trkpt>
      <trkpt lat="42.041530" lon="-8.572390">
        <ele>65.338</ele>
        <time>2020-07-16T07:39:56Z</time>
      </trkpt>
      <trkpt lat="42.041500" lon="-8.573900">
        <ele>61.515</ele>
        <time>2020-07-16T07:40:16Z</time>
      </trkpt>
      <trkpt lat="42.041520" lon="-8.574230">
        <ele>58.570</ele>
        <time>2020-07-16T07:40:36Z</time>
      </trkpt>
      <trkpt lat="42.041580" lon="-8.574590">
        <ele>56.788</ele>
        <time>2020-07-16T07:40:56Z</time>
      </trkpt>
      <trkpt lat="42.041700" lon="-8.575080">
        <ele>55.665</ele>
        <time>2020-07-16T07:41:16Z</time>
      </trkpt>
      <trkpt lat="42.041860" lon="-8.575500">
        <ele>52.075</ele>
        <time>2020-07-16T07:41:36Z</time>
      </trkpt>
      <trkpt lat="42.042100" lon="-8.575880">
        <ele>47.755</ele>
        <time>2020-07-16T07:41:56Z</time>
      </trkpt>
      <trkpt lat="42.042560" lon="-8.576460">
        <ele>43.736</ele>
        <time>2020-07-16T07:42:16Z</time>
      </trkpt>
      <trkpt lat="42.043060" lon="-8.577070">
        <ele>40.128</ele>
        <time>2020-07-16T07:42:36Z</time>
      </trkpt>
      <trkpt lat="42.043960" lon="-8.578090">
        <ele>37.689</ele>
        <time>2020-07-16T07:42:56Z</time>
      </trkpt>
      <trkpt lat="42.044000" lon="-8.578170">
        <ele>38.017</ele>
        <time>2020-07-16T07:43:16Z</time>
      </trkpt>
      <trkpt lat="42.044390" lon="-8.578640">
        <ele>37.708</ele>
        <time>2020-07-16T07:43:36Z</time>
      </trkpt>
      <trkpt lat="42.044560" lon="-8.578920">
        <ele>37.757</ele>
        <time>2020-07-16T07:43:56Z</time>
      </trkpt>
      <trkpt lat="42.044710" lon="-8.579290">
        <ele>37.624</ele>
        <time>2020-07-16T07:44:16Z</time>
      </trkpt>
      <trkpt lat="42.044850" lon="-8.579840">
        <ele>36.079</ele>
        <time>2020-07-16T07:44:36Z</time>
      </trkpt>
      <trkpt lat="42.044980" lon="-8.580510">
        <ele>33.127</ele>
        <time>2020-07-16T07:44:56Z</time>
      </trkpt>
      <trkpt lat="42.045520" lon="-8.583570">
        <ele>28.154</ele>
        <time>2020-07-16T07:45:16Z</time>
      </trkpt>
      <trkpt lat="42.046650" lon="-8.589670">
        <ele>20.274</ele>
        <time>2020-07-16T07:45:36Z</time>
      </trkpt>
      <trkpt lat="42.048210" lon="-8.598360">
        <ele>18.484</ele>
        <time>2020-07-16T07:45:56Z</time>
      </trkpt>
      <trkpt lat="42.048340" lon="-8.598890">
        <ele>17.025</ele>
        <time>2020-07-16T07:46:16Z</time>
      </trkpt>
      <trkpt lat="42.048430" lon="-8.599160">
        <ele>16.737</ele>
        <time>2020-07-16T07:46:36Z</time>
      </trkpt>
      <trkpt lat="42.048590" lon="-8.599560">
        <ele>16.149</ele>
        <time>2020-07-16T07:46:56Z</time>
      </trkpt>
      <trkpt lat="42.048730" lon="-8.599840">
        <ele>16.413</ele>
        <time>2020-07-16T07:47:16Z</time>
      </trkpt>
      <trkpt lat="42.048870" lon="-8.600100">
        <ele>17.708</ele>
        <time>2020-07-16T07:47:36Z</time>
      </trkpt>
      <trkpt lat="42.049870" lon="-8.601630">
        <ele>17.318</ele>
        <time>2020-07-16T07:47:56Z</time>
      </trkpt>
      <trkpt lat="42.050010" lon="-8.601930">
        <ele>16.975</ele>
        <time>2020-07-16T07:48:16Z</time>
      </trkpt>
      <trkpt lat="42.050140" lon="-8.602310">
        <ele>20.670</ele>
        <time>2020-07-16T07:48:36Z</time>
      </trkpt>
      <trkpt lat="42.050190" lon="-8.602550">
        <ele>22.468</ele>
        <time>2020-07-16T07:48:56Z</time>
      </trkpt>
      <trkpt lat="42.050230" lon="-8.602890">
        <ele>21.925</ele>
        <time>2020-07-16T07:49:16Z</time>
      </trkpt>
      <trkpt lat="42.050230" lon="-8.603300">
        <ele>21.865</ele>
        <time>2020-07-16T07:49:36Z</time>
      </trkpt>
      <trkpt lat="42.050040" lon="-8.605630">
        <ele>21.035</ele>
        <time>2020-07-16T07:49:56Z</time>
      </trkpt>
      <trkpt lat="42.049960" lon="-8.605970">
        <ele>20.726</ele>
        <time>2020-07-16T07:50:16Z</time>
      </trkpt>
      <trkpt lat="42.049320" lon="-8.607730">
        <ele>18.257</ele>
        <time>2020-07-16T07:50:36Z</time>
      </trkpt>
      <trkpt lat="42.049230" lon="-8.608160">
        <ele>17.800</ele>
        <time>2020-07-16T07:50:56Z</time>
      </trkpt>
      <trkpt lat="42.049180" lon="-8.608570">
        <ele>16.220</ele>
        <time>2020-07-16T07:51:16Z</time>
      </trkpt>
      <trkpt lat="42.048960" lon="-8.611540">
        <ele>18.908</ele>
        <time>2020-07-16T07:51:36Z</time>
      </trkpt>
      <trkpt lat="42.048880" lon="-8.612120">
        <ele>19.540</ele>
        <time>2020-07-16T07:51:56Z</time>
      </trkpt>
      <trkpt lat="42.048790" lon="-8.612410">
        <ele>20.217</ele>
        <time>2020-07-16T07:52:16Z</time>
      </trkpt>
      <trkpt lat="42.048660" lon="-8.612680">
        <ele>19.852</ele>
        <time>2020-07-16T07:52:36Z</time>
      </trkpt>
      <trkpt lat="42.048410" lon="-8.613070">
        <ele>19.470</ele>
        <time>2020-07-16T07:52:56Z</time>
      </trkpt>
      <trkpt lat="42.043400" lon="-8.619360">
        <ele>19.597</ele>
        <time>2020-07-16T07:53:16Z</time>
      </trkpt>
      <trkpt lat="42.043010" lon="-8.619920">
        <ele>20.867</ele>
        <time>2020-07-16T07:53:36Z</time>
      </trkpt>
      <trkpt lat="42.042670" lon="-8.620520">
        <ele>21.477</ele>
        <time>2020-07-16T07:53:56Z</time>
      </trkpt>
      <trkpt lat="42.040680" lon="-8.624460">
        <ele>21.648</ele>
        <time>2020-07-16T07:54:16Z</time>
      </trkpt>
      <trkpt lat="42.040550" lon="-8.624670">
        <ele>21.522</ele>
        <time>2020-07-16T07:54:36Z</time>
      </trkpt>
      <trkpt lat="42.040420" lon="-8.624830">
        <ele>22.262</ele>
        <time>2020-07-16T07:54:56Z</time>
      </trkpt>
      <trkpt lat="42.040040" lon="-8.625230">
        <ele>22.208</ele>
        <time>2020-07-16T07:55:16Z</time>
      </trkpt>
      <trkpt lat="42.038260" lon="-8.626860">
        <ele>29.308</ele>
        <time>2020-07-16T07:55:36Z</time>
      </trkpt>
      <trkpt lat="42.037500" lon="-8.627570">
        <ele>38.767</ele>
        <time>2020-07-16T07:55:56Z</time>
      </trkpt>
      <trkpt lat="42.037340" lon="-8.627690">
        <ele>39.194</ele>
        <time>2020-07-16T07:56:16Z</time>
      </trkpt>
      <trkpt lat="42.037110" lon="-8.627780">
        <ele>39.079</ele>
        <time>2020-07-16T07:56:36Z</time>
      </trkpt>
      <trkpt lat="42.036920" lon="-8.627810">
        <ele>39.087</ele>
        <time>2020-07-16T07:56:56Z</time>
      </trkpt>
      <trkpt lat="42.036660" lon="-8.627780">
        <ele>40.044</ele>
        <time>2020-07-16T07:57:16Z</time>
      </trkpt>
      <trkpt lat="42.036490" lon="-8.627720">
        <ele>41.734</ele>
        <time>2020-07-16T07:57:36Z</time>
      </trkpt>
      <trkpt lat="42.036240" lon="-8.627560">
        <ele>44.824</ele>
        <time>2020-07-16T07:57:56Z</time>
      </trkpt>
      <trkpt lat="42.035910" lon="-8.627320">
        <ele>47.855</ele>
        <time>2020-07-16T07:58:16Z</time>
      </trkpt>
      <trkpt lat="42.035670" lon="-8.627240">
        <ele>48.948</ele>
        <time>2020-07-16T07:58:36Z</time>
      </trkpt>
      <trkpt lat="42.035440" lon="-8.627240">
        <ele>49.061</ele>
        <time>2020-07-16T07:58:56Z</time>
      </trkpt>
      <trkpt lat="42.035260" lon="-8.627300">
        <ele>49.117</ele>
        <time>2020-07-16T07:59:16Z</time>
      </trkpt>
      <trkpt lat="42.035080" lon="-8.627420">
        <ele>50.408</ele>
        <time>2020-07-16T07:59:36Z</time>
      </trkpt>
      <trkpt lat="42.034810" lon="-8.627710">
        <ele>51.639</ele>
        <time>2020-07-16T07:59:56Z</time>
      </trkpt>
      <trkpt lat="42.033580" lon="-8.629240">
        <ele>53.266</ele>
        <time>2020-07-16T08:00:16Z</time>
      </trkpt>
      <trkpt lat="42.033460" lon="-8.629360">
        <ele>54.171</ele>
        <time>2020-07-16T08:00:36Z</time>
      </trkpt>
      <trkpt lat="42.033250" lon="-8.629530">
        <ele>54.449</ele>
        <time>2020-07-16T08:00:56Z</time>
      </trkpt>
      <trkpt lat="42.033080" lon="-8.629610">
        <ele>53.526</ele>
        <time>2020-07-16T08:01:16Z</time>
      </trkpt>
      <trkpt lat="42.032780" lon="-8.629720">
        <ele>52.036</ele>
        <time>2020-07-16T08:01:36Z</time>
      </trkpt>
      <trkpt lat="42.032070" lon="-8.629930">
        <ele>51.726</ele>
        <time>2020-07-16T08:01:56Z</time>
      </trkpt>
      <trkpt lat="42.031590" lon="-8.630050">
        <ele>53.177</ele>
        <time>2020-07-16T08:02:16Z</time>
      </trkpt>
      <trkpt lat="42.031390" lon="-8.630120">
        <ele>53.694</ele>
        <time>2020-07-16T08:02:36Z</time>
      </trkpt>
      <trkpt lat="42.031040" lon="-8.630320">
        <ele>53.657</ele>
        <time>2020-07-16T08:02:56Z</time>
      </trkpt>
      <trkpt lat="42.030830" lon="-8.630530">
        <ele>52.122</ele>
        <time>2020-07-16T08:03:16Z</time>
      </trkpt>
      <trkpt lat="42.028740" lon="-8.633020">
        <ele>52.108</ele>
        <time>2020-07-16T08:03:36Z</time>
      </trkpt>
      <trkpt lat="42.028440" lon="-8.633400">
        <ele>51.514</ele>
        <time>2020-07-16T08:03:56Z</time>
      </trkpt>
      <trkpt lat="42.028340" lon="-8.633620">
        <ele>51.011</ele>
        <time>2020-07-16T08:04:16Z</time>
      </trkpt>
      <trkpt lat="42.028250" lon="-8.633930">
        <ele>49.746</ele>
        <time>2020-07-16T08:04:36Z</time>
      </trkpt>
      <trkpt lat="42.027800" lon="-8.636390">
        <ele>47.874</ele>
        <time>2020-07-16T08:04:56Z</time>
      </trkpt>
      <trkpt lat="42.027050" lon="-8.640750">
        <ele>49.951</ele>
        <time>2020-07-16T08:05:16Z</time>
      </trkpt>
      <trkpt lat="42.026920" lon="-8.641670">
        <ele>52.111</ele>
        <time>2020-07-16T08:05:36Z</time>
      </trkpt>
      <trkpt lat="42.026930" lon="-8.641990">
        <ele>51.871</ele>
        <time>2020-07-16T08:05:56Z</time>
      </trkpt>
      <trkpt lat="42.026960" lon="-8.642010">
        <ele>51.792</ele>
        <time>2020-07-16T08:06:16Z</time>
      </trkpt>
      <trkpt lat="42.027000" lon="-8.642080">
        <ele>51.279</ele>
        <time>2020-07-16T08:06:36Z</time>
      </trkpt>
      <trkpt lat="42.027010" lon="-8.642160">
        <ele>50.905</ele>
        <time>2020-07-16T08:06:56Z</time>
      </trkpt>
      <trkpt lat="42.026990" lon="-8.642240">
        <ele>50.925</ele>
        <time>2020-07-16T08:07:16Z</time>
      </trkpt>
      <trkpt lat="42.026940" lon="-8.642300">
        <ele>51.308</ele>
        <time>2020-07-16T08:07:36Z</time>
      </trkpt>
      <trkpt lat="42.026880" lon="-8.642330">
        <ele>51.462</ele>
        <time>2020-07-16T08:07:56Z</time>
      </trkpt>
      <trkpt lat="42.026820" lon="-8.642310">
        <ele>51.599</ele>
        <time>2020-07-16T08:08:16Z</time>
      </trkpt>
      <trkpt lat="42.026770" lon="-8.642260">
        <ele>51.674</ele>
        <time>2020-07-16T08:08:36Z</time>
      </trkpt>
      <trkpt lat="42.026750" lon="-8.642190">
        <ele>51.772</ele>
        <time>2020-07-16T08:08:56Z</time>
      </trkpt>
      <trkpt lat="42.026450" lon="-8.642030">
        <ele>51.029</ele>
        <time>2020-07-16T08:09:16Z</time>
      </trkpt>
      <trkpt lat="42.023470" lon="-8.641050">
        <ele>42.119</ele>
        <time>2020-07-16T08:09:36Z</time>
      </trkpt>
      <trkpt lat="42.022820" lon="-8.640860">
        <ele>39.119</ele>
        <time>2020-07-16T08:09:56Z</time>
      </trkpt>
      <trkpt lat="42.022450" lon="-8.640720">
        <ele>37.020</ele>
        <time>2020-07-16T08:10:16Z</time>
      </trkpt>
      <trkpt lat="42.019980" lon="-8.639880">
        <ele>30.576</ele>
        <time>2020-07-16T08:10:36Z</time>
      </trkpt>
      <trkpt lat="42.019070" lon="-8.639590">
        <ele>31.090</ele>
        <time>2020-07-16T08:10:56Z</time>
      </trkpt>
      <trkpt lat="42.018470" lon="-8.639370">
        <ele>30.919</ele>
        <time>2020-07-16T08:11:16Z</time>
      </trkpt>
      <trkpt lat="42.016040" lon="-8.638600">
        <ele>22.508</ele>
        <time>2020-07-16T08:11:36Z</time>
      </trkpt>
      <trkpt lat="42.015860" lon="-8.638580">
        <ele>21.242</ele>
        <time>2020-07-16T08:11:56Z</time>
      </trkpt>
      <trkpt lat="42.014730" lon="-8.638240">
        <ele>23.079</ele>
        <time>2020-07-16T08:12:16Z</time>
      </trkpt>
      <trkpt lat="42.014510" lon="-8.638120">
        <ele>25.124</ele>
        <time>2020-07-16T08:12:36Z</time>
      </trkpt>
      <trkpt lat="42.012330" lon="-8.637450">
        <ele>23.772</ele>
        <time>2020-07-16T08:12:56Z</time>
      </trkpt>
      <trkpt lat="42.011950" lon="-8.637320">
        <ele>23.799</ele>
        <time>2020-07-16T08:13:16Z</time>
      </trkpt>
      <trkpt lat="42.010360" lon="-8.636840">
        <ele>24.349</ele>
        <time>2020-07-16T08:13:36Z</time>
      </trkpt>
      <trkpt lat="42.009970" lon="-8.636750">
        <ele>22.759</ele>
        <time>2020-07-16T08:13:56Z</time>
      </trkpt>
      <trkpt lat="42.009230" lon="-8.636690">
        <ele>23.870</ele>
        <time>2020-07-16T08:14:16Z</time>
      </trkpt>
      <trkpt lat="42.008650" lon="-8.636690">
        <ele>24.673</ele>
        <time>2020-07-16T08:14:36Z</time>
      </trkpt>
      <trkpt lat="42.007870" lon="-8.636780">
        <ele>24.685</ele>
        <time>2020-07-16T08:14:56Z</time>
      </trkpt>
      <trkpt lat="42.007790" lon="-8.636750">
        <ele>24.713</ele>
        <time>2020-07-16T08:15:16Z</time>
      </trkpt>
      <trkpt lat="42.003650" lon="-8.637440">
        <ele>23.008</ele>
        <time>2020-07-16T08:15:36Z</time>
      </trkpt>
      <trkpt lat="42.003620" lon="-8.637540">
        <ele>23.042</ele>
        <time>2020-07-16T08:15:56Z</time>
      </trkpt>
      <trkpt lat="42.003560" lon="-8.637570">
        <ele>22.869</ele>
        <time>2020-07-16T08:16:16Z</time>
      </trkpt>
      <trkpt lat="42.003490" lon="-8.637550">
        <ele>22.674</ele>
        <time>2020-07-16T08:16:36Z</time>
      </trkpt>
      <trkpt lat="42.003460" lon="-8.637480">
        <ele>22.552</ele>
        <time>2020-07-16T08:16:56Z</time>
      </trkpt>
      <trkpt lat="42.002410" lon="-8.637650">
        <ele>22.549</ele>
        <time>2020-07-16T08:17:16Z</time>
      </trkpt>
      <trkpt lat="42.001660" lon="-8.637800">
        <ele>22.979</ele>
        <time>2020-07-16T08:17:36Z</time>
      </trkpt>
      <trkpt lat="42.001350" lon="-8.637890">
        <ele>20.989</ele>
        <time>2020-07-16T08:17:56Z</time>
      </trkpt>
      <trkpt lat="42.001050" lon="-8.638000">
        <ele>20.060</ele>
        <time>2020-07-16T08:18:16Z</time>
      </trkpt>
      <trkpt lat="42.000580" lon="-8.638220">
        <ele>19.923</ele>
        <time>2020-07-16T08:18:36Z</time>
      </trkpt>
      <trkpt lat="41.999080" lon="-8.639070">
        <ele>21.083</ele>
        <time>2020-07-16T08:18:56Z</time>
      </trkpt>
      <trkpt lat="41.998450" lon="-8.639460">
        <ele>21.111</ele>
        <time>2020-07-16T08:19:16Z</time>
      </trkpt>
      <trkpt lat="41.996840" lon="-8.640390">
        <ele>17.608</ele>
        <time>2020-07-16T08:19:36Z</time>
      </trkpt>
      <trkpt lat="41.996040" lon="-8.640780">
        <ele>17.027</ele>
        <time>2020-07-16T08:19:56Z</time>
      </trkpt>
      <trkpt lat="41.995570" lon="-8.640950">
        <ele>15.134</ele>
        <time>2020-07-16T08:20:16Z</time>
      </trkpt>
      <trkpt lat="41.994690" lon="-8.641190">
        <ele>16.929</ele>
        <time>2020-07-16T08:20:36Z</time>
      </trkpt>
      <trkpt lat="41.992420" lon="-8.641740">
        <ele>11.787</ele>
        <time>2020-07-16T08:20:56Z</time>
      </trkpt>
      <trkpt lat="41.992310" lon="-8.641810">
        <ele>11.524</ele>
        <time>2020-07-16T08:21:16Z</time>
      </trkpt>
      <trkpt lat="41.991210" lon="-8.642070">
        <ele>7.314</ele>
        <time>2020-07-16T08:21:36Z</time>
      </trkpt>
      <trkpt lat="41.990500" lon="-8.642260">
        <ele>10.144</ele>
        <time>2020-07-16T08:21:56Z</time>
      </trkpt>
      <trkpt lat="41.989670" lon="-8.642660">
        <ele>12.225</ele>
        <time>2020-07-16T08:22:16Z</time>
      </trkpt>
      <trkpt lat="41.989290" lon="-8.642910">
        <ele>13.847</ele>
        <time>2020-07-16T08:22:36Z</time>
      </trkpt>
      <trkpt lat="41.988700" lon="-8.643450">
        <ele>16.429</ele>
        <time>2020-07-16T08:22:56Z</time>
      </trkpt>
      <trkpt lat="41.988290" lon="-8.643940">
        <ele>16.221</ele>
        <time>2020-07-16T08:23:16Z</time>
      </trkpt>
      <trkpt lat="41.988000" lon="-8.644360">
        <ele>17.808</ele>
        <time>2020-07-16T08:23:36Z</time>
      </trkpt>
      <trkpt lat="41.987640" lon="-8.645030">
        <ele>19.469</ele>
        <time>2020-07-16T08:23:56Z</time>
      </trkpt>
      <trkpt lat="41.987390" lon="-8.645620">
        <ele>19.466</ele>
        <time>2020-07-16T08:24:16Z</time>
      </trkpt>
      <trkpt lat="41.987260" lon="-8.646000">
        <ele>19.831</ele>
        <time>2020-07-16T08:24:36Z</time>
      </trkpt>
      <trkpt lat="41.987200" lon="-8.646230">
        <ele>20.119</ele>
        <time>2020-07-16T08:24:56Z</time>
      </trkpt>
      <trkpt lat="41.987030" lon="-8.647020">
        <ele>20.736</ele>
        <time>2020-07-16T08:25:16Z</time>
      </trkpt>
      <trkpt lat="41.986980" lon="-8.647420">
        <ele>21.066</ele>
        <time>2020-07-16T08:25:36Z</time>
      </trkpt>
      <trkpt lat="41.986740" lon="-8.650650">
        <ele>22.086</ele>
        <time>2020-07-16T08:25:56Z</time>
      </trkpt>
      <trkpt lat="41.986640" lon="-8.651740">
        <ele>23.097</ele>
        <time>2020-07-16T08:26:16Z</time>
      </trkpt>
      <trkpt lat="41.986390" lon="-8.653630">
        <ele>26.056</ele>
        <time>2020-07-16T08:26:36Z</time>
      </trkpt>
      <trkpt lat="41.986130" lon="-8.655180">
        <ele>28.959</ele>
        <time>2020-07-16T08:26:56Z</time>
      </trkpt>
      <trkpt lat="41.985970" lon="-8.655980">
        <ele>31.114</ele>
        <time>2020-07-16T08:27:16Z</time>
      </trkpt>
      <trkpt lat="41.985640" lon="-8.657330">
        <ele>34.708</ele>
        <time>2020-07-16T08:27:36Z</time>
      </trkpt>
      <trkpt lat="41.985470" lon="-8.657790">
        <ele>35.880</ele>
        <time>2020-07-16T08:27:56Z</time>
      </trkpt>
      <trkpt lat="41.985090" lon="-8.658650">
        <ele>36.497</ele>
        <time>2020-07-16T08:28:16Z</time>
      </trkpt>
      <trkpt lat="41.985030" lon="-8.658860">
        <ele>36.242</ele>
        <time>2020-07-16T08:28:36Z</time>
      </trkpt>
      <trkpt lat="41.985040" lon="-8.658900">
        <ele>36.330</ele>
        <time>2020-07-16T08:28:56Z</time>
      </trkpt>
      <trkpt lat="41.985030" lon="-8.658950">
        <ele>36.417</ele>
        <time>2020-07-16T08:29:16Z</time>
      </trkpt>
      <trkpt lat="41.984990" lon="-8.659060">
        <ele>36.657</ele>
        <time>2020-07-16T08:29:36Z</time>
      </trkpt>
      <trkpt lat="41.984920" lon="-8.659120">
        <ele>36.817</ele>
        <time>2020-07-16T08:29:56Z</time>
      </trkpt>
      <trkpt lat="41.984880" lon="-8.659130">
        <ele>36.978</ele>
        <time>2020-07-16T08:30:16Z</time>
      </trkpt>
      <trkpt lat="41.984590" lon="-8.659600">
        <ele>38.982</ele>
        <time>2020-07-16T08:30:36Z</time>
      </trkpt>
      <trkpt lat="41.984080" lon="-8.660580">
        <ele>38.943</ele>
        <time>2020-07-16T08:30:56Z</time>
      </trkpt>
      <trkpt lat="41.983860" lon="-8.660970">
        <ele>36.317</ele>
        <time>2020-07-16T08:31:16Z</time>
      </trkpt>
      <trkpt lat="41.983710" lon="-8.661310">
        <ele>31.808</ele>
        <time>2020-07-16T08:31:36Z</time>
      </trkpt>
      <trkpt lat="41.983560" lon="-8.661700">
        <ele>28.743</ele>
        <time>2020-07-16T08:31:56Z</time>
      </trkpt>
      <trkpt lat="41.983470" lon="-8.662020">
        <ele>28.540</ele>
        <time>2020-07-16T08:32:16Z</time>
      </trkpt>
      <trkpt lat="41.983180" lon="-8.663530">
        <ele>26.395</ele>
        <time>2020-07-16T08:32:36Z</time>
      </trkpt>
      <trkpt lat="41.983030" lon="-8.663970">
        <ele>24.113</ele>
        <time>2020-07-16T08:32:56Z</time>
      </trkpt>
      <trkpt lat="41.982810" lon="-8.664450">
        <ele>19.260</ele>
        <time>2020-07-16T08:33:16Z</time>
      </trkpt>
      <trkpt lat="41.982670" lon="-8.664710">
        <ele>20.740</ele>
        <time>2020-07-16T08:33:36Z</time>
      </trkpt>
      <trkpt lat="41.982570" lon="-8.664950">
        <ele>20.790</ele>
        <time>2020-07-16T08:33:56Z</time>
      </trkpt>
      <trkpt lat="41.982200" lon="-8.665650">
        <ele>21.531</ele>
        <time>2020-07-16T08:34:16Z</time>
      </trkpt>
      <trkpt lat="41.981340" lon="-8.667710">
        <ele>25.219</ele>
        <time>2020-07-16T08:34:36Z</time>
      </trkpt>
      <trkpt lat="41.981290" lon="-8.667780">
        <ele>25.009</ele>
        <time>2020-07-16T08:34:56Z</time>
      </trkpt>
      <trkpt lat="41.980060" lon="-8.670880">
        <ele>21.819</ele>
        <time>2020-07-16T08:35:16Z</time>
      </trkpt>
      <trkpt lat="41.980020" lon="-8.671040">
        <ele>21.308</ele>
        <time>2020-07-16T08:35:36Z</time>
      </trkpt>
      <trkpt lat="41.979490" lon="-8.672420">
        <ele>23.896</ele>
        <time>2020-07-16T08:35:56Z</time>
      </trkpt>
      <trkpt lat="41.978930" lon="-8.673800">
        <ele>22.183</ele>
        <time>2020-07-16T08:36:16Z</time>
      </trkpt>
      <trkpt lat="41.978870" lon="-8.673880">
        <ele>22.178</ele>
        <time>2020-07-16T08:36:36Z</time>
      </trkpt>
      <trkpt lat="41.977300" lon="-8.677850">
        <ele>21.246</ele>
        <time>2020-07-16T08:36:56Z</time>
      </trkpt>
      <trkpt lat="41.976650" lon="-8.679450">
        <ele>21.123</ele>
        <time>2020-07-16T08:37:16Z</time>
      </trkpt>
      <trkpt lat="41.976420" lon="-8.680030">
        <ele>20.873</ele>
        <time>2020-07-16T08:37:36Z</time>
      </trkpt>
      <trkpt lat="41.976350" lon="-8.680250">
        <ele>20.533</ele>
        <time>2020-07-16T08:37:56Z</time>
      </trkpt>
      <trkpt lat="41.975460" lon="-8.682470">
        <ele>27.824</ele>
        <time>2020-07-16T08:38:16Z</time>
      </trkpt>
      <trkpt lat="41.975320" lon="-8.682790">
        <ele>28.511</ele>
        <time>2020-07-16T08:38:36Z</time>
      </trkpt>
      <trkpt lat="41.975040" lon="-8.683220">
        <ele>30.021</ele>
        <time>2020-07-16T08:38:56Z</time>
      </trkpt>
      <trkpt lat="41.974730" lon="-8.683570">
        <ele>29.803</ele>
        <time>2020-07-16T08:39:16Z</time>
      </trkpt>
      <trkpt lat="41.974190" lon="-8.683970">
        <ele>27.008</ele>
        <time>2020-07-16T08:39:36Z</time>
      </trkpt>
      <trkpt lat="41.974120" lon="-8.683980">
        <ele>26.666</ele>
        <time>2020-07-16T08:39:56Z</time>
      </trkpt>
      <trkpt lat="41.972730" lon="-8.684680">
        <ele>19.053</ele>
        <time>2020-07-16T08:40:16Z</time>
      </trkpt>
      <trkpt lat="41.972420" lon="-8.684860">
        <ele>20.378</ele>
        <time>2020-07-16T08:40:36Z</time>
      </trkpt>
      <trkpt lat="41.972160" lon="-8.685070">
        <ele>22.326</ele>
        <time>2020-07-16T08:40:56Z</time>
      </trkpt>
      <trkpt lat="41.971960" lon="-8.685280">
        <ele>24.023</ele>
        <time>2020-07-16T08:41:16Z</time>
      </trkpt>
      <trkpt lat="41.971930" lon="-8.685350">
        <ele>24.863</ele>
        <time>2020-07-16T08:41:36Z</time>
      </trkpt>
      <trkpt lat="41.971660" lon="-8.685750">
        <ele>27.423</ele>
        <time>2020-07-16T08:41:56Z</time>
      </trkpt>
      <trkpt lat="41.971500" lon="-8.686100">
        <ele>28.944</ele>
        <time>2020-07-16T08:42:16Z</time>
      </trkpt>
      <trkpt lat="41.971480" lon="-8.686260">
        <ele>29.922</ele>
        <time>2020-07-16T08:42:36Z</time>
      </trkpt>
      <trkpt lat="41.971430" lon="-8.686320">
        <ele>30.462</ele>
        <time>2020-07-16T08:42:56Z</time>
      </trkpt>
      <trkpt lat="41.971390" lon="-8.686340">
        <ele>30.608</ele>
        <time>2020-07-16T08:43:16Z</time>
      </trkpt>
      <trkpt lat="41.971190" lon="-8.686810">
        <ele>32.708</ele>
        <time>2020-07-16T08:43:36Z</time>
      </trkpt>
      <trkpt lat="41.971150" lon="-8.686870">
        <ele>32.817</ele>
        <time>2020-07-16T08:43:56Z</time>
      </trkpt>
      <trkpt lat="41.970320" lon="-8.689810">
        <ele>23.024</ele>
        <time>2020-07-16T08:44:16Z</time>
      </trkpt>
      <trkpt lat="41.970110" lon="-8.690650">
        <ele>17.599</ele>
        <time>2020-07-16T08:44:36Z</time>
      </trkpt>
      <trkpt lat="41.970030" lon="-8.691200">
        <ele>16.037</ele>
        <time>2020-07-16T08:44:56Z</time>
      </trkpt>
      <trkpt lat="41.970020" lon="-8.691670">
        <ele>16.034</ele>
        <time>2020-07-16T08:45:16Z</time>
      </trkpt>
      <trkpt lat="41.970080" lon="-8.692240">
        <ele>19.244</ele>
        <time>2020-07-16T08:45:36Z</time>
      </trkpt>
      <trkpt lat="41.970200" lon="-8.692860">
        <ele>19.094</ele>
        <time>2020-07-16T08:45:56Z</time>
      </trkpt>
      <trkpt lat="41.970370" lon="-8.693400">
        <ele>18.765</ele>
        <time>2020-07-16T08:46:16Z</time>
      </trkpt>
      <trkpt lat="41.970570" lon="-8.693840">
        <ele>18.782</ele>
        <time>2020-07-16T08:46:36Z</time>
      </trkpt>
      <trkpt lat="41.970610" lon="-8.693900">
        <ele>18.743</ele>
        <time>2020-07-16T08:46:56Z</time>
      </trkpt>
      <trkpt lat="41.970620" lon="-8.693970">
        <ele>19.317</ele>
        <time>2020-07-16T08:47:16Z</time>
      </trkpt>
      <trkpt lat="41.970600" lon="-8.694030">
        <ele>20.008</ele>
        <time>2020-07-16T08:47:36Z</time>
      </trkpt>
      <trkpt lat="41.970630" lon="-8.694380">
        <ele>21.913</ele>
        <time>2020-07-16T08:47:56Z</time>
      </trkpt>
      <trkpt lat="41.970910" lon="-8.695810">
        <ele>21.020</ele>
        <time>2020-07-16T08:48:16Z</time>
      </trkpt>
      <trkpt lat="41.970900" lon="-8.696000">
        <ele>21.015</ele>
        <time>2020-07-16T08:48:36Z</time>
      </trkpt>
      <trkpt lat="41.970970" lon="-8.696610">
        <ele>22.813</ele>
        <time>2020-07-16T08:48:56Z</time>
      </trkpt>
      <trkpt lat="41.971000" lon="-8.697230">
        <ele>24.640</ele>
        <time>2020-07-16T08:49:16Z</time>
      </trkpt>
      <trkpt lat="41.970980" lon="-8.698180">
        <ele>25.290</ele>
        <time>2020-07-16T08:49:36Z</time>
      </trkpt>
      <trkpt lat="41.970870" lon="-8.699100">
        <ele>23.710</ele>
        <time>2020-07-16T08:49:56Z</time>
      </trkpt>
      <trkpt lat="41.970680" lon="-8.699980">
        <ele>24.191</ele>
        <time>2020-07-16T08:50:16Z</time>
      </trkpt>
      <trkpt lat="41.969390" lon="-8.704430">
        <ele>35.199</ele>
        <time>2020-07-16T08:50:36Z</time>
      </trkpt>
      <trkpt lat="41.969260" lon="-8.704830">
        <ele>36.807</ele>
        <time>2020-07-16T08:50:56Z</time>
      </trkpt>
      <trkpt lat="41.969210" lon="-8.705050">
        <ele>37.027</ele>
        <time>2020-07-16T08:51:16Z</time>
      </trkpt>
      <trkpt lat="41.968540" lon="-8.706680">
        <ele>39.308</ele>
        <time>2020-07-16T08:51:36Z</time>
      </trkpt>
      <trkpt lat="41.968370" lon="-8.707050">
        <ele>40.544</ele>
        <time>2020-07-16T08:51:56Z</time>
      </trkpt>
      <trkpt lat="41.968270" lon="-8.707220">
        <ele>42.411</ele>
        <time>2020-07-16T08:52:16Z</time>
      </trkpt>
      <trkpt lat="41.966620" lon="-8.711130">
        <ele>43.216</ele>
        <time>2020-07-16T08:52:36Z</time>
      </trkpt>
      <trkpt lat="41.966370" lon="-8.711580">
        <ele>43.744</ele>
        <time>2020-07-16T08:52:56Z</time>
      </trkpt>
      <trkpt lat="41.966160" lon="-8.711890">
        <ele>44.791</ele>
        <time>2020-07-16T08:53:16Z</time>
      </trkpt>
      <trkpt lat="41.965770" lon="-8.712370">
        <ele>42.711</ele>
        <time>2020-07-16T08:53:36Z</time>
      </trkpt>
      <trkpt lat="41.965370" lon="-8.712860">
        <ele>41.811</ele>
        <time>2020-07-16T08:53:56Z</time>
      </trkpt>
      <trkpt lat="41.964920" lon="-8.713360">
        <ele>39.932</ele>
        <time>2020-07-16T08:54:16Z</time>
      </trkpt>
      <trkpt lat="41.964820" lon="-8.713510">
        <ele>40.029</ele>
        <time>2020-07-16T08:54:36Z</time>
      </trkpt>
      <trkpt lat="41.964220" lon="-8.714230">
        <ele>36.800</ele>
        <time>2020-07-16T08:54:56Z</time>
      </trkpt>
      <trkpt lat="41.963660" lon="-8.714810">
        <ele>36.520</ele>
        <time>2020-07-16T08:55:16Z</time>
      </trkpt>
      <trkpt lat="41.962780" lon="-8.715840">
        <ele>33.908</ele>
        <time>2020-07-16T08:55:36Z</time>
      </trkpt>
      <trkpt lat="41.962630" lon="-8.716040">
        <ele>32.367</ele>
        <time>2020-07-16T08:55:56Z</time>
      </trkpt>
      <trkpt lat="41.962350" lon="-8.716500">
        <ele>30.954</ele>
        <time>2020-07-16T08:56:16Z</time>
      </trkpt>
      <trkpt lat="41.961980" lon="-8.717290">
        <ele>33.249</ele>
        <time>2020-07-16T08:56:36Z</time>
      </trkpt>
      <trkpt lat="41.960400" lon="-8.720840">
        <ele>47.777</ele>
        <time>2020-07-16T08:56:56Z</time>
      </trkpt>
      <trkpt lat="41.960300" lon="-8.721120">
        <ele>50.734</ele>
        <time>2020-07-16T08:57:16Z</time>
      </trkpt>
      <trkpt lat="41.959900" lon="-8.722090">
        <ele>48.244</ele>
        <time>2020-07-16T08:57:36Z</time>
      </trkpt>
      <trkpt lat="41.959670" lon="-8.722790">
        <ele>48.434</ele>
        <time>2020-07-16T08:57:56Z</time>
      </trkpt>
      <trkpt lat="41.959480" lon="-8.723500">
        <ele>49.545</ele>
        <time>2020-07-16T08:58:16Z</time>
      </trkpt>
      <trkpt lat="41.959440" lon="-8.723570">
        <ele>49.966</ele>
        <time>2020-07-16T08:58:36Z</time>
      </trkpt>
      <trkpt lat="41.959260" lon="-8.724620">
        <ele>52.329</ele>
        <time>2020-07-16T08:58:56Z</time>
      </trkpt>
      <trkpt lat="41.959060" lon="-8.726030">
        <ele>54.121</ele>
        <time>2020-07-16T08:59:16Z</time>
      </trkpt>
      <trkpt lat="41.959070" lon="-8.726170">
        <ele>53.508</ele>
        <time>2020-07-16T08:59:36Z</time>
      </trkpt>
      <trkpt lat="41.958880" lon="-8.727610">
        <ele>52.041</ele>
        <time>2020-07-16T08:59:56Z</time>
      </trkpt>
      <trkpt lat="41.958700" lon="-8.728890">
        <ele>50.088</ele>
        <time>2020-07-16T09:00:16Z</time>
      </trkpt>
      <trkpt lat="41.958640" lon="-8.729170">
        <ele>49.063</ele>
        <time>2020-07-16T09:00:36Z</time>
      </trkpt>
      <trkpt lat="41.958360" lon="-8.731360">
        <ele>42.051</ele>
        <time>2020-07-16T09:00:56Z</time>
      </trkpt>
      <trkpt lat="41.958250" lon="-8.732130">
        <ele>35.168</ele>
        <time>2020-07-16T09:01:16Z</time>
      </trkpt>
      <trkpt lat="41.958020" lon="-8.733470">
        <ele>28.048</ele>
        <time>2020-07-16T09:01:36Z</time>
      </trkpt>
      <trkpt lat="41.957800" lon="-8.734390">
        <ele>21.368</ele>
        <time>2020-07-16T09:01:56Z</time>
      </trkpt>
      <trkpt lat="41.957550" lon="-8.735140">
        <ele>16.789</ele>
        <time>2020-07-16T09:02:16Z</time>
      </trkpt>
      <trkpt lat="41.957270" lon="-8.735800">
        <ele>17.545</ele>
        <time>2020-07-16T09:02:36Z</time>
      </trkpt>
      <trkpt lat="41.956910" lon="-8.736460">
        <ele>19.747</ele>
        <time>2020-07-16T09:02:56Z</time>
      </trkpt>
      <trkpt lat="41.956460" lon="-8.737080">
        <ele>18.611</ele>
        <time>2020-07-16T09:03:16Z</time>
      </trkpt>
      <trkpt lat="41.956050" lon="-8.737520">
        <ele>17.108</ele>
        <time>2020-07-16T09:03:36Z</time>
      </trkpt>
      <trkpt lat="41.955850" lon="-8.737700">
        <ele>15.849</ele>
        <time>2020-07-16T09:03:56Z</time>
      </trkpt>
      <trkpt lat="41.955470" lon="-8.738000">
        <ele>18.856</ele>
        <time>2020-07-16T09:04:16Z</time>
      </trkpt>
      <trkpt lat="41.954870" lon="-8.738370">
        <ele>22.171</ele>
        <time>2020-07-16T09:04:36Z</time>
      </trkpt>
      <trkpt lat="41.952920" lon="-8.739360">
        <ele>18.399</ele>
        <time>2020-07-16T09:04:56Z</time>
      </trkpt>
      <trkpt lat="41.952840" lon="-8.739430">
        <ele>18.626</ele>
        <time>2020-07-16T09:05:16Z</time>
      </trkpt>
      <trkpt lat="41.951510" lon="-8.740120">
        <ele>25.596</ele>
        <time>2020-07-16T09:05:36Z</time>
      </trkpt>
      <trkpt lat="41.950810" lon="-8.740470">
        <ele>24.616</ele>
        <time>2020-07-16T09:05:56Z</time>
      </trkpt>
      <trkpt lat="41.950470" lon="-8.740620">
        <ele>24.387</ele>
        <time>2020-07-16T09:06:16Z</time>
      </trkpt>
      <trkpt lat="41.950210" lon="-8.740690">
        <ele>23.632</ele>
        <time>2020-07-16T09:06:36Z</time>
      </trkpt>
      <trkpt lat="41.949400" lon="-8.740850">
        <ele>19.692</ele>
        <time>2020-07-16T09:06:56Z</time>
      </trkpt>
      <trkpt lat="41.949360" lon="-8.740930">
        <ele>18.711</ele>
        <time>2020-07-16T09:07:16Z</time>
      </trkpt>
      <trkpt lat="41.949300" lon="-8.740990">
        <ele>17.808</ele>
        <time>2020-07-16T09:07:36Z</time>
      </trkpt>
      <trkpt lat="41.949210" lon="-8.741020">
        <ele>17.038</ele>
        <time>2020-07-16T09:07:56Z</time>
      </trkpt>
      <trkpt lat="41.949120" lon="-8.741000">
        <ele>16.855</ele>
        <time>2020-07-16T09:08:16Z</time>
      </trkpt>
      <trkpt lat="41.949050" lon="-8.740940">
        <ele>17.230</ele>
        <time>2020-07-16T09:08:36Z</time>
      </trkpt>
      <trkpt lat="41.948990" lon="-8.740840">
        <ele>18.098</ele>
        <time>2020-07-16T09:08:56Z</time>
      </trkpt>
      <trkpt lat="41.948950" lon="-8.740840">
        <ele>18.085</ele>
        <time>2020-07-16T09:09:16Z</time>
      </trkpt>
      <trkpt lat="41.948850" lon="-8.740800">
        <ele>18.165</ele>
        <time>2020-07-16T09:09:36Z</time>
      </trkpt>
      <trkpt lat="41.948420" lon="-8.740800">
        <ele>16.515</ele>
        <time>2020-07-16T09:09:56Z</time>
      </trkpt>
      <trkpt lat="41.947980" lon="-8.740740">
        <ele>15.366</ele>
        <time>2020-07-16T09:10:16Z</time>
      </trkpt>
      <trkpt lat="41.947740" lon="-8.740680">
        <ele>15.664</ele>
        <time>2020-07-16T09:10:36Z</time>
      </trkpt>
      <trkpt lat="41.946650" lon="-8.740480">
        <ele>20.206</ele>
        <time>2020-07-16T09:10:56Z</time>
      </trkpt>
      <trkpt lat="41.946450" lon="-8.740460">
        <ele>21.916</ele>
        <time>2020-07-16T09:11:16Z</time>
      </trkpt>
      <trkpt lat="41.945790" lon="-8.740450">
        <ele>26.608</ele>
        <time>2020-07-16T09:11:36Z</time>
      </trkpt>
      <trkpt lat="41.945290" lon="-8.740490">
        <ele>26.781</ele>
        <time>2020-07-16T09:11:56Z</time>
      </trkpt>
      <trkpt lat="41.944450" lon="-8.740670">
        <ele>27.268</ele>
        <time>2020-07-16T09:12:16Z</time>
      </trkpt>
      <trkpt lat="41.942030" lon="-8.741240">
        <ele>25.153</ele>
        <time>2020-07-16T09:12:36Z</time>
      </trkpt>
      <trkpt lat="41.941490" lon="-8.741390">
        <ele>21.711</ele>
        <time>2020-07-16T09:12:56Z</time>
      </trkpt>
      <trkpt lat="41.940980" lon="-8.741580">
        <ele>19.018</ele>
        <time>2020-07-16T09:13:16Z</time>
      </trkpt>
      <trkpt lat="41.940600" lon="-8.741780">
        <ele>17.728</ele>
        <time>2020-07-16T09:13:36Z</time>
      </trkpt>
      <trkpt lat="41.940270" lon="-8.742000">
        <ele>17.068</ele>
        <time>2020-07-16T09:13:56Z</time>
      </trkpt>
      <trkpt lat="41.939880" lon="-8.742320">
        <ele>17.329</ele>
        <time>2020-07-16T09:14:16Z</time>
      </trkpt>
      <trkpt lat="41.939580" lon="-8.742620">
        <ele>16.922</ele>
        <time>2020-07-16T09:14:36Z</time>
      </trkpt>
      <trkpt lat="41.939250" lon="-8.742990">
        <ele>15.262</ele>
        <time>2020-07-16T09:14:56Z</time>
      </trkpt>
      <trkpt lat="41.939060" lon="-8.743310">
        <ele>15.008</ele>
        <time>2020-07-16T09:15:16Z</time>
      </trkpt>
      <trkpt lat="41.938630" lon="-8.743950">
        <ele>12.608</ele>
        <time>2020-07-16T09:15:36Z</time>
      </trkpt>
      <trkpt lat="41.938540" lon="-8.744180">
        <ele>11.587</ele>
        <time>2020-07-16T09:15:56Z</time>
      </trkpt>
      <trkpt lat="41.938550" lon="-8.744240">
        <ele>11.324</ele>
        <time>2020-07-16T09:16:16Z</time>
      </trkpt>
      <trkpt lat="41.938520" lon="-8.744390">
        <ele>11.119</ele>
        <time>2020-07-16T09:16:36Z</time>
      </trkpt>
      <trkpt lat="41.938450" lon="-8.744470">
        <ele>10.947</ele>
        <time>2020-07-16T09:16:56Z</time>
      </trkpt>
      <trkpt lat="41.938370" lon="-8.744480">
        <ele>10.954</ele>
        <time>2020-07-16T09:17:16Z</time>
      </trkpt>
      <trkpt lat="41.938220" lon="-8.744600">
        <ele>11.344</ele>
        <time>2020-07-16T09:17:36Z</time>
      </trkpt>
      <trkpt lat="41.937490" lon="-8.745540">
        <ele>14.024</ele>
        <time>2020-07-16T09:17:56Z</time>
      </trkpt>
      <trkpt lat="41.936540" lon="-8.746560">
        <ele>10.815</ele>
        <time>2020-07-16T09:18:16Z</time>
      </trkpt>
      <trkpt lat="41.936020" lon="-8.747030">
        <ele>9.894</ele>
        <time>2020-07-16T09:18:36Z</time>
      </trkpt>
      <trkpt lat="41.935550" lon="-8.747420">
        <ele>9.357</ele>
        <time>2020-07-16T09:18:56Z</time>
      </trkpt>
      <trkpt lat="41.933980" lon="-8.748590">
        <ele>9.722</ele>
        <time>2020-07-16T09:19:16Z</time>
      </trkpt>
      <trkpt lat="41.932410" lon="-8.749690">
        <ele>7.808</ele>
        <time>2020-07-16T09:19:36Z</time>
      </trkpt>
      <trkpt lat="41.931040" lon="-8.750540">
        <ele>9.064</ele>
        <time>2020-07-16T09:19:56Z</time>
      </trkpt>
      <trkpt lat="41.930980" lon="-8.750610">
        <ele>8.761</ele>
        <time>2020-07-16T09:20:16Z</time>
      </trkpt>
      <trkpt lat="41.929500" lon="-8.751490">
        <ele>6.366</ele>
        <time>2020-07-16T09:20:36Z</time>
      </trkpt>
      <trkpt lat="41.929050" lon="-8.751730">
        <ele>5.424</ele>
        <time>2020-07-16T09:20:56Z</time>
      </trkpt>
      <trkpt lat="41.926980" lon="-8.753000">
        <ele>10.121</ele>
        <time>2020-07-16T09:21:16Z</time>
      </trkpt>
      <trkpt lat="41.925620" lon="-8.753790">
        <ele>7.671</ele>
        <time>2020-07-16T09:21:36Z</time>
      </trkpt>
      <trkpt lat="41.924480" lon="-8.754520">
        <ele>10.191</ele>
        <time>2020-07-16T09:21:56Z</time>
      </trkpt>
      <trkpt lat="41.923960" lon="-8.754960">
        <ele>7.012</ele>
        <time>2020-07-16T09:22:16Z</time>
      </trkpt>
      <trkpt lat="41.923940" lon="-8.755010">
        <ele>7.076</ele>
        <time>2020-07-16T09:22:36Z</time>
      </trkpt>
      <trkpt lat="41.923880" lon="-8.755060">
        <ele>7.090</ele>
        <time>2020-07-16T09:22:56Z</time>
      </trkpt>
      <trkpt lat="41.923860" lon="-8.755060">
        <ele>7.119</ele>
        <time>2020-07-16T09:23:16Z</time>
      </trkpt>
      <trkpt lat="41.923070" lon="-8.755910">
        <ele>8.408</ele>
        <time>2020-07-16T09:23:36Z</time>
      </trkpt>
      <trkpt lat="41.922750" lon="-8.756320">
        <ele>8.652</ele>
        <time>2020-07-16T09:23:56Z</time>
      </trkpt>
      <trkpt lat="41.922350" lon="-8.756870">
        <ele>7.839</ele>
        <time>2020-07-16T09:24:16Z</time>
      </trkpt>
      <trkpt lat="41.922020" lon="-8.757410">
        <ele>7.264</ele>
        <time>2020-07-16T09:24:36Z</time>
      </trkpt>
      <trkpt lat="41.921710" lon="-8.757970">
        <ele>6.332</ele>
        <time>2020-07-16T09:24:56Z</time>
      </trkpt>
      <trkpt lat="41.921410" lon="-8.758590">
        <ele>5.159</ele>
        <time>2020-07-16T09:25:16Z</time>
      </trkpt>
      <trkpt lat="41.921090" lon="-8.759360">
        <ele>7.879</ele>
        <time>2020-07-16T09:25:36Z</time>
      </trkpt>
      <trkpt lat="41.920630" lon="-8.760610">
        <ele>5.099</ele>
        <time>2020-07-16T09:25:56Z</time>
      </trkpt>
      <trkpt lat="41.919570" lon="-8.763660">
        <ele>6.940</ele>
        <time>2020-07-16T09:26:16Z</time>
      </trkpt>
      <trkpt lat="41.919450" lon="-8.764060">
        <ele>6.325</ele>
        <time>2020-07-16T09:26:36Z</time>
      </trkpt>
      <trkpt lat="41.919270" lon="-8.764900">
        <ele>5.226</ele>
        <time>2020-07-16T09:26:56Z</time>
      </trkpt>
      <trkpt lat="41.919200" lon="-8.765360">
        <ele>4.108</ele>
        <time>2020-07-16T09:27:16Z</time>
      </trkpt>
      <trkpt lat="41.919130" lon="-8.766140">
        <ele>3.808</ele>
        <time>2020-07-16T09:27:36Z</time>
      </trkpt>
      <trkpt lat="41.919010" lon="-8.768570">
        <ele>6.957</ele>
        <time>2020-07-16T09:27:56Z</time>
      </trkpt>
      <trkpt lat="41.918920" lon="-8.770730">
        <ele>11.064</ele>
        <time>2020-07-16T09:28:16Z</time>
      </trkpt>
      <trkpt lat="41.918940" lon="-8.770960">
        <ele>11.079</ele>
        <time>2020-07-16T09:28:36Z</time>
      </trkpt>
      <trkpt lat="41.918890" lon="-8.771880">
        <ele>12.037</ele>
        <time>2020-07-16T09:28:56Z</time>
      </trkpt>
      <trkpt lat="41.918780" lon="-8.772770">
        <ele>17.574</ele>
        <time>2020-07-16T09:29:16Z</time>
      </trkpt>
      <trkpt lat="41.918660" lon="-8.773340">
        <ele>23.854</ele>
        <time>2020-07-16T09:29:36Z</time>
      </trkpt>
      <trkpt lat="41.918360" lon="-8.774410">
        <ele>21.464</ele>
        <time>2020-07-16T09:29:56Z</time>
      </trkpt>
      <trkpt lat="41.917640" lon="-8.776140">
        <ele>9.735</ele>
        <time>2020-07-16T09:30:16Z</time>
      </trkpt>
      <trkpt lat="41.917630" lon="-8.776250">
        <ele>8.915</ele>
        <time>2020-07-16T09:30:36Z</time>
      </trkpt>
      <trkpt lat="41.917350" lon="-8.777020">
        <ele>6.565</ele>
        <time>2020-07-16T09:30:56Z</time>
      </trkpt>
      <trkpt lat="41.917000" lon="-8.777790">
        <ele>5.811</ele>
        <time>2020-07-16T09:31:16Z</time>
      </trkpt>
      <trkpt lat="41.917020" lon="-8.777920">
        <ele>5.608</ele>
        <time>2020-07-16T09:31:36Z</time>
      </trkpt>
      <trkpt lat="41.917010" lon="-8.778040">
        <ele>5.576</ele>
        <time>2020-07-16T09:31:56Z</time>
      </trkpt>
      <trkpt lat="41.916960" lon="-8.778160">
        <ele>5.923</ele>
        <time>2020-07-16T09:32:16Z</time>
      </trkpt>
      <trkpt lat="41.916880" lon="-8.778230">
        <ele>5.968</ele>
        <time>2020-07-16T09:32:36Z</time>
      </trkpt>
      <trkpt lat="41.916760" lon="-8.778250">
        <ele>5.836</ele>
        <time>2020-07-16T09:32:56Z</time>
      </trkpt>
      <trkpt lat="41.916640" lon="-8.778420">
        <ele>6.243</ele>
        <time>2020-07-16T09:33:16Z</time>
      </trkpt>
      <trkpt lat="41.916420" lon="-8.778840">
        <ele>7.773</ele>
        <time>2020-07-16T09:33:36Z</time>
      </trkpt>
      <trkpt lat="41.916160" lon="-8.779480">
        <ele>5.233</ele>
        <time>2020-07-16T09:33:56Z</time>
      </trkpt>
      <trkpt lat="41.915640" lon="-8.780620">
        <ele>8.384</ele>
        <time>2020-07-16T09:34:16Z</time>
      </trkpt>
      <trkpt lat="41.913920" lon="-8.784530">
        <ele>21.084</ele>
        <time>2020-07-16T09:34:36Z</time>
      </trkpt>
      <trkpt lat="41.913670" lon="-8.785040">
        <ele>20.707</ele>
        <time>2020-07-16T09:34:56Z</time>
      </trkpt>
      <trkpt lat="41.913370" lon="-8.785540">
        <ele>19.617</ele>
        <time>2020-07-16T09:35:16Z</time>
      </trkpt>
      <trkpt lat="41.912030" lon="-8.787680">
        <ele>9.408</ele>
        <time>2020-07-16T09:35:36Z</time>
      </trkpt>
      <trkpt lat="41.910220" lon="-8.790650">
        <ele>6.793</ele>
        <time>2020-07-16T09:35:56Z</time>
      </trkpt>
      <trkpt lat="41.909190" lon="-8.792390">
        <ele>5.970</ele>
        <time>2020-07-16T09:36:16Z</time>
      </trkpt>
      <trkpt lat="41.908260" lon="-8.793890">
        <ele>6.365</ele>
        <time>2020-07-16T09:36:36Z</time>
      </trkpt>
      <trkpt lat="41.908100" lon="-8.794110">
        <ele>6.793</ele>
        <time>2020-07-16T09:36:56Z</time>
      </trkpt>
      <trkpt lat="41.906660" lon="-8.796480">
        <ele>5.490</ele>
        <time>2020-07-16T09:37:16Z</time>
      </trkpt>
      <trkpt lat="41.906320" lon="-8.796990">
        <ele>5.230</ele>
        <time>2020-07-16T09:37:36Z</time>
      </trkpt>
      <trkpt lat="41.905940" lon="-8.797480">
        <ele>5.380</ele>
        <time>2020-07-16T09:37:56Z</time>
      </trkpt>
      <trkpt lat="41.905280" lon="-8.798220">
        <ele>3.471</ele>
        <time>2020-07-16T09:38:16Z</time>
      </trkpt>
      <trkpt lat="41.904350" lon="-8.799190">
        <ele>3.452</ele>
        <time>2020-07-16T09:38:36Z</time>
      </trkpt>
      <trkpt lat="41.903910" lon="-8.799730">
        <ele>3.953</ele>
        <time>2020-07-16T09:38:56Z</time>
      </trkpt>
      <trkpt lat="41.903720" lon="-8.799990">
        <ele>4.308</ele>
        <time>2020-07-16T09:39:16Z</time>
      </trkpt>
      <trkpt lat="41.903480" lon="-8.800380">
        <ele>4.708</ele>
        <time>2020-07-16T09:39:36Z</time>
      </trkpt>
      <trkpt lat="41.903340" lon="-8.800630">
        <ele>5.430</ele>
        <time>2020-07-16T09:39:56Z</time>
      </trkpt>
      <trkpt lat="41.903020" lon="-8.801310">
        <ele>4.367</ele>
        <time>2020-07-16T09:40:16Z</time>
      </trkpt>
      <trkpt lat="41.902690" lon="-8.802250">
        <ele>3.972</ele>
        <time>2020-07-16T09:40:36Z</time>
      </trkpt>
      <trkpt lat="41.901650" lon="-8.805710">
        <ele>10.320</ele>
        <time>2020-07-16T09:40:56Z</time>
      </trkpt>
      <trkpt lat="41.901420" lon="-8.806410">
        <ele>13.337</ele>
        <time>2020-07-16T09:41:16Z</time>
      </trkpt>
      <trkpt lat="41.900730" lon="-8.808000">
        <ele>14.787</ele>
        <time>2020-07-16T09:41:36Z</time>
      </trkpt>
      <trkpt lat="41.900590" lon="-8.808490">
        <ele>18.817</ele>
        <time>2020-07-16T09:41:56Z</time>
      </trkpt>
      <trkpt lat="41.900530" lon="-8.809000">
        <ele>24.128</ele>
        <time>2020-07-16T09:42:16Z</time>
      </trkpt>
      <trkpt lat="41.900550" lon="-8.809450">
        <ele>28.224</ele>
        <time>2020-07-16T09:42:36Z</time>
      </trkpt>
      <trkpt lat="41.900750" lon="-8.810630">
        <ele>24.004</ele>
        <time>2020-07-16T09:42:56Z</time>
      </trkpt>
      <trkpt lat="41.900770" lon="-8.810890">
        <ele>24.214</ele>
        <time>2020-07-16T09:43:16Z</time>
      </trkpt>
      <trkpt lat="41.900760" lon="-8.811150">
        <ele>24.908</ele>
        <time>2020-07-16T09:43:36Z</time>
      </trkpt>
      <trkpt lat="41.900680" lon="-8.811670">
        <ele>26.757</ele>
        <time>2020-07-16T09:43:56Z</time>
      </trkpt>
      <trkpt lat="41.899880" lon="-8.815070">
        <ele>8.794</ele>
        <time>2020-07-16T09:44:16Z</time>
      </trkpt>
      <trkpt lat="41.899760" lon="-8.815490">
        <ele>9.039</ele>
        <time>2020-07-16T09:44:36Z</time>
      </trkpt>
      <trkpt lat="41.899580" lon="-8.815900">
        <ele>7.857</ele>
        <time>2020-07-16T09:44:56Z</time>
      </trkpt>
      <trkpt lat="41.899500" lon="-8.816040">
        <ele>7.214</ele>
        <time>2020-07-16T09:45:16Z</time>
      </trkpt>
      <trkpt lat="41.899340" lon="-8.816270">
        <ele>4.754</ele>
        <time>2020-07-16T09:45:36Z</time>
      </trkpt>
      <trkpt lat="41.899190" lon="-8.816450">
        <ele>2.874</ele>
        <time>2020-07-16T09:45:56Z</time>
      </trkpt>
      <trkpt lat="41.897830" lon="-8.817880">
        <ele>7.515</ele>
        <time>2020-07-16T09:46:16Z</time>
      </trkpt>
      <trkpt lat="41.897600" lon="-8.818100">
        <ele>6.978</ele>
        <time>2020-07-16T09:46:36Z</time>
      </trkpt>
      <trkpt lat="41.897260" lon="-8.818330">
        <ele>5.933</ele>
        <time>2020-07-16T09:46:56Z</time>
      </trkpt>
      <trkpt lat="41.894120" lon="-8.820180">
        <ele>4.426</ele>
        <time>2020-07-16T09:47:16Z</time>
      </trkpt>
      <trkpt lat="41.893830" lon="-8.820360">
        <ele>3.908</ele>
        <time>2020-07-16T09:47:36Z</time>
      </trkpt>
      <trkpt lat="41.893720" lon="-8.820450">
        <ele>3.652</ele>
        <time>2020-07-16T09:47:56Z</time>
      </trkpt>
      <trkpt lat="41.892150" lon="-8.821370">
        <ele>3.619</ele>
        <time>2020-07-16T09:48:16Z</time>
      </trkpt>
      <trkpt lat="41.892040" lon="-8.821410">
        <ele>4.244</ele>
        <time>2020-07-16T09:48:36Z</time>
      </trkpt>
      <trkpt lat="41.888960" lon="-8.823230">
        <ele>10.982</ele>
        <time>2020-07-16T09:48:56Z</time>
      </trkpt>
      <trkpt lat="41.887690" lon="-8.824000">
        <ele>5.819</ele>
        <time>2020-07-16T09:49:16Z</time>
      </trkpt>
      <trkpt lat="41.887220" lon="-8.824200">
        <ele>4.089</ele>
        <time>2020-07-16T09:49:36Z</time>
      </trkpt>
      <trkpt lat="41.886780" lon="-8.824320">
        <ele>3.779</ele>
        <time>2020-07-16T09:49:56Z</time>
      </trkpt>
      <trkpt lat="41.886590" lon="-8.824350">
        <ele>3.260</ele>
        <time>2020-07-16T09:50:16Z</time>
      </trkpt>
      <trkpt lat="41.886080" lon="-8.824390">
        <ele>2.219</ele>
        <time>2020-07-16T09:50:36Z</time>
      </trkpt>
      <trkpt lat="41.883140" lon="-8.824240">
        <ele>4.709</ele>
        <time>2020-07-16T09:50:56Z</time>
      </trkpt>
      <trkpt lat="41.882680" lon="-8.824250">
        <ele>4.519</ele>
        <time>2020-07-16T09:51:16Z</time>
      </trkpt>
      <trkpt lat="41.882200" lon="-8.824320">
        <ele>4.408</ele>
        <time>2020-07-16T09:51:36Z</time>
      </trkpt>
      <trkpt lat="41.881760" lon="-8.824470">
        <ele>3.326</ele>
        <time>2020-07-16T09:51:56Z</time>
      </trkpt>
      <trkpt lat="41.881360" lon="-8.824700">
        <ele>2.983</ele>
        <time>2020-07-16T09:52:16Z</time>
      </trkpt>
      <trkpt lat="41.881090" lon="-8.824900">
        <ele>2.048</ele>
        <time>2020-07-16T09:52:36Z</time>
      </trkpt>
      <trkpt lat="41.880880" lon="-8.825110">
        <ele>1.936</ele>
        <time>2020-07-16T09:52:56Z</time>
      </trkpt>
      <trkpt lat="41.880650" lon="-8.825390">
        <ele>2.583</ele>
        <time>2020-07-16T09:53:16Z</time>
      </trkpt>
      <trkpt lat="41.880300" lon="-8.825970">
        <ele>1.543</ele>
        <time>2020-07-16T09:53:36Z</time>
      </trkpt>
      <trkpt lat="41.880170" lon="-8.826260">
        <ele>0.343</ele>
        <time>2020-07-16T09:53:56Z</time>
      </trkpt>
      <trkpt lat="41.880020" lon="-8.826700">
        <ele>-0.094</ele>
        <time>2020-07-16T09:54:16Z</time>
      </trkpt>
      <trkpt lat="41.879930" lon="-8.827070">
        <ele>-0.126</ele>
        <time>2020-07-16T09:54:36Z</time>
      </trkpt>
      <trkpt lat="41.879520" lon="-8.828990">
        <ele>-0.547</ele>
        <time>2020-07-16T09:54:56Z</time>
      </trkpt>
      <trkpt lat="41.878150" lon="-8.835500">
        <ele>3.811</ele>
        <time>2020-07-16T09:55:16Z</time>
      </trkpt>
      <trkpt lat="41.878140" lon="-8.835750">
        <ele>4.008</ele>
        <time>2020-07-16T09:55:36Z</time>
      </trkpt>
      <trkpt lat="41.878160" lon="-8.835960">
        <ele>3.727</ele>
        <time>2020-07-16T09:55:56Z</time>
      </trkpt>
      <trkpt lat="41.878220" lon="-8.836230">
        <ele>3.284</ele>
        <time>2020-07-16T09:56:16Z</time>
      </trkpt>
      <trkpt lat="41.878290" lon="-8.836260">
        <ele>3.329</ele>
        <time>2020-07-16T09:56:36Z</time>
      </trkpt>
      <trkpt lat="41.878350" lon="-8.836320">
        <ele>3.237</ele>
        <time>2020-07-16T09:56:56Z</time>
      </trkpt>
      <trkpt lat="41.878380" lon="-8.836380">
        <ele>3.084</ele>
        <time>2020-07-16T09:57:16Z</time>
      </trkpt>
      <trkpt lat="41.878380" lon="-8.836510">
        <ele>3.084</ele>
        <time>2020-07-16T09:57:36Z</time>
      </trkpt>
      <trkpt lat="41.878360" lon="-8.836580">
        <ele>3.054</ele>
        <time>2020-07-16T09:57:56Z</time>
      </trkpt>
      <trkpt lat="41.878560" lon="-8.836860">
        <ele>3.175</ele>
        <time>2020-07-16T09:58:16Z</time>
      </trkpt>
      <trkpt lat="41.878900" lon="-8.837290">
        <ele>0.935</ele>
        <time>2020-07-16T09:58:36Z</time>
      </trkpt>
      <trkpt lat="41.879080" lon="-8.837670">
        <ele>-0.286</ele>
        <time>2020-07-16T09:58:56Z</time>
      </trkpt>
      <trkpt lat="41.879170" lon="-8.838030">
        <ele>-0.114</ele>
        <time>2020-07-16T09:59:16Z</time>
      </trkpt>
      <trkpt lat="41.879180" lon="-8.838430">
        <ele>0.708</ele>
        <time>2020-07-16T09:59:36Z</time>
      </trkpt>
      <trkpt lat="41.879160" lon="-8.838640">
        <ele>0.198</ele>
        <time>2020-07-16T09:59:56Z</time>
      </trkpt>
      <trkpt lat="41.879110" lon="-8.838870">
        <ele>0.875</ele>
        <time>2020-07-16T10:00:16Z</time>
      </trkpt>
      <trkpt lat="41.878990" lon="-8.839200">
        <ele>0.970</ele>
        <time>2020-07-16T10:00:36Z</time>
      </trkpt>
      <trkpt lat="41.878900" lon="-8.839360">
        <ele>0.368</ele>
        <time>2020-07-16T10:00:56Z</time>
      </trkpt>
      <trkpt lat="41.878660" lon="-8.839640">
        <ele>0.265</ele>
        <time>2020-07-16T10:01:16Z</time>
      </trkpt>
      <trkpt lat="41.878410" lon="-8.839800">
        <ele>0.525</ele>
        <time>2020-07-16T10:01:36Z</time>
      </trkpt>
      <trkpt lat="41.877470" lon="-8.840110">
        <ele>0.685</ele>
        <time>2020-07-16T10:01:56Z</time>
      </trkpt>
      <trkpt lat="41.877000" lon="-8.840290">
        <ele>1.026</ele>
        <time>2020-07-16T10:02:16Z</time>
      </trkpt>
      <trkpt lat="41.875810" lon="-8.840830">
        <ele>0.127</ele>
        <time>2020-07-16T10:02:36Z</time>
      </trkpt>
      <trkpt lat="41.875650" lon="-8.840890">
        <ele>0.568</ele>
        <time>2020-07-16T10:02:56Z</time>
      </trkpt>
      <trkpt lat="41.875230" lon="-8.841100">
        <ele>0.214</ele>
        <time>2020-07-16T10:03:16Z</time>
      </trkpt>
      <trkpt lat="41.874580" lon="-8.841460">
        <ele>1.108</ele>
        <time>2020-07-16T10:03:36Z</time>
      </trkpt>
      <trkpt lat="41.873640" lon="-8.842040">
        <ele>1.827</ele>
        <time>2020-07-16T10:03:56Z</time>
      </trkpt>
      <trkpt lat="41.872790" lon="-8.842640">
        <ele>0.954</ele>
        <time>2020-07-16T10:04:16Z</time>
      </trkpt>
      <trkpt lat="41.869990" lon="-8.844730">
        <ele>5.999</ele>
        <time>2020-07-16T10:04:36Z</time>
      </trkpt>
      <trkpt lat="41.869130" lon="-8.845400">
        <ele>2.957</ele>
        <time>2020-07-16T10:04:56Z</time>
      </trkpt>
      <trkpt lat="41.868990" lon="-8.845550">
        <ele>2.324</ele>
        <time>2020-07-16T10:05:16Z</time>
      </trkpt>
      <trkpt lat="41.868090" lon="-8.846330">
        <ele>2.194</ele>
        <time>2020-07-16T10:05:36Z</time>
      </trkpt>
      <trkpt lat="41.864320" lon="-8.849990">
        <ele>6.044</ele>
        <time>2020-07-16T10:05:56Z</time>
      </trkpt>
      <trkpt lat="41.864160" lon="-8.850080">
        <ele>6.885</ele>
        <time>2020-07-16T10:06:16Z</time>
      </trkpt>
      <trkpt lat="41.861960" lon="-8.852220">
        <ele>9.148</ele>
        <time>2020-07-16T10:06:36Z</time>
      </trkpt>
      <trkpt lat="41.854020" lon="-8.859870">
        <ele>15.561</ele>
        <time>2020-07-16T10:06:56Z</time>
      </trkpt>
      <trkpt lat="41.853650" lon="-8.860210">
        <ele>16.217</ele>
        <time>2020-07-16T10:07:16Z</time>
      </trkpt>
      <trkpt lat="41.853400" lon="-8.860380">
        <ele>17.208</ele>
        <time>2020-07-16T10:07:36Z</time>
      </trkpt>
      <trkpt lat="41.853030" lon="-8.860560">
        <ele>18.149</ele>
        <time>2020-07-16T10:07:56Z</time>
      </trkpt>
      <trkpt lat="41.852800" lon="-8.860630">
        <ele>18.796</ele>
        <time>2020-07-16T10:08:16Z</time>
      </trkpt>
      <trkpt lat="41.852460" lon="-8.860670">
        <ele>19.021</ele>
        <time>2020-07-16T10:08:36Z</time>
      </trkpt>
      <trkpt lat="41.851550" lon="-8.860650">
        <ele>18.089</ele>
        <time>2020-07-16T10:08:56Z</time>
      </trkpt>
      <trkpt lat="41.851080" lon="-8.860710">
        <ele>16.816</ele>
        <time>2020-07-16T10:09:16Z</time>
      </trkpt>
      <trkpt lat="41.851000" lon="-8.860730">
        <ele>16.436</ele>
        <time>2020-07-16T10:09:36Z</time>
      </trkpt>
      <trkpt lat="41.850960" lon="-8.860780">
        <ele>16.286</ele>
        <time>2020-07-16T10:09:56Z</time>
      </trkpt>
      <trkpt lat="41.850910" lon="-8.860800">
        <ele>16.187</ele>
        <time>2020-07-16T10:10:16Z</time>
      </trkpt>
      <trkpt lat="41.850860" lon="-8.860790">
        <ele>16.047</ele>
        <time>2020-07-16T10:10:36Z</time>
      </trkpt>
      <trkpt lat="41.850780" lon="-8.860680">
        <ele>16.529</ele>
        <time>2020-07-16T10:10:56Z</time>
      </trkpt>
      <trkpt lat="41.850410" lon="-8.860560">
        <ele>19.521</ele>
        <time>2020-07-16T10:11:16Z</time>
      </trkpt>
      <trkpt lat="41.849440" lon="-8.860530">
        <ele>27.208</ele>
        <time>2020-07-16T10:11:36Z</time>
      </trkpt>
      <trkpt lat="41.848980" lon="-8.860560">
        <ele>29.339</ele>
        <time>2020-07-16T10:11:56Z</time>
      </trkpt>
      <trkpt lat="41.848410" lon="-8.860670">
        <ele>31.766</ele>
        <time>2020-07-16T10:12:16Z</time>
      </trkpt>
      <trkpt lat="41.848090" lon="-8.860760">
        <ele>33.111</ele>
        <time>2020-07-16T10:12:36Z</time>
      </trkpt>
      <trkpt lat="41.847700" lon="-8.860900">
        <ele>31.249</ele>
        <time>2020-07-16T10:12:56Z</time>
      </trkpt>
      <trkpt lat="41.847150" lon="-8.861150">
        <ele>28.836</ele>
        <time>2020-07-16T10:13:16Z</time>
      </trkpt>
      <trkpt lat="41.846810" lon="-8.861350">
        <ele>27.316</ele>
        <time>2020-07-16T10:13:36Z</time>
      </trkpt>
      <trkpt lat="41.846050" lon="-8.861890">
        <ele>22.596</ele>
        <time>2020-07-16T10:13:56Z</time>
      </trkpt>
      <trkpt lat="41.845720" lon="-8.862160">
        <ele>22.327</ele>
        <time>2020-07-16T10:14:16Z</time>
      </trkpt>
      <trkpt lat="41.845200" lon="-8.862690">
        <ele>19.014</ele>
        <time>2020-07-16T10:14:36Z</time>
      </trkpt>
      <trkpt lat="41.844810" lon="-8.863140">
        <ele>16.654</ele>
        <time>2020-07-16T10:14:56Z</time>
      </trkpt>
      <trkpt lat="41.844490" lon="-8.863560">
        <ele>15.609</ele>
        <time>2020-07-16T10:15:16Z</time>
      </trkpt>
      <trkpt lat="41.843730" lon="-8.864720">
        <ele>21.708</ele>
        <time>2020-07-16T10:15:36Z</time>
      </trkpt>
      <trkpt lat="41.842180" lon="-8.867150">
        <ele>28.326</ele>
        <time>2020-07-16T10:15:56Z</time>
      </trkpt>
      <trkpt lat="41.841880" lon="-8.867580">
        <ele>30.343</ele>
        <time>2020-07-16T10:16:16Z</time>
      </trkpt>
      <trkpt lat="41.841630" lon="-8.867880">
        <ele>28.928</ele>
        <time>2020-07-16T10:16:36Z</time>
      </trkpt>
      <trkpt lat="41.841250" lon="-8.868280">
        <ele>30.816</ele>
        <time>2020-07-16T10:16:56Z</time>
      </trkpt>
      <trkpt lat="41.840830" lon="-8.868670">
        <ele>31.423</ele>
        <time>2020-07-16T10:17:16Z</time>
      </trkpt>
      <trkpt lat="41.840410" lon="-8.868990">
        <ele>31.593</ele>
        <time>2020-07-16T10:17:36Z</time>
      </trkpt>
      <trkpt lat="41.839940" lon="-8.869290">
        <ele>33.273</ele>
        <time>2020-07-16T10:17:56Z</time>
      </trkpt>
      <trkpt lat="41.839310" lon="-8.869570">
        <ele>33.984</ele>
        <time>2020-07-16T10:18:16Z</time>
      </trkpt>
      <trkpt lat="41.838640" lon="-8.869760">
        <ele>35.293</ele>
        <time>2020-07-16T10:18:36Z</time>
      </trkpt>
      <trkpt lat="41.837680" lon="-8.869890">
        <ele>34.165</ele>
        <time>2020-07-16T10:18:56Z</time>
      </trkpt>
      <trkpt lat="41.833520" lon="-8.870330">
        <ele>33.521</ele>
        <time>2020-07-16T10:19:16Z</time>
      </trkpt>
      <trkpt lat="41.830110" lon="-8.870690">
        <ele>27.008</ele>
        <time>2020-07-16T10:19:36Z</time>
      </trkpt>
      <trkpt lat="41.829190" lon="-8.870780">
        <ele>24.034</ele>
        <time>2020-07-16T10:19:56Z</time>
      </trkpt>
      <trkpt lat="41.828900" lon="-8.870790">
        <ele>22.871</ele>
        <time>2020-07-16T10:20:16Z</time>
      </trkpt>
      <trkpt lat="41.828470" lon="-8.870760">
        <ele>21.586</ele>
        <time>2020-07-16T10:20:36Z</time>
      </trkpt>
      <trkpt lat="41.827360" lon="-8.870610">
        <ele>21.274</ele>
        <time>2020-07-16T10:20:56Z</time>
      </trkpt>
      <trkpt lat="41.826140" lon="-8.870420">
        <ele>22.031</ele>
        <time>2020-07-16T10:21:16Z</time>
      </trkpt>
      <trkpt lat="41.825490" lon="-8.870250">
        <ele>23.751</ele>
        <time>2020-07-16T10:21:36Z</time>
      </trkpt>
      <trkpt lat="41.824590" lon="-8.869940">
        <ele>29.131</ele>
        <time>2020-07-16T10:21:56Z</time>
      </trkpt>
      <trkpt lat="41.824430" lon="-8.869920">
        <ele>28.982</ele>
        <time>2020-07-16T10:22:16Z</time>
      </trkpt>
      <trkpt lat="41.824320" lon="-8.870040">
        <ele>27.854</ele>
        <time>2020-07-16T10:22:36Z</time>
      </trkpt>
      <trkpt lat="41.824200" lon="-8.870080">
        <ele>26.756</ele>
        <time>2020-07-16T10:22:56Z</time>
      </trkpt>
      <trkpt lat="41.824060" lon="-8.870020">
        <ele>25.811</ele>
        <time>2020-07-16T10:23:16Z</time>
      </trkpt>
      <trkpt lat="41.823970" lon="-8.869900">
        <ele>25.108</ele>
        <time>2020-07-16T10:23:36Z</time>
      </trkpt>
      <trkpt lat="41.823930" lon="-8.869750">
        <ele>25.270</ele>
        <time>2020-07-16T10:23:56Z</time>
      </trkpt>
      <trkpt lat="41.823420" lon="-8.869130">
        <ele>24.857</ele>
        <time>2020-07-16T10:24:16Z</time>
      </trkpt>
      <trkpt lat="41.822670" lon="-8.868440">
        <ele>26.892</ele>
        <time>2020-07-16T10:24:36Z</time>
      </trkpt>
      <trkpt lat="41.822300" lon="-8.868070">
        <ele>28.240</ele>
        <time>2020-07-16T10:24:56Z</time>
      </trkpt>
      <trkpt lat="41.821480" lon="-8.867160">
        <ele>31.387</ele>
        <time>2020-07-16T10:25:16Z</time>
      </trkpt>
      <trkpt lat="41.820580" lon="-8.866230">
        <ele>34.827</ele>
        <time>2020-07-16T10:25:36Z</time>
      </trkpt>
      <trkpt lat="41.819900" lon="-8.865470">
        <ele>36.777</ele>
        <time>2020-07-16T10:25:56Z</time>
      </trkpt>
      <trkpt lat="41.818480" lon="-8.864010">
        <ele>46.458</ele>
        <time>2020-07-16T10:26:16Z</time>
      </trkpt>
      <trkpt lat="41.816710" lon="-8.862040">
        <ele>38.993</ele>
        <time>2020-07-16T10:26:36Z</time>
      </trkpt>
      <trkpt lat="41.816400" lon="-8.861720">
        <ele>33.365</ele>
        <time>2020-07-16T10:26:56Z</time>
      </trkpt>
      <trkpt lat="41.816340" lon="-8.861690">
        <ele>32.621</ele>
        <time>2020-07-16T10:27:16Z</time>
      </trkpt>
      <trkpt lat="41.814680" lon="-8.860100">
        <ele>18.308</ele>
        <time>2020-07-16T10:27:36Z</time>
      </trkpt>
      <trkpt lat="41.812110" lon="-8.857730">
        <ele>7.864</ele>
        <time>2020-07-16T10:27:56Z</time>
      </trkpt>
      <trkpt lat="41.811810" lon="-8.857480">
        <ele>8.681</ele>
        <time>2020-07-16T10:28:16Z</time>
      </trkpt>
      <trkpt lat="41.811120" lon="-8.856960">
        <ele>7.056</ele>
        <time>2020-07-16T10:28:36Z</time>
      </trkpt>
      <trkpt lat="41.810460" lon="-8.856550">
        <ele>8.594</ele>
        <time>2020-07-16T10:28:56Z</time>
      </trkpt>
      <trkpt lat="41.809890" lon="-8.856290">
        <ele>6.011</ele>
        <time>2020-07-16T10:29:16Z</time>
      </trkpt>
      <trkpt lat="41.809480" lon="-8.856170">
        <ele>6.091</ele>
        <time>2020-07-16T10:29:36Z</time>
      </trkpt>
      <trkpt lat="41.809130" lon="-8.856090">
        <ele>6.051</ele>
        <time>2020-07-16T10:29:56Z</time>
      </trkpt>
      <trkpt lat="41.808820" lon="-8.856040">
        <ele>6.232</ele>
        <time>2020-07-16T10:30:16Z</time>
      </trkpt>
      <trkpt lat="41.808170" lon="-8.855990">
        <ele>5.843</ele>
        <time>2020-07-16T10:30:36Z</time>
      </trkpt>
      <trkpt lat="41.807960" lon="-8.856040">
        <ele>6.064</ele>
        <time>2020-07-16T10:30:56Z</time>
      </trkpt>
      <trkpt lat="41.807880" lon="-8.856140">
        <ele>6.010</ele>
        <time>2020-07-16T10:31:16Z</time>
      </trkpt>
      <trkpt lat="41.807780" lon="-8.856150">
        <ele>6.008</ele>
        <time>2020-07-16T10:31:36Z</time>
      </trkpt>
      <trkpt lat="41.807690" lon="-8.856090">
        <ele>5.789</ele>
        <time>2020-07-16T10:31:56Z</time>
      </trkpt>
      <trkpt lat="41.807660" lon="-8.856040">
        <ele>5.696</ele>
        <time>2020-07-16T10:32:16Z</time>
      </trkpt>
      <trkpt lat="41.807260" lon="-8.855980">
        <ele>3.731</ele>
        <time>2020-07-16T10:32:36Z</time>
      </trkpt>
      <trkpt lat="41.806760" lon="-8.856000">
        <ele>3.739</ele>
        <time>2020-07-16T10:32:56Z</time>
      </trkpt>
      <trkpt lat="41.804760" lon="-8.856320">
        <ele>11.686</ele>
        <time>2020-07-16T10:33:16Z</time>
      </trkpt>
      <trkpt lat="41.803050" lon="-8.856640">
        <ele>9.186</ele>
        <time>2020-07-16T10:33:36Z</time>
      </trkpt>
      <trkpt lat="41.802770" lon="-8.856660">
        <ele>10.166</ele>
        <time>2020-07-16T10:33:56Z</time>
      </trkpt>
      <trkpt lat="41.802120" lon="-8.856760">
        <ele>14.347</ele>
        <time>2020-07-16T10:34:16Z</time>
      </trkpt>
      <trkpt lat="41.800460" lon="-8.856960">
        <ele>22.966</ele>
        <time>2020-07-16T10:34:36Z</time>
      </trkpt>
      <trkpt lat="41.799490" lon="-8.857090">
        <ele>29.229</ele>
        <time>2020-07-16T10:34:56Z</time>
      </trkpt>
      <trkpt lat="41.799200" lon="-8.857160">
        <ele>28.321</ele>
        <time>2020-07-16T10:35:16Z</time>
      </trkpt>
      <trkpt lat="41.798520" lon="-8.857480">
        <ele>28.308</ele>
        <time>2020-07-16T10:35:36Z</time>
      </trkpt>
      <trkpt lat="41.798310" lon="-8.857590">
        <ele>29.461</ele>
        <time>2020-07-16T10:35:56Z</time>
      </trkpt>
      <trkpt lat="41.797880" lon="-8.857880">
        <ele>32.088</ele>
        <time>2020-07-16T10:36:16Z</time>
      </trkpt>
      <trkpt lat="41.797630" lon="-8.858080">
        <ele>34.313</ele>
        <time>2020-07-16T10:36:36Z</time>
      </trkpt>
      <trkpt lat="41.797410" lon="-8.858300">
        <ele>37.771</ele>
        <time>2020-07-16T10:36:56Z</time>
      </trkpt>
      <trkpt lat="41.797080" lon="-8.858680">
        <ele>38.798</ele>
        <time>2020-07-16T10:37:16Z</time>
      </trkpt>
      <trkpt lat="41.796650" lon="-8.859300">
        <ele>38.978</ele>
        <time>2020-07-16T10:37:36Z</time>
      </trkpt>
      <trkpt lat="41.796380" lon="-8.859770">
        <ele>40.218</ele>
        <time>2020-07-16T10:37:56Z</time>
      </trkpt>
      <trkpt lat="41.793750" lon="-8.864480">
        <ele>44.489</ele>
        <time>2020-07-16T10:38:16Z</time>
      </trkpt>
      <trkpt lat="41.793140" lon="-8.865680">
        <ele>42.382</ele>
        <time>2020-07-16T10:38:36Z</time>
      </trkpt>
      <trkpt lat="41.792580" lon="-8.866680">
        <ele>39.843</ele>
        <time>2020-07-16T10:38:56Z</time>
      </trkpt>
      <trkpt lat="41.792460" lon="-8.866840">
        <ele>38.017</ele>
        <time>2020-07-16T10:39:16Z</time>
      </trkpt>
      <trkpt lat="41.792250" lon="-8.867170">
        <ele>36.208</ele>
        <time>2020-07-16T10:39:36Z</time>
      </trkpt>
      <trkpt lat="41.792150" lon="-8.867290">
        <ele>35.733</ele>
        <time>2020-07-16T10:39:56Z</time>
      </trkpt>
      <trkpt lat="41.791840" lon="-8.867630">
        <ele>34.960</ele>
        <time>2020-07-16T10:40:16Z</time>
      </trkpt>
      <trkpt lat="41.791560" lon="-8.867880">
        <ele>34.175</ele>
        <time>2020-07-16T10:40:36Z</time>
      </trkpt>
      <trkpt lat="41.791230" lon="-8.868100">
        <ele>29.893</ele>
        <time>2020-07-16T10:40:56Z</time>
      </trkpt>
      <trkpt lat="41.790910" lon="-8.868250">
        <ele>24.590</ele>
        <time>2020-07-16T10:41:16Z</time>
      </trkpt>
      <trkpt lat="41.790560" lon="-8.868370">
        <ele>19.850</ele>
        <time>2020-07-16T10:41:36Z</time>
      </trkpt>
      <trkpt lat="41.790220" lon="-8.868440">
        <ele>17.290</ele>
        <time>2020-07-16T10:41:56Z</time>
      </trkpt>
      <trkpt lat="41.790020" lon="-8.868460">
        <ele>17.141</ele>
        <time>2020-07-16T10:42:16Z</time>
      </trkpt>
      <trkpt lat="41.789690" lon="-8.868450">
        <ele>16.329</ele>
        <time>2020-07-16T10:42:36Z</time>
      </trkpt>
      <trkpt lat="41.789430" lon="-8.868420">
        <ele>16.100</ele>
        <time>2020-07-16T10:42:56Z</time>
      </trkpt>
      <trkpt lat="41.789150" lon="-8.868350">
        <ele>16.820</ele>
        <time>2020-07-16T10:43:16Z</time>
      </trkpt>
      <trkpt lat="41.788910" lon="-8.868260">
        <ele>15.408</ele>
        <time>2020-07-16T10:43:36Z</time>
      </trkpt>
      <trkpt lat="41.787730" lon="-8.867710">
        <ele>9.747</ele>
        <time>2020-07-16T10:43:56Z</time>
      </trkpt>
      <trkpt lat="41.783640" lon="-8.865750">
        <ele>13.184</ele>
        <time>2020-07-16T10:44:16Z</time>
      </trkpt>
      <trkpt lat="41.782670" lon="-8.865330">
        <ele>12.029</ele>
        <time>2020-07-16T10:44:36Z</time>
      </trkpt>
      <trkpt lat="41.782600" lon="-8.865320">
        <ele>11.617</ele>
        <time>2020-07-16T10:44:56Z</time>
      </trkpt>
      <trkpt lat="41.782500" lon="-8.865340">
        <ele>10.824</ele>
        <time>2020-07-16T10:45:16Z</time>
      </trkpt>
      <trkpt lat="41.782460" lon="-8.865370">
        <ele>10.474</ele>
        <time>2020-07-16T10:45:36Z</time>
      </trkpt>
      <trkpt lat="41.782330" lon="-8.865370">
        <ele>9.684</ele>
        <time>2020-07-16T10:45:56Z</time>
      </trkpt>
      <trkpt lat="41.782260" lon="-8.865280">
        <ele>9.335</ele>
        <time>2020-07-16T10:46:16Z</time>
      </trkpt>
      <trkpt lat="41.782230" lon="-8.865170">
        <ele>9.874</ele>
        <time>2020-07-16T10:46:36Z</time>
      </trkpt>
      <trkpt lat="41.781650" lon="-8.864840">
        <ele>15.056</ele>
        <time>2020-07-16T10:46:56Z</time>
      </trkpt>
      <trkpt lat="41.780570" lon="-8.864330">
        <ele>16.321</ele>
        <time>2020-07-16T10:47:16Z</time>
      </trkpt>
      <trkpt lat="41.779840" lon="-8.863950">
        <ele>16.208</ele>
        <time>2020-07-16T10:47:36Z</time>
      </trkpt>
      <trkpt lat="41.778290" lon="-8.863180">
        <ele>19.392</ele>
        <time>2020-07-16T10:47:56Z</time>
      </trkpt>
      <trkpt lat="41.777530" lon="-8.862860">
        <ele>19.429</ele>
        <time>2020-07-16T10:48:16Z</time>
      </trkpt>
      <trkpt lat="41.777040" lon="-8.862690">
        <ele>18.244</ele>
        <time>2020-07-16T10:48:36Z</time>
      </trkpt>
      <trkpt lat="41.776370" lon="-8.862500">
        <ele>19.062</ele>
        <time>2020-07-16T10:48:56Z</time>
      </trkpt>
      <trkpt lat="41.775740" lon="-8.862360">
        <ele>18.779</ele>
        <time>2020-07-16T10:49:16Z</time>
      </trkpt>
      <trkpt lat="41.774560" lon="-8.862220">
        <ele>17.019</ele>
        <time>2020-07-16T10:49:36Z</time>
      </trkpt>
      <trkpt lat="41.773540" lon="-8.862220">
        <ele>14.399</ele>
        <time>2020-07-16T10:49:56Z</time>
      </trkpt>
      <trkpt lat="41.770470" lon="-8.862540">
        <ele>20.220</ele>
        <time>2020-07-16T10:50:16Z</time>
      </trkpt>
      <trkpt lat="41.770360" lon="-8.862570">
        <ele>20.643</ele>
        <time>2020-07-16T10:50:36Z</time>
      </trkpt>
      <trkpt lat="41.769360" lon="-8.862700">
        <ele>21.264</ele>
        <time>2020-07-16T10:50:56Z</time>
      </trkpt>
      <trkpt lat="41.768330" lon="-8.862770">
        <ele>22.110</ele>
        <time>2020-07-16T10:51:16Z</time>
      </trkpt>
      <trkpt lat="41.766790" lon="-8.862940">
        <ele>27.208</ele>
        <time>2020-07-16T10:51:36Z</time>
      </trkpt>
      <trkpt lat="41.766020" lon="-8.863040">
        <ele>32.539</ele>
        <time>2020-07-16T10:51:56Z</time>
      </trkpt>
      <trkpt lat="41.765220" lon="-8.863170">
        <ele>30.876</ele>
        <time>2020-07-16T10:52:16Z</time>
      </trkpt>
      <trkpt lat="41.763480" lon="-8.863550">
        <ele>30.011</ele>
        <time>2020-07-16T10:52:36Z</time>
      </trkpt>
      <trkpt lat="41.762370" lon="-8.863880">
        <ele>32.069</ele>
        <time>2020-07-16T10:52:56Z</time>
      </trkpt>
      <trkpt lat="41.755310" lon="-8.866120">
        <ele>35.866</ele>
        <time>2020-07-16T10:53:16Z</time>
      </trkpt>
      <trkpt lat="41.752490" lon="-8.867010">
        <ele>45.866</ele>
        <time>2020-07-16T10:53:36Z</time>
      </trkpt>
      <trkpt lat="41.752380" lon="-8.867070">
        <ele>46.656</ele>
        <time>2020-07-16T10:53:56Z</time>
      </trkpt>
      <trkpt lat="41.751950" lon="-8.867180">
        <ele>50.897</ele>
        <time>2020-07-16T10:54:16Z</time>
      </trkpt>
      <trkpt lat="41.751350" lon="-8.867230">
        <ele>48.079</ele>
        <time>2020-07-16T10:54:36Z</time>
      </trkpt>
      <trkpt lat="41.750820" lon="-8.867190">
        <ele>47.805</ele>
        <time>2020-07-16T10:54:56Z</time>
      </trkpt>
      <trkpt lat="41.750440" lon="-8.867130">
        <ele>46.225</ele>
        <time>2020-07-16T10:55:16Z</time>
      </trkpt>
      <trkpt lat="41.748560" lon="-8.866610">
        <ele>34.408</ele>
        <time>2020-07-16T10:55:36Z</time>
      </trkpt>
      <trkpt lat="41.748440" lon="-8.866540">
        <ele>33.362</ele>
        <time>2020-07-16T10:55:56Z</time>
      </trkpt>
      <trkpt lat="41.747780" lon="-8.866370">
        <ele>29.939</ele>
        <time>2020-07-16T10:56:16Z</time>
      </trkpt>
      <trkpt lat="41.745690" lon="-8.865780">
        <ele>23.854</ele>
        <time>2020-07-16T10:56:36Z</time>
      </trkpt>
      <trkpt lat="41.745170" lon="-8.865600">
        <ele>23.052</ele>
        <time>2020-07-16T10:56:56Z</time>
      </trkpt>
      <trkpt lat="41.744200" lon="-8.865180">
        <ele>23.439</ele>
        <time>2020-07-16T10:57:16Z</time>
      </trkpt>
      <trkpt lat="41.743980" lon="-8.865110">
        <ele>23.339</ele>
        <time>2020-07-16T10:57:36Z</time>
      </trkpt>
      <trkpt lat="41.743930" lon="-8.865130">
        <ele>23.139</ele>
        <time>2020-07-16T10:57:56Z</time>
      </trkpt>
      <trkpt lat="41.743850" lon="-8.865090">
        <ele>23.420</ele>
        <time>2020-07-16T10:58:16Z</time>
      </trkpt>
      <trkpt lat="41.743820" lon="-8.864990">
        <ele>24.061</ele>
        <time>2020-07-16T10:58:36Z</time>
      </trkpt>
      <trkpt lat="41.743750" lon="-8.864930">
        <ele>24.321</ele>
        <time>2020-07-16T10:58:56Z</time>
      </trkpt>
      <trkpt lat="41.743060" lon="-8.864640">
        <ele>24.313</ele>
        <time>2020-07-16T10:59:16Z</time>
      </trkpt>
      <trkpt lat="41.741810" lon="-8.864280">
        <ele>23.908</ele>
        <time>2020-07-16T10:59:36Z</time>
      </trkpt>
      <trkpt lat="41.737720" lon="-8.863220">
        <ele>20.361</ele>
        <time>2020-07-16T10:59:56Z</time>
      </trkpt>
      <trkpt lat="41.728680" lon="-8.860910">
        <ele>14.348</ele>
        <time>2020-07-16T11:00:16Z</time>
      </trkpt>
      <trkpt lat="41.724740" lon="-8.859910">
        <ele>10.383</ele>
        <time>2020-07-16T11:00:36Z</time>
      </trkpt>
      <trkpt lat="41.724360" lon="-8.859800">
        <ele>9.681</ele>
        <time>2020-07-16T11:00:56Z</time>
      </trkpt>
      <trkpt lat="41.723840" lon="-8.859590">
        <ele>8.488</ele>
        <time>2020-07-16T11:01:16Z</time>
      </trkpt>
      <trkpt lat="41.723840" lon="-8.859610">
        <ele>8.338</ele>
        <time>2020-07-16T11:01:36Z</time>
      </trkpt>
      <trkpt lat="41.723780" lon="-8.859690">
        <ele>7.888</ele>
        <time>2020-07-16T11:01:56Z</time>
      </trkpt>
      <trkpt lat="41.723730" lon="-8.859700">
        <ele>7.629</ele>
        <time>2020-07-16T11:02:16Z</time>
      </trkpt>
      <trkpt lat="41.723690" lon="-8.859690">
        <ele>7.522</ele>
        <time>2020-07-16T11:02:36Z</time>
      </trkpt>
      <trkpt lat="41.723640" lon="-8.859610">
        <ele>7.962</ele>
        <time>2020-07-16T11:02:56Z</time>
      </trkpt>
      <trkpt lat="41.723520" lon="-8.859640">
        <ele>7.608</ele>
        <time>2020-07-16T11:03:16Z</time>
      </trkpt>
      <trkpt lat="41.723150" lon="-8.859640">
        <ele>8.108</ele>
        <time>2020-07-16T11:03:36Z</time>
      </trkpt>
      <trkpt lat="41.722440" lon="-8.859570">
        <ele>8.147</ele>
        <time>2020-07-16T11:03:56Z</time>
      </trkpt>
      <trkpt lat="41.722260" lon="-8.859580">
        <ele>8.474</ele>
        <time>2020-07-16T11:04:16Z</time>
      </trkpt>
      <trkpt lat="41.721730" lon="-8.859510">
        <ele>8.249</ele>
        <time>2020-07-16T11:04:36Z</time>
      </trkpt>
      <trkpt lat="41.721470" lon="-8.859430">
        <ele>8.777</ele>
        <time>2020-07-16T11:04:56Z</time>
      </trkpt>
      <trkpt lat="41.721220" lon="-8.859340">
        <ele>9.284</ele>
        <time>2020-07-16T11:05:16Z</time>
      </trkpt>
      <trkpt lat="41.720520" lon="-8.858980">
        <ele>9.674</ele>
        <time>2020-07-16T11:05:36Z</time>
      </trkpt>
      <trkpt lat="41.718150" lon="-8.857630">
        <ele>10.284</ele>
        <time>2020-07-16T11:05:56Z</time>
      </trkpt>
      <trkpt lat="41.716630" lon="-8.856790">
        <ele>10.945</ele>
        <time>2020-07-16T11:06:16Z</time>
      </trkpt>
      <trkpt lat="41.715130" lon="-8.855920">
        <ele>10.594</ele>
        <time>2020-07-16T11:06:36Z</time>
      </trkpt>
      <trkpt lat="41.714170" lon="-8.855410">
        <ele>10.557</ele>
        <time>2020-07-16T11:06:56Z</time>
      </trkpt>
      <trkpt lat="41.713470" lon="-8.854990">
        <ele>9.522</ele>
        <time>2020-07-16T11:07:16Z</time>
      </trkpt>
      <trkpt lat="41.711530" lon="-8.853880">
        <ele>11.508</ele>
        <time>2020-07-16T11:07:36Z</time>
      </trkpt>
      <trkpt lat="41.710600" lon="-8.853300">
        <ele>14.124</ele>
        <time>2020-07-16T11:07:56Z</time>
      </trkpt>
      <trkpt lat="41.709090" lon="-8.852420">
        <ele>14.521</ele>
        <time>2020-07-16T11:08:16Z</time>
      </trkpt>
      <trkpt lat="41.709000" lon="-8.852400">
        <ele>14.556</ele>
        <time>2020-07-16T11:08:36Z</time>
      </trkpt>
      <trkpt lat="41.708250" lon="-8.851990">
        <ele>14.214</ele>
        <time>2020-07-16T11:08:56Z</time>
      </trkpt>
      <trkpt lat="41.706920" lon="-8.851210">
        <ele>14.741</ele>
        <time>2020-07-16T11:09:16Z</time>
      </trkpt>
      <trkpt lat="41.706840" lon="-8.851130">
        <ele>15.011</ele>
        <time>2020-07-16T11:09:36Z</time>
      </trkpt>
      <trkpt lat="41.705510" lon="-8.850390">
        <ele>13.461</ele>
        <time>2020-07-16T11:09:56Z</time>
      </trkpt>
      <trkpt lat="41.703700" lon="-8.849330">
        <ele>12.122</ele>
        <time>2020-07-16T11:10:16Z</time>
      </trkpt>
      <trkpt lat="41.701950" lon="-8.848340">
        <ele>12.065</ele>
        <time>2020-07-16T11:10:36Z</time>
      </trkpt>
      <trkpt lat="41.701730" lon="-8.848260">
        <ele>11.268</ele>
        <time>2020-07-16T11:10:56Z</time>
      </trkpt>
      <trkpt lat="41.701380" lon="-8.848190">
        <ele>10.014</ele>
        <time>2020-07-16T11:11:16Z</time>
      </trkpt>
      <trkpt lat="41.701290" lon="-8.848250">
        <ele>9.408</ele>
        <time>2020-07-16T11:11:36Z</time>
      </trkpt>
      <trkpt lat="41.701200" lon="-8.848250">
        <ele>8.881</ele>
        <time>2020-07-16T11:11:56Z</time>
      </trkpt>
      <trkpt lat="41.701110" lon="-8.848210">
        <ele>8.448</ele>
        <time>2020-07-16T11:12:16Z</time>
      </trkpt>
      <trkpt lat="41.701010" lon="-8.848030">
        <ele>9.173</ele>
        <time>2020-07-16T11:12:36Z</time>
      </trkpt>
      <trkpt lat="41.701030" lon="-8.847810">
        <ele>9.951</ele>
        <time>2020-07-16T11:12:56Z</time>
      </trkpt>
      <trkpt lat="41.701000" lon="-8.847660">
        <ele>10.818</ele>
        <time>2020-07-16T11:13:16Z</time>
      </trkpt>
      <trkpt lat="41.700920" lon="-8.847450">
        <ele>12.268</ele>
        <time>2020-07-16T11:13:36Z</time>
      </trkpt>
      <trkpt lat="41.700650" lon="-8.847080">
        <ele>14.068</ele>
        <time>2020-07-16T11:13:56Z</time>
      </trkpt>
      <trkpt lat="41.698510" lon="-8.845320">
        <ele>14.659</ele>
        <time>2020-07-16T11:14:16Z</time>
      </trkpt>
      <trkpt lat="41.696000" lon="-8.843250">
        <ele>12.929</ele>
        <time>2020-07-16T11:14:36Z</time>
      </trkpt>
      <trkpt lat="41.695590" lon="-8.842890">
        <ele>11.500</ele>
        <time>2020-07-16T11:14:56Z</time>
      </trkpt>
      <trkpt lat="41.695340" lon="-8.842620">
        <ele>11.420</ele>
        <time>2020-07-16T11:15:16Z</time>
      </trkpt>
      <trkpt lat="41.695020" lon="-8.842150">
        <ele>12.308</ele>
        <time>2020-07-16T11:15:36Z</time>
      </trkpt>
      <trkpt lat="41.694880" lon="-8.841880">
        <ele>13.287</ele>
        <time>2020-07-16T11:15:56Z</time>
      </trkpt>
      <trkpt lat="41.694820" lon="-8.841810">
        <ele>13.594</ele>
        <time>2020-07-16T11:16:16Z</time>
      </trkpt>
      <trkpt lat="41.694730" lon="-8.841380">
        <ele>14.059</ele>
        <time>2020-07-16T11:16:36Z</time>
      </trkpt>
      <trkpt lat="41.694710" lon="-8.841080">
        <ele>13.937</ele>
        <time>2020-07-16T11:16:56Z</time>
      </trkpt>
      <trkpt lat="41.694730" lon="-8.840810">
        <ele>14.244</ele>
        <time>2020-07-16T11:17:16Z</time>
      </trkpt>
      <trkpt lat="41.694670" lon="-8.839620">
        <ele>20.674</ele>
        <time>2020-07-16T11:17:36Z</time>
      </trkpt>
      <trkpt lat="41.694600" lon="-8.838590">
        <ele>24.454</ele>
        <time>2020-07-16T11:17:56Z</time>
      </trkpt>
      <trkpt lat="41.694460" lon="-8.837050">
        <ele>31.455</ele>
        <time>2020-07-16T11:18:16Z</time>
      </trkpt>
      <trkpt lat="41.694470" lon="-8.836540">
        <ele>35.992</ele>
        <time>2020-07-16T11:18:36Z</time>
      </trkpt>
      <trkpt lat="41.694510" lon="-8.836250">
        <ele>36.873</ele>
        <time>2020-07-16T11:18:56Z</time>
      </trkpt>
      <trkpt lat="41.694580" lon="-8.835950">
        <ele>37.620</ele>
        <time>2020-07-16T11:19:16Z</time>
      </trkpt>
      <trkpt lat="41.694930" lon="-8.834940">
        <ele>35.608</ele>
        <time>2020-07-16T11:19:36Z</time>
      </trkpt>
      <trkpt lat="41.695850" lon="-8.832430">
        <ele>26.694</ele>
        <time>2020-07-16T11:19:56Z</time>
      </trkpt>
      <trkpt lat="41.697100" lon="-8.828770">
        <ele>17.821</ele>
        <time>2020-07-16T11:20:16Z</time>
      </trkpt>
      <trkpt lat="41.697300" lon="-8.828130">
        <ele>16.846</ele>
        <time>2020-07-16T11:20:36Z</time>
      </trkpt>
      <trkpt lat="41.697380" lon="-8.827800">
        <ele>16.864</ele>
        <time>2020-07-16T11:20:56Z</time>
      </trkpt>
      <trkpt lat="41.697520" lon="-8.826530">
        <ele>11.671</ele>
        <time>2020-07-16T11:21:16Z</time>
      </trkpt>
      <trkpt lat="41.697460" lon="-8.825610">
        <ele>12.721</ele>
        <time>2020-07-16T11:21:36Z</time>
      </trkpt>
      <trkpt lat="41.697390" lon="-8.825220">
        <ele>12.531</ele>
        <time>2020-07-16T11:21:56Z</time>
      </trkpt>
      <trkpt lat="41.697110" lon="-8.824290">
        <ele>9.352</ele>
        <time>2020-07-16T11:22:16Z</time>
      </trkpt>
      <trkpt lat="41.696980" lon="-8.823980">
        <ele>9.052</ele>
        <time>2020-07-16T11:22:36Z</time>
      </trkpt>
      <trkpt lat="41.696620" lon="-8.823280">
        <ele>7.853</ele>
        <time>2020-07-16T11:22:56Z</time>
      </trkpt>
      <trkpt lat="41.695760" lon="-8.822080">
        <ele>7.108</ele>
        <time>2020-07-16T11:23:16Z</time>
      </trkpt>
      <trkpt lat="41.695640" lon="-8.821960">
        <ele>6.808</ele>
        <time>2020-07-16T11:23:36Z</time>
      </trkpt>
      <trkpt lat="41.695510" lon="-8.821780">
        <ele>6.410</ele>
        <time>2020-07-16T11:23:56Z</time>
      </trkpt>
      <trkpt lat="41.695470" lon="-8.821750">
        <ele>6.327</ele>
        <time>2020-07-16T11:24:16Z</time>
      </trkpt>
      <trkpt lat="41.695410" lon="-8.821760">
        <ele>6.362</ele>
        <time>2020-07-16T11:24:36Z</time>
      </trkpt>
      <trkpt lat="41.695160" lon="-8.822080">
        <ele>6.830</ele>
        <time>2020-07-16T11:24:56Z</time>
      </trkpt>
      <trkpt lat="41.695650" lon="-8.822740">
        <ele>8.387</ele>
        <time>2020-07-16T11:25:16Z</time>
      </trkpt>
      <trkpt lat="41.695680" lon="-8.822650">
        <ele>8.417</ele>
        <time>2020-07-16T11:25:36Z</time>
      </trkpt>
      <trkpt lat="41.695740" lon="-8.822580">
        <ele>8.727</ele>
        <time>2020-07-16T11:25:56Z</time>
      </trkpt>
      <trkpt lat="41.695800" lon="-8.822560">
        <ele>8.928</ele>
        <time>2020-07-16T11:26:16Z</time>
      </trkpt>
      <trkpt lat="41.695760" lon="-8.822360">
        <ele>8.414</ele>
        <time>2020-07-16T11:26:36Z</time>
      </trkpt>
      <trkpt lat="41.695730" lon="-8.822300">
        <ele>8.254</ele>
        <time>2020-07-16T11:26:56Z</time>
      </trkpt>
      <trkpt lat="41.695020" lon="-8.821290">
        <ele>5.309</ele>
        <time>2020-07-16T11:27:16Z</time>
      </trkpt>
      <trkpt lat="41.694960" lon="-8.821150">
        <ele>3.808</ele>
        <time>2020-07-16T11:27:36Z</time>
      </trkpt>
      <trkpt lat="41.694870" lon="-8.821000">
        <ele>1.886</ele>
        <time>2020-07-16T11:27:56Z</time>
      </trkpt>
      <trkpt lat="41.692900" lon="-8.818420">
        <ele>0.093</ele>
        <time>2020-07-16T11:28:16Z</time>
      </trkpt>
      <trkpt lat="41.691610" lon="-8.816740">
        <ele>0.018</ele>
        <time>2020-07-16T11:28:36Z</time>
      </trkpt>
      <trkpt lat="41.691230" lon="-8.816270">
        <ele>0.096</ele>
        <time>2020-07-16T11:28:56Z</time>
      </trkpt>
      <trkpt lat="41.691150" lon="-8.816230">
        <ele>0.043</ele>
        <time>2020-07-16T11:29:16Z</time>
      </trkpt>
      <trkpt lat="41.690260" lon="-8.815170">
        <ele>0.013</ele>
        <time>2020-07-16T11:29:36Z</time>
      </trkpt>
      <trkpt lat="41.689670" lon="-8.814500">
        <ele>0.023</ele>
        <time>2020-07-16T11:29:56Z</time>
      </trkpt>
      <trkpt lat="41.688370" lon="-8.812840">
        <ele>0.094</ele>
        <time>2020-07-16T11:30:16Z</time>
      </trkpt>
      <trkpt lat="41.688170" lon="-8.812750">
        <ele>0.037</ele>
        <time>2020-07-16T11:30:36Z</time>
      </trkpt>
      <trkpt lat="41.688060" lon="-8.812750">
        <ele>0.049</ele>
        <time>2020-07-16T11:30:56Z</time>
      </trkpt>
      <trkpt lat="41.687960" lon="-8.812790">
        <ele>0.713</ele>
        <time>2020-07-16T11:31:16Z</time>
      </trkpt>
      <trkpt lat="41.687890" lon="-8.812840">
        <ele>1.108</ele>
        <time>2020-07-16T11:31:36Z</time>
      </trkpt>
      <trkpt lat="41.687820" lon="-8.812840">
        <ele>1.598</ele>
        <time>2020-07-16T11:31:56Z</time>
      </trkpt>
      <trkpt lat="41.687760" lon="-8.812810">
        <ele>1.965</ele>
        <time>2020-07-16T11:32:16Z</time>
      </trkpt>
      <trkpt lat="41.687720" lon="-8.812760">
        <ele>2.370</ele>
        <time>2020-07-16T11:32:36Z</time>
      </trkpt>
      <trkpt lat="41.687700" lon="-8.812630">
        <ele>2.868</ele>
        <time>2020-07-16T11:32:56Z</time>
      </trkpt>
      <trkpt lat="41.687710" lon="-8.812590">
        <ele>2.985</ele>
        <time>2020-07-16T11:33:16Z</time>
      </trkpt>
      <trkpt lat="41.687580" lon="-8.812470">
        <ele>3.895</ele>
        <time>2020-07-16T11:33:36Z</time>
      </trkpt>
      <trkpt lat="41.687470" lon="-8.812420">
        <ele>4.485</ele>
        <time>2020-07-16T11:33:56Z</time>
      </trkpt>
      <trkpt lat="41.687340" lon="-8.812440">
        <ele>4.776</ele>
        <time>2020-07-16T11:34:16Z</time>
      </trkpt>
      <trkpt lat="41.686510" lon="-8.812670">
        <ele>4.633</ele>
        <time>2020-07-16T11:34:36Z</time>
      </trkpt>
      <trkpt lat="41.686310" lon="-8.812680">
        <ele>4.723</ele>
        <time>2020-07-16T11:34:56Z</time>
      </trkpt>
      <trkpt lat="41.686110" lon="-8.812640">
        <ele>5.015</ele>
        <time>2020-07-16T11:35:16Z</time>
      </trkpt>
      <trkpt lat="41.685970" lon="-8.812560">
        <ele>5.008</ele>
        <time>2020-07-16T11:35:36Z</time>
      </trkpt>
      <trkpt lat="41.684830" lon="-8.811550">
        <ele>6.898</ele>
        <time>2020-07-16T11:35:56Z</time>
      </trkpt>
      <trkpt lat="41.684440" lon="-8.811240">
        <ele>8.085</ele>
        <time>2020-07-16T11:36:16Z</time>
      </trkpt>
      <trkpt lat="41.684100" lon="-8.810940">
        <ele>11.220</ele>
        <time>2020-07-16T11:36:36Z</time>
      </trkpt>
      <trkpt lat="41.683400" lon="-8.810180">
        <ele>14.988</ele>
        <time>2020-07-16T11:36:56Z</time>
      </trkpt>
      <trkpt lat="41.683160" lon="-8.809890">
        <ele>16.225</ele>
        <time>2020-07-16T11:37:16Z</time>
      </trkpt>
      <trkpt lat="41.683090" lon="-8.809760">
        <ele>16.015</ele>
        <time>2020-07-16T11:37:36Z</time>
      </trkpt>
      <trkpt lat="41.682520" lon="-8.809090">
        <ele>13.745</ele>
        <time>2020-07-16T11:37:56Z</time>
      </trkpt>
      <trkpt lat="41.681020" lon="-8.807370">
        <ele>17.216</ele>
        <time>2020-07-16T11:38:16Z</time>
      </trkpt>
      <trkpt lat="41.680700" lon="-8.807080">
        <ele>17.222</ele>
        <time>2020-07-16T11:38:36Z</time>
      </trkpt>
      <trkpt lat="41.680650" lon="-8.807080">
        <ele>17.562</ele>
        <time>2020-07-16T11:38:56Z</time>
      </trkpt>
      <trkpt lat="41.680610" lon="-8.807050">
        <ele>17.708</ele>
        <time>2020-07-16T11:39:16Z</time>
      </trkpt>
      <trkpt lat="41.678940" lon="-8.808450">
        <ele>17.608</ele>
        <time>2020-07-16T11:39:36Z</time>
      </trkpt>
      <trkpt lat="41.678840" lon="-8.808560">
        <ele>17.477</ele>
        <time>2020-07-16T11:39:56Z</time>
      </trkpt>
      <trkpt lat="41.675710" lon="-8.811180">
        <ele>21.064</ele>
        <time>2020-07-16T11:40:16Z</time>
      </trkpt>
      <trkpt lat="41.675230" lon="-8.811600">
        <ele>23.529</ele>
        <time>2020-07-16T11:40:36Z</time>
      </trkpt>
      <trkpt lat="41.675050" lon="-8.811700">
        <ele>23.567</ele>
        <time>2020-07-16T11:40:56Z</time>
      </trkpt>
      <trkpt lat="41.674880" lon="-8.811750">
        <ele>23.824</ele>
        <time>2020-07-16T11:41:16Z</time>
      </trkpt>
      <trkpt lat="41.673230" lon="-8.811960">
        <ele>27.564</ele>
        <time>2020-07-16T11:41:36Z</time>
      </trkpt>
      <trkpt lat="41.671990" lon="-8.812160">
        <ele>25.264</ele>
        <time>2020-07-16T11:41:56Z</time>
      </trkpt>
      <trkpt lat="41.671500" lon="-8.812280">
        <ele>23.195</ele>
        <time>2020-07-16T11:42:16Z</time>
      </trkpt>
      <trkpt lat="41.671210" lon="-8.812310">
        <ele>21.889</ele>
        <time>2020-07-16T11:42:36Z</time>
      </trkpt>
      <trkpt lat="41.671020" lon="-8.812240">
        <ele>21.006</ele>
        <time>2020-07-16T11:42:56Z</time>
      </trkpt>
      <trkpt lat="41.670730" lon="-8.811970">
        <ele>20.126</ele>
        <time>2020-07-16T11:43:16Z</time>
      </trkpt>
      <trkpt lat="41.669340" lon="-8.810330">
        <ele>18.608</ele>
        <time>2020-07-16T11:43:36Z</time>
      </trkpt>
      <trkpt lat="41.669160" lon="-8.810170">
        <ele>18.753</ele>
        <time>2020-07-16T11:43:56Z</time>
      </trkpt>
      <trkpt lat="41.668960" lon="-8.810090">
        <ele>18.120</ele>
        <time>2020-07-16T11:44:16Z</time>
      </trkpt>
      <trkpt lat="41.664330" lon="-8.809080">
        <ele>7.415</ele>
        <time>2020-07-16T11:44:36Z</time>
      </trkpt>
      <trkpt lat="41.660360" lon="-8.808180">
        <ele>19.883</ele>
        <time>2020-07-16T11:44:56Z</time>
      </trkpt>
      <trkpt lat="41.660130" lon="-8.808120">
        <ele>21.470</ele>
        <time>2020-07-16T11:45:16Z</time>
      </trkpt>
      <trkpt lat="41.659470" lon="-8.807750">
        <ele>19.970</ele>
        <time>2020-07-16T11:45:36Z</time>
      </trkpt>
      <trkpt lat="41.659320" lon="-8.807690">
        <ele>20.380</ele>
        <time>2020-07-16T11:45:56Z</time>
      </trkpt>
      <trkpt lat="41.658610" lon="-8.807680">
        <ele>21.791</ele>
        <time>2020-07-16T11:46:16Z</time>
      </trkpt>
      <trkpt lat="41.658170" lon="-8.807710">
        <ele>24.127</ele>
        <time>2020-07-16T11:46:36Z</time>
      </trkpt>
      <trkpt lat="41.657840" lon="-8.807850">
        <ele>26.868</ele>
        <time>2020-07-16T11:46:56Z</time>
      </trkpt>
      <trkpt lat="41.657730" lon="-8.807850">
        <ele>27.314</ele>
        <time>2020-07-16T11:47:16Z</time>
      </trkpt>
      <trkpt lat="41.657490" lon="-8.807800">
        <ele>27.208</ele>
        <time>2020-07-16T11:47:36Z</time>
      </trkpt>
      <trkpt lat="41.656300" lon="-8.807490">
        <ele>26.317</ele>
        <time>2020-07-16T11:47:56Z</time>
      </trkpt>
      <trkpt lat="41.655070" lon="-8.807330">
        <ele>37.454</ele>
        <time>2020-07-16T11:48:16Z</time>
      </trkpt>
      <trkpt lat="41.654410" lon="-8.807200">
        <ele>38.089</ele>
        <time>2020-07-16T11:48:36Z</time>
      </trkpt>
      <trkpt lat="41.653280" lon="-8.806890">
        <ele>38.277</ele>
        <time>2020-07-16T11:48:56Z</time>
      </trkpt>
      <trkpt lat="41.653000" lon="-8.806790">
        <ele>39.854</ele>
        <time>2020-07-16T11:49:16Z</time>
      </trkpt>
      <trkpt lat="41.652710" lon="-8.806730">
        <ele>41.424</ele>
        <time>2020-07-16T11:49:36Z</time>
      </trkpt>
      <trkpt lat="41.652210" lon="-8.806690">
        <ele>45.084</ele>
        <time>2020-07-16T11:49:56Z</time>
      </trkpt>
      <trkpt lat="41.648530" lon="-8.805900">
        <ele>46.755</ele>
        <time>2020-07-16T11:50:16Z</time>
      </trkpt>
      <trkpt lat="41.647930" lon="-8.805740">
        <ele>47.844</ele>
        <time>2020-07-16T11:50:36Z</time>
      </trkpt>
      <trkpt lat="41.647890" lon="-8.805850">
        <ele>47.505</ele>
        <time>2020-07-16T11:50:56Z</time>
      </trkpt>
      <trkpt lat="41.647850" lon="-8.805880">
        <ele>47.615</ele>
        <time>2020-07-16T11:51:16Z</time>
      </trkpt>
      <trkpt lat="41.647800" lon="-8.805890">
        <ele>47.708</ele>
        <time>2020-07-16T11:51:36Z</time>
      </trkpt>
      <trkpt lat="41.647740" lon="-8.805860">
        <ele>47.949</ele>
        <time>2020-07-16T11:51:56Z</time>
      </trkpt>
      <trkpt lat="41.647700" lon="-8.805810">
        <ele>48.146</ele>
        <time>2020-07-16T11:52:16Z</time>
      </trkpt>
      <trkpt lat="41.647700" lon="-8.805670">
        <ele>48.621</ele>
        <time>2020-07-16T11:52:36Z</time>
      </trkpt>
      <trkpt lat="41.646950" lon="-8.805560">
        <ele>47.019</ele>
        <time>2020-07-16T11:52:56Z</time>
      </trkpt>
      <trkpt lat="41.643920" lon="-8.805030">
        <ele>45.046</ele>
        <time>2020-07-16T11:53:16Z</time>
      </trkpt>
      <trkpt lat="41.643320" lon="-8.804890">
        <ele>45.736</ele>
        <time>2020-07-16T11:53:36Z</time>
      </trkpt>
      <trkpt lat="41.642810" lon="-8.804720">
        <ele>44.276</ele>
        <time>2020-07-16T11:53:56Z</time>
      </trkpt>
      <trkpt lat="41.642710" lon="-8.804660">
        <ele>42.497</ele>
        <time>2020-07-16T11:54:16Z</time>
      </trkpt>
      <trkpt lat="41.642530" lon="-8.804610">
        <ele>39.289</ele>
        <time>2020-07-16T11:54:36Z</time>
      </trkpt>
      <trkpt lat="41.642500" lon="-8.804670">
        <ele>39.406</ele>
        <time>2020-07-16T11:54:56Z</time>
      </trkpt>
      <trkpt lat="41.642440" lon="-8.804710">
        <ele>38.826</ele>
        <time>2020-07-16T11:55:16Z</time>
      </trkpt>
      <trkpt lat="41.642360" lon="-8.804670">
        <ele>37.308</ele>
        <time>2020-07-16T11:55:36Z</time>
      </trkpt>
      <trkpt lat="41.642330" lon="-8.804560">
        <ele>36.693</ele>
        <time>2020-07-16T11:55:56Z</time>
      </trkpt>
      <trkpt lat="41.641850" lon="-8.804360">
        <ele>33.330</ele>
        <time>2020-07-16T11:56:16Z</time>
      </trkpt>
      <trkpt lat="41.641210" lon="-8.804150">
        <ele>34.125</ele>
        <time>2020-07-16T11:56:36Z</time>
      </trkpt>
      <trkpt lat="41.640850" lon="-8.804080">
        <ele>34.683</ele>
        <time>2020-07-16T11:56:56Z</time>
      </trkpt>
      <trkpt lat="41.640700" lon="-8.804080">
        <ele>35.070</ele>
        <time>2020-07-16T11:57:16Z</time>
      </trkpt>
      <trkpt lat="41.639000" lon="-8.804310">
        <ele>38.540</ele>
        <time>2020-07-16T11:57:36Z</time>
      </trkpt>
      <trkpt lat="41.638410" lon="-8.804370">
        <ele>35.610</ele>
        <time>2020-07-16T11:57:56Z</time>
      </trkpt>
      <trkpt lat="41.638030" lon="-8.804340">
        <ele>32.981</ele>
        <time>2020-07-16T11:58:16Z</time>
      </trkpt>
      <trkpt lat="41.634180" lon="-8.803770">
        <ele>30.859</ele>
        <time>2020-07-16T11:58:36Z</time>
      </trkpt>
      <trkpt lat="41.633820" lon="-8.803700">
        <ele>31.903</ele>
        <time>2020-07-16T11:58:56Z</time>
      </trkpt>
      <trkpt lat="41.632440" lon="-8.803330">
        <ele>32.823</ele>
        <time>2020-07-16T11:59:16Z</time>
      </trkpt>
      <trkpt lat="41.631630" lon="-8.803150">
        <ele>31.708</ele>
        <time>2020-07-16T11:59:36Z</time>
      </trkpt>
      <trkpt lat="41.631410" lon="-8.803080">
        <ele>31.990</ele>
        <time>2020-07-16T11:59:56Z</time>
      </trkpt>
      <trkpt lat="41.631210" lon="-8.802970">
        <ele>31.647</ele>
        <time>2020-07-16T12:00:16Z</time>
      </trkpt>
      <trkpt lat="41.631120" lon="-8.802850">
        <ele>31.782</ele>
        <time>2020-07-16T12:00:36Z</time>
      </trkpt>
      <trkpt lat="41.630760" lon="-8.802130">
        <ele>37.290</ele>
        <time>2020-07-16T12:00:56Z</time>
      </trkpt>
      <trkpt lat="41.630660" lon="-8.802000">
        <ele>37.717</ele>
        <time>2020-07-16T12:01:16Z</time>
      </trkpt>
      <trkpt lat="41.630550" lon="-8.801910">
        <ele>38.217</ele>
        <time>2020-07-16T12:01:36Z</time>
      </trkpt>
      <trkpt lat="41.630300" lon="-8.801770">
        <ele>38.957</ele>
        <time>2020-07-16T12:01:56Z</time>
      </trkpt>
      <trkpt lat="41.627800" lon="-8.800720">
        <ele>44.918</ele>
        <time>2020-07-16T12:02:16Z</time>
      </trkpt>
      <trkpt lat="41.627570" lon="-8.800600">
        <ele>46.393</ele>
        <time>2020-07-16T12:02:36Z</time>
      </trkpt>
      <trkpt lat="41.627280" lon="-8.800300">
        <ele>46.265</ele>
        <time>2020-07-16T12:02:56Z</time>
      </trkpt>
      <trkpt lat="41.624550" lon="-8.797270">
        <ele>51.321</ele>
        <time>2020-07-16T12:03:16Z</time>
      </trkpt>
      <trkpt lat="41.623780" lon="-8.796680">
        <ele>49.108</ele>
        <time>2020-07-16T12:03:36Z</time>
      </trkpt>
      <trkpt lat="41.623750" lon="-8.796740">
        <ele>48.684</ele>
        <time>2020-07-16T12:03:56Z</time>
      </trkpt>
      <trkpt lat="41.623720" lon="-8.796760">
        <ele>48.211</ele>
        <time>2020-07-16T12:04:16Z</time>
      </trkpt>
      <trkpt lat="41.623660" lon="-8.796750">
        <ele>47.856</ele>
        <time>2020-07-16T12:04:36Z</time>
      </trkpt>
      <trkpt lat="41.623610" lon="-8.796700">
        <ele>47.884</ele>
        <time>2020-07-16T12:04:56Z</time>
      </trkpt>
      <trkpt lat="41.623600" lon="-8.796620">
        <ele>48.131</ele>
        <time>2020-07-16T12:05:16Z</time>
      </trkpt>
      <trkpt lat="41.623620" lon="-8.796540">
        <ele>48.591</ele>
        <time>2020-07-16T12:05:36Z</time>
      </trkpt>
      <trkpt lat="41.623680" lon="-8.796510">
        <ele>48.951</ele>
        <time>2020-07-16T12:05:56Z</time>
      </trkpt>
      <trkpt lat="41.623300" lon="-8.795040">
        <ele>55.742</ele>
        <time>2020-07-16T12:06:16Z</time>
      </trkpt>
      <trkpt lat="41.622180" lon="-8.791440">
        <ele>62.284</ele>
        <time>2020-07-16T12:06:36Z</time>
      </trkpt>
      <trkpt lat="41.621900" lon="-8.790630">
        <ele>63.507</ele>
        <time>2020-07-16T12:06:56Z</time>
      </trkpt>
      <trkpt lat="41.621610" lon="-8.789600">
        <ele>68.617</ele>
        <time>2020-07-16T12:07:16Z</time>
      </trkpt>
      <trkpt lat="41.621630" lon="-8.788880">
        <ele>71.808</ele>
        <time>2020-07-16T12:07:36Z</time>
      </trkpt>
      <trkpt lat="41.621750" lon="-8.788510">
        <ele>69.783</ele>
        <time>2020-07-16T12:07:56Z</time>
      </trkpt>
      <trkpt lat="41.621880" lon="-8.788340">
        <ele>67.810</ele>
        <time>2020-07-16T12:08:16Z</time>
      </trkpt>
      <trkpt lat="41.622040" lon="-8.788170">
        <ele>67.525</ele>
        <time>2020-07-16T12:08:36Z</time>
      </trkpt>
      <trkpt lat="41.622330" lon="-8.787970">
        <ele>68.943</ele>
        <time>2020-07-16T12:08:56Z</time>
      </trkpt>
      <trkpt lat="41.622390" lon="-8.787900">
        <ele>68.550</ele>
        <time>2020-07-16T12:09:16Z</time>
      </trkpt>
      <trkpt lat="41.622440" lon="-8.787810">
        <ele>67.960</ele>
        <time>2020-07-16T12:09:36Z</time>
      </trkpt>
      <trkpt lat="41.622660" lon="-8.787130">
        <ele>65.140</ele>
        <time>2020-07-16T12:09:56Z</time>
      </trkpt>
      <trkpt lat="41.622710" lon="-8.786890">
        <ele>64.131</ele>
        <time>2020-07-16T12:10:16Z</time>
      </trkpt>
      <trkpt lat="41.622780" lon="-8.786270">
        <ele>65.559</ele>
        <time>2020-07-16T12:10:36Z</time>
      </trkpt>
      <trkpt lat="41.622780" lon="-8.786010">
        <ele>66.003</ele>
        <time>2020-07-16T12:10:56Z</time>
      </trkpt>
      <trkpt lat="41.622750" lon="-8.785740">
        <ele>65.423</ele>
        <time>2020-07-16T12:11:16Z</time>
      </trkpt>
      <trkpt lat="41.622700" lon="-8.785480">
        <ele>64.508</ele>
        <time>2020-07-16T12:11:36Z</time>
      </trkpt>
      <trkpt lat="41.622640" lon="-8.785320">
        <ele>64.480</ele>
        <time>2020-07-16T12:11:56Z</time>
      </trkpt>
      <trkpt lat="41.622530" lon="-8.785200">
        <ele>65.227</ele>
        <time>2020-07-16T12:12:16Z</time>
      </trkpt>
      <trkpt lat="41.622450" lon="-8.785150">
        <ele>66.082</ele>
        <time>2020-07-16T12:12:36Z</time>
      </trkpt>
      <trkpt lat="41.622300" lon="-8.785120">
        <ele>67.190</ele>
        <time>2020-07-16T12:12:56Z</time>
      </trkpt>
      <trkpt lat="41.622020" lon="-8.785130">
        <ele>67.657</ele>
        <time>2020-07-16T12:13:16Z</time>
      </trkpt>
      <trkpt lat="41.621820" lon="-8.785090">
        <ele>67.787</ele>
        <time>2020-07-16T12:13:36Z</time>
      </trkpt>
      <trkpt lat="41.621660" lon="-8.785010">
        <ele>68.627</ele>
        <time>2020-07-16T12:13:56Z</time>
      </trkpt>
      <trkpt lat="41.621530" lon="-8.784920">
        <ele>68.698</ele>
        <time>2020-07-16T12:14:16Z</time>
      </trkpt>
      <trkpt lat="41.621390" lon="-8.784780">
        <ele>69.027</ele>
        <time>2020-07-16T12:14:36Z</time>
      </trkpt>
      <trkpt lat="41.620520" lon="-8.783730">
        <ele>58.968</ele>
        <time>2020-07-16T12:14:56Z</time>
      </trkpt>
      <trkpt lat="41.618380" lon="-8.781220">
        <ele>49.914</ele>
        <time>2020-07-16T12:15:16Z</time>
      </trkpt>
      <trkpt lat="41.618250" lon="-8.781140">
        <ele>49.208</ele>
        <time>2020-07-16T12:15:36Z</time>
      </trkpt>
      <trkpt lat="41.618170" lon="-8.781130">
        <ele>49.157</ele>
        <time>2020-07-16T12:15:56Z</time>
      </trkpt>
      <trkpt lat="41.617700" lon="-8.781250">
        <ele>47.934</ele>
        <time>2020-07-16T12:16:16Z</time>
      </trkpt>
      <trkpt lat="41.617510" lon="-8.781260">
        <ele>47.689</ele>
        <time>2020-07-16T12:16:36Z</time>
      </trkpt>
      <trkpt lat="41.617410" lon="-8.781190">
        <ele>46.637</ele>
        <time>2020-07-16T12:16:56Z</time>
      </trkpt>
      <trkpt lat="41.617230" lon="-8.780880">
        <ele>44.254</ele>
        <time>2020-07-16T12:17:16Z</time>
      </trkpt>
      <trkpt lat="41.617160" lon="-8.780700">
        <ele>43.574</ele>
        <time>2020-07-16T12:17:36Z</time>
      </trkpt>
      <trkpt lat="41.616820" lon="-8.779740">
        <ele>43.994</ele>
        <time>2020-07-16T12:17:56Z</time>
      </trkpt>
      <trkpt lat="41.616710" lon="-8.779500">
        <ele>42.455</ele>
        <time>2020-07-16T12:18:16Z</time>
      </trkpt>
      <trkpt lat="41.616600" lon="-8.779400">
        <ele>42.048</ele>
        <time>2020-07-16T12:18:36Z</time>
      </trkpt>
      <trkpt lat="41.616510" lon="-8.779360">
        <ele>41.961</ele>
        <time>2020-07-16T12:18:56Z</time>
      </trkpt>
      <trkpt lat="41.616130" lon="-8.779340">
        <ele>40.617</ele>
        <time>2020-07-16T12:19:16Z</time>
      </trkpt>
      <trkpt lat="41.615990" lon="-8.779260">
        <ele>39.108</ele>
        <time>2020-07-16T12:19:36Z</time>
      </trkpt>
      <trkpt lat="41.615920" lon="-8.779100">
        <ele>36.559</ele>
        <time>2020-07-16T12:19:56Z</time>
      </trkpt>
      <trkpt lat="41.615930" lon="-8.778900">
        <ele>34.256</ele>
        <time>2020-07-16T12:20:16Z</time>
      </trkpt>
      <trkpt lat="41.616090" lon="-8.778630">
        <ele>32.981</ele>
        <time>2020-07-16T12:20:36Z</time>
      </trkpt>
      <trkpt lat="41.616200" lon="-8.778500">
        <ele>33.089</ele>
        <time>2020-07-16T12:20:56Z</time>
      </trkpt>
      <trkpt lat="41.616280" lon="-8.778340">
        <ele>31.986</ele>
        <time>2020-07-16T12:21:16Z</time>
      </trkpt>
      <trkpt lat="41.616380" lon="-8.777950">
        <ele>29.296</ele>
        <time>2020-07-16T12:21:36Z</time>
      </trkpt>
      <trkpt lat="41.616500" lon="-8.777310">
        <ele>25.166</ele>
        <time>2020-07-16T12:21:56Z</time>
      </trkpt>
      <trkpt lat="41.616400" lon="-8.776960">
        <ele>25.067</ele>
        <time>2020-07-16T12:22:16Z</time>
      </trkpt>
      <trkpt lat="41.615700" lon="-8.776950">
        <ele>21.549</ele>
        <time>2020-07-16T12:22:36Z</time>
      </trkpt>
      <trkpt lat="41.615550" lon="-8.776910">
        <ele>20.702</ele>
        <time>2020-07-16T12:22:56Z</time>
      </trkpt>
      <trkpt lat="41.614750" lon="-8.776400">
        <ele>29.322</ele>
        <time>2020-07-16T12:23:16Z</time>
      </trkpt>
      <trkpt lat="41.614400" lon="-8.776290">
        <ele>34.908</ele>
        <time>2020-07-16T12:23:36Z</time>
      </trkpt>
      <trkpt lat="41.614280" lon="-8.776290">
        <ele>34.879</ele>
        <time>2020-07-16T12:23:56Z</time>
      </trkpt>
      <trkpt lat="41.614170" lon="-8.776310">
        <ele>34.736</ele>
        <time>2020-07-16T12:24:16Z</time>
      </trkpt>
      <trkpt lat="41.613970" lon="-8.776380">
        <ele>34.311</ele>
        <time>2020-07-16T12:24:36Z</time>
      </trkpt>
      <trkpt lat="41.613820" lon="-8.776490">
        <ele>34.519</ele>
        <time>2020-07-16T12:24:56Z</time>
      </trkpt>
      <trkpt lat="41.613680" lon="-8.776660">
        <ele>35.296</ele>
        <time>2020-07-16T12:25:16Z</time>
      </trkpt>
      <trkpt lat="41.613090" lon="-8.777490">
        <ele>40.126</ele>
        <time>2020-07-16T12:25:36Z</time>
      </trkpt>
      <trkpt lat="41.612800" lon="-8.777770">
        <ele>39.146</ele>
        <time>2020-07-16T12:25:56Z</time>
      </trkpt>
      <trkpt lat="41.612470" lon="-8.777990">
        <ele>38.647</ele>
        <time>2020-07-16T12:26:16Z</time>
      </trkpt>
      <trkpt lat="41.612250" lon="-8.778090">
        <ele>38.733</ele>
        <time>2020-07-16T12:26:36Z</time>
      </trkpt>
      <trkpt lat="41.612110" lon="-8.778080">
        <ele>38.123</ele>
        <time>2020-07-16T12:26:56Z</time>
      </trkpt>
      <trkpt lat="41.612000" lon="-8.778030">
        <ele>37.515</ele>
        <time>2020-07-16T12:27:16Z</time>
      </trkpt>
      <trkpt lat="41.611880" lon="-8.777940">
        <ele>37.008</ele>
        <time>2020-07-16T12:27:36Z</time>
      </trkpt>
      <trkpt lat="41.611710" lon="-8.778270">
        <ele>35.278</ele>
        <time>2020-07-16T12:27:56Z</time>
      </trkpt>
      <trkpt lat="41.611600" lon="-8.778430">
        <ele>34.585</ele>
        <time>2020-07-16T12:28:16Z</time>
      </trkpt>
      <trkpt lat="41.611450" lon="-8.778600">
        <ele>34.670</ele>
        <time>2020-07-16T12:28:36Z</time>
      </trkpt>
      <trkpt lat="41.610880" lon="-8.779070">
        <ele>36.968</ele>
        <time>2020-07-16T12:28:56Z</time>
      </trkpt>
      <trkpt lat="41.610520" lon="-8.779270">
        <ele>36.865</ele>
        <time>2020-07-16T12:29:16Z</time>
      </trkpt>
      <trkpt lat="41.610330" lon="-8.779310">
        <ele>37.385</ele>
        <time>2020-07-16T12:29:36Z</time>
      </trkpt>
      <trkpt lat="41.610070" lon="-8.779300">
        <ele>36.825</ele>
        <time>2020-07-16T12:29:56Z</time>
      </trkpt>
      <trkpt lat="41.609370" lon="-8.779190">
        <ele>34.856</ele>
        <time>2020-07-16T12:30:16Z</time>
      </trkpt>
      <trkpt lat="41.609220" lon="-8.779190">
        <ele>34.326</ele>
        <time>2020-07-16T12:30:36Z</time>
      </trkpt>
      <trkpt lat="41.609070" lon="-8.779220">
        <ele>33.947</ele>
        <time>2020-07-16T12:30:56Z</time>
      </trkpt>
      <trkpt lat="41.608280" lon="-8.779770">
        <ele>33.811</ele>
        <time>2020-07-16T12:31:16Z</time>
      </trkpt>
      <trkpt lat="41.608180" lon="-8.779890">
        <ele>33.508</ele>
        <time>2020-07-16T12:31:36Z</time>
      </trkpt>
      <trkpt lat="41.608030" lon="-8.780170">
        <ele>34.247</ele>
        <time>2020-07-16T12:31:56Z</time>
      </trkpt>
      <trkpt lat="41.607340" lon="-8.781730">
        <ele>42.974</ele>
        <time>2020-07-16T12:32:16Z</time>
      </trkpt>
      <trkpt lat="41.607190" lon="-8.781960">
        <ele>43.119</ele>
        <time>2020-07-16T12:32:36Z</time>
      </trkpt>
      <trkpt lat="41.605600" lon="-8.783430">
        <ele>41.297</ele>
        <time>2020-07-16T12:32:56Z</time>
      </trkpt>
      <trkpt lat="41.605440" lon="-8.783550">
        <ele>40.864</ele>
        <time>2020-07-16T12:33:16Z</time>
      </trkpt>
      <trkpt lat="41.605240" lon="-8.783650">
        <ele>40.714</ele>
        <time>2020-07-16T12:33:36Z</time>
      </trkpt>
      <trkpt lat="41.604750" lon="-8.783770">
        <ele>39.934</ele>
        <time>2020-07-16T12:33:56Z</time>
      </trkpt>
      <trkpt lat="41.602150" lon="-8.784380">
        <ele>36.315</ele>
        <time>2020-07-16T12:34:16Z</time>
      </trkpt>
      <trkpt lat="41.599560" lon="-8.784950">
        <ele>31.288</ele>
        <time>2020-07-16T12:34:36Z</time>
      </trkpt>
      <trkpt lat="41.598780" lon="-8.785110">
        <ele>30.624</ele>
        <time>2020-07-16T12:34:56Z</time>
      </trkpt>
      <trkpt lat="41.597720" lon="-8.785180">
        <ele>30.426</ele>
        <time>2020-07-16T12:35:16Z</time>
      </trkpt>
      <trkpt lat="41.596440" lon="-8.785240">
        <ele>32.108</ele>
        <time>2020-07-16T12:35:36Z</time>
      </trkpt>
      <trkpt lat="41.596200" lon="-8.785270">
        <ele>32.043</ele>
        <time>2020-07-16T12:35:56Z</time>
      </trkpt>
      <trkpt lat="41.589070" lon="-8.786240">
        <ele>28.360</ele>
        <time>2020-07-16T12:36:16Z</time>
      </trkpt>
      <trkpt lat="41.585740" lon="-8.786710">
        <ele>29.575</ele>
        <time>2020-07-16T12:36:36Z</time>
      </trkpt>
      <trkpt lat="41.585390" lon="-8.786790">
        <ele>30.723</ele>
        <time>2020-07-16T12:36:56Z</time>
      </trkpt>
      <trkpt lat="41.584570" lon="-8.787170">
        <ele>34.340</ele>
        <time>2020-07-16T12:37:16Z</time>
      </trkpt>
      <trkpt lat="41.584300" lon="-8.787320">
        <ele>35.010</ele>
        <time>2020-07-16T12:37:36Z</time>
      </trkpt>
      <trkpt lat="41.583680" lon="-8.787780">
        <ele>35.720</ele>
        <time>2020-07-16T12:37:56Z</time>
      </trkpt>
      <trkpt lat="41.583360" lon="-8.788040">
        <ele>34.211</ele>
        <time>2020-07-16T12:38:16Z</time>
      </trkpt>
      <trkpt lat="41.583220" lon="-8.788120">
        <ele>33.829</ele>
        <time>2020-07-16T12:38:36Z</time>
      </trkpt>
      <trkpt lat="41.583050" lon="-8.788170">
        <ele>33.600</ele>
        <time>2020-07-16T12:38:56Z</time>
      </trkpt>
      <trkpt lat="41.582090" lon="-8.788020">
        <ele>31.920</ele>
        <time>2020-07-16T12:39:16Z</time>
      </trkpt>
      <trkpt lat="41.581590" lon="-8.787980">
        <ele>28.008</ele>
        <time>2020-07-16T12:39:36Z</time>
      </trkpt>
      <trkpt lat="41.581420" lon="-8.788000">
        <ele>26.367</ele>
        <time>2020-07-16T12:39:56Z</time>
      </trkpt>
      <trkpt lat="41.581270" lon="-8.788070">
        <ele>25.774</ele>
        <time>2020-07-16T12:40:16Z</time>
      </trkpt>
      <trkpt lat="41.581100" lon="-8.788190">
        <ele>25.529</ele>
        <time>2020-07-16T12:40:36Z</time>
      </trkpt>
      <trkpt lat="41.580570" lon="-8.788780">
        <ele>24.127</ele>
        <time>2020-07-16T12:40:56Z</time>
      </trkpt>
      <trkpt lat="41.580180" lon="-8.789150">
        <ele>23.664</ele>
        <time>2020-07-16T12:41:16Z</time>
      </trkpt>
      <trkpt lat="41.578930" lon="-8.790000">
        <ele>16.944</ele>
        <time>2020-07-16T12:41:36Z</time>
      </trkpt>
      <trkpt lat="41.578660" lon="-8.790170">
        <ele>16.634</ele>
        <time>2020-07-16T12:41:56Z</time>
      </trkpt>
      <trkpt lat="41.578540" lon="-8.790220">
        <ele>16.495</ele>
        <time>2020-07-16T12:42:16Z</time>
      </trkpt>
      <trkpt lat="41.576040" lon="-8.790670">
        <ele>13.671</ele>
        <time>2020-07-16T12:42:36Z</time>
      </trkpt>
      <trkpt lat="41.575690" lon="-8.790700">
        <ele>13.541</ele>
        <time>2020-07-16T12:42:56Z</time>
      </trkpt>
      <trkpt lat="41.575430" lon="-8.790640">
        <ele>13.215</ele>
        <time>2020-07-16T12:43:16Z</time>
      </trkpt>
      <trkpt lat="41.574560" lon="-8.790390">
        <ele>14.608</ele>
        <time>2020-07-16T12:43:36Z</time>
      </trkpt>
      <trkpt lat="41.567800" lon="-8.788550">
        <ele>8.582</ele>
        <time>2020-07-16T12:43:56Z</time>
      </trkpt>
      <trkpt lat="41.567560" lon="-8.788440">
        <ele>8.749</ele>
        <time>2020-07-16T12:44:16Z</time>
      </trkpt>
      <trkpt lat="41.566950" lon="-8.788070">
        <ele>9.964</ele>
        <time>2020-07-16T12:44:36Z</time>
      </trkpt>
      <trkpt lat="41.566860" lon="-8.788040">
        <ele>10.072</ele>
        <time>2020-07-16T12:44:56Z</time>
      </trkpt>
      <trkpt lat="41.566060" lon="-8.787550">
        <ele>8.629</ele>
        <time>2020-07-16T12:45:16Z</time>
      </trkpt>
      <trkpt lat="41.566030" lon="-8.787680">
        <ele>8.169</ele>
        <time>2020-07-16T12:45:36Z</time>
      </trkpt>
      <trkpt lat="41.566060" lon="-8.787550">
        <ele>8.629</ele>
        <time>2020-07-16T12:45:56Z</time>
      </trkpt>
      <trkpt lat="41.564980" lon="-8.786850">
        <ele>9.060</ele>
        <time>2020-07-16T12:46:16Z</time>
      </trkpt>
      <trkpt lat="41.564900" lon="-8.786770">
        <ele>9.122</ele>
        <time>2020-07-16T12:46:36Z</time>
      </trkpt>
      <trkpt lat="41.561480" lon="-8.784640">
        <ele>15.262</ele>
        <time>2020-07-16T12:46:56Z</time>
      </trkpt>
      <trkpt lat="41.559890" lon="-8.783670">
        <ele>13.508</ele>
        <time>2020-07-16T12:47:16Z</time>
      </trkpt>
      <trkpt lat="41.559660" lon="-8.783600">
        <ele>13.108</ele>
        <time>2020-07-16T12:47:36Z</time>
      </trkpt>
      <trkpt lat="41.557950" lon="-8.783430">
        <ele>14.067</ele>
        <time>2020-07-16T12:47:56Z</time>
      </trkpt>
      <trkpt lat="41.557610" lon="-8.783430">
        <ele>14.044</ele>
        <time>2020-07-16T12:48:16Z</time>
      </trkpt>
      <trkpt lat="41.554900" lon="-8.783200">
        <ele>10.559</ele>
        <time>2020-07-16T12:48:36Z</time>
      </trkpt>
      <trkpt lat="41.554720" lon="-8.783160">
        <ele>10.667</ele>
        <time>2020-07-16T12:48:56Z</time>
      </trkpt>
      <trkpt lat="41.547050" lon="-8.782560">
        <ele>9.894</ele>
        <time>2020-07-16T12:49:16Z</time>
      </trkpt>
      <trkpt lat="41.546980" lon="-8.782570">
        <ele>9.714</ele>
        <time>2020-07-16T12:49:36Z</time>
      </trkpt>
      <trkpt lat="41.546200" lon="-8.782510">
        <ele>11.084</ele>
        <time>2020-07-16T12:49:56Z</time>
      </trkpt>
      <trkpt lat="41.546090" lon="-8.782550">
        <ele>11.065</ele>
        <time>2020-07-16T12:50:16Z</time>
      </trkpt>
      <trkpt lat="41.546010" lon="-8.782640">
        <ele>10.887</ele>
        <time>2020-07-16T12:50:36Z</time>
      </trkpt>
      <trkpt lat="41.545940" lon="-8.782650">
        <ele>10.342</ele>
        <time>2020-07-16T12:50:56Z</time>
      </trkpt>
      <trkpt lat="41.545880" lon="-8.782620">
        <ele>9.826</ele>
        <time>2020-07-16T12:51:16Z</time>
      </trkpt>
      <trkpt lat="41.545840" lon="-8.782560">
        <ele>9.308</ele>
        <time>2020-07-16T12:51:36Z</time>
      </trkpt>
      <trkpt lat="41.545690" lon="-8.782480">
        <ele>10.053</ele>
        <time>2020-07-16T12:51:56Z</time>
      </trkpt>
      <trkpt lat="41.545580" lon="-8.782450">
        <ele>10.810</ele>
        <time>2020-07-16T12:52:16Z</time>
      </trkpt>
      <trkpt lat="41.544990" lon="-8.782410">
        <ele>13.635</ele>
        <time>2020-07-16T12:52:36Z</time>
      </trkpt>
      <trkpt lat="41.544850" lon="-8.782370">
        <ele>13.063</ele>
        <time>2020-07-16T12:52:56Z</time>
      </trkpt>
      <trkpt lat="41.544570" lon="-8.782360">
        <ele>11.980</ele>
        <time>2020-07-16T12:53:16Z</time>
      </trkpt>
      <trkpt lat="41.543780" lon="-8.782260">
        <ele>9.140</ele>
        <time>2020-07-16T12:53:36Z</time>
      </trkpt>
      <trkpt lat="41.542540" lon="-8.782180">
        <ele>10.780</ele>
        <time>2020-07-16T12:53:56Z</time>
      </trkpt>
      <trkpt lat="41.541040" lon="-8.782060">
        <ele>13.981</ele>
        <time>2020-07-16T12:54:16Z</time>
      </trkpt>
      <trkpt lat="41.540390" lon="-8.781930">
        <ele>12.585</ele>
        <time>2020-07-16T12:54:36Z</time>
      </trkpt>
      <trkpt lat="41.540270" lon="-8.781880">
        <ele>12.289</ele>
        <time>2020-07-16T12:54:56Z</time>
      </trkpt>
      <trkpt lat="41.540030" lon="-8.781880">
        <ele>12.417</ele>
        <time>2020-07-16T12:55:16Z</time>
      </trkpt>
      <trkpt lat="41.539970" lon="-8.781950">
        <ele>12.008</ele>
        <time>2020-07-16T12:55:36Z</time>
      </trkpt>
      <trkpt lat="41.539900" lon="-8.781980">
        <ele>11.993</ele>
        <time>2020-07-16T12:55:56Z</time>
      </trkpt>
      <trkpt lat="41.539700" lon="-8.781920">
        <ele>11.920</ele>
        <time>2020-07-16T12:56:16Z</time>
      </trkpt>
      <trkpt lat="41.539620" lon="-8.781840">
        <ele>11.685</ele>
        <time>2020-07-16T12:56:36Z</time>
      </trkpt>
      <trkpt lat="41.539570" lon="-8.781710">
        <ele>11.773</ele>
        <time>2020-07-16T12:56:56Z</time>
      </trkpt>
      <trkpt lat="41.539480" lon="-8.781660">
        <ele>11.320</ele>
        <time>2020-07-16T12:57:16Z</time>
      </trkpt>
      <trkpt lat="41.538540" lon="-8.780980">
        <ele>9.490</ele>
        <time>2020-07-16T12:57:36Z</time>
      </trkpt>
      <trkpt lat="41.535180" lon="-8.778520">
        <ele>6.060</ele>
        <time>2020-07-16T12:57:56Z</time>
      </trkpt>
      <trkpt lat="41.532370" lon="-8.776490">
        <ele>7.091</ele>
        <time>2020-07-16T12:58:16Z</time>
      </trkpt>
      <trkpt lat="41.532170" lon="-8.776360">
        <ele>7.132</ele>
        <time>2020-07-16T12:58:36Z</time>
      </trkpt>
      <trkpt lat="41.531750" lon="-8.776150">
        <ele>7.992</ele>
        <time>2020-07-16T12:58:56Z</time>
      </trkpt>
      <trkpt lat="41.531590" lon="-8.776110">
        <ele>8.611</ele>
        <time>2020-07-16T12:59:16Z</time>
      </trkpt>
      <trkpt lat="41.531520" lon="-8.776160">
        <ele>8.908</ele>
        <time>2020-07-16T12:59:36Z</time>
      </trkpt>
      <trkpt lat="41.531470" lon="-8.776160">
        <ele>9.238</ele>
        <time>2020-07-16T12:59:56Z</time>
      </trkpt>
      <trkpt lat="41.531420" lon="-8.776130">
        <ele>9.785</ele>
        <time>2020-07-16T13:00:16Z</time>
      </trkpt>
      <trkpt lat="41.531370" lon="-8.776000">
        <ele>10.710</ele>
        <time>2020-07-16T13:00:36Z</time>
      </trkpt>
      <trkpt lat="41.531370" lon="-8.775940">
        <ele>11.168</ele>
        <time>2020-07-16T13:00:56Z</time>
      </trkpt>
      <trkpt lat="41.531400" lon="-8.775880">
        <ele>11.635</ele>
        <time>2020-07-16T13:01:16Z</time>
      </trkpt>
      <trkpt lat="41.531450" lon="-8.775840">
        <ele>11.515</ele>
        <time>2020-07-16T13:01:36Z</time>
      </trkpt>
      <trkpt lat="41.531500" lon="-8.775830">
        <ele>11.285</ele>
        <time>2020-07-16T13:01:56Z</time>
      </trkpt>
      <trkpt lat="41.531570" lon="-8.775640">
        <ele>12.566</ele>
        <time>2020-07-16T13:02:16Z</time>
      </trkpt>
      <trkpt lat="41.531650" lon="-8.773780">
        <ele>8.085</ele>
        <time>2020-07-16T13:02:36Z</time>
      </trkpt>
      <trkpt lat="41.532160" lon="-8.763500">
        <ele>20.089</ele>
        <time>2020-07-16T13:02:56Z</time>
      </trkpt>
      <trkpt lat="41.532210" lon="-8.762850">
        <ele>20.017</ele>
        <time>2020-07-16T13:03:16Z</time>
      </trkpt>
      <trkpt lat="41.532250" lon="-8.762550">
        <ele>20.108</ele>
        <time>2020-07-16T13:03:36Z</time>
      </trkpt>
      <trkpt lat="41.532360" lon="-8.761980">
        <ele>22.353</ele>
        <time>2020-07-16T13:03:56Z</time>
      </trkpt>
      <trkpt lat="41.532530" lon="-8.761380">
        <ele>24.360</ele>
        <time>2020-07-16T13:04:16Z</time>
      </trkpt>
      <trkpt lat="41.533180" lon="-8.759770">
        <ele>33.745</ele>
        <time>2020-07-16T13:04:36Z</time>
      </trkpt>
      <trkpt lat="41.533430" lon="-8.759040">
        <ele>35.733</ele>
        <time>2020-07-16T13:04:56Z</time>
      </trkpt>
      <trkpt lat="41.533600" lon="-8.758370">
        <ele>35.060</ele>
        <time>2020-07-16T13:05:16Z</time>
      </trkpt>
      <trkpt lat="41.533580" lon="-8.757950">
        <ele>36.580</ele>
        <time>2020-07-16T13:05:36Z</time>
      </trkpt>
      <trkpt lat="41.533600" lon="-8.757860">
        <ele>37.360</ele>
        <time>2020-07-16T13:05:56Z</time>
      </trkpt>
      <trkpt lat="41.533630" lon="-8.757840">
        <ele>37.771</ele>
        <time>2020-07-16T13:06:16Z</time>
      </trkpt>
      <trkpt lat="41.533720" lon="-8.757420">
        <ele>40.153</ele>
        <time>2020-07-16T13:06:36Z</time>
      </trkpt>
      <trkpt lat="41.534480" lon="-8.750290">
        <ele>46.404</ele>
        <time>2020-07-16T13:06:56Z</time>
      </trkpt>
      <trkpt lat="41.534490" lon="-8.749310">
        <ele>46.114</ele>
        <time>2020-07-16T13:07:16Z</time>
      </trkpt>
      <trkpt lat="41.534460" lon="-8.747740">
        <ele>49.908</ele>
        <time>2020-07-16T13:07:36Z</time>
      </trkpt>
      <trkpt lat="41.534530" lon="-8.747200">
        <ele>48.660</ele>
        <time>2020-07-16T13:07:56Z</time>
      </trkpt>
      <trkpt lat="41.534910" lon="-8.745150">
        <ele>47.527</ele>
        <time>2020-07-16T13:08:16Z</time>
      </trkpt>
      <trkpt lat="41.534980" lon="-8.744870">
        <ele>45.642</ele>
        <time>2020-07-16T13:08:36Z</time>
      </trkpt>
      <trkpt lat="41.535080" lon="-8.744660">
        <ele>44.130</ele>
        <time>2020-07-16T13:08:56Z</time>
      </trkpt>
      <trkpt lat="41.535200" lon="-8.744490">
        <ele>43.827</ele>
        <time>2020-07-16T13:09:16Z</time>
      </trkpt>
      <trkpt lat="41.535350" lon="-8.744350">
        <ele>43.587</ele>
        <time>2020-07-16T13:09:36Z</time>
      </trkpt>
      <trkpt lat="41.536250" lon="-8.743690">
        <ele>45.167</ele>
        <time>2020-07-16T13:09:56Z</time>
      </trkpt>
      <trkpt lat="41.536320" lon="-8.743610">
        <ele>44.788</ele>
        <time>2020-07-16T13:10:16Z</time>
      </trkpt>
      <trkpt lat="41.536480" lon="-8.743370">
        <ele>43.832</ele>
        <time>2020-07-16T13:10:36Z</time>
      </trkpt>
      <trkpt lat="41.536560" lon="-8.743140">
        <ele>42.792</ele>
        <time>2020-07-16T13:10:56Z</time>
      </trkpt>
      <trkpt lat="41.536590" lon="-8.742770">
        <ele>43.411</ele>
        <time>2020-07-16T13:11:16Z</time>
      </trkpt>
      <trkpt lat="41.536560" lon="-8.742520">
        <ele>46.208</ele>
        <time>2020-07-16T13:11:36Z</time>
      </trkpt>
      <trkpt lat="41.536510" lon="-8.742310">
        <ele>48.318</ele>
        <time>2020-07-16T13:11:56Z</time>
      </trkpt>
      <trkpt lat="41.536050" lon="-8.740920">
        <ele>53.445</ele>
        <time>2020-07-16T13:12:16Z</time>
      </trkpt>
      <trkpt lat="41.535760" lon="-8.739990">
        <ele>57.040</ele>
        <time>2020-07-16T13:12:36Z</time>
      </trkpt>
      <trkpt lat="41.534800" lon="-8.730630">
        <ele>57.158</ele>
        <time>2020-07-16T13:12:56Z</time>
      </trkpt>
      <trkpt lat="41.534190" lon="-8.724440">
        <ele>43.185</ele>
        <time>2020-07-16T13:13:16Z</time>
      </trkpt>
      <trkpt lat="41.534160" lon="-8.724360">
        <ele>42.985</ele>
        <time>2020-07-16T13:13:36Z</time>
      </trkpt>
      <trkpt lat="41.534090" lon="-8.724020">
        <ele>42.095</ele>
        <time>2020-07-16T13:13:56Z</time>
      </trkpt>
      <trkpt lat="41.534040" lon="-8.724000">
        <ele>41.066</ele>
        <time>2020-07-16T13:14:16Z</time>
      </trkpt>
      <trkpt lat="41.533940" lon="-8.723900">
        <ele>39.168</ele>
        <time>2020-07-16T13:14:36Z</time>
      </trkpt>
      <trkpt lat="41.533900" lon="-8.723740">
        <ele>38.842</ele>
        <time>2020-07-16T13:14:56Z</time>
      </trkpt>
      <trkpt lat="41.533920" lon="-8.723630">
        <ele>39.626</ele>
        <time>2020-07-16T13:15:16Z</time>
      </trkpt>
      <trkpt lat="41.534000" lon="-8.723490">
        <ele>41.508</ele>
        <time>2020-07-16T13:15:36Z</time>
      </trkpt>
      <trkpt lat="41.534020" lon="-8.723120">
        <ele>41.151</ele>
        <time>2020-07-16T13:15:56Z</time>
      </trkpt>
      <trkpt lat="41.533990" lon="-8.722380">
        <ele>38.648</ele>
        <time>2020-07-16T13:16:16Z</time>
      </trkpt>
      <trkpt lat="41.533800" lon="-8.720660">
        <ele>46.153</ele>
        <time>2020-07-16T13:16:36Z</time>
      </trkpt>
      <trkpt lat="41.533720" lon="-8.720240">
        <ele>46.931</ele>
        <time>2020-07-16T13:16:56Z</time>
      </trkpt>
      <trkpt lat="41.533600" lon="-8.719800">
        <ele>47.168</ele>
        <time>2020-07-16T13:17:16Z</time>
      </trkpt>
      <trkpt lat="41.533430" lon="-8.719370">
        <ele>48.578</ele>
        <time>2020-07-16T13:17:36Z</time>
      </trkpt>
      <trkpt lat="41.532910" lon="-8.718290">
        <ele>52.458</ele>
        <time>2020-07-16T13:17:56Z</time>
      </trkpt>
      <trkpt lat="41.532740" lon="-8.717840">
        <ele>53.649</ele>
        <time>2020-07-16T13:18:16Z</time>
      </trkpt>
      <trkpt lat="41.532590" lon="-8.717270">
        <ele>62.074</ele>
        <time>2020-07-16T13:18:36Z</time>
      </trkpt>
      <trkpt lat="41.532500" lon="-8.716680">
        <ele>64.056</ele>
        <time>2020-07-16T13:18:56Z</time>
      </trkpt>
      <trkpt lat="41.532480" lon="-8.716140">
        <ele>61.321</ele>
        <time>2020-07-16T13:19:16Z</time>
      </trkpt>
      <trkpt lat="41.532490" lon="-8.715550">
        <ele>61.008</ele>
        <time>2020-07-16T13:19:36Z</time>
      </trkpt>
      <trkpt lat="41.532590" lon="-8.712860">
        <ele>67.612</ele>
        <time>2020-07-16T13:19:56Z</time>
      </trkpt>
      <trkpt lat="41.532580" lon="-8.712550">
        <ele>67.849</ele>
        <time>2020-07-16T13:20:16Z</time>
      </trkpt>
      <trkpt lat="41.532550" lon="-8.712280">
        <ele>66.764</ele>
        <time>2020-07-16T13:20:36Z</time>
      </trkpt>
      <trkpt lat="41.532380" lon="-8.711470">
        <ele>67.072</ele>
        <time>2020-07-16T13:20:56Z</time>
      </trkpt>
      <trkpt lat="41.532340" lon="-8.711390">
        <ele>66.869</ele>
        <time>2020-07-16T13:21:16Z</time>
      </trkpt>
      <trkpt lat="41.532280" lon="-8.711190">
        <ele>66.659</ele>
        <time>2020-07-16T13:21:36Z</time>
      </trkpt>
      <trkpt lat="41.532210" lon="-8.711140">
        <ele>65.989</ele>
        <time>2020-07-16T13:21:56Z</time>
      </trkpt>
      <trkpt lat="41.532200" lon="-8.711050">
        <ele>65.690</ele>
        <time>2020-07-16T13:22:16Z</time>
      </trkpt>
      <trkpt lat="41.532210" lon="-8.711000">
        <ele>65.513</ele>
        <time>2020-07-16T13:22:36Z</time>
      </trkpt>
      <trkpt lat="41.532200" lon="-8.710800">
        <ele>64.843</ele>
        <time>2020-07-16T13:22:56Z</time>
      </trkpt>
      <trkpt lat="41.532220" lon="-8.710660">
        <ele>64.407</ele>
        <time>2020-07-16T13:23:16Z</time>
      </trkpt>
      <trkpt lat="41.532210" lon="-8.710350">
        <ele>64.008</ele>
        <time>2020-07-16T13:23:36Z</time>
      </trkpt>
      <trkpt lat="41.532270" lon="-8.709880">
        <ele>64.666</ele>
        <time>2020-07-16T13:23:56Z</time>
      </trkpt>
      <trkpt lat="41.532500" lon="-8.708500">
        <ele>63.693</ele>
        <time>2020-07-16T13:24:16Z</time>
      </trkpt>
      <trkpt lat="41.532500" lon="-8.708140">
        <ele>60.968</ele>
        <time>2020-07-16T13:24:36Z</time>
      </trkpt>
      <trkpt lat="41.532240" lon="-8.706910">
        <ele>56.866</ele>
        <time>2020-07-16T13:24:56Z</time>
      </trkpt>
      <trkpt lat="41.532150" lon="-8.706370">
        <ele>55.523</ele>
        <time>2020-07-16T13:25:16Z</time>
      </trkpt>
      <trkpt lat="41.531910" lon="-8.703640">
        <ele>44.033</ele>
        <time>2020-07-16T13:25:36Z</time>
      </trkpt>
      <trkpt lat="41.531650" lon="-8.700700">
        <ele>48.083</ele>
        <time>2020-07-16T13:25:56Z</time>
      </trkpt>
      <trkpt lat="41.531360" lon="-8.699490">
        <ele>50.064</ele>
        <time>2020-07-16T13:26:16Z</time>
      </trkpt>
      <trkpt lat="41.531340" lon="-8.699140">
        <ele>50.027</ele>
        <time>2020-07-16T13:26:36Z</time>
      </trkpt>
      <trkpt lat="41.531340" lon="-8.697880">
        <ele>48.868</ele>
        <time>2020-07-16T13:26:56Z</time>
      </trkpt>
      <trkpt lat="41.531360" lon="-8.696830">
        <ele>46.414</ele>
        <time>2020-07-16T13:27:16Z</time>
      </trkpt>
      <trkpt lat="41.531390" lon="-8.696590">
        <ele>46.308</ele>
        <time>2020-07-16T13:27:36Z</time>
      </trkpt>
      <trkpt lat="41.531830" lon="-8.694880">
        <ele>48.767</ele>
        <time>2020-07-16T13:27:56Z</time>
      </trkpt>
      <trkpt lat="41.531860" lon="-8.694570">
        <ele>50.464</ele>
        <time>2020-07-16T13:28:16Z</time>
      </trkpt>
      <trkpt lat="41.531880" lon="-8.693250">
        <ele>52.559</ele>
        <time>2020-07-16T13:28:36Z</time>
      </trkpt>
      <trkpt lat="41.531800" lon="-8.692720">
        <ele>53.067</ele>
        <time>2020-07-16T13:28:56Z</time>
      </trkpt>
      <trkpt lat="41.530970" lon="-8.688950">
        <ele>63.914</ele>
        <time>2020-07-16T13:29:16Z</time>
      </trkpt>
      <trkpt lat="41.530920" lon="-8.688180">
        <ele>64.344</ele>
        <time>2020-07-16T13:29:36Z</time>
      </trkpt>
      <trkpt lat="41.530870" lon="-8.684780">
        <ele>60.374</ele>
        <time>2020-07-16T13:29:56Z</time>
      </trkpt>
      <trkpt lat="41.530830" lon="-8.684270">
        <ele>60.975</ele>
        <time>2020-07-16T13:30:16Z</time>
      </trkpt>
      <trkpt lat="41.530720" lon="-8.683640">
        <ele>59.621</ele>
        <time>2020-07-16T13:30:36Z</time>
      </trkpt>
      <trkpt lat="41.530480" lon="-8.682870">
        <ele>57.741</ele>
        <time>2020-07-16T13:30:56Z</time>
      </trkpt>
      <trkpt lat="41.529700" lon="-8.680960">
        <ele>52.205</ele>
        <time>2020-07-16T13:31:16Z</time>
      </trkpt>
      <trkpt lat="41.529630" lon="-8.680590">
        <ele>49.308</ele>
        <time>2020-07-16T13:31:36Z</time>
      </trkpt>
      <trkpt lat="41.529590" lon="-8.680200">
        <ele>47.487</ele>
        <time>2020-07-16T13:31:56Z</time>
      </trkpt>
      <trkpt lat="41.529450" lon="-8.677780">
        <ele>60.074</ele>
        <time>2020-07-16T13:32:16Z</time>
      </trkpt>
      <trkpt lat="41.529090" lon="-8.676340">
        <ele>61.899</ele>
        <time>2020-07-16T13:32:36Z</time>
      </trkpt>
      <trkpt lat="41.528980" lon="-8.675390">
        <ele>62.547</ele>
        <time>2020-07-16T13:32:56Z</time>
      </trkpt>
      <trkpt lat="41.528850" lon="-8.674960">
        <ele>64.674</ele>
        <time>2020-07-16T13:33:16Z</time>
      </trkpt>
      <trkpt lat="41.527950" lon="-8.672760">
        <ele>57.974</ele>
        <time>2020-07-16T13:33:36Z</time>
      </trkpt>
      <trkpt lat="41.527400" lon="-8.670390">
        <ele>54.464</ele>
        <time>2020-07-16T13:33:56Z</time>
      </trkpt>
      <trkpt lat="41.527350" lon="-8.670010">
        <ele>53.385</ele>
        <time>2020-07-16T13:34:16Z</time>
      </trkpt>
      <trkpt lat="41.527400" lon="-8.669540">
        <ele>53.298</ele>
        <time>2020-07-16T13:34:36Z</time>
      </trkpt>
      <trkpt lat="41.527660" lon="-8.668170">
        <ele>48.615</ele>
        <time>2020-07-16T13:34:56Z</time>
      </trkpt>
      <trkpt lat="41.527680" lon="-8.667890">
        <ele>48.626</ele>
        <time>2020-07-16T13:35:16Z</time>
      </trkpt>
      <trkpt lat="41.527420" lon="-8.662480">
        <ele>60.608</ele>
        <time>2020-07-16T13:35:36Z</time>
      </trkpt>
      <trkpt lat="41.527160" lon="-8.660450">
        <ele>66.144</ele>
        <time>2020-07-16T13:35:56Z</time>
      </trkpt>
      <trkpt lat="41.527140" lon="-8.660160">
        <ele>65.911</ele>
        <time>2020-07-16T13:36:16Z</time>
      </trkpt>
      <trkpt lat="41.527190" lon="-8.659540">
        <ele>69.026</ele>
        <time>2020-07-16T13:36:36Z</time>
      </trkpt>
      <trkpt lat="41.527360" lon="-8.658520">
        <ele>73.534</ele>
        <time>2020-07-16T13:36:56Z</time>
      </trkpt>
      <trkpt lat="41.528000" lon="-8.655950">
        <ele>80.811</ele>
        <time>2020-07-16T13:37:16Z</time>
      </trkpt>
      <trkpt lat="41.528010" lon="-8.655780">
        <ele>80.061</ele>
        <time>2020-07-16T13:37:36Z</time>
      </trkpt>
      <trkpt lat="41.527990" lon="-8.655600">
        <ele>79.821</ele>
        <time>2020-07-16T13:37:56Z</time>
      </trkpt>
      <trkpt lat="41.527890" lon="-8.655380">
        <ele>79.992</ele>
        <time>2020-07-16T13:38:16Z</time>
      </trkpt>
      <trkpt lat="41.527810" lon="-8.655280">
        <ele>79.692</ele>
        <time>2020-07-16T13:38:36Z</time>
      </trkpt>
      <trkpt lat="41.527720" lon="-8.655220">
        <ele>79.673</ele>
        <time>2020-07-16T13:38:56Z</time>
      </trkpt>
      <trkpt lat="41.527590" lon="-8.655170">
        <ele>80.220</ele>
        <time>2020-07-16T13:39:16Z</time>
      </trkpt>
      <trkpt lat="41.527350" lon="-8.655220">
        <ele>80.408</ele>
        <time>2020-07-16T13:39:36Z</time>
      </trkpt>
      <trkpt lat="41.526470" lon="-8.655680">
        <ele>73.974</ele>
        <time>2020-07-16T13:39:56Z</time>
      </trkpt>
      <trkpt lat="41.526310" lon="-8.655700">
        <ele>73.931</ele>
        <time>2020-07-16T13:40:16Z</time>
      </trkpt>
      <trkpt lat="41.526160" lon="-8.655640">
        <ele>74.536</ele>
        <time>2020-07-16T13:40:36Z</time>
      </trkpt>
      <trkpt lat="41.526060" lon="-8.655530">
        <ele>75.294</ele>
        <time>2020-07-16T13:40:56Z</time>
      </trkpt>
      <trkpt lat="41.525990" lon="-8.655400">
        <ele>76.851</ele>
        <time>2020-07-16T13:41:16Z</time>
      </trkpt>
      <trkpt lat="41.525630" lon="-8.654600">
        <ele>84.341</ele>
        <time>2020-07-16T13:41:36Z</time>
      </trkpt>
      <trkpt lat="41.525580" lon="-8.654290">
        <ele>86.321</ele>
        <time>2020-07-16T13:41:56Z</time>
      </trkpt>
      <trkpt lat="41.525550" lon="-8.653040">
        <ele>84.942</ele>
        <time>2020-07-16T13:42:16Z</time>
      </trkpt>
      <trkpt lat="41.525590" lon="-8.652750">
        <ele>85.516</ele>
        <time>2020-07-16T13:42:36Z</time>
      </trkpt>
      <trkpt lat="41.526200" lon="-8.650870">
        <ele>75.476</ele>
        <time>2020-07-16T13:42:56Z</time>
      </trkpt>
      <trkpt lat="41.526230" lon="-8.650500">
        <ele>72.913</ele>
        <time>2020-07-16T13:43:16Z</time>
      </trkpt>
      <trkpt lat="41.526200" lon="-8.649430">
        <ele>75.608</ele>
        <time>2020-07-16T13:43:36Z</time>
      </trkpt>
      <trkpt lat="41.526240" lon="-8.649140">
        <ele>76.546</ele>
        <time>2020-07-16T13:43:56Z</time>
      </trkpt>
      <trkpt lat="41.526310" lon="-8.648950">
        <ele>76.243</ele>
        <time>2020-07-16T13:44:16Z</time>
      </trkpt>
      <trkpt lat="41.526590" lon="-8.648470">
        <ele>72.368</ele>
        <time>2020-07-16T13:44:36Z</time>
      </trkpt>
      <trkpt lat="41.527780" lon="-8.647160">
        <ele>61.876</ele>
        <time>2020-07-16T13:44:56Z</time>
      </trkpt>
      <trkpt lat="41.528060" lon="-8.646830">
        <ele>60.013</ele>
        <time>2020-07-16T13:45:16Z</time>
      </trkpt>
      <trkpt lat="41.528210" lon="-8.646610">
        <ele>58.643</ele>
        <time>2020-07-16T13:45:36Z</time>
      </trkpt>
      <trkpt lat="41.528280" lon="-8.646440">
        <ele>56.943</ele>
        <time>2020-07-16T13:45:56Z</time>
      </trkpt>
      <trkpt lat="41.529530" lon="-8.644380">
        <ele>50.754</ele>
        <time>2020-07-16T13:46:16Z</time>
      </trkpt>
      <trkpt lat="41.529650" lon="-8.644140">
        <ele>49.179</ele>
        <time>2020-07-16T13:46:36Z</time>
      </trkpt>
      <trkpt lat="41.529640" lon="-8.644100">
        <ele>48.805</ele>
        <time>2020-07-16T13:46:56Z</time>
      </trkpt>
      <trkpt lat="41.529650" lon="-8.644000">
        <ele>48.125</ele>
        <time>2020-07-16T13:47:16Z</time>
      </trkpt>
      <trkpt lat="41.529700" lon="-8.643920">
        <ele>47.308</ele>
        <time>2020-07-16T13:47:36Z</time>
      </trkpt>
      <trkpt lat="41.529770" lon="-8.643880">
        <ele>47.042</ele>
        <time>2020-07-16T13:47:56Z</time>
      </trkpt>
      <trkpt lat="41.529890" lon="-8.643700">
        <ele>46.349</ele>
        <time>2020-07-16T13:48:16Z</time>
      </trkpt>
      <trkpt lat="41.530460" lon="-8.642320">
        <ele>46.254</ele>
        <time>2020-07-16T13:48:36Z</time>
      </trkpt>
      <trkpt lat="41.530680" lon="-8.641670">
        <ele>42.552</ele>
        <time>2020-07-16T13:48:56Z</time>
      </trkpt>
      <trkpt lat="41.530910" lon="-8.641060">
        <ele>38.069</ele>
        <time>2020-07-16T13:49:16Z</time>
      </trkpt>
      <trkpt lat="41.531030" lon="-8.640580">
        <ele>37.039</ele>
        <time>2020-07-16T13:49:36Z</time>
      </trkpt>
      <trkpt lat="41.531040" lon="-8.640420">
        <ele>36.949</ele>
        <time>2020-07-16T13:49:56Z</time>
      </trkpt>
      <trkpt lat="41.531010" lon="-8.640280">
        <ele>36.650</ele>
        <time>2020-07-16T13:50:16Z</time>
      </trkpt>
      <trkpt lat="41.530940" lon="-8.640110">
        <ele>36.497</ele>
        <time>2020-07-16T13:50:36Z</time>
      </trkpt>
      <trkpt lat="41.530840" lon="-8.639970">
        <ele>36.123</ele>
        <time>2020-07-16T13:50:56Z</time>
      </trkpt>
      <trkpt lat="41.530620" lon="-8.639780">
        <ele>36.225</ele>
        <time>2020-07-16T13:51:16Z</time>
      </trkpt>
      <trkpt lat="41.530380" lon="-8.639620">
        <ele>36.108</ele>
        <time>2020-07-16T13:51:36Z</time>
      </trkpt>
      <trkpt lat="41.530260" lon="-8.639510">
        <ele>36.064</ele>
        <time>2020-07-16T13:51:56Z</time>
      </trkpt>
      <trkpt lat="41.529720" lon="-8.639120">
        <ele>32.871</ele>
        <time>2020-07-16T13:52:16Z</time>
      </trkpt>
      <trkpt lat="41.529390" lon="-8.638790">
        <ele>32.056</ele>
        <time>2020-07-16T13:52:36Z</time>
      </trkpt>
      <trkpt lat="41.529150" lon="-8.638510">
        <ele>31.934</ele>
        <time>2020-07-16T13:52:56Z</time>
      </trkpt>
      <trkpt lat="41.528840" lon="-8.638070">
        <ele>30.831</ele>
        <time>2020-07-16T13:53:16Z</time>
      </trkpt>
      <trkpt lat="41.527570" lon="-8.636460">
        <ele>24.341</ele>
        <time>2020-07-16T13:53:36Z</time>
      </trkpt>
      <trkpt lat="41.526760" lon="-8.635520">
        <ele>21.921</ele>
        <time>2020-07-16T13:53:56Z</time>
      </trkpt>
      <trkpt lat="41.526140" lon="-8.634870">
        <ele>24.342</ele>
        <time>2020-07-16T13:54:16Z</time>
      </trkpt>
      <trkpt lat="41.525520" lon="-8.634280">
        <ele>22.492</ele>
        <time>2020-07-16T13:54:36Z</time>
      </trkpt>
      <trkpt lat="41.525180" lon="-8.633990">
        <ele>21.173</ele>
        <time>2020-07-16T13:54:56Z</time>
      </trkpt>
      <trkpt lat="41.523220" lon="-8.632160">
        <ele>15.320</ele>
        <time>2020-07-16T13:55:16Z</time>
      </trkpt>
      <trkpt lat="41.523130" lon="-8.632100">
        <ele>16.508</ele>
        <time>2020-07-16T13:55:36Z</time>
      </trkpt>
      <trkpt lat="41.522870" lon="-8.631870">
        <ele>20.174</ele>
        <time>2020-07-16T13:55:56Z</time>
      </trkpt>
      <trkpt lat="41.521540" lon="-8.630650">
        <ele>28.121</ele>
        <time>2020-07-16T13:56:16Z</time>
      </trkpt>
      <trkpt lat="41.519810" lon="-8.629030">
        <ele>39.826</ele>
        <time>2020-07-16T13:56:36Z</time>
      </trkpt>
      <trkpt lat="41.519630" lon="-8.628850">
        <ele>40.314</ele>
        <time>2020-07-16T13:56:56Z</time>
      </trkpt>
      <trkpt lat="41.519550" lon="-8.628740">
        <ele>40.621</ele>
        <time>2020-07-16T13:57:16Z</time>
      </trkpt>
      <trkpt lat="41.516680" lon="-8.626050">
        <ele>58.091</ele>
        <time>2020-07-16T13:57:36Z</time>
      </trkpt>
      <trkpt lat="41.516050" lon="-8.625220">
        <ele>59.941</ele>
        <time>2020-07-16T13:57:56Z</time>
      </trkpt>
      <trkpt lat="41.515790" lon="-8.624790">
        <ele>61.062</ele>
        <time>2020-07-16T13:58:16Z</time>
      </trkpt>
      <trkpt lat="41.515450" lon="-8.624150">
        <ele>60.915</ele>
        <time>2020-07-16T13:58:36Z</time>
      </trkpt>
      <trkpt lat="41.515220" lon="-8.623570">
        <ele>59.665</ele>
        <time>2020-07-16T13:58:56Z</time>
      </trkpt>
      <trkpt lat="41.515070" lon="-8.623120">
        <ele>59.511</ele>
        <time>2020-07-16T13:59:16Z</time>
      </trkpt>
      <trkpt lat="41.514910" lon="-8.622490">
        <ele>59.008</ele>
        <time>2020-07-16T13:59:36Z</time>
      </trkpt>
      <trkpt lat="41.514780" lon="-8.621660">
        <ele>64.286</ele>
        <time>2020-07-16T13:59:56Z</time>
      </trkpt>
      <trkpt lat="41.514690" lon="-8.620630">
        <ele>67.573</ele>
        <time>2020-07-16T14:00:16Z</time>
      </trkpt>
      <trkpt lat="41.514700" lon="-8.620140">
        <ele>69.668</ele>
        <time>2020-07-16T14:00:36Z</time>
      </trkpt>
      <trkpt lat="41.514760" lon="-8.619400">
        <ele>71.496</ele>
        <time>2020-07-16T14:00:56Z</time>
      </trkpt>
      <trkpt lat="41.514850" lon="-8.618710">
        <ele>75.693</ele>
        <time>2020-07-16T14:01:16Z</time>
      </trkpt>
      <trkpt lat="41.515100" lon="-8.617760">
        <ele>83.163</ele>
        <time>2020-07-16T14:01:36Z</time>
      </trkpt>
      <trkpt lat="41.515220" lon="-8.617360">
        <ele>84.713</ele>
        <time>2020-07-16T14:01:56Z</time>
      </trkpt>
      <trkpt lat="41.515460" lon="-8.616740">
        <ele>87.734</ele>
        <time>2020-07-16T14:02:16Z</time>
      </trkpt>
      <trkpt lat="41.515810" lon="-8.616020">
        <ele>91.924</ele>
        <time>2020-07-16T14:02:36Z</time>
      </trkpt>
      <trkpt lat="41.516400" lon="-8.614950">
        <ele>92.104</ele>
        <time>2020-07-16T14:02:56Z</time>
      </trkpt>
      <trkpt lat="41.516560" lon="-8.614610">
        <ele>92.114</ele>
        <time>2020-07-16T14:03:16Z</time>
      </trkpt>
      <trkpt lat="41.516720" lon="-8.614140">
        <ele>89.708</ele>
        <time>2020-07-16T14:03:36Z</time>
      </trkpt>
      <trkpt lat="41.516840" lon="-8.613670">
        <ele>84.167</ele>
        <time>2020-07-16T14:03:56Z</time>
      </trkpt>
      <trkpt lat="41.516900" lon="-8.613310">
        <ele>81.024</ele>
        <time>2020-07-16T14:04:16Z</time>
      </trkpt>
      <trkpt lat="41.516950" lon="-8.612450">
        <ele>70.469</ele>
        <time>2020-07-16T14:04:36Z</time>
      </trkpt>
      <trkpt lat="41.516970" lon="-8.611270">
        <ele>66.087</ele>
        <time>2020-07-16T14:04:56Z</time>
      </trkpt>
      <trkpt lat="41.517030" lon="-8.610530">
        <ele>68.794</ele>
        <time>2020-07-16T14:05:16Z</time>
      </trkpt>
      <trkpt lat="41.517110" lon="-8.610100">
        <ele>70.124</ele>
        <time>2020-07-16T14:05:36Z</time>
      </trkpt>
      <trkpt lat="41.517230" lon="-8.609680">
        <ele>73.054</ele>
        <time>2020-07-16T14:05:56Z</time>
      </trkpt>
      <trkpt lat="41.517540" lon="-8.608900">
        <ele>82.985</ele>
        <time>2020-07-16T14:06:16Z</time>
      </trkpt>
      <trkpt lat="41.517850" lon="-8.608440">
        <ele>85.633</ele>
        <time>2020-07-16T14:06:36Z</time>
      </trkpt>
      <trkpt lat="41.517960" lon="-8.608330">
        <ele>85.123</ele>
        <time>2020-07-16T14:06:56Z</time>
      </trkpt>
      <trkpt lat="41.518430" lon="-8.607780">
        <ele>84.615</ele>
        <time>2020-07-16T14:07:16Z</time>
      </trkpt>
      <trkpt lat="41.519770" lon="-8.606400">
        <ele>83.508</ele>
        <time>2020-07-16T14:07:36Z</time>
      </trkpt>
      <trkpt lat="41.520250" lon="-8.605840">
        <ele>77.498</ele>
        <time>2020-07-16T14:07:56Z</time>
      </trkpt>
      <trkpt lat="41.520530" lon="-8.605440">
        <ele>76.615</ele>
        <time>2020-07-16T14:08:16Z</time>
      </trkpt>
      <trkpt lat="41.520820" lon="-8.604910">
        <ele>72.230</ele>
        <time>2020-07-16T14:08:36Z</time>
      </trkpt>
      <trkpt lat="41.521800" lon="-8.602450">
        <ele>55.738</ele>
        <time>2020-07-16T14:08:56Z</time>
      </trkpt>
      <trkpt lat="41.522240" lon="-8.601240">
        <ele>49.445</ele>
        <time>2020-07-16T14:09:16Z</time>
      </trkpt>
      <trkpt lat="41.522310" lon="-8.601010">
        <ele>48.445</ele>
        <time>2020-07-16T14:09:36Z</time>
      </trkpt>
      <trkpt lat="41.522470" lon="-8.600300">
        <ele>47.495</ele>
        <time>2020-07-16T14:09:56Z</time>
      </trkpt>
      <trkpt lat="41.522640" lon="-8.599140">
        <ele>51.176</ele>
        <time>2020-07-16T14:10:16Z</time>
      </trkpt>
      <trkpt lat="41.522850" lon="-8.597170">
        <ele>52.298</ele>
        <time>2020-07-16T14:10:36Z</time>
      </trkpt>
      <trkpt lat="41.522930" lon="-8.595880">
        <ele>62.115</ele>
        <time>2020-07-16T14:10:56Z</time>
      </trkpt>
      <trkpt lat="41.522880" lon="-8.593110">
        <ele>51.126</ele>
        <time>2020-07-16T14:11:16Z</time>
      </trkpt>
      <trkpt lat="41.522820" lon="-8.592630">
        <ele>50.208</ele>
        <time>2020-07-16T14:11:36Z</time>
      </trkpt>
      <trkpt lat="41.522740" lon="-8.592620">
        <ele>50.644</ele>
        <time>2020-07-16T14:11:56Z</time>
      </trkpt>
      <trkpt lat="41.522690" lon="-8.592530">
        <ele>50.741</ele>
        <time>2020-07-16T14:12:16Z</time>
      </trkpt>
      <trkpt lat="41.522700" lon="-8.592430">
        <ele>50.486</ele>
        <time>2020-07-16T14:12:36Z</time>
      </trkpt>
      <trkpt lat="41.522760" lon="-8.592360">
        <ele>49.794</ele>
        <time>2020-07-16T14:12:56Z</time>
      </trkpt>
      <trkpt lat="41.522820" lon="-8.592360">
        <ele>49.061</ele>
        <time>2020-07-16T14:13:16Z</time>
      </trkpt>
      <trkpt lat="41.522850" lon="-8.591970">
        <ele>47.121</ele>
        <time>2020-07-16T14:13:36Z</time>
      </trkpt>
      <trkpt lat="41.522860" lon="-8.591300">
        <ele>48.411</ele>
        <time>2020-07-16T14:13:56Z</time>
      </trkpt>
      <trkpt lat="41.522820" lon="-8.590770">
        <ele>47.082</ele>
        <time>2020-07-16T14:14:16Z</time>
      </trkpt>
      <trkpt lat="41.522750" lon="-8.590390">
        <ele>45.825</ele>
        <time>2020-07-16T14:14:36Z</time>
      </trkpt>
      <trkpt lat="41.522620" lon="-8.589950">
        <ele>45.226</ele>
        <time>2020-07-16T14:14:56Z</time>
      </trkpt>
      <trkpt lat="41.522490" lon="-8.589620">
        <ele>43.708</ele>
        <time>2020-07-16T14:15:16Z</time>
      </trkpt>
      <trkpt lat="41.522320" lon="-8.589280">
        <ele>43.108</ele>
        <time>2020-07-16T14:15:36Z</time>
      </trkpt>
      <trkpt lat="41.521850" lon="-8.588680">
        <ele>43.717</ele>
        <time>2020-07-16T14:15:56Z</time>
      </trkpt>
      <trkpt lat="41.521630" lon="-8.588460">
        <ele>41.694</ele>
        <time>2020-07-16T14:16:16Z</time>
      </trkpt>
      <trkpt lat="41.521340" lon="-8.588220">
        <ele>37.599</ele>
        <time>2020-07-16T14:16:36Z</time>
      </trkpt>
      <trkpt lat="41.521220" lon="-8.588140">
        <ele>36.117</ele>
        <time>2020-07-16T14:16:56Z</time>
      </trkpt>
      <trkpt lat="41.521080" lon="-8.588080">
        <ele>35.344</ele>
        <time>2020-07-16T14:17:16Z</time>
      </trkpt>
      <trkpt lat="41.520440" lon="-8.587730">
        <ele>34.054</ele>
        <time>2020-07-16T14:17:36Z</time>
      </trkpt>
      <trkpt lat="41.519970" lon="-8.587460">
        <ele>37.324</ele>
        <time>2020-07-16T14:17:56Z</time>
      </trkpt>
      <trkpt lat="41.519590" lon="-8.587220">
        <ele>41.955</ele>
        <time>2020-07-16T14:18:16Z</time>
      </trkpt>
      <trkpt lat="41.519450" lon="-8.587150">
        <ele>42.647</ele>
        <time>2020-07-16T14:18:36Z</time>
      </trkpt>
      <trkpt lat="41.519350" lon="-8.587150">
        <ele>43.029</ele>
        <time>2020-07-16T14:18:56Z</time>
      </trkpt>
      <trkpt lat="41.519140" lon="-8.586990">
        <ele>41.121</ele>
        <time>2020-07-16T14:19:16Z</time>
      </trkpt>
      <trkpt lat="41.518760" lon="-8.586830">
        <ele>40.908</ele>
        <time>2020-07-16T14:19:36Z</time>
      </trkpt>
      <trkpt lat="41.517690" lon="-8.586260">
        <ele>42.459</ele>
        <time>2020-07-16T14:19:56Z</time>
      </trkpt>
      <trkpt lat="41.516700" lon="-8.585760">
        <ele>42.066</ele>
        <time>2020-07-16T14:20:16Z</time>
      </trkpt>
      <trkpt lat="41.515580" lon="-8.585170">
        <ele>47.921</ele>
        <time>2020-07-16T14:20:36Z</time>
      </trkpt>
      <trkpt lat="41.515350" lon="-8.585070">
        <ele>48.039</ele>
        <time>2020-07-16T14:20:56Z</time>
      </trkpt>
      <trkpt lat="41.514720" lon="-8.584730">
        <ele>49.046</ele>
        <time>2020-07-16T14:21:16Z</time>
      </trkpt>
      <trkpt lat="41.514680" lon="-8.584770">
        <ele>49.316</ele>
        <time>2020-07-16T14:21:36Z</time>
      </trkpt>
      <trkpt lat="41.514630" lon="-8.584770">
        <ele>49.486</ele>
        <time>2020-07-16T14:21:56Z</time>
      </trkpt>
      <trkpt lat="41.514590" lon="-8.584740">
        <ele>49.537</ele>
        <time>2020-07-16T14:22:16Z</time>
      </trkpt>
      <trkpt lat="41.514570" lon="-8.584680">
        <ele>49.313</ele>
        <time>2020-07-16T14:22:36Z</time>
      </trkpt>
      <trkpt lat="41.514340" lon="-8.584520">
        <ele>49.343</ele>
        <time>2020-07-16T14:22:56Z</time>
      </trkpt>
      <trkpt lat="41.514020" lon="-8.584340">
        <ele>49.207</ele>
        <time>2020-07-16T14:23:16Z</time>
      </trkpt>
      <trkpt lat="41.513940" lon="-8.584270">
        <ele>49.208</ele>
        <time>2020-07-16T14:23:36Z</time>
      </trkpt>
      <trkpt lat="41.508760" lon="-8.581350">
        <ele>40.286</ele>
        <time>2020-07-16T14:23:56Z</time>
      </trkpt>
      <trkpt lat="41.507840" lon="-8.580810">
        <ele>38.993</ele>
        <time>2020-07-16T14:24:16Z</time>
      </trkpt>
      <trkpt lat="41.507730" lon="-8.580730">
        <ele>38.898</ele>
        <time>2020-07-16T14:24:36Z</time>
      </trkpt>
      <trkpt lat="41.507590" lon="-8.580560">
        <ele>38.736</ele>
        <time>2020-07-16T14:24:56Z</time>
      </trkpt>
      <trkpt lat="41.507490" lon="-8.580320">
        <ele>38.263</ele>
        <time>2020-07-16T14:25:16Z</time>
      </trkpt>
      <trkpt lat="41.507430" lon="-8.580080">
        <ele>38.883</ele>
        <time>2020-07-16T14:25:36Z</time>
      </trkpt>
      <trkpt lat="41.507390" lon="-8.579790">
        <ele>39.343</ele>
        <time>2020-07-16T14:25:56Z</time>
      </trkpt>
      <trkpt lat="41.507280" lon="-8.575990">
        <ele>39.284</ele>
        <time>2020-07-16T14:26:16Z</time>
      </trkpt>
      <trkpt lat="41.507250" lon="-8.575700">
        <ele>40.317</ele>
        <time>2020-07-16T14:26:36Z</time>
      </trkpt>
      <trkpt lat="41.507180" lon="-8.575380">
        <ele>42.087</ele>
        <time>2020-07-16T14:26:56Z</time>
      </trkpt>
      <trkpt lat="41.507070" lon="-8.575040">
        <ele>45.715</ele>
        <time>2020-07-16T14:27:16Z</time>
      </trkpt>
      <trkpt lat="41.506930" lon="-8.574750">
        <ele>47.108</ele>
        <time>2020-07-16T14:27:36Z</time>
      </trkpt>
      <trkpt lat="41.506760" lon="-8.574470">
        <ele>47.796</ele>
        <time>2020-07-16T14:27:56Z</time>
      </trkpt>
      <trkpt lat="41.506570" lon="-8.574260">
        <ele>48.763</ele>
        <time>2020-07-16T14:28:16Z</time>
      </trkpt>
      <trkpt lat="41.505970" lon="-8.573660">
        <ele>52.378</ele>
        <time>2020-07-16T14:28:36Z</time>
      </trkpt>
      <trkpt lat="41.505800" lon="-8.573470">
        <ele>53.296</ele>
        <time>2020-07-16T14:28:56Z</time>
      </trkpt>
      <trkpt lat="41.505700" lon="-8.573310">
        <ele>53.433</ele>
        <time>2020-07-16T14:29:16Z</time>
      </trkpt>
      <trkpt lat="41.505360" lon="-8.572340">
        <ele>56.183</ele>
        <time>2020-07-16T14:29:36Z</time>
      </trkpt>
      <trkpt lat="41.505050" lon="-8.571330">
        <ele>56.573</ele>
        <time>2020-07-16T14:29:56Z</time>
      </trkpt>
      <trkpt lat="41.504800" lon="-8.570930">
        <ele>56.744</ele>
        <time>2020-07-16T14:30:16Z</time>
      </trkpt>
      <trkpt lat="41.504530" lon="-8.570760">
        <ele>56.388</ele>
        <time>2020-07-16T14:30:36Z</time>
      </trkpt>
      <trkpt lat="41.504250" lon="-8.570640">
        <ele>55.524</ele>
        <time>2020-07-16T14:30:56Z</time>
      </trkpt>
      <trkpt lat="41.499230" lon="-8.569250">
        <ele>50.726</ele>
        <time>2020-07-16T14:31:16Z</time>
      </trkpt>
      <trkpt lat="41.499160" lon="-8.569250">
        <ele>51.308</ele>
        <time>2020-07-16T14:31:36Z</time>
      </trkpt>
      <trkpt lat="41.498820" lon="-8.569130">
        <ele>53.063</ele>
        <time>2020-07-16T14:31:56Z</time>
      </trkpt>
      <trkpt lat="41.495540" lon="-8.568260">
        <ele>74.270</ele>
        <time>2020-07-16T14:32:16Z</time>
      </trkpt>
      <trkpt lat="41.493770" lon="-8.567790">
        <ele>82.985</ele>
        <time>2020-07-16T14:32:36Z</time>
      </trkpt>
      <trkpt lat="41.493450" lon="-8.567740">
        <ele>84.183</ele>
        <time>2020-07-16T14:32:56Z</time>
      </trkpt>
      <trkpt lat="41.492020" lon="-8.567720">
        <ele>85.850</ele>
        <time>2020-07-16T14:33:16Z</time>
      </trkpt>
      <trkpt lat="41.490580" lon="-8.567730">
        <ele>81.810</ele>
        <time>2020-07-16T14:33:36Z</time>
      </trkpt>
      <trkpt lat="41.490280" lon="-8.567690">
        <ele>83.090</ele>
        <time>2020-07-16T14:33:56Z</time>
      </trkpt>
      <trkpt lat="41.488780" lon="-8.567200">
        <ele>85.111</ele>
        <time>2020-07-16T14:34:16Z</time>
      </trkpt>
      <trkpt lat="41.488700" lon="-8.567210">
        <ele>85.165</ele>
        <time>2020-07-16T14:34:36Z</time>
      </trkpt>
      <trkpt lat="41.488140" lon="-8.567030">
        <ele>87.168</ele>
        <time>2020-07-16T14:34:56Z</time>
      </trkpt>
      <trkpt lat="41.487610" lon="-8.566780">
        <ele>89.814</ele>
        <time>2020-07-16T14:35:16Z</time>
      </trkpt>
      <trkpt lat="41.486340" lon="-8.566340">
        <ele>95.308</ele>
        <time>2020-07-16T14:35:36Z</time>
      </trkpt>
      <trkpt lat="41.484360" lon="-8.565700">
        <ele>99.121</ele>
        <time>2020-07-16T14:35:56Z</time>
      </trkpt>
      <trkpt lat="41.483860" lon="-8.565560">
        <ele>97.818</ele>
        <time>2020-07-16T14:36:16Z</time>
      </trkpt>
      <trkpt lat="41.483630" lon="-8.565550">
        <ele>97.143</ele>
        <time>2020-07-16T14:36:36Z</time>
      </trkpt>
      <trkpt lat="41.483270" lon="-8.565610">
        <ele>97.681</ele>
        <time>2020-07-16T14:36:56Z</time>
      </trkpt>
      <trkpt lat="41.482980" lon="-8.565730">
        <ele>96.418</ele>
        <time>2020-07-16T14:37:16Z</time>
      </trkpt>
      <trkpt lat="41.479870" lon="-8.567540">
        <ele>106.668</ele>
        <time>2020-07-16T14:37:36Z</time>
      </trkpt>
      <trkpt lat="41.479280" lon="-8.567920">
        <ele>111.428</ele>
        <time>2020-07-16T14:37:56Z</time>
      </trkpt>
      <trkpt lat="41.478090" lon="-8.568600">
        <ele>110.159</ele>
        <time>2020-07-16T14:38:16Z</time>
      </trkpt>
      <trkpt lat="41.478000" lon="-8.568620">
        <ele>109.692</ele>
        <time>2020-07-16T14:38:36Z</time>
      </trkpt>
      <trkpt lat="41.477820" lon="-8.568710">
        <ele>108.673</ele>
        <time>2020-07-16T14:38:56Z</time>
      </trkpt>
      <trkpt lat="41.477160" lon="-8.569100">
        <ele>109.220</ele>
        <time>2020-07-16T14:39:16Z</time>
      </trkpt>
      <trkpt lat="41.476670" lon="-8.569340">
        <ele>113.008</ele>
        <time>2020-07-16T14:39:36Z</time>
      </trkpt>
      <trkpt lat="41.476440" lon="-8.569410">
        <ele>113.874</ele>
        <time>2020-07-16T14:39:56Z</time>
      </trkpt>
      <trkpt lat="41.476140" lon="-8.569370">
        <ele>115.131</ele>
        <time>2020-07-16T14:40:16Z</time>
      </trkpt>
      <trkpt lat="41.476010" lon="-8.569310">
        <ele>116.096</ele>
        <time>2020-07-16T14:40:36Z</time>
      </trkpt>
      <trkpt lat="41.475440" lon="-8.568810">
        <ele>117.384</ele>
        <time>2020-07-16T14:40:56Z</time>
      </trkpt>
      <trkpt lat="41.475230" lon="-8.568690">
        <ele>117.991</ele>
        <time>2020-07-16T14:41:16Z</time>
      </trkpt>
      <trkpt lat="41.475110" lon="-8.568640">
        <ele>118.561</ele>
        <time>2020-07-16T14:41:36Z</time>
      </trkpt>
      <trkpt lat="41.474860" lon="-8.568600">
        <ele>119.551</ele>
        <time>2020-07-16T14:41:56Z</time>
      </trkpt>
      <trkpt lat="41.473740" lon="-8.568650">
        <ele>115.172</ele>
        <time>2020-07-16T14:42:16Z</time>
      </trkpt>
      <trkpt lat="41.465890" lon="-8.569170">
        <ele>111.681</ele>
        <time>2020-07-16T14:42:36Z</time>
      </trkpt>
      <trkpt lat="41.465770" lon="-8.569170">
        <ele>112.261</ele>
        <time>2020-07-16T14:42:56Z</time>
      </trkpt>
      <trkpt lat="41.465770" lon="-8.569030">
        <ele>111.717</ele>
        <time>2020-07-16T14:43:16Z</time>
      </trkpt>
      <trkpt lat="41.465770" lon="-8.569170">
        <ele>112.208</ele>
        <time>2020-07-16T14:43:36Z</time>
      </trkpt>
      <trkpt lat="41.464120" lon="-8.569260">
        <ele>117.453</ele>
        <time>2020-07-16T14:43:56Z</time>
      </trkpt>
      <trkpt lat="41.463860" lon="-8.569230">
        <ele>115.970</ele>
        <time>2020-07-16T14:44:16Z</time>
      </trkpt>
      <trkpt lat="41.463690" lon="-8.569150">
        <ele>113.825</ele>
        <time>2020-07-16T14:44:36Z</time>
      </trkpt>
      <trkpt lat="41.462810" lon="-8.568560">
        <ele>110.763</ele>
        <time>2020-07-16T14:44:56Z</time>
      </trkpt>
      <trkpt lat="41.462650" lon="-8.568460">
        <ele>111.690</ele>
        <time>2020-07-16T14:45:16Z</time>
      </trkpt>
      <trkpt lat="41.462570" lon="-8.568430">
        <ele>112.320</ele>
        <time>2020-07-16T14:45:36Z</time>
      </trkpt>
      <trkpt lat="41.462460" lon="-8.568410">
        <ele>113.410</ele>
        <time>2020-07-16T14:45:56Z</time>
      </trkpt>
      <trkpt lat="41.462350" lon="-8.568420">
        <ele>114.681</ele>
        <time>2020-07-16T14:46:16Z</time>
      </trkpt>
      <trkpt lat="41.461460" lon="-8.568710">
        <ele>117.921</ele>
        <time>2020-07-16T14:46:36Z</time>
      </trkpt>
      <trkpt lat="41.461190" lon="-8.568690">
        <ele>118.141</ele>
        <time>2020-07-16T14:46:56Z</time>
      </trkpt>
      <trkpt lat="41.461010" lon="-8.568640">
        <ele>118.105</ele>
        <time>2020-07-16T14:47:16Z</time>
      </trkpt>
      <trkpt lat="41.460500" lon="-8.568330">
        <ele>117.008</ele>
        <time>2020-07-16T14:47:36Z</time>
      </trkpt>
      <trkpt lat="41.458130" lon="-8.566790">
        <ele>114.417</ele>
        <time>2020-07-16T14:47:56Z</time>
      </trkpt>
      <trkpt lat="41.452920" lon="-8.563350">
        <ele>120.994</ele>
        <time>2020-07-16T14:48:16Z</time>
      </trkpt>
      <trkpt lat="41.451550" lon="-8.562460">
        <ele>116.139</ele>
        <time>2020-07-16T14:48:36Z</time>
      </trkpt>
      <trkpt lat="41.450860" lon="-8.562030">
        <ele>109.527</ele>
        <time>2020-07-16T14:48:56Z</time>
      </trkpt>
      <trkpt lat="41.450570" lon="-8.561890">
        <ele>106.924</ele>
        <time>2020-07-16T14:49:16Z</time>
      </trkpt>
      <trkpt lat="41.450410" lon="-8.561840">
        <ele>106.194</ele>
        <time>2020-07-16T14:49:36Z</time>
      </trkpt>
      <trkpt lat="41.450080" lon="-8.561810">
        <ele>105.184</ele>
        <time>2020-07-16T14:49:56Z</time>
      </trkpt>
      <trkpt lat="41.449920" lon="-8.561820">
        <ele>104.755</ele>
        <time>2020-07-16T14:50:16Z</time>
      </trkpt>
      <trkpt lat="41.449740" lon="-8.561740">
        <ele>104.159</ele>
        <time>2020-07-16T14:50:36Z</time>
      </trkpt>
      <trkpt lat="41.449690" lon="-8.561750">
        <ele>103.903</ele>
        <time>2020-07-16T14:50:56Z</time>
      </trkpt>
      <trkpt lat="41.449630" lon="-8.561710">
        <ele>103.723</ele>
        <time>2020-07-16T14:51:16Z</time>
      </trkpt>
      <trkpt lat="41.449500" lon="-8.561370">
        <ele>103.108</ele>
        <time>2020-07-16T14:51:36Z</time>
      </trkpt>
      <trkpt lat="41.449450" lon="-8.561190">
        <ele>102.390</ele>
        <time>2020-07-16T14:51:56Z</time>
      </trkpt>
      <trkpt lat="41.449370" lon="-8.560730">
        <ele>99.067</ele>
        <time>2020-07-16T14:52:16Z</time>
      </trkpt>
      <trkpt lat="41.449240" lon="-8.560280">
        <ele>96.062</ele>
        <time>2020-07-16T14:52:36Z</time>
      </trkpt>
      <trkpt lat="41.449050" lon="-8.559830">
        <ele>93.840</ele>
        <time>2020-07-16T14:52:56Z</time>
      </trkpt>
      <trkpt lat="41.446840" lon="-8.555350">
        <ele>76.297</ele>
        <time>2020-07-16T14:53:16Z</time>
      </trkpt>
      <trkpt lat="41.444280" lon="-8.550210">
        <ele>73.167</ele>
        <time>2020-07-16T14:53:36Z</time>
      </trkpt>
      <trkpt lat="41.444120" lon="-8.549800">
        <ele>73.257</ele>
        <time>2020-07-16T14:53:56Z</time>
      </trkpt>
      <trkpt lat="41.443840" lon="-8.548790">
        <ele>72.478</ele>
        <time>2020-07-16T14:54:16Z</time>
      </trkpt>
      <trkpt lat="41.443440" lon="-8.547190">
        <ele>74.685</ele>
        <time>2020-07-16T14:54:36Z</time>
      </trkpt>
      <trkpt lat="41.443380" lon="-8.547050">
        <ele>74.889</ele>
        <time>2020-07-16T14:54:56Z</time>
      </trkpt>
      <trkpt lat="41.443030" lon="-8.545590">
        <ele>80.217</ele>
        <time>2020-07-16T14:55:16Z</time>
      </trkpt>
      <trkpt lat="41.442840" lon="-8.544880">
        <ele>83.608</ele>
        <time>2020-07-16T14:55:36Z</time>
      </trkpt>
      <trkpt lat="41.442570" lon="-8.544200">
        <ele>87.823</ele>
        <time>2020-07-16T14:55:56Z</time>
      </trkpt>
      <trkpt lat="41.442340" lon="-8.543760">
        <ele>89.940</ele>
        <time>2020-07-16T14:56:16Z</time>
      </trkpt>
      <trkpt lat="41.442000" lon="-8.543250">
        <ele>91.245</ele>
        <time>2020-07-16T14:56:36Z</time>
      </trkpt>
      <trkpt lat="41.441730" lon="-8.542930">
        <ele>91.123</ele>
        <time>2020-07-16T14:56:56Z</time>
      </trkpt>
      <trkpt lat="41.441440" lon="-8.542650">
        <ele>91.530</ele>
        <time>2020-07-16T14:57:16Z</time>
      </trkpt>
      <trkpt lat="41.441110" lon="-8.542380">
        <ele>92.080</ele>
        <time>2020-07-16T14:57:36Z</time>
      </trkpt>
      <trkpt lat="41.440800" lon="-8.542190">
        <ele>92.030</ele>
        <time>2020-07-16T14:57:56Z</time>
      </trkpt>
      <trkpt lat="41.440360" lon="-8.541970">
        <ele>92.071</ele>
        <time>2020-07-16T14:58:16Z</time>
      </trkpt>
      <trkpt lat="41.431770" lon="-8.538310">
        <ele>88.521</ele>
        <time>2020-07-16T14:58:36Z</time>
      </trkpt>
      <trkpt lat="41.431420" lon="-8.538130">
        <ele>89.541</ele>
        <time>2020-07-16T14:58:56Z</time>
      </trkpt>
      <trkpt lat="41.431300" lon="-8.538040">
        <ele>90.105</ele>
        <time>2020-07-16T14:59:16Z</time>
      </trkpt>
      <trkpt lat="41.431090" lon="-8.537810">
        <ele>90.908</ele>
        <time>2020-07-16T14:59:36Z</time>
      </trkpt>
      <trkpt lat="41.429460" lon="-8.535580">
        <ele>92.927</ele>
        <time>2020-07-16T14:59:56Z</time>
      </trkpt>
      <trkpt lat="41.429070" lon="-8.535080">
        <ele>93.134</ele>
        <time>2020-07-16T15:00:16Z</time>
      </trkpt>
      <trkpt lat="41.428770" lon="-8.534820">
        <ele>92.359</ele>
        <time>2020-07-16T15:00:36Z</time>
      </trkpt>
      <trkpt lat="41.428510" lon="-8.534690">
        <ele>91.337</ele>
        <time>2020-07-16T15:00:56Z</time>
      </trkpt>
      <trkpt lat="41.428370" lon="-8.534660">
        <ele>91.334</ele>
        <time>2020-07-16T15:01:16Z</time>
      </trkpt>
      <trkpt lat="41.428220" lon="-8.534650">
        <ele>91.494</ele>
        <time>2020-07-16T15:01:36Z</time>
      </trkpt>
      <trkpt lat="41.427770" lon="-8.534750">
        <ele>91.914</ele>
        <time>2020-07-16T15:01:56Z</time>
      </trkpt>
      <trkpt lat="41.426820" lon="-8.535020">
        <ele>92.475</ele>
        <time>2020-07-16T15:02:16Z</time>
      </trkpt>
      <trkpt lat="41.426590" lon="-8.535050">
        <ele>92.815</ele>
        <time>2020-07-16T15:02:36Z</time>
      </trkpt>
      <trkpt lat="41.426440" lon="-8.535040">
        <ele>92.965</ele>
        <time>2020-07-16T15:02:56Z</time>
      </trkpt>
      <trkpt lat="41.426330" lon="-8.535010">
        <ele>92.811</ele>
        <time>2020-07-16T15:03:16Z</time>
      </trkpt>
      <trkpt lat="41.425430" lon="-8.534570">
        <ele>92.408</ele>
        <time>2020-07-16T15:03:36Z</time>
      </trkpt>
      <trkpt lat="41.425150" lon="-8.534460">
        <ele>95.446</ele>
        <time>2020-07-16T15:03:56Z</time>
      </trkpt>
      <trkpt lat="41.423900" lon="-8.534160">
        <ele>105.943</ele>
        <time>2020-07-16T15:04:16Z</time>
      </trkpt>
      <trkpt lat="41.423730" lon="-8.534150">
        <ele>107.168</ele>
        <time>2020-07-16T15:04:36Z</time>
      </trkpt>
      <trkpt lat="41.423590" lon="-8.534180">
        <ele>108.176</ele>
        <time>2020-07-16T15:04:56Z</time>
      </trkpt>
      <trkpt lat="41.423380" lon="-8.534270">
        <ele>109.253</ele>
        <time>2020-07-16T15:05:16Z</time>
      </trkpt>
      <trkpt lat="41.423210" lon="-8.534410">
        <ele>110.853</ele>
        <time>2020-07-16T15:05:36Z</time>
      </trkpt>
      <trkpt lat="41.422960" lon="-8.534850">
        <ele>112.313</ele>
        <time>2020-07-16T15:05:56Z</time>
      </trkpt>
      <trkpt lat="41.422370" lon="-8.536140">
        <ele>119.064</ele>
        <time>2020-07-16T15:06:16Z</time>
      </trkpt>
      <trkpt lat="41.422250" lon="-8.536320">
        <ele>119.933</ele>
        <time>2020-07-16T15:06:36Z</time>
      </trkpt>
      <trkpt lat="41.422160" lon="-8.536420">
        <ele>120.523</ele>
        <time>2020-07-16T15:06:56Z</time>
      </trkpt>
      <trkpt lat="41.422020" lon="-8.536520">
        <ele>121.615</ele>
        <time>2020-07-16T15:07:16Z</time>
      </trkpt>
      <trkpt lat="41.421900" lon="-8.536580">
        <ele>122.508</ele>
        <time>2020-07-16T15:07:36Z</time>
      </trkpt>
      <trkpt lat="41.421780" lon="-8.536610">
        <ele>123.898</ele>
        <time>2020-07-16T15:07:56Z</time>
      </trkpt>
      <trkpt lat="41.421600" lon="-8.536610">
        <ele>126.185</ele>
        <time>2020-07-16T15:08:16Z</time>
      </trkpt>
      <trkpt lat="41.421370" lon="-8.536530">
        <ele>129.440</ele>
        <time>2020-07-16T15:08:36Z</time>
      </trkpt>
      <trkpt lat="41.421160" lon="-8.536370">
        <ele>131.968</ele>
        <time>2020-07-16T15:08:56Z</time>
      </trkpt>
      <trkpt lat="41.421050" lon="-8.536220">
        <ele>132.565</ele>
        <time>2020-07-16T15:09:16Z</time>
      </trkpt>
      <trkpt lat="41.420980" lon="-8.536040">
        <ele>132.815</ele>
        <time>2020-07-16T15:09:36Z</time>
      </trkpt>
      <trkpt lat="41.420850" lon="-8.535080">
        <ele>143.655</ele>
        <time>2020-07-16T15:09:56Z</time>
      </trkpt>
      <trkpt lat="41.420800" lon="-8.534920">
        <ele>144.566</ele>
        <time>2020-07-16T15:10:16Z</time>
      </trkpt>
      <trkpt lat="41.420680" lon="-8.534730">
        <ele>145.075</ele>
        <time>2020-07-16T15:10:36Z</time>
      </trkpt>
      <trkpt lat="41.420560" lon="-8.534590">
        <ele>144.128</ele>
        <time>2020-07-16T15:10:56Z</time>
      </trkpt>
      <trkpt lat="41.420450" lon="-8.534500">
        <ele>144.520</ele>
        <time>2020-07-16T15:11:16Z</time>
      </trkpt>
      <trkpt lat="41.420350" lon="-8.534450">
        <ele>145.308</ele>
        <time>2020-07-16T15:11:36Z</time>
      </trkpt>
      <trkpt lat="41.420070" lon="-8.534370">
        <ele>147.362</ele>
        <time>2020-07-16T15:11:56Z</time>
      </trkpt>
      <trkpt lat="41.419540" lon="-8.534360">
        <ele>152.129</ele>
        <time>2020-07-16T15:12:16Z</time>
      </trkpt>
      <trkpt lat="41.416800" lon="-8.534350">
        <ele>151.224</ele>
        <time>2020-07-16T15:12:36Z</time>
      </trkpt>
      <trkpt lat="41.416590" lon="-8.534390">
        <ele>150.642</ele>
        <time>2020-07-16T15:12:56Z</time>
      </trkpt>
      <trkpt lat="41.416530" lon="-8.534420">
        <ele>150.139</ele>
        <time>2020-07-16T15:13:16Z</time>
      </trkpt>
      <trkpt lat="41.416460" lon="-8.534410">
        <ele>149.769</ele>
        <time>2020-07-16T15:13:36Z</time>
      </trkpt>
      <trkpt lat="41.416410" lon="-8.534360">
        <ele>149.739</ele>
        <time>2020-07-16T15:13:56Z</time>
      </trkpt>
      <trkpt lat="41.416390" lon="-8.534240">
        <ele>150.510</ele>
        <time>2020-07-16T15:14:16Z</time>
      </trkpt>
      <trkpt lat="41.416460" lon="-8.534150">
        <ele>151.173</ele>
        <time>2020-07-16T15:14:36Z</time>
      </trkpt>
      <trkpt lat="41.416470" lon="-8.533670">
        <ele>152.885</ele>
        <time>2020-07-16T15:14:56Z</time>
      </trkpt>
      <trkpt lat="41.416130" lon="-8.529940">
        <ele>137.813</ele>
        <time>2020-07-16T15:15:16Z</time>
      </trkpt>
      <trkpt lat="41.415850" lon="-8.527120">
        <ele>132.908</ele>
        <time>2020-07-16T15:15:36Z</time>
      </trkpt>
      <trkpt lat="41.415340" lon="-8.524080">
        <ele>120.792</ele>
        <time>2020-07-16T15:15:56Z</time>
      </trkpt>
      <trkpt lat="41.414980" lon="-8.522140">
        <ele>105.899</ele>
        <time>2020-07-16T15:16:16Z</time>
      </trkpt>
      <trkpt lat="41.414860" lon="-8.521240">
        <ele>103.794</ele>
        <time>2020-07-16T15:16:36Z</time>
      </trkpt>
      <trkpt lat="41.414620" lon="-8.519790">
        <ele>99.732</ele>
        <time>2020-07-16T15:16:56Z</time>
      </trkpt>
      <trkpt lat="41.414550" lon="-8.519680">
        <ele>100.489</ele>
        <time>2020-07-16T15:17:16Z</time>
      </trkpt>
      <trkpt lat="41.414360" lon="-8.519550">
        <ele>100.889</ele>
        <time>2020-07-16T15:17:36Z</time>
      </trkpt>
      <trkpt lat="41.414320" lon="-8.519490">
        <ele>100.819</ele>
        <time>2020-07-16T15:17:56Z</time>
      </trkpt>
      <trkpt lat="41.414300" lon="-8.519400">
        <ele>101.670</ele>
        <time>2020-07-16T15:18:16Z</time>
      </trkpt>
      <trkpt lat="41.414310" lon="-8.519290">
        <ele>103.653</ele>
        <time>2020-07-16T15:18:36Z</time>
      </trkpt>
      <trkpt lat="41.414080" lon="-8.519050">
        <ele>104.904</ele>
        <time>2020-07-16T15:18:56Z</time>
      </trkpt>
      <trkpt lat="41.413720" lon="-8.518730">
        <ele>100.714</ele>
        <time>2020-07-16T15:19:16Z</time>
      </trkpt>
      <trkpt lat="41.411860" lon="-8.517180">
        <ele>90.308</ele>
        <time>2020-07-16T15:19:36Z</time>
      </trkpt>
      <trkpt lat="41.411590" lon="-8.517000">
        <ele>90.310</ele>
        <time>2020-07-16T15:19:56Z</time>
      </trkpt>
      <trkpt lat="41.411460" lon="-8.516930">
        <ele>89.937</ele>
        <time>2020-07-16T15:20:16Z</time>
      </trkpt>
      <trkpt lat="41.411110" lon="-8.516860">
        <ele>89.752</ele>
        <time>2020-07-16T15:20:36Z</time>
      </trkpt>
      <trkpt lat="41.410010" lon="-8.516780">
        <ele>90.880</ele>
        <time>2020-07-16T15:20:56Z</time>
      </trkpt>
      <trkpt lat="41.409920" lon="-8.516790">
        <ele>90.367</ele>
        <time>2020-07-16T15:21:16Z</time>
      </trkpt>
      <trkpt lat="41.409770" lon="-8.516850">
        <ele>89.737</ele>
        <time>2020-07-16T15:21:36Z</time>
      </trkpt>
      <trkpt lat="41.409680" lon="-8.516860">
        <ele>89.427</ele>
        <time>2020-07-16T15:21:56Z</time>
      </trkpt>
      <trkpt lat="41.409620" lon="-8.516830">
        <ele>89.238</ele>
        <time>2020-07-16T15:22:16Z</time>
      </trkpt>
      <trkpt lat="41.409580" lon="-8.516710">
        <ele>88.343</ele>
        <time>2020-07-16T15:22:36Z</time>
      </trkpt>
      <trkpt lat="41.409600" lon="-8.516580">
        <ele>87.764</ele>
        <time>2020-07-16T15:22:56Z</time>
      </trkpt>
      <trkpt lat="41.409670" lon="-8.516480">
        <ele>87.310</ele>
        <time>2020-07-16T15:23:16Z</time>
      </trkpt>
      <trkpt lat="41.409800" lon="-8.516360">
        <ele>87.208</ele>
        <time>2020-07-16T15:23:36Z</time>
      </trkpt>
      <trkpt lat="41.409950" lon="-8.516090">
        <ele>86.869</ele>
        <time>2020-07-16T15:23:56Z</time>
      </trkpt>
      <trkpt lat="41.410840" lon="-8.513860">
        <ele>97.266</ele>
        <time>2020-07-16T15:24:16Z</time>
      </trkpt>
      <trkpt lat="41.411160" lon="-8.513110">
        <ele>95.891</ele>
        <time>2020-07-16T15:24:36Z</time>
      </trkpt>
      <trkpt lat="41.411590" lon="-8.512110">
        <ele>90.219</ele>
        <time>2020-07-16T15:24:56Z</time>
      </trkpt>
      <trkpt lat="41.411840" lon="-8.511640">
        <ele>90.436</ele>
        <time>2020-07-16T15:25:16Z</time>
      </trkpt>
      <trkpt lat="41.411980" lon="-8.511340">
        <ele>88.146</ele>
        <time>2020-07-16T15:25:36Z</time>
      </trkpt>
      <trkpt lat="41.411970" lon="-8.511300">
        <ele>88.156</ele>
        <time>2020-07-16T15:25:56Z</time>
      </trkpt>
      <trkpt lat="41.412000" lon="-8.511180">
        <ele>88.047</ele>
        <time>2020-07-16T15:26:16Z</time>
      </trkpt>
      <trkpt lat="41.412040" lon="-8.511120">
        <ele>88.055</ele>
        <time>2020-07-16T15:26:36Z</time>
      </trkpt>
      <trkpt lat="41.412120" lon="-8.511100">
        <ele>88.007</ele>
        <time>2020-07-16T15:26:56Z</time>
      </trkpt>
      <trkpt lat="41.412210" lon="-8.510930">
        <ele>88.017</ele>
        <time>2020-07-16T15:27:16Z</time>
      </trkpt>
      <trkpt lat="41.412510" lon="-8.509970">
        <ele>88.008</ele>
        <time>2020-07-16T15:27:36Z</time>
      </trkpt>
      <trkpt lat="41.413550" lon="-8.507440">
        <ele>87.050</ele>
        <time>2020-07-16T15:27:56Z</time>
      </trkpt>
      <trkpt lat="41.413480" lon="-8.507320">
        <ele>87.037</ele>
        <time>2020-07-16T15:28:16Z</time>
      </trkpt>
      <trkpt lat="41.413470" lon="-8.507160">
        <ele>87.162</ele>
        <time>2020-07-16T15:28:36Z</time>
      </trkpt>
      <trkpt lat="41.413500" lon="-8.507050">
        <ele>87.230</ele>
        <time>2020-07-16T15:28:56Z</time>
      </trkpt>
      <trkpt lat="41.413560" lon="-8.506970">
        <ele>87.217</ele>
        <time>2020-07-16T15:29:16Z</time>
      </trkpt>
      <trkpt lat="41.413640" lon="-8.506920">
        <ele>86.997</ele>
        <time>2020-07-16T15:29:36Z</time>
      </trkpt>
      <trkpt lat="41.413690" lon="-8.506910">
        <ele>86.757</ele>
        <time>2020-07-16T15:29:56Z</time>
      </trkpt>
      <trkpt lat="41.413830" lon="-8.506750">
        <ele>86.228</ele>
        <time>2020-07-16T15:30:16Z</time>
      </trkpt>
      <trkpt lat="41.414560" lon="-8.505070">
        <ele>88.113</ele>
        <time>2020-07-16T15:30:36Z</time>
      </trkpt>
      <trkpt lat="41.415680" lon="-8.502330">
        <ele>93.843</ele>
        <time>2020-07-16T15:30:56Z</time>
      </trkpt>
      <trkpt lat="41.415860" lon="-8.502010">
        <ele>95.807</ele>
        <time>2020-07-16T15:31:16Z</time>
      </trkpt>
      <trkpt lat="41.415990" lon="-8.501850">
        <ele>98.008</ele>
        <time>2020-07-16T15:31:36Z</time>
      </trkpt>
      <trkpt lat="41.416930" lon="-8.501230">
        <ele>103.096</ele>
        <time>2020-07-16T15:31:56Z</time>
      </trkpt>
      <trkpt lat="41.417130" lon="-8.501060">
        <ele>102.843</ele>
        <time>2020-07-16T15:32:16Z</time>
      </trkpt>
      <trkpt lat="41.417310" lon="-8.500830">
        <ele>103.758</ele>
        <time>2020-07-16T15:32:36Z</time>
      </trkpt>
      <trkpt lat="41.417590" lon="-8.500330">
        <ele>109.376</ele>
        <time>2020-07-16T15:32:56Z</time>
      </trkpt>
      <trkpt lat="41.419280" lon="-8.496730">
        <ele>115.973</ele>
        <time>2020-07-16T15:33:16Z</time>
      </trkpt>
      <trkpt lat="41.422370" lon="-8.490070">
        <ele>127.463</ele>
        <time>2020-07-16T15:33:36Z</time>
      </trkpt>
      <trkpt lat="41.422590" lon="-8.489500">
        <ele>127.313</ele>
        <time>2020-07-16T15:33:56Z</time>
      </trkpt>
      <trkpt lat="41.422660" lon="-8.489240">
        <ele>126.874</ele>
        <time>2020-07-16T15:34:16Z</time>
      </trkpt>
      <trkpt lat="41.422680" lon="-8.488960">
        <ele>126.477</ele>
        <time>2020-07-16T15:34:36Z</time>
      </trkpt>
      <trkpt lat="41.422560" lon="-8.487940">
        <ele>121.961</ele>
        <time>2020-07-16T15:34:56Z</time>
      </trkpt>
      <trkpt lat="41.422470" lon="-8.487570">
        <ele>122.627</ele>
        <time>2020-07-16T15:35:16Z</time>
      </trkpt>
      <trkpt lat="41.422340" lon="-8.487340">
        <ele>125.108</ele>
        <time>2020-07-16T15:35:36Z</time>
      </trkpt>
      <trkpt lat="41.422190" lon="-8.487230">
        <ele>127.012</ele>
        <time>2020-07-16T15:35:56Z</time>
      </trkpt>
      <trkpt lat="41.421960" lon="-8.487200">
        <ele>128.219</ele>
        <time>2020-07-16T15:36:16Z</time>
      </trkpt>
      <trkpt lat="41.421000" lon="-8.487220">
        <ele>128.014</ele>
        <time>2020-07-16T15:36:36Z</time>
      </trkpt>
      <trkpt lat="41.420710" lon="-8.487210">
        <ele>127.772</ele>
        <time>2020-07-16T15:36:56Z</time>
      </trkpt>
      <trkpt lat="41.420440" lon="-8.487090">
        <ele>128.829</ele>
        <time>2020-07-16T15:37:16Z</time>
      </trkpt>
      <trkpt lat="41.418730" lon="-8.486120">
        <ele>125.189</ele>
        <time>2020-07-16T15:37:36Z</time>
      </trkpt>
      <trkpt lat="41.418580" lon="-8.486010">
        <ele>124.879</ele>
        <time>2020-07-16T15:37:56Z</time>
      </trkpt>
      <trkpt lat="41.418490" lon="-8.485910">
        <ele>124.980</ele>
        <time>2020-07-16T15:38:16Z</time>
      </trkpt>
      <trkpt lat="41.417780" lon="-8.485000">
        <ele>125.031</ele>
        <time>2020-07-16T15:38:36Z</time>
      </trkpt>
      <trkpt lat="41.417640" lon="-8.484710">
        <ele>125.661</ele>
        <time>2020-07-16T15:38:56Z</time>
      </trkpt>
      <trkpt lat="41.417590" lon="-8.484500">
        <ele>126.507</ele>
        <time>2020-07-16T15:39:16Z</time>
      </trkpt>
      <trkpt lat="41.417570" lon="-8.484270">
        <ele>126.208</ele>
        <time>2020-07-16T15:39:36Z</time>
      </trkpt>
      <trkpt lat="41.417530" lon="-8.482530">
        <ele>131.748</ele>
        <time>2020-07-16T15:39:56Z</time>
      </trkpt>
      <trkpt lat="41.417520" lon="-8.482400">
        <ele>131.045</ele>
        <time>2020-07-16T15:40:16Z</time>
      </trkpt>
      <trkpt lat="41.417460" lon="-8.482150">
        <ele>130.040</ele>
        <time>2020-07-16T15:40:36Z</time>
      </trkpt>
      <trkpt lat="41.417430" lon="-8.482080">
        <ele>130.098</ele>
        <time>2020-07-16T15:40:56Z</time>
      </trkpt>
      <trkpt lat="41.417330" lon="-8.481950">
        <ele>129.895</ele>
        <time>2020-07-16T15:41:16Z</time>
      </trkpt>
      <trkpt lat="41.417210" lon="-8.481880">
        <ele>129.425</ele>
        <time>2020-07-16T15:41:36Z</time>
      </trkpt>
      <trkpt lat="41.416870" lon="-8.481760">
        <ele>128.475</ele>
        <time>2020-07-16T15:41:56Z</time>
      </trkpt>
      <trkpt lat="41.416680" lon="-8.481620">
        <ele>128.826</ele>
        <time>2020-07-16T15:42:16Z</time>
      </trkpt>
      <trkpt lat="41.416540" lon="-8.481470">
        <ele>129.961</ele>
        <time>2020-07-16T15:42:36Z</time>
      </trkpt>
      <trkpt lat="41.416250" lon="-8.480950">
        <ele>134.421</ele>
        <time>2020-07-16T15:42:56Z</time>
      </trkpt>
      <trkpt lat="41.416010" lon="-8.480470">
        <ele>140.313</ele>
        <time>2020-07-16T15:43:16Z</time>
      </trkpt>
      <trkpt lat="41.415840" lon="-8.480070">
        <ele>144.308</ele>
        <time>2020-07-16T15:43:36Z</time>
      </trkpt>
      <trkpt lat="41.415770" lon="-8.479790">
        <ele>143.671</ele>
        <time>2020-07-16T15:43:56Z</time>
      </trkpt>
      <trkpt lat="41.415580" lon="-8.478250">
        <ele>137.578</ele>
        <time>2020-07-16T15:44:16Z</time>
      </trkpt>
      <trkpt lat="41.415560" lon="-8.477820">
        <ele>137.143</ele>
        <time>2020-07-16T15:44:36Z</time>
      </trkpt>
      <trkpt lat="41.416220" lon="-8.475150">
        <ele>139.891</ele>
        <time>2020-07-16T15:44:56Z</time>
      </trkpt>
      <trkpt lat="41.416240" lon="-8.474900">
        <ele>140.228</ele>
        <time>2020-07-16T15:45:16Z</time>
      </trkpt>
      <trkpt lat="41.416220" lon="-8.474620">
        <ele>140.878</ele>
        <time>2020-07-16T15:45:36Z</time>
      </trkpt>
      <trkpt lat="41.416120" lon="-8.474270">
        <ele>140.728</ele>
        <time>2020-07-16T15:45:56Z</time>
      </trkpt>
      <trkpt lat="41.415970" lon="-8.473990">
        <ele>141.549</ele>
        <time>2020-07-16T15:46:16Z</time>
      </trkpt>
      <trkpt lat="41.415730" lon="-8.473750">
        <ele>143.264</ele>
        <time>2020-07-16T15:46:36Z</time>
      </trkpt>
      <trkpt lat="41.415350" lon="-8.473450">
        <ele>145.106</ele>
        <time>2020-07-16T15:46:56Z</time>
      </trkpt>
      <trkpt lat="41.415150" lon="-8.473250">
        <ele>145.216</ele>
        <time>2020-07-16T15:47:16Z</time>
      </trkpt>
      <trkpt lat="41.415080" lon="-8.473130">
        <ele>145.008</ele>
        <time>2020-07-16T15:47:36Z</time>
      </trkpt>
      <trkpt lat="41.414970" lon="-8.472800">
        <ele>145.221</ele>
        <time>2020-07-16T15:47:56Z</time>
      </trkpt>
      <trkpt lat="41.414960" lon="-8.472520">
        <ele>146.258</ele>
        <time>2020-07-16T15:48:16Z</time>
      </trkpt>
      <trkpt lat="41.414980" lon="-8.472370">
        <ele>147.143</ele>
        <time>2020-07-16T15:48:36Z</time>
      </trkpt>
      <trkpt lat="41.415020" lon="-8.472230">
        <ele>148.011</ele>
        <time>2020-07-16T15:48:56Z</time>
      </trkpt>
      <trkpt lat="41.415440" lon="-8.471460">
        <ele>148.858</ele>
        <time>2020-07-16T15:49:16Z</time>
      </trkpt>
      <trkpt lat="41.415450" lon="-8.471390">
        <ele>148.538</ele>
        <time>2020-07-16T15:49:36Z</time>
      </trkpt>
      <trkpt lat="41.415700" lon="-8.470900">
        <ele>151.478</ele>
        <time>2020-07-16T15:49:56Z</time>
      </trkpt>
      <trkpt lat="41.416070" lon="-8.470290">
        <ele>158.069</ele>
        <time>2020-07-16T15:50:16Z</time>
      </trkpt>
      <trkpt lat="41.416160" lon="-8.470200">
        <ele>160.758</ele>
        <time>2020-07-16T15:50:36Z</time>
      </trkpt>
      <trkpt lat="41.416230" lon="-8.470050">
        <ele>163.252</ele>
        <time>2020-07-16T15:50:56Z</time>
      </trkpt>
      <trkpt lat="41.416290" lon="-8.469780">
        <ele>165.217</ele>
        <time>2020-07-16T15:51:16Z</time>
      </trkpt>
      <trkpt lat="41.416080" lon="-8.467720">
        <ele>158.308</ele>
        <time>2020-07-16T15:51:36Z</time>
      </trkpt>
      <trkpt lat="41.416020" lon="-8.467470">
        <ele>157.070</ele>
        <time>2020-07-16T15:51:56Z</time>
      </trkpt>
      <trkpt lat="41.415960" lon="-8.467320">
        <ele>155.827</ele>
        <time>2020-07-16T15:52:16Z</time>
      </trkpt>
      <trkpt lat="41.415870" lon="-8.467180">
        <ele>155.732</ele>
        <time>2020-07-16T15:52:36Z</time>
      </trkpt>
      <trkpt lat="41.415720" lon="-8.467070">
        <ele>157.170</ele>
        <time>2020-07-16T15:52:56Z</time>
      </trkpt>
      <trkpt lat="41.415050" lon="-8.466710">
        <ele>164.467</ele>
        <time>2020-07-16T15:53:16Z</time>
      </trkpt>
      <trkpt lat="41.414030" lon="-8.466210">
        <ele>161.487</ele>
        <time>2020-07-16T15:53:36Z</time>
      </trkpt>
      <trkpt lat="41.413910" lon="-8.466170">
        <ele>160.847</ele>
        <time>2020-07-16T15:53:56Z</time>
      </trkpt>
      <trkpt lat="41.413650" lon="-8.466000">
        <ele>160.778</ele>
        <time>2020-07-16T15:54:16Z</time>
      </trkpt>
      <trkpt lat="41.413500" lon="-8.465810">
        <ele>161.123</ele>
        <time>2020-07-16T15:54:36Z</time>
      </trkpt>
      <trkpt lat="41.413410" lon="-8.465630">
        <ele>161.983</ele>
        <time>2020-07-16T15:54:56Z</time>
      </trkpt>
      <trkpt lat="41.413370" lon="-8.465500">
        <ele>162.411</ele>
        <time>2020-07-16T15:55:16Z</time>
      </trkpt>
      <trkpt lat="41.413370" lon="-8.465150">
        <ele>163.008</ele>
        <time>2020-07-16T15:55:36Z</time>
      </trkpt>
      <trkpt lat="41.413420" lon="-8.464790">
        <ele>161.527</ele>
        <time>2020-07-16T15:55:56Z</time>
      </trkpt>
      <trkpt lat="41.413470" lon="-8.464620">
        <ele>160.494</ele>
        <time>2020-07-16T15:56:16Z</time>
      </trkpt>
      <trkpt lat="41.414160" lon="-8.460660">
        <ele>153.329</ele>
        <time>2020-07-16T15:56:36Z</time>
      </trkpt>
      <trkpt lat="41.414430" lon="-8.459950">
        <ele>154.587</ele>
        <time>2020-07-16T15:56:56Z</time>
      </trkpt>
      <trkpt lat="41.414480" lon="-8.459670">
        <ele>153.424</ele>
        <time>2020-07-16T15:57:16Z</time>
      </trkpt>
      <trkpt lat="41.414610" lon="-8.458700">
        <ele>152.714</ele>
        <time>2020-07-16T15:57:36Z</time>
      </trkpt>
      <trkpt lat="41.414590" lon="-8.458620">
        <ele>152.674</ele>
        <time>2020-07-16T15:57:56Z</time>
      </trkpt>
      <trkpt lat="41.414680" lon="-8.457800">
        <ele>149.925</ele>
        <time>2020-07-16T15:58:16Z</time>
      </trkpt>
      <trkpt lat="41.414720" lon="-8.457610">
        <ele>149.498</ele>
        <time>2020-07-16T15:58:36Z</time>
      </trkpt>
      <trkpt lat="41.414910" lon="-8.457050">
        <ele>148.315</ele>
        <time>2020-07-16T15:58:56Z</time>
      </trkpt>
      <trkpt lat="41.415380" lon="-8.456020">
        <ele>148.826</ele>
        <time>2020-07-16T15:59:16Z</time>
      </trkpt>
      <trkpt lat="41.418330" lon="-8.447350">
        <ele>138.408</ele>
        <time>2020-07-16T15:59:36Z</time>
      </trkpt>
      <trkpt lat="41.418410" lon="-8.447020">
        <ele>137.544</ele>
        <time>2020-07-16T15:59:56Z</time>
      </trkpt>
      <trkpt lat="41.418760" lon="-8.446030">
        <ele>137.221</ele>
        <time>2020-07-16T16:00:16Z</time>
      </trkpt>
      <trkpt lat="41.419130" lon="-8.445210">
        <ele>141.686</ele>
        <time>2020-07-16T16:00:36Z</time>
      </trkpt>
      <trkpt lat="41.419190" lon="-8.445170">
        <ele>141.524</ele>
        <time>2020-07-16T16:00:56Z</time>
      </trkpt>
      <trkpt lat="41.419420" lon="-8.444760">
        <ele>138.551</ele>
        <time>2020-07-16T16:01:16Z</time>
      </trkpt>
      <trkpt lat="41.422200" lon="-8.439700">
        <ele>129.781</ele>
        <time>2020-07-16T16:01:36Z</time>
      </trkpt>
      <trkpt lat="41.425930" lon="-8.432920">
        <ele>125.341</ele>
        <time>2020-07-16T16:01:56Z</time>
      </trkpt>
      <trkpt lat="41.432250" lon="-8.421630">
        <ele>132.112</ele>
        <time>2020-07-16T16:02:16Z</time>
      </trkpt>
      <trkpt lat="41.433280" lon="-8.419770">
        <ele>131.585</ele>
        <time>2020-07-16T16:02:36Z</time>
      </trkpt>
      <trkpt lat="41.433520" lon="-8.419290">
        <ele>129.689</ele>
        <time>2020-07-16T16:02:56Z</time>
      </trkpt>
      <trkpt lat="41.433650" lon="-8.418830">
        <ele>132.517</ele>
        <time>2020-07-16T16:03:16Z</time>
      </trkpt>
      <trkpt lat="41.433690" lon="-8.418570">
        <ele>134.608</ele>
        <time>2020-07-16T16:03:36Z</time>
      </trkpt>
      <trkpt lat="41.433670" lon="-8.418490">
        <ele>135.843</ele>
        <time>2020-07-16T16:03:56Z</time>
      </trkpt>
      <trkpt lat="41.433700" lon="-8.418370">
        <ele>137.810</ele>
        <time>2020-07-16T16:04:16Z</time>
      </trkpt>
      <trkpt lat="41.433760" lon="-8.418280">
        <ele>139.445</ele>
        <time>2020-07-16T16:04:36Z</time>
      </trkpt>
      <trkpt lat="41.433840" lon="-8.418260">
        <ele>140.123</ele>
        <time>2020-07-16T16:04:56Z</time>
      </trkpt>
      <trkpt lat="41.433860" lon="-8.418270">
        <ele>140.080</ele>
        <time>2020-07-16T16:05:16Z</time>
      </trkpt>
      <trkpt lat="41.434010" lon="-8.418140">
        <ele>141.340</ele>
        <time>2020-07-16T16:05:36Z</time>
      </trkpt>
      <trkpt lat="41.434110" lon="-8.417950">
        <ele>143.080</ele>
        <time>2020-07-16T16:05:56Z</time>
      </trkpt>
      <trkpt lat="41.434150" lon="-8.417690">
        <ele>144.881</ele>
        <time>2020-07-16T16:06:16Z</time>
      </trkpt>
      <trkpt lat="41.434160" lon="-8.417230">
        <ele>143.174</ele>
        <time>2020-07-16T16:06:36Z</time>
      </trkpt>
      <trkpt lat="41.434020" lon="-8.416360">
        <ele>139.456</ele>
        <time>2020-07-16T16:06:56Z</time>
      </trkpt>
      <trkpt lat="41.434010" lon="-8.416110">
        <ele>139.421</ele>
        <time>2020-07-16T16:07:16Z</time>
      </trkpt>
      <trkpt lat="41.434040" lon="-8.415870">
        <ele>139.108</ele>
        <time>2020-07-16T16:07:36Z</time>
      </trkpt>
      <trkpt lat="41.434090" lon="-8.415650">
        <ele>139.442</ele>
        <time>2020-07-16T16:07:56Z</time>
      </trkpt>
      <trkpt lat="41.434170" lon="-8.415430">
        <ele>140.049</ele>
        <time>2020-07-16T16:08:16Z</time>
      </trkpt>
      <trkpt lat="41.434300" lon="-8.415180">
        <ele>141.334</ele>
        <time>2020-07-16T16:08:36Z</time>
      </trkpt>
      <trkpt lat="41.436510" lon="-8.411090">
        <ele>144.892</ele>
        <time>2020-07-16T16:08:56Z</time>
      </trkpt>
      <trkpt lat="41.436620" lon="-8.410950">
        <ele>145.229</ele>
        <time>2020-07-16T16:09:16Z</time>
      </trkpt>
      <trkpt lat="41.436710" lon="-8.410860">
        <ele>145.359</ele>
        <time>2020-07-16T16:09:36Z</time>
      </trkpt>
      <trkpt lat="41.436820" lon="-8.410780">
        <ele>145.479</ele>
        <time>2020-07-16T16:09:56Z</time>
      </trkpt>
      <trkpt lat="41.437650" lon="-8.410380">
        <ele>143.250</ele>
        <time>2020-07-16T16:10:16Z</time>
      </trkpt>
      <trkpt lat="41.438090" lon="-8.410150">
        <ele>143.129</ele>
        <time>2020-07-16T16:10:36Z</time>
      </trkpt>
      <trkpt lat="41.438290" lon="-8.410010">
        <ele>143.000</ele>
        <time>2020-07-16T16:10:56Z</time>
      </trkpt>
      <trkpt lat="41.438440" lon="-8.409860">
        <ele>142.820</ele>
        <time>2020-07-16T16:11:16Z</time>
      </trkpt>
      <trkpt lat="41.438600" lon="-8.409620">
        <ele>142.408</ele>
        <time>2020-07-16T16:11:36Z</time>
      </trkpt>
      <trkpt lat="41.441730" lon="-8.402640">
        <ele>143.597</ele>
        <time>2020-07-16T16:11:56Z</time>
      </trkpt>
      <trkpt lat="41.441890" lon="-8.402240">
        <ele>146.794</ele>
        <time>2020-07-16T16:12:16Z</time>
      </trkpt>
      <trkpt lat="41.441940" lon="-8.402000">
        <ele>148.659</ele>
        <time>2020-07-16T16:12:36Z</time>
      </trkpt>
      <trkpt lat="41.441980" lon="-8.401650">
        <ele>150.117</ele>
        <time>2020-07-16T16:12:56Z</time>
      </trkpt>
      <trkpt lat="41.442080" lon="-8.399840">
        <ele>154.314</ele>
        <time>2020-07-16T16:13:16Z</time>
      </trkpt>
      <trkpt lat="41.442090" lon="-8.398830">
        <ele>153.654</ele>
        <time>2020-07-16T16:13:36Z</time>
      </trkpt>
      <trkpt lat="41.442020" lon="-8.398390">
        <ele>150.664</ele>
        <time>2020-07-16T16:13:56Z</time>
      </trkpt>
      <trkpt lat="41.441870" lon="-8.397980">
        <ele>149.835</ele>
        <time>2020-07-16T16:14:16Z</time>
      </trkpt>
      <trkpt lat="41.441510" lon="-8.397180">
        <ele>149.099</ele>
        <time>2020-07-16T16:14:36Z</time>
      </trkpt>
      <trkpt lat="41.440230" lon="-8.394500">
        <ele>143.207</ele>
        <time>2020-07-16T16:14:56Z</time>
      </trkpt>
      <trkpt lat="41.440150" lon="-8.394290">
        <ele>142.427</ele>
        <time>2020-07-16T16:15:16Z</time>
      </trkpt>
      <trkpt lat="41.440110" lon="-8.394070">
        <ele>142.308</ele>
        <time>2020-07-16T16:15:36Z</time>
      </trkpt>
      <trkpt lat="41.440090" lon="-8.393730">
        <ele>143.644</ele>
        <time>2020-07-16T16:15:56Z</time>
      </trkpt>
      <trkpt lat="41.440150" lon="-8.393390">
        <ele>144.091</ele>
        <time>2020-07-16T16:16:16Z</time>
      </trkpt>
      <trkpt lat="41.440280" lon="-8.392950">
        <ele>143.276</ele>
        <time>2020-07-16T16:16:36Z</time>
      </trkpt>
      <trkpt lat="41.441760" lon="-8.388340">
        <ele>137.394</ele>
        <time>2020-07-16T16:16:56Z</time>
      </trkpt>
      <trkpt lat="41.441820" lon="-8.388110">
        <ele>137.431</ele>
        <time>2020-07-16T16:17:16Z</time>
      </trkpt>
      <trkpt lat="41.441840" lon="-8.387920">
        <ele>137.221</ele>
        <time>2020-07-16T16:17:36Z</time>
      </trkpt>
      <trkpt lat="41.441820" lon="-8.387620">
        <ele>136.961</ele>
        <time>2020-07-16T16:17:56Z</time>
      </trkpt>
      <trkpt lat="41.441760" lon="-8.387340">
        <ele>138.042</ele>
        <time>2020-07-16T16:18:16Z</time>
      </trkpt>
      <trkpt lat="41.441690" lon="-8.387160">
        <ele>139.448</ele>
        <time>2020-07-16T16:18:36Z</time>
      </trkpt>
      <trkpt lat="41.441270" lon="-8.386590">
        <ele>143.261</ele>
        <time>2020-07-16T16:18:56Z</time>
      </trkpt>
      <trkpt lat="41.440180" lon="-8.385190">
        <ele>145.917</ele>
        <time>2020-07-16T16:19:16Z</time>
      </trkpt>
      <trkpt lat="41.440010" lon="-8.384920">
        <ele>146.708</ele>
        <time>2020-07-16T16:19:36Z</time>
      </trkpt>
      <trkpt lat="41.439950" lon="-8.384760">
        <ele>146.019</ele>
        <time>2020-07-16T16:19:56Z</time>
      </trkpt>
      <trkpt lat="41.439900" lon="-8.384530">
        <ele>144.946</ele>
        <time>2020-07-16T16:20:16Z</time>
      </trkpt>
      <trkpt lat="41.439850" lon="-8.384110">
        <ele>144.681</ele>
        <time>2020-07-16T16:20:36Z</time>
      </trkpt>
      <trkpt lat="41.439860" lon="-8.383860">
        <ele>145.119</ele>
        <time>2020-07-16T16:20:56Z</time>
      </trkpt>
      <trkpt lat="41.439910" lon="-8.383600">
        <ele>145.366</ele>
        <time>2020-07-16T16:21:16Z</time>
      </trkpt>
      <trkpt lat="41.439970" lon="-8.383440">
        <ele>145.056</ele>
        <time>2020-07-16T16:21:36Z</time>
      </trkpt>
      <trkpt lat="41.440250" lon="-8.382980">
        <ele>143.366</ele>
        <time>2020-07-16T16:21:56Z</time>
      </trkpt>
      <trkpt lat="41.442870" lon="-8.379020">
        <ele>140.537</ele>
        <time>2020-07-16T16:22:16Z</time>
      </trkpt>
      <trkpt lat="41.443320" lon="-8.378590">
        <ele>142.823</ele>
        <time>2020-07-16T16:22:36Z</time>
      </trkpt>
      <trkpt lat="41.443770" lon="-8.378200">
        <ele>142.083</ele>
        <time>2020-07-16T16:22:56Z</time>
      </trkpt>
      <trkpt lat="41.443830" lon="-8.378160">
        <ele>141.811</ele>
        <time>2020-07-16T16:23:16Z</time>
      </trkpt>
      <trkpt lat="41.444140" lon="-8.378040">
        <ele>140.008</ele>
        <time>2020-07-16T16:23:36Z</time>
      </trkpt>
      <trkpt lat="41.444410" lon="-8.377910">
        <ele>140.767</ele>
        <time>2020-07-16T16:23:56Z</time>
      </trkpt>
      <trkpt lat="41.444630" lon="-8.377740">
        <ele>140.314</ele>
        <time>2020-07-16T16:24:16Z</time>
      </trkpt>
      <trkpt lat="41.444730" lon="-8.377620">
        <ele>139.319</ele>
        <time>2020-07-16T16:24:36Z</time>
      </trkpt>
      <trkpt lat="41.444830" lon="-8.377450">
        <ele>138.367</ele>
        <time>2020-07-16T16:24:56Z</time>
      </trkpt>
      <trkpt lat="41.445230" lon="-8.376370">
        <ele>139.474</ele>
        <time>2020-07-16T16:25:16Z</time>
      </trkpt>
      <trkpt lat="41.445390" lon="-8.375870">
        <ele>138.964</ele>
        <time>2020-07-16T16:25:36Z</time>
      </trkpt>
      <trkpt lat="41.445400" lon="-8.375760">
        <ele>139.084</ele>
        <time>2020-07-16T16:25:56Z</time>
      </trkpt>
      <trkpt lat="41.445370" lon="-8.375540">
        <ele>139.045</ele>
        <time>2020-07-16T16:26:16Z</time>
      </trkpt>
      <trkpt lat="41.445330" lon="-8.375390">
        <ele>138.675</ele>
        <time>2020-07-16T16:26:36Z</time>
      </trkpt>
      <trkpt lat="41.444850" lon="-8.374600">
        <ele>136.128</ele>
        <time>2020-07-16T16:26:56Z</time>
      </trkpt>
      <trkpt lat="41.444710" lon="-8.374460">
        <ele>136.120</ele>
        <time>2020-07-16T16:27:16Z</time>
      </trkpt>
      <trkpt lat="41.444500" lon="-8.374320">
        <ele>135.708</ele>
        <time>2020-07-16T16:27:36Z</time>
      </trkpt>
      <trkpt lat="41.444250" lon="-8.374280">
        <ele>135.052</ele>
        <time>2020-07-16T16:27:56Z</time>
      </trkpt>
      <trkpt lat="41.442830" lon="-8.374260">
        <ele>128.479</ele>
        <time>2020-07-16T16:28:16Z</time>
      </trkpt>
      <trkpt lat="41.442630" lon="-8.374200">
        <ele>127.794</ele>
        <time>2020-07-16T16:28:36Z</time>
      </trkpt>
      <trkpt lat="41.442550" lon="-8.374160">
        <ele>127.452</ele>
        <time>2020-07-16T16:28:56Z</time>
      </trkpt>
      <trkpt lat="41.442380" lon="-8.373970">
        <ele>126.189</ele>
        <time>2020-07-16T16:29:16Z</time>
      </trkpt>
      <trkpt lat="41.442180" lon="-8.373500">
        <ele>127.249</ele>
        <time>2020-07-16T16:29:36Z</time>
      </trkpt>
      <trkpt lat="41.441940" lon="-8.372860">
        <ele>123.229</ele>
        <time>2020-07-16T16:29:56Z</time>
      </trkpt>
      <trkpt lat="41.441900" lon="-8.372660">
        <ele>122.680</ele>
        <time>2020-07-16T16:30:16Z</time>
      </trkpt>
      <trkpt lat="41.441910" lon="-8.372350">
        <ele>122.819</ele>
        <time>2020-07-16T16:30:36Z</time>
      </trkpt>
      <trkpt lat="41.441940" lon="-8.372190">
        <ele>123.009</ele>
        <time>2020-07-16T16:30:56Z</time>
      </trkpt>
      <trkpt lat="41.442050" lon="-8.371950">
        <ele>123.819</ele>
        <time>2020-07-16T16:31:16Z</time>
      </trkpt>
      <trkpt lat="41.442190" lon="-8.371760">
        <ele>124.108</ele>
        <time>2020-07-16T16:31:36Z</time>
      </trkpt>
      <trkpt lat="41.442610" lon="-8.371520">
        <ele>126.826</ele>
        <time>2020-07-16T16:31:56Z</time>
      </trkpt>
      <trkpt lat="41.442750" lon="-8.371380">
        <ele>128.493</ele>
        <time>2020-07-16T16:32:16Z</time>
      </trkpt>
      <trkpt lat="41.442830" lon="-8.371240">
        <ele>127.898</ele>
        <time>2020-07-16T16:32:36Z</time>
      </trkpt>
      <trkpt lat="41.442910" lon="-8.370870">
        <ele>124.046</ele>
        <time>2020-07-16T16:32:56Z</time>
      </trkpt>
      <trkpt lat="41.443010" lon="-8.370540">
        <ele>121.533</ele>
        <time>2020-07-16T16:33:16Z</time>
      </trkpt>
      <trkpt lat="41.443120" lon="-8.370330">
        <ele>120.773</ele>
        <time>2020-07-16T16:33:36Z</time>
      </trkpt>
      <trkpt lat="41.443340" lon="-8.370090">
        <ele>119.793</ele>
        <time>2020-07-16T16:33:56Z</time>
      </trkpt>
      <trkpt lat="41.443450" lon="-8.369940">
        <ele>117.674</ele>
        <time>2020-07-16T16:34:16Z</time>
      </trkpt>
      <trkpt lat="41.443550" lon="-8.369730">
        <ele>114.938</ele>
        <time>2020-07-16T16:34:36Z</time>
      </trkpt>
      <trkpt lat="41.443590" lon="-8.369560">
        <ele>115.070</ele>
        <time>2020-07-16T16:34:56Z</time>
      </trkpt>
      <trkpt lat="41.443590" lon="-8.369410">
        <ele>115.117</ele>
        <time>2020-07-16T16:35:16Z</time>
      </trkpt>
      <trkpt lat="41.443530" lon="-8.369120">
        <ele>115.308</ele>
        <time>2020-07-16T16:35:36Z</time>
      </trkpt>
      <trkpt lat="41.443310" lon="-8.368390">
        <ele>110.318</ele>
        <time>2020-07-16T16:35:56Z</time>
      </trkpt>
      <trkpt lat="41.443270" lon="-8.368060">
        <ele>110.035</ele>
        <time>2020-07-16T16:36:16Z</time>
      </trkpt>
      <trkpt lat="41.443280" lon="-8.367720">
        <ele>112.160</ele>
        <time>2020-07-16T16:36:36Z</time>
      </trkpt>
      <trkpt lat="41.443320" lon="-8.367490">
        <ele>113.118</ele>
        <time>2020-07-16T16:36:56Z</time>
      </trkpt>
      <trkpt lat="41.443490" lon="-8.366920">
        <ele>119.865</ele>
        <time>2020-07-16T16:37:16Z</time>
      </trkpt>
      <trkpt lat="41.445040" lon="-8.362180">
        <ele>102.065</ele>
        <time>2020-07-16T16:37:36Z</time>
      </trkpt>
      <trkpt lat="41.445100" lon="-8.361950">
        <ele>100.165</ele>
        <time>2020-07-16T16:37:56Z</time>
      </trkpt>
      <trkpt lat="41.445070" lon="-8.361900">
        <ele>99.696</ele>
        <time>2020-07-16T16:38:16Z</time>
      </trkpt>
      <trkpt lat="41.445090" lon="-8.361770">
        <ele>99.129</ele>
        <time>2020-07-16T16:38:36Z</time>
      </trkpt>
      <trkpt lat="41.445150" lon="-8.361730">
        <ele>99.400</ele>
        <time>2020-07-16T16:38:56Z</time>
      </trkpt>
      <trkpt lat="41.445180" lon="-8.361730">
        <ele>99.720</ele>
        <time>2020-07-16T16:39:16Z</time>
      </trkpt>
      <trkpt lat="41.446870" lon="-8.356480">
        <ele>106.508</ele>
        <time>2020-07-16T16:39:36Z</time>
      </trkpt>
      <trkpt lat="41.447890" lon="-8.353420">
        <ele>111.427</ele>
        <time>2020-07-16T16:39:56Z</time>
      </trkpt>
      <trkpt lat="41.448260" lon="-8.352280">
        <ele>111.484</ele>
        <time>2020-07-16T16:40:16Z</time>
      </trkpt>
      <trkpt lat="41.448290" lon="-8.352130">
        <ele>111.769</ele>
        <time>2020-07-16T16:40:36Z</time>
      </trkpt>
      <trkpt lat="41.448300" lon="-8.351900">
        <ele>112.547</ele>
        <time>2020-07-16T16:40:56Z</time>
      </trkpt>
      <trkpt lat="41.448280" lon="-8.351600">
        <ele>111.784</ele>
        <time>2020-07-16T16:41:16Z</time>
      </trkpt>
      <trkpt lat="41.448160" lon="-8.351240">
        <ele>109.224</ele>
        <time>2020-07-16T16:41:36Z</time>
      </trkpt>
      <trkpt lat="41.447720" lon="-8.350220">
        <ele>108.914</ele>
        <time>2020-07-16T16:41:56Z</time>
      </trkpt>
      <trkpt lat="41.447660" lon="-8.349970">
        <ele>106.795</ele>
        <time>2020-07-16T16:42:16Z</time>
      </trkpt>
      <trkpt lat="41.447660" lon="-8.349750">
        <ele>104.294</ele>
        <time>2020-07-16T16:42:36Z</time>
      </trkpt>
      <trkpt lat="41.447730" lon="-8.348990">
        <ele>103.257</ele>
        <time>2020-07-16T16:42:56Z</time>
      </trkpt>
      <trkpt lat="41.447770" lon="-8.348820">
        <ele>104.722</ele>
        <time>2020-07-16T16:43:16Z</time>
      </trkpt>
      <trkpt lat="41.447830" lon="-8.348710">
        <ele>106.008</ele>
        <time>2020-07-16T16:43:36Z</time>
      </trkpt>
      <trkpt lat="41.447940" lon="-8.348590">
        <ele>107.184</ele>
        <time>2020-07-16T16:43:56Z</time>
      </trkpt>
      <trkpt lat="41.449230" lon="-8.347530">
        <ele>110.341</ele>
        <time>2020-07-16T16:44:16Z</time>
      </trkpt>
      <trkpt lat="41.449460" lon="-8.347280">
        <ele>110.456</ele>
        <time>2020-07-16T16:44:36Z</time>
      </trkpt>
      <trkpt lat="41.449600" lon="-8.347050">
        <ele>109.454</ele>
        <time>2020-07-16T16:44:56Z</time>
      </trkpt>
      <trkpt lat="41.449690" lon="-8.346790">
        <ele>109.591</ele>
        <time>2020-07-16T16:45:16Z</time>
      </trkpt>
      <trkpt lat="41.449770" lon="-8.346470">
        <ele>110.271</ele>
        <time>2020-07-16T16:45:36Z</time>
      </trkpt>
      <trkpt lat="41.449770" lon="-8.346140">
        <ele>110.281</ele>
        <time>2020-07-16T16:45:56Z</time>
      </trkpt>
      <trkpt lat="41.449740" lon="-8.345920">
        <ele>110.762</ele>
        <time>2020-07-16T16:46:16Z</time>
      </trkpt>
      <trkpt lat="41.449490" lon="-8.345230">
        <ele>115.447</ele>
        <time>2020-07-16T16:46:36Z</time>
      </trkpt>
      <trkpt lat="41.449350" lon="-8.345050">
        <ele>116.529</ele>
        <time>2020-07-16T16:46:56Z</time>
      </trkpt>
      <trkpt lat="41.449310" lon="-8.345050">
        <ele>117.121</ele>
        <time>2020-07-16T16:47:16Z</time>
      </trkpt>
      <trkpt lat="41.449230" lon="-8.345010">
        <ele>118.108</ele>
        <time>2020-07-16T16:47:36Z</time>
      </trkpt>
      <trkpt lat="41.449220" lon="-8.344990">
        <ele>118.289</ele>
        <time>2020-07-16T16:47:56Z</time>
      </trkpt>
      <trkpt lat="41.448730" lon="-8.344740">
        <ele>121.676</ele>
        <time>2020-07-16T16:48:16Z</time>
      </trkpt>
      <trkpt lat="41.448190" lon="-8.344430">
        <ele>119.561</ele>
        <time>2020-07-16T16:48:36Z</time>
      </trkpt>
      <trkpt lat="41.447930" lon="-8.344310">
        <ele>120.459</ele>
        <time>2020-07-16T16:48:56Z</time>
      </trkpt>
      <trkpt lat="41.447880" lon="-8.344350">
        <ele>120.966</ele>
        <time>2020-07-16T16:49:16Z</time>
      </trkpt>
      <trkpt lat="41.447770" lon="-8.344350">
        <ele>121.856</ele>
        <time>2020-07-16T16:49:36Z</time>
      </trkpt>
      <trkpt lat="41.447710" lon="-8.344280">
        <ele>122.416</ele>
        <time>2020-07-16T16:49:56Z</time>
      </trkpt>
      <trkpt lat="41.447680" lon="-8.344190">
        <ele>122.257</ele>
        <time>2020-07-16T16:50:16Z</time>
      </trkpt>
      <trkpt lat="41.447720" lon="-8.344030">
        <ele>121.049</ele>
        <time>2020-07-16T16:50:36Z</time>
      </trkpt>
      <trkpt lat="41.447610" lon="-8.343620">
        <ele>122.602</ele>
        <time>2020-07-16T16:50:56Z</time>
      </trkpt>
      <trkpt lat="41.447060" lon="-8.341820">
        <ele>126.022</ele>
        <time>2020-07-16T16:51:16Z</time>
      </trkpt>
      <trkpt lat="41.446940" lon="-8.341560">
        <ele>127.408</ele>
        <time>2020-07-16T16:51:36Z</time>
      </trkpt>
      <trkpt lat="41.446500" lon="-8.340180">
        <ele>132.099</ele>
        <time>2020-07-16T16:51:56Z</time>
      </trkpt>
      <trkpt lat="41.446240" lon="-8.339650">
        <ele>133.726</ele>
        <time>2020-07-16T16:52:16Z</time>
      </trkpt>
      <trkpt lat="41.446180" lon="-8.339580">
        <ele>133.861</ele>
        <time>2020-07-16T16:52:36Z</time>
      </trkpt>
      <trkpt lat="41.446150" lon="-8.339580">
        <ele>133.799</ele>
        <time>2020-07-16T16:52:56Z</time>
      </trkpt>
      <trkpt lat="41.446070" lon="-8.339540">
        <ele>133.746</ele>
        <time>2020-07-16T16:53:16Z</time>
      </trkpt>
      <trkpt lat="41.446000" lon="-8.339450">
        <ele>134.056</ele>
        <time>2020-07-16T16:53:36Z</time>
      </trkpt>
      <trkpt lat="41.445950" lon="-8.339300">
        <ele>134.996</ele>
        <time>2020-07-16T16:53:56Z</time>
      </trkpt>
      <trkpt lat="41.445820" lon="-8.338840">
        <ele>139.547</ele>
        <time>2020-07-16T16:54:16Z</time>
      </trkpt>
      <trkpt lat="41.445800" lon="-8.338720">
        <ele>140.471</ele>
        <time>2020-07-16T16:54:36Z</time>
      </trkpt>
      <trkpt lat="41.445870" lon="-8.338580">
        <ele>140.641</ele>
        <time>2020-07-16T16:54:56Z</time>
      </trkpt>
      <trkpt lat="41.445750" lon="-8.338140">
        <ele>141.115</ele>
        <time>2020-07-16T16:55:16Z</time>
      </trkpt>
      <trkpt lat="41.445670" lon="-8.337980">
        <ele>141.208</ele>
        <time>2020-07-16T16:55:36Z</time>
      </trkpt>
      <trkpt lat="41.445380" lon="-8.337560">
        <ele>141.212</ele>
        <time>2020-07-16T16:55:56Z</time>
      </trkpt>
      <trkpt lat="41.444060" lon="-8.335730">
        <ele>136.639</ele>
        <time>2020-07-16T16:56:16Z</time>
      </trkpt>
      <trkpt lat="41.443970" lon="-8.335630">
        <ele>136.394</ele>
        <time>2020-07-16T16:56:36Z</time>
      </trkpt>
      <trkpt lat="41.443910" lon="-8.335590">
        <ele>136.122</ele>
        <time>2020-07-16T16:56:56Z</time>
      </trkpt>
      <trkpt lat="41.443840" lon="-8.335620">
        <ele>136.179</ele>
        <time>2020-07-16T16:57:16Z</time>
      </trkpt>
      <trkpt lat="41.443790" lon="-8.335620">
        <ele>135.979</ele>
        <time>2020-07-16T16:57:36Z</time>
      </trkpt>
      <trkpt lat="41.443700" lon="-8.335590">
        <ele>135.499</ele>
        <time>2020-07-16T16:57:56Z</time>
      </trkpt>
      <trkpt lat="41.443600" lon="-8.335500">
        <ele>135.020</ele>
        <time>2020-07-16T16:58:16Z</time>
      </trkpt>
      <trkpt lat="41.443540" lon="-8.335360">
        <ele>135.053</ele>
        <time>2020-07-16T16:58:36Z</time>
      </trkpt>
      <trkpt lat="41.443540" lon="-8.335200">
        <ele>134.804</ele>
        <time>2020-07-16T16:58:56Z</time>
      </trkpt>
      <trkpt lat="41.443570" lon="-8.335110">
        <ele>134.514</ele>
        <time>2020-07-16T16:59:16Z</time>
      </trkpt>
      <trkpt lat="41.443500" lon="-8.334900">
        <ele>134.008</ele>
        <time>2020-07-16T16:59:36Z</time>
      </trkpt>
      <trkpt lat="41.443030" lon="-8.334200">
        <ele>136.060</ele>
        <time>2020-07-16T16:59:56Z</time>
      </trkpt>
      <trkpt lat="41.441910" lon="-8.332620">
        <ele>140.657</ele>
        <time>2020-07-16T17:00:16Z</time>
      </trkpt>
      <trkpt lat="41.441630" lon="-8.332330">
        <ele>144.742</ele>
        <time>2020-07-16T17:00:36Z</time>
      </trkpt>
      <trkpt lat="41.441460" lon="-8.332230">
        <ele>145.580</ele>
        <time>2020-07-16T17:00:56Z</time>
      </trkpt>
      <trkpt lat="41.441350" lon="-8.332190">
        <ele>145.997</ele>
        <time>2020-07-16T17:01:16Z</time>
      </trkpt>
      <trkpt lat="41.441160" lon="-8.332190">
        <ele>146.687</ele>
        <time>2020-07-16T17:01:36Z</time>
      </trkpt>
      <trkpt lat="41.440870" lon="-8.332270">
        <ele>146.317</ele>
        <time>2020-07-16T17:01:56Z</time>
      </trkpt>
      <trkpt lat="41.440670" lon="-8.332350">
        <ele>147.398</ele>
        <time>2020-07-16T17:02:16Z</time>
      </trkpt>
      <trkpt lat="41.440550" lon="-8.332440">
        <ele>148.683</ele>
        <time>2020-07-16T17:02:36Z</time>
      </trkpt>
      <trkpt lat="41.440500" lon="-8.332650">
        <ele>149.725</ele>
        <time>2020-07-16T17:02:56Z</time>
      </trkpt>
      <trkpt lat="41.440440" lon="-8.332730">
        <ele>150.217</ele>
        <time>2020-07-16T17:03:16Z</time>
      </trkpt>
      <trkpt lat="41.440370" lon="-8.332780">
        <ele>150.708</ele>
        <time>2020-07-16T17:03:36Z</time>
      </trkpt>
      <trkpt lat="41.440260" lon="-8.332820">
        <ele>151.293</ele>
        <time>2020-07-16T17:03:56Z</time>
      </trkpt>
      <trkpt lat="41.440150" lon="-8.332790">
        <ele>151.540</ele>
        <time>2020-07-16T17:04:16Z</time>
      </trkpt>
      <trkpt lat="41.440080" lon="-8.332750">
        <ele>151.575</ele>
        <time>2020-07-16T17:04:36Z</time>
      </trkpt>
      <trkpt lat="41.440010" lon="-8.332680">
        <ele>151.353</ele>
        <time>2020-07-16T17:04:56Z</time>
      </trkpt>
      <trkpt lat="41.439960" lon="-8.332530">
        <ele>150.590</ele>
        <time>2020-07-16T17:05:16Z</time>
      </trkpt>
      <trkpt lat="41.439960" lon="-8.332380">
        <ele>149.410</ele>
        <time>2020-07-16T17:05:36Z</time>
      </trkpt>
      <trkpt lat="41.440000" lon="-8.332200">
        <ele>147.830</ele>
        <time>2020-07-16T17:05:56Z</time>
      </trkpt>
      <trkpt lat="41.440100" lon="-8.332070">
        <ele>147.371</ele>
        <time>2020-07-16T17:06:16Z</time>
      </trkpt>
      <trkpt lat="41.440210" lon="-8.332010">
        <ele>147.288</ele>
        <time>2020-07-16T17:06:36Z</time>
      </trkpt>
      <trkpt lat="41.440320" lon="-8.332030">
        <ele>147.424</ele>
        <time>2020-07-16T17:06:56Z</time>
      </trkpt>
      <trkpt lat="41.440430" lon="-8.332090">
        <ele>147.226</ele>
        <time>2020-07-16T17:07:16Z</time>
      </trkpt>
      <trkpt lat="41.440510" lon="-8.332220">
        <ele>147.308</ele>
        <time>2020-07-16T17:07:36Z</time>
      </trkpt>
      <trkpt lat="41.440700" lon="-8.332230">
        <ele>146.523</ele>
        <time>2020-07-16T17:07:56Z</time>
      </trkpt>
      <trkpt lat="41.440800" lon="-8.332210">
        <ele>146.160</ele>
        <time>2020-07-16T17:08:16Z</time>
      </trkpt>
      <trkpt lat="41.440930" lon="-8.332000">
        <ele>145.345</ele>
        <time>2020-07-16T17:08:36Z</time>
      </trkpt>
      <trkpt lat="41.440960" lon="-8.331850">
        <ele>145.213</ele>
        <time>2020-07-16T17:08:56Z</time>
      </trkpt>
      <trkpt lat="41.440870" lon="-8.331340">
        <ele>146.680</ele>
        <time>2020-07-16T17:09:16Z</time>
      </trkpt>
      <trkpt lat="41.440640" lon="-8.330790">
        <ele>145.740</ele>
        <time>2020-07-16T17:09:36Z</time>
      </trkpt>
      <trkpt lat="41.440040" lon="-8.329940">
        <ele>150.070</ele>
        <time>2020-07-16T17:09:56Z</time>
      </trkpt>
      <trkpt lat="41.439840" lon="-8.329480">
        <ele>149.651</ele>
        <time>2020-07-16T17:10:16Z</time>
      </trkpt>
      <trkpt lat="41.439750" lon="-8.329080">
        <ele>149.124</ele>
        <time>2020-07-16T17:10:36Z</time>
      </trkpt>
      <trkpt lat="41.439630" lon="-8.328040">
        <ele>149.704</ele>
        <time>2020-07-16T17:10:56Z</time>
      </trkpt>
      <trkpt lat="41.439610" lon="-8.327710">
        <ele>149.114</ele>
        <time>2020-07-16T17:11:16Z</time>
      </trkpt>
      <trkpt lat="41.439400" lon="-8.326220">
        <ele>149.108</ele>
        <time>2020-07-16T17:11:36Z</time>
      </trkpt>
      <trkpt lat="41.439310" lon="-8.325440">
        <ele>147.077</ele>
        <time>2020-07-16T17:11:56Z</time>
      </trkpt>
      <trkpt lat="41.439310" lon="-8.325190">
        <ele>146.434</ele>
        <time>2020-07-16T17:12:16Z</time>
      </trkpt>
      <trkpt lat="41.439880" lon="-8.321500">
        <ele>147.849</ele>
        <time>2020-07-16T17:12:36Z</time>
      </trkpt>
      <trkpt lat="41.440000" lon="-8.320540">
        <ele>146.927</ele>
        <time>2020-07-16T17:12:56Z</time>
      </trkpt>
      <trkpt lat="41.439980" lon="-8.320260">
        <ele>145.974</ele>
        <time>2020-07-16T17:13:16Z</time>
      </trkpt>
      <trkpt lat="41.439870" lon="-8.320000">
        <ele>144.954</ele>
        <time>2020-07-16T17:13:36Z</time>
      </trkpt>
      <trkpt lat="41.439710" lon="-8.319830">
        <ele>146.044</ele>
        <time>2020-07-16T17:13:56Z</time>
      </trkpt>
      <trkpt lat="41.439300" lon="-8.319440">
        <ele>147.525</ele>
        <time>2020-07-16T17:14:16Z</time>
      </trkpt>
      <trkpt lat="41.439080" lon="-8.319260">
        <ele>148.752</ele>
        <time>2020-07-16T17:14:36Z</time>
      </trkpt>
      <trkpt lat="41.438840" lon="-8.319010">
        <ele>149.553</ele>
        <time>2020-07-16T17:14:56Z</time>
      </trkpt>
      <trkpt lat="41.438790" lon="-8.318990">
        <ele>149.908</ele>
        <time>2020-07-16T17:15:16Z</time>
      </trkpt>
      <trkpt lat="41.437840" lon="-8.318070">
        <ele>153.808</ele>
        <time>2020-07-16T17:15:36Z</time>
      </trkpt>
      <trkpt lat="41.437630" lon="-8.317780">
        <ele>152.420</ele>
        <time>2020-07-16T17:15:56Z</time>
      </trkpt>
      <trkpt lat="41.437520" lon="-8.317500">
        <ele>154.177</ele>
        <time>2020-07-16T17:16:16Z</time>
      </trkpt>
      <trkpt lat="41.437360" lon="-8.316100">
        <ele>163.542</ele>
        <time>2020-07-16T17:16:36Z</time>
      </trkpt>
      <trkpt lat="41.437180" lon="-8.315510">
        <ele>159.040</ele>
        <time>2020-07-16T17:16:56Z</time>
      </trkpt>
      <trkpt lat="41.436970" lon="-8.314980">
        <ele>156.347</ele>
        <time>2020-07-16T17:17:16Z</time>
      </trkpt>
      <trkpt lat="41.436910" lon="-8.314790">
        <ele>155.627</ele>
        <time>2020-07-16T17:17:36Z</time>
      </trkpt>
      <trkpt lat="41.436820" lon="-8.314340">
        <ele>156.837</ele>
        <time>2020-07-16T17:17:56Z</time>
      </trkpt>
      <trkpt lat="41.436820" lon="-8.314160">
        <ele>157.768</ele>
        <time>2020-07-16T17:18:16Z</time>
      </trkpt>
      <trkpt lat="41.436870" lon="-8.313700">
        <ele>158.832</ele>
        <time>2020-07-16T17:18:36Z</time>
      </trkpt>
      <trkpt lat="41.437100" lon="-8.312390">
        <ele>158.692</ele>
        <time>2020-07-16T17:18:56Z</time>
      </trkpt>
      <trkpt lat="41.437100" lon="-8.312250">
        <ele>158.311</ele>
        <time>2020-07-16T17:19:16Z</time>
      </trkpt>
      <trkpt lat="41.437070" lon="-8.312190">
        <ele>157.908</ele>
        <time>2020-07-16T17:19:36Z</time>
      </trkpt>
      <trkpt lat="41.437070" lon="-8.312130">
        <ele>158.028</ele>
        <time>2020-07-16T17:19:56Z</time>
      </trkpt>
      <trkpt lat="41.436930" lon="-8.312070">
        <ele>155.885</ele>
        <time>2020-07-16T17:20:16Z</time>
      </trkpt>
      <trkpt lat="41.436150" lon="-8.311820">
        <ele>149.150</ele>
        <time>2020-07-16T17:20:36Z</time>
      </trkpt>
      <trkpt lat="41.436070" lon="-8.311820">
        <ele>148.928</ele>
        <time>2020-07-16T17:20:56Z</time>
      </trkpt>
      <trkpt lat="41.435970" lon="-8.311890">
        <ele>148.535</ele>
        <time>2020-07-16T17:21:16Z</time>
      </trkpt>
      <trkpt lat="41.435920" lon="-8.311950">
        <ele>148.335</ele>
        <time>2020-07-16T17:21:36Z</time>
      </trkpt>
      <trkpt lat="41.435540" lon="-8.311510">
        <ele>148.145</ele>
        <time>2020-07-16T17:21:56Z</time>
      </trkpt>
      <trkpt lat="41.435420" lon="-8.311340">
        <ele>148.666</ele>
        <time>2020-07-16T17:22:16Z</time>
      </trkpt>
      <trkpt lat="41.435340" lon="-8.311130">
        <ele>149.082</ele>
        <time>2020-07-16T17:22:36Z</time>
      </trkpt>
      <trkpt lat="41.435310" lon="-8.310900">
        <ele>149.043</ele>
        <time>2020-07-16T17:22:56Z</time>
      </trkpt>
      <trkpt lat="41.435330" lon="-8.310690">
        <ele>148.617</ele>
        <time>2020-07-16T17:23:16Z</time>
      </trkpt>
      <trkpt lat="41.435450" lon="-8.310240">
        <ele>148.608</ele>
        <time>2020-07-16T17:23:36Z</time>
      </trkpt>
      <trkpt lat="41.435570" lon="-8.309950">
        <ele>149.133</ele>
        <time>2020-07-16T17:23:56Z</time>
      </trkpt>
      <trkpt lat="41.435760" lon="-8.309650">
        <ele>149.980</ele>
        <time>2020-07-16T17:24:16Z</time>
      </trkpt>
      <trkpt lat="41.435800" lon="-8.309530">
        <ele>150.575</ele>
        <time>2020-07-16T17:24:36Z</time>
      </trkpt>
      <trkpt lat="41.435820" lon="-8.309230">
        <ele>150.973</ele>
        <time>2020-07-16T17:24:56Z</time>
      </trkpt>
      <trkpt lat="41.435730" lon="-8.308890">
        <ele>151.010</ele>
        <time>2020-07-16T17:25:16Z</time>
      </trkpt>
      <trkpt lat="41.435380" lon="-8.308000">
        <ele>151.060</ele>
        <time>2020-07-16T17:25:36Z</time>
      </trkpt>
      <trkpt lat="41.435280" lon="-8.307780">
        <ele>153.030</ele>
        <time>2020-07-16T17:25:56Z</time>
      </trkpt>
      <trkpt lat="41.435140" lon="-8.307610">
        <ele>155.881</ele>
        <time>2020-07-16T17:26:16Z</time>
      </trkpt>
      <trkpt lat="41.433540" lon="-8.306510">
        <ele>160.448</ele>
        <time>2020-07-16T17:26:36Z</time>
      </trkpt>
      <trkpt lat="41.432660" lon="-8.305930">
        <ele>163.061</ele>
        <time>2020-07-16T17:26:56Z</time>
      </trkpt>
      <trkpt lat="41.432860" lon="-8.305490">
        <ele>164.617</ele>
        <time>2020-07-16T17:27:16Z</time>
      </trkpt>
      <trkpt lat="41.432900" lon="-8.305450">
        <ele>165.008</ele>
        <time>2020-07-16T17:27:36Z</time>
      </trkpt>
      <trkpt lat="41.433630" lon="-8.305050">
        <ele>165.819</ele>
        <time>2020-07-16T17:27:56Z</time>
      </trkpt>
      <trkpt lat="41.433800" lon="-8.304820">
        <ele>167.786</ele>
        <time>2020-07-16T17:28:16Z</time>
      </trkpt>
      <trkpt lat="41.433870" lon="-8.304660">
        <ele>168.611</ele>
        <time>2020-07-16T17:28:36Z</time>
      </trkpt>
      <trkpt lat="41.434060" lon="-8.304070">
        <ele>174.749</ele>
        <time>2020-07-16T17:28:56Z</time>
      </trkpt>
      <trkpt lat="41.434260" lon="-8.302860">
        <ele>184.116</ele>
        <time>2020-07-16T17:29:16Z</time>
      </trkpt>
      <trkpt lat="41.433510" lon="-8.302620">
        <ele>182.756</ele>
        <time>2020-07-16T17:29:36Z</time>
      </trkpt>
      <trkpt lat="41.433430" lon="-8.302610">
        <ele>183.376</ele>
        <time>2020-07-16T17:29:56Z</time>
      </trkpt>
      <trkpt lat="41.433350" lon="-8.302640">
        <ele>183.967</ele>
        <time>2020-07-16T17:30:16Z</time>
      </trkpt>
      <trkpt lat="41.433090" lon="-8.302870">
        <ele>186.417</ele>
        <time>2020-07-16T17:30:36Z</time>
      </trkpt>
      <trkpt lat="41.432680" lon="-8.303330">
        <ele>187.787</ele>
        <time>2020-07-16T17:30:56Z</time>
      </trkpt>
      <trkpt lat="41.432580" lon="-8.303390">
        <ele>188.015</ele>
        <time>2020-07-16T17:31:16Z</time>
      </trkpt>
      <trkpt lat="41.432440" lon="-8.303420">
        <ele>188.808</ele>
        <time>2020-07-16T17:31:36Z</time>
      </trkpt>
      <trkpt lat="41.431990" lon="-8.303610">
        <ele>191.586</ele>
        <time>2020-07-16T17:31:56Z</time>
      </trkpt>
      <trkpt lat="41.431830" lon="-8.303660">
        <ele>192.043</ele>
        <time>2020-07-16T17:32:16Z</time>
      </trkpt>
      <trkpt lat="41.431760" lon="-8.303640">
        <ele>192.518</ele>
        <time>2020-07-16T17:32:36Z</time>
      </trkpt>
      <trkpt lat="41.431570" lon="-8.303470">
        <ele>193.286</ele>
        <time>2020-07-16T17:32:56Z</time>
      </trkpt>
      <trkpt lat="41.431090" lon="-8.303300">
        <ele>193.223</ele>
        <time>2020-07-16T17:33:16Z</time>
      </trkpt>
      <trkpt lat="41.431020" lon="-8.303230">
        <ele>193.643</ele>
        <time>2020-07-16T17:33:36Z</time>
      </trkpt>
      <trkpt lat="41.431050" lon="-8.302380">
        <ele>198.383</ele>
        <time>2020-07-16T17:33:56Z</time>
      </trkpt>
      <trkpt lat="41.430980" lon="-8.302250">
        <ele>199.754</ele>
        <time>2020-07-16T17:34:16Z</time>
      </trkpt>
      <trkpt lat="41.430940" lon="-8.302240">
        <ele>199.824</ele>
        <time>2020-07-16T17:34:36Z</time>
      </trkpt>
      <trkpt lat="41.430910" lon="-8.302210">
        <ele>200.104</ele>
        <time>2020-07-16T17:34:56Z</time>
      </trkpt>
      <trkpt lat="41.430880" lon="-8.302130">
        <ele>200.914</ele>
        <time>2020-07-16T17:35:16Z</time>
      </trkpt>
      <trkpt lat="41.430740" lon="-8.302110">
        <ele>201.508</ele>
        <time>2020-07-16T17:35:36Z</time>
      </trkpt>
      <trkpt lat="41.430640" lon="-8.302120">
        <ele>201.827</ele>
        <time>2020-07-16T17:35:56Z</time>
      </trkpt>
      <trkpt lat="41.430130" lon="-8.302190">
        <ele>201.784</ele>
        <time>2020-07-16T17:36:16Z</time>
      </trkpt>
      <trkpt lat="41.429880" lon="-8.302250">
        <ele>203.179</ele>
        <time>2020-07-16T17:36:36Z</time>
      </trkpt>
      <trkpt lat="41.429470" lon="-8.302440">
        <ele>203.567</ele>
        <time>2020-07-16T17:36:56Z</time>
      </trkpt>
      <trkpt lat="41.429410" lon="-8.302450">
        <ele>203.284</ele>
        <time>2020-07-16T17:37:16Z</time>
      </trkpt>
      <trkpt lat="41.429180" lon="-8.302630">
        <ele>201.134</ele>
        <time>2020-07-16T17:37:36Z</time>
      </trkpt>
      <trkpt lat="41.428780" lon="-8.303040">
        <ele>202.974</ele>
        <time>2020-07-16T17:37:56Z</time>
      </trkpt>
      <trkpt lat="41.428250" lon="-8.303620">
        <ele>202.445</ele>
        <time>2020-07-16T17:38:16Z</time>
      </trkpt>
      <trkpt lat="41.427790" lon="-8.304130">
        <ele>204.511</ele>
        <time>2020-07-16T17:38:36Z</time>
      </trkpt>
      <trkpt lat="41.427590" lon="-8.304310">
        <ele>205.821</ele>
        <time>2020-07-16T17:38:56Z</time>
      </trkpt>
      <trkpt lat="41.427280" lon="-8.304530">
        <ele>205.303</ele>
        <time>2020-07-16T17:39:16Z</time>
      </trkpt>
      <trkpt lat="41.427030" lon="-8.304660">
        <ele>204.708</ele>
        <time>2020-07-16T17:39:36Z</time>
      </trkpt>
      <trkpt lat="41.426620" lon="-8.304780">
        <ele>206.036</ele>
        <time>2020-07-16T17:39:56Z</time>
      </trkpt>
      <trkpt lat="41.426260" lon="-8.304820">
        <ele>209.143</ele>
        <time>2020-07-16T17:40:16Z</time>
      </trkpt>
      <trkpt lat="41.425910" lon="-8.304780">
        <ele>210.758</ele>
        <time>2020-07-16T17:40:36Z</time>
      </trkpt>
      <trkpt lat="41.425530" lon="-8.304670">
        <ele>210.876</ele>
        <time>2020-07-16T17:40:56Z</time>
      </trkpt>
      <trkpt lat="41.425140" lon="-8.304480">
        <ele>211.973</ele>
        <time>2020-07-16T17:41:16Z</time>
      </trkpt>
      <trkpt lat="41.424740" lon="-8.304160">
        <ele>213.213</ele>
        <time>2020-07-16T17:41:36Z</time>
      </trkpt>
      <trkpt lat="41.424460" lon="-8.303840">
        <ele>211.683</ele>
        <time>2020-07-16T17:41:56Z</time>
      </trkpt>
      <trkpt lat="41.424170" lon="-8.303330">
        <ele>212.074</ele>
        <time>2020-07-16T17:42:16Z</time>
      </trkpt>
      <trkpt lat="41.423990" lon="-8.302880">
        <ele>210.789</ele>
        <time>2020-07-16T17:42:36Z</time>
      </trkpt>
      <trkpt lat="41.423650" lon="-8.301770">
        <ele>208.706</ele>
        <time>2020-07-16T17:42:56Z</time>
      </trkpt>
      <trkpt lat="41.423500" lon="-8.301480">
        <ele>209.526</ele>
        <time>2020-07-16T17:43:16Z</time>
      </trkpt>
      <trkpt lat="41.423380" lon="-8.301330">
        <ele>209.708</ele>
        <time>2020-07-16T17:43:36Z</time>
      </trkpt>
      <trkpt lat="41.423170" lon="-8.301160">
        <ele>210.663</ele>
        <time>2020-07-16T17:43:56Z</time>
      </trkpt>
      <trkpt lat="41.423040" lon="-8.301100">
        <ele>211.340</ele>
        <time>2020-07-16T17:44:16Z</time>
      </trkpt>
      <trkpt lat="41.422920" lon="-8.301070">
        <ele>212.645</ele>
        <time>2020-07-16T17:44:36Z</time>
      </trkpt>
      <trkpt lat="41.422850" lon="-8.301100">
        <ele>212.673</ele>
        <time>2020-07-16T17:44:56Z</time>
      </trkpt>
      <trkpt lat="41.422810" lon="-8.301100">
        <ele>212.920</ele>
        <time>2020-07-16T17:45:16Z</time>
      </trkpt>
      <trkpt lat="41.422720" lon="-8.301070">
        <ele>214.050</ele>
        <time>2020-07-16T17:45:36Z</time>
      </trkpt>
      <trkpt lat="41.422680" lon="-8.301040">
        <ele>214.650</ele>
        <time>2020-07-16T17:45:56Z</time>
      </trkpt>
      <trkpt lat="41.422380" lon="-8.300970">
        <ele>216.731</ele>
        <time>2020-07-16T17:46:16Z</time>
      </trkpt>
      <trkpt lat="41.421960" lon="-8.301030">
        <ele>219.757</ele>
        <time>2020-07-16T17:46:36Z</time>
      </trkpt>
      <trkpt lat="41.421650" lon="-8.301230">
        <ele>221.400</ele>
        <time>2020-07-16T17:46:56Z</time>
      </trkpt>
      <trkpt lat="41.421150" lon="-8.301590">
        <ele>222.220</ele>
        <time>2020-07-16T17:47:16Z</time>
      </trkpt>
      <trkpt lat="41.420190" lon="-8.302320">
        <ele>226.208</ele>
        <time>2020-07-16T17:47:36Z</time>
      </trkpt>
      <trkpt lat="41.417010" lon="-8.306370">
        <ele>227.370</ele>
        <time>2020-07-16T17:47:56Z</time>
      </trkpt>
      <trkpt lat="41.416850" lon="-8.306600">
        <ele>227.277</ele>
        <time>2020-07-16T17:48:16Z</time>
      </trkpt>
      <trkpt lat="41.416510" lon="-8.307320">
        <ele>223.812</ele>
        <time>2020-07-16T17:48:36Z</time>
      </trkpt>
      <trkpt lat="41.413690" lon="-8.313920">
        <ele>207.430</ele>
        <time>2020-07-16T17:48:56Z</time>
      </trkpt>
      <trkpt lat="41.413500" lon="-8.314270">
        <ele>207.427</ele>
        <time>2020-07-16T17:49:16Z</time>
      </trkpt>
      <trkpt lat="41.412350" lon="-8.315960">
        <ele>202.297</ele>
        <time>2020-07-16T17:49:36Z</time>
      </trkpt>
      <trkpt lat="41.409400" lon="-8.322070">
        <ele>171.897</ele>
        <time>2020-07-16T17:49:56Z</time>
      </trkpt>
      <trkpt lat="41.409310" lon="-8.322220">
        <ele>172.518</ele>
        <time>2020-07-16T17:50:16Z</time>
      </trkpt>
      <trkpt lat="41.409130" lon="-8.322460">
        <ele>173.562</ele>
        <time>2020-07-16T17:50:36Z</time>
      </trkpt>
      <trkpt lat="41.408940" lon="-8.322670">
        <ele>173.583</ele>
        <time>2020-07-16T17:50:56Z</time>
      </trkpt>
      <trkpt lat="41.408730" lon="-8.322870">
        <ele>174.611</ele>
        <time>2020-07-16T17:51:16Z</time>
      </trkpt>
      <trkpt lat="41.408500" lon="-8.323040">
        <ele>175.408</ele>
        <time>2020-07-16T17:51:36Z</time>
      </trkpt>
      <trkpt lat="41.408320" lon="-8.323140">
        <ele>175.581</ele>
        <time>2020-07-16T17:51:56Z</time>
      </trkpt>
      <trkpt lat="41.408050" lon="-8.323260">
        <ele>174.238</ele>
        <time>2020-07-16T17:52:16Z</time>
      </trkpt>
      <trkpt lat="41.407720" lon="-8.323350">
        <ele>172.993</ele>
        <time>2020-07-16T17:52:36Z</time>
      </trkpt>
      <trkpt lat="41.407370" lon="-8.323390">
        <ele>171.181</ele>
        <time>2020-07-16T17:52:56Z</time>
      </trkpt>
      <trkpt lat="41.406820" lon="-8.323370">
        <ele>168.068</ele>
        <time>2020-07-16T17:53:16Z</time>
      </trkpt>
      <trkpt lat="41.405960" lon="-8.323290">
        <ele>173.518</ele>
        <time>2020-07-16T17:53:36Z</time>
      </trkpt>
      <trkpt lat="41.405810" lon="-8.323310">
        <ele>173.698</ele>
        <time>2020-07-16T17:53:56Z</time>
      </trkpt>
      <trkpt lat="41.405030" lon="-8.323250">
        <ele>167.549</ele>
        <time>2020-07-16T17:54:16Z</time>
      </trkpt>
      <trkpt lat="41.404860" lon="-8.323220">
        <ele>167.475</ele>
        <time>2020-07-16T17:54:36Z</time>
      </trkpt>
      <trkpt lat="41.404790" lon="-8.323180">
        <ele>167.328</ele>
        <time>2020-07-16T17:54:56Z</time>
      </trkpt>
      <trkpt lat="41.404160" lon="-8.323130">
        <ele>166.820</ele>
        <time>2020-07-16T17:55:16Z</time>
      </trkpt>
      <trkpt lat="41.402990" lon="-8.322990">
        <ele>172.108</ele>
        <time>2020-07-16T17:55:36Z</time>
      </trkpt>
      <trkpt lat="41.401700" lon="-8.322810">
        <ele>172.752</ele>
        <time>2020-07-16T17:55:56Z</time>
      </trkpt>
      <trkpt lat="41.401330" lon="-8.322780">
        <ele>172.599</ele>
        <time>2020-07-16T17:56:16Z</time>
      </trkpt>
      <trkpt lat="41.401150" lon="-8.322780">
        <ele>173.724</ele>
        <time>2020-07-16T17:56:36Z</time>
      </trkpt>
      <trkpt lat="41.401060" lon="-8.322820">
        <ele>174.362</ele>
        <time>2020-07-16T17:56:56Z</time>
      </trkpt>
      <trkpt lat="41.400520" lon="-8.322880">
        <ele>175.399</ele>
        <time>2020-07-16T17:57:16Z</time>
      </trkpt>
      <trkpt lat="41.400300" lon="-8.322880">
        <ele>175.189</ele>
        <time>2020-07-16T17:57:36Z</time>
      </trkpt>
      <trkpt lat="41.400270" lon="-8.322910">
        <ele>175.469</ele>
        <time>2020-07-16T17:57:56Z</time>
      </trkpt>
      <trkpt lat="41.400200" lon="-8.322940">
        <ele>175.790</ele>
        <time>2020-07-16T17:58:16Z</time>
      </trkpt>
      <trkpt lat="41.400130" lon="-8.322920">
        <ele>175.536</ele>
        <time>2020-07-16T17:58:36Z</time>
      </trkpt>
      <trkpt lat="41.400070" lon="-8.322850">
        <ele>175.117</ele>
        <time>2020-07-16T17:58:56Z</time>
      </trkpt>
      <trkpt lat="41.400050" lon="-8.322740">
        <ele>174.818</ele>
        <time>2020-07-16T17:59:16Z</time>
      </trkpt>
      <trkpt lat="41.400070" lon="-8.322650">
        <ele>174.508</ele>
        <time>2020-07-16T17:59:36Z</time>
      </trkpt>
      <trkpt lat="41.400120" lon="-8.322590">
        <ele>174.048</ele>
        <time>2020-07-16T17:59:56Z</time>
      </trkpt>
      <trkpt lat="41.400110" lon="-8.322060">
        <ele>173.055</ele>
        <time>2020-07-16T18:00:16Z</time>
      </trkpt>
      <trkpt lat="41.400080" lon="-8.321880">
        <ele>171.570</ele>
        <time>2020-07-16T18:00:36Z</time>
      </trkpt>
      <trkpt lat="41.399950" lon="-8.321580">
        <ele>167.958</ele>
        <time>2020-07-16T18:00:56Z</time>
      </trkpt>
      <trkpt lat="41.399750" lon="-8.321350">
        <ele>166.955</ele>
        <time>2020-07-16T18:01:16Z</time>
      </trkpt>
      <trkpt lat="41.397850" lon="-8.320010">
        <ele>174.565</ele>
        <time>2020-07-16T18:01:36Z</time>
      </trkpt>
      <trkpt lat="41.397760" lon="-8.319980">
        <ele>175.015</ele>
        <time>2020-07-16T18:01:56Z</time>
      </trkpt>
      <trkpt lat="41.397590" lon="-8.319890">
        <ele>176.026</ele>
        <time>2020-07-16T18:02:16Z</time>
      </trkpt>
      <trkpt lat="41.397560" lon="-8.319920">
        <ele>176.684</ele>
        <time>2020-07-16T18:02:36Z</time>
      </trkpt>
      <trkpt lat="41.397480" lon="-8.319940">
        <ele>177.507</ele>
        <time>2020-07-16T18:02:56Z</time>
      </trkpt>
      <trkpt lat="41.397430" lon="-8.319910">
        <ele>177.617</ele>
        <time>2020-07-16T18:03:16Z</time>
      </trkpt>
      <trkpt lat="41.397390" lon="-8.319860">
        <ele>177.508</ele>
        <time>2020-07-16T18:03:36Z</time>
      </trkpt>
      <trkpt lat="41.397370" lon="-8.319790">
        <ele>177.063</ele>
        <time>2020-07-16T18:03:56Z</time>
      </trkpt>
      <trkpt lat="41.397380" lon="-8.319710">
        <ele>176.380</ele>
        <time>2020-07-16T18:04:16Z</time>
      </trkpt>
      <trkpt lat="41.397420" lon="-8.319650">
        <ele>176.035</ele>
        <time>2020-07-16T18:04:36Z</time>
      </trkpt>
      <trkpt lat="41.397520" lon="-8.319610">
        <ele>175.283</ele>
        <time>2020-07-16T18:04:56Z</time>
      </trkpt>
      <trkpt lat="41.397630" lon="-8.319390">
        <ele>174.940</ele>
        <time>2020-07-16T18:05:16Z</time>
      </trkpt>
      <trkpt lat="41.397610" lon="-8.319110">
        <ele>176.640</ele>
        <time>2020-07-16T18:05:36Z</time>
      </trkpt>
      <trkpt lat="41.397520" lon="-8.318780">
        <ele>180.190</ele>
        <time>2020-07-16T18:05:56Z</time>
      </trkpt>
      <trkpt lat="41.397420" lon="-8.318640">
        <ele>181.751</ele>
        <time>2020-07-16T18:06:16Z</time>
      </trkpt>
      <trkpt lat="41.397220" lon="-8.318430">
        <ele>184.631</ele>
        <time>2020-07-16T18:06:36Z</time>
      </trkpt>
      <trkpt lat="41.396790" lon="-8.318180">
        <ele>184.861</ele>
        <time>2020-07-16T18:06:56Z</time>
      </trkpt>
      <trkpt lat="41.396670" lon="-8.318150">
        <ele>184.007</ele>
        <time>2020-07-16T18:07:16Z</time>
      </trkpt>
      <trkpt lat="41.395800" lon="-8.317690">
        <ele>181.908</ele>
        <time>2020-07-16T18:07:36Z</time>
      </trkpt>
      <trkpt lat="41.395610" lon="-8.317600">
        <ele>179.778</ele>
        <time>2020-07-16T18:07:56Z</time>
      </trkpt>
      <trkpt lat="41.395480" lon="-8.317450">
        <ele>178.965</ele>
        <time>2020-07-16T18:08:16Z</time>
      </trkpt>
      <trkpt lat="41.394900" lon="-8.317140">
        <ele>176.390</ele>
        <time>2020-07-16T18:08:36Z</time>
      </trkpt>
      <trkpt lat="41.394700" lon="-8.317070">
        <ele>175.048</ele>
        <time>2020-07-16T18:08:56Z</time>
      </trkpt>
      <trkpt lat="41.394310" lon="-8.317040">
        <ele>174.765</ele>
        <time>2020-07-16T18:09:16Z</time>
      </trkpt>
      <trkpt lat="41.393590" lon="-8.317060">
        <ele>173.355</ele>
        <time>2020-07-16T18:09:36Z</time>
      </trkpt>
      <trkpt lat="41.393480" lon="-8.317030">
        <ele>172.535</ele>
        <time>2020-07-16T18:09:56Z</time>
      </trkpt>
      <trkpt lat="41.393250" lon="-8.316900">
        <ele>171.526</ele>
        <time>2020-07-16T18:10:16Z</time>
      </trkpt>
      <trkpt lat="41.393050" lon="-8.316760">
        <ele>172.093</ele>
        <time>2020-07-16T18:10:36Z</time>
      </trkpt>
      <trkpt lat="41.392850" lon="-8.316680">
        <ele>171.465</ele>
        <time>2020-07-16T18:10:56Z</time>
      </trkpt>
      <trkpt lat="41.392550" lon="-8.316650">
        <ele>171.221</ele>
        <time>2020-07-16T18:11:16Z</time>
      </trkpt>
      <trkpt lat="41.392380" lon="-8.316610">
        <ele>171.608</ele>
        <time>2020-07-16T18:11:36Z</time>
      </trkpt>
      <trkpt lat="41.392270" lon="-8.316530">
        <ele>172.514</ele>
        <time>2020-07-16T18:11:56Z</time>
      </trkpt>
      <trkpt lat="41.392160" lon="-8.316370">
        <ele>173.621</ele>
        <time>2020-07-16T18:12:16Z</time>
      </trkpt>
      <trkpt lat="41.391980" lon="-8.316160">
        <ele>173.016</ele>
        <time>2020-07-16T18:12:36Z</time>
      </trkpt>
      <trkpt lat="41.391660" lon="-8.315930">
        <ele>171.574</ele>
        <time>2020-07-16T18:12:56Z</time>
      </trkpt>
      <trkpt lat="41.391390" lon="-8.315800">
        <ele>168.121</ele>
        <time>2020-07-16T18:13:16Z</time>
      </trkpt>
      <trkpt lat="41.391230" lon="-8.315770">
        <ele>165.921</ele>
        <time>2020-07-16T18:13:36Z</time>
      </trkpt>
      <trkpt lat="41.390720" lon="-8.315750">
        <ele>161.961</ele>
        <time>2020-07-16T18:13:56Z</time>
      </trkpt>
      <trkpt lat="41.390490" lon="-8.315720">
        <ele>161.082</ele>
        <time>2020-07-16T18:14:16Z</time>
      </trkpt>
      <trkpt lat="41.388830" lon="-8.314960">
        <ele>160.234</ele>
        <time>2020-07-16T18:14:36Z</time>
      </trkpt>
      <trkpt lat="41.388820" lon="-8.315020">
        <ele>159.955</ele>
        <time>2020-07-16T18:14:56Z</time>
      </trkpt>
      <trkpt lat="41.388750" lon="-8.315110">
        <ele>159.410</ele>
        <time>2020-07-16T18:15:16Z</time>
      </trkpt>
      <trkpt lat="41.388670" lon="-8.315130">
        <ele>159.208</ele>
        <time>2020-07-16T18:15:36Z</time>
      </trkpt>
      <trkpt lat="41.388570" lon="-8.315080">
        <ele>159.418</ele>
        <time>2020-07-16T18:15:56Z</time>
      </trkpt>
      <trkpt lat="41.388520" lon="-8.314980">
        <ele>160.225</ele>
        <time>2020-07-16T18:16:16Z</time>
      </trkpt>
      <trkpt lat="41.388520" lon="-8.314910">
        <ele>160.860</ele>
        <time>2020-07-16T18:16:36Z</time>
      </trkpt>
      <trkpt lat="41.387420" lon="-8.314840">
        <ele>157.688</ele>
        <time>2020-07-16T18:16:56Z</time>
      </trkpt>
      <trkpt lat="41.387000" lon="-8.314830">
        <ele>155.375</ele>
        <time>2020-07-16T18:17:16Z</time>
      </trkpt>
      <trkpt lat="41.386690" lon="-8.314810">
        <ele>154.415</ele>
        <time>2020-07-16T18:17:36Z</time>
      </trkpt>
      <trkpt lat="41.386280" lon="-8.314760">
        <ele>153.955</ele>
        <time>2020-07-16T18:17:56Z</time>
      </trkpt>
      <trkpt lat="41.385540" lon="-8.314630">
        <ele>154.766</ele>
        <time>2020-07-16T18:18:16Z</time>
      </trkpt>
      <trkpt lat="41.385240" lon="-8.314610">
        <ele>155.563</ele>
        <time>2020-07-16T18:18:36Z</time>
      </trkpt>
      <trkpt lat="41.385040" lon="-8.314660">
        <ele>156.444</ele>
        <time>2020-07-16T18:18:56Z</time>
      </trkpt>
      <trkpt lat="41.384830" lon="-8.314770">
        <ele>155.718</ele>
        <time>2020-07-16T18:19:16Z</time>
      </trkpt>
      <trkpt lat="41.384560" lon="-8.314880">
        <ele>154.908</ele>
        <time>2020-07-16T18:19:36Z</time>
      </trkpt>
      <trkpt lat="41.384370" lon="-8.314870">
        <ele>155.021</ele>
        <time>2020-07-16T18:19:56Z</time>
      </trkpt>
      <trkpt lat="41.384280" lon="-8.314850">
        <ele>155.038</ele>
        <time>2020-07-16T18:20:16Z</time>
      </trkpt>
      <trkpt lat="41.384200" lon="-8.314800">
        <ele>155.113</ele>
        <time>2020-07-16T18:20:36Z</time>
      </trkpt>
      <trkpt lat="41.384150" lon="-8.314730">
        <ele>155.011</ele>
        <time>2020-07-16T18:20:56Z</time>
      </trkpt>
      <trkpt lat="41.384080" lon="-8.314730">
        <ele>155.088</ele>
        <time>2020-07-16T18:21:16Z</time>
      </trkpt>
      <trkpt lat="41.383170" lon="-8.314260">
        <ele>153.418</ele>
        <time>2020-07-16T18:21:36Z</time>
      </trkpt>
      <trkpt lat="41.382860" lon="-8.314030">
        <ele>154.018</ele>
        <time>2020-07-16T18:21:56Z</time>
      </trkpt>
      <trkpt lat="41.381680" lon="-8.313080">
        <ele>152.929</ele>
        <time>2020-07-16T18:22:16Z</time>
      </trkpt>
      <trkpt lat="41.381600" lon="-8.312980">
        <ele>153.255</ele>
        <time>2020-07-16T18:22:36Z</time>
      </trkpt>
      <trkpt lat="41.381390" lon="-8.312590">
        <ele>153.007</ele>
        <time>2020-07-16T18:22:56Z</time>
      </trkpt>
      <trkpt lat="41.381110" lon="-8.312220">
        <ele>154.017</ele>
        <time>2020-07-16T18:23:16Z</time>
      </trkpt>
      <trkpt lat="41.380920" lon="-8.312040">
        <ele>154.708</ele>
        <time>2020-07-16T18:23:36Z</time>
      </trkpt>
      <trkpt lat="41.379810" lon="-8.311250">
        <ele>155.830</ele>
        <time>2020-07-16T18:23:56Z</time>
      </trkpt>
      <trkpt lat="41.379420" lon="-8.310670">
        <ele>154.647</ele>
        <time>2020-07-16T18:24:16Z</time>
      </trkpt>
      <trkpt lat="41.378450" lon="-8.309110">
        <ele>149.512</ele>
        <time>2020-07-16T18:24:36Z</time>
      </trkpt>
      <trkpt lat="41.378120" lon="-8.308480">
        <ele>151.320</ele>
        <time>2020-07-16T18:24:56Z</time>
      </trkpt>
      <trkpt lat="41.377850" lon="-8.307760">
        <ele>149.457</ele>
        <time>2020-07-16T18:25:16Z</time>
      </trkpt>
      <trkpt lat="41.377690" lon="-8.307150">
        <ele>148.647</ele>
        <time>2020-07-16T18:25:36Z</time>
      </trkpt>
      <trkpt lat="41.377600" lon="-8.306500">
        <ele>146.787</ele>
        <time>2020-07-16T18:25:56Z</time>
      </trkpt>
      <trkpt lat="41.377590" lon="-8.306230">
        <ele>146.648</ele>
        <time>2020-07-16T18:26:16Z</time>
      </trkpt>
      <trkpt lat="41.377550" lon="-8.305880">
        <ele>146.273</ele>
        <time>2020-07-16T18:26:36Z</time>
      </trkpt>
      <trkpt lat="41.377490" lon="-8.305880">
        <ele>146.085</ele>
        <time>2020-07-16T18:26:56Z</time>
      </trkpt>
      <trkpt lat="41.377430" lon="-8.305810">
        <ele>146.013</ele>
        <time>2020-07-16T18:27:16Z</time>
      </trkpt>
      <trkpt lat="41.377420" lon="-8.305700">
        <ele>146.008</ele>
        <time>2020-07-16T18:27:36Z</time>
      </trkpt>
      <trkpt lat="41.377470" lon="-8.305620">
        <ele>146.022</ele>
        <time>2020-07-16T18:27:56Z</time>
      </trkpt>
      <trkpt lat="41.377510" lon="-8.305600">
        <ele>146.079</ele>
        <time>2020-07-16T18:28:16Z</time>
      </trkpt>
      <trkpt lat="41.377550" lon="-8.305610">
        <ele>146.294</ele>
        <time>2020-07-16T18:28:36Z</time>
      </trkpt>
      <trkpt lat="41.377610" lon="-8.305670">
        <ele>146.462</ele>
        <time>2020-07-16T18:28:56Z</time>
      </trkpt>
      <trkpt lat="41.377630" lon="-8.305720">
        <ele>146.549</ele>
        <time>2020-07-16T18:29:16Z</time>
      </trkpt>
      <trkpt lat="41.377680" lon="-8.305730">
        <ele>146.669</ele>
        <time>2020-07-16T18:29:36Z</time>
      </trkpt>
      <trkpt lat="41.378770" lon="-8.305480">
        <ele>151.369</ele>
        <time>2020-07-16T18:29:56Z</time>
      </trkpt>
      <trkpt lat="41.379120" lon="-8.305440">
        <ele>153.830</ele>
        <time>2020-07-16T18:30:16Z</time>
      </trkpt>
      <trkpt lat="41.379240" lon="-8.305380">
        <ele>154.168</ele>
        <time>2020-07-16T18:30:36Z</time>
      </trkpt>
      <trkpt lat="41.379640" lon="-8.305290">
        <ele>154.742</ele>
        <time>2020-07-16T18:30:56Z</time>
      </trkpt>
      <trkpt lat="41.379940" lon="-8.305170">
        <ele>156.226</ele>
        <time>2020-07-16T18:31:16Z</time>
      </trkpt>
      <trkpt lat="41.380070" lon="-8.305030">
        <ele>156.608</ele>
        <time>2020-07-16T18:31:36Z</time>
      </trkpt>
      <trkpt lat="41.380190" lon="-8.304820">
        <ele>157.481</ele>
        <time>2020-07-16T18:31:56Z</time>
      </trkpt>
      <trkpt lat="41.380550" lon="-8.304040">
        <ele>159.068</ele>
        <time>2020-07-16T18:32:16Z</time>
      </trkpt>
      <trkpt lat="41.379860" lon="-8.303470">
        <ele>159.853</ele>
        <time>2020-07-16T18:32:36Z</time>
      </trkpt>
      <trkpt lat="41.379832" lon="-8.303447">
        <ele>159.298</ele>
        <time>2021-08-02T13:13:28Z</time>
      </trkpt>
      <trkpt lat="41.380561" lon="-8.304040">
        <ele>159.215</ele>
        <time>2021-08-02T13:13:28Z</time>
      </trkpt>
      <trkpt lat="41.379965" lon="-8.305191">
        <ele>156.326</ele>
        <time>2021-08-02T13:13:28Z</time>
      </trkpt>
      <trkpt lat="41.377842" lon="-8.305680">
        <ele>146.908</ele>
        <time>2021-08-02T13:13:28Z</time>
      </trkpt>
      <trkpt lat="41.377634" lon="-8.305780">
        <ele>146.086</ele>
        <time>2021-08-02T13:13:28Z</time>
      </trkpt>
      <trkpt lat="41.377580" lon="-8.306065">
        <ele>146.228</ele>
        <time>2021-08-02T13:13:28Z</time>
      </trkpt>
      <trkpt lat="41.377912" lon="-8.307989">
        <ele>149.727</ele>
        <time>2021-08-02T13:13:28Z</time>
      </trkpt>
      <trkpt lat="41.378350" lon="-8.308930">
        <ele>150.232</ele>
        <time>2021-08-02T13:13:28Z</time>
      </trkpt>
      <trkpt lat="41.379372" lon="-8.310568">
        <ele>152.950</ele>
        <time>2021-08-02T13:13:28Z</time>
      </trkpt>
      <trkpt lat="41.378274" lon="-8.311338">
        <ele>148.511</ele>
        <time>2021-08-02T13:13:28Z</time>
      </trkpt>
      <trkpt lat="41.378243" lon="-8.311532">
        <ele>149.473</ele>
        <time>2021-08-02T13:13:29Z</time>
      </trkpt>
      <trkpt lat="41.379400" lon="-8.312228">
        <ele>148.483</ele>
        <time>2021-08-02T13:13:29Z</time>
      </trkpt>
      <trkpt lat="41.379719" lon="-8.312545">
        <ele>150.333</ele>
        <time>2021-08-02T13:13:29Z</time>
      </trkpt>
      <trkpt lat="41.380096" lon="-8.313408">
        <ele>150.523</ele>
        <time>2021-08-02T13:13:29Z</time>
      </trkpt>
      <trkpt lat="41.380528" lon="-8.313963">
        <ele>151.515</ele>
        <time>2021-08-02T13:13:29Z</time>
      </trkpt>
      <trkpt lat="41.380430" lon="-8.314190">
        <ele>153.308</ele>
        <time>2021-08-02T13:13:30Z</time>
      </trkpt>
      <trkpt lat="41.377965" lon="-8.311973">
        <ele>153.430</ele>
        <time>2021-08-02T13:13:30Z</time>
      </trkpt>
      <trkpt lat="41.377288" lon="-8.311721">
        <ele>154.382</ele>
        <time>2021-08-02T13:13:30Z</time>
      </trkpt>
      <trkpt lat="41.376385" lon="-8.311618">
        <ele>157.751</ele>
        <time>2021-08-02T13:13:31Z</time>
      </trkpt>
      <trkpt lat="41.375547" lon="-8.311801">
        <ele>157.866</ele>
        <time>2021-08-02T13:13:31Z</time>
      </trkpt>
      <trkpt lat="41.375121" lon="-8.312301">
        <ele>155.794</ele>
        <time>2021-08-02T13:13:31Z</time>
      </trkpt>
      <trkpt lat="41.374717" lon="-8.313133">
        <ele>148.755</ele>
        <time>2021-08-02T13:13:32Z</time>
      </trkpt>
      <trkpt lat="41.374147" lon="-8.313507">
        <ele>142.087</ele>
        <time>2021-08-02T13:13:32Z</time>
      </trkpt>
      <trkpt lat="41.373008" lon="-8.313496">
        <ele>136.097</ele>
        <time>2021-08-02T13:13:33Z</time>
      </trkpt>
      <trkpt lat="41.371361" lon="-8.312164">
        <ele>136.184</ele>
        <time>2021-08-02T13:13:33Z</time>
      </trkpt>
      <trkpt lat="41.370974" lon="-8.312102">
        <ele>139.307</ele>
        <time>2021-08-02T13:13:33Z</time>
      </trkpt>
      <trkpt lat="41.370862" lon="-8.307373">
        <ele>155.817</ele>
        <time>2021-08-02T13:13:34Z</time>
      </trkpt>
      <trkpt lat="41.370731" lon="-8.307212">
        <ele>156.908</ele>
        <time>2021-08-02T13:13:35Z</time>
      </trkpt>
      <trkpt lat="41.368176" lon="-8.307297">
        <ele>164.365</ele>
        <time>2021-08-02T13:13:35Z</time>
      </trkpt>
      <trkpt lat="41.367343" lon="-8.308321">
        <ele>170.047</ele>
        <time>2021-08-02T13:13:36Z</time>
      </trkpt>
      <trkpt lat="41.366526" lon="-8.308900">
        <ele>177.636</ele>
        <time>2021-08-02T13:13:36Z</time>
      </trkpt>
      <trkpt lat="41.366121" lon="-8.308846">
        <ele>182.031</ele>
        <time>2021-08-02T13:13:37Z</time>
      </trkpt>
      <trkpt lat="41.365199" lon="-8.307397">
        <ele>185.329</ele>
        <time>2021-08-02T13:13:38Z</time>
      </trkpt>
      <trkpt lat="41.364341" lon="-8.306586">
        <ele>192.070</ele>
        <time>2021-08-02T13:13:38Z</time>
      </trkpt>
      <trkpt lat="41.364538" lon="-8.306149">
        <ele>188.042</ele>
        <time>2021-08-02T13:13:39Z</time>
      </trkpt>
      <trkpt lat="41.364209" lon="-8.303354">
        <ele>177.932</ele>
        <time>2021-08-02T13:13:40Z</time>
      </trkpt>
      <trkpt lat="41.363950" lon="-8.303037">
        <ele>178.121</ele>
        <time>2021-08-02T13:13:40Z</time>
      </trkpt>
      <trkpt lat="41.363256" lon="-8.302655">
        <ele>176.641</ele>
        <time>2021-08-02T13:13:41Z</time>
      </trkpt>
      <trkpt lat="41.362290" lon="-8.302666">
        <ele>172.905</ele>
        <time>2021-08-02T13:13:42Z</time>
      </trkpt>
      <trkpt lat="41.362021" lon="-8.302212">
        <ele>173.308</ele>
        <time>2021-08-02T13:13:43Z</time>
      </trkpt>
      <trkpt lat="41.362227" lon="-8.301469">
        <ele>170.739</ele>
        <time>2021-08-02T13:13:43Z</time>
      </trkpt>
      <trkpt lat="41.362117" lon="-8.300581">
        <ele>168.831</ele>
        <time>2021-08-02T13:13:44Z</time>
      </trkpt>
      <trkpt lat="41.361650" lon="-8.299047">
        <ele>164.740</ele>
        <time>2021-08-02T13:13:45Z</time>
      </trkpt>
      <trkpt lat="41.361954" lon="-8.297265">
        <ele>159.855</ele>
        <time>2021-08-02T13:13:46Z</time>
      </trkpt>
      <trkpt lat="41.361771" lon="-8.296534">
        <ele>165.353</ele>
        <time>2021-08-02T13:13:47Z</time>
      </trkpt>
      <trkpt lat="41.357923" lon="-8.293072">
        <ele>185.864</ele>
        <time>2021-08-02T13:13:48Z</time>
      </trkpt>
      <trkpt lat="41.356548" lon="-8.290431">
        <ele>198.826</ele>
        <time>2021-08-02T13:13:49Z</time>
      </trkpt>
      <trkpt lat="41.356510" lon="-8.288676">
        <ele>206.396</ele>
        <time>2021-08-02T13:13:50Z</time>
      </trkpt>
      <trkpt lat="41.356763" lon="-8.287553">
        <ele>210.573</ele>
        <time>2021-08-02T13:13:51Z</time>
      </trkpt>
      <trkpt lat="41.356660" lon="-8.287201">
        <ele>213.185</ele>
        <time>2021-08-02T13:13:52Z</time>
      </trkpt>
      <trkpt lat="41.354953" lon="-8.287120">
        <ele>221.413</ele>
        <time>2021-08-02T13:13:53Z</time>
      </trkpt>
      <trkpt lat="41.353775" lon="-8.287447">
        <ele>228.308</ele>
        <time>2021-08-02T13:13:54Z</time>
      </trkpt>
      <trkpt lat="41.352664" lon="-8.287318">
        <ele>233.754</ele>
        <time>2021-08-02T13:13:55Z</time>
      </trkpt>
      <trkpt lat="41.351792" lon="-8.287411">
        <ele>237.366</ele>
        <time>2021-08-02T13:13:56Z</time>
      </trkpt>
      <trkpt lat="41.351510" lon="-8.287240">
        <ele>238.915</ele>
        <time>2021-08-02T13:13:57Z</time>
      </trkpt>
      <trkpt lat="41.351262" lon="-8.286450">
        <ele>245.140</ele>
        <time>2021-08-02T13:13:58Z</time>
      </trkpt>
      <trkpt lat="41.350998" lon="-8.286200">
        <ele>249.378</ele>
        <time>2021-08-02T13:13:59Z</time>
      </trkpt>
      <trkpt lat="41.349496" lon="-8.286566">
        <ele>251.759</ele>
        <time>2021-08-02T13:14:01Z</time>
      </trkpt>
      <trkpt lat="41.348841" lon="-8.286432">
        <ele>257.311</ele>
        <time>2021-08-02T13:14:02Z</time>
      </trkpt>
      <trkpt lat="41.348335" lon="-8.286896">
        <ele>257.251</ele>
        <time>2021-08-02T13:14:03Z</time>
      </trkpt>
      <trkpt lat="41.347847" lon="-8.286785">
        <ele>262.445</ele>
        <time>2021-08-02T13:14:04Z</time>
      </trkpt>
      <trkpt lat="41.347052" lon="-8.286990">
        <ele>268.247</ele>
        <time>2021-08-02T13:14:06Z</time>
      </trkpt>
      <trkpt lat="41.345813" lon="-8.287045">
        <ele>275.911</ele>
        <time>2021-08-02T13:14:07Z</time>
      </trkpt>
      <trkpt lat="41.342738" lon="-8.284767">
        <ele>293.708</ele>
        <time>2021-08-02T13:14:08Z</time>
      </trkpt>
      <trkpt lat="41.341340" lon="-8.284280">
        <ele>293.541</ele>
        <time>2021-08-02T13:14:09Z</time>
      </trkpt>
      <trkpt lat="41.340945" lon="-8.283763">
        <ele>298.313</ele>
        <time>2021-08-02T13:14:11Z</time>
      </trkpt>
      <trkpt lat="41.340338" lon="-8.283433">
        <ele>301.542</ele>
        <time>2021-08-02T13:14:12Z</time>
      </trkpt>
      <trkpt lat="41.338979" lon="-8.282111">
        <ele>310.057</ele>
        <time>2021-08-02T13:14:14Z</time>
      </trkpt>
      <trkpt lat="41.338241" lon="-8.281611">
        <ele>310.275</ele>
        <time>2021-08-02T13:14:15Z</time>
      </trkpt>
      <trkpt lat="41.337662" lon="-8.281410">
        <ele>313.546</ele>
        <time>2021-08-02T13:14:16Z</time>
      </trkpt>
      <trkpt lat="41.335002" lon="-8.279972">
        <ele>329.648</ele>
        <time>2021-08-02T13:14:18Z</time>
      </trkpt>
      <trkpt lat="41.333910" lon="-8.280214">
        <ele>334.718</ele>
        <time>2021-08-02T13:14:19Z</time>
      </trkpt>
      <trkpt lat="41.333286" lon="-8.279676">
        <ele>340.595</ele>
        <time>2021-08-02T13:14:21Z</time>
      </trkpt>
      <trkpt lat="41.332997" lon="-8.279727">
        <ele>341.049</ele>
        <time>2021-08-02T13:14:22Z</time>
      </trkpt>
      <trkpt lat="41.332895" lon="-8.280118">
        <ele>343.223</ele>
        <time>2021-08-02T13:14:24Z</time>
      </trkpt>
      <trkpt lat="41.332980" lon="-8.280413">
        <ele>347.208</ele>
        <time>2021-08-02T13:14:25Z</time>
      </trkpt>
      <trkpt lat="41.334250" lon="-8.282073">
        <ele>348.876</ele>
        <time>2021-08-02T13:14:27Z</time>
      </trkpt>
      <trkpt lat="41.334743" lon="-8.283360">
        <ele>348.958</ele>
        <time>2021-08-02T13:14:29Z</time>
      </trkpt>
      <trkpt lat="41.334624" lon="-8.283831">
        <ele>355.047</ele>
        <time>2021-08-02T13:14:30Z</time>
      </trkpt>
      <trkpt lat="41.334369" lon="-8.283836">
        <ele>360.412</ele>
        <time>2021-08-02T13:14:32Z</time>
      </trkpt>
      <trkpt lat="41.333853" lon="-8.282272">
        <ele>365.650</ele>
        <time>2021-08-02T13:14:33Z</time>
      </trkpt>
      <trkpt lat="41.333048" lon="-8.281376">
        <ele>370.991</ele>
        <time>2021-08-02T13:14:35Z</time>
      </trkpt>
      <trkpt lat="41.332102" lon="-8.280685">
        <ele>382.713</ele>
        <time>2021-08-02T13:14:37Z</time>
      </trkpt>
      <trkpt lat="41.331438" lon="-8.279795">
        <ele>386.593</ele>
        <time>2021-08-02T13:14:38Z</time>
      </trkpt>
      <trkpt lat="41.331047" lon="-8.279699">
        <ele>389.653</ele>
        <time>2021-08-02T13:14:40Z</time>
      </trkpt>
      <trkpt lat="41.330458" lon="-8.278452">
        <ele>386.504</ele>
        <time>2021-08-02T13:14:42Z</time>
      </trkpt>
      <trkpt lat="41.329925" lon="-8.278401">
        <ele>394.414</ele>
        <time>2021-08-02T13:14:44Z</time>
      </trkpt>
      <trkpt lat="41.329398" lon="-8.277023">
        <ele>395.308</ele>
        <time>2021-08-02T13:14:45Z</time>
      </trkpt>
      <trkpt lat="41.329086" lon="-8.275737">
        <ele>400.832</ele>
        <time>2021-08-02T13:14:47Z</time>
      </trkpt>
      <trkpt lat="41.329115" lon="-8.275255">
        <ele>402.714</ele>
        <time>2021-08-02T13:14:49Z</time>
      </trkpt>
      <trkpt lat="41.329262" lon="-8.274898">
        <ele>402.133</ele>
        <time>2021-08-02T13:14:51Z</time>
      </trkpt>
      <trkpt lat="41.329976" lon="-8.274325">
        <ele>405.758</ele>
        <time>2021-08-02T13:14:52Z</time>
      </trkpt>
      <trkpt lat="41.330469" lon="-8.273725">
        <ele>409.266</ele>
        <time>2021-08-02T13:14:54Z</time>
      </trkpt>
      <trkpt lat="41.330962" lon="-8.272863">
        <ele>415.817</ele>
        <time>2021-08-02T13:14:56Z</time>
      </trkpt>
      <trkpt lat="41.331200" lon="-8.272835">
        <ele>417.049</ele>
        <time>2021-08-02T13:14:58Z</time>
      </trkpt>
      <trkpt lat="41.332483" lon="-8.273327">
        <ele>426.559</ele>
        <time>2021-08-02T13:15:00Z</time>
      </trkpt>
      <trkpt lat="41.332888" lon="-8.274296">
        <ele>424.924</ele>
        <time>2021-08-02T13:15:02Z</time>
      </trkpt>
      <trkpt lat="41.333858" lon="-8.274597">
        <ele>432.304</ele>
        <time>2021-08-02T13:15:03Z</time>
      </trkpt>
      <trkpt lat="41.334066" lon="-8.274212">
        <ele>439.014</ele>
        <time>2021-08-02T13:15:05Z</time>
      </trkpt>
      <trkpt lat="41.333854" lon="-8.273912">
        <ele>443.408</ele>
        <time>2021-08-02T13:15:07Z</time>
      </trkpt>
      <trkpt lat="41.333273" lon="-8.273649">
        <ele>445.599</ele>
        <time>2021-08-02T13:15:09Z</time>
      </trkpt>
      <trkpt lat="41.333154" lon="-8.272696">
        <ele>450.331</ele>
        <time>2021-08-02T13:15:11Z</time>
      </trkpt>
      <trkpt lat="41.332483" lon="-8.272252">
        <ele>447.860</ele>
        <time>2021-08-02T13:15:13Z</time>
      </trkpt>
      <trkpt lat="41.332070" lon="-8.271591">
        <ele>454.595</ele>
        <time>2021-08-02T13:15:15Z</time>
      </trkpt>
      <trkpt lat="41.331308" lon="-8.270961">
        <ele>457.223</ele>
        <time>2021-08-02T13:15:17Z</time>
      </trkpt>
      <trkpt lat="41.331044" lon="-8.270064">
        <ele>463.524</ele>
        <time>2021-08-02T13:15:19Z</time>
      </trkpt>
      <trkpt lat="41.330696" lon="-8.269786">
        <ele>464.916</ele>
        <time>2021-08-02T13:15:21Z</time>
      </trkpt>
      <trkpt lat="41.329974" lon="-8.271375">
        <ele>465.666</ele>
        <time>2021-08-02T13:15:23Z</time>
      </trkpt>
      <trkpt lat="41.329614" lon="-8.271511">
        <ele>468.834</ele>
        <time>2021-08-02T13:15:25Z</time>
      </trkpt>
      <trkpt lat="41.327650" lon="-8.270565">
        <ele>481.655</ele>
        <time>2021-08-02T13:15:27Z</time>
      </trkpt>
      <trkpt lat="41.327284" lon="-8.270696">
        <ele>481.310</ele>
        <time>2021-08-02T13:15:29Z</time>
      </trkpt>
      <trkpt lat="41.326910" lon="-8.271388">
        <ele>481.808</ele>
        <time>2021-08-02T13:15:31Z</time>
      </trkpt>
      <trkpt lat="41.325392" lon="-8.271017">
        <ele>478.310</ele>
        <time>2021-08-02T13:15:33Z</time>
      </trkpt>
      <trkpt lat="41.324692" lon="-8.271111">
        <ele>474.492</ele>
        <time>2021-08-02T13:15:35Z</time>
      </trkpt>
      <trkpt lat="41.324559" lon="-8.271272">
        <ele>473.271</ele>
        <time>2021-08-02T13:15:38Z</time>
      </trkpt>
      <trkpt lat="41.324433" lon="-8.272084">
        <ele>475.816</ele>
        <time>2021-08-02T13:15:40Z</time>
      </trkpt>
      <trkpt lat="41.324114" lon="-8.272544">
        <ele>472.784</ele>
        <time>2021-08-02T13:15:42Z</time>
      </trkpt>
      <trkpt lat="41.324129" lon="-8.272768">
        <ele>472.075</ele>
        <time>2021-08-02T13:15:44Z</time>
      </trkpt>
      <trkpt lat="41.324490" lon="-8.273343">
        <ele>473.317</ele>
        <time>2021-08-02T13:15:46Z</time>
      </trkpt>
      <trkpt lat="41.324484" lon="-8.273547">
        <ele>472.567</ele>
        <time>2021-08-02T13:15:48Z</time>
      </trkpt>
      <trkpt lat="41.324156" lon="-8.273967">
        <ele>470.844</ele>
        <time>2021-08-02T13:15:51Z</time>
      </trkpt>
      <trkpt lat="41.323091" lon="-8.273449">
        <ele>467.605</ele>
        <time>2021-08-02T13:15:53Z</time>
      </trkpt>
      <trkpt lat="41.322604" lon="-8.272463">
        <ele>459.915</ele>
        <time>2021-08-02T13:15:55Z</time>
      </trkpt>
      <trkpt lat="41.322256" lon="-8.272259">
        <ele>457.608</ele>
        <time>2021-08-02T13:15:57Z</time>
      </trkpt>
      <trkpt lat="41.320506" lon="-8.272660">
        <ele>450.481</ele>
        <time>2021-08-02T13:15:59Z</time>
      </trkpt>
      <trkpt lat="41.319949" lon="-8.271887">
        <ele>445.953</ele>
        <time>2021-08-02T13:16:02Z</time>
      </trkpt>
      <trkpt lat="41.319195" lon="-8.271594">
        <ele>439.222</ele>
        <time>2021-08-02T13:16:04Z</time>
      </trkpt>
      <trkpt lat="41.318609" lon="-8.272074">
        <ele>436.117</ele>
        <time>2021-08-02T13:16:06Z</time>
      </trkpt>
      <trkpt lat="41.318498" lon="-8.272358">
        <ele>434.645</ele>
        <time>2021-08-02T13:16:09Z</time>
      </trkpt>
      <trkpt lat="41.318700" lon="-8.273263">
        <ele>436.796</ele>
        <time>2021-08-02T13:16:11Z</time>
      </trkpt>
      <trkpt lat="41.318614" lon="-8.273479">
        <ele>434.448</ele>
        <time>2021-08-02T13:16:13Z</time>
      </trkpt>
      <trkpt lat="41.318414" lon="-8.273604">
        <ele>432.338</ele>
        <time>2021-08-02T13:16:16Z</time>
      </trkpt>
      <trkpt lat="41.317918" lon="-8.273346">
        <ele>427.138</ele>
        <time>2021-08-02T13:16:18Z</time>
      </trkpt>
      <trkpt lat="41.317724" lon="-8.273452">
        <ele>426.370</ele>
        <time>2021-08-02T13:16:20Z</time>
      </trkpt>
      <trkpt lat="41.317512" lon="-8.273878">
        <ele>430.517</ele>
        <time>2021-08-02T13:16:23Z</time>
      </trkpt>
      <trkpt lat="41.317215" lon="-8.273918">
        <ele>432.708</ele>
        <time>2021-08-02T13:16:25Z</time>
      </trkpt>
      <trkpt lat="41.317074" lon="-8.273581">
        <ele>430.740</ele>
        <time>2021-08-02T13:16:27Z</time>
      </trkpt>
      <trkpt lat="41.317320" lon="-8.272572">
        <ele>421.222</ele>
        <time>2021-08-02T13:16:30Z</time>
      </trkpt>
      <trkpt lat="41.317238" lon="-8.270082">
        <ele>411.141</ele>
        <time>2021-08-02T13:16:32Z</time>
      </trkpt>
      <trkpt lat="41.317325" lon="-8.269336">
        <ele>403.836</ele>
        <time>2021-08-02T13:16:34Z</time>
      </trkpt>
      <trkpt lat="41.317198" lon="-8.269122">
        <ele>404.794</ele>
        <time>2021-08-02T13:16:37Z</time>
      </trkpt>
      <trkpt lat="41.316994" lon="-8.269092">
        <ele>405.665</ele>
        <time>2021-08-02T13:16:39Z</time>
      </trkpt>
      <trkpt lat="41.316093" lon="-8.269470">
        <ele>409.587</ele>
        <time>2021-08-02T13:16:42Z</time>
      </trkpt>
      <trkpt lat="41.315916" lon="-8.269165">
        <ele>406.337</ele>
        <time>2021-08-02T13:16:44Z</time>
      </trkpt>
      <trkpt lat="41.316015" lon="-8.268845">
        <ele>406.023</ele>
        <time>2021-08-02T13:16:47Z</time>
      </trkpt>
      <trkpt lat="41.316771" lon="-8.268072">
        <ele>393.383</ele>
        <time>2021-08-02T13:16:49Z</time>
      </trkpt>
      <trkpt lat="41.316963" lon="-8.267442">
        <ele>391.311</ele>
        <time>2021-08-02T13:16:52Z</time>
      </trkpt>
      <trkpt lat="41.316970" lon="-8.265713">
        <ele>388.808</ele>
        <time>2021-08-02T13:16:54Z</time>
      </trkpt>
      <trkpt lat="41.316488" lon="-8.265213">
        <ele>390.799</ele>
        <time>2021-08-02T13:16:57Z</time>
      </trkpt>
      <trkpt lat="41.316388" lon="-8.264110">
        <ele>379.191</ele>
        <time>2021-08-02T13:16:59Z</time>
      </trkpt>
      <trkpt lat="41.316018" lon="-8.263540">
        <ele>375.480</ele>
        <time>2021-08-02T13:17:02Z</time>
      </trkpt>
      <trkpt lat="41.315167" lon="-8.263477">
        <ele>367.875</ele>
        <time>2021-08-02T13:17:04Z</time>
      </trkpt>
      <trkpt lat="41.313788" lon="-8.262150">
        <ele>354.693</ele>
        <time>2021-08-02T13:17:07Z</time>
      </trkpt>
      <trkpt lat="41.313322" lon="-8.262002">
        <ele>357.994</ele>
        <time>2021-08-02T13:17:09Z</time>
      </trkpt>
      <trkpt lat="41.313193" lon="-8.261086">
        <ele>352.436</ele>
        <time>2021-08-02T13:17:12Z</time>
      </trkpt>
      <trkpt lat="41.313237" lon="-8.260407">
        <ele>348.146</ele>
        <time>2021-08-02T13:17:15Z</time>
      </trkpt>
      <trkpt lat="41.313407" lon="-8.260022">
        <ele>345.153</ele>
        <time>2021-08-02T13:17:17Z</time>
      </trkpt>
      <trkpt lat="41.313294" lon="-8.259610">
        <ele>344.804</ele>
        <time>2021-08-02T13:17:20Z</time>
      </trkpt>
      <trkpt lat="41.311250" lon="-8.258244">
        <ele>342.114</ele>
        <time>2021-08-02T13:17:23Z</time>
      </trkpt>
      <trkpt lat="41.310036" lon="-8.256781">
        <ele>328.808</ele>
        <time>2021-08-02T13:17:25Z</time>
      </trkpt>
      <trkpt lat="41.309860" lon="-8.256491">
        <ele>325.992</ele>
        <time>2021-08-02T13:17:28Z</time>
      </trkpt>
      <trkpt lat="41.309736" lon="-8.255555">
        <ele>316.644</ele>
        <time>2021-08-02T13:17:31Z</time>
      </trkpt>
      <trkpt lat="41.309339" lon="-8.255130">
        <ele>315.633</ele>
        <time>2021-08-02T13:17:34Z</time>
      </trkpt>
      <trkpt lat="41.308920" lon="-8.255301">
        <ele>316.458</ele>
        <time>2021-08-02T13:17:36Z</time>
      </trkpt>
      <trkpt lat="41.307993" lon="-8.255188">
        <ele>310.816</ele>
        <time>2021-08-02T13:17:39Z</time>
      </trkpt>
      <trkpt lat="41.307565" lon="-8.255264">
        <ele>307.137</ele>
        <time>2021-08-02T13:17:42Z</time>
      </trkpt>
      <trkpt lat="41.307435" lon="-8.255557">
        <ele>305.249</ele>
        <time>2021-08-02T13:17:45Z</time>
      </trkpt>
      <trkpt lat="41.307449" lon="-8.256007">
        <ele>306.399</ele>
        <time>2021-08-02T13:17:47Z</time>
      </trkpt>
      <trkpt lat="41.306524" lon="-8.257274">
        <ele>299.485</ele>
        <time>2021-08-02T13:17:50Z</time>
      </trkpt>
      <trkpt lat="41.306142" lon="-8.258269">
        <ele>296.389</ele>
        <time>2021-08-02T13:17:53Z</time>
      </trkpt>
      <trkpt lat="41.304519" lon="-8.258798">
        <ele>281.717</ele>
        <time>2021-08-02T13:17:56Z</time>
      </trkpt>
      <trkpt lat="41.303684" lon="-8.260022">
        <ele>278.808</ele>
        <time>2021-08-02T13:17:59Z</time>
      </trkpt>
      <trkpt lat="41.302983" lon="-8.259727">
        <ele>275.515</ele>
        <time>2021-08-02T13:18:02Z</time>
      </trkpt>
      <trkpt lat="41.302967" lon="-8.258900">
        <ele>271.027</ele>
        <time>2021-08-02T13:18:05Z</time>
      </trkpt>
      <trkpt lat="41.302579" lon="-8.257857">
        <ele>263.186</ele>
        <time>2021-08-02T13:18:08Z</time>
      </trkpt>
      <trkpt lat="41.300154" lon="-8.257273">
        <ele>251.271</ele>
        <time>2021-08-02T13:18:11Z</time>
      </trkpt>
      <trkpt lat="41.299784" lon="-8.257948">
        <ele>253.929</ele>
        <time>2021-08-02T13:18:14Z</time>
      </trkpt>
      <trkpt lat="41.298862" lon="-8.258540">
        <ele>255.880</ele>
        <time>2021-08-02T13:18:17Z</time>
      </trkpt>
      <trkpt lat="41.298624" lon="-8.258506">
        <ele>256.932</ele>
        <time>2021-08-02T13:18:20Z</time>
      </trkpt>
      <trkpt lat="41.298321" lon="-8.258163">
        <ele>256.642</ele>
        <time>2021-08-02T13:18:23Z</time>
      </trkpt>
      <trkpt lat="41.298121" lon="-8.258163">
        <ele>256.934</ele>
        <time>2021-08-02T13:18:26Z</time>
      </trkpt>
      <trkpt lat="41.297270" lon="-8.258789">
        <ele>258.855</ele>
        <time>2021-08-02T13:18:29Z</time>
      </trkpt>
      <trkpt lat="41.296393" lon="-8.260137">
        <ele>259.410</ele>
        <time>2021-08-02T13:18:32Z</time>
      </trkpt>
      <trkpt lat="41.295677" lon="-8.260154">
        <ele>260.808</ele>
        <time>2021-08-02T13:18:35Z</time>
      </trkpt>
      <trkpt lat="41.294948" lon="-8.259879">
        <ele>267.390</ele>
        <time>2021-08-02T13:18:38Z</time>
      </trkpt>
      <trkpt lat="41.292459" lon="-8.260780">
        <ele>279.332</ele>
        <time>2021-08-02T13:18:41Z</time>
      </trkpt>
      <trkpt lat="41.291517" lon="-8.262111">
        <ele>284.481</ele>
        <time>2021-08-02T13:18:44Z</time>
      </trkpt>
      <trkpt lat="41.290079" lon="-8.265235">
        <ele>287.636</ele>
        <time>2021-08-02T13:18:47Z</time>
      </trkpt>
      <trkpt lat="41.288564" lon="-8.269587">
        <ele>284.744</ele>
        <time>2021-08-02T13:18:51Z</time>
      </trkpt>
      <trkpt lat="41.288460" lon="-8.271157">
        <ele>283.395</ele>
        <time>2021-08-02T13:18:54Z</time>
      </trkpt>
      <trkpt lat="41.288338" lon="-8.271398">
        <ele>281.917</ele>
        <time>2021-08-02T13:18:57Z</time>
      </trkpt>
      <trkpt lat="41.287628" lon="-8.271990">
        <ele>281.457</ele>
        <time>2021-08-02T13:19:01Z</time>
      </trkpt>
      <trkpt lat="41.286429" lon="-8.271655">
        <ele>278.871</ele>
        <time>2021-08-02T13:19:04Z</time>
      </trkpt>
      <trkpt lat="41.286203" lon="-8.271733">
        <ele>278.141</ele>
        <time>2021-08-02T13:19:07Z</time>
      </trkpt>
      <trkpt lat="41.284952" lon="-8.272814">
        <ele>277.815</ele>
        <time>2021-08-02T13:19:11Z</time>
      </trkpt>
      <trkpt lat="41.282501" lon="-8.273998">
        <ele>265.108</ele>
        <time>2021-08-02T13:19:14Z</time>
      </trkpt>
      <trkpt lat="41.282586" lon="-8.273208">
        <ele>265.194</ele>
        <time>2021-08-02T13:19:18Z</time>
      </trkpt>
      <trkpt lat="41.283251" lon="-8.271771">
        <ele>266.946</ele>
        <time>2021-08-02T13:19:21Z</time>
      </trkpt>
      <trkpt lat="41.284056" lon="-8.271029">
        <ele>267.575</ele>
        <time>2021-08-02T13:19:25Z</time>
      </trkpt>
      <trkpt lat="41.284696" lon="-8.270147">
        <ele>261.430</ele>
        <time>2021-08-02T13:19:28Z</time>
      </trkpt>
      <trkpt lat="41.285278" lon="-8.268899">
        <ele>253.668</ele>
        <time>2021-08-02T13:19:32Z</time>
      </trkpt>
      <trkpt lat="41.285314" lon="-8.266825">
        <ele>254.729</ele>
        <time>2021-08-02T13:19:35Z</time>
      </trkpt>
      <trkpt lat="41.285547" lon="-8.265220">
        <ele>264.771</ele>
        <time>2021-08-02T13:19:39Z</time>
      </trkpt>
      <trkpt lat="41.285514" lon="-8.262533">
        <ele>265.181</ele>
        <time>2021-08-02T13:19:42Z</time>
      </trkpt>
      <trkpt lat="41.285749" lon="-8.261585">
        <ele>270.359</ele>
        <time>2021-08-02T13:19:46Z</time>
      </trkpt>
      <trkpt lat="41.285619" lon="-8.261315">
        <ele>269.803</ele>
        <time>2021-08-02T13:19:50Z</time>
      </trkpt>
      <trkpt lat="41.285023" lon="-8.261028">
        <ele>268.423</ele>
        <time>2021-08-02T13:19:53Z</time>
      </trkpt>
      <trkpt lat="41.284631" lon="-8.260595">
        <ele>268.208</ele>
        <time>2021-08-02T13:19:57Z</time>
      </trkpt>
      <trkpt lat="41.284412" lon="-8.258974">
        <ele>271.092</ele>
        <time>2021-08-02T13:20:01Z</time>
      </trkpt>
      <trkpt lat="41.284135" lon="-8.258464">
        <ele>274.694</ele>
        <time>2021-08-02T13:20:04Z</time>
      </trkpt>
      <trkpt lat="41.284031" lon="-8.257955">
        <ele>272.823</ele>
        <time>2021-08-02T13:20:08Z</time>
      </trkpt>
      <trkpt lat="41.285428" lon="-8.255254">
        <ele>272.978</ele>
        <time>2021-08-02T13:20:12Z</time>
      </trkpt>
      <trkpt lat="41.285977" lon="-8.253434">
        <ele>270.156</ele>
        <time>2021-08-02T13:20:16Z</time>
      </trkpt>
      <trkpt lat="41.285837" lon="-8.250094">
        <ele>255.777</ele>
        <time>2021-08-02T13:20:19Z</time>
      </trkpt>
      <trkpt lat="41.284806" lon="-8.248530">
        <ele>245.259</ele>
        <time>2021-08-02T13:20:23Z</time>
      </trkpt>
      <trkpt lat="41.284905" lon="-8.247027">
        <ele>238.979</ele>
        <time>2021-08-02T13:20:27Z</time>
      </trkpt>
      <trkpt lat="41.285314" lon="-8.245285">
        <ele>233.091</ele>
        <time>2021-08-02T13:20:31Z</time>
      </trkpt>
      <trkpt lat="41.284823" lon="-8.242986">
        <ele>228.981</ele>
        <time>2021-08-02T13:20:35Z</time>
      </trkpt>
      <trkpt lat="41.284733" lon="-8.240380">
        <ele>223.619</ele>
        <time>2021-08-02T13:20:39Z</time>
      </trkpt>
      <trkpt lat="41.285018" lon="-8.237399">
        <ele>214.008</ele>
        <time>2021-08-02T13:20:43Z</time>
      </trkpt>
      <trkpt lat="41.285191" lon="-8.236838">
        <ele>208.086</ele>
        <time>2021-08-02T13:20:47Z</time>
      </trkpt>
      <trkpt lat="41.286080" lon="-8.235291">
        <ele>195.748</ele>
        <time>2021-08-02T13:20:51Z</time>
      </trkpt>
      <trkpt lat="41.286141" lon="-8.234944">
        <ele>189.947</ele>
        <time>2021-08-02T13:20:55Z</time>
      </trkpt>
      <trkpt lat="41.286097" lon="-8.234549">
        <ele>185.352</ele>
        <time>2021-08-02T13:20:59Z</time>
      </trkpt>
      <trkpt lat="41.285771" lon="-8.233851">
        <ele>183.570</ele>
        <time>2021-08-02T13:21:03Z</time>
      </trkpt>
      <trkpt lat="41.284833" lon="-8.233491">
        <ele>191.331</ele>
        <time>2021-08-02T13:21:07Z</time>
      </trkpt>
      <trkpt lat="41.284606" lon="-8.232859">
        <ele>194.863</ele>
        <time>2021-08-02T13:21:12Z</time>
      </trkpt>
      <trkpt lat="41.284777" lon="-8.232052">
        <ele>198.573</ele>
        <time>2021-08-02T13:21:16Z</time>
      </trkpt>
      <trkpt lat="41.285516" lon="-8.230547">
        <ele>206.373</ele>
        <time>2021-08-02T13:21:20Z</time>
      </trkpt>
      <trkpt lat="41.286021" lon="-8.229818">
        <ele>208.985</ele>
        <time>2021-08-02T13:21:24Z</time>
      </trkpt>
      <trkpt lat="41.285973" lon="-8.229521">
        <ele>211.613</ele>
        <time>2021-08-02T13:21:28Z</time>
      </trkpt>
      <trkpt lat="41.285533" lon="-8.229712">
        <ele>214.208</ele>
        <time>2021-08-02T13:21:32Z</time>
      </trkpt>
      <trkpt lat="41.283543" lon="-8.229871">
        <ele>222.844</ele>
        <time>2021-08-02T13:21:37Z</time>
      </trkpt>
      <trkpt lat="41.283271" lon="-8.229746">
        <ele>224.526</ele>
        <time>2021-08-02T13:21:41Z</time>
      </trkpt>
      <trkpt lat="41.282670" lon="-8.228958">
        <ele>225.565</ele>
        <time>2021-08-02T13:21:45Z</time>
      </trkpt>
      <trkpt lat="41.282146" lon="-8.227558">
        <ele>217.330</ele>
        <time>2021-08-02T13:21:49Z</time>
      </trkpt>
      <trkpt lat="41.280456" lon="-8.225535">
        <ele>222.288</ele>
        <time>2021-08-02T13:21:54Z</time>
      </trkpt>
      <trkpt lat="41.279645" lon="-8.223926">
        <ele>225.469</ele>
        <time>2021-08-02T13:21:58Z</time>
      </trkpt>
      <trkpt lat="41.279366" lon="-8.223761">
        <ele>228.141</ele>
        <time>2021-08-02T13:22:02Z</time>
      </trkpt>
      <trkpt lat="41.278255" lon="-8.224021">
        <ele>247.061</ele>
        <time>2021-08-02T13:22:07Z</time>
      </trkpt>
      <trkpt lat="41.277784" lon="-8.224624">
        <ele>253.095</ele>
        <time>2021-08-02T13:22:11Z</time>
      </trkpt>
      <trkpt lat="41.276799" lon="-8.224785">
        <ele>255.249</ele>
        <time>2021-08-02T13:22:15Z</time>
      </trkpt>
      <trkpt lat="41.275971" lon="-8.226209">
        <ele>256.423</ele>
        <time>2021-08-02T13:22:20Z</time>
      </trkpt>
      <trkpt lat="41.274378" lon="-8.227037">
        <ele>254.508</ele>
        <time>2021-08-02T13:22:24Z</time>
      </trkpt>
      <trkpt lat="41.274106" lon="-8.226918">
        <ele>254.646</ele>
        <time>2021-08-02T13:22:29Z</time>
      </trkpt>
      <trkpt lat="41.273484" lon="-8.226279">
        <ele>254.978</ele>
        <time>2021-08-02T13:22:33Z</time>
      </trkpt>
      <trkpt lat="41.272945" lon="-8.224743">
        <ele>253.977</ele>
        <time>2021-08-02T13:22:38Z</time>
      </trkpt>
      <trkpt lat="41.270784" lon="-8.223881">
        <ele>256.252</ele>
        <time>2021-08-02T13:22:42Z</time>
      </trkpt>
      <trkpt lat="41.270444" lon="-8.223959">
        <ele>254.640</ele>
        <time>2021-08-02T13:22:47Z</time>
      </trkpt>
      <trkpt lat="41.270233" lon="-8.223671">
        <ele>255.631</ele>
        <time>2021-08-02T13:22:51Z</time>
      </trkpt>
      <trkpt lat="41.269627" lon="-8.223483">
        <ele>257.253</ele>
        <time>2021-08-02T13:22:56Z</time>
      </trkpt>
      <trkpt lat="41.269086" lon="-8.223547">
        <ele>257.743</ele>
        <time>2021-08-02T13:23:00Z</time>
      </trkpt>
      <trkpt lat="41.265038" lon="-8.225276">
        <ele>241.691</ele>
        <time>2021-08-02T13:23:05Z</time>
      </trkpt>
      <trkpt lat="41.264754" lon="-8.225628">
        <ele>239.681</ele>
        <time>2021-08-02T13:23:10Z</time>
      </trkpt>
      <trkpt lat="41.264590" lon="-8.225634">
        <ele>238.619</ele>
        <time>2021-08-02T13:23:14Z</time>
      </trkpt>
      <trkpt lat="41.264349" lon="-8.224309">
        <ele>240.208</ele>
        <time>2021-08-02T13:23:19Z</time>
      </trkpt>
      <trkpt lat="41.263607" lon="-8.222766">
        <ele>258.316</ele>
        <time>2021-08-02T13:23:24Z</time>
      </trkpt>
      <trkpt lat="41.262691" lon="-8.221841">
        <ele>271.728</ele>
        <time>2021-08-02T13:23:28Z</time>
      </trkpt>
      <trkpt lat="41.261834" lon="-8.220648">
        <ele>286.677</ele>
        <time>2021-08-02T13:23:33Z</time>
      </trkpt>
      <trkpt lat="41.261237" lon="-8.220190">
        <ele>291.562</ele>
        <time>2021-08-02T13:23:38Z</time>
      </trkpt>
      <trkpt lat="41.258827" lon="-8.219186">
        <ele>274.540</ele>
        <time>2021-08-02T13:23:43Z</time>
      </trkpt>
      <trkpt lat="41.258437" lon="-8.219250">
        <ele>276.491</ele>
        <time>2021-08-02T13:23:48Z</time>
      </trkpt>
      <trkpt lat="41.258306" lon="-8.219110">
        <ele>278.883</ele>
        <time>2021-08-02T13:23:52Z</time>
      </trkpt>
      <trkpt lat="41.258483" lon="-8.218531">
        <ele>284.123</ele>
        <time>2021-08-02T13:23:57Z</time>
      </trkpt>
      <trkpt lat="41.258630" lon="-8.215560">
        <ele>291.511</ele>
        <time>2021-08-02T13:24:02Z</time>
      </trkpt>
      <trkpt lat="41.259203" lon="-8.212529">
        <ele>314.221</ele>
        <time>2021-08-02T13:24:07Z</time>
      </trkpt>
      <trkpt lat="41.258932" lon="-8.211762">
        <ele>316.203</ele>
        <time>2021-08-02T13:24:12Z</time>
      </trkpt>
      <trkpt lat="41.258539" lon="-8.211662">
        <ele>313.908</ele>
        <time>2021-08-02T13:24:17Z</time>
      </trkpt>
      <trkpt lat="41.258154" lon="-8.211315">
        <ele>317.818</ele>
        <time>2021-08-02T13:24:22Z</time>
      </trkpt>
      <trkpt lat="41.254668" lon="-8.213682">
        <ele>323.240</ele>
        <time>2021-08-02T13:24:27Z</time>
      </trkpt>
      <trkpt lat="41.253679" lon="-8.214140">
        <ele>325.189</ele>
        <time>2021-08-02T13:24:32Z</time>
      </trkpt>
      <trkpt lat="41.253445" lon="-8.214484">
        <ele>327.764</ele>
        <time>2021-08-02T13:24:37Z</time>
      </trkpt>
      <trkpt lat="41.253495" lon="-8.214908">
        <ele>329.072</ele>
        <time>2021-08-02T13:24:42Z</time>
      </trkpt>
      <trkpt lat="41.253333" lon="-8.214655">
        <ele>329.053</ele>
        <time>2021-08-02T13:24:47Z</time>
      </trkpt>
      <trkpt lat="41.253196" lon="-8.214663">
        <ele>328.955</ele>
        <time>2021-08-02T13:24:52Z</time>
      </trkpt>
      <trkpt lat="41.252902" lon="-8.214888">
        <ele>328.345</ele>
        <time>2021-08-02T13:24:57Z</time>
      </trkpt>
      <trkpt lat="41.252423" lon="-8.215587">
        <ele>327.726</ele>
        <time>2021-08-02T13:25:02Z</time>
      </trkpt>
      <trkpt lat="41.251087" lon="-8.215913">
        <ele>328.147</ele>
        <time>2021-08-02T13:25:07Z</time>
      </trkpt>
      <trkpt lat="41.250483" lon="-8.216273">
        <ele>328.011</ele>
        <time>2021-08-02T13:25:12Z</time>
      </trkpt>
      <trkpt lat="41.250225" lon="-8.216318">
        <ele>328.808</ele>
        <time>2021-08-02T13:25:18Z</time>
      </trkpt>
      <trkpt lat="41.248998" lon="-8.215932">
        <ele>329.449</ele>
        <time>2021-08-02T13:25:23Z</time>
      </trkpt>
      <trkpt lat="41.245562" lon="-8.215859">
        <ele>339.951</ele>
        <time>2021-08-02T13:25:28Z</time>
      </trkpt>
      <trkpt lat="41.245260" lon="-8.215742">
        <ele>342.240</ele>
        <time>2021-08-02T13:25:33Z</time>
      </trkpt>
      <trkpt lat="41.244247" lon="-8.214781">
        <ele>349.265</ele>
        <time>2021-08-02T13:25:38Z</time>
      </trkpt>
      <trkpt lat="41.243691" lon="-8.214465">
        <ele>353.063</ele>
        <time>2021-08-02T13:25:44Z</time>
      </trkpt>
      <trkpt lat="41.242615" lon="-8.214937">
        <ele>359.814</ele>
        <time>2021-08-02T13:25:49Z</time>
      </trkpt>
      <trkpt lat="41.242052" lon="-8.215553">
        <ele>366.046</ele>
        <time>2021-08-02T13:25:54Z</time>
      </trkpt>
      <trkpt lat="41.241742" lon="-8.216128">
        <ele>368.136</ele>
        <time>2021-08-02T13:26:00Z</time>
      </trkpt>
      <trkpt lat="41.241439" lon="-8.216755">
        <ele>372.162</ele>
        <time>2021-08-02T13:26:05Z</time>
      </trkpt>
      <trkpt lat="41.241310" lon="-8.217733">
        <ele>368.583</ele>
        <time>2021-08-02T13:26:10Z</time>
      </trkpt>
      <trkpt lat="41.241033" lon="-8.218145">
        <ele>372.911</ele>
        <time>2021-08-02T13:26:16Z</time>
      </trkpt>
      <trkpt lat="41.240310" lon="-8.218918">
        <ele>377.308</ele>
        <time>2021-08-02T13:26:21Z</time>
      </trkpt>
      <trkpt lat="41.239858" lon="-8.219003">
        <ele>381.363</ele>
        <time>2021-08-02T13:26:26Z</time>
      </trkpt>
      <trkpt lat="41.239221" lon="-8.218901">
        <ele>381.575</ele>
        <time>2021-08-02T13:26:32Z</time>
      </trkpt>
      <trkpt lat="41.238654" lon="-8.219181">
        <ele>385.454</ele>
        <time>2021-08-02T13:26:37Z</time>
      </trkpt>
      <trkpt lat="41.238321" lon="-8.219847">
        <ele>388.999</ele>
        <time>2021-08-02T13:26:42Z</time>
      </trkpt>
      <trkpt lat="41.237804" lon="-8.221727">
        <ele>389.747</ele>
        <time>2021-08-02T13:26:48Z</time>
      </trkpt>
      <trkpt lat="41.234811" lon="-8.225166">
        <ele>388.748</ele>
        <time>2021-08-02T13:26:53Z</time>
      </trkpt>
      <trkpt lat="41.233855" lon="-8.225977">
        <ele>385.510</ele>
        <time>2021-08-02T13:26:59Z</time>
      </trkpt>
      <trkpt lat="41.232237" lon="-8.228714">
        <ele>374.310</ele>
        <time>2021-08-02T13:27:04Z</time>
      </trkpt>
      <trkpt lat="41.232227" lon="-8.229125">
        <ele>371.491</ele>
        <time>2021-08-02T13:27:10Z</time>
      </trkpt>
      <trkpt lat="41.231965" lon="-8.229161">
        <ele>371.081</ele>
        <time>2021-08-02T13:27:16Z</time>
      </trkpt>
      <trkpt lat="41.231861" lon="-8.228933">
        <ele>372.219</ele>
        <time>2021-08-02T13:27:21Z</time>
      </trkpt>
      <trkpt lat="41.231993" lon="-8.228646">
        <ele>374.008</ele>
        <time>2021-08-02T13:27:27Z</time>
      </trkpt>
      <trkpt lat="41.231507" lon="-8.225798">
        <ele>374.066</ele>
        <time>2021-08-02T13:27:32Z</time>
      </trkpt>
      <trkpt lat="41.231759" lon="-8.225429">
        <ele>372.698</ele>
        <time>2021-08-02T13:27:38Z</time>
      </trkpt>
      <trkpt lat="41.232404" lon="-8.224940">
        <ele>374.047</ele>
        <time>2021-08-02T13:27:44Z</time>
      </trkpt>
      <trkpt lat="41.233005" lon="-8.223584">
        <ele>362.972</ele>
        <time>2021-08-02T13:27:49Z</time>
      </trkpt>
      <trkpt lat="41.232927" lon="-8.221550">
        <ele>357.180</ele>
        <time>2021-08-02T13:27:55Z</time>
      </trkpt>
      <trkpt lat="41.233792" lon="-8.220022">
        <ele>352.781</ele>
        <time>2021-08-02T13:28:01Z</time>
      </trkpt>
      <trkpt lat="41.233766" lon="-8.219292">
        <ele>343.073</ele>
        <time>2021-08-02T13:28:07Z</time>
      </trkpt>
      <trkpt lat="41.233185" lon="-8.218245">
        <ele>335.653</ele>
        <time>2021-08-02T13:28:12Z</time>
      </trkpt>
      <trkpt lat="41.233179" lon="-8.217704">
        <ele>334.858</ele>
        <time>2021-08-02T13:28:18Z</time>
      </trkpt>
      <trkpt lat="41.233521" lon="-8.217052">
        <ele>335.552</ele>
        <time>2021-08-02T13:28:24Z</time>
      </trkpt>
      <trkpt lat="41.234960" lon="-8.215421">
        <ele>312.917</ele>
        <time>2021-08-02T13:28:30Z</time>
      </trkpt>
      <trkpt lat="41.235173" lon="-8.214975">
        <ele>308.208</ele>
        <time>2021-08-02T13:28:36Z</time>
      </trkpt>
      <trkpt lat="41.235161" lon="-8.214529">
        <ele>304.682</ele>
        <time>2021-08-02T13:28:41Z</time>
      </trkpt>
      <trkpt lat="41.234776" lon="-8.213388">
        <ele>299.894</ele>
        <time>2021-08-02T13:28:47Z</time>
      </trkpt>
      <trkpt lat="41.234812" lon="-8.212941">
        <ele>297.733</ele>
        <time>2021-08-02T13:28:53Z</time>
      </trkpt>
      <trkpt lat="41.235077" lon="-8.212280">
        <ele>296.128</ele>
        <time>2021-08-02T13:28:59Z</time>
      </trkpt>
      <trkpt lat="41.235031" lon="-8.211971">
        <ele>294.926</ele>
        <time>2021-08-02T13:29:05Z</time>
      </trkpt>
      <trkpt lat="41.234603" lon="-8.211006">
        <ele>285.277</ele>
        <time>2021-08-02T13:29:11Z</time>
      </trkpt>
      <trkpt lat="41.231692" lon="-8.208808">
        <ele>272.889</ele>
        <time>2021-08-02T13:29:17Z</time>
      </trkpt>
      <trkpt lat="41.231075" lon="-8.207439">
        <ele>267.539</ele>
        <time>2021-08-02T13:29:23Z</time>
      </trkpt>
      <trkpt lat="41.230810" lon="-8.207130">
        <ele>265.111</ele>
        <time>2021-08-02T13:29:29Z</time>
      </trkpt>
      <trkpt lat="41.228435" lon="-8.205353">
        <ele>260.421</ele>
        <time>2021-08-02T13:29:35Z</time>
      </trkpt>
      <trkpt lat="41.227918" lon="-8.203740">
        <ele>259.503</ele>
        <time>2021-08-02T13:29:41Z</time>
      </trkpt>
      <trkpt lat="41.227886" lon="-8.201568">
        <ele>262.008</ele>
        <time>2021-08-02T13:29:47Z</time>
      </trkpt>
      <trkpt lat="41.227570" lon="-8.199577">
        <ele>259.748</ele>
        <time>2021-08-02T13:29:53Z</time>
      </trkpt>
      <trkpt lat="41.227376" lon="-8.199088">
        <ele>257.320</ele>
        <time>2021-08-02T13:29:59Z</time>
      </trkpt>
      <trkpt lat="41.225104" lon="-8.194942">
        <ele>251.819</ele>
        <time>2021-08-02T13:30:05Z</time>
      </trkpt>
      <trkpt lat="41.223819" lon="-8.193982">
        <ele>252.314</ele>
        <time>2021-08-02T13:30:11Z</time>
      </trkpt>
      <trkpt lat="41.223348" lon="-8.193225">
        <ele>253.012</ele>
        <time>2021-08-02T13:30:18Z</time>
      </trkpt>
      <trkpt lat="41.222340" lon="-8.192856">
        <ele>250.153</ele>
        <time>2021-08-02T13:30:24Z</time>
      </trkpt>
      <trkpt lat="41.222076" lon="-8.192487">
        <ele>243.085</ele>
        <time>2021-08-02T13:30:30Z</time>
      </trkpt>
      <trkpt lat="41.221553" lon="-8.190530">
        <ele>232.235</ele>
        <time>2021-08-02T13:30:37Z</time>
      </trkpt>
      <trkpt lat="41.221553" lon="-8.188282">
        <ele>228.996</ele>
        <time>2021-08-02T13:30:43Z</time>
      </trkpt>
      <trkpt lat="41.221295" lon="-8.187578">
        <ele>230.031</ele>
        <time>2021-08-02T13:30:49Z</time>
      </trkpt>
      <trkpt lat="41.220901" lon="-8.187071">
        <ele>229.924</ele>
        <time>2021-08-02T13:30:56Z</time>
      </trkpt>
      <trkpt lat="41.220430" lon="-8.186805">
        <ele>228.908</ele>
        <time>2021-08-02T13:31:02Z</time>
      </trkpt>
      <trkpt lat="41.219784" lon="-8.186848">
        <ele>224.186</ele>
        <time>2021-08-02T13:31:08Z</time>
      </trkpt>
      <trkpt lat="41.217550" lon="-8.187792">
        <ele>209.718</ele>
        <time>2021-08-02T13:31:15Z</time>
      </trkpt>
      <trkpt lat="41.216678" lon="-8.187363">
        <ele>208.377</ele>
        <time>2021-08-02T13:31:21Z</time>
      </trkpt>
      <trkpt lat="41.216516" lon="-8.186561">
        <ele>205.842</ele>
        <time>2021-08-02T13:31:28Z</time>
      </trkpt>
      <trkpt lat="41.216202" lon="-8.186218">
        <ele>202.230</ele>
        <time>2021-08-02T13:31:34Z</time>
      </trkpt>
      <trkpt lat="41.215936" lon="-8.186153">
        <ele>200.151</ele>
        <time>2021-08-02T13:31:41Z</time>
      </trkpt>
      <trkpt lat="41.215099" lon="-8.186519">
        <ele>194.463</ele>
        <time>2021-08-02T13:31:47Z</time>
      </trkpt>
      <trkpt lat="41.214805" lon="-8.186405">
        <ele>192.933</ele>
        <time>2021-08-02T13:31:54Z</time>
      </trkpt>
      <trkpt lat="41.213605" lon="-8.185030">
        <ele>187.681</ele>
        <time>2021-08-02T13:32:00Z</time>
      </trkpt>
      <trkpt lat="41.213491" lon="-8.184193">
        <ele>187.661</ele>
        <time>2021-08-02T13:32:07Z</time>
      </trkpt>
      <trkpt lat="41.213232" lon="-8.183868">
        <ele>188.417</ele>
        <time>2021-08-02T13:32:13Z</time>
      </trkpt>
      <trkpt lat="41.212993" lon="-8.183879">
        <ele>189.208</ele>
        <time>2021-08-02T13:32:20Z</time>
      </trkpt>
      <trkpt lat="41.212391" lon="-8.184556">
        <ele>186.015</ele>
        <time>2021-08-02T13:32:26Z</time>
      </trkpt>
      <trkpt lat="41.211409" lon="-8.184728">
        <ele>179.957</ele>
        <time>2021-08-02T13:32:33Z</time>
      </trkpt>
      <trkpt lat="41.210867" lon="-8.184582">
        <ele>176.256</ele>
        <time>2021-08-02T13:32:39Z</time>
      </trkpt>
      <trkpt lat="41.210383" lon="-8.183982">
        <ele>176.491</ele>
        <time>2021-08-02T13:32:46Z</time>
      </trkpt>
      <trkpt lat="41.210267" lon="-8.183578">
        <ele>177.129</ele>
        <time>2021-08-02T13:32:53Z</time>
      </trkpt>
      <trkpt lat="41.210467" lon="-8.182720">
        <ele>179.110</ele>
        <time>2021-08-02T13:32:59Z</time>
      </trkpt>
      <trkpt lat="41.210157" lon="-8.181887">
        <ele>169.812</ele>
        <time>2021-08-02T13:33:06Z</time>
      </trkpt>
      <trkpt lat="41.210338" lon="-8.180677">
        <ele>165.742</ele>
        <time>2021-08-02T13:33:12Z</time>
      </trkpt>
      <trkpt lat="41.210945" lon="-8.179398">
        <ele>161.475</ele>
        <time>2021-08-02T13:33:19Z</time>
      </trkpt>
      <trkpt lat="41.211875" lon="-8.178591">
        <ele>155.928</ele>
        <time>2021-08-02T13:33:26Z</time>
      </trkpt>
      <trkpt lat="41.211875" lon="-8.178205">
        <ele>154.720</ele>
        <time>2021-08-02T13:33:32Z</time>
      </trkpt>
      <trkpt lat="41.211713" lon="-8.178068">
        <ele>155.108</ele>
        <time>2021-08-02T13:33:39Z</time>
      </trkpt>
      <trkpt lat="41.210583" lon="-8.178282">
        <ele>149.024</ele>
        <time>2021-08-02T13:33:46Z</time>
      </trkpt>
      <trkpt lat="41.210403" lon="-8.178222">
        <ele>148.396</ele>
        <time>2021-08-02T13:33:53Z</time>
      </trkpt>
      <trkpt lat="41.209679" lon="-8.177476">
        <ele>145.395</ele>
        <time>2021-08-02T13:33:59Z</time>
      </trkpt>
      <trkpt lat="41.209279" lon="-8.177287">
        <ele>145.020</ele>
        <time>2021-08-02T13:34:06Z</time>
      </trkpt>
      <trkpt lat="41.207148" lon="-8.174858">
        <ele>143.648</ele>
        <time>2021-08-02T13:34:13Z</time>
      </trkpt>
      <trkpt lat="41.207045" lon="-8.174411">
        <ele>144.269</ele>
        <time>2021-08-02T13:34:20Z</time>
      </trkpt>
      <trkpt lat="41.207103" lon="-8.173845">
        <ele>142.261</ele>
        <time>2021-08-02T13:34:27Z</time>
      </trkpt>
      <trkpt lat="41.207498" lon="-8.172580">
        <ele>134.971</ele>
        <time>2021-08-02T13:34:33Z</time>
      </trkpt>
      <trkpt lat="41.208055" lon="-8.171829">
        <ele>134.193</ele>
        <time>2021-08-02T13:34:40Z</time>
      </trkpt>
      <trkpt lat="41.208043" lon="-8.171432">
        <ele>133.865</ele>
        <time>2021-08-02T13:34:47Z</time>
      </trkpt>
      <trkpt lat="41.207109" lon="-8.170025">
        <ele>128.621</ele>
        <time>2021-08-02T13:34:54Z</time>
      </trkpt>
      <trkpt lat="41.206171" lon="-8.169180">
        <ele>127.208</ele>
        <time>2021-08-02T13:35:01Z</time>
      </trkpt>
      <trkpt lat="41.205637" lon="-8.166930">
        <ele>122.496</ele>
        <time>2021-08-02T13:35:08Z</time>
      </trkpt>
      <trkpt lat="41.205420" lon="-8.166754">
        <ele>121.728</ele>
        <time>2021-08-02T13:35:15Z</time>
      </trkpt>
      <trkpt lat="41.204526" lon="-8.167279">
        <ele>119.167</ele>
        <time>2021-08-02T13:35:22Z</time>
      </trkpt>
      <trkpt lat="41.204215" lon="-8.167167">
        <ele>118.812</ele>
        <time>2021-08-02T13:35:29Z</time>
      </trkpt>
      <trkpt lat="41.203054" lon="-8.164824">
        <ele>111.330</ele>
        <time>2021-08-02T13:35:36Z</time>
      </trkpt>
      <trkpt lat="41.203183" lon="-8.163837">
        <ele>109.611</ele>
        <time>2021-08-02T13:35:43Z</time>
      </trkpt>
      <trkpt lat="41.202932" lon="-8.163652">
        <ele>108.223</ele>
        <time>2021-08-02T13:35:50Z</time>
      </trkpt>
      <trkpt lat="41.202260" lon="-8.163751">
        <ele>101.943</ele>
        <time>2021-08-02T13:35:57Z</time>
      </trkpt>
      <trkpt lat="41.201633" lon="-8.163030">
        <ele>101.612</ele>
        <time>2021-08-02T13:36:04Z</time>
      </trkpt>
      <trkpt lat="41.200127" lon="-8.162508">
        <ele>94.832</ele>
        <time>2021-08-02T13:36:11Z</time>
      </trkpt>
      <trkpt lat="41.199935" lon="-8.162291">
        <ele>94.405</ele>
        <time>2021-08-02T13:36:18Z</time>
      </trkpt>
      <trkpt lat="41.199755" lon="-8.161675">
        <ele>93.208</ele>
        <time>2021-08-02T13:36:25Z</time>
      </trkpt>
      <trkpt lat="41.199456" lon="-8.161390">
        <ele>91.118</ele>
        <time>2021-08-02T13:36:32Z</time>
      </trkpt>
      <trkpt lat="41.198082" lon="-8.161511">
        <ele>82.390</ele>
        <time>2021-08-02T13:36:39Z</time>
      </trkpt>
      <trkpt lat="41.197332" lon="-8.161844">
        <ele>76.639</ele>
        <time>2021-08-02T13:36:47Z</time>
      </trkpt>
      <trkpt lat="41.196668" lon="-8.161684">
        <ele>72.894</ele>
        <time>2021-08-02T13:36:54Z</time>
      </trkpt>
      <trkpt lat="41.196105" lon="-8.161225">
        <ele>71.492</ele>
        <time>2021-08-02T13:37:01Z</time>
      </trkpt>
      <trkpt lat="41.195787" lon="-8.160705">
        <ele>69.323</ele>
        <time>2021-08-02T13:37:08Z</time>
      </trkpt>
      <trkpt lat="41.194526" lon="-8.157384">
        <ele>72.975</ele>
        <time>2021-08-02T13:37:15Z</time>
      </trkpt>
      <trkpt lat="41.193962" lon="-8.154930">
        <ele>92.545</ele>
        <time>2021-08-02T13:37:23Z</time>
      </trkpt>
      <trkpt lat="41.193707" lon="-8.154629">
        <ele>98.154</ele>
        <time>2021-08-02T13:37:30Z</time>
      </trkpt>
      <trkpt lat="41.192855" lon="-8.154319">
        <ele>108.956</ele>
        <time>2021-08-02T13:37:37Z</time>
      </trkpt>
      <trkpt lat="41.191920" lon="-8.153258">
        <ele>121.311</ele>
        <time>2021-08-02T13:37:45Z</time>
      </trkpt>
      <trkpt lat="41.191535" lon="-8.153035">
        <ele>127.308</ele>
        <time>2021-08-02T13:37:52Z</time>
      </trkpt>
      <trkpt lat="41.190086" lon="-8.152804">
        <ele>138.152</ele>
        <time>2021-08-02T13:37:59Z</time>
      </trkpt>
      <trkpt lat="41.189504" lon="-8.153004">
        <ele>144.884</ele>
        <time>2021-08-02T13:38:07Z</time>
      </trkpt>
      <trkpt lat="41.188734" lon="-8.154272">
        <ele>160.523</ele>
        <time>2021-08-02T13:38:14Z</time>
      </trkpt>
      <trkpt lat="41.188095" lon="-8.154902">
        <ele>170.218</ele>
        <time>2021-08-02T13:38:21Z</time>
      </trkpt>
      <trkpt lat="41.186986" lon="-8.155487">
        <ele>162.326</ele>
        <time>2021-08-02T13:38:29Z</time>
      </trkpt>
      <trkpt lat="41.186647" lon="-8.155948">
        <ele>164.927</ele>
        <time>2021-08-02T13:38:36Z</time>
      </trkpt>
      <trkpt lat="41.185873" lon="-8.156515">
        <ele>178.729</ele>
        <time>2021-08-02T13:38:44Z</time>
      </trkpt>
      <trkpt lat="41.182693" lon="-8.156897">
        <ele>203.849</ele>
        <time>2021-08-02T13:38:51Z</time>
      </trkpt>
      <trkpt lat="41.182039" lon="-8.157247">
        <ele>207.432</ele>
        <time>2021-08-02T13:38:59Z</time>
      </trkpt>
      <trkpt lat="41.181887" lon="-8.157056">
        <ele>211.192</ele>
        <time>2021-08-02T13:39:06Z</time>
      </trkpt>
      <trkpt lat="41.180297" lon="-8.156621">
        <ele>222.211</ele>
        <time>2021-08-02T13:39:14Z</time>
      </trkpt>
      <trkpt lat="41.179688" lon="-8.155937">
        <ele>228.708</ele>
        <time>2021-08-02T13:39:21Z</time>
      </trkpt>
      <trkpt lat="41.178086" lon="-8.155035">
        <ele>238.110</ele>
        <time>2021-08-02T13:39:29Z</time>
      </trkpt>
      <trkpt lat="41.178240" lon="-8.154673">
        <ele>238.832</ele>
        <time>2021-08-02T13:39:37Z</time>
      </trkpt>
      <trkpt lat="41.179291" lon="-8.153581">
        <ele>238.351</ele>
        <time>2021-08-02T13:39:44Z</time>
      </trkpt>
      <trkpt lat="41.179252" lon="-8.153249">
        <ele>239.816</ele>
        <time>2021-08-02T13:39:52Z</time>
      </trkpt>
      <trkpt lat="41.178812" lon="-8.152493">
        <ele>243.744</ele>
        <time>2021-08-02T13:40:00Z</time>
      </trkpt>
      <trkpt lat="41.178848" lon="-8.150517">
        <ele>251.825</ele>
        <time>2021-08-02T13:40:07Z</time>
      </trkpt>
      <trkpt lat="41.178662" lon="-8.150174">
        <ele>254.437</ele>
        <time>2021-08-02T13:40:15Z</time>
      </trkpt>
      <trkpt lat="41.178390" lon="-8.150217">
        <ele>256.387</ele>
        <time>2021-08-02T13:40:23Z</time>
      </trkpt>
      <trkpt lat="41.175949" lon="-8.151773">
        <ele>270.497</ele>
        <time>2021-08-02T13:40:31Z</time>
      </trkpt>
      <trkpt lat="41.169678" lon="-8.151005">
        <ele>281.323</ele>
        <time>2021-08-02T13:40:38Z</time>
      </trkpt>
      <trkpt lat="41.169443" lon="-8.150867">
        <ele>282.625</ele>
        <time>2021-08-02T13:40:46Z</time>
      </trkpt>
      <trkpt lat="41.169547" lon="-8.150857">
        <ele>283.008</ele>
        <time>2021-08-02T13:40:54Z</time>
      </trkpt>
      <trkpt lat="41.168090" lon="-8.148220">
        <ele>289.246</ele>
        <time>2021-08-02T13:41:02Z</time>
      </trkpt>
      <trkpt lat="41.167442" lon="-8.147576">
        <ele>291.758</ele>
        <time>2021-08-02T13:41:10Z</time>
      </trkpt>
      <trkpt lat="41.167122" lon="-8.146168">
        <ele>293.487</ele>
        <time>2021-08-02T13:41:18Z</time>
      </trkpt>
      <trkpt lat="41.165923" lon="-8.144674">
        <ele>298.952</ele>
        <time>2021-08-02T13:41:26Z</time>
      </trkpt>
      <trkpt lat="41.165580" lon="-8.144601">
        <ele>298.270</ele>
        <time>2021-08-02T13:41:34Z</time>
      </trkpt>
      <trkpt lat="41.164635" lon="-8.145374">
        <ele>301.971</ele>
        <time>2021-08-02T13:41:42Z</time>
      </trkpt>
      <trkpt lat="41.163567" lon="-8.145438">
        <ele>299.533</ele>
        <time>2021-08-02T13:41:50Z</time>
      </trkpt>
      <trkpt lat="41.162867" lon="-8.145863">
        <ele>302.663</ele>
        <time>2021-08-02T13:41:58Z</time>
      </trkpt>
      <trkpt lat="41.162485" lon="-8.145541">
        <ele>299.217</ele>
        <time>2021-08-02T13:42:06Z</time>
      </trkpt>
      <trkpt lat="41.161057" lon="-8.145534">
        <ele>302.587</ele>
        <time>2021-08-02T13:42:14Z</time>
      </trkpt>
      <trkpt lat="41.155253" lon="-8.143300">
        <ele>294.515</ele>
        <time>2021-08-02T13:42:23Z</time>
      </trkpt>
      <trkpt lat="41.155069" lon="-8.143090">
        <ele>295.108</ele>
        <time>2021-08-02T13:42:31Z</time>
      </trkpt>
      <trkpt lat="41.155076" lon="-8.142727">
        <ele>296.058</ele>
        <time>2021-08-02T13:42:39Z</time>
      </trkpt>
      <trkpt lat="41.155742" lon="-8.141569">
        <ele>295.230</ele>
        <time>2021-08-02T13:42:47Z</time>
      </trkpt>
      <trkpt lat="41.156999" lon="-8.140340">
        <ele>285.339</ele>
        <time>2021-08-02T13:42:56Z</time>
      </trkpt>
      <trkpt lat="41.157157" lon="-8.139947">
        <ele>279.954</ele>
        <time>2021-08-02T13:43:04Z</time>
      </trkpt>
      <trkpt lat="41.157200" lon="-8.139425">
        <ele>284.372</ele>
        <time>2021-08-02T13:43:12Z</time>
      </trkpt>
      <trkpt lat="41.156768" lon="-8.138445">
        <ele>297.913</ele>
        <time>2021-08-02T13:43:20Z</time>
      </trkpt>
      <trkpt lat="41.156769" lon="-8.137815">
        <ele>293.185</ele>
        <time>2021-08-02T13:43:29Z</time>
      </trkpt>
      <trkpt lat="41.155911" lon="-8.136493">
        <ele>293.355</ele>
        <time>2021-08-02T13:43:37Z</time>
      </trkpt>
      <trkpt lat="41.154886" lon="-8.135496">
        <ele>302.025</ele>
        <time>2021-08-02T13:43:45Z</time>
      </trkpt>
      <trkpt lat="41.153755" lon="-8.135150">
        <ele>307.026</ele>
        <time>2021-08-02T13:43:54Z</time>
      </trkpt>
      <trkpt lat="41.153778" lon="-8.134009">
        <ele>300.208</ele>
        <time>2021-08-02T13:44:02Z</time>
      </trkpt>
      <trkpt lat="41.153409" lon="-8.133628">
        <ele>296.208</ele>
        <time>2021-08-02T13:44:11Z</time>
      </trkpt>
      <trkpt lat="41.152094" lon="-8.133455">
        <ele>309.419</ele>
        <time>2021-08-02T13:44:19Z</time>
      </trkpt>
      <trkpt lat="41.151459" lon="-8.133054">
        <ele>304.961</ele>
        <time>2021-08-02T13:44:27Z</time>
      </trkpt>
      <trkpt lat="41.150915" lon="-8.133078">
        <ele>307.860</ele>
        <time>2021-08-02T13:44:36Z</time>
      </trkpt>
      <trkpt lat="41.150274" lon="-8.132363">
        <ele>302.335</ele>
        <time>2021-08-02T13:44:44Z</time>
      </trkpt>
      <trkpt lat="41.149224" lon="-8.132639">
        <ele>307.183</ele>
        <time>2021-08-02T13:44:53Z</time>
      </trkpt>
      <trkpt lat="41.148903" lon="-8.132286">
        <ele>299.014</ele>
        <time>2021-08-02T13:45:01Z</time>
      </trkpt>
      <trkpt lat="41.148157" lon="-8.132023">
        <ele>291.766</ele>
        <time>2021-08-02T13:45:10Z</time>
      </trkpt>
      <trkpt lat="41.146535" lon="-8.132632">
        <ele>290.276</ele>
        <time>2021-08-02T13:45:18Z</time>
      </trkpt>
      <trkpt lat="41.146275" lon="-8.132603">
        <ele>287.156</ele>
        <time>2021-08-02T13:45:27Z</time>
      </trkpt>
      <trkpt lat="41.146132" lon="-8.132316">
        <ele>284.859</ele>
        <time>2021-08-02T13:45:36Z</time>
      </trkpt>
      <trkpt lat="41.146479" lon="-8.131105">
        <ele>286.514</ele>
        <time>2021-08-02T13:45:44Z</time>
      </trkpt>
      <trkpt lat="41.146439" lon="-8.130772">
        <ele>288.208</ele>
        <time>2021-08-02T13:45:53Z</time>
      </trkpt>
      <trkpt lat="41.144792" lon="-8.129662">
        <ele>298.622</ele>
        <time>2021-08-02T13:46:01Z</time>
      </trkpt>
      <trkpt lat="41.144333" lon="-8.128897">
        <ele>295.934</ele>
        <time>2021-08-02T13:46:10Z</time>
      </trkpt>
      <trkpt lat="41.144114" lon="-8.128765">
        <ele>298.583</ele>
        <time>2021-08-02T13:46:19Z</time>
      </trkpt>
      <trkpt lat="41.143422" lon="-8.128724">
        <ele>306.348</ele>
        <time>2021-08-02T13:46:27Z</time>
      </trkpt>
      <trkpt lat="41.143161" lon="-8.127831">
        <ele>300.076</ele>
        <time>2021-08-02T13:46:36Z</time>
      </trkpt>
      <trkpt lat="41.142998" lon="-8.127679">
        <ele>301.477</ele>
        <time>2021-08-02T13:46:45Z</time>
      </trkpt>
      <trkpt lat="41.142135" lon="-8.127638">
        <ele>318.399</ele>
        <time>2021-08-02T13:46:53Z</time>
      </trkpt>
      <trkpt lat="41.140884" lon="-8.126989">
        <ele>318.089</ele>
        <time>2021-08-02T13:47:02Z</time>
      </trkpt>
      <trkpt lat="41.139933" lon="-8.127368">
        <ele>334.735</ele>
        <time>2021-08-02T13:47:11Z</time>
      </trkpt>
      <trkpt lat="41.139352" lon="-8.127413">
        <ele>331.386</ele>
        <time>2021-08-02T13:47:20Z</time>
      </trkpt>
      <trkpt lat="41.138882" lon="-8.127155">
        <ele>327.114</ele>
        <time>2021-08-02T13:47:28Z</time>
      </trkpt>
      <trkpt lat="41.138465" lon="-8.127182">
        <ele>329.008</ele>
        <time>2021-08-02T13:47:37Z</time>
      </trkpt>
      <trkpt lat="41.138186" lon="-8.127501">
        <ele>332.970</ele>
        <time>2021-08-02T13:47:46Z</time>
      </trkpt>
      <trkpt lat="41.137713" lon="-8.128721">
        <ele>340.462</ele>
        <time>2021-08-02T13:47:55Z</time>
      </trkpt>
      <trkpt lat="41.136974" lon="-8.129667">
        <ele>337.981</ele>
        <time>2021-08-02T13:48:03Z</time>
      </trkpt>
      <trkpt lat="41.136874" lon="-8.130296">
        <ele>341.976</ele>
        <time>2021-08-02T13:48:12Z</time>
      </trkpt>
      <trkpt lat="41.135292" lon="-8.132766">
        <ele>352.654</ele>
        <time>2021-08-02T13:48:21Z</time>
      </trkpt>
      <trkpt lat="41.135001" lon="-8.132657">
        <ele>352.115</ele>
        <time>2021-08-02T13:48:30Z</time>
      </trkpt>
      <trkpt lat="41.134589" lon="-8.131929">
        <ele>349.337</ele>
        <time>2021-08-02T13:48:39Z</time>
      </trkpt>
      <trkpt lat="41.134405" lon="-8.131216">
        <ele>344.057</ele>
        <time>2021-08-02T13:48:48Z</time>
      </trkpt>
      <trkpt lat="41.133823" lon="-8.131198">
        <ele>352.011</ele>
        <time>2021-08-02T13:48:57Z</time>
      </trkpt>
      <trkpt lat="41.133669" lon="-8.131046">
        <ele>352.321</ele>
        <time>2021-08-02T13:49:05Z</time>
      </trkpt>
      <trkpt lat="41.133664" lon="-8.130689">
        <ele>349.703</ele>
        <time>2021-08-02T13:49:14Z</time>
      </trkpt>
      <trkpt lat="41.134117" lon="-8.130324">
        <ele>340.708</ele>
        <time>2021-08-02T13:49:23Z</time>
      </trkpt>
      <trkpt lat="41.134159" lon="-8.130002">
        <ele>340.138</ele>
        <time>2021-08-02T13:49:32Z</time>
      </trkpt>
      <trkpt lat="41.133950" lon="-8.129314">
        <ele>344.230</ele>
        <time>2021-08-02T13:49:41Z</time>
      </trkpt>
      <trkpt lat="41.133136" lon="-8.128792">
        <ele>354.019</ele>
        <time>2021-08-02T13:49:50Z</time>
      </trkpt>
      <trkpt lat="41.133062" lon="-8.128517">
        <ele>353.084</ele>
        <time>2021-08-02T13:49:59Z</time>
      </trkpt>
      <trkpt lat="41.133179" lon="-8.128076">
        <ele>343.482</ele>
        <time>2021-08-02T13:50:08Z</time>
      </trkpt>
      <trkpt lat="41.133123" lon="-8.127638">
        <ele>346.513</ele>
        <time>2021-08-02T13:50:17Z</time>
      </trkpt>
      <trkpt lat="41.133378" lon="-8.127233">
        <ele>337.915</ele>
        <time>2021-08-02T13:50:26Z</time>
      </trkpt>
      <trkpt lat="41.133613" lon="-8.126293">
        <ele>336.135</ele>
        <time>2021-08-02T13:50:35Z</time>
      </trkpt>
      <trkpt lat="41.133838" lon="-8.123729">
        <ele>339.043</ele>
        <time>2021-08-02T13:50:44Z</time>
      </trkpt>
      <trkpt lat="41.133608" lon="-8.123323">
        <ele>336.464</ele>
        <time>2021-08-02T13:50:53Z</time>
      </trkpt>
      <trkpt lat="41.132124" lon="-8.122979">
        <ele>329.310</ele>
        <time>2021-08-02T13:51:02Z</time>
      </trkpt>
      <trkpt lat="41.131735" lon="-8.121909">
        <ele>315.208</ele>
        <time>2021-08-02T13:51:11Z</time>
      </trkpt>
      <trkpt lat="41.131505" lon="-8.121703">
        <ele>312.771</ele>
        <time>2021-08-02T13:51:20Z</time>
      </trkpt>
      <trkpt lat="41.131267" lon="-8.121877">
        <ele>313.693</ele>
        <time>2021-08-02T13:51:29Z</time>
      </trkpt>
      <trkpt lat="41.131082" lon="-8.122534">
        <ele>318.482</ele>
        <time>2021-08-02T13:51:38Z</time>
      </trkpt>
      <trkpt lat="41.130754" lon="-8.122477">
        <ele>314.757</ele>
        <time>2021-08-02T13:51:48Z</time>
      </trkpt>
      <trkpt lat="41.130647" lon="-8.120879">
        <ele>302.785</ele>
        <time>2021-08-02T13:51:57Z</time>
      </trkpt>
      <trkpt lat="41.130321" lon="-8.119762">
        <ele>299.346</ele>
        <time>2021-08-02T13:52:06Z</time>
      </trkpt>
      <trkpt lat="41.130733" lon="-8.119210">
        <ele>290.528</ele>
        <time>2021-08-02T13:52:15Z</time>
      </trkpt>
      <trkpt lat="41.130832" lon="-8.118153">
        <ele>291.678</ele>
        <time>2021-08-02T13:52:24Z</time>
      </trkpt>
      <trkpt lat="41.131179" lon="-8.117399">
        <ele>287.012</ele>
        <time>2021-08-02T13:52:33Z</time>
      </trkpt>
      <trkpt lat="41.131000" lon="-8.116676">
        <ele>284.032</ele>
        <time>2021-08-02T13:52:43Z</time>
      </trkpt>
      <trkpt lat="41.131068" lon="-8.116312">
        <ele>281.505</ele>
        <time>2021-08-02T13:52:52Z</time>
      </trkpt>
      <trkpt lat="41.132588" lon="-8.114470">
        <ele>283.308</ele>
        <time>2021-08-02T13:53:01Z</time>
      </trkpt>
      <trkpt lat="41.132765" lon="-8.114372">
        <ele>283.738</ele>
        <time>2021-08-02T13:53:10Z</time>
      </trkpt>
      <trkpt lat="41.133054" lon="-8.114478">
        <ele>284.330</ele>
        <time>2021-08-02T13:53:20Z</time>
      </trkpt>
      <trkpt lat="41.133277" lon="-8.114409">
        <ele>283.449</ele>
        <time>2021-08-02T13:53:29Z</time>
      </trkpt>
      <trkpt lat="41.133852" lon="-8.113823">
        <ele>282.674</ele>
        <time>2021-08-02T13:53:38Z</time>
      </trkpt>
      <trkpt lat="41.134181" lon="-8.113117">
        <ele>284.772</ele>
        <time>2021-08-02T13:53:47Z</time>
      </trkpt>
      <trkpt lat="41.134656" lon="-8.113042">
        <ele>287.633</ele>
        <time>2021-08-02T13:53:57Z</time>
      </trkpt>
      <trkpt lat="41.134894" lon="-8.112873">
        <ele>289.195</ele>
        <time>2021-08-02T13:54:06Z</time>
      </trkpt>
      <trkpt lat="41.135359" lon="-8.112322">
        <ele>290.565</ele>
        <time>2021-08-02T13:54:15Z</time>
      </trkpt>
      <trkpt lat="41.135420" lon="-8.111938">
        <ele>291.968</ele>
        <time>2021-08-02T13:54:25Z</time>
      </trkpt>
      <trkpt lat="41.134575" lon="-8.110807">
        <ele>288.042</ele>
        <time>2021-08-02T13:54:34Z</time>
      </trkpt>
      <trkpt lat="41.133193" lon="-8.109993">
        <ele>283.026</ele>
        <time>2021-08-02T13:54:43Z</time>
      </trkpt>
      <trkpt lat="41.132835" lon="-8.109531">
        <ele>285.408</ele>
        <time>2021-08-02T13:54:53Z</time>
      </trkpt>
      <trkpt lat="41.132085" lon="-8.109088">
        <ele>285.333</ele>
        <time>2021-08-02T13:55:02Z</time>
      </trkpt>
      <trkpt lat="41.132059" lon="-8.108332">
        <ele>288.535</ele>
        <time>2021-08-02T13:55:11Z</time>
      </trkpt>
      <trkpt lat="41.131894" lon="-8.108064">
        <ele>288.824</ele>
        <time>2021-08-02T13:55:21Z</time>
      </trkpt>
      <trkpt lat="41.131574" lon="-8.108153">
        <ele>287.449</ele>
        <time>2021-08-02T13:55:30Z</time>
      </trkpt>
      <trkpt lat="41.131052" lon="-8.108920">
        <ele>279.547</ele>
        <time>2021-08-02T13:55:40Z</time>
      </trkpt>
      <trkpt lat="41.130681" lon="-8.109182">
        <ele>278.458</ele>
        <time>2021-08-02T13:55:49Z</time>
      </trkpt>
      <trkpt lat="41.130408" lon="-8.109155">
        <ele>282.360</ele>
        <time>2021-08-02T13:55:59Z</time>
      </trkpt>
      <trkpt lat="41.130225" lon="-8.108973">
        <ele>286.530</ele>
        <time>2021-08-02T13:56:08Z</time>
      </trkpt>
      <trkpt lat="41.129928" lon="-8.107586">
        <ele>295.618</ele>
        <time>2021-08-02T13:56:17Z</time>
      </trkpt>
      <trkpt lat="41.129793" lon="-8.105584">
        <ele>308.298</ele>
        <time>2021-08-02T13:56:27Z</time>
      </trkpt>
      <trkpt lat="41.130319" lon="-8.103239">
        <ele>320.017</ele>
        <time>2021-08-02T13:56:36Z</time>
      </trkpt>
      <trkpt lat="41.129278" lon="-8.102580">
        <ele>315.208</ele>
        <time>2021-08-02T13:56:46Z</time>
      </trkpt>
      <trkpt lat="41.128997" lon="-8.102201">
        <ele>316.288</ele>
        <time>2021-08-02T13:56:56Z</time>
      </trkpt>
      <trkpt lat="41.128955" lon="-8.101828">
        <ele>318.260</ele>
        <time>2021-08-02T13:57:05Z</time>
      </trkpt>
      <trkpt lat="41.129116" lon="-8.101200">
        <ele>324.779</ele>
        <time>2021-08-02T13:57:15Z</time>
      </trkpt>
      <trkpt lat="41.128975" lon="-8.100927">
        <ele>324.114</ele>
        <time>2021-08-02T13:57:24Z</time>
      </trkpt>
      <trkpt lat="41.127575" lon="-8.100515">
        <ele>317.612</ele>
        <time>2021-08-02T13:57:34Z</time>
      </trkpt>
      <trkpt lat="41.127347" lon="-8.099819">
        <ele>321.633</ele>
        <time>2021-08-02T13:57:44Z</time>
      </trkpt>
      <trkpt lat="41.126923" lon="-8.099461">
        <ele>319.885</ele>
        <time>2021-08-02T13:57:53Z</time>
      </trkpt>
      <trkpt lat="41.126649" lon="-8.098756">
        <ele>326.445</ele>
        <time>2021-08-02T13:58:03Z</time>
      </trkpt>
      <trkpt lat="41.125903" lon="-8.098600">
        <ele>321.852</ele>
        <time>2021-08-02T13:58:12Z</time>
      </trkpt>
      <trkpt lat="41.125660" lon="-8.098297">
        <ele>321.853</ele>
        <time>2021-08-02T13:58:22Z</time>
      </trkpt>
      <trkpt lat="41.125780" lon="-8.096847">
        <ele>324.708</ele>
        <time>2021-08-02T13:58:32Z</time>
      </trkpt>
      <trkpt lat="41.126720" lon="-8.095875">
        <ele>330.208</ele>
        <time>2021-08-02T13:58:41Z</time>
      </trkpt>
      <trkpt lat="41.126865" lon="-8.095467">
        <ele>330.552</ele>
        <time>2021-08-02T13:58:51Z</time>
      </trkpt>
      <trkpt lat="41.126789" lon="-8.093941">
        <ele>334.314</ele>
        <time>2021-08-02T13:59:01Z</time>
      </trkpt>
      <trkpt lat="41.126463" lon="-8.093582">
        <ele>328.673</ele>
        <time>2021-08-02T13:59:11Z</time>
      </trkpt>
      <trkpt lat="41.126295" lon="-8.092968">
        <ele>332.598</ele>
        <time>2021-08-02T13:59:20Z</time>
      </trkpt>
      <trkpt lat="41.125794" lon="-8.092753">
        <ele>330.436</ele>
        <time>2021-08-02T13:59:30Z</time>
      </trkpt>
      <trkpt lat="41.125609" lon="-8.092530">
        <ele>333.167</ele>
        <time>2021-08-02T13:59:40Z</time>
      </trkpt>
      <trkpt lat="41.125192" lon="-8.090736">
        <ele>337.429</ele>
        <time>2021-08-02T13:59:50Z</time>
      </trkpt>
      <trkpt lat="41.125834" lon="-8.087110">
        <ele>335.729</ele>
        <time>2021-08-02T14:00:00Z</time>
      </trkpt>
      <trkpt lat="41.126290" lon="-8.086418">
        <ele>337.964</ele>
        <time>2021-08-02T14:00:09Z</time>
      </trkpt>
      <trkpt lat="41.126217" lon="-8.086133">
        <ele>338.406</ele>
        <time>2021-08-02T14:00:19Z</time>
      </trkpt>
      <trkpt lat="41.125919" lon="-8.086056">
        <ele>341.516</ele>
        <time>2021-08-02T14:00:29Z</time>
      </trkpt>
      <trkpt lat="41.124926" lon="-8.086684">
        <ele>343.108</ele>
        <time>2021-08-02T14:00:39Z</time>
      </trkpt>
      <trkpt lat="41.124532" lon="-8.087178">
        <ele>344.653</ele>
        <time>2021-08-02T14:00:49Z</time>
      </trkpt>
      <trkpt lat="41.124138" lon="-8.088144">
        <ele>340.195</ele>
        <time>2021-08-02T14:00:59Z</time>
      </trkpt>
      <trkpt lat="41.123635" lon="-8.088344">
        <ele>344.174</ele>
        <time>2021-08-02T14:01:09Z</time>
      </trkpt>
      <trkpt lat="41.123331" lon="-8.088158">
        <ele>350.699</ele>
        <time>2021-08-02T14:01:19Z</time>
      </trkpt>
      <trkpt lat="41.122923" lon="-8.087277">
        <ele>361.987</ele>
        <time>2021-08-02T14:01:29Z</time>
      </trkpt>
      <trkpt lat="41.122631" lon="-8.086992">
        <ele>362.238</ele>
        <time>2021-08-02T14:01:39Z</time>
      </trkpt>
      <trkpt lat="41.119230" lon="-8.085997">
        <ele>359.590</ele>
        <time>2021-08-02T14:01:49Z</time>
      </trkpt>
      <trkpt lat="41.118959" lon="-8.084349">
        <ele>361.630</ele>
        <time>2021-08-02T14:01:59Z</time>
      </trkpt>
      <trkpt lat="41.118308" lon="-8.083824">
        <ele>359.395</ele>
        <time>2021-08-02T14:02:09Z</time>
      </trkpt>
      <trkpt lat="41.118071" lon="-8.082645">
        <ele>361.049</ele>
        <time>2021-08-02T14:02:19Z</time>
      </trkpt>
      <trkpt lat="41.118329" lon="-8.081508">
        <ele>371.523</ele>
        <time>2021-08-02T14:02:29Z</time>
      </trkpt>
      <trkpt lat="41.118087" lon="-8.079718">
        <ele>368.008</ele>
        <time>2021-08-02T14:02:39Z</time>
      </trkpt>
      <trkpt lat="41.118406" lon="-8.078515">
        <ele>371.046</ele>
        <time>2021-08-02T14:02:49Z</time>
      </trkpt>
      <trkpt lat="41.118089" lon="-8.076996">
        <ele>367.318</ele>
        <time>2021-08-02T14:02:59Z</time>
      </trkpt>
      <trkpt lat="41.118224" lon="-8.076480">
        <ele>368.657</ele>
        <time>2021-08-02T14:03:10Z</time>
      </trkpt>
      <trkpt lat="41.118684" lon="-8.076023">
        <ele>376.632</ele>
        <time>2021-08-02T14:03:20Z</time>
      </trkpt>
      <trkpt lat="41.118710" lon="-8.075820">
        <ele>377.050</ele>
        <time>2021-08-02T14:03:30Z</time>
      </trkpt>
      <trkpt lat="41.118186" lon="-8.074737">
        <ele>373.841</ele>
        <time>2021-08-02T14:03:40Z</time>
      </trkpt>
      <trkpt lat="41.116952" lon="-8.074188">
        <ele>369.963</ele>
        <time>2021-08-02T14:03:50Z</time>
      </trkpt>
      <trkpt lat="41.116571" lon="-8.073265">
        <ele>379.333</ele>
        <time>2021-08-02T14:04:01Z</time>
      </trkpt>
      <trkpt lat="41.115651" lon="-8.072914">
        <ele>379.567</ele>
        <time>2021-08-02T14:04:11Z</time>
      </trkpt>
      <trkpt lat="41.115374" lon="-8.071887">
        <ele>385.081</ele>
        <time>2021-08-02T14:04:21Z</time>
      </trkpt>
      <trkpt lat="41.115489" lon="-8.070882">
        <ele>391.619</ele>
        <time>2021-08-02T14:04:31Z</time>
      </trkpt>
      <trkpt lat="41.116343" lon="-8.068153">
        <ele>394.608</ele>
        <time>2021-08-02T14:04:42Z</time>
      </trkpt>
      <trkpt lat="41.116803" lon="-8.067515">
        <ele>396.793</ele>
        <time>2021-08-02T14:04:52Z</time>
      </trkpt>
      <trkpt lat="41.117277" lon="-8.066251">
        <ele>398.385</ele>
        <time>2021-08-02T14:05:02Z</time>
      </trkpt>
      <trkpt lat="41.117586" lon="-8.064737">
        <ele>397.934</ele>
        <time>2021-08-02T14:05:13Z</time>
      </trkpt>
      <trkpt lat="41.118049" lon="-8.063887">
        <ele>398.899</ele>
        <time>2021-08-02T14:05:23Z</time>
      </trkpt>
      <trkpt lat="41.118612" lon="-8.063280">
        <ele>399.977</ele>
        <time>2021-08-02T14:05:34Z</time>
      </trkpt>
      <trkpt lat="41.118858" lon="-8.063170">
        <ele>399.838</ele>
        <time>2021-08-02T14:05:44Z</time>
      </trkpt>
      <trkpt lat="41.119573" lon="-8.063285">
        <ele>408.010</ele>
        <time>2021-08-02T14:05:54Z</time>
      </trkpt>
      <trkpt lat="41.119743" lon="-8.063115">
        <ele>406.650</ele>
        <time>2021-08-02T14:06:05Z</time>
      </trkpt>
      <trkpt lat="41.119848" lon="-8.062418">
        <ele>399.654</ele>
        <time>2021-08-02T14:06:15Z</time>
      </trkpt>
      <trkpt lat="41.120057" lon="-8.062065">
        <ele>399.256</ele>
        <time>2021-08-02T14:06:26Z</time>
      </trkpt>
      <trkpt lat="41.120214" lon="-8.062017">
        <ele>399.611</ele>
        <time>2021-08-02T14:06:36Z</time>
      </trkpt>
      <trkpt lat="41.120922" lon="-8.062266">
        <ele>403.708</ele>
        <time>2021-08-02T14:06:47Z</time>
      </trkpt>
      <trkpt lat="41.121818" lon="-8.060973">
        <ele>392.782</ele>
        <time>2021-08-02T14:06:57Z</time>
      </trkpt>
      <trkpt lat="41.122111" lon="-8.060967">
        <ele>392.174</ele>
        <time>2021-08-02T14:07:08Z</time>
      </trkpt>
      <trkpt lat="41.122638" lon="-8.061314">
        <ele>396.173</ele>
        <time>2021-08-02T14:07:18Z</time>
      </trkpt>
      <trkpt lat="41.123019" lon="-8.061253">
        <ele>395.338</ele>
        <time>2021-08-02T14:07:29Z</time>
      </trkpt>
      <trkpt lat="41.123786" lon="-8.060611">
        <ele>388.486</ele>
        <time>2021-08-02T14:07:39Z</time>
      </trkpt>
      <trkpt lat="41.124477" lon="-8.059280">
        <ele>380.927</ele>
        <time>2021-08-02T14:07:50Z</time>
      </trkpt>
      <trkpt lat="41.124511" lon="-8.058631">
        <ele>381.629</ele>
        <time>2021-08-02T14:08:00Z</time>
      </trkpt>
      <trkpt lat="41.124738" lon="-8.058489">
        <ele>384.079</ele>
        <time>2021-08-02T14:08:11Z</time>
      </trkpt>
      <trkpt lat="41.125348" lon="-8.058547">
        <ele>382.392</ele>
        <time>2021-08-02T14:08:22Z</time>
      </trkpt>
      <trkpt lat="41.125784" lon="-8.058292">
        <ele>385.273</ele>
        <time>2021-08-02T14:08:32Z</time>
      </trkpt>
      <trkpt lat="41.125893" lon="-8.057857">
        <ele>384.620</ele>
        <time>2021-08-02T14:08:43Z</time>
      </trkpt>
      <trkpt lat="41.125640" lon="-8.056797">
        <ele>388.408</ele>
        <time>2021-08-02T14:08:53Z</time>
      </trkpt>
      <trkpt lat="41.125050" lon="-8.055864">
        <ele>393.436</ele>
        <time>2021-08-02T14:09:04Z</time>
      </trkpt>
      <trkpt lat="41.124432" lon="-8.055664">
        <ele>394.468</ele>
        <time>2021-08-02T14:09:15Z</time>
      </trkpt>
      <trkpt lat="41.124275" lon="-8.054877">
        <ele>394.347</ele>
        <time>2021-08-02T14:09:25Z</time>
      </trkpt>
      <trkpt lat="41.124658" lon="-8.054667">
        <ele>398.032</ele>
        <time>2021-08-02T14:09:36Z</time>
      </trkpt>
      <trkpt lat="41.124941" lon="-8.055047">
        <ele>397.650</ele>
        <time>2021-08-02T14:09:47Z</time>
      </trkpt>
      <trkpt lat="41.125396" lon="-8.054983">
        <ele>395.661</ele>
        <time>2021-08-02T14:09:57Z</time>
      </trkpt>
      <trkpt lat="41.125726" lon="-8.054586">
        <ele>399.413</ele>
        <time>2021-08-02T14:10:08Z</time>
      </trkpt>
      <trkpt lat="41.125964" lon="-8.053878">
        <ele>406.273</ele>
        <time>2021-08-02T14:10:19Z</time>
      </trkpt>
      <trkpt lat="41.127008" lon="-8.052886">
        <ele>411.748</ele>
        <time>2021-08-02T14:10:30Z</time>
      </trkpt>
      <trkpt lat="41.127180" lon="-8.052516">
        <ele>413.561</ele>
        <time>2021-08-02T14:10:40Z</time>
      </trkpt>
      <trkpt lat="41.126859" lon="-8.050888">
        <ele>425.217</ele>
        <time>2021-08-02T14:10:51Z</time>
      </trkpt>
      <trkpt lat="41.124769" lon="-8.047836">
        <ele>438.808</ele>
        <time>2021-08-02T14:11:02Z</time>
      </trkpt>
      <trkpt lat="41.124594" lon="-8.047697">
        <ele>441.361</ele>
        <time>2021-08-02T14:11:13Z</time>
      </trkpt>
      <trkpt lat="41.124170" lon="-8.047658">
        <ele>443.523</ele>
        <time>2021-08-02T14:11:24Z</time>
      </trkpt>
      <trkpt lat="41.123929" lon="-8.047456">
        <ele>444.022</ele>
        <time>2021-08-02T14:11:34Z</time>
      </trkpt>
      <trkpt lat="41.123721" lon="-8.045779">
        <ele>443.677</ele>
        <time>2021-08-02T14:11:45Z</time>
      </trkpt>
      <trkpt lat="41.123136" lon="-8.044409">
        <ele>451.935</ele>
        <time>2021-08-02T14:11:56Z</time>
      </trkpt>
      <trkpt lat="41.122854" lon="-8.043198">
        <ele>455.126</ele>
        <time>2021-08-02T14:12:07Z</time>
      </trkpt>
      <trkpt lat="41.123239" lon="-8.042233">
        <ele>458.688</ele>
        <time>2021-08-02T14:12:18Z</time>
      </trkpt>
      <trkpt lat="41.123461" lon="-8.040950">
        <ele>463.238</ele>
        <time>2021-08-02T14:12:29Z</time>
      </trkpt>
      <trkpt lat="41.124502" lon="-8.039520">
        <ele>470.051</ele>
        <time>2021-08-02T14:12:40Z</time>
      </trkpt>
      <trkpt lat="41.124786" lon="-8.037959">
        <ele>473.401</ele>
        <time>2021-08-02T14:12:51Z</time>
      </trkpt>
      <trkpt lat="41.124726" lon="-8.036431">
        <ele>474.411</ele>
        <time>2021-08-02T14:13:02Z</time>
      </trkpt>
      <trkpt lat="41.125083" lon="-8.035484">
        <ele>477.808</ele>
        <time>2021-08-02T14:13:13Z</time>
      </trkpt>
      <trkpt lat="41.125143" lon="-8.034919">
        <ele>473.252</ele>
        <time>2021-08-02T14:13:24Z</time>
      </trkpt>
      <trkpt lat="41.125540" lon="-8.034271">
        <ele>477.144</ele>
        <time>2021-08-02T14:13:35Z</time>
      </trkpt>
      <trkpt lat="41.125634" lon="-8.033427">
        <ele>467.183</ele>
        <time>2021-08-02T14:13:46Z</time>
      </trkpt>
      <trkpt lat="41.126283" lon="-8.032872">
        <ele>471.028</ele>
        <time>2021-08-02T14:13:57Z</time>
      </trkpt>
      <trkpt lat="41.126741" lon="-8.032083">
        <ele>470.436</ele>
        <time>2021-08-02T14:14:08Z</time>
      </trkpt>
      <trkpt lat="41.126863" lon="-8.031447">
        <ele>468.557</ele>
        <time>2021-08-02T14:14:19Z</time>
      </trkpt>
      <trkpt lat="41.126628" lon="-8.030806">
        <ele>459.099</ele>
        <time>2021-08-02T14:14:30Z</time>
      </trkpt>
      <trkpt lat="41.127207" lon="-8.028889">
        <ele>459.069</ele>
        <time>2021-08-02T14:14:42Z</time>
      </trkpt>
      <trkpt lat="41.127192" lon="-8.028411">
        <ele>453.967</ele>
        <time>2021-08-02T14:14:53Z</time>
      </trkpt>
      <trkpt lat="41.126890" lon="-8.028158">
        <ele>448.381</ele>
        <time>2021-08-02T14:15:04Z</time>
      </trkpt>
      <trkpt lat="41.126305" lon="-8.028485">
        <ele>444.819</ele>
        <time>2021-08-02T14:15:15Z</time>
      </trkpt>
      <trkpt lat="41.125285" lon="-8.028631">
        <ele>444.508</ele>
        <time>2021-08-02T14:15:26Z</time>
      </trkpt>
      <trkpt lat="41.125031" lon="-8.028450">
        <ele>445.183</ele>
        <time>2021-08-02T14:15:37Z</time>
      </trkpt>
      <trkpt lat="41.124664" lon="-8.027086">
        <ele>444.435</ele>
        <time>2021-08-02T14:15:49Z</time>
      </trkpt>
      <trkpt lat="41.124887" lon="-8.026793">
        <ele>448.944</ele>
        <time>2021-08-02T14:16:00Z</time>
      </trkpt>
      <trkpt lat="41.125554" lon="-8.026649">
        <ele>458.679</ele>
        <time>2021-08-02T14:16:11Z</time>
      </trkpt>
      <trkpt lat="41.126079" lon="-8.026216">
        <ele>459.637</ele>
        <time>2021-08-02T14:16:22Z</time>
      </trkpt>
      <trkpt lat="41.126120" lon="-8.025862">
        <ele>458.578</ele>
        <time>2021-08-02T14:16:33Z</time>
      </trkpt>
      <trkpt lat="41.125774" lon="-8.024679">
        <ele>455.730</ele>
        <time>2021-08-02T14:16:45Z</time>
      </trkpt>
      <trkpt lat="41.125675" lon="-8.024508">
        <ele>454.330</ele>
        <time>2021-08-02T14:16:56Z</time>
      </trkpt>
      <trkpt lat="41.125022" lon="-8.024179">
        <ele>443.598</ele>
        <time>2021-08-02T14:17:07Z</time>
      </trkpt>
      <trkpt lat="41.124888" lon="-8.023713">
        <ele>447.415</ele>
        <time>2021-08-02T14:17:19Z</time>
      </trkpt>
      <trkpt lat="41.124283" lon="-8.023016">
        <ele>444.626</ele>
        <time>2021-08-02T14:17:30Z</time>
      </trkpt>
      <trkpt lat="41.124012" lon="-8.021679">
        <ele>451.908</ele>
        <time>2021-08-02T14:17:41Z</time>
      </trkpt>
      <trkpt lat="41.123299" lon="-8.020383">
        <ele>435.416</ele>
        <time>2021-08-02T14:17:53Z</time>
      </trkpt>
      <trkpt lat="41.122373" lon="-8.019721">
        <ele>431.858</ele>
        <time>2021-08-02T14:18:04Z</time>
      </trkpt>
      <trkpt lat="41.121075" lon="-8.019727">
        <ele>427.097</ele>
        <time>2021-08-02T14:18:15Z</time>
      </trkpt>
      <trkpt lat="41.120746" lon="-8.019373">
        <ele>426.372</ele>
        <time>2021-08-02T14:18:27Z</time>
      </trkpt>
      <trkpt lat="41.120715" lon="-8.018803">
        <ele>429.340</ele>
        <time>2021-08-02T14:18:38Z</time>
      </trkpt>
      <trkpt lat="41.121291" lon="-8.016838">
        <ele>431.621</ele>
        <time>2021-08-02T14:18:50Z</time>
      </trkpt>
      <trkpt lat="41.122325" lon="-8.015535">
        <ele>437.473</ele>
        <time>2021-08-02T14:19:01Z</time>
      </trkpt>
      <trkpt lat="41.122419" lon="-8.014520">
        <ele>425.963</ele>
        <time>2021-08-02T14:19:12Z</time>
      </trkpt>
      <trkpt lat="41.122742" lon="-8.013763">
        <ele>420.546</ele>
        <time>2021-08-02T14:19:24Z</time>
      </trkpt>
      <trkpt lat="41.122836" lon="-8.013083">
        <ele>416.688</ele>
        <time>2021-08-02T14:19:35Z</time>
      </trkpt>
      <trkpt lat="41.123984" lon="-8.011513">
        <ele>410.516</ele>
        <time>2021-08-02T14:19:47Z</time>
      </trkpt>
      <trkpt lat="41.124593" lon="-8.011316">
        <ele>409.408</ele>
        <time>2021-08-02T14:19:59Z</time>
      </trkpt>
      <trkpt lat="41.124920" lon="-8.011545">
        <ele>409.041</ele>
        <time>2021-08-02T14:20:10Z</time>
      </trkpt>
      <trkpt lat="41.125088" lon="-8.011941">
        <ele>414.093</ele>
        <time>2021-08-02T14:20:22Z</time>
      </trkpt>
      <trkpt lat="41.125340" lon="-8.012033">
        <ele>414.072</ele>
        <time>2021-08-02T14:20:33Z</time>
      </trkpt>
      <trkpt lat="41.126526" lon="-8.011408">
        <ele>407.787</ele>
        <time>2021-08-02T14:20:45Z</time>
      </trkpt>
      <trkpt lat="41.127043" lon="-8.011414">
        <ele>401.775</ele>
        <time>2021-08-02T14:20:56Z</time>
      </trkpt>
      <trkpt lat="41.127815" lon="-8.012147">
        <ele>407.486</ele>
        <time>2021-08-02T14:21:08Z</time>
      </trkpt>
      <trkpt lat="41.128008" lon="-8.012050">
        <ele>407.628</ele>
        <time>2021-08-02T14:21:20Z</time>
      </trkpt>
      <trkpt lat="41.128420" lon="-8.011437">
        <ele>399.658</ele>
        <time>2021-08-02T14:21:31Z</time>
      </trkpt>
      <trkpt lat="41.128933" lon="-8.011228">
        <ele>403.152</ele>
        <time>2021-08-02T14:21:43Z</time>
      </trkpt>
      <trkpt lat="41.129386" lon="-8.010775">
        <ele>393.453</ele>
        <time>2021-08-02T14:21:55Z</time>
      </trkpt>
      <trkpt lat="41.129329" lon="-8.010318">
        <ele>387.408</ele>
        <time>2021-08-02T14:22:06Z</time>
      </trkpt>
      <trkpt lat="41.128159" lon="-8.008893">
        <ele>384.808</ele>
        <time>2021-08-02T14:22:18Z</time>
      </trkpt>
      <trkpt lat="41.127996" lon="-8.008878">
        <ele>381.632</ele>
        <time>2021-08-02T14:22:30Z</time>
      </trkpt>
      <trkpt lat="41.127720" lon="-8.008501">
        <ele>378.914</ele>
        <time>2021-08-02T14:22:41Z</time>
      </trkpt>
      <trkpt lat="41.127324" lon="-8.008256">
        <ele>370.873</ele>
        <time>2021-08-02T14:22:53Z</time>
      </trkpt>
      <trkpt lat="41.127108" lon="-8.007435">
        <ele>369.628</ele>
        <time>2021-08-02T14:23:05Z</time>
      </trkpt>
      <trkpt lat="41.126421" lon="-8.007344">
        <ele>356.666</ele>
        <time>2021-08-02T14:23:16Z</time>
      </trkpt>
      <trkpt lat="41.126203" lon="-8.007015">
        <ele>356.877</ele>
        <time>2021-08-02T14:23:28Z</time>
      </trkpt>
      <trkpt lat="41.126130" lon="-8.006562">
        <ele>360.049</ele>
        <time>2021-08-02T14:23:40Z</time>
      </trkpt>
      <trkpt lat="41.126273" lon="-8.005961">
        <ele>365.999</ele>
        <time>2021-08-02T14:23:52Z</time>
      </trkpt>
      <trkpt lat="41.126579" lon="-8.006334">
        <ele>374.092</ele>
        <time>2021-08-02T14:24:03Z</time>
      </trkpt>
      <trkpt lat="41.127033" lon="-8.006573">
        <ele>384.073</ele>
        <time>2021-08-02T14:24:15Z</time>
      </trkpt>
      <trkpt lat="41.126844" lon="-8.006305">
        <ele>382.720</ele>
        <time>2021-08-02T14:24:27Z</time>
      </trkpt>
      <trkpt lat="41.126666" lon="-8.005321">
        <ele>383.908</ele>
        <time>2021-08-02T14:24:39Z</time>
      </trkpt>
      <trkpt lat="41.125937" lon="-8.004085">
        <ele>379.696</ele>
        <time>2021-08-02T14:24:51Z</time>
      </trkpt>
      <trkpt lat="41.126170" lon="-8.003177">
        <ele>384.818</ele>
        <time>2021-08-02T14:25:02Z</time>
      </trkpt>
      <trkpt lat="41.126115" lon="-8.002988">
        <ele>383.497</ele>
        <time>2021-08-02T14:25:14Z</time>
      </trkpt>
      <trkpt lat="41.125122" lon="-8.001482">
        <ele>381.382</ele>
        <time>2021-08-02T14:25:26Z</time>
      </trkpt>
      <trkpt lat="41.125476" lon="-8.000594">
        <ele>383.830</ele>
        <time>2021-08-02T14:25:38Z</time>
      </trkpt>
      <trkpt lat="41.125807" lon="-8.000458">
        <ele>385.981</ele>
        <time>2021-08-02T14:25:50Z</time>
      </trkpt>
      <trkpt lat="41.126388" lon="-8.000563">
        <ele>388.863</ele>
        <time>2021-08-02T14:26:02Z</time>
      </trkpt>
      <trkpt lat="41.126820" lon="-8.000024">
        <ele>391.423</ele>
        <time>2021-08-02T14:26:14Z</time>
      </trkpt>
      <trkpt lat="41.126531" lon="-7.998477">
        <ele>385.091</ele>
        <time>2021-08-02T14:26:26Z</time>
      </trkpt>
      <trkpt lat="41.127426" lon="-7.995521">
        <ele>376.181</ele>
        <time>2021-08-02T14:26:38Z</time>
      </trkpt>
      <trkpt lat="41.127479" lon="-7.994776">
        <ele>371.919</ele>
        <time>2021-08-02T14:26:50Z</time>
      </trkpt>
      <trkpt lat="41.127725" lon="-7.994243">
        <ele>366.208</ele>
        <time>2021-08-02T14:27:02Z</time>
      </trkpt>
      <trkpt lat="41.128417" lon="-7.994154">
        <ele>373.376</ele>
        <time>2021-08-02T14:27:14Z</time>
      </trkpt>
      <trkpt lat="41.128590" lon="-7.993877">
        <ele>376.028</ele>
        <time>2021-08-02T14:27:26Z</time>
      </trkpt>
      <trkpt lat="41.128211" lon="-7.992723">
        <ele>366.977</ele>
        <time>2021-08-02T14:27:38Z</time>
      </trkpt>
      <trkpt lat="41.128198" lon="-7.989864">
        <ele>355.772</ele>
        <time>2021-08-02T14:27:50Z</time>
      </trkpt>
      <trkpt lat="41.128254" lon="-7.989659">
        <ele>355.110</ele>
        <time>2021-08-02T14:28:02Z</time>
      </trkpt>
      <trkpt lat="41.128876" lon="-7.989189">
        <ele>358.231</ele>
        <time>2021-08-02T14:28:14Z</time>
      </trkpt>
      <trkpt lat="41.128901" lon="-7.989002">
        <ele>360.163</ele>
        <time>2021-08-02T14:28:26Z</time>
      </trkpt>
      <trkpt lat="41.128861" lon="-7.988793">
        <ele>363.773</ele>
        <time>2021-08-02T14:28:38Z</time>
      </trkpt>
      <trkpt lat="41.128651" lon="-7.988638">
        <ele>364.294</ele>
        <time>2021-08-02T14:28:50Z</time>
      </trkpt>
      <trkpt lat="41.128102" lon="-7.988938">
        <ele>358.957</ele>
        <time>2021-08-02T14:29:02Z</time>
      </trkpt>
      <trkpt lat="41.127519" lon="-7.988958">
        <ele>361.122</ele>
        <time>2021-08-02T14:29:14Z</time>
      </trkpt>
      <trkpt lat="41.126946" lon="-7.988288">
        <ele>367.108</ele>
        <time>2021-08-02T14:29:26Z</time>
      </trkpt>
      <trkpt lat="41.126660" lon="-7.988300">
        <ele>366.126</ele>
        <time>2021-08-02T14:29:39Z</time>
      </trkpt>
      <trkpt lat="41.126440" lon="-7.988102">
        <ele>363.948</ele>
        <time>2021-08-02T14:29:51Z</time>
      </trkpt>
      <trkpt lat="41.126486" lon="-7.987482">
        <ele>362.487</ele>
        <time>2021-08-02T14:30:03Z</time>
      </trkpt>
      <trkpt lat="41.126815" lon="-7.986877">
        <ele>373.562</ele>
        <time>2021-08-02T14:30:15Z</time>
      </trkpt>
      <trkpt lat="41.126826" lon="-7.986628">
        <ele>378.080</ele>
        <time>2021-08-02T14:30:27Z</time>
      </trkpt>
      <trkpt lat="41.126515" lon="-7.985547">
        <ele>374.661</ele>
        <time>2021-08-02T14:30:39Z</time>
      </trkpt>
      <trkpt lat="41.126432" lon="-7.985376">
        <ele>373.563</ele>
        <time>2021-08-02T14:30:52Z</time>
      </trkpt>
      <trkpt lat="41.125983" lon="-7.985152">
        <ele>366.743</ele>
        <time>2021-08-02T14:31:04Z</time>
      </trkpt>
      <trkpt lat="41.125891" lon="-7.984280">
        <ele>369.596</ele>
        <time>2021-08-02T14:31:16Z</time>
      </trkpt>
      <trkpt lat="41.125368" lon="-7.983480">
        <ele>364.431</ele>
        <time>2021-08-02T14:31:28Z</time>
      </trkpt>
      <trkpt lat="41.124782" lon="-7.979691">
        <ele>359.324</ele>
        <time>2021-08-02T14:31:41Z</time>
      </trkpt>
      <trkpt lat="41.125014" lon="-7.978801">
        <ele>357.608</ele>
        <time>2021-08-02T14:31:53Z</time>
      </trkpt>
      <trkpt lat="41.125778" lon="-7.977892">
        <ele>364.546</ele>
        <time>2021-08-02T14:32:05Z</time>
      </trkpt>
      <trkpt lat="41.125695" lon="-7.977286">
        <ele>360.468</ele>
        <time>2021-08-02T14:32:17Z</time>
      </trkpt>
      <trkpt lat="41.125836" lon="-7.976846">
        <ele>361.927</ele>
        <time>2021-08-02T14:32:30Z</time>
      </trkpt>
      <trkpt lat="41.126914" lon="-7.975942">
        <ele>360.942</ele>
        <time>2021-08-02T14:32:42Z</time>
      </trkpt>
      <trkpt lat="41.127553" lon="-7.975752">
        <ele>373.310</ele>
        <time>2021-08-02T14:32:54Z</time>
      </trkpt>
      <trkpt lat="41.127747" lon="-7.975083">
        <ele>365.631</ele>
        <time>2021-08-02T14:33:07Z</time>
      </trkpt>
      <trkpt lat="41.127905" lon="-7.974945">
        <ele>366.683</ele>
        <time>2021-08-02T14:33:19Z</time>
      </trkpt>
      <trkpt lat="41.128439" lon="-7.974884">
        <ele>378.063</ele>
        <time>2021-08-02T14:33:32Z</time>
      </trkpt>
      <trkpt lat="41.128984" lon="-7.974294">
        <ele>372.128</ele>
        <time>2021-08-02T14:33:44Z</time>
      </trkpt>
      <trkpt lat="41.129376" lon="-7.974398">
        <ele>380.889</ele>
        <time>2021-08-02T14:33:56Z</time>
      </trkpt>
      <trkpt lat="41.129612" lon="-7.974227">
        <ele>381.617</ele>
        <time>2021-08-02T14:34:09Z</time>
      </trkpt>
      <trkpt lat="41.130111" lon="-7.972622">
        <ele>372.508</ele>
        <time>2021-08-02T14:34:21Z</time>
      </trkpt>
      <trkpt lat="41.130000" lon="-7.972060">
        <ele>362.299</ele>
        <time>2021-08-02T14:34:34Z</time>
      </trkpt>
      <trkpt lat="41.130173" lon="-7.971594">
        <ele>356.811</ele>
        <time>2021-08-02T14:34:46Z</time>
      </trkpt>
      <trkpt lat="41.131250" lon="-7.971173">
        <ele>355.510</ele>
        <time>2021-08-02T14:34:59Z</time>
      </trkpt>
      <trkpt lat="41.131488" lon="-7.970946">
        <ele>352.195</ele>
        <time>2021-08-02T14:35:11Z</time>
      </trkpt>
      <trkpt lat="41.132345" lon="-7.970778">
        <ele>353.293</ele>
        <time>2021-08-02T14:35:24Z</time>
      </trkpt>
      <trkpt lat="41.132733" lon="-7.970375">
        <ele>346.464</ele>
        <time>2021-08-02T14:35:36Z</time>
      </trkpt>
      <trkpt lat="41.133289" lon="-7.970268">
        <ele>349.476</ele>
        <time>2021-08-02T14:35:49Z</time>
      </trkpt>
      <trkpt lat="41.133422" lon="-7.970097">
        <ele>353.726</ele>
        <time>2021-08-02T14:36:01Z</time>
      </trkpt>
      <trkpt lat="41.133341" lon="-7.969627">
        <ele>356.824</ele>
        <time>2021-08-02T14:36:14Z</time>
      </trkpt>
      <trkpt lat="41.132885" lon="-7.969339">
        <ele>349.304</ele>
        <time>2021-08-02T14:36:26Z</time>
      </trkpt>
      <trkpt lat="41.132505" lon="-7.968489">
        <ele>351.914</ele>
        <time>2021-08-02T14:36:39Z</time>
      </trkpt>
      <trkpt lat="41.132362" lon="-7.968362">
        <ele>349.908</ele>
        <time>2021-08-02T14:36:51Z</time>
      </trkpt>
      <trkpt lat="41.131513" lon="-7.968258">
        <ele>341.279</ele>
        <time>2021-08-02T14:37:04Z</time>
      </trkpt>
      <trkpt lat="41.131015" lon="-7.967912">
        <ele>344.431</ele>
        <time>2021-08-02T14:37:17Z</time>
      </trkpt>
      <trkpt lat="41.130199" lon="-7.966923">
        <ele>339.940</ele>
        <time>2021-08-02T14:37:29Z</time>
      </trkpt>
      <trkpt lat="41.129577" lon="-7.965683">
        <ele>332.135</ele>
        <time>2021-08-02T14:37:42Z</time>
      </trkpt>
      <trkpt lat="41.129407" lon="-7.965558">
        <ele>328.143</ele>
        <time>2021-08-02T14:37:54Z</time>
      </trkpt>
      <trkpt lat="41.128786" lon="-7.965576">
        <ele>319.964</ele>
        <time>2021-08-02T14:38:07Z</time>
      </trkpt>
      <trkpt lat="41.128566" lon="-7.964777">
        <ele>320.446</ele>
        <time>2021-08-02T14:38:20Z</time>
      </trkpt>
      <trkpt lat="41.128426" lon="-7.964613">
        <ele>318.616</ele>
        <time>2021-08-02T14:38:32Z</time>
      </trkpt>
      <trkpt lat="41.127913" lon="-7.964443">
        <ele>312.619</ele>
        <time>2021-08-02T14:38:45Z</time>
      </trkpt>
      <trkpt lat="41.127628" lon="-7.963269">
        <ele>315.609</ele>
        <time>2021-08-02T14:38:58Z</time>
      </trkpt>
      <trkpt lat="41.126219" lon="-7.962373">
        <ele>303.619</ele>
        <time>2021-08-02T14:39:10Z</time>
      </trkpt>
      <trkpt lat="41.126089" lon="-7.962077">
        <ele>299.208</ele>
        <time>2021-08-02T14:39:23Z</time>
      </trkpt>
      <trkpt lat="41.126116" lon="-7.961108">
        <ele>293.788</ele>
        <time>2021-08-02T14:39:36Z</time>
      </trkpt>
      <trkpt lat="41.127053" lon="-7.959338">
        <ele>290.950</ele>
        <time>2021-08-02T14:39:49Z</time>
      </trkpt>
      <trkpt lat="41.127308" lon="-7.957450">
        <ele>284.629</ele>
        <time>2021-08-02T14:40:01Z</time>
      </trkpt>
      <trkpt lat="41.127197" lon="-7.956429">
        <ele>276.234</ele>
        <time>2021-08-02T14:40:14Z</time>
      </trkpt>
      <trkpt lat="41.127306" lon="-7.956061">
        <ele>274.062</ele>
        <time>2021-08-02T14:40:27Z</time>
      </trkpt>
      <trkpt lat="41.127571" lon="-7.955916">
        <ele>270.563</ele>
        <time>2021-08-02T14:40:40Z</time>
      </trkpt>
      <trkpt lat="41.128279" lon="-7.956282">
        <ele>275.145</ele>
        <time>2021-08-02T14:40:53Z</time>
      </trkpt>
      <trkpt lat="41.128652" lon="-7.955599">
        <ele>268.935</ele>
        <time>2021-08-02T14:41:06Z</time>
      </trkpt>
      <trkpt lat="41.129035" lon="-7.955282">
        <ele>262.978</ele>
        <time>2021-08-02T14:41:18Z</time>
      </trkpt>
      <trkpt lat="41.129604" lon="-7.955362">
        <ele>263.833</ele>
        <time>2021-08-02T14:41:31Z</time>
      </trkpt>
      <trkpt lat="41.130178" lon="-7.955141">
        <ele>262.526</ele>
        <time>2021-08-02T14:41:44Z</time>
      </trkpt>
      <trkpt lat="41.130291" lon="-7.954970">
        <ele>264.008</ele>
        <time>2021-08-02T14:41:57Z</time>
      </trkpt>
      <trkpt lat="41.130241" lon="-7.954572">
        <ele>264.844</ele>
        <time>2021-08-02T14:42:10Z</time>
      </trkpt>
      <trkpt lat="41.129473" lon="-7.953730">
        <ele>258.126</ele>
        <time>2021-08-02T14:42:23Z</time>
      </trkpt>
      <trkpt lat="41.129059" lon="-7.952392">
        <ele>248.915</ele>
        <time>2021-08-02T14:42:36Z</time>
      </trkpt>
      <trkpt lat="41.128999" lon="-7.951872">
        <ele>243.790</ele>
        <time>2021-08-02T14:42:49Z</time>
      </trkpt>
      <trkpt lat="41.129213" lon="-7.951041">
        <ele>235.278</ele>
        <time>2021-08-02T14:43:02Z</time>
      </trkpt>
      <trkpt lat="41.129447" lon="-7.950744">
        <ele>232.119</ele>
        <time>2021-08-02T14:43:15Z</time>
      </trkpt>
      <trkpt lat="41.131149" lon="-7.949464">
        <ele>224.611</ele>
        <time>2021-08-02T14:43:28Z</time>
      </trkpt>
      <trkpt lat="41.131572" lon="-7.948361">
        <ele>217.691</ele>
        <time>2021-08-02T14:43:41Z</time>
      </trkpt>
      <trkpt lat="41.132032" lon="-7.947922">
        <ele>214.824</ele>
        <time>2021-08-02T14:43:54Z</time>
      </trkpt>
      <trkpt lat="41.133598" lon="-7.947641">
        <ele>213.504</ele>
        <time>2021-08-02T14:44:07Z</time>
      </trkpt>
      <trkpt lat="41.135087" lon="-7.947976">
        <ele>221.414</ele>
        <time>2021-08-02T14:44:20Z</time>
      </trkpt>
      <trkpt lat="41.135755" lon="-7.947756">
        <ele>215.408</ele>
        <time>2021-08-02T14:44:33Z</time>
      </trkpt>
      <trkpt lat="41.136401" lon="-7.948070">
        <ele>217.529</ele>
        <time>2021-08-02T14:44:46Z</time>
      </trkpt>
      <trkpt lat="41.136735" lon="-7.947606">
        <ele>215.931</ele>
        <time>2021-08-02T14:44:59Z</time>
      </trkpt>
      <trkpt lat="41.136699" lon="-7.947249">
        <ele>220.350</ele>
        <time>2021-08-02T14:45:12Z</time>
      </trkpt>
      <trkpt lat="41.136542" lon="-7.947070">
        <ele>223.965</ele>
        <time>2021-08-02T14:45:25Z</time>
      </trkpt>
      <trkpt lat="41.135908" lon="-7.946935">
        <ele>225.153</ele>
        <time>2021-08-02T14:45:38Z</time>
      </trkpt>
      <trkpt lat="41.134757" lon="-7.945802">
        <ele>221.794</ele>
        <time>2021-08-02T14:45:52Z</time>
      </trkpt>
      <trkpt lat="41.134679" lon="-7.945588">
        <ele>220.286</ele>
        <time>2021-08-02T14:46:05Z</time>
      </trkpt>
      <trkpt lat="41.134695" lon="-7.945224">
        <ele>218.646</ele>
        <time>2021-08-02T14:46:18Z</time>
      </trkpt>
      <trkpt lat="41.135725" lon="-7.943587">
        <ele>222.317</ele>
        <time>2021-08-02T14:46:31Z</time>
      </trkpt>
      <trkpt lat="41.136111" lon="-7.941610">
        <ele>230.187</ele>
        <time>2021-08-02T14:46:44Z</time>
      </trkpt>
      <trkpt lat="41.135940" lon="-7.941270">
        <ele>228.815</ele>
        <time>2021-08-02T14:46:58Z</time>
      </trkpt>
      <trkpt lat="41.134362" lon="-7.941944">
        <ele>226.608</ele>
        <time>2021-08-02T14:47:11Z</time>
      </trkpt>
      <trkpt lat="41.133568" lon="-7.941715">
        <ele>228.748</ele>
        <time>2021-08-02T14:47:24Z</time>
      </trkpt>
      <trkpt lat="41.133214" lon="-7.942559">
        <ele>229.860</ele>
        <time>2021-08-02T14:47:37Z</time>
      </trkpt>
      <trkpt lat="41.132574" lon="-7.943411">
        <ele>230.619</ele>
        <time>2021-08-02T14:47:51Z</time>
      </trkpt>
      <trkpt lat="41.132340" lon="-7.943538">
        <ele>231.944</ele>
        <time>2021-08-02T14:48:04Z</time>
      </trkpt>
      <trkpt lat="41.131759" lon="-7.943496">
        <ele>238.012</ele>
        <time>2021-08-02T14:48:17Z</time>
      </trkpt>
      <trkpt lat="41.131463" lon="-7.943761">
        <ele>234.963</ele>
        <time>2021-08-02T14:48:31Z</time>
      </trkpt>
      <trkpt lat="41.131162" lon="-7.943755">
        <ele>235.895</ele>
        <time>2021-08-02T14:48:44Z</time>
      </trkpt>
      <trkpt lat="41.130165" lon="-7.943022">
        <ele>239.975</ele>
        <time>2021-08-02T14:48:57Z</time>
      </trkpt>
      <trkpt lat="41.129282" lon="-7.943005">
        <ele>237.825</ele>
        <time>2021-08-02T14:49:11Z</time>
      </trkpt>
      <trkpt lat="41.128973" lon="-7.942750">
        <ele>236.526</ele>
        <time>2021-08-02T14:49:24Z</time>
      </trkpt>
      <trkpt lat="41.128971" lon="-7.941273">
        <ele>234.108</ele>
        <time>2021-08-02T14:49:38Z</time>
      </trkpt>
      <trkpt lat="41.128100" lon="-7.938984">
        <ele>220.708</ele>
        <time>2021-08-02T14:49:51Z</time>
      </trkpt>
      <trkpt lat="41.128183" lon="-7.937774">
        <ele>217.199</ele>
        <time>2021-08-02T14:50:05Z</time>
      </trkpt>
      <trkpt lat="41.128727" lon="-7.936601">
        <ele>215.411</ele>
        <time>2021-08-02T14:50:18Z</time>
      </trkpt>
      <trkpt lat="41.129667" lon="-7.935800">
        <ele>216.670</ele>
        <time>2021-08-02T14:50:32Z</time>
      </trkpt>
      <trkpt lat="41.130279" lon="-7.935067">
        <ele>219.255</ele>
        <time>2021-08-02T14:50:45Z</time>
      </trkpt>
      <trkpt lat="41.130584" lon="-7.933900">
        <ele>221.673</ele>
        <time>2021-08-02T14:50:59Z</time>
      </trkpt>
      <trkpt lat="41.130387" lon="-7.933135">
        <ele>218.754</ele>
        <time>2021-08-02T14:51:12Z</time>
      </trkpt>
      <trkpt lat="41.130448" lon="-7.932786">
        <ele>216.946</ele>
        <time>2021-08-02T14:51:26Z</time>
      </trkpt>
      <trkpt lat="41.131127" lon="-7.932653">
        <ele>211.396</ele>
        <time>2021-08-02T14:51:39Z</time>
      </trkpt>
      <trkpt lat="41.131618" lon="-7.932380">
        <ele>209.647</ele>
        <time>2021-08-02T14:51:53Z</time>
      </trkpt>
      <trkpt lat="41.132638" lon="-7.931488">
        <ele>198.629</ele>
        <time>2021-08-02T14:52:06Z</time>
      </trkpt>
      <trkpt lat="41.133396" lon="-7.931268">
        <ele>201.421</ele>
        <time>2021-08-02T14:52:20Z</time>
      </trkpt>
      <trkpt lat="41.134757" lon="-7.929838">
        <ele>192.708</ele>
        <time>2021-08-02T14:52:34Z</time>
      </trkpt>
      <trkpt lat="41.135030" lon="-7.929309">
        <ele>190.211</ele>
        <time>2021-08-02T14:52:47Z</time>
      </trkpt>
      <trkpt lat="41.135028" lon="-7.928364">
        <ele>185.013</ele>
        <time>2021-08-02T14:53:01Z</time>
      </trkpt>
      <trkpt lat="41.134603" lon="-7.927601">
        <ele>184.492</ele>
        <time>2021-08-02T14:53:15Z</time>
      </trkpt>
      <trkpt lat="41.134227" lon="-7.927562">
        <ele>188.097</ele>
        <time>2021-08-02T14:53:28Z</time>
      </trkpt>
      <trkpt lat="41.133672" lon="-7.928221">
        <ele>185.865</ele>
        <time>2021-08-02T14:53:42Z</time>
      </trkpt>
      <trkpt lat="41.133386" lon="-7.929196">
        <ele>188.656</ele>
        <time>2021-08-02T14:53:56Z</time>
      </trkpt>
      <trkpt lat="41.133224" lon="-7.929354">
        <ele>191.978</ele>
        <time>2021-08-02T14:54:10Z</time>
      </trkpt>
      <trkpt lat="41.132349" lon="-7.929377">
        <ele>204.818</ele>
        <time>2021-08-02T14:54:23Z</time>
      </trkpt>
      <trkpt lat="41.131389" lon="-7.929719">
        <ele>201.965</ele>
        <time>2021-08-02T14:54:37Z</time>
      </trkpt>
      <trkpt lat="41.131145" lon="-7.929624">
        <ele>202.768</ele>
        <time>2021-08-02T14:54:51Z</time>
      </trkpt>
      <trkpt lat="41.130110" lon="-7.928128">
        <ele>211.814</ele>
        <time>2021-08-02T14:55:05Z</time>
      </trkpt>
      <trkpt lat="41.128837" lon="-7.927148">
        <ele>214.008</ele>
        <time>2021-08-02T14:55:18Z</time>
      </trkpt>
      <trkpt lat="41.128599" lon="-7.927160">
        <ele>214.323</ele>
        <time>2021-08-02T14:55:32Z</time>
      </trkpt>
      <trkpt lat="41.128122" lon="-7.927505">
        <ele>220.575</ele>
        <time>2021-08-02T14:55:46Z</time>
      </trkpt>
      <trkpt lat="41.126719" lon="-7.928110">
        <ele>223.374</ele>
        <time>2021-08-02T14:56:00Z</time>
      </trkpt>
      <trkpt lat="41.125721" lon="-7.928014">
        <ele>222.989</ele>
        <time>2021-08-02T14:56:14Z</time>
      </trkpt>
      <trkpt lat="41.124379" lon="-7.927586">
        <ele>221.617</ele>
        <time>2021-08-02T14:56:28Z</time>
      </trkpt>
      <trkpt lat="41.124343" lon="-7.927124">
        <ele>219.868</ele>
        <time>2021-08-02T14:56:42Z</time>
      </trkpt>
      <trkpt lat="41.125040" lon="-7.925174">
        <ele>222.610</ele>
        <time>2021-08-02T14:56:56Z</time>
      </trkpt>
      <trkpt lat="41.125309" lon="-7.923218">
        <ele>220.280</ele>
        <time>2021-08-02T14:57:10Z</time>
      </trkpt>
      <trkpt lat="41.125018" lon="-7.922421">
        <ele>222.466</ele>
        <time>2021-08-02T14:57:24Z</time>
      </trkpt>
      <trkpt lat="41.124921" lon="-7.918740">
        <ele>225.029</ele>
        <time>2021-08-02T14:57:38Z</time>
      </trkpt>
      <trkpt lat="41.124827" lon="-7.918484">
        <ele>224.721</ele>
        <time>2021-08-02T14:57:52Z</time>
      </trkpt>
      <trkpt lat="41.124367" lon="-7.918263">
        <ele>218.308</ele>
        <time>2021-08-02T14:58:06Z</time>
      </trkpt>
      <trkpt lat="41.124239" lon="-7.917988">
        <ele>218.573</ele>
        <time>2021-08-02T14:58:20Z</time>
      </trkpt>
      <trkpt lat="41.124544" lon="-7.916448">
        <ele>226.785</ele>
        <time>2021-08-02T14:58:34Z</time>
      </trkpt>
      <trkpt lat="41.124209" lon="-7.914641">
        <ele>221.364</ele>
        <time>2021-08-02T14:58:48Z</time>
      </trkpt>
      <trkpt lat="41.124363" lon="-7.913567">
        <ele>223.779</ele>
        <time>2021-08-02T14:59:02Z</time>
      </trkpt>
      <trkpt lat="41.124210" lon="-7.912070">
        <ele>220.437</ele>
        <time>2021-08-02T14:59:16Z</time>
      </trkpt>
      <trkpt lat="41.124737" lon="-7.909754">
        <ele>227.828</ele>
        <time>2021-08-02T14:59:31Z</time>
      </trkpt>
      <trkpt lat="41.125306" lon="-7.908555">
        <ele>238.160</ele>
        <time>2021-08-02T14:59:45Z</time>
      </trkpt>
      <trkpt lat="41.125435" lon="-7.907594">
        <ele>239.880</ele>
        <time>2021-08-02T14:59:59Z</time>
      </trkpt>
      <trkpt lat="41.125345" lon="-7.906418">
        <ele>236.878</ele>
        <time>2021-08-02T15:00:13Z</time>
      </trkpt>
      <trkpt lat="41.125423" lon="-7.906074">
        <ele>238.433</ele>
        <time>2021-08-02T15:00:27Z</time>
      </trkpt>
      <trkpt lat="41.126150" lon="-7.904399">
        <ele>239.726</ele>
        <time>2021-08-02T15:00:42Z</time>
      </trkpt>
      <trkpt lat="41.126958" lon="-7.904046">
        <ele>237.108</ele>
        <time>2021-08-02T15:00:56Z</time>
      </trkpt>
      <trkpt lat="41.127697" lon="-7.904185">
        <ele>232.564</ele>
        <time>2021-08-02T15:01:10Z</time>
      </trkpt>
      <trkpt lat="41.128572" lon="-7.904733">
        <ele>229.616</ele>
        <time>2021-08-02T15:01:25Z</time>
      </trkpt>
      <trkpt lat="41.128851" lon="-7.905629">
        <ele>229.335</ele>
        <time>2021-08-02T15:01:39Z</time>
      </trkpt>
      <trkpt lat="41.129115" lon="-7.905832">
        <ele>227.820</ele>
        <time>2021-08-02T15:01:53Z</time>
      </trkpt>
      <trkpt lat="41.131619" lon="-7.904785">
        <ele>211.638</ele>
        <time>2021-08-02T15:02:08Z</time>
      </trkpt>
      <trkpt lat="41.132124" lon="-7.904942">
        <ele>208.439</ele>
        <time>2021-08-02T15:02:22Z</time>
      </trkpt>
      <trkpt lat="41.132422" lon="-7.905231">
        <ele>208.141</ele>
        <time>2021-08-02T15:02:36Z</time>
      </trkpt>
      <trkpt lat="41.132804" lon="-7.906279">
        <ele>207.751</ele>
        <time>2021-08-02T15:02:51Z</time>
      </trkpt>
      <trkpt lat="41.133083" lon="-7.906497">
        <ele>211.639</ele>
        <time>2021-08-02T15:03:05Z</time>
      </trkpt>
      <trkpt lat="41.133800" lon="-7.906375">
        <ele>212.801</ele>
        <time>2021-08-02T15:03:20Z</time>
      </trkpt>
      <trkpt lat="41.134136" lon="-7.905381">
        <ele>209.421</ele>
        <time>2021-08-02T15:03:34Z</time>
      </trkpt>
      <trkpt lat="41.134389" lon="-7.905125">
        <ele>207.908</ele>
        <time>2021-08-02T15:03:49Z</time>
      </trkpt>
      <trkpt lat="41.135903" lon="-7.905171">
        <ele>217.250</ele>
        <time>2021-08-02T15:04:03Z</time>
      </trkpt>
      <trkpt lat="41.136072" lon="-7.904845">
        <ele>223.072</ele>
        <time>2021-08-02T15:04:18Z</time>
      </trkpt>
      <trkpt lat="41.136148" lon="-7.902928">
        <ele>218.791</ele>
        <time>2021-08-02T15:04:32Z</time>
      </trkpt>
      <trkpt lat="41.137667" lon="-7.900505">
        <ele>230.536</ele>
        <time>2021-08-02T15:04:47Z</time>
      </trkpt>
      <trkpt lat="41.137827" lon="-7.900309">
        <ele>232.984</ele>
        <time>2021-08-02T15:05:01Z</time>
      </trkpt>
      <trkpt lat="41.139870" lon="-7.899281">
        <ele>246.515</ele>
        <time>2021-08-02T15:05:16Z</time>
      </trkpt>
      <trkpt lat="41.140364" lon="-7.898263">
        <ele>251.897</ele>
        <time>2021-08-02T15:05:31Z</time>
      </trkpt>
      <trkpt lat="41.140187" lon="-7.897393">
        <ele>252.867</ele>
        <time>2021-08-02T15:05:45Z</time>
      </trkpt>
      <trkpt lat="41.140184" lon="-7.896598">
        <ele>252.987</ele>
        <time>2021-08-02T15:06:00Z</time>
      </trkpt>
      <trkpt lat="41.140688" lon="-7.895764">
        <ele>264.442</ele>
        <time>2021-08-02T15:06:15Z</time>
      </trkpt>
      <trkpt lat="41.140724" lon="-7.895325">
        <ele>266.926</ele>
        <time>2021-08-02T15:06:29Z</time>
      </trkpt>
      <trkpt lat="41.140522" lon="-7.895076">
        <ele>263.608</ele>
        <time>2021-08-02T15:06:44Z</time>
      </trkpt>
      <trkpt lat="41.139806" lon="-7.894649">
        <ele>262.175</ele>
        <time>2021-08-02T15:06:59Z</time>
      </trkpt>
      <trkpt lat="41.139427" lon="-7.893774">
        <ele>264.757</ele>
        <time>2021-08-02T15:07:13Z</time>
      </trkpt>
      <trkpt lat="41.139994" lon="-7.892757">
        <ele>271.566</ele>
        <time>2021-08-02T15:07:28Z</time>
      </trkpt>
      <trkpt lat="41.140570" lon="-7.890794">
        <ele>262.061</ele>
        <time>2021-08-02T15:07:43Z</time>
      </trkpt>
      <trkpt lat="41.143119" lon="-7.891384">
        <ele>255.319</ele>
        <time>2021-08-02T15:07:58Z</time>
      </trkpt>
      <trkpt lat="41.143521" lon="-7.892349">
        <ele>264.310</ele>
        <time>2021-08-02T15:08:12Z</time>
      </trkpt>
      <trkpt lat="41.143986" lon="-7.892747">
        <ele>261.742</ele>
        <time>2021-08-02T15:08:27Z</time>
      </trkpt>
      <trkpt lat="41.144208" lon="-7.893150">
        <ele>264.732</ele>
        <time>2021-08-02T15:08:42Z</time>
      </trkpt>
      <trkpt lat="41.144673" lon="-7.893469">
        <ele>265.485</ele>
        <time>2021-08-02T15:08:57Z</time>
      </trkpt>
      <trkpt lat="41.144964" lon="-7.893427">
        <ele>265.389</ele>
        <time>2021-08-02T15:09:12Z</time>
      </trkpt>
      <trkpt lat="41.145507" lon="-7.892620">
        <ele>255.917</ele>
        <time>2021-08-02T15:09:27Z</time>
      </trkpt>
      <trkpt lat="41.145942" lon="-7.892305">
        <ele>249.608</ele>
        <time>2021-08-02T15:09:42Z</time>
      </trkpt>
      <trkpt lat="41.146590" lon="-7.892094">
        <ele>244.475</ele>
        <time>2021-08-02T15:09:57Z</time>
      </trkpt>
      <trkpt lat="41.147111" lon="-7.892190">
        <ele>246.937</ele>
        <time>2021-08-02T15:10:11Z</time>
      </trkpt>
      <trkpt lat="41.147822" lon="-7.891986">
        <ele>242.016</ele>
        <time>2021-08-02T15:10:26Z</time>
      </trkpt>
      <trkpt lat="41.148382" lon="-7.892011">
        <ele>240.741</ele>
        <time>2021-08-02T15:10:41Z</time>
      </trkpt>
      <trkpt lat="41.148717" lon="-7.892182">
        <ele>236.669</ele>
        <time>2021-08-02T15:10:56Z</time>
      </trkpt>
      <trkpt lat="41.149094" lon="-7.893255">
        <ele>238.280</ele>
        <time>2021-08-02T15:11:11Z</time>
      </trkpt>
      <trkpt lat="41.149288" lon="-7.893423">
        <ele>239.932</ele>
        <time>2021-08-02T15:11:26Z</time>
      </trkpt>
      <trkpt lat="41.149534" lon="-7.893361">
        <ele>241.412</ele>
        <time>2021-08-02T15:11:41Z</time>
      </trkpt>
      <trkpt lat="41.150165" lon="-7.892615">
        <ele>238.137</ele>
        <time>2021-08-02T15:11:56Z</time>
      </trkpt>
      <trkpt lat="41.150597" lon="-7.892613">
        <ele>237.149</ele>
        <time>2021-08-02T15:12:11Z</time>
      </trkpt>
      <trkpt lat="41.151288" lon="-7.893092">
        <ele>237.613</ele>
        <time>2021-08-02T15:12:26Z</time>
      </trkpt>
      <trkpt lat="41.151573" lon="-7.892970">
        <ele>237.508</ele>
        <time>2021-08-02T15:12:41Z</time>
      </trkpt>
      <trkpt lat="41.151999" lon="-7.892017">
        <ele>232.380</ele>
        <time>2021-08-02T15:12:56Z</time>
      </trkpt>
      <trkpt lat="41.152032" lon="-7.891606">
        <ele>231.112</ele>
        <time>2021-08-02T15:13:11Z</time>
      </trkpt>
      <trkpt lat="41.151302" lon="-7.890504">
        <ele>218.981</ele>
        <time>2021-08-02T15:13:26Z</time>
      </trkpt>
      <trkpt lat="41.151386" lon="-7.889952">
        <ele>216.776</ele>
        <time>2021-08-02T15:13:41Z</time>
      </trkpt>
      <trkpt lat="41.152653" lon="-7.888385">
        <ele>211.454</ele>
        <time>2021-08-02T15:13:56Z</time>
      </trkpt>
      <trkpt lat="41.152992" lon="-7.887760">
        <ele>207.625</ele>
        <time>2021-08-02T15:14:11Z</time>
      </trkpt>
      <trkpt lat="41.153258" lon="-7.887681">
        <ele>203.727</ele>
        <time>2021-08-02T15:14:27Z</time>
      </trkpt>
      <trkpt lat="41.153617" lon="-7.887899">
        <ele>205.777</ele>
        <time>2021-08-02T15:14:42Z</time>
      </trkpt>
      <trkpt lat="41.153867" lon="-7.887800">
        <ele>207.944</ele>
        <time>2021-08-02T15:14:57Z</time>
      </trkpt>
      <trkpt lat="41.154072" lon="-7.885707">
        <ele>196.205</ele>
        <time>2021-08-02T15:15:12Z</time>
      </trkpt>
      <trkpt lat="41.154318" lon="-7.885471">
        <ele>192.915</ele>
        <time>2021-08-02T15:15:27Z</time>
      </trkpt>
      <trkpt lat="41.154819" lon="-7.885524">
        <ele>200.208</ele>
        <time>2021-08-02T15:15:42Z</time>
      </trkpt>
      <trkpt lat="41.155051" lon="-7.885380">
        <ele>199.151</ele>
        <time>2021-08-02T15:15:57Z</time>
      </trkpt>
      <trkpt lat="41.155291" lon="-7.884683">
        <ele>192.013</ele>
        <time>2021-08-02T15:16:13Z</time>
      </trkpt>
      <trkpt lat="41.155714" lon="-7.884159">
        <ele>194.272</ele>
        <time>2021-08-02T15:16:28Z</time>
      </trkpt>
      <trkpt lat="41.156312" lon="-7.882971">
        <ele>191.587</ele>
        <time>2021-08-02T15:16:43Z</time>
      </trkpt>
      <trkpt lat="41.157136" lon="-7.882430">
        <ele>189.045</ele>
        <time>2021-08-02T15:16:58Z</time>
      </trkpt>
      <trkpt lat="41.157670" lon="-7.882444">
        <ele>190.736</ele>
        <time>2021-08-02T15:17:14Z</time>
      </trkpt>
      <trkpt lat="41.158650" lon="-7.882057">
        <ele>197.028</ele>
        <time>2021-08-02T15:17:29Z</time>
      </trkpt>
      <trkpt lat="41.158785" lon="-7.881745">
        <ele>197.388</ele>
        <time>2021-08-02T15:17:44Z</time>
      </trkpt>
      <trkpt lat="41.158729" lon="-7.881099">
        <ele>193.049</ele>
        <time>2021-08-02T15:17:59Z</time>
      </trkpt>
      <trkpt lat="41.158530" lon="-7.880601">
        <ele>188.502</ele>
        <time>2021-08-02T15:18:15Z</time>
      </trkpt>
      <trkpt lat="41.159224" lon="-7.878904">
        <ele>182.022</ele>
        <time>2021-08-02T15:18:30Z</time>
      </trkpt>
      <trkpt lat="41.160307" lon="-7.878395">
        <ele>188.208</ele>
        <time>2021-08-02T15:18:45Z</time>
      </trkpt>
      <trkpt lat="41.160702" lon="-7.878070">
        <ele>184.851</ele>
        <time>2021-08-02T15:19:01Z</time>
      </trkpt>
      <trkpt lat="41.160780" lon="-7.876690">
        <ele>162.533</ele>
        <time>2021-08-02T15:19:16Z</time>
      </trkpt>
      <trkpt lat="41.161744" lon="-7.876130">
        <ele>169.652</ele>
        <time>2021-08-02T15:19:31Z</time>
      </trkpt>
      <trkpt lat="41.162231" lon="-7.875427">
        <ele>170.417</ele>
        <time>2021-08-02T15:19:47Z</time>
      </trkpt>
      <trkpt lat="41.162219" lon="-7.873991">
        <ele>158.515</ele>
        <time>2021-08-02T15:20:02Z</time>
      </trkpt>
      <trkpt lat="41.162542" lon="-7.873022">
        <ele>155.236</ele>
        <time>2021-08-02T15:20:18Z</time>
      </trkpt>
      <trkpt lat="41.162323" lon="-7.871893">
        <ele>143.978</ele>
        <time>2021-08-02T15:20:33Z</time>
      </trkpt>
      <trkpt lat="41.163110" lon="-7.869988">
        <ele>130.298</ele>
        <time>2021-08-02T15:20:49Z</time>
      </trkpt>
      <trkpt lat="41.162812" lon="-7.869891">
        <ele>126.846</ele>
        <time>2021-08-02T15:21:04Z</time>
      </trkpt>
      <trkpt lat="41.162585" lon="-7.870566">
        <ele>131.888</ele>
        <time>2021-08-02T15:21:20Z</time>
      </trkpt>
      <trkpt lat="41.161768" lon="-7.872030">
        <ele>120.116</ele>
        <time>2021-08-02T15:21:35Z</time>
      </trkpt>
      <trkpt lat="41.161674" lon="-7.871812">
        <ele>114.508</ele>
        <time>2021-08-02T15:21:51Z</time>
      </trkpt>
      <trkpt lat="41.161875" lon="-7.870566">
        <ele>107.391</ele>
        <time>2021-08-02T15:22:06Z</time>
      </trkpt>
      <trkpt lat="41.161736" lon="-7.869889">
        <ele>97.353</ele>
        <time>2021-08-02T15:22:22Z</time>
      </trkpt>
      <trkpt lat="41.162036" lon="-7.869370">
        <ele>95.632</ele>
        <time>2021-08-02T15:22:37Z</time>
      </trkpt>
      <trkpt lat="41.162527" lon="-7.869020">
        <ele>96.387</ele>
        <time>2021-08-02T15:22:53Z</time>
      </trkpt>
      <trkpt lat="41.162563" lon="-7.868800">
        <ele>94.755</ele>
        <time>2021-08-02T15:23:08Z</time>
      </trkpt>
      <trkpt lat="41.162330" lon="-7.868096">
        <ele>95.246</ele>
        <time>2021-08-02T15:23:24Z</time>
      </trkpt>
      <trkpt lat="41.161279" lon="-7.867895">
        <ele>82.658</ele>
        <time>2021-08-02T15:23:40Z</time>
      </trkpt>
      <trkpt lat="41.160979" lon="-7.867595">
        <ele>80.988</ele>
        <time>2021-08-02T15:23:55Z</time>
      </trkpt>
      <trkpt lat="41.160895" lon="-7.866602">
        <ele>77.429</ele>
        <time>2021-08-02T15:24:11Z</time>
      </trkpt>
      <trkpt lat="41.160980" lon="-7.866299">
        <ele>77.200</ele>
        <time>2021-08-02T15:24:27Z</time>
      </trkpt>
      <trkpt lat="41.161710" lon="-7.866140">
        <ele>81.620</ele>
        <time>2021-08-02T15:24:42Z</time>
      </trkpt>
      <trkpt lat="41.161656" lon="-7.865584">
        <ele>78.908</ele>
        <time>2021-08-02T15:24:58Z</time>
      </trkpt>
      <trkpt lat="41.161783" lon="-7.864791">
        <ele>73.439</ele>
        <time>2021-08-02T15:25:14Z</time>
      </trkpt>
      <trkpt lat="41.162416" lon="-7.864434">
        <ele>76.341</ele>
        <time>2021-08-02T15:25:29Z</time>
      </trkpt>
      <trkpt lat="41.163027" lon="-7.863618">
        <ele>76.980</ele>
        <time>2021-08-02T15:25:45Z</time>
      </trkpt>
      <trkpt lat="41.163027" lon="-7.863425">
        <ele>78.355</ele>
        <time>2021-08-02T15:26:01Z</time>
      </trkpt>
      <trkpt lat="41.162519" lon="-7.863312">
        <ele>78.833</ele>
        <time>2021-08-02T15:26:16Z</time>
      </trkpt>
      <trkpt lat="41.161026" lon="-7.863959">
        <ele>70.654</ele>
        <time>2021-08-02T15:26:32Z</time>
      </trkpt>
      <trkpt lat="41.160669" lon="-7.863955">
        <ele>71.976</ele>
        <time>2021-08-02T15:26:48Z</time>
      </trkpt>
      <trkpt lat="41.160127" lon="-7.863423">
        <ele>72.496</ele>
        <time>2021-08-02T15:27:04Z</time>
      </trkpt>
      <trkpt lat="41.159950" lon="-7.862889">
        <ele>75.186</ele>
        <time>2021-08-02T15:27:19Z</time>
      </trkpt>
      <trkpt lat="41.157535" lon="-7.851751">
        <ele>70.160</ele>
        <time>2021-08-02T15:27:35Z</time>
      </trkpt>
      <trkpt lat="41.156945" lon="-7.849816">
        <ele>68.826</ele>
        <time>2021-08-02T15:27:51Z</time>
      </trkpt>
      <trkpt lat="41.156889" lon="-7.848664">
        <ele>69.008</ele>
        <time>2021-08-02T15:28:07Z</time>
      </trkpt>
      <trkpt lat="41.157262" lon="-7.847811">
        <ele>68.585</ele>
        <time>2021-08-02T15:28:23Z</time>
      </trkpt>
      <trkpt lat="41.158220" lon="-7.847223">
        <ele>66.637</ele>
        <time>2021-08-02T15:28:39Z</time>
      </trkpt>
      <trkpt lat="41.158154" lon="-7.846447">
        <ele>57.036</ele>
        <time>2021-08-02T15:28:55Z</time>
      </trkpt>
      <trkpt lat="41.157985" lon="-7.846271">
        <ele>60.891</ele>
        <time>2021-08-02T15:29:11Z</time>
      </trkpt>
      <trkpt lat="41.156817" lon="-7.846208">
        <ele>69.779</ele>
        <time>2021-08-02T15:29:27Z</time>
      </trkpt>
      <trkpt lat="41.156537" lon="-7.845870">
        <ele>72.010</ele>
        <time>2021-08-02T15:29:44Z</time>
      </trkpt>
      <trkpt lat="41.155542" lon="-7.838807">
        <ele>75.352</ele>
        <time>2021-08-02T15:30:00Z</time>
      </trkpt>
      <trkpt lat="41.154895" lon="-7.835495">
        <ele>76.612</ele>
        <time>2021-08-02T15:30:16Z</time>
      </trkpt>
      <trkpt lat="41.153916" lon="-7.833189">
        <ele>74.055</ele>
        <time>2021-08-02T15:30:32Z</time>
      </trkpt>
      <trkpt lat="41.153434" lon="-7.831575">
        <ele>79.707</ele>
        <time>2021-08-02T15:30:48Z</time>
      </trkpt>
      <trkpt lat="41.153248" lon="-7.830584">
        <ele>76.917</ele>
        <time>2021-08-02T15:31:05Z</time>
      </trkpt>
      <trkpt lat="41.153143" lon="-7.828113">
        <ele>79.908</ele>
        <time>2021-08-02T15:31:21Z</time>
      </trkpt>
      <trkpt lat="41.152877" lon="-7.827005">
        <ele>76.992</ele>
        <time>2021-08-02T15:31:37Z</time>
      </trkpt>
      <trkpt lat="41.152273" lon="-7.825714">
        <ele>79.634</ele>
        <time>2021-08-02T15:31:54Z</time>
      </trkpt>
      <trkpt lat="41.149710" lon="-7.821873">
        <ele>74.073</ele>
        <time>2021-08-02T15:32:10Z</time>
      </trkpt>
      <trkpt lat="41.149499" lon="-7.821032">
        <ele>76.638</ele>
        <time>2021-08-02T15:32:27Z</time>
      </trkpt>
      <trkpt lat="41.148751" lon="-7.819690">
        <ele>75.436</ele>
        <time>2021-08-02T15:32:43Z</time>
      </trkpt>
      <trkpt lat="41.148337" lon="-7.817265">
        <ele>72.647</ele>
        <time>2021-08-02T15:33:00Z</time>
      </trkpt>
      <trkpt lat="41.148701" lon="-7.813673">
        <ele>74.699</ele>
        <time>2021-08-02T15:33:16Z</time>
      </trkpt>
      <trkpt lat="41.149787" lon="-7.811411">
        <ele>73.459</ele>
        <time>2021-08-02T15:33:33Z</time>
      </trkpt>
      <trkpt lat="41.150654" lon="-7.810669">
        <ele>75.322</ele>
        <time>2021-08-02T15:33:49Z</time>
      </trkpt>
      <trkpt lat="41.151734" lon="-7.809289">
        <ele>70.262</ele>
        <time>2021-08-02T15:34:06Z</time>
      </trkpt>
      <trkpt lat="41.152798" lon="-7.809046">
        <ele>71.908</ele>
        <time>2021-08-02T15:34:23Z</time>
      </trkpt>
      <trkpt lat="41.154890" lon="-7.808831">
        <ele>74.608</ele>
        <time>2021-08-02T15:34:40Z</time>
      </trkpt>
      <trkpt lat="41.155435" lon="-7.808303">
        <ele>68.819</ele>
        <time>2021-08-02T15:34:56Z</time>
      </trkpt>
      <trkpt lat="41.157536" lon="-7.807424">
        <ele>71.191</ele>
        <time>2021-08-02T15:35:13Z</time>
      </trkpt>
      <trkpt lat="41.158843" lon="-7.806266">
        <ele>63.840</ele>
        <time>2021-08-02T15:35:30Z</time>
      </trkpt>
      <trkpt lat="41.160103" lon="-7.805582">
        <ele>62.415</ele>
        <time>2021-08-02T15:35:47Z</time>
      </trkpt>
      <trkpt lat="41.160477" lon="-7.804985">
        <ele>60.723</ele>
        <time>2021-08-02T15:36:03Z</time>
      </trkpt>
      <trkpt lat="41.161182" lon="-7.803209">
        <ele>56.274</ele>
        <time>2021-08-02T15:36:20Z</time>
      </trkpt>
      <trkpt lat="41.162104" lon="-7.801741">
        <ele>57.546</ele>
        <time>2021-08-02T15:36:37Z</time>
      </trkpt>
      <trkpt lat="41.162671" lon="-7.800001">
        <ele>59.076</ele>
        <time>2021-08-02T15:36:54Z</time>
      </trkpt>
      <trkpt lat="41.162920" lon="-7.795744">
        <ele>55.313</ele>
        <time>2021-08-02T15:37:11Z</time>
      </trkpt>
      <trkpt lat="41.161989" lon="-7.791737">
        <ele>65.143</ele>
        <time>2021-08-02T15:37:28Z</time>
      </trkpt>
      <trkpt lat="41.161588" lon="-7.791325">
        <ele>61.707</ele>
        <time>2021-08-02T15:37:45Z</time>
      </trkpt>
      <trkpt lat="41.160147" lon="-7.788521">
        <ele>69.408</ele>
        <time>2021-08-02T15:38:02Z</time>
      </trkpt>
      <trkpt lat="41.158744" lon="-7.784730">
        <ele>73.758</ele>
        <time>2021-08-02T15:38:19Z</time>
      </trkpt>
      <trkpt lat="41.157084" lon="-7.782190">
        <ele>73.380</ele>
        <time>2021-08-02T15:38:37Z</time>
      </trkpt>
      <trkpt lat="41.156760" lon="-7.780680">
        <ele>73.569</ele>
        <time>2021-08-02T15:38:54Z</time>
      </trkpt>
      <trkpt lat="41.156407" lon="-7.779851">
        <ele>73.274</ele>
        <time>2021-08-02T15:39:11Z</time>
      </trkpt>
      <trkpt lat="41.155940" lon="-7.779475">
        <ele>69.712</ele>
        <time>2021-08-02T15:39:28Z</time>
      </trkpt>
      <trkpt lat="41.155979" lon="-7.778900">
        <ele>71.743</ele>
        <time>2021-08-02T15:39:46Z</time>
      </trkpt>
      <trkpt lat="41.155723" lon="-7.778024">
        <ele>74.265</ele>
        <time>2021-08-02T15:40:03Z</time>
      </trkpt>
      <trkpt lat="41.155840" lon="-7.777211">
        <ele>80.755</ele>
        <time>2021-08-02T15:40:20Z</time>
      </trkpt>
      <trkpt lat="41.156731" lon="-7.777131">
        <ele>95.268</ele>
        <time>2021-08-02T15:40:38Z</time>
      </trkpt>
      <trkpt lat="41.158461" lon="-7.778106">
        <ele>111.442</ele>
        <time>2021-08-02T15:40:55Z</time>
      </trkpt>
      <trkpt lat="41.158706" lon="-7.778711">
        <ele>109.926</ele>
        <time>2021-08-02T15:41:12Z</time>
      </trkpt>
      <trkpt lat="41.158681" lon="-7.779925">
        <ele>122.708</ele>
        <time>2021-08-02T15:41:30Z</time>
      </trkpt>
      <trkpt lat="41.159040" lon="-7.780502">
        <ele>126.093</ele>
        <time>2021-08-02T15:41:47Z</time>
      </trkpt>
      <trkpt lat="41.159383" lon="-7.780595">
        <ele>128.585</ele>
        <time>2021-08-02T15:42:04Z</time>
      </trkpt>
      <trkpt lat="41.161314" lon="-7.780130">
        <ele>143.524</ele>
        <time>2021-08-02T15:42:22Z</time>
      </trkpt>
      <trkpt lat="41.163668" lon="-7.780891">
        <ele>165.239</ele>
        <time>2021-08-02T15:42:39Z</time>
      </trkpt>
      <trkpt lat="41.164163" lon="-7.780757">
        <ele>170.877</ele>
        <time>2021-08-02T15:42:57Z</time>
      </trkpt>
      <trkpt lat="41.164487" lon="-7.780478">
        <ele>172.128</ele>
        <time>2021-08-02T15:43:14Z</time>
      </trkpt>
      <trkpt lat="41.164831" lon="-7.779917">
        <ele>172.760</ele>
        <time>2021-08-02T15:43:32Z</time>
      </trkpt>
      <trkpt lat="41.165018" lon="-7.779185">
        <ele>171.690</ele>
        <time>2021-08-02T15:43:49Z</time>
      </trkpt>
      <trkpt lat="41.165605" lon="-7.778500">
        <ele>171.356</ele>
        <time>2021-08-02T15:44:07Z</time>
      </trkpt>
      <trkpt lat="41.166001" lon="-7.778417">
        <ele>174.459</ele>
        <time>2021-08-02T15:44:24Z</time>
      </trkpt>
      <trkpt lat="41.166307" lon="-7.778511">
        <ele>173.414</ele>
        <time>2021-08-02T15:44:42Z</time>
      </trkpt>
      <trkpt lat="41.167050" lon="-7.779413">
        <ele>179.108</ele>
        <time>2021-08-02T15:44:59Z</time>
      </trkpt>
      <trkpt lat="41.167305" lon="-7.779521">
        <ele>178.722</ele>
        <time>2021-08-02T15:45:17Z</time>
      </trkpt>
      <trkpt lat="41.167673" lon="-7.779452">
        <ele>179.634</ele>
        <time>2021-08-02T15:45:35Z</time>
      </trkpt>
      <trkpt lat="41.168532" lon="-7.778946">
        <ele>188.523</ele>
        <time>2021-08-02T15:45:52Z</time>
      </trkpt>
      <trkpt lat="41.168748" lon="-7.778731">
        <ele>190.298</ele>
        <time>2021-08-02T15:46:10Z</time>
      </trkpt>
      <trkpt lat="41.168998" lon="-7.777918">
        <ele>196.416</ele>
        <time>2021-08-02T15:46:27Z</time>
      </trkpt>
      <trkpt lat="41.169960" lon="-7.776292">
        <ele>202.577</ele>
        <time>2021-08-02T15:46:45Z</time>
      </trkpt>
      <trkpt lat="41.170576" lon="-7.776562">
        <ele>207.089</ele>
        <time>2021-08-02T15:47:03Z</time>
      </trkpt>
      <trkpt lat="41.171134" lon="-7.777210">
        <ele>208.099</ele>
        <time>2021-08-02T15:47:20Z</time>
      </trkpt>
      <trkpt lat="41.171654" lon="-7.777220">
        <ele>209.242</ele>
        <time>2021-08-02T15:47:38Z</time>
      </trkpt>
      <trkpt lat="41.173153" lon="-7.775783">
        <ele>220.822</ele>
        <time>2021-08-02T15:47:56Z</time>
      </trkpt>
      <trkpt lat="41.173871" lon="-7.775823">
        <ele>222.714</ele>
        <time>2021-08-02T15:48:13Z</time>
      </trkpt>
      <trkpt lat="41.174541" lon="-7.775527">
        <ele>230.808</ele>
        <time>2021-08-02T15:48:31Z</time>
      </trkpt>
      <trkpt lat="41.174700" lon="-7.775538">
        <ele>233.171</ele>
        <time>2021-08-02T15:48:49Z</time>
      </trkpt>
      <trkpt lat="41.174859" lon="-7.775840">
        <ele>233.163</ele>
        <time>2021-08-02T15:49:07Z</time>
      </trkpt>
      <trkpt lat="41.174695" lon="-7.777107">
        <ele>231.042</ele>
        <time>2021-08-02T15:49:24Z</time>
      </trkpt>
      <trkpt lat="41.174849" lon="-7.777373">
        <ele>231.497</ele>
        <time>2021-08-02T15:49:42Z</time>
      </trkpt>
      <trkpt lat="41.175002" lon="-7.777395">
        <ele>231.945</ele>
        <time>2021-08-02T15:50:00Z</time>
      </trkpt>
      <trkpt lat="41.176360" lon="-7.776975">
        <ele>237.676</ele>
        <time>2021-08-02T15:50:18Z</time>
      </trkpt>
      <trkpt lat="41.177161" lon="-7.776243">
        <ele>248.698</ele>
        <time>2021-08-02T15:50:36Z</time>
      </trkpt>
      <trkpt lat="41.177831" lon="-7.776500">
        <ele>249.578</ele>
        <time>2021-08-02T15:50:53Z</time>
      </trkpt>
      <trkpt lat="41.178789" lon="-7.776474">
        <ele>253.286</ele>
        <time>2021-08-02T15:51:11Z</time>
      </trkpt>
      <trkpt lat="41.180893" lon="-7.775563">
        <ele>263.660</ele>
        <time>2021-08-02T15:51:29Z</time>
      </trkpt>
      <trkpt lat="41.181643" lon="-7.774770">
        <ele>274.426</ele>
        <time>2021-08-02T15:51:47Z</time>
      </trkpt>
      <trkpt lat="41.182376" lon="-7.774951">
        <ele>275.008</ele>
        <time>2021-08-02T15:52:05Z</time>
      </trkpt>
      <trkpt lat="41.182908" lon="-7.774687">
        <ele>283.985</ele>
        <time>2021-08-02T15:52:23Z</time>
      </trkpt>
      <trkpt lat="41.183284" lon="-7.775033">
        <ele>282.017</ele>
        <time>2021-08-02T15:52:41Z</time>
      </trkpt>
      <trkpt lat="41.183932" lon="-7.775173">
        <ele>290.016</ele>
        <time>2021-08-02T15:52:59Z</time>
      </trkpt>
      <trkpt lat="41.184553" lon="-7.775521">
        <ele>288.251</ele>
        <time>2021-08-02T15:53:17Z</time>
      </trkpt>
      <trkpt lat="41.185323" lon="-7.775541">
        <ele>298.359</ele>
        <time>2021-08-02T15:53:35Z</time>
      </trkpt>
      <trkpt lat="41.186475" lon="-7.776323">
        <ele>303.330</ele>
        <time>2021-08-02T15:53:53Z</time>
      </trkpt>
      <trkpt lat="41.187566" lon="-7.776235">
        <ele>307.962</ele>
        <time>2021-08-02T15:54:11Z</time>
      </trkpt>
      <trkpt lat="41.188560" lon="-7.776504">
        <ele>301.292</ele>
        <time>2021-08-02T15:54:29Z</time>
      </trkpt>
      <trkpt lat="41.189256" lon="-7.776984">
        <ele>301.768</ele>
        <time>2021-08-02T15:54:47Z</time>
      </trkpt>
      <trkpt lat="41.189696" lon="-7.777133">
        <ele>297.142</ele>
        <time>2021-08-02T15:55:05Z</time>
      </trkpt>
      <trkpt lat="41.190130" lon="-7.777701">
        <ele>298.526</ele>
        <time>2021-08-02T15:55:23Z</time>
      </trkpt>
      <trkpt lat="41.190570" lon="-7.777999">
        <ele>297.408</ele>
        <time>2021-08-02T15:55:41Z</time>
      </trkpt>
      <trkpt lat="41.191792" lon="-7.778048">
        <ele>294.023</ele>
        <time>2021-08-02T15:55:59Z</time>
      </trkpt>
      <trkpt lat="41.192508" lon="-7.777490">
        <ele>284.825</ele>
        <time>2021-08-02T15:56:17Z</time>
      </trkpt>
      <trkpt lat="41.193473" lon="-7.777416">
        <ele>280.314</ele>
        <time>2021-08-02T15:56:35Z</time>
      </trkpt>
      <trkpt lat="41.193805" lon="-7.777658">
        <ele>279.329</ele>
        <time>2021-08-02T15:56:54Z</time>
      </trkpt>
      <trkpt lat="41.194019" lon="-7.778491">
        <ele>276.477</ele>
        <time>2021-08-02T15:57:12Z</time>
      </trkpt>
      <trkpt lat="41.195450" lon="-7.778662">
        <ele>273.518</ele>
        <time>2021-08-02T15:57:30Z</time>
      </trkpt>
      <trkpt lat="41.195919" lon="-7.778302">
        <ele>271.670</ele>
        <time>2021-08-02T15:57:48Z</time>
      </trkpt>
      <trkpt lat="41.196493" lon="-7.777171">
        <ele>261.440</ele>
        <time>2021-08-02T15:58:06Z</time>
      </trkpt>
      <trkpt lat="41.196789" lon="-7.777138">
        <ele>259.595</ele>
        <time>2021-08-02T15:58:25Z</time>
      </trkpt>
      <trkpt lat="41.198059" lon="-7.777891">
        <ele>255.349</ele>
        <time>2021-08-02T15:58:43Z</time>
      </trkpt>
      <trkpt lat="41.198316" lon="-7.777930">
        <ele>255.323</ele>
        <time>2021-08-02T15:59:01Z</time>
      </trkpt>
      <trkpt lat="41.199070" lon="-7.777327">
        <ele>253.008</ele>
        <time>2021-08-02T15:59:19Z</time>
      </trkpt>
      <trkpt lat="41.199968" lon="-7.777168">
        <ele>259.996</ele>
        <time>2021-08-02T15:59:38Z</time>
      </trkpt>
      <trkpt lat="41.200650" lon="-7.776295">
        <ele>265.688</ele>
        <time>2021-08-02T15:59:56Z</time>
      </trkpt>
      <trkpt lat="41.201359" lon="-7.776122">
        <ele>270.817</ele>
        <time>2021-08-02T16:00:14Z</time>
      </trkpt>
      <trkpt lat="41.201682" lon="-7.776286">
        <ele>270.652</ele>
        <time>2021-08-02T16:00:33Z</time>
      </trkpt>
      <trkpt lat="41.202463" lon="-7.777457">
        <ele>262.040</ele>
        <time>2021-08-02T16:00:51Z</time>
      </trkpt>
      <trkpt lat="41.203895" lon="-7.778504">
        <ele>260.451</ele>
        <time>2021-08-02T16:01:09Z</time>
      </trkpt>
      <trkpt lat="41.204665" lon="-7.778591">
        <ele>256.663</ele>
        <time>2021-08-02T16:01:28Z</time>
      </trkpt>
      <trkpt lat="41.205556" lon="-7.779074">
        <ele>256.733</ele>
        <time>2021-08-02T16:01:46Z</time>
      </trkpt>
      <trkpt lat="41.205588" lon="-7.779283">
        <ele>259.211</ele>
        <time>2021-08-02T16:02:05Z</time>
      </trkpt>
      <trkpt lat="41.206002" lon="-7.779264">
        <ele>259.921</ele>
        <time>2021-08-02T16:02:23Z</time>
      </trkpt>
      <trkpt lat="41.206381" lon="-7.778707">
        <ele>258.503</ele>
        <time>2021-08-02T16:02:41Z</time>
      </trkpt>
      <trkpt lat="41.206631" lon="-7.778721">
        <ele>257.908</ele>
        <time>2021-08-02T16:03:00Z</time>
      </trkpt>
      <trkpt lat="41.207283" lon="-7.779057">
        <ele>250.628</ele>
        <time>2021-08-02T16:03:18Z</time>
      </trkpt>
      <trkpt lat="41.208232" lon="-7.780115">
        <ele>250.030</ele>
        <time>2021-08-02T16:03:37Z</time>
      </trkpt>
      <trkpt lat="41.208570" lon="-7.781552">
        <ele>249.639</ele>
        <time>2021-08-02T16:03:55Z</time>
      </trkpt>
      <trkpt lat="41.208469" lon="-7.784160">
        <ele>242.734</ele>
        <time>2021-08-02T16:04:14Z</time>
      </trkpt>
      <trkpt lat="41.209074" lon="-7.784772">
        <ele>234.692</ele>
        <time>2021-08-02T16:04:32Z</time>
      </trkpt>
      <trkpt lat="41.209087" lon="-7.785947">
        <ele>234.423</ele>
        <time>2021-08-02T16:04:51Z</time>
      </trkpt>
      <trkpt lat="41.209704" lon="-7.786433">
        <ele>228.445</ele>
        <time>2021-08-02T16:05:10Z</time>
      </trkpt>
      <trkpt lat="41.209934" lon="-7.787385">
        <ele>229.045</ele>
        <time>2021-08-02T16:05:28Z</time>
      </trkpt>
      <trkpt lat="41.210172" lon="-7.787563">
        <ele>228.145</ele>
        <time>2021-08-02T16:05:47Z</time>
      </trkpt>
      <trkpt lat="41.210828" lon="-7.787126">
        <ele>228.547</ele>
        <time>2021-08-02T16:06:05Z</time>
      </trkpt>
      <trkpt lat="41.211588" lon="-7.784945">
        <ele>237.211</ele>
        <time>2021-08-02T16:06:24Z</time>
      </trkpt>
      <trkpt lat="41.212675" lon="-7.784569">
        <ele>243.308</ele>
        <time>2021-08-02T16:06:43Z</time>
      </trkpt>
      <trkpt lat="41.212659" lon="-7.784458">
        <ele>244.321</ele>
        <time>2021-08-02T16:07:01Z</time>
      </trkpt>
      <trkpt lat="41.212675" lon="-7.784569">
        <ele>243.393</ele>
        <time>2021-08-02T16:07:20Z</time>
      </trkpt>
      <trkpt lat="41.214339" lon="-7.784102">
        <ele>256.092</ele>
        <time>2021-08-02T16:07:39Z</time>
      </trkpt>
      <trkpt lat="41.215418" lon="-7.784218">
        <ele>262.697</ele>
        <time>2021-08-02T16:07:58Z</time>
      </trkpt>
      <trkpt lat="41.215945" lon="-7.784090">
        <ele>256.945</ele>
        <time>2021-08-02T16:08:16Z</time>
      </trkpt>
      <trkpt lat="41.216156" lon="-7.784466">
        <ele>253.056</ele>
        <time>2021-08-02T16:08:35Z</time>
      </trkpt>
      <trkpt lat="41.216794" lon="-7.784993">
        <ele>248.148</ele>
        <time>2021-08-02T16:08:54Z</time>
      </trkpt>
      <trkpt lat="41.217142" lon="-7.785461">
        <ele>248.058</ele>
        <time>2021-08-02T16:09:13Z</time>
      </trkpt>
      <trkpt lat="41.217401" lon="-7.785439">
        <ele>249.178</ele>
        <time>2021-08-02T16:09:31Z</time>
      </trkpt>
      <trkpt lat="41.217532" lon="-7.784718">
        <ele>243.333</ele>
        <time>2021-08-02T16:09:50Z</time>
      </trkpt>
      <trkpt lat="41.218212" lon="-7.783393">
        <ele>236.426</ele>
        <time>2021-08-02T16:10:09Z</time>
      </trkpt>
      <trkpt lat="41.218312" lon="-7.782762">
        <ele>231.408</ele>
        <time>2021-08-02T16:10:28Z</time>
      </trkpt>
      <trkpt lat="41.218627" lon="-7.782335">
        <ele>233.754</ele>
        <time>2021-08-02T16:10:47Z</time>
      </trkpt>
      <trkpt lat="41.218411" lon="-7.781639">
        <ele>233.626</ele>
        <time>2021-08-02T16:11:06Z</time>
      </trkpt>
      <trkpt lat="41.218287" lon="-7.780434">
        <ele>226.995</ele>
        <time>2021-08-02T16:11:24Z</time>
      </trkpt>
      <trkpt lat="41.218559" lon="-7.778905">
        <ele>219.380</ele>
        <time>2021-08-02T16:11:43Z</time>
      </trkpt>
      <trkpt lat="41.218450" lon="-7.777557">
        <ele>216.698</ele>
        <time>2021-08-02T16:12:02Z</time>
      </trkpt>
      <trkpt lat="41.218608" lon="-7.776769">
        <ele>214.589</ele>
        <time>2021-08-02T16:12:21Z</time>
      </trkpt>
      <trkpt lat="41.218516" lon="-7.776068">
        <ele>209.531</ele>
        <time>2021-08-02T16:12:40Z</time>
      </trkpt>
      <trkpt lat="41.218130" lon="-7.775554">
        <ele>201.491</ele>
        <time>2021-08-02T16:12:59Z</time>
      </trkpt>
      <trkpt lat="41.218296" lon="-7.774672">
        <ele>199.981</ele>
        <time>2021-08-02T16:13:18Z</time>
      </trkpt>
      <trkpt lat="41.218786" lon="-7.774333">
        <ele>198.661</ele>
        <time>2021-08-02T16:13:37Z</time>
      </trkpt>
      <trkpt lat="41.219297" lon="-7.773548">
        <ele>181.017</ele>
        <time>2021-08-02T16:13:56Z</time>
      </trkpt>
      <trkpt lat="41.219522" lon="-7.773712">
        <ele>180.808</ele>
        <time>2021-08-02T16:14:15Z</time>
      </trkpt>
      <trkpt lat="41.219725" lon="-7.774119">
        <ele>186.665</ele>
        <time>2021-08-02T16:14:34Z</time>
      </trkpt>
      <trkpt lat="41.220428" lon="-7.774358">
        <ele>182.167</ele>
        <time>2021-08-02T16:14:53Z</time>
      </trkpt>
      <trkpt lat="41.221002" lon="-7.775187">
        <ele>187.696</ele>
        <time>2021-08-02T16:15:12Z</time>
      </trkpt>
      <trkpt lat="41.221204" lon="-7.775246">
        <ele>190.611</ele>
        <time>2021-08-02T16:15:31Z</time>
      </trkpt>
      <trkpt lat="41.221300" lon="-7.775000">
        <ele>189.559</ele>
        <time>2021-08-02T16:15:50Z</time>
      </trkpt>
      <trkpt lat="41.221212" lon="-7.773705">
        <ele>181.020</ele>
        <time>2021-08-02T16:16:09Z</time>
      </trkpt>
      <trkpt lat="41.220987" lon="-7.772698">
        <ele>161.372</ele>
        <time>2021-08-02T16:16:28Z</time>
      </trkpt>
      <trkpt lat="41.221169" lon="-7.772385">
        <ele>155.532</ele>
        <time>2021-08-02T16:16:47Z</time>
      </trkpt>
      <trkpt lat="41.222088" lon="-7.772202">
        <ele>158.626</ele>
        <time>2021-08-02T16:17:06Z</time>
      </trkpt>
      <trkpt lat="41.222806" lon="-7.771807">
        <ele>153.847</ele>
        <time>2021-08-02T16:17:25Z</time>
      </trkpt>
      <trkpt lat="41.223145" lon="-7.771857">
        <ele>157.611</ele>
        <time>2021-08-02T16:17:44Z</time>
      </trkpt>
      <trkpt lat="41.223509" lon="-7.771717">
        <ele>157.308</ele>
        <time>2021-08-02T16:18:03Z</time>
      </trkpt>
      <trkpt lat="41.224539" lon="-7.770778">
        <ele>140.589</ele>
        <time>2021-08-02T16:18:22Z</time>
      </trkpt>
      <trkpt lat="41.225257" lon="-7.770934">
        <ele>139.091</ele>
        <time>2021-08-02T16:18:42Z</time>
      </trkpt>
      <trkpt lat="41.225684" lon="-7.771172">
        <ele>138.780</ele>
        <time>2021-08-02T16:19:01Z</time>
      </trkpt>
      <trkpt lat="41.226112" lon="-7.771018">
        <ele>145.025</ele>
        <time>2021-08-02T16:19:20Z</time>
      </trkpt>
      <trkpt lat="41.226141" lon="-7.770747">
        <ele>151.423</ele>
        <time>2021-08-02T16:19:39Z</time>
      </trkpt>
      <trkpt lat="41.225693" lon="-7.770095">
        <ele>154.884</ele>
        <time>2021-08-02T16:19:58Z</time>
      </trkpt>
      <trkpt lat="41.225205" lon="-7.769816">
        <ele>152.496</ele>
        <time>2021-08-02T16:20:17Z</time>
      </trkpt>
      <trkpt lat="41.224360" lon="-7.769851">
        <ele>150.486</ele>
        <time>2021-08-02T16:20:37Z</time>
      </trkpt>
      <trkpt lat="41.223411" lon="-7.770346">
        <ele>148.075</ele>
        <time>2021-08-02T16:20:56Z</time>
      </trkpt>
      <trkpt lat="41.222932" lon="-7.769971">
        <ele>156.328</ele>
        <time>2021-08-02T16:21:15Z</time>
      </trkpt>
      <trkpt lat="41.223017" lon="-7.769634">
        <ele>162.820</ele>
        <time>2021-08-02T16:21:34Z</time>
      </trkpt>
      <trkpt lat="41.223189" lon="-7.769720">
        <ele>162.608</ele>
        <time>2021-08-02T16:21:54Z</time>
      </trkpt>
      <trkpt lat="41.223352" lon="-7.770101">
        <ele>155.014</ele>
        <time>2021-08-02T16:22:13Z</time>
      </trkpt>
      <trkpt lat="41.223543" lon="-7.770147">
        <ele>154.976</ele>
        <time>2021-08-02T16:22:32Z</time>
      </trkpt>
      <trkpt lat="41.225113" lon="-7.769296">
        <ele>170.315</ele>
        <time>2021-08-02T16:22:51Z</time>
      </trkpt>
      <trkpt lat="41.225367" lon="-7.769493">
        <ele>168.370</ele>
        <time>2021-08-02T16:23:11Z</time>
      </trkpt>
      <trkpt lat="41.225942" lon="-7.769591">
        <ele>176.398</ele>
        <time>2021-08-02T16:23:30Z</time>
      </trkpt>
      <trkpt lat="41.226486" lon="-7.770466">
        <ele>170.269</ele>
        <time>2021-08-02T16:23:49Z</time>
      </trkpt>
      <trkpt lat="41.227019" lon="-7.770283">
        <ele>175.161</ele>
        <time>2021-08-02T16:24:09Z</time>
      </trkpt>
      <trkpt lat="41.227359" lon="-7.770006">
        <ele>173.941</ele>
        <time>2021-08-02T16:24:28Z</time>
      </trkpt>
      <trkpt lat="41.227436" lon="-7.769669">
        <ele>177.178</ele>
        <time>2021-08-02T16:24:47Z</time>
      </trkpt>
      <trkpt lat="41.227045" lon="-7.768471">
        <ele>188.033</ele>
        <time>2021-08-02T16:25:07Z</time>
      </trkpt>
      <trkpt lat="41.227080" lon="-7.768197">
        <ele>191.826</ele>
        <time>2021-08-02T16:25:26Z</time>
      </trkpt>
      <trkpt lat="41.227415" lon="-7.768089">
        <ele>192.608</ele>
        <time>2021-08-02T16:25:45Z</time>
      </trkpt>
      <trkpt lat="41.227843" lon="-7.767613">
        <ele>194.224</ele>
        <time>2021-08-02T16:26:05Z</time>
      </trkpt>
      <trkpt lat="41.227930" lon="-7.767306">
        <ele>198.096</ele>
        <time>2021-08-02T16:26:24Z</time>
      </trkpt>
      <trkpt lat="41.228399" lon="-7.766950">
        <ele>196.395</ele>
        <time>2021-08-02T16:26:44Z</time>
      </trkpt>
      <trkpt lat="41.228945" lon="-7.765657">
        <ele>209.670</ele>
        <time>2021-08-02T16:27:03Z</time>
      </trkpt>
      <trkpt lat="41.229180" lon="-7.765687">
        <ele>212.528</ele>
        <time>2021-08-02T16:27:22Z</time>
      </trkpt>
      <trkpt lat="41.229547" lon="-7.766613">
        <ele>204.199</ele>
        <time>2021-08-02T16:27:42Z</time>
      </trkpt>
      <trkpt lat="41.230176" lon="-7.766538">
        <ele>208.261</ele>
        <time>2021-08-02T16:28:01Z</time>
      </trkpt>
      <trkpt lat="41.230632" lon="-7.766284">
        <ele>211.821</ele>
        <time>2021-08-02T16:28:21Z</time>
      </trkpt>
      <trkpt lat="41.231044" lon="-7.765833">
        <ele>214.689</ele>
        <time>2021-08-02T16:28:40Z</time>
      </trkpt>
      <trkpt lat="41.230981" lon="-7.765206">
        <ele>225.406</ele>
        <time>2021-08-02T16:29:00Z</time>
      </trkpt>
      <trkpt lat="41.231072" lon="-7.764847">
        <ele>228.826</ele>
        <time>2021-08-02T16:29:19Z</time>
      </trkpt>
      <trkpt lat="41.231455" lon="-7.764574">
        <ele>230.808</ele>
        <time>2021-08-02T16:29:39Z</time>
      </trkpt>
      <trkpt lat="41.231951" lon="-7.764636">
        <ele>226.215</ele>
        <time>2021-08-02T16:29:58Z</time>
      </trkpt>
      <trkpt lat="41.232457" lon="-7.764250">
        <ele>230.377</ele>
        <time>2021-08-02T16:30:18Z</time>
      </trkpt>
      <trkpt lat="41.232684" lon="-7.763816">
        <ele>234.846</ele>
        <time>2021-08-02T16:30:37Z</time>
      </trkpt>
      <trkpt lat="41.233135" lon="-7.763643">
        <ele>243.031</ele>
        <time>2021-08-02T16:30:57Z</time>
      </trkpt>
      <trkpt lat="41.233699" lon="-7.763756">
        <ele>238.179</ele>
        <time>2021-08-02T16:31:16Z</time>
      </trkpt>
      <trkpt lat="41.233979" lon="-7.763448">
        <ele>245.550</ele>
        <time>2021-08-02T16:31:36Z</time>
      </trkpt>
      <trkpt lat="41.234384" lon="-7.763326">
        <ele>253.242</ele>
        <time>2021-08-02T16:31:55Z</time>
      </trkpt>
      <trkpt lat="41.234630" lon="-7.763441">
        <ele>259.192</ele>
        <time>2021-08-02T16:32:15Z</time>
      </trkpt>
      <trkpt lat="41.234834" lon="-7.764112">
        <ele>251.382</ele>
        <time>2021-08-02T16:32:34Z</time>
      </trkpt>
      <trkpt lat="41.235501" lon="-7.764423">
        <ele>252.943</ele>
        <time>2021-08-02T16:32:54Z</time>
      </trkpt>
      <trkpt lat="41.236352" lon="-7.764390">
        <ele>254.617</ele>
        <time>2021-08-02T16:33:14Z</time>
      </trkpt>
      <trkpt lat="41.236847" lon="-7.763985">
        <ele>266.908</ele>
        <time>2021-08-02T16:33:33Z</time>
      </trkpt>
      <trkpt lat="41.237436" lon="-7.764250">
        <ele>266.695</ele>
        <time>2021-08-02T16:33:53Z</time>
      </trkpt>
      <trkpt lat="41.238086" lon="-7.764192">
        <ele>277.937</ele>
        <time>2021-08-02T16:34:13Z</time>
      </trkpt>
      <trkpt lat="41.238574" lon="-7.764687">
        <ele>274.916</ele>
        <time>2021-08-02T16:34:32Z</time>
      </trkpt>
      <trkpt lat="41.239437" lon="-7.764443">
        <ele>285.651</ele>
        <time>2021-08-02T16:34:52Z</time>
      </trkpt>
      <trkpt lat="41.239863" lon="-7.764839">
        <ele>287.749</ele>
        <time>2021-08-02T16:35:12Z</time>
      </trkpt>
      <trkpt lat="41.239916" lon="-7.765308">
        <ele>284.860</ele>
        <time>2021-08-02T16:35:31Z</time>
      </trkpt>
      <trkpt lat="41.240363" lon="-7.766150">
        <ele>290.582</ele>
        <time>2021-08-02T16:35:51Z</time>
      </trkpt>
      <trkpt lat="41.239642" lon="-7.766750">
        <ele>285.352</ele>
        <time>2021-08-02T16:36:11Z</time>
      </trkpt>
      <trkpt lat="41.239713" lon="-7.767130">
        <ele>287.241</ele>
        <time>2021-08-02T16:36:30Z</time>
      </trkpt>
      <trkpt lat="41.241056" lon="-7.767340">
        <ele>306.781</ele>
        <time>2021-08-02T16:36:50Z</time>
      </trkpt>
      <trkpt lat="41.241411" lon="-7.767583">
        <ele>307.509</ele>
        <time>2021-08-02T16:37:10Z</time>
      </trkpt>
      <trkpt lat="41.241490" lon="-7.767865">
        <ele>307.508</ele>
        <time>2021-08-02T16:37:30Z</time>
      </trkpt>
      <trkpt lat="41.240977" lon="-7.768647">
        <ele>308.411</ele>
        <time>2021-08-02T16:37:49Z</time>
      </trkpt>
      <trkpt lat="41.241034" lon="-7.769356">
        <ele>316.773</ele>
        <time>2021-08-02T16:38:09Z</time>
      </trkpt>
      <trkpt lat="41.240658" lon="-7.769946">
        <ele>311.862</ele>
        <time>2021-08-02T16:38:29Z</time>
      </trkpt>
      <trkpt lat="41.240631" lon="-7.770522">
        <ele>321.427</ele>
        <time>2021-08-02T16:38:49Z</time>
      </trkpt>
      <trkpt lat="41.239920" lon="-7.771498">
        <ele>313.525</ele>
        <time>2021-08-02T16:39:09Z</time>
      </trkpt>
      <trkpt lat="41.240025" lon="-7.771928">
        <ele>318.726</ele>
        <time>2021-08-02T16:39:28Z</time>
      </trkpt>
      <trkpt lat="41.240807" lon="-7.771830">
        <ele>321.878</ele>
        <time>2021-08-02T16:39:48Z</time>
      </trkpt>
      <trkpt lat="41.241296" lon="-7.772090">
        <ele>323.548</ele>
        <time>2021-08-02T16:40:08Z</time>
      </trkpt>
      <trkpt lat="41.242001" lon="-7.771635">
        <ele>326.318</ele>
        <time>2021-08-02T16:40:28Z</time>
      </trkpt>
      <trkpt lat="41.242715" lon="-7.770489">
        <ele>337.698</ele>
        <time>2021-08-02T16:40:48Z</time>
      </trkpt>
      <trkpt lat="41.243260" lon="-7.769877">
        <ele>339.817</ele>
        <time>2021-08-02T16:41:08Z</time>
      </trkpt>
      <trkpt lat="41.244326" lon="-7.767794">
        <ele>352.008</ele>
        <time>2021-08-02T16:41:28Z</time>
      </trkpt>
      <trkpt lat="41.244651" lon="-7.767518">
        <ele>355.928</ele>
        <time>2021-08-02T16:41:48Z</time>
      </trkpt>
      <trkpt lat="41.245050" lon="-7.767485">
        <ele>358.680</ele>
        <time>2021-08-02T16:42:08Z</time>
      </trkpt>
      <trkpt lat="41.245204" lon="-7.767547">
        <ele>360.819</ele>
        <time>2021-08-02T16:42:27Z</time>
      </trkpt>
      <trkpt lat="41.245500" lon="-7.768449">
        <ele>355.264</ele>
        <time>2021-08-02T16:42:47Z</time>
      </trkpt>
      <trkpt lat="41.245705" lon="-7.768604">
        <ele>354.292</ele>
        <time>2021-08-02T16:43:07Z</time>
      </trkpt>
      <trkpt lat="41.246186" lon="-7.768160">
        <ele>365.483</ele>
        <time>2021-08-02T16:43:27Z</time>
      </trkpt>
      <trkpt lat="41.246717" lon="-7.768238">
        <ele>364.045</ele>
        <time>2021-08-02T16:43:47Z</time>
      </trkpt>
      <trkpt lat="41.247081" lon="-7.768129">
        <ele>370.865</ele>
        <time>2021-08-02T16:44:07Z</time>
      </trkpt>
      <trkpt lat="41.247326" lon="-7.768235">
        <ele>372.433</ele>
        <time>2021-08-02T16:44:27Z</time>
      </trkpt>
      <trkpt lat="41.247546" lon="-7.768679">
        <ele>366.723</ele>
        <time>2021-08-02T16:44:47Z</time>
      </trkpt>
      <trkpt lat="41.247782" lon="-7.768789">
        <ele>367.215</ele>
        <time>2021-08-02T16:45:07Z</time>
      </trkpt>
      <trkpt lat="41.248573" lon="-7.768173">
        <ele>384.308</ele>
        <time>2021-08-02T16:45:27Z</time>
      </trkpt>
      <trkpt lat="41.249260" lon="-7.768739">
        <ele>389.250</ele>
        <time>2021-08-02T16:45:48Z</time>
      </trkpt>
      <trkpt lat="41.249331" lon="-7.770272">
        <ele>388.522</ele>
        <time>2021-08-02T16:46:08Z</time>
      </trkpt>
      <trkpt lat="41.249494" lon="-7.770537">
        <ele>388.831</ele>
        <time>2021-08-02T16:46:28Z</time>
      </trkpt>
      <trkpt lat="41.249849" lon="-7.770614">
        <ele>393.066</ele>
        <time>2021-08-02T16:46:48Z</time>
      </trkpt>
      <trkpt lat="41.250434" lon="-7.771045">
        <ele>389.274</ele>
        <time>2021-08-02T16:47:08Z</time>
      </trkpt>
      <trkpt lat="41.251239" lon="-7.771104">
        <ele>393.255</ele>
        <time>2021-08-02T16:47:28Z</time>
      </trkpt>
      <trkpt lat="41.251827" lon="-7.771537">
        <ele>395.967</ele>
        <time>2021-08-02T16:47:48Z</time>
      </trkpt>
      <trkpt lat="41.252869" lon="-7.771764">
        <ele>407.537</ele>
        <time>2021-08-02T16:48:08Z</time>
      </trkpt>
      <trkpt lat="41.253883" lon="-7.772492">
        <ele>419.118</ele>
        <time>2021-08-02T16:48:28Z</time>
      </trkpt>
      <trkpt lat="41.254169" lon="-7.772461">
        <ele>421.998</ele>
        <time>2021-08-02T16:48:49Z</time>
      </trkpt>
      <trkpt lat="41.254496" lon="-7.771667">
        <ele>418.517</ele>
        <time>2021-08-02T16:49:09Z</time>
      </trkpt>
      <trkpt lat="41.254903" lon="-7.771643">
        <ele>425.508</ele>
        <time>2021-08-02T16:49:29Z</time>
      </trkpt>
      <trkpt lat="41.255870" lon="-7.771035">
        <ele>430.658</ele>
        <time>2021-08-02T16:49:49Z</time>
      </trkpt>
      <trkpt lat="41.256277" lon="-7.770909">
        <ele>431.470</ele>
        <time>2021-08-02T16:50:09Z</time>
      </trkpt>
      <trkpt lat="41.257322" lon="-7.771407">
        <ele>426.689</ele>
        <time>2021-08-02T16:50:30Z</time>
      </trkpt>
      <trkpt lat="41.257903" lon="-7.771902">
        <ele>425.854</ele>
        <time>2021-08-02T16:50:50Z</time>
      </trkpt>
      <trkpt lat="41.258150" lon="-7.772298">
        <ele>428.022</ele>
        <time>2021-08-02T16:51:10Z</time>
      </trkpt>
      <trkpt lat="41.258694" lon="-7.772466">
        <ele>418.853</ele>
        <time>2021-08-02T16:51:30Z</time>
      </trkpt>
      <trkpt lat="41.258874" lon="-7.773241">
        <ele>425.755</ele>
        <time>2021-08-02T16:51:51Z</time>
      </trkpt>
      <trkpt lat="41.259440" lon="-7.774019">
        <ele>430.345</ele>
        <time>2021-08-02T16:52:11Z</time>
      </trkpt>
      <trkpt lat="41.259595" lon="-7.774008">
        <ele>430.329</ele>
        <time>2021-08-02T16:52:31Z</time>
      </trkpt>
      <trkpt lat="41.260028" lon="-7.773496">
        <ele>418.500</ele>
        <time>2021-08-02T16:52:52Z</time>
      </trkpt>
      <trkpt lat="41.260252" lon="-7.773466">
        <ele>417.520</ele>
        <time>2021-08-02T16:53:12Z</time>
      </trkpt>
      <trkpt lat="41.260903" lon="-7.774339">
        <ele>436.308</ele>
        <time>2021-08-02T16:53:32Z</time>
      </trkpt>
      <trkpt lat="41.261542" lon="-7.774230">
        <ele>439.649</ele>
        <time>2021-08-02T16:53:53Z</time>
      </trkpt>
      <trkpt lat="41.261869" lon="-7.774313">
        <ele>444.081</ele>
        <time>2021-08-02T16:54:13Z</time>
      </trkpt>
      <trkpt lat="41.262539" lon="-7.773412">
        <ele>445.160</ele>
        <time>2021-08-02T16:54:33Z</time>
      </trkpt>
      <trkpt lat="41.263345" lon="-7.773489">
        <ele>449.375</ele>
        <time>2021-08-02T16:54:54Z</time>
      </trkpt>
      <trkpt lat="41.264400" lon="-7.774641">
        <ele>459.553</ele>
        <time>2021-08-02T16:55:14Z</time>
      </trkpt>
      <trkpt lat="41.265132" lon="-7.775178">
        <ele>460.144</ele>
        <time>2021-08-02T16:55:35Z</time>
      </trkpt>
      <trkpt lat="41.266007" lon="-7.775359">
        <ele>461.396</ele>
        <time>2021-08-02T16:55:55Z</time>
      </trkpt>
      <trkpt lat="41.266691" lon="-7.776147">
        <ele>459.946</ele>
        <time>2021-08-02T16:56:16Z</time>
      </trkpt>
      <trkpt lat="41.267066" lon="-7.777862">
        <ele>451.523</ele>
        <time>2021-08-02T16:56:36Z</time>
      </trkpt>
      <trkpt lat="41.267558" lon="-7.778625">
        <ele>444.183</ele>
        <time>2021-08-02T16:56:57Z</time>
      </trkpt>
      <trkpt lat="41.267808" lon="-7.779402">
        <ele>435.011</ele>
        <time>2021-08-02T16:57:17Z</time>
      </trkpt>
      <trkpt lat="41.267703" lon="-7.779737">
        <ele>438.008</ele>
        <time>2021-08-02T16:57:38Z</time>
      </trkpt>
      <trkpt lat="41.266701" lon="-7.780615">
        <ele>444.889</ele>
        <time>2021-08-02T16:57:58Z</time>
      </trkpt>
      <trkpt lat="41.266838" lon="-7.781641">
        <ele>447.941</ele>
        <time>2021-08-02T16:58:19Z</time>
      </trkpt>
      <trkpt lat="41.266972" lon="-7.781802">
        <ele>446.230</ele>
        <time>2021-08-02T16:58:39Z</time>
      </trkpt>
      <trkpt lat="41.267265" lon="-7.781864">
        <ele>445.925</ele>
        <time>2021-08-02T16:59:00Z</time>
      </trkpt>
      <trkpt lat="41.267433" lon="-7.781750">
        <ele>446.553</ele>
        <time>2021-08-02T16:59:20Z</time>
      </trkpt>
      <trkpt lat="41.267604" lon="-7.781286">
        <ele>440.074</ele>
        <time>2021-08-02T16:59:41Z</time>
      </trkpt>
      <trkpt lat="41.268804" lon="-7.780857">
        <ele>454.336</ele>
        <time>2021-08-02T17:00:02Z</time>
      </trkpt>
      <trkpt lat="41.269453" lon="-7.779638">
        <ele>451.566</ele>
        <time>2021-08-02T17:00:22Z</time>
      </trkpt>
      <trkpt lat="41.270640" lon="-7.779209">
        <ele>470.635</ele>
        <time>2021-08-02T17:00:43Z</time>
      </trkpt>
      <trkpt lat="41.270977" lon="-7.778805">
        <ele>473.286</ele>
        <time>2021-08-02T17:01:04Z</time>
      </trkpt>
      <trkpt lat="41.271198" lon="-7.778274">
        <ele>470.114</ele>
        <time>2021-08-02T17:01:24Z</time>
      </trkpt>
      <trkpt lat="41.272202" lon="-7.777878">
        <ele>475.708</ele>
        <time>2021-08-02T17:01:45Z</time>
      </trkpt>
      <trkpt lat="41.272582" lon="-7.776979">
        <ele>468.830</ele>
        <time>2021-08-02T17:02:06Z</time>
      </trkpt>
      <trkpt lat="41.273136" lon="-7.776449">
        <ele>476.572</ele>
        <time>2021-08-02T17:02:26Z</time>
      </trkpt>
      <trkpt lat="41.273212" lon="-7.775267">
        <ele>477.271</ele>
        <time>2021-08-02T17:02:47Z</time>
      </trkpt>
      <trkpt lat="41.273738" lon="-7.773387">
        <ele>479.436</ele>
        <time>2021-08-02T17:03:08Z</time>
      </trkpt>
      <trkpt lat="41.273685" lon="-7.771685">
        <ele>479.084</ele>
        <time>2021-08-02T17:03:29Z</time>
      </trkpt>
      <trkpt lat="41.273293" lon="-7.770841">
        <ele>472.225</ele>
        <time>2021-08-02T17:03:49Z</time>
      </trkpt>
      <trkpt lat="41.273582" lon="-7.769240">
        <ele>475.027</ele>
        <time>2021-08-02T17:04:10Z</time>
      </trkpt>
      <trkpt lat="41.273955" lon="-7.768764">
        <ele>478.527</ele>
        <time>2021-08-02T17:04:31Z</time>
      </trkpt>
      <trkpt lat="41.274192" lon="-7.767897">
        <ele>473.746</ele>
        <time>2021-08-02T17:04:52Z</time>
      </trkpt>
      <trkpt lat="41.275226" lon="-7.767403">
        <ele>477.288</ele>
        <time>2021-08-02T17:05:13Z</time>
      </trkpt>
      <trkpt lat="41.275787" lon="-7.766174">
        <ele>468.016</ele>
        <time>2021-08-02T17:05:34Z</time>
      </trkpt>
      <trkpt lat="41.277112" lon="-7.764904">
        <ele>462.608</ele>
        <time>2021-08-02T17:05:55Z</time>
      </trkpt>
      <trkpt lat="41.278144" lon="-7.764495">
        <ele>465.851</ele>
        <time>2021-08-02T17:06:15Z</time>
      </trkpt>
      <trkpt lat="41.278265" lon="-7.763698">
        <ele>455.653</ele>
        <time>2021-08-02T17:06:36Z</time>
      </trkpt>
      <trkpt lat="41.278522" lon="-7.763242">
        <ele>455.982</ele>
        <time>2021-08-02T17:06:57Z</time>
      </trkpt>
      <trkpt lat="41.278984" lon="-7.762917">
        <ele>458.897</ele>
        <time>2021-08-02T17:07:18Z</time>
      </trkpt>
      <trkpt lat="41.279873" lon="-7.760290">
        <ele>447.215</ele>
        <time>2021-08-02T17:07:39Z</time>
      </trkpt>
      <trkpt lat="41.283367" lon="-7.759459">
        <ele>423.026</ele>
        <time>2021-08-02T17:08:00Z</time>
      </trkpt>
      <trkpt lat="41.283672" lon="-7.759544">
        <ele>420.648</ele>
        <time>2021-08-02T17:08:22Z</time>
      </trkpt>
      <trkpt lat="41.284127" lon="-7.759936">
        <ele>420.928</ele>
        <time>2021-08-02T17:08:43Z</time>
      </trkpt>
      <trkpt lat="41.284447" lon="-7.759986">
        <ele>417.047</ele>
        <time>2021-08-02T17:09:04Z</time>
      </trkpt>
      <trkpt lat="41.285441" lon="-7.759632">
        <ele>406.929</ele>
        <time>2021-08-02T17:09:25Z</time>
      </trkpt>
      <trkpt lat="41.286834" lon="-7.758885">
        <ele>402.921</ele>
        <time>2021-08-02T17:09:46Z</time>
      </trkpt>
      <trkpt lat="41.288329" lon="-7.758405">
        <ele>399.008</ele>
        <time>2021-08-02T17:10:07Z</time>
      </trkpt>
      <trkpt lat="41.289011" lon="-7.757882">
        <ele>398.831</ele>
        <time>2021-08-02T17:10:28Z</time>
      </trkpt>
      <trkpt lat="41.289621" lon="-7.757738">
        <ele>393.453</ele>
        <time>2021-08-02T17:10:50Z</time>
      </trkpt>
      <trkpt lat="41.292320" lon="-7.756560">
        <ele>374.772</ele>
        <time>2021-08-02T17:11:11Z</time>
      </trkpt>
      <trkpt lat="41.292986" lon="-7.756635">
        <ele>365.787</ele>
        <time>2021-08-02T17:11:32Z</time>
      </trkpt>
      <trkpt lat="41.294366" lon="-7.757345">
        <ele>346.775</ele>
        <time>2021-08-02T17:11:53Z</time>
      </trkpt>
      <trkpt lat="41.294569" lon="-7.757336">
        <ele>341.316</ele>
        <time>2021-08-02T17:12:15Z</time>
      </trkpt>
      <trkpt lat="41.295251" lon="-7.756708">
        <ele>352.028</ele>
        <time>2021-08-02T17:12:36Z</time>
      </trkpt>
      <trkpt lat="41.295271" lon="-7.755822">
        <ele>361.488</ele>
        <time>2021-08-02T17:12:57Z</time>
      </trkpt>
      <trkpt lat="41.294716" lon="-7.754882">
        <ele>361.054</ele>
        <time>2021-08-02T17:13:19Z</time>
      </trkpt>
      <trkpt lat="41.295452" lon="-7.752936">
        <ele>372.956</ele>
        <time>2021-08-02T17:13:40Z</time>
      </trkpt>
      <trkpt lat="41.295235" lon="-7.751367">
        <ele>376.611</ele>
        <time>2021-08-02T17:14:02Z</time>
      </trkpt>
      <trkpt lat="41.297254" lon="-7.749868">
        <ele>406.708</ele>
        <time>2021-08-02T17:14:23Z</time>
      </trkpt>
      <trkpt lat="41.297644" lon="-7.749101">
        <ele>425.442</ele>
        <time>2021-08-02T17:14:44Z</time>
      </trkpt>
      <trkpt lat="41.298865" lon="-7.751077">
        <ele>422.244</ele>
        <time>2021-08-02T17:15:06Z</time>
      </trkpt>
      <trkpt lat="41.299085" lon="-7.751244">
        <ele>420.073</ele>
        <time>2021-08-02T17:15:27Z</time>
      </trkpt>
      <trkpt lat="41.299428" lon="-7.751975">
        <ele>415.498</ele>
        <time>2021-08-02T17:15:49Z</time>
      </trkpt>
      <trkpt lat="41.299737" lon="-7.752321">
        <ele>414.966</ele>
        <time>2021-08-02T17:16:10Z</time>
      </trkpt>
      <trkpt lat="41.300220" lon="-7.752578">
        <ele>414.357</ele>
        <time>2021-08-02T17:16:32Z</time>
      </trkpt>
      <trkpt lat="41.300733" lon="-7.752604">
        <ele>408.179</ele>
        <time>2021-08-02T17:16:54Z</time>
      </trkpt>
      <trkpt lat="41.301135" lon="-7.752462">
        <ele>405.819</ele>
        <time>2021-08-02T17:17:15Z</time>
      </trkpt>
      <trkpt lat="41.302428" lon="-7.751462">
        <ele>402.391</ele>
        <time>2021-08-02T17:17:37Z</time>
      </trkpt>
      <trkpt lat="41.303311" lon="-7.751058">
        <ele>400.381</ele>
        <time>2021-08-02T17:17:58Z</time>
      </trkpt>
      <trkpt lat="41.303631" lon="-7.751222">
        <ele>394.219</ele>
        <time>2021-08-02T17:18:20Z</time>
      </trkpt>
      <trkpt lat="41.305278" lon="-7.751456">
        <ele>389.808</ele>
        <time>2021-08-02T17:18:41Z</time>
      </trkpt>
      <trkpt lat="41.305817" lon="-7.751790">
        <ele>380.826</ele>
        <time>2021-08-02T17:19:03Z</time>
      </trkpt>
      <trkpt lat="41.307089" lon="-7.753607">
        <ele>371.958</ele>
        <time>2021-08-02T17:19:25Z</time>
      </trkpt>
      <trkpt lat="41.307350" lon="-7.755877">
        <ele>368.437</ele>
        <time>2021-08-02T17:19:47Z</time>
      </trkpt>
      <trkpt lat="41.307535" lon="-7.756546">
        <ele>374.282</ele>
        <time>2021-08-02T17:20:08Z</time>
      </trkpt>
      <trkpt lat="41.307902" lon="-7.756851">
        <ele>376.560</ele>
        <time>2021-08-02T17:20:30Z</time>
      </trkpt>
      <trkpt lat="41.309000" lon="-7.757376">
        <ele>378.731</ele>
        <time>2021-08-02T17:20:52Z</time>
      </trkpt>
      <trkpt lat="41.309107" lon="-7.757309">
        <ele>378.263</ele>
        <time>2021-08-02T17:21:14Z</time>
      </trkpt>
      <trkpt lat="41.309549" lon="-7.757472">
        <ele>379.723</ele>
        <time>2021-08-02T17:21:35Z</time>
      </trkpt>
      <trkpt lat="41.309556" lon="-7.757653">
        <ele>381.181</ele>
        <time>2021-08-02T17:21:57Z</time>
      </trkpt>
      <trkpt lat="41.311124" lon="-7.759274">
        <ele>391.761</ele>
        <time>2021-08-02T17:22:19Z</time>
      </trkpt>
      <trkpt lat="41.311597" lon="-7.760047">
        <ele>397.717</ele>
        <time>2021-08-02T17:22:41Z</time>
      </trkpt>
      <trkpt lat="41.311871" lon="-7.761087">
        <ele>405.608</ele>
        <time>2021-08-02T17:23:03Z</time>
      </trkpt>
      <trkpt lat="41.312150" lon="-7.764018">
        <ele>417.895</ele>
        <time>2021-08-02T17:23:24Z</time>
      </trkpt>
      <trkpt lat="41.312479" lon="-7.764666">
        <ele>423.077</ele>
        <time>2021-08-02T17:23:46Z</time>
      </trkpt>
      <trkpt lat="41.312840" lon="-7.764734">
        <ele>423.246</ele>
        <time>2021-08-02T17:24:08Z</time>
      </trkpt>
      <trkpt lat="41.313568" lon="-7.764387">
        <ele>421.731</ele>
        <time>2021-08-02T17:24:30Z</time>
      </trkpt>
      <trkpt lat="41.314077" lon="-7.764516">
        <ele>422.949</ele>
        <time>2021-08-02T17:24:52Z</time>
      </trkpt>
      <trkpt lat="41.314891" lon="-7.764953">
        <ele>423.070</ele>
        <time>2021-08-02T17:25:14Z</time>
      </trkpt>
      <trkpt lat="41.316222" lon="-7.766338">
        <ele>425.522</ele>
        <time>2021-08-02T17:25:36Z</time>
      </trkpt>
      <trkpt lat="41.316551" lon="-7.766188">
        <ele>428.472</ele>
        <time>2021-08-02T17:25:58Z</time>
      </trkpt>
      <trkpt lat="41.316960" lon="-7.765627">
        <ele>436.531</ele>
        <time>2021-08-02T17:26:20Z</time>
      </trkpt>
      <trkpt lat="41.317339" lon="-7.765553">
        <ele>440.261</ele>
        <time>2021-08-02T17:26:42Z</time>
      </trkpt>
      <trkpt lat="41.317543" lon="-7.766371">
        <ele>446.307</ele>
        <time>2021-08-02T17:27:04Z</time>
      </trkpt>
      <trkpt lat="41.318416" lon="-7.767265">
        <ele>457.108</ele>
        <time>2021-08-02T17:27:26Z</time>
      </trkpt>
      <trkpt lat="41.318947" lon="-7.767344">
        <ele>463.850</ele>
        <time>2021-08-02T17:27:48Z</time>
      </trkpt>
      <trkpt lat="41.319350" lon="-7.767934">
        <ele>466.612</ele>
        <time>2021-08-02T17:28:10Z</time>
      </trkpt>
      <trkpt lat="41.320849" lon="-7.768065">
        <ele>477.691</ele>
        <time>2021-08-02T17:28:32Z</time>
      </trkpt>
      <trkpt lat="41.321384" lon="-7.768336">
        <ele>481.716</ele>
        <time>2021-08-02T17:28:54Z</time>
      </trkpt>
      <trkpt lat="41.321588" lon="-7.768913">
        <ele>487.534</ele>
        <time>2021-08-02T17:29:16Z</time>
      </trkpt>
      <trkpt lat="41.322340" lon="-7.769144">
        <ele>500.665</ele>
        <time>2021-08-02T17:29:38Z</time>
      </trkpt>
      <trkpt lat="41.323336" lon="-7.768996">
        <ele>517.937</ele>
        <time>2021-08-02T17:30:01Z</time>
      </trkpt>
      <trkpt lat="41.324817" lon="-7.769036">
        <ele>530.617</ele>
        <time>2021-08-02T17:30:23Z</time>
      </trkpt>
      <trkpt lat="41.325841" lon="-7.769594">
        <ele>545.032</ele>
        <time>2021-08-02T17:30:45Z</time>
      </trkpt>
      <trkpt lat="41.326915" lon="-7.770936">
        <ele>558.692</ele>
        <time>2021-08-02T17:31:07Z</time>
      </trkpt>
      <trkpt lat="41.327369" lon="-7.771138">
        <ele>563.711</ele>
        <time>2021-08-02T17:31:29Z</time>
      </trkpt>
      <trkpt lat="41.327482" lon="-7.771017">
        <ele>565.808</ele>
        <time>2021-08-02T17:31:52Z</time>
      </trkpt>
      <trkpt lat="41.327397" lon="-7.770588">
        <ele>568.330</ele>
        <time>2021-08-02T17:32:14Z</time>
      </trkpt>
      <trkpt lat="41.327493" lon="-7.769871">
        <ele>573.462</ele>
        <time>2021-08-02T17:32:36Z</time>
      </trkpt>
      <trkpt lat="41.327858" lon="-7.770012">
        <ele>579.451</ele>
        <time>2021-08-02T17:32:58Z</time>
      </trkpt>
      <trkpt lat="41.328060" lon="-7.769200">
        <ele>591.326</ele>
        <time>2021-08-02T17:33:20Z</time>
      </trkpt>
      <trkpt lat="41.328420" lon="-7.769216">
        <ele>603.784</ele>
        <time>2021-08-02T17:33:43Z</time>
      </trkpt>
      <trkpt lat="41.328238" lon="-7.768323">
        <ele>610.265</ele>
        <time>2021-08-02T17:34:05Z</time>
      </trkpt>
      <trkpt lat="41.328534" lon="-7.766495">
        <ele>629.627</ele>
        <time>2021-08-02T17:34:27Z</time>
      </trkpt>
      <trkpt lat="41.328270" lon="-7.765666">
        <ele>630.177</ele>
        <time>2021-08-02T17:34:50Z</time>
      </trkpt>
      <trkpt lat="41.328555" lon="-7.766156">
        <ele>634.278</ele>
        <time>2021-08-02T17:35:12Z</time>
      </trkpt>
      <trkpt lat="41.328838" lon="-7.767290">
        <ele>644.133</ele>
        <time>2021-08-02T17:35:34Z</time>
      </trkpt>
      <trkpt lat="41.329689" lon="-7.768537">
        <ele>656.826</ele>
        <time>2021-08-02T17:35:57Z</time>
      </trkpt>
      <trkpt lat="41.329962" lon="-7.768552">
        <ele>661.308</ele>
        <time>2021-08-02T17:36:19Z</time>
      </trkpt>
      <trkpt lat="41.330152" lon="-7.768320">
        <ele>664.674</ele>
        <time>2021-08-02T17:36:41Z</time>
      </trkpt>
      <trkpt lat="41.329997" lon="-7.767245">
        <ele>673.926</ele>
        <time>2021-08-02T17:37:04Z</time>
      </trkpt>
      <trkpt lat="41.330235" lon="-7.766849">
        <ele>677.775</ele>
        <time>2021-08-02T17:37:26Z</time>
      </trkpt>
      <trkpt lat="41.331292" lon="-7.767012">
        <ele>687.570</ele>
        <time>2021-08-02T17:37:49Z</time>
      </trkpt>
      <trkpt lat="41.331758" lon="-7.767396">
        <ele>691.988</ele>
        <time>2021-08-02T17:38:11Z</time>
      </trkpt>
      <trkpt lat="41.332409" lon="-7.767666">
        <ele>698.279</ele>
        <time>2021-08-02T17:38:34Z</time>
      </trkpt>
      <trkpt lat="41.332601" lon="-7.768055">
        <ele>697.221</ele>
        <time>2021-08-02T17:38:56Z</time>
      </trkpt>
      <trkpt lat="41.332582" lon="-7.768660">
        <ele>694.481</ele>
        <time>2021-08-02T17:39:18Z</time>
      </trkpt>
      <trkpt lat="41.331939" lon="-7.770124">
        <ele>693.837</ele>
        <time>2021-08-02T17:39:41Z</time>
      </trkpt>
      <trkpt lat="41.331961" lon="-7.770416">
        <ele>696.049</ele>
        <time>2021-08-02T17:40:03Z</time>
      </trkpt>
      <trkpt lat="41.332723" lon="-7.771863">
        <ele>707.613</ele>
        <time>2021-08-02T17:40:26Z</time>
      </trkpt>
      <trkpt lat="41.334103" lon="-7.773103">
        <ele>723.008</ele>
        <time>2021-08-02T17:40:49Z</time>
      </trkpt>
      <trkpt lat="41.334969" lon="-7.774590">
        <ele>739.840</ele>
        <time>2021-08-02T17:41:11Z</time>
      </trkpt>
      <trkpt lat="41.335448" lon="-7.776849">
        <ele>753.842</ele>
        <time>2021-08-02T17:41:34Z</time>
      </trkpt>
      <trkpt lat="41.335371" lon="-7.778192">
        <ele>757.491</ele>
        <time>2021-08-02T17:41:56Z</time>
      </trkpt>
      <trkpt lat="41.335570" lon="-7.778928">
        <ele>754.096</ele>
        <time>2021-08-02T17:42:19Z</time>
      </trkpt>
      <trkpt lat="41.335986" lon="-7.779012">
        <ele>760.954</ele>
        <time>2021-08-02T17:42:42Z</time>
      </trkpt>
      <trkpt lat="41.337527" lon="-7.778475">
        <ele>787.235</ele>
        <time>2021-08-02T17:43:04Z</time>
      </trkpt>
      <trkpt lat="41.338102" lon="-7.778391">
        <ele>794.637</ele>
        <time>2021-08-02T17:43:27Z</time>
      </trkpt>
      <trkpt lat="41.339604" lon="-7.778601">
        <ele>807.187</ele>
        <time>2021-08-02T17:43:50Z</time>
      </trkpt>
      <trkpt lat="41.339860" lon="-7.778749">
        <ele>814.258</ele>
        <time>2021-08-02T17:44:12Z</time>
      </trkpt>
      <trkpt lat="41.340019" lon="-7.779073">
        <ele>812.752</ele>
        <time>2021-08-02T17:44:35Z</time>
      </trkpt>
      <trkpt lat="41.339796" lon="-7.779766">
        <ele>816.417</ele>
        <time>2021-08-02T17:44:58Z</time>
      </trkpt>
      <trkpt lat="41.335336" lon="-7.784792">
        <ele>857.208</ele>
        <time>2021-08-02T17:45:21Z</time>
      </trkpt>
      <trkpt lat="41.334971" lon="-7.785057">
        <ele>861.862</ele>
        <time>2021-08-02T17:45:44Z</time>
      </trkpt>
      <trkpt lat="41.334083" lon="-7.785106">
        <ele>867.734</ele>
        <time>2021-08-02T17:46:06Z</time>
      </trkpt>
      <trkpt lat="41.333570" lon="-7.785559">
        <ele>867.513</ele>
        <time>2021-08-02T17:46:29Z</time>
      </trkpt>
      <trkpt lat="41.333413" lon="-7.786244">
        <ele>874.318</ele>
        <time>2021-08-02T17:46:52Z</time>
      </trkpt>
      <trkpt lat="41.333468" lon="-7.786743">
        <ele>879.556</ele>
        <time>2021-08-02T17:47:15Z</time>
      </trkpt>
      <trkpt lat="41.334950" lon="-7.789429">
        <ele>901.967</ele>
        <time>2021-08-02T17:47:38Z</time>
      </trkpt>
      <trkpt lat="41.335385" lon="-7.789648">
        <ele>907.889</ele>
        <time>2021-08-02T17:48:01Z</time>
      </trkpt>
      <trkpt lat="41.337405" lon="-7.789134">
        <ele>932.119</ele>
        <time>2021-08-02T17:48:24Z</time>
      </trkpt>
      <trkpt lat="41.337657" lon="-7.788774">
        <ele>937.197</ele>
        <time>2021-08-02T17:48:47Z</time>
      </trkpt>
      <trkpt lat="41.338038" lon="-7.787577">
        <ele>947.723</ele>
        <time>2021-08-02T17:49:10Z</time>
      </trkpt>
      <trkpt lat="41.338329" lon="-7.787355">
        <ele>952.225</ele>
        <time>2021-08-02T17:49:33Z</time>
      </trkpt>
      <trkpt lat="41.338574" lon="-7.787346">
        <ele>957.608</ele>
        <time>2021-08-02T17:49:56Z</time>
      </trkpt>
      <trkpt lat="41.340760" lon="-7.790900">
        <ele>986.666</ele>
        <time>2021-08-02T17:50:19Z</time>
      </trkpt>
      <trkpt lat="41.340984" lon="-7.791077">
        <ele>989.848</ele>
        <time>2021-08-02T17:50:42Z</time>
      </trkpt>
      <trkpt lat="41.341333" lon="-7.791076">
        <ele>991.287</ele>
        <time>2021-08-02T17:51:05Z</time>
      </trkpt>
      <trkpt lat="41.341847" lon="-7.790850">
        <ele>992.592</ele>
        <time>2021-08-02T17:51:29Z</time>
      </trkpt>
      <trkpt lat="41.342104" lon="-7.790508">
        <ele>995.460</ele>
        <time>2021-08-02T17:51:52Z</time>
      </trkpt>
      <trkpt lat="41.342249" lon="-7.788378">
        <ele>1009.981</ele>
        <time>2021-08-02T17:52:15Z</time>
      </trkpt>
      <trkpt lat="41.342515" lon="-7.787733">
        <ele>1017.633</ele>
        <time>2021-08-02T17:52:38Z</time>
      </trkpt>
      <trkpt lat="41.344228" lon="-7.786492">
        <ele>1027.733</ele>
        <time>2021-08-02T17:53:01Z</time>
      </trkpt>
      <trkpt lat="41.344640" lon="-7.786391">
        <ele>1031.281</ele>
        <time>2021-08-02T17:53:24Z</time>
      </trkpt>
      <trkpt lat="41.345090" lon="-7.786761">
        <ele>1038.961</ele>
        <time>2021-08-02T17:53:48Z</time>
      </trkpt>
      <trkpt lat="41.345484" lon="-7.788103">
        <ele>1038.217</ele>
        <time>2021-08-02T17:54:11Z</time>
      </trkpt>
      <trkpt lat="41.346563" lon="-7.790448">
        <ele>1050.608</ele>
        <time>2021-08-02T17:54:34Z</time>
      </trkpt>
      <trkpt lat="41.346968" lon="-7.790665">
        <ele>1055.115</ele>
        <time>2021-08-02T17:54:58Z</time>
      </trkpt>
      <trkpt lat="41.348695" lon="-7.790377">
        <ele>1070.487</ele>
        <time>2021-08-02T17:55:21Z</time>
      </trkpt>
      <trkpt lat="41.350517" lon="-7.792662">
        <ele>1073.236</ele>
        <time>2021-08-02T17:55:44Z</time>
      </trkpt>
      <trkpt lat="41.350851" lon="-7.792912">
        <ele>1075.951</ele>
        <time>2021-08-02T17:56:08Z</time>
      </trkpt>
      <trkpt lat="41.351285" lon="-7.793011">
        <ele>1076.449</ele>
        <time>2021-08-02T17:56:31Z</time>
      </trkpt>
      <trkpt lat="41.351926" lon="-7.792918">
        <ele>1074.330</ele>
        <time>2021-08-02T17:56:54Z</time>
      </trkpt>
      <trkpt lat="41.354617" lon="-7.791932">
        <ele>1071.172</ele>
        <time>2021-08-02T17:57:18Z</time>
      </trkpt>
      <trkpt lat="41.355158" lon="-7.791904">
        <ele>1073.932</ele>
        <time>2021-08-02T17:57:41Z</time>
      </trkpt>
      <trkpt lat="41.355548" lon="-7.792161">
        <ele>1075.088</ele>
        <time>2021-08-02T17:58:05Z</time>
      </trkpt>
      <trkpt lat="41.355768" lon="-7.792514">
        <ele>1074.624</ele>
        <time>2021-08-02T17:58:28Z</time>
      </trkpt>
      <trkpt lat="41.356892" lon="-7.794851">
        <ele>1075.126</ele>
        <time>2021-08-02T17:58:52Z</time>
      </trkpt>
      <trkpt lat="41.357770" lon="-7.795721">
        <ele>1078.108</ele>
        <time>2021-08-02T17:59:15Z</time>
      </trkpt>
      <trkpt lat="41.358254" lon="-7.796564">
        <ele>1073.675</ele>
        <time>2021-08-02T17:59:39Z</time>
      </trkpt>
      <trkpt lat="41.358693" lon="-7.796627">
        <ele>1074.377</ele>
        <time>2021-08-02T18:00:02Z</time>
      </trkpt>
      <trkpt lat="41.359236" lon="-7.796326">
        <ele>1072.956</ele>
        <time>2021-08-02T18:00:26Z</time>
      </trkpt>
      <trkpt lat="41.360693" lon="-7.796599">
        <ele>1057.131</ele>
        <time>2021-08-02T18:00:50Z</time>
      </trkpt>
      <trkpt lat="41.361533" lon="-7.795596">
        <ele>1047.899</ele>
        <time>2021-08-02T18:01:13Z</time>
      </trkpt>
      <trkpt lat="41.361814" lon="-7.795486">
        <ele>1043.610</ele>
        <time>2021-08-02T18:01:37Z</time>
      </trkpt>
      <trkpt lat="41.362124" lon="-7.795577">
        <ele>1038.232</ele>
        <time>2021-08-02T18:02:01Z</time>
      </trkpt>
      <trkpt lat="41.362765" lon="-7.796735">
        <ele>1024.062</ele>
        <time>2021-08-02T18:02:24Z</time>
      </trkpt>
      <trkpt lat="41.363618" lon="-7.797532">
        <ele>1013.431</ele>
        <time>2021-08-02T18:02:48Z</time>
      </trkpt>
      <trkpt lat="41.364735" lon="-7.800232">
        <ele>991.161</ele>
        <time>2021-08-02T18:03:12Z</time>
      </trkpt>
      <trkpt lat="41.365024" lon="-7.800601">
        <ele>985.807</ele>
        <time>2021-08-02T18:03:35Z</time>
      </trkpt>
      <trkpt lat="41.366190" lon="-7.800797">
        <ele>978.408</ele>
        <time>2021-08-02T18:03:59Z</time>
      </trkpt>
      <trkpt lat="41.366911" lon="-7.800671">
        <ele>976.860</ele>
        <time>2021-08-02T18:04:23Z</time>
      </trkpt>
      <trkpt lat="41.368060" lon="-7.801291">
        <ele>973.912</ele>
        <time>2021-08-02T18:04:47Z</time>
      </trkpt>
      <trkpt lat="41.368994" lon="-7.801296">
        <ele>972.221</ele>
        <time>2021-08-02T18:05:10Z</time>
      </trkpt>
      <trkpt lat="41.369298" lon="-7.801536">
        <ele>974.046</ele>
        <time>2021-08-02T18:05:34Z</time>
      </trkpt>
      <trkpt lat="41.369579" lon="-7.802090">
        <ele>973.894</ele>
        <time>2021-08-02T18:05:58Z</time>
      </trkpt>
      <trkpt lat="41.369903" lon="-7.802340">
        <ele>974.115</ele>
        <time>2021-08-02T18:06:22Z</time>
      </trkpt>
      <trkpt lat="41.370971" lon="-7.802068">
        <ele>977.137</ele>
        <time>2021-08-02T18:06:46Z</time>
      </trkpt>
      <trkpt lat="41.371335" lon="-7.802121">
        <ele>980.037</ele>
        <time>2021-08-02T18:07:10Z</time>
      </trkpt>
      <trkpt lat="41.371566" lon="-7.802350">
        <ele>981.372</ele>
        <time>2021-08-02T18:07:34Z</time>
      </trkpt>
      <trkpt lat="41.372367" lon="-7.804149">
        <ele>975.313</ele>
        <time>2021-08-02T18:07:57Z</time>
      </trkpt>
      <trkpt lat="41.373826" lon="-7.805375">
        <ele>967.214</ele>
        <time>2021-08-02T18:08:21Z</time>
      </trkpt>
      <trkpt lat="41.374633" lon="-7.806359">
        <ele>965.108</ele>
        <time>2021-08-02T18:08:45Z</time>
      </trkpt>
      <trkpt lat="41.374847" lon="-7.807001">
        <ele>962.934</ele>
        <time>2021-08-02T18:09:09Z</time>
      </trkpt>
      <trkpt lat="41.375217" lon="-7.807430">
        <ele>964.956</ele>
        <time>2021-08-02T18:09:33Z</time>
      </trkpt>
      <trkpt lat="41.375875" lon="-7.807597">
        <ele>967.785</ele>
        <time>2021-08-02T18:09:57Z</time>
      </trkpt>
      <trkpt lat="41.376468" lon="-7.808161">
        <ele>970.640</ele>
        <time>2021-08-02T18:10:21Z</time>
      </trkpt>
      <trkpt lat="41.376886" lon="-7.808809">
        <ele>971.778</ele>
        <time>2021-08-02T18:10:45Z</time>
      </trkpt>
      <trkpt lat="41.377313" lon="-7.809841">
        <ele>972.259</ele>
        <time>2021-08-02T18:11:09Z</time>
      </trkpt>
      <trkpt lat="41.378185" lon="-7.812665">
        <ele>970.461</ele>
        <time>2021-08-02T18:11:33Z</time>
      </trkpt>
      <trkpt lat="41.379179" lon="-7.814116">
        <ele>966.131</ele>
        <time>2021-08-02T18:11:57Z</time>
      </trkpt>
      <trkpt lat="41.381131" lon="-7.820317">
        <ele>984.449</ele>
        <time>2021-08-02T18:12:22Z</time>
      </trkpt>
      <trkpt lat="41.381412" lon="-7.820886">
        <ele>985.802</ele>
        <time>2021-08-02T18:12:46Z</time>
      </trkpt>
      <trkpt lat="41.382126" lon="-7.821745">
        <ele>976.322</ele>
        <time>2021-08-02T18:13:10Z</time>
      </trkpt>
      <trkpt lat="41.383695" lon="-7.822432">
        <ele>965.808</ele>
        <time>2021-08-02T18:13:34Z</time>
      </trkpt>
      <trkpt lat="41.385038" lon="-7.822733">
        <ele>953.631</ele>
        <time>2021-08-02T18:13:59Z</time>
      </trkpt>
      <trkpt lat="41.386876" lon="-7.823718">
        <ele>939.883</ele>
        <time>2021-08-02T18:14:23Z</time>
      </trkpt>
      <trkpt lat="41.387384" lon="-7.824551">
        <ele>936.332</ele>
        <time>2021-08-02T18:14:47Z</time>
      </trkpt>
      <trkpt lat="41.387566" lon="-7.826118">
        <ele>933.047</ele>
        <time>2021-08-02T18:15:12Z</time>
      </trkpt>
      <trkpt lat="41.388528" lon="-7.826961">
        <ele>931.025</ele>
        <time>2021-08-02T18:15:36Z</time>
      </trkpt>
      <trkpt lat="41.389366" lon="-7.827217">
        <ele>932.796</ele>
        <time>2021-08-02T18:16:00Z</time>
      </trkpt>
      <trkpt lat="41.390696" lon="-7.827332">
        <ele>936.278</ele>
        <time>2021-08-02T18:16:25Z</time>
      </trkpt>
      <trkpt lat="41.392555" lon="-7.826783">
        <ele>932.338</ele>
        <time>2021-08-02T18:16:49Z</time>
      </trkpt>
      <trkpt lat="41.393730" lon="-7.826634">
        <ele>926.549</ele>
        <time>2021-08-02T18:17:14Z</time>
      </trkpt>
      <trkpt lat="41.395152" lon="-7.827219">
        <ele>918.702</ele>
        <time>2021-08-02T18:17:38Z</time>
      </trkpt>
      <trkpt lat="41.395362" lon="-7.827655">
        <ele>916.422</ele>
        <time>2021-08-02T18:18:03Z</time>
      </trkpt>
      <trkpt lat="41.395695" lon="-7.829575">
        <ele>911.808</ele>
        <time>2021-08-02T18:18:27Z</time>
      </trkpt>
      <trkpt lat="41.394871" lon="-7.831207">
        <ele>904.391</ele>
        <time>2021-08-02T18:18:52Z</time>
      </trkpt>
      <trkpt lat="41.394944" lon="-7.831391">
        <ele>902.673</ele>
        <time>2021-08-02T18:19:16Z</time>
      </trkpt>
      <trkpt lat="41.395417" lon="-7.831502">
        <ele>900.622</ele>
        <time>2021-08-02T18:19:41Z</time>
      </trkpt>
      <trkpt lat="41.396821" lon="-7.830873">
        <ele>890.937</ele>
        <time>2021-08-02T18:20:06Z</time>
      </trkpt>
      <trkpt lat="41.397712" lon="-7.831032">
        <ele>881.775</ele>
        <time>2021-08-02T18:20:30Z</time>
      </trkpt>
      <trkpt lat="41.398212" lon="-7.830737">
        <ele>876.896</ele>
        <time>2021-08-02T18:20:55Z</time>
      </trkpt>
      <trkpt lat="41.400058" lon="-7.830290">
        <ele>860.338</ele>
        <time>2021-08-02T18:21:19Z</time>
      </trkpt>
      <trkpt lat="41.401061" lon="-7.830594">
        <ele>853.448</ele>
        <time>2021-08-02T18:21:44Z</time>
      </trkpt>
      <trkpt lat="41.401352" lon="-7.831069">
        <ele>850.778</ele>
        <time>2021-08-02T18:22:09Z</time>
      </trkpt>
      <trkpt lat="41.401474" lon="-7.831667">
        <ele>852.633</ele>
        <time>2021-08-02T18:22:34Z</time>
      </trkpt>
      <trkpt lat="41.400902" lon="-7.832446">
        <ele>849.926</ele>
        <time>2021-08-02T18:22:58Z</time>
      </trkpt>
      <trkpt lat="41.400609" lon="-7.833111">
        <ele>850.708</ele>
        <time>2021-08-02T18:23:23Z</time>
      </trkpt>
      <trkpt lat="41.400602" lon="-7.833536">
        <ele>853.814</ele>
        <time>2021-08-02T18:23:48Z</time>
      </trkpt>
      <trkpt lat="41.401469" lon="-7.834192">
        <ele>863.946</ele>
        <time>2021-08-02T18:24:13Z</time>
      </trkpt>
      <trkpt lat="41.402536" lon="-7.834346">
        <ele>871.495</ele>
        <time>2021-08-02T18:24:37Z</time>
      </trkpt>
      <trkpt lat="41.403458" lon="-7.835776">
        <ele>879.130</ele>
        <time>2021-08-02T18:25:02Z</time>
      </trkpt>
      <trkpt lat="41.404118" lon="-7.836186">
        <ele>881.128</ele>
        <time>2021-08-02T18:25:27Z</time>
      </trkpt>
      <trkpt lat="41.404167" lon="-7.833877">
        <ele>884.329</ele>
        <time>2021-08-02T18:25:52Z</time>
      </trkpt>
      <trkpt lat="41.404441" lon="-7.832818">
        <ele>883.561</ele>
        <time>2021-08-02T18:26:17Z</time>
      </trkpt>
      <trkpt lat="41.404477" lon="-7.831700">
        <ele>890.171</ele>
        <time>2021-08-02T18:26:42Z</time>
      </trkpt>
      <trkpt lat="41.404880" lon="-7.831752">
        <ele>890.798</ele>
        <time>2021-08-02T18:27:06Z</time>
      </trkpt>
      <trkpt lat="41.406057" lon="-7.832911">
        <ele>890.715</ele>
        <time>2021-08-02T18:27:31Z</time>
      </trkpt>
      <trkpt lat="41.406678" lon="-7.833158">
        <ele>894.326</ele>
        <time>2021-08-02T18:27:56Z</time>
      </trkpt>
      <trkpt lat="41.407043" lon="-7.833102">
        <ele>894.908</ele>
        <time>2021-08-02T18:28:21Z</time>
      </trkpt>
      <trkpt lat="41.407345" lon="-7.832123">
        <ele>903.836</ele>
        <time>2021-08-02T18:28:46Z</time>
      </trkpt>
      <trkpt lat="41.407474" lon="-7.830239">
        <ele>914.018</ele>
        <time>2021-08-02T18:29:11Z</time>
      </trkpt>
      <trkpt lat="41.408723" lon="-7.828975">
        <ele>924.727</ele>
        <time>2021-08-02T18:29:36Z</time>
      </trkpt>
      <trkpt lat="41.409342" lon="-7.827566">
        <ele>931.892</ele>
        <time>2021-08-02T18:30:01Z</time>
      </trkpt>
      <trkpt lat="41.409471" lon="-7.826435">
        <ele>937.250</ele>
        <time>2021-08-02T18:30:26Z</time>
      </trkpt>
      <trkpt lat="41.409038" lon="-7.825789">
        <ele>935.631</ele>
        <time>2021-08-02T18:30:51Z</time>
      </trkpt>
      <trkpt lat="41.408693" lon="-7.824619">
        <ele>935.533</ele>
        <time>2021-08-02T18:31:16Z</time>
      </trkpt>
      <trkpt lat="41.409343" lon="-7.823287">
        <ele>939.523</ele>
        <time>2021-08-02T18:31:42Z</time>
      </trkpt>
      <trkpt lat="41.410686" lon="-7.821966">
        <ele>928.433</ele>
        <time>2021-08-02T18:32:07Z</time>
      </trkpt>
      <trkpt lat="41.411925" lon="-7.821046">
        <ele>922.323</ele>
        <time>2021-08-02T18:32:32Z</time>
      </trkpt>
      <trkpt lat="41.412435" lon="-7.821234">
        <ele>916.615</ele>
        <time>2021-08-02T18:32:57Z</time>
      </trkpt>
      <trkpt lat="41.413101" lon="-7.821217">
        <ele>914.808</ele>
        <time>2021-08-02T18:33:22Z</time>
      </trkpt>
      <trkpt lat="41.413205" lon="-7.821979">
        <ele>907.190</ele>
        <time>2021-08-02T18:33:47Z</time>
      </trkpt>
      <trkpt lat="41.413504" lon="-7.822134">
        <ele>905.782</ele>
        <time>2021-08-02T18:34:13Z</time>
      </trkpt>
      <trkpt lat="41.414627" lon="-7.822223">
        <ele>902.291</ele>
        <time>2021-08-02T18:34:38Z</time>
      </trkpt>
      <trkpt lat="41.416441" lon="-7.821745">
        <ele>893.536</ele>
        <time>2021-08-02T18:35:03Z</time>
      </trkpt>
      <trkpt lat="41.416827" lon="-7.821463">
        <ele>892.144</ele>
        <time>2021-08-02T18:35:28Z</time>
      </trkpt>
      <trkpt lat="41.417390" lon="-7.820625">
        <ele>885.345</ele>
        <time>2021-08-02T18:35:54Z</time>
      </trkpt>
      <trkpt lat="41.417174" lon="-7.819386">
        <ele>885.577</ele>
        <time>2021-08-02T18:36:19Z</time>
      </trkpt>
      <trkpt lat="41.417317" lon="-7.818973">
        <ele>886.697</ele>
        <time>2021-08-02T18:36:44Z</time>
      </trkpt>
      <trkpt lat="41.419324" lon="-7.817022">
        <ele>885.519</ele>
        <time>2021-08-02T18:37:10Z</time>
      </trkpt>
      <trkpt lat="41.419647" lon="-7.816930">
        <ele>884.409</ele>
        <time>2021-08-02T18:37:35Z</time>
      </trkpt>
      <trkpt lat="41.420424" lon="-7.817130">
        <ele>880.319</ele>
        <time>2021-08-02T18:38:00Z</time>
      </trkpt>
      <trkpt lat="41.420894" lon="-7.816673">
        <ele>886.308</ele>
        <time>2021-08-02T18:38:26Z</time>
      </trkpt>
      <trkpt lat="41.421699" lon="-7.816622">
        <ele>890.338</ele>
        <time>2021-08-02T18:38:51Z</time>
      </trkpt>
      <trkpt lat="41.422291" lon="-7.817355">
        <ele>884.840</ele>
        <time>2021-08-02T18:39:17Z</time>
      </trkpt>
      <trkpt lat="41.422825" lon="-7.817544">
        <ele>883.639</ele>
        <time>2021-08-02T18:39:42Z</time>
      </trkpt>
      <trkpt lat="41.423124" lon="-7.816712">
        <ele>894.544</ele>
        <time>2021-08-02T18:40:08Z</time>
      </trkpt>
      <trkpt lat="41.424087" lon="-7.816211">
        <ele>895.522</ele>
        <time>2021-08-02T18:40:33Z</time>
      </trkpt>
      <trkpt lat="41.424305" lon="-7.815749">
        <ele>896.653</ele>
        <time>2021-08-02T18:40:58Z</time>
      </trkpt>
      <trkpt lat="41.425526" lon="-7.815635">
        <ele>891.975</ele>
        <time>2021-08-02T18:41:24Z</time>
      </trkpt>
      <trkpt lat="41.426118" lon="-7.815157">
        <ele>895.575</ele>
        <time>2021-08-02T18:41:49Z</time>
      </trkpt>
      <trkpt lat="41.426314" lon="-7.815176">
        <ele>895.194</ele>
        <time>2021-08-02T18:42:15Z</time>
      </trkpt>
      <trkpt lat="41.426761" lon="-7.814704">
        <ele>903.357</ele>
        <time>2021-08-02T18:42:41Z</time>
      </trkpt>
      <trkpt lat="41.427217" lon="-7.814499">
        <ele>906.322</ele>
        <time>2021-08-02T18:43:06Z</time>
      </trkpt>
      <trkpt lat="41.428201" lon="-7.813735">
        <ele>925.608</ele>
        <time>2021-08-02T18:43:32Z</time>
      </trkpt>
      <trkpt lat="41.428495" lon="-7.813000">
        <ele>939.436</ele>
        <time>2021-08-02T18:43:57Z</time>
      </trkpt>
      <trkpt lat="41.428970" lon="-7.812975">
        <ele>934.538</ele>
        <time>2021-08-02T18:44:23Z</time>
      </trkpt>
      <trkpt lat="41.429354" lon="-7.812783">
        <ele>938.247</ele>
        <time>2021-08-02T18:44:48Z</time>
      </trkpt>
      <trkpt lat="41.430333" lon="-7.811253">
        <ele>947.422</ele>
        <time>2021-08-02T18:45:14Z</time>
      </trkpt>
      <trkpt lat="41.431065" lon="-7.810409">
        <ele>945.360</ele>
        <time>2021-08-02T18:45:40Z</time>
      </trkpt>
      <trkpt lat="41.431351" lon="-7.809680">
        <ele>954.571</ele>
        <time>2021-08-02T18:46:05Z</time>
      </trkpt>
      <trkpt lat="41.431731" lon="-7.809665">
        <ele>955.453</ele>
        <time>2021-08-02T18:46:31Z</time>
      </trkpt>
      <trkpt lat="41.432232" lon="-7.810051">
        <ele>945.043</ele>
        <time>2021-08-02T18:46:57Z</time>
      </trkpt>
      <trkpt lat="41.432541" lon="-7.810082">
        <ele>945.043</ele>
        <time>2021-08-02T18:47:22Z</time>
      </trkpt>
      <trkpt lat="41.433782" lon="-7.808731">
        <ele>959.164</ele>
        <time>2021-08-02T18:47:48Z</time>
      </trkpt>
      <trkpt lat="41.434575" lon="-7.807535">
        <ele>962.310</ele>
        <time>2021-08-02T18:48:14Z</time>
      </trkpt>
      <trkpt lat="41.434853" lon="-7.806864">
        <ele>965.608</ele>
        <time>2021-08-02T18:48:39Z</time>
      </trkpt>
      <trkpt lat="41.435774" lon="-7.805844">
        <ele>967.461</ele>
        <time>2021-08-02T18:49:05Z</time>
      </trkpt>
      <trkpt lat="41.436383" lon="-7.803541">
        <ele>972.033</ele>
        <time>2021-08-02T18:49:31Z</time>
      </trkpt>
      <trkpt lat="41.436883" lon="-7.803020">
        <ele>976.312</ele>
        <time>2021-08-02T18:49:57Z</time>
      </trkpt>
      <trkpt lat="41.437811" lon="-7.802592">
        <ele>974.627</ele>
        <time>2021-08-02T18:50:23Z</time>
      </trkpt>
      <trkpt lat="41.438234" lon="-7.802201">
        <ele>973.625</ele>
        <time>2021-08-02T18:50:48Z</time>
      </trkpt>
      <trkpt lat="41.438871" lon="-7.801091">
        <ele>972.816</ele>
        <time>2021-08-02T18:51:14Z</time>
      </trkpt>
      <trkpt lat="41.439230" lon="-7.799841">
        <ele>976.588</ele>
        <time>2021-08-02T18:51:40Z</time>
      </trkpt>
      <trkpt lat="41.440027" lon="-7.799246">
        <ele>970.158</ele>
        <time>2021-08-02T18:52:06Z</time>
      </trkpt>
      <trkpt lat="41.440557" lon="-7.798974">
        <ele>970.214</ele>
        <time>2021-08-02T18:52:32Z</time>
      </trkpt>
      <trkpt lat="41.441272" lon="-7.798885">
        <ele>964.154</ele>
        <time>2021-08-02T18:52:58Z</time>
      </trkpt>
      <trkpt lat="41.441616" lon="-7.798558">
        <ele>965.309</ele>
        <time>2021-08-02T18:53:24Z</time>
      </trkpt>
      <trkpt lat="41.442161" lon="-7.795391">
        <ele>962.208</ele>
        <time>2021-08-02T18:53:50Z</time>
      </trkpt>
      <trkpt lat="41.442607" lon="-7.794017">
        <ele>960.138</ele>
        <time>2021-08-02T18:54:16Z</time>
      </trkpt>
      <trkpt lat="41.442650" lon="-7.792777">
        <ele>945.460</ele>
        <time>2021-08-02T18:54:42Z</time>
      </trkpt>
      <trkpt lat="41.442902" lon="-7.791955">
        <ele>940.389</ele>
        <time>2021-08-02T18:55:08Z</time>
      </trkpt>
      <trkpt lat="41.442987" lon="-7.790803">
        <ele>941.524</ele>
        <time>2021-08-02T18:55:34Z</time>
      </trkpt>
      <trkpt lat="41.443106" lon="-7.790642">
        <ele>940.642</ele>
        <time>2021-08-02T18:56:00Z</time>
      </trkpt>
      <trkpt lat="41.444641" lon="-7.790345">
        <ele>936.253</ele>
        <time>2021-08-02T18:56:26Z</time>
      </trkpt>
      <trkpt lat="41.446061" lon="-7.791038">
        <ele>935.375</ele>
        <time>2021-08-02T18:56:52Z</time>
      </trkpt>
      <trkpt lat="41.446987" lon="-7.791200">
        <ele>928.535</ele>
        <time>2021-08-02T18:57:18Z</time>
      </trkpt>
      <trkpt lat="41.447972" lon="-7.790878">
        <ele>922.246</ele>
        <time>2021-08-02T18:57:44Z</time>
      </trkpt>
      <trkpt lat="41.448192" lon="-7.790668">
        <ele>917.888</ele>
        <time>2021-08-02T18:58:10Z</time>
      </trkpt>
      <trkpt lat="41.448396" lon="-7.789962">
        <ele>910.316</ele>
        <time>2021-08-02T18:58:36Z</time>
      </trkpt>
      <trkpt lat="41.448241" lon="-7.789028">
        <ele>911.508</ele>
        <time>2021-08-02T18:59:03Z</time>
      </trkpt>
      <trkpt lat="41.447205" lon="-7.786811">
        <ele>907.221</ele>
        <time>2021-08-02T18:59:29Z</time>
      </trkpt>
      <trkpt lat="41.446545" lon="-7.786265">
        <ele>906.443</ele>
        <time>2021-08-02T18:59:55Z</time>
      </trkpt>
      <trkpt lat="41.446307" lon="-7.785869">
        <ele>907.772</ele>
        <time>2021-08-02T19:00:21Z</time>
      </trkpt>
      <trkpt lat="41.446382" lon="-7.785445">
        <ele>907.627</ele>
        <time>2021-08-02T19:00:47Z</time>
      </trkpt>
      <trkpt lat="41.446653" lon="-7.785069">
        <ele>904.125</ele>
        <time>2021-08-02T19:01:14Z</time>
      </trkpt>
      <trkpt lat="41.446653" lon="-7.784684">
        <ele>902.716</ele>
        <time>2021-08-02T19:01:40Z</time>
      </trkpt>
      <trkpt lat="41.445630" lon="-7.783738">
        <ele>904.178</ele>
        <time>2021-08-02T19:02:06Z</time>
      </trkpt>
      <trkpt lat="41.445104" lon="-7.782787">
        <ele>902.368</ele>
        <time>2021-08-02T19:02:33Z</time>
      </trkpt>
      <trkpt lat="41.443951" lon="-7.782884">
        <ele>910.216</ele>
        <time>2021-08-02T19:02:59Z</time>
      </trkpt>
      <trkpt lat="41.443691" lon="-7.782852">
        <ele>911.676</ele>
        <time>2021-08-02T19:03:25Z</time>
      </trkpt>
      <trkpt lat="41.443469" lon="-7.782643">
        <ele>912.513</ele>
        <time>2021-08-02T19:03:51Z</time>
      </trkpt>
      <trkpt lat="41.443469" lon="-7.782427">
        <ele>911.708</ele>
        <time>2021-08-02T19:04:18Z</time>
      </trkpt>
      <trkpt lat="41.444072" lon="-7.782251">
        <ele>909.198</ele>
        <time>2021-08-02T19:04:44Z</time>
      </trkpt>
      <trkpt lat="41.445041" lon="-7.781290">
        <ele>905.080</ele>
        <time>2021-08-02T19:05:10Z</time>
      </trkpt>
      <trkpt lat="41.445179" lon="-7.780526">
        <ele>908.129</ele>
        <time>2021-08-02T19:05:37Z</time>
      </trkpt>
      <trkpt lat="41.444529" lon="-7.777389">
        <ele>918.234</ele>
        <time>2021-08-02T19:06:03Z</time>
      </trkpt>
      <trkpt lat="41.444316" lon="-7.777079">
        <ele>920.162</ele>
        <time>2021-08-02T19:06:30Z</time>
      </trkpt>
      <trkpt lat="41.443582" lon="-7.776780">
        <ele>928.623</ele>
        <time>2021-08-02T19:06:56Z</time>
      </trkpt>
      <trkpt lat="41.443195" lon="-7.776446">
        <ele>930.215</ele>
        <time>2021-08-02T19:07:23Z</time>
      </trkpt>
      <trkpt lat="41.443055" lon="-7.776104">
        <ele>930.625</ele>
        <time>2021-08-02T19:07:49Z</time>
      </trkpt>
      <trkpt lat="41.442968" lon="-7.774959">
        <ele>930.738</ele>
        <time>2021-08-02T19:08:15Z</time>
      </trkpt>
      <trkpt lat="41.445534" lon="-7.772422">
        <ele>937.770</ele>
        <time>2021-08-02T19:08:42Z</time>
      </trkpt>
      <trkpt lat="41.447313" lon="-7.771957">
        <ele>947.617</ele>
        <time>2021-08-02T19:09:08Z</time>
      </trkpt>
      <trkpt lat="41.447538" lon="-7.771732">
        <ele>949.108</ele>
        <time>2021-08-02T19:09:35Z</time>
      </trkpt>
      <trkpt lat="41.447578" lon="-7.770802">
        <ele>953.490</ele>
        <time>2021-08-02T19:10:02Z</time>
      </trkpt>
      <trkpt lat="41.447088" lon="-7.767204">
        <ele>962.782</ele>
        <time>2021-08-02T19:10:28Z</time>
      </trkpt>
      <trkpt lat="41.447973" lon="-7.764273">
        <ele>975.651</ele>
        <time>2021-08-02T19:10:55Z</time>
      </trkpt>
      <trkpt lat="41.449025" lon="-7.763885">
        <ele>983.396</ele>
        <time>2021-08-02T19:11:22Z</time>
      </trkpt>
      <trkpt lat="41.450513" lon="-7.764215">
        <ele>992.844</ele>
        <time>2021-08-02T19:11:48Z</time>
      </trkpt>
      <trkpt lat="41.450687" lon="-7.764545">
        <ele>995.615</ele>
        <time>2021-08-02T19:12:15Z</time>
      </trkpt>
      <trkpt lat="41.450835" lon="-7.766844">
        <ele>1003.627</ele>
        <time>2021-08-02T19:12:42Z</time>
      </trkpt>
      <trkpt lat="41.451169" lon="-7.767110">
        <ele>1008.477</ele>
        <time>2021-08-02T19:13:09Z</time>
      </trkpt>
      <trkpt lat="41.451629" lon="-7.767157">
        <ele>1013.175</ele>
        <time>2021-08-02T19:13:35Z</time>
      </trkpt>
      <trkpt lat="41.451878" lon="-7.766959">
        <ele>1016.928</ele>
        <time>2021-08-02T19:14:02Z</time>
      </trkpt>
      <trkpt lat="41.451972" lon="-7.765831">
        <ele>1022.620</ele>
        <time>2021-08-02T19:14:29Z</time>
      </trkpt>
      <trkpt lat="41.452669" lon="-7.764335">
        <ele>1025.008</ele>
        <time>2021-08-02T19:14:56Z</time>
      </trkpt>
      <trkpt lat="41.454455" lon="-7.763696">
        <ele>1036.654</ele>
        <time>2021-08-02T19:15:23Z</time>
      </trkpt>
      <trkpt lat="41.454719" lon="-7.763701">
        <ele>1039.346</ele>
        <time>2021-08-02T19:15:50Z</time>
      </trkpt>
      <trkpt lat="41.455460" lon="-7.764829">
        <ele>1044.985</ele>
        <time>2021-08-02T19:16:16Z</time>
      </trkpt>
      <trkpt lat="41.456223" lon="-7.765511">
        <ele>1046.230</ele>
        <time>2021-08-02T19:16:43Z</time>
      </trkpt>
      <trkpt lat="41.456768" lon="-7.766437">
        <ele>1045.988</ele>
        <time>2021-08-02T19:17:10Z</time>
      </trkpt>
      <trkpt lat="41.457483" lon="-7.767061">
        <ele>1045.249</ele>
        <time>2021-08-02T19:17:37Z</time>
      </trkpt>
      <trkpt lat="41.460494" lon="-7.767625">
        <ele>1042.351</ele>
        <time>2021-08-02T19:18:04Z</time>
      </trkpt>
      <trkpt lat="41.461205" lon="-7.768467">
        <ele>1036.671</ele>
        <time>2021-08-02T19:18:31Z</time>
      </trkpt>
      <trkpt lat="41.461812" lon="-7.768942">
        <ele>1038.259</ele>
        <time>2021-08-02T19:18:58Z</time>
      </trkpt>
      <trkpt lat="41.461746" lon="-7.769209">
        <ele>1037.903</ele>
        <time>2021-08-02T19:19:25Z</time>
      </trkpt>
      <trkpt lat="41.460274" lon="-7.770913">
        <ele>1029.523</ele>
        <time>2021-08-02T19:19:52Z</time>
      </trkpt>
      <trkpt lat="41.459825" lon="-7.772075">
        <ele>1024.208</ele>
        <time>2021-08-02T19:20:19Z</time>
      </trkpt>
      <trkpt lat="41.459812" lon="-7.772638">
        <ele>1022.142</ele>
        <time>2021-08-02T19:20:47Z</time>
      </trkpt>
      <trkpt lat="41.460413" lon="-7.774030">
        <ele>1015.914</ele>
        <time>2021-08-02T19:21:14Z</time>
      </trkpt>
      <trkpt lat="41.460947" lon="-7.774695">
        <ele>1013.663</ele>
        <time>2021-08-02T19:21:41Z</time>
      </trkpt>
      <trkpt lat="41.464305" lon="-7.775766">
        <ele>1014.088</ele>
        <time>2021-08-02T19:22:08Z</time>
      </trkpt>
      <trkpt lat="41.463748" lon="-7.779139">
        <ele>991.426</ele>
        <time>2021-08-02T19:22:35Z</time>
      </trkpt>
      <trkpt lat="41.463868" lon="-7.779691">
        <ele>988.197</ele>
        <time>2021-08-02T19:23:02Z</time>
      </trkpt>
      <trkpt lat="41.464180" lon="-7.780034">
        <ele>988.919</ele>
        <time>2021-08-02T19:23:30Z</time>
      </trkpt>
      <trkpt lat="41.466068" lon="-7.780716">
        <ele>990.559</ele>
        <time>2021-08-02T19:23:57Z</time>
      </trkpt>
      <trkpt lat="41.466119" lon="-7.780867">
        <ele>989.966</ele>
        <time>2021-08-02T19:24:24Z</time>
      </trkpt>
      <trkpt lat="41.465869" lon="-7.781632">
        <ele>980.129</ele>
        <time>2021-08-02T19:24:52Z</time>
      </trkpt>
      <trkpt lat="41.466050" lon="-7.782576">
        <ele>975.821</ele>
        <time>2021-08-02T19:25:19Z</time>
      </trkpt>
      <trkpt lat="41.467678" lon="-7.784876">
        <ele>957.008</ele>
        <time>2021-08-02T19:25:46Z</time>
      </trkpt>
      <trkpt lat="41.469526" lon="-7.786351">
        <ele>940.493</ele>
        <time>2021-08-02T19:26:14Z</time>
      </trkpt>
      <trkpt lat="41.470382" lon="-7.786559">
        <ele>936.965</ele>
        <time>2021-08-02T19:26:41Z</time>
      </trkpt>
      <trkpt lat="41.471495" lon="-7.786570">
        <ele>931.454</ele>
        <time>2021-08-02T19:27:09Z</time>
      </trkpt>
      <trkpt lat="41.472577" lon="-7.787248">
        <ele>917.939</ele>
        <time>2021-08-02T19:27:36Z</time>
      </trkpt>
      <trkpt lat="41.473397" lon="-7.787311">
        <ele>916.247</ele>
        <time>2021-08-02T19:28:04Z</time>
      </trkpt>
      <trkpt lat="41.473580" lon="-7.787410">
        <ele>915.398</ele>
        <time>2021-08-02T19:28:31Z</time>
      </trkpt>
      <trkpt lat="41.474039" lon="-7.788155">
        <ele>900.610</ele>
        <time>2021-08-02T19:28:59Z</time>
      </trkpt>
      <trkpt lat="41.475801" lon="-7.789186">
        <ele>890.790</ele>
        <time>2021-08-02T19:29:26Z</time>
      </trkpt>
      <trkpt lat="41.477901" lon="-7.788892">
        <ele>875.927</ele>
        <time>2021-08-02T19:29:54Z</time>
      </trkpt>
      <trkpt lat="41.479020" lon="-7.789017">
        <ele>865.268</ele>
        <time>2021-08-02T19:30:21Z</time>
      </trkpt>
      <trkpt lat="41.479737" lon="-7.788862">
        <ele>856.914</ele>
        <time>2021-08-02T19:30:49Z</time>
      </trkpt>
      <trkpt lat="41.480212" lon="-7.788518">
        <ele>850.608</ele>
        <time>2021-08-02T19:31:17Z</time>
      </trkpt>
      <trkpt lat="41.480585" lon="-7.787689">
        <ele>853.599</ele>
        <time>2021-08-02T19:31:44Z</time>
      </trkpt>
      <trkpt lat="41.480913" lon="-7.787728">
        <ele>846.641</ele>
        <time>2021-08-02T19:32:12Z</time>
      </trkpt>
      <trkpt lat="41.481581" lon="-7.788173">
        <ele>831.770</ele>
        <time>2021-08-02T19:32:40Z</time>
      </trkpt>
      <trkpt lat="41.481946" lon="-7.788648">
        <ele>825.945</ele>
        <time>2021-08-02T19:33:07Z</time>
      </trkpt>
      <trkpt lat="41.482413" lon="-7.788482">
        <ele>822.383</ele>
        <time>2021-08-02T19:33:35Z</time>
      </trkpt>
      <trkpt lat="41.482729" lon="-7.788154">
        <ele>821.864</ele>
        <time>2021-08-02T19:34:03Z</time>
      </trkpt>
      <trkpt lat="41.483333" lon="-7.788457">
        <ele>809.236</ele>
        <time>2021-08-02T19:34:30Z</time>
      </trkpt>
      <trkpt lat="41.483644" lon="-7.788450">
        <ele>804.356</ele>
        <time>2021-08-02T19:34:58Z</time>
      </trkpt>
      <trkpt lat="41.484248" lon="-7.787834">
        <ele>806.588</ele>
        <time>2021-08-02T19:35:26Z</time>
      </trkpt>
      <trkpt lat="41.485811" lon="-7.789728">
        <ele>786.524</ele>
        <time>2021-08-02T19:35:54Z</time>
      </trkpt>
      <trkpt lat="41.486116" lon="-7.790509">
        <ele>782.426</ele>
        <time>2021-08-02T19:36:21Z</time>
      </trkpt>
      <trkpt lat="41.486217" lon="-7.792022">
        <ele>778.908</ele>
        <time>2021-08-02T19:36:49Z</time>
      </trkpt>
      <trkpt lat="41.485792" lon="-7.794629">
        <ele>768.115</ele>
        <time>2021-08-02T19:37:17Z</time>
      </trkpt>
      <trkpt lat="41.485295" lon="-7.795071">
        <ele>762.457</ele>
        <time>2021-08-02T19:37:45Z</time>
      </trkpt>
      <trkpt lat="41.484746" lon="-7.794735">
        <ele>760.836</ele>
        <time>2021-08-02T19:38:13Z</time>
      </trkpt>
      <trkpt lat="41.483688" lon="-7.795340">
        <ele>748.361</ele>
        <time>2021-08-02T19:38:41Z</time>
      </trkpt>
      <trkpt lat="41.483409" lon="-7.795700">
        <ele>742.289</ele>
        <time>2021-08-02T19:39:08Z</time>
      </trkpt>
      <trkpt lat="41.482606" lon="-7.797436">
        <ele>731.090</ele>
        <time>2021-08-02T19:39:36Z</time>
      </trkpt>
      <trkpt lat="41.482667" lon="-7.798632">
        <ele>730.052</ele>
        <time>2021-08-02T19:40:04Z</time>
      </trkpt>
      <trkpt lat="41.483415" lon="-7.800703">
        <ele>717.952</ele>
        <time>2021-08-02T19:40:32Z</time>
      </trkpt>
      <trkpt lat="41.483453" lon="-7.801534">
        <ele>711.738</ele>
        <time>2021-08-02T19:41:00Z</time>
      </trkpt>
      <trkpt lat="41.482903" lon="-7.803663">
        <ele>696.170</ele>
        <time>2021-08-02T19:41:28Z</time>
      </trkpt>
      <trkpt lat="41.482951" lon="-7.803858">
        <ele>695.817</ele>
        <time>2021-08-02T19:41:56Z</time>
      </trkpt>
      <trkpt lat="41.484107" lon="-7.802710">
        <ele>696.008</ele>
        <time>2021-08-02T19:42:24Z</time>
      </trkpt>
      <trkpt lat="41.484663" lon="-7.800989">
        <ele>685.270</ele>
        <time>2021-08-02T19:42:52Z</time>
      </trkpt>
      <trkpt lat="41.484973" lon="-7.800655">
        <ele>680.462</ele>
        <time>2021-08-02T19:43:20Z</time>
      </trkpt>
      <trkpt lat="41.485307" lon="-7.800675">
        <ele>677.361</ele>
        <time>2021-08-02T19:43:49Z</time>
      </trkpt>
      <trkpt lat="41.486030" lon="-7.801423">
        <ele>670.776</ele>
        <time>2021-08-02T19:44:17Z</time>
      </trkpt>
      <trkpt lat="41.486763" lon="-7.801708">
        <ele>669.314</ele>
        <time>2021-08-02T19:44:45Z</time>
      </trkpt>
      <trkpt lat="41.487204" lon="-7.801664">
        <ele>668.435</ele>
        <time>2021-08-02T19:45:13Z</time>
      </trkpt>
      <trkpt lat="41.488082" lon="-7.801243">
        <ele>665.237</ele>
        <time>2021-08-02T19:45:41Z</time>
      </trkpt>
      <trkpt lat="41.488834" lon="-7.801161">
        <ele>657.977</ele>
        <time>2021-08-02T19:46:09Z</time>
      </trkpt>
      <trkpt lat="41.489497" lon="-7.801370">
        <ele>654.769</ele>
        <time>2021-08-02T19:46:37Z</time>
      </trkpt>
      <trkpt lat="41.490146" lon="-7.801351">
        <ele>650.004</ele>
        <time>2021-08-02T19:47:06Z</time>
      </trkpt>
      <trkpt lat="41.490838" lon="-7.800956">
        <ele>644.124</ele>
        <time>2021-08-02T19:47:34Z</time>
      </trkpt>
      <trkpt lat="41.492566" lon="-7.800465">
        <ele>634.908</ele>
        <time>2021-08-02T19:48:02Z</time>
      </trkpt>
      <trkpt lat="41.493072" lon="-7.800553">
        <ele>633.733</ele>
        <time>2021-08-02T19:48:30Z</time>
      </trkpt>
      <trkpt lat="41.493569" lon="-7.801004">
        <ele>634.635</ele>
        <time>2021-08-02T19:48:58Z</time>
      </trkpt>
      <trkpt lat="41.493721" lon="-7.801012">
        <ele>637.054</ele>
        <time>2021-08-02T19:49:27Z</time>
      </trkpt>
      <trkpt lat="41.494353" lon="-7.800484">
        <ele>640.829</ele>
        <time>2021-08-02T19:49:55Z</time>
      </trkpt>
      <trkpt lat="41.494938" lon="-7.800283">
        <ele>645.547</ele>
        <time>2021-08-02T19:50:23Z</time>
      </trkpt>
      <trkpt lat="41.495729" lon="-7.799251">
        <ele>650.898</ele>
        <time>2021-08-02T19:50:52Z</time>
      </trkpt>
      <trkpt lat="41.496496" lon="-7.797783">
        <ele>652.530</ele>
        <time>2021-08-02T19:51:20Z</time>
      </trkpt>
      <trkpt lat="41.496930" lon="-7.797711">
        <ele>655.280</ele>
        <time>2021-08-02T19:51:48Z</time>
      </trkpt>
      <trkpt lat="41.498329" lon="-7.798131">
        <ele>661.972</ele>
        <time>2021-08-02T19:52:17Z</time>
      </trkpt>
      <trkpt lat="41.499037" lon="-7.797912">
        <ele>667.613</ele>
        <time>2021-08-02T19:52:45Z</time>
      </trkpt>
      <trkpt lat="41.500000" lon="-7.797285">
        <ele>672.814</ele>
        <time>2021-08-02T19:53:13Z</time>
      </trkpt>
      <trkpt lat="41.500894" lon="-7.797611">
        <ele>677.108</ele>
        <time>2021-08-02T19:53:42Z</time>
      </trkpt>
      <trkpt lat="41.501084" lon="-7.797508">
        <ele>678.134</ele>
        <time>2021-08-02T19:54:10Z</time>
      </trkpt>
      <trkpt lat="41.501327" lon="-7.797025">
        <ele>683.046</ele>
        <time>2021-08-02T19:54:39Z</time>
      </trkpt>
      <trkpt lat="41.501653" lon="-7.795523">
        <ele>686.935</ele>
        <time>2021-08-02T19:55:07Z</time>
      </trkpt>
      <trkpt lat="41.501549" lon="-7.795061">
        <ele>687.180</ele>
        <time>2021-08-02T19:55:35Z</time>
      </trkpt>
      <trkpt lat="41.501651" lon="-7.794839">
        <ele>687.878</ele>
        <time>2021-08-02T19:56:04Z</time>
      </trkpt>
      <trkpt lat="41.501785" lon="-7.794833">
        <ele>688.069</ele>
        <time>2021-08-02T19:56:32Z</time>
      </trkpt>
      <trkpt lat="41.502622" lon="-7.795502">
        <ele>688.431</ele>
        <time>2021-08-02T19:57:01Z</time>
      </trkpt>
      <trkpt lat="41.503078" lon="-7.795553">
        <ele>684.081</ele>
        <time>2021-08-02T19:57:29Z</time>
      </trkpt>
      <trkpt lat="41.505253" lon="-7.794116">
        <ele>660.693</ele>
        <time>2021-08-02T19:57:58Z</time>
      </trkpt>
      <trkpt lat="41.506090" lon="-7.793212">
        <ele>652.965</ele>
        <time>2021-08-02T19:58:26Z</time>
      </trkpt>
      <trkpt lat="41.507077" lon="-7.793128">
        <ele>646.221</ele>
        <time>2021-08-02T19:58:55Z</time>
      </trkpt>
      <trkpt lat="41.507827" lon="-7.792878">
        <ele>641.408</ele>
        <time>2021-08-02T19:59:24Z</time>
      </trkpt>
      <trkpt lat="41.509844" lon="-7.793459">
        <ele>632.256</ele>
        <time>2021-08-02T19:59:52Z</time>
      </trkpt>
      <trkpt lat="41.510274" lon="-7.793759">
        <ele>630.188</ele>
        <time>2021-08-02T20:00:21Z</time>
      </trkpt>
      <trkpt lat="41.510935" lon="-7.795057">
        <ele>632.437</ele>
        <time>2021-08-02T20:00:50Z</time>
      </trkpt>
      <trkpt lat="41.511110" lon="-7.796918">
        <ele>625.942</ele>
        <time>2021-08-02T20:01:18Z</time>
      </trkpt>
      <trkpt lat="41.511302" lon="-7.797141">
        <ele>621.920</ele>
        <time>2021-08-02T20:01:47Z</time>
      </trkpt>
      <trkpt lat="41.512195" lon="-7.797585">
        <ele>609.671</ele>
        <time>2021-08-02T20:02:16Z</time>
      </trkpt>
      <trkpt lat="41.513454" lon="-7.797683">
        <ele>595.623</ele>
        <time>2021-08-02T20:02:44Z</time>
      </trkpt>
      <trkpt lat="41.513807" lon="-7.797860">
        <ele>593.023</ele>
        <time>2021-08-02T20:03:13Z</time>
      </trkpt>
      <trkpt lat="41.514545" lon="-7.798841">
        <ele>593.693</ele>
        <time>2021-08-02T20:03:42Z</time>
      </trkpt>
      <trkpt lat="41.514873" lon="-7.799609">
        <ele>594.065</ele>
        <time>2021-08-02T20:04:11Z</time>
      </trkpt>
      <trkpt lat="41.515151" lon="-7.800768">
        <ele>591.221</ele>
        <time>2021-08-02T20:04:39Z</time>
      </trkpt>
      <trkpt lat="41.516252" lon="-7.802612">
        <ele>584.908</ele>
        <time>2021-08-02T20:05:08Z</time>
      </trkpt>
      <trkpt lat="41.517183" lon="-7.805161">
        <ele>578.916</ele>
        <time>2021-08-02T20:05:37Z</time>
      </trkpt>
      <trkpt lat="41.517461" lon="-7.805583">
        <ele>572.338</ele>
        <time>2021-08-02T20:06:06Z</time>
      </trkpt>
      <trkpt lat="41.520163" lon="-7.807211">
        <ele>548.387</ele>
        <time>2021-08-02T20:06:35Z</time>
      </trkpt>
      <trkpt lat="41.520462" lon="-7.807268">
        <ele>543.882</ele>
        <time>2021-08-02T20:07:04Z</time>
      </trkpt>
      <trkpt lat="41.520634" lon="-7.807032">
        <ele>538.550</ele>
        <time>2021-08-02T20:07:33Z</time>
      </trkpt>
      <trkpt lat="41.520558" lon="-7.806758">
        <ele>534.661</ele>
        <time>2021-08-02T20:08:02Z</time>
      </trkpt>
      <trkpt lat="41.519499" lon="-7.806329">
        <ele>536.813</ele>
        <time>2021-08-02T20:08:31Z</time>
      </trkpt>
      <trkpt lat="41.518481" lon="-7.805483">
        <ele>533.843</ele>
        <time>2021-08-02T20:09:00Z</time>
      </trkpt>
      <trkpt lat="41.518109" lon="-7.804870">
        <ele>530.544</ele>
        <time>2021-08-02T20:09:29Z</time>
      </trkpt>
      <trkpt lat="41.517987" lon="-7.803880">
        <ele>522.805</ele>
        <time>2021-08-02T20:09:58Z</time>
      </trkpt>
      <trkpt lat="41.518751" lon="-7.802285">
        <ele>510.815</ele>
        <time>2021-08-02T20:10:27Z</time>
      </trkpt>
      <trkpt lat="41.518855" lon="-7.801511">
        <ele>502.708</ele>
        <time>2021-08-02T20:10:56Z</time>
      </trkpt>
      <trkpt lat="41.518507" lon="-7.800571">
        <ele>498.461</ele>
        <time>2021-08-02T20:11:25Z</time>
      </trkpt>
      <trkpt lat="41.517895" lon="-7.799961">
        <ele>501.093</ele>
        <time>2021-08-02T20:11:54Z</time>
      </trkpt>
      <trkpt lat="41.517596" lon="-7.799441">
        <ele>496.212</ele>
        <time>2021-08-02T20:12:23Z</time>
      </trkpt>
      <trkpt lat="41.517195" lon="-7.796776">
        <ele>483.557</ele>
        <time>2021-08-02T20:12:52Z</time>
      </trkpt>
      <trkpt lat="41.517185" lon="-7.795953">
        <ele>481.875</ele>
        <time>2021-08-02T20:13:21Z</time>
      </trkpt>
      <trkpt lat="41.517599" lon="-7.794293">
        <ele>470.996</ele>
        <time>2021-08-02T20:13:51Z</time>
      </trkpt>
      <trkpt lat="41.517696" lon="-7.794207">
        <ele>468.688</ele>
        <time>2021-08-02T20:14:20Z</time>
      </trkpt>
      <trkpt lat="41.518222" lon="-7.794312">
        <ele>466.088</ele>
        <time>2021-08-02T20:14:49Z</time>
      </trkpt>
      <trkpt lat="41.519206" lon="-7.792789">
        <ele>458.585</ele>
        <time>2021-08-02T20:15:18Z</time>
      </trkpt>
      <trkpt lat="41.519771" lon="-7.793248">
        <ele>459.189</ele>
        <time>2021-08-02T20:15:47Z</time>
      </trkpt>
      <trkpt lat="41.520069" lon="-7.792930">
        <ele>454.917</ele>
        <time>2021-08-02T20:16:17Z</time>
      </trkpt>
      <trkpt lat="41.520630" lon="-7.793248">
        <ele>451.508</ele>
        <time>2021-08-02T20:16:46Z</time>
      </trkpt>
      <trkpt lat="41.522855" lon="-7.793385">
        <ele>437.385</ele>
        <time>2021-08-02T20:17:15Z</time>
      </trkpt>
      <trkpt lat="41.524380" lon="-7.793133">
        <ele>424.637</ele>
        <time>2021-08-02T20:17:44Z</time>
      </trkpt>
      <trkpt lat="41.524673" lon="-7.792950">
        <ele>420.816</ele>
        <time>2021-08-02T20:18:14Z</time>
      </trkpt>
      <trkpt lat="41.525600" lon="-7.791869">
        <ele>411.171</ele>
        <time>2021-08-02T20:18:43Z</time>
      </trkpt>
      <trkpt lat="41.526656" lon="-7.793028">
        <ele>399.319</ele>
        <time>2021-08-02T20:19:12Z</time>
      </trkpt>
      <trkpt lat="41.526926" lon="-7.793069">
        <ele>397.670</ele>
        <time>2021-08-02T20:19:42Z</time>
      </trkpt>
      <trkpt lat="41.527129" lon="-7.792855">
        <ele>395.552</ele>
        <time>2021-08-02T20:20:11Z</time>
      </trkpt>
      <trkpt lat="41.527228" lon="-7.792292">
        <ele>391.682</ele>
        <time>2021-08-02T20:20:41Z</time>
      </trkpt>
      <trkpt lat="41.527076" lon="-7.790826">
        <ele>383.862</ele>
        <time>2021-08-02T20:21:10Z</time>
      </trkpt>
      <trkpt lat="41.526875" lon="-7.790249">
        <ele>379.483</ele>
        <time>2021-08-02T20:21:39Z</time>
      </trkpt>
      <trkpt lat="41.526393" lon="-7.789515">
        <ele>370.811</ele>
        <time>2021-08-02T20:22:09Z</time>
      </trkpt>
      <trkpt lat="41.525753" lon="-7.789306">
        <ele>364.408</ele>
        <time>2021-08-02T20:22:38Z</time>
      </trkpt>
      <trkpt lat="41.525105" lon="-7.788528">
        <ele>355.873</ele>
        <time>2021-08-02T20:23:08Z</time>
      </trkpt>
      <trkpt lat="41.523789" lon="-7.787634">
        <ele>350.695</ele>
        <time>2021-08-02T20:23:37Z</time>
      </trkpt>
      <trkpt lat="41.523182" lon="-7.787389">
        <ele>352.694</ele>
        <time>2021-08-02T20:24:07Z</time>
      </trkpt>
      <trkpt lat="41.522934" lon="-7.786845">
        <ele>351.889</ele>
        <time>2021-08-02T20:24:36Z</time>
      </trkpt>
      <trkpt lat="41.523334" lon="-7.785844">
        <ele>357.717</ele>
        <time>2021-08-02T20:25:06Z</time>
      </trkpt>
      <trkpt lat="41.523852" lon="-7.785794">
        <ele>356.558</ele>
        <time>2021-08-02T20:25:35Z</time>
      </trkpt>
      <trkpt lat="41.525025" lon="-7.786332">
        <ele>349.650</ele>
        <time>2021-08-02T20:26:05Z</time>
      </trkpt>
      <trkpt lat="41.525665" lon="-7.786012">
        <ele>351.050</ele>
        <time>2021-08-02T20:26:34Z</time>
      </trkpt>
      <trkpt lat="41.526175" lon="-7.786040">
        <ele>348.826</ele>
        <time>2021-08-02T20:27:04Z</time>
      </trkpt>
      <trkpt lat="41.526975" lon="-7.785587">
        <ele>343.547</ele>
        <time>2021-08-02T20:27:34Z</time>
      </trkpt>
      <trkpt lat="41.527625" lon="-7.784685">
        <ele>339.011</ele>
        <time>2021-08-02T20:28:03Z</time>
      </trkpt>
      <trkpt lat="41.528939" lon="-7.784375">
        <ele>327.608</ele>
        <time>2021-08-02T20:28:33Z</time>
      </trkpt>
      <trkpt lat="41.529620" lon="-7.784340">
        <ele>319.049</ele>
        <time>2021-08-02T20:29:02Z</time>
      </trkpt>
      <trkpt lat="41.530835" lon="-7.783901">
        <ele>315.461</ele>
        <time>2021-08-02T20:29:32Z</time>
      </trkpt>
      <trkpt lat="41.531857" lon="-7.784460">
        <ele>308.870</ele>
        <time>2021-08-02T20:30:02Z</time>
      </trkpt>
      <trkpt lat="41.532535" lon="-7.784649">
        <ele>306.495</ele>
        <time>2021-08-02T20:30:32Z</time>
      </trkpt>
      <trkpt lat="41.536441" lon="-7.783858">
        <ele>284.283</ele>
        <time>2021-08-02T20:31:01Z</time>
      </trkpt>
      <trkpt lat="41.536888" lon="-7.783844">
        <ele>279.214</ele>
        <time>2021-08-02T20:31:31Z</time>
      </trkpt>
      <trkpt lat="41.537420" lon="-7.784068">
        <ele>279.016</ele>
        <time>2021-08-02T20:32:01Z</time>
      </trkpt>
      <trkpt lat="41.537845" lon="-7.784845">
        <ele>274.346</ele>
        <time>2021-08-02T20:32:31Z</time>
      </trkpt>
      <trkpt lat="41.537887" lon="-7.785297">
        <ele>274.636</ele>
        <time>2021-08-02T20:33:01Z</time>
      </trkpt>
      <trkpt lat="41.537492" lon="-7.786452">
        <ele>270.117</ele>
        <time>2021-08-02T20:33:30Z</time>
      </trkpt>
      <trkpt lat="41.536390" lon="-7.788314">
        <ele>262.018</ele>
        <time>2021-08-02T20:34:00Z</time>
      </trkpt>
      <trkpt lat="41.535227" lon="-7.788874">
        <ele>251.908</ele>
        <time>2021-08-02T20:34:30Z</time>
      </trkpt>
      <trkpt lat="41.535208" lon="-7.788902">
        <ele>250.690</ele>
        <time>2021-08-02T20:35:00Z</time>
      </trkpt>
      <trkpt lat="41.535338" lon="-7.789205">
        <ele>247.182</ele>
        <time>2021-08-02T20:35:30Z</time>
      </trkpt>
      <trkpt lat="41.535796" lon="-7.789645">
        <ele>241.721</ele>
        <time>2021-08-02T20:36:00Z</time>
      </trkpt>
      <trkpt lat="41.537037" lon="-7.789950">
        <ele>248.116</ele>
        <time>2021-08-02T20:36:30Z</time>
      </trkpt>
      <trkpt lat="41.538683" lon="-7.789350">
        <ele>232.274</ele>
        <time>2021-08-02T20:37:00Z</time>
      </trkpt>
      <trkpt lat="41.540321" lon="-7.790229">
        <ele>238.165</ele>
        <time>2021-08-02T20:37:30Z</time>
      </trkpt>
      <trkpt lat="41.540458" lon="-7.791120">
        <ele>232.037</ele>
        <time>2021-08-02T20:38:00Z</time>
      </trkpt>
      <trkpt lat="41.540602" lon="-7.792515">
        <ele>242.177</ele>
        <time>2021-08-02T20:38:30Z</time>
      </trkpt>
      <trkpt lat="41.540434" lon="-7.793963">
        <ele>237.058</ele>
        <time>2021-08-02T20:39:00Z</time>
      </trkpt>
      <trkpt lat="41.540968" lon="-7.794617">
        <ele>243.052</ele>
        <time>2021-08-02T20:39:30Z</time>
      </trkpt>
      <trkpt lat="41.541257" lon="-7.795449">
        <ele>243.317</ele>
        <time>2021-08-02T20:40:00Z</time>
      </trkpt>
      <trkpt lat="41.542000" lon="-7.796060">
        <ele>248.008</ele>
        <time>2021-08-02T20:40:30Z</time>
      </trkpt>
      <trkpt lat="41.542662" lon="-7.796490">
        <ele>249.692</ele>
        <time>2021-08-02T20:41:00Z</time>
      </trkpt>
      <trkpt lat="41.542779" lon="-7.796898">
        <ele>241.574</ele>
        <time>2021-08-02T20:41:30Z</time>
      </trkpt>
      <trkpt lat="41.542833" lon="-7.796923">
        <ele>241.723</ele>
        <time>2021-08-02T20:42:01Z</time>
      </trkpt>
      <trkpt lat="41.543550" lon="-7.797673">
        <ele>244.368</ele>
        <time>2021-08-02T20:42:31Z</time>
      </trkpt>
      <trkpt lat="41.543647" lon="-7.798075">
        <ele>242.116</ele>
        <time>2021-08-02T20:43:01Z</time>
      </trkpt>
      <trkpt lat="41.543607" lon="-7.798472">
        <ele>246.067</ele>
        <time>2021-08-02T20:43:31Z</time>
      </trkpt>
      <trkpt lat="41.543316" lon="-7.798906">
        <ele>249.669</ele>
        <time>2021-08-02T20:44:01Z</time>
      </trkpt>
      <trkpt lat="41.542414" lon="-7.799229">
        <ele>250.049</ele>
        <time>2021-08-02T20:44:31Z</time>
      </trkpt>
      <trkpt lat="41.542020" lon="-7.799751">
        <ele>252.046</ele>
        <time>2021-08-02T20:45:02Z</time>
      </trkpt>
      <trkpt lat="41.541854" lon="-7.800256">
        <ele>256.588</ele>
        <time>2021-08-02T20:45:32Z</time>
      </trkpt>
      <trkpt lat="41.541739" lon="-7.803418">
        <ele>272.116</ele>
        <time>2021-08-02T20:46:02Z</time>
      </trkpt>
      <trkpt lat="41.541495" lon="-7.804592">
        <ele>280.408</ele>
        <time>2021-08-02T20:46:32Z</time>
      </trkpt>
      <trkpt lat="41.541288" lon="-7.805280">
        <ele>280.451</ele>
        <time>2021-08-02T20:47:03Z</time>
      </trkpt>
      <trkpt lat="41.540438" lon="-7.806881">
        <ele>286.533</ele>
        <time>2021-08-02T20:47:33Z</time>
      </trkpt>
      <trkpt lat="41.540274" lon="-7.807413">
        <ele>292.572</ele>
        <time>2021-08-02T20:48:03Z</time>
      </trkpt>
      <trkpt lat="41.540328" lon="-7.808206">
        <ele>298.077</ele>
        <time>2021-08-02T20:48:34Z</time>
      </trkpt>
      <trkpt lat="41.541006" lon="-7.809975">
        <ele>311.195</ele>
        <time>2021-08-02T20:49:04Z</time>
      </trkpt>
      <trkpt lat="41.541050" lon="-7.810430">
        <ele>314.226</ele>
        <time>2021-08-02T20:49:34Z</time>
      </trkpt>
      <trkpt lat="41.540864" lon="-7.811013">
        <ele>318.738</ele>
        <time>2021-08-02T20:50:05Z</time>
      </trkpt>
      <trkpt lat="41.540348" lon="-7.811746">
        <ele>319.278</ele>
        <time>2021-08-02T20:50:35Z</time>
      </trkpt>
      <trkpt lat="41.540286" lon="-7.812334">
        <ele>324.614</ele>
        <time>2021-08-02T20:51:05Z</time>
      </trkpt>
      <trkpt lat="41.540498" lon="-7.812742">
        <ele>330.354</ele>
        <time>2021-08-02T20:51:36Z</time>
      </trkpt>
      <trkpt lat="41.541299" lon="-7.813202">
        <ele>340.309</ele>
        <time>2021-08-02T20:52:06Z</time>
      </trkpt>
      <trkpt lat="41.541513" lon="-7.813499">
        <ele>340.508</ele>
        <time>2021-08-02T20:52:37Z</time>
      </trkpt>
      <trkpt lat="41.542344" lon="-7.816386">
        <ele>352.738</ele>
        <time>2021-08-02T20:53:07Z</time>
      </trkpt>
      <trkpt lat="41.542555" lon="-7.817519">
        <ele>366.080</ele>
        <time>2021-08-02T20:53:38Z</time>
      </trkpt>
      <trkpt lat="41.542392" lon="-7.818528">
        <ele>370.539</ele>
        <time>2021-08-02T20:54:08Z</time>
      </trkpt>
      <trkpt lat="41.541282" lon="-7.820168">
        <ele>377.664</ele>
        <time>2021-08-02T20:54:39Z</time>
      </trkpt>
      <trkpt lat="41.540804" lon="-7.820572">
        <ele>387.882</ele>
        <time>2021-08-02T20:55:09Z</time>
      </trkpt>
      <trkpt lat="41.539414" lon="-7.821347">
        <ele>392.053</ele>
        <time>2021-08-02T20:55:40Z</time>
      </trkpt>
      <trkpt lat="41.538955" lon="-7.821971">
        <ele>397.155</ele>
        <time>2021-08-02T20:56:10Z</time>
      </trkpt>
      <trkpt lat="41.538891" lon="-7.822464">
        <ele>398.115</ele>
        <time>2021-08-02T20:56:41Z</time>
      </trkpt>
      <trkpt lat="41.539225" lon="-7.826924">
        <ele>424.527</ele>
        <time>2021-08-02T20:57:11Z</time>
      </trkpt>
      <trkpt lat="41.539572" lon="-7.827763">
        <ele>431.168</ele>
        <time>2021-08-02T20:57:42Z</time>
      </trkpt>
      <trkpt lat="41.539852" lon="-7.828063">
        <ele>434.914</ele>
        <time>2021-08-02T20:58:13Z</time>
      </trkpt>
      <trkpt lat="41.540089" lon="-7.828226">
        <ele>439.608</ele>
        <time>2021-08-02T20:58:43Z</time>
      </trkpt>
      <trkpt lat="41.540812" lon="-7.828292">
        <ele>455.189</ele>
        <time>2021-08-02T20:59:14Z</time>
      </trkpt>
      <trkpt lat="41.541414" lon="-7.827914">
        <ele>455.731</ele>
        <time>2021-08-02T20:59:45Z</time>
      </trkpt>
      <trkpt lat="41.542245" lon="-7.826692">
        <ele>454.940</ele>
        <time>2021-08-02T21:00:16Z</time>
      </trkpt>
      <trkpt lat="41.545054" lon="-7.823706">
        <ele>457.875</ele>
        <time>2021-08-02T21:00:46Z</time>
      </trkpt>
      <trkpt lat="41.545750" lon="-7.822789">
        <ele>466.323</ele>
        <time>2021-08-02T21:01:17Z</time>
      </trkpt>
      <trkpt lat="41.546975" lon="-7.819913">
        <ele>471.324</ele>
        <time>2021-08-02T21:01:48Z</time>
      </trkpt>
      <trkpt lat="41.549180" lon="-7.816407">
        <ele>481.426</ele>
        <time>2021-08-02T21:02:19Z</time>
      </trkpt>
      <trkpt lat="41.549621" lon="-7.815944">
        <ele>487.276</ele>
        <time>2021-08-02T21:02:50Z</time>
      </trkpt>
      <trkpt lat="41.552558" lon="-7.813897">
        <ele>492.291</ele>
        <time>2021-08-02T21:03:21Z</time>
      </trkpt>
      <trkpt lat="41.553608" lon="-7.811467">
        <ele>493.881</ele>
        <time>2021-08-02T21:03:52Z</time>
      </trkpt>
      <trkpt lat="41.554138" lon="-7.810740">
        <ele>497.319</ele>
        <time>2021-08-02T21:04:23Z</time>
      </trkpt>
      <trkpt lat="41.554822" lon="-7.810699">
        <ele>503.808</ele>
        <time>2021-08-02T21:04:54Z</time>
      </trkpt>
      <trkpt lat="41.555401" lon="-7.810934">
        <ele>504.236</ele>
        <time>2021-08-02T21:05:25Z</time>
      </trkpt>
      <trkpt lat="41.557140" lon="-7.811233">
        <ele>503.818</ele>
        <time>2021-08-02T21:05:56Z</time>
      </trkpt>
      <trkpt lat="41.558829" lon="-7.810020">
        <ele>507.827</ele>
        <time>2021-08-02T21:06:27Z</time>
      </trkpt>
      <trkpt lat="41.560888" lon="-7.810044">
        <ele>514.652</ele>
        <time>2021-08-02T21:06:59Z</time>
      </trkpt>
      <trkpt lat="41.561989" lon="-7.809812">
        <ele>519.080</ele>
        <time>2021-08-02T21:07:30Z</time>
      </trkpt>
      <trkpt lat="41.562742" lon="-7.809333">
        <ele>524.821</ele>
        <time>2021-08-02T21:08:01Z</time>
      </trkpt>
      <trkpt lat="41.564888" lon="-7.806500">
        <ele>541.923</ele>
        <time>2021-08-02T21:08:32Z</time>
      </trkpt>
      <trkpt lat="41.566801" lon="-7.806112">
        <ele>554.783</ele>
        <time>2021-08-02T21:09:04Z</time>
      </trkpt>
      <trkpt lat="41.567373" lon="-7.805694">
        <ele>559.127</ele>
        <time>2021-08-02T21:09:35Z</time>
      </trkpt>
      <trkpt lat="41.567577" lon="-7.805154">
        <ele>559.468</ele>
        <time>2021-08-02T21:10:06Z</time>
      </trkpt>
      <trkpt lat="41.567565" lon="-7.804572">
        <ele>563.314</ele>
        <time>2021-08-02T21:10:38Z</time>
      </trkpt>
      <trkpt lat="41.566352" lon="-7.802387">
        <ele>569.008</ele>
        <time>2021-08-02T21:11:09Z</time>
      </trkpt>
      <trkpt lat="41.566187" lon="-7.801694">
        <ele>562.379</ele>
        <time>2021-08-02T21:11:40Z</time>
      </trkpt>
      <trkpt lat="41.566376" lon="-7.801065">
        <ele>557.581</ele>
        <time>2021-08-02T21:12:12Z</time>
      </trkpt>
      <trkpt lat="41.567311" lon="-7.800338">
        <ele>551.130</ele>
        <time>2021-08-02T21:12:43Z</time>
      </trkpt>
      <trkpt lat="41.567646" lon="-7.799572">
        <ele>550.285</ele>
        <time>2021-08-02T21:13:15Z</time>
      </trkpt>
      <trkpt lat="41.567383" lon="-7.796770">
        <ele>531.163</ele>
        <time>2021-08-02T21:13:46Z</time>
      </trkpt>
      <trkpt lat="41.567607" lon="-7.795393">
        <ele>521.954</ele>
        <time>2021-08-02T21:14:18Z</time>
      </trkpt>
      <trkpt lat="41.567054" lon="-7.793713">
        <ele>507.646</ele>
        <time>2021-08-02T21:14:49Z</time>
      </trkpt>
      <trkpt lat="41.567116" lon="-7.793379">
        <ele>505.856</ele>
        <time>2021-08-02T21:15:21Z</time>
      </trkpt>
      <trkpt lat="41.567341" lon="-7.793136">
        <ele>505.398</ele>
        <time>2021-08-02T21:15:52Z</time>
      </trkpt>
      <trkpt lat="41.568726" lon="-7.792436">
        <ele>497.515</ele>
        <time>2021-08-02T21:16:24Z</time>
      </trkpt>
      <trkpt lat="41.568945" lon="-7.792204">
        <ele>497.926</ele>
        <time>2021-08-02T21:16:55Z</time>
      </trkpt>
      <trkpt lat="41.569126" lon="-7.791690">
        <ele>497.908</ele>
        <time>2021-08-02T21:17:27Z</time>
      </trkpt>
      <trkpt lat="41.569587" lon="-7.788408">
        <ele>512.786</ele>
        <time>2021-08-02T21:17:59Z</time>
      </trkpt>
      <trkpt lat="41.570109" lon="-7.786889">
        <ele>526.068</ele>
        <time>2021-08-02T21:18:30Z</time>
      </trkpt>
      <trkpt lat="41.570083" lon="-7.785534">
        <ele>533.697</ele>
        <time>2021-08-02T21:19:02Z</time>
      </trkpt>
      <trkpt lat="41.570967" lon="-7.784127">
        <ele>542.182</ele>
        <time>2021-08-02T21:19:34Z</time>
      </trkpt>
      <trkpt lat="41.570273" lon="-7.781574">
        <ele>562.170</ele>
        <time>2021-08-02T21:20:05Z</time>
      </trkpt>
      <trkpt lat="41.570300" lon="-7.780539">
        <ele>570.981</ele>
        <time>2021-08-02T21:20:37Z</time>
      </trkpt>
      <trkpt lat="41.570528" lon="-7.779749">
        <ele>573.383</ele>
        <time>2021-08-02T21:21:09Z</time>
      </trkpt>
      <trkpt lat="41.571465" lon="-7.778218">
        <ele>588.133</ele>
        <time>2021-08-02T21:21:41Z</time>
      </trkpt>
      <trkpt lat="41.573105" lon="-7.777410">
        <ele>595.636</ele>
        <time>2021-08-02T21:22:12Z</time>
      </trkpt>
      <trkpt lat="41.573639" lon="-7.776100">
        <ele>607.417</ele>
        <time>2021-08-02T21:22:44Z</time>
      </trkpt>
      <trkpt lat="41.574803" lon="-7.775673">
        <ele>602.518</ele>
        <time>2021-08-02T21:23:16Z</time>
      </trkpt>
      <trkpt lat="41.575712" lon="-7.773980">
        <ele>611.308</ele>
        <time>2021-08-02T21:23:48Z</time>
      </trkpt>
      <trkpt lat="41.576110" lon="-7.773818">
        <ele>615.390</ele>
        <time>2021-08-02T21:24:20Z</time>
      </trkpt>
      <trkpt lat="41.577383" lon="-7.773691">
        <ele>614.872</ele>
        <time>2021-08-02T21:24:52Z</time>
      </trkpt>
      <trkpt lat="41.577952" lon="-7.773219">
        <ele>611.871</ele>
        <time>2021-08-02T21:25:24Z</time>
      </trkpt>
      <trkpt lat="41.579151" lon="-7.770594">
        <ele>598.076</ele>
        <time>2021-08-02T21:25:56Z</time>
      </trkpt>
      <trkpt lat="41.580164" lon="-7.767871">
        <ele>611.644</ele>
        <time>2021-08-02T21:26:28Z</time>
      </trkpt>
      <trkpt lat="41.581485" lon="-7.766186">
        <ele>615.595</ele>
        <time>2021-08-02T21:27:00Z</time>
      </trkpt>
      <trkpt lat="41.581766" lon="-7.764069">
        <ele>615.657</ele>
        <time>2021-08-02T21:27:32Z</time>
      </trkpt>
      <trkpt lat="41.582562" lon="-7.761695">
        <ele>613.047</ele>
        <time>2021-08-02T21:28:04Z</time>
      </trkpt>
      <trkpt lat="41.582969" lon="-7.761138">
        <ele>616.784</ele>
        <time>2021-08-02T21:28:36Z</time>
      </trkpt>
      <trkpt lat="41.583858" lon="-7.760574">
        <ele>625.307</ele>
        <time>2021-08-02T21:29:08Z</time>
      </trkpt>
      <trkpt lat="41.584204" lon="-7.759986">
        <ele>632.217</ele>
        <time>2021-08-02T21:29:41Z</time>
      </trkpt>
      <trkpt lat="41.584425" lon="-7.759119">
        <ele>637.108</ele>
        <time>2021-08-02T21:30:13Z</time>
      </trkpt>
      <trkpt lat="41.584795" lon="-7.758586">
        <ele>636.975</ele>
        <time>2021-08-02T21:30:45Z</time>
      </trkpt>
      <trkpt lat="41.586251" lon="-7.757734">
        <ele>639.537</ele>
        <time>2021-08-02T21:31:17Z</time>
      </trkpt>
      <trkpt lat="41.588116" lon="-7.756863">
        <ele>651.136</ele>
        <time>2021-08-02T21:31:50Z</time>
      </trkpt>
      <trkpt lat="41.588743" lon="-7.756285">
        <ele>651.421</ele>
        <time>2021-08-02T21:32:22Z</time>
      </trkpt>
      <trkpt lat="41.589031" lon="-7.755609">
        <ele>652.379</ele>
        <time>2021-08-02T21:32:54Z</time>
      </trkpt>
      <trkpt lat="41.589252" lon="-7.753700">
        <ele>650.680</ele>
        <time>2021-08-02T21:33:26Z</time>
      </trkpt>
      <trkpt lat="41.590495" lon="-7.752082">
        <ele>652.282</ele>
        <time>2021-08-02T21:33:59Z</time>
      </trkpt>
      <trkpt lat="41.591217" lon="-7.749984">
        <ele>651.342</ele>
        <time>2021-08-02T21:34:31Z</time>
      </trkpt>
      <trkpt lat="41.593190" lon="-7.747717">
        <ele>645.599</ele>
        <time>2021-08-02T21:35:04Z</time>
      </trkpt>
      <trkpt lat="41.594377" lon="-7.744745">
        <ele>633.807</ele>
        <time>2021-08-02T21:35:36Z</time>
      </trkpt>
      <trkpt lat="41.595666" lon="-7.743239">
        <ele>635.727</ele>
        <time>2021-08-02T21:36:09Z</time>
      </trkpt>
      <trkpt lat="41.596906" lon="-7.740188">
        <ele>639.808</ele>
        <time>2021-08-02T21:36:41Z</time>
      </trkpt>
      <trkpt lat="41.597424" lon="-7.739668">
        <ele>640.976</ele>
        <time>2021-08-02T21:37:14Z</time>
      </trkpt>
      <trkpt lat="41.598703" lon="-7.739296">
        <ele>640.498</ele>
        <time>2021-08-02T21:37:46Z</time>
      </trkpt>
      <trkpt lat="41.599767" lon="-7.737345">
        <ele>643.327</ele>
        <time>2021-08-02T21:38:19Z</time>
      </trkpt>
      <trkpt lat="41.600379" lon="-7.735841">
        <ele>655.572</ele>
        <time>2021-08-02T21:38:52Z</time>
      </trkpt>
      <trkpt lat="41.600320" lon="-7.735213">
        <ele>659.360</ele>
        <time>2021-08-02T21:39:24Z</time>
      </trkpt>
      <trkpt lat="41.599924" lon="-7.734184">
        <ele>670.891</ele>
        <time>2021-08-02T21:39:57Z</time>
      </trkpt>
      <trkpt lat="41.600052" lon="-7.733220">
        <ele>679.793</ele>
        <time>2021-08-02T21:40:30Z</time>
      </trkpt>
      <trkpt lat="41.600494" lon="-7.732690">
        <ele>679.593</ele>
        <time>2021-08-02T21:41:02Z</time>
      </trkpt>
      <trkpt lat="41.601391" lon="-7.732044">
        <ele>697.287</ele>
        <time>2021-08-02T21:41:35Z</time>
      </trkpt>
      <trkpt lat="41.602674" lon="-7.731663">
        <ele>703.842</ele>
        <time>2021-08-02T21:42:08Z</time>
      </trkpt>
      <trkpt lat="41.603052" lon="-7.731329">
        <ele>706.626</ele>
        <time>2021-08-02T21:42:41Z</time>
      </trkpt>
      <trkpt lat="41.603314" lon="-7.730679">
        <ele>712.908</ele>
        <time>2021-08-02T21:43:13Z</time>
      </trkpt>
      <trkpt lat="41.603285" lon="-7.729248">
        <ele>722.645</ele>
        <time>2021-08-02T21:43:46Z</time>
      </trkpt>
      <trkpt lat="41.603482" lon="-7.728675">
        <ele>727.287</ele>
        <time>2021-08-02T21:44:19Z</time>
      </trkpt>
      <trkpt lat="41.604876" lon="-7.727444">
        <ele>741.076</ele>
        <time>2021-08-02T21:44:52Z</time>
      </trkpt>
      <trkpt lat="41.605413" lon="-7.725907">
        <ele>750.561</ele>
        <time>2021-08-02T21:45:25Z</time>
      </trkpt>
      <trkpt lat="41.605742" lon="-7.725345">
        <ele>755.939</ele>
        <time>2021-08-02T21:45:58Z</time>
      </trkpt>
      <trkpt lat="41.606998" lon="-7.724070">
        <ele>764.830</ele>
        <time>2021-08-02T21:46:30Z</time>
      </trkpt>
      <trkpt lat="41.608639" lon="-7.720919">
        <ele>780.212</ele>
        <time>2021-08-02T21:47:03Z</time>
      </trkpt>
      <trkpt lat="41.610269" lon="-7.720022">
        <ele>797.022</ele>
        <time>2021-08-02T21:47:36Z</time>
      </trkpt>
      <trkpt lat="41.611834" lon="-7.718846">
        <ele>809.994</ele>
        <time>2021-08-02T21:48:09Z</time>
      </trkpt>
      <trkpt lat="41.612339" lon="-7.718632">
        <ele>810.457</ele>
        <time>2021-08-02T21:48:42Z</time>
      </trkpt>
      <trkpt lat="41.614636" lon="-7.719208">
        <ele>804.022</ele>
        <time>2021-08-02T21:49:16Z</time>
      </trkpt>
      <trkpt lat="41.614877" lon="-7.719111">
        <ele>804.808</ele>
        <time>2021-08-02T21:49:49Z</time>
      </trkpt>
      <trkpt lat="41.615554" lon="-7.718286">
        <ele>810.736</ele>
        <time>2021-08-02T21:50:22Z</time>
      </trkpt>
      <trkpt lat="41.615944" lon="-7.718162">
        <ele>811.658</ele>
        <time>2021-08-02T21:50:55Z</time>
      </trkpt>
      <trkpt lat="41.617590" lon="-7.718409">
        <ele>815.877</ele>
        <time>2021-08-02T21:51:28Z</time>
      </trkpt>
      <trkpt lat="41.618789" lon="-7.719003">
        <ele>821.492</ele>
        <time>2021-08-02T21:52:01Z</time>
      </trkpt>
      <trkpt lat="41.619332" lon="-7.718956">
        <ele>818.770</ele>
        <time>2021-08-02T21:52:34Z</time>
      </trkpt>
      <trkpt lat="41.619730" lon="-7.718777">
        <ele>819.891</ele>
        <time>2021-08-02T21:53:07Z</time>
      </trkpt>
      <trkpt lat="41.620799" lon="-7.718022">
        <ele>825.523</ele>
        <time>2021-08-02T21:53:41Z</time>
      </trkpt>
      <trkpt lat="41.621523" lon="-7.716713">
        <ele>829.263</ele>
        <time>2021-08-02T21:54:14Z</time>
      </trkpt>
      <trkpt lat="41.622853" lon="-7.715357">
        <ele>838.222</ele>
        <time>2021-08-02T21:54:47Z</time>
      </trkpt>
      <trkpt lat="41.623443" lon="-7.714182">
        <ele>845.262</ele>
        <time>2021-08-02T21:55:20Z</time>
      </trkpt>
      <trkpt lat="41.624112" lon="-7.712122">
        <ele>847.308</ele>
        <time>2021-08-02T21:55:54Z</time>
      </trkpt>
      <trkpt lat="41.624698" lon="-7.711571">
        <ele>846.708</ele>
        <time>2021-08-02T21:56:27Z</time>
      </trkpt>
      <trkpt lat="41.625123" lon="-7.711552">
        <ele>846.329</ele>
        <time>2021-08-02T21:57:00Z</time>
      </trkpt>
      <trkpt lat="41.625517" lon="-7.711718">
        <ele>852.671</ele>
        <time>2021-08-02T21:57:34Z</time>
      </trkpt>
      <trkpt lat="41.626591" lon="-7.713129">
        <ele>857.640</ele>
        <time>2021-08-02T21:58:07Z</time>
      </trkpt>
      <trkpt lat="41.626873" lon="-7.713355">
        <ele>858.465</ele>
        <time>2021-08-02T21:58:40Z</time>
      </trkpt>
      <trkpt lat="41.627180" lon="-7.713388">
        <ele>861.633</ele>
        <time>2021-08-02T21:59:14Z</time>
      </trkpt>
      <trkpt lat="41.627880" lon="-7.712973">
        <ele>868.724</ele>
        <time>2021-08-02T21:59:47Z</time>
      </trkpt>
      <trkpt lat="41.629551" lon="-7.710574">
        <ele>860.156</ele>
        <time>2021-08-02T22:00:21Z</time>
      </trkpt>
      <trkpt lat="41.629818" lon="-7.710494">
        <ele>856.716</ele>
        <time>2021-08-02T22:00:54Z</time>
      </trkpt>
      <trkpt lat="41.630105" lon="-7.710599">
        <ele>860.892</ele>
        <time>2021-08-02T22:01:28Z</time>
      </trkpt>
      <trkpt lat="41.631088" lon="-7.711459">
        <ele>876.473</ele>
        <time>2021-08-02T22:02:01Z</time>
      </trkpt>
      <trkpt lat="41.631642" lon="-7.711463">
        <ele>876.620</ele>
        <time>2021-08-02T22:02:35Z</time>
      </trkpt>
      <trkpt lat="41.631916" lon="-7.711260">
        <ele>877.808</ele>
        <time>2021-08-02T22:03:08Z</time>
      </trkpt>
      <trkpt lat="41.633260" lon="-7.709464">
        <ele>888.496</ele>
        <time>2021-08-02T22:03:42Z</time>
      </trkpt>
      <trkpt lat="41.634293" lon="-7.708811">
        <ele>897.218</ele>
        <time>2021-08-02T22:04:15Z</time>
      </trkpt>
      <trkpt lat="41.635337" lon="-7.708733">
        <ele>889.377</ele>
        <time>2021-08-02T22:04:49Z</time>
      </trkpt>
      <trkpt lat="41.637681" lon="-7.709560">
        <ele>862.152</ele>
        <time>2021-08-02T22:05:22Z</time>
      </trkpt>
      <trkpt lat="41.638292" lon="-7.709642">
        <ele>855.090</ele>
        <time>2021-08-02T22:05:56Z</time>
      </trkpt>
      <trkpt lat="41.638912" lon="-7.709344">
        <ele>849.321</ele>
        <time>2021-08-02T22:06:30Z</time>
      </trkpt>
      <trkpt lat="41.640998" lon="-7.707723">
        <ele>831.523</ele>
        <time>2021-08-02T22:07:03Z</time>
      </trkpt>
      <trkpt lat="41.641901" lon="-7.706620">
        <ele>815.643</ele>
        <time>2021-08-02T22:07:37Z</time>
      </trkpt>
      <trkpt lat="41.642328" lon="-7.706337">
        <ele>811.315</ele>
        <time>2021-08-02T22:08:11Z</time>
      </trkpt>
      <trkpt lat="41.642969" lon="-7.706269">
        <ele>808.565</ele>
        <time>2021-08-02T22:08:44Z</time>
      </trkpt>
      <trkpt lat="41.645047" lon="-7.706661">
        <ele>795.511</ele>
        <time>2021-08-02T22:09:18Z</time>
      </trkpt>
      <trkpt lat="41.645783" lon="-7.706621">
        <ele>793.308</ele>
        <time>2021-08-02T22:09:52Z</time>
      </trkpt>
      <trkpt lat="41.647229" lon="-7.705511">
        <ele>788.878</ele>
        <time>2021-08-02T22:10:26Z</time>
      </trkpt>
      <trkpt lat="41.649040" lon="-7.704775">
        <ele>785.980</ele>
        <time>2021-08-02T22:11:00Z</time>
      </trkpt>
      <trkpt lat="41.650346" lon="-7.702942">
        <ele>780.959</ele>
        <time>2021-08-02T22:11:34Z</time>
      </trkpt>
      <trkpt lat="41.651337" lon="-7.701920">
        <ele>767.884</ele>
        <time>2021-08-02T22:12:07Z</time>
      </trkpt>
      <trkpt lat="41.652579" lon="-7.701656">
        <ele>769.662</ele>
        <time>2021-08-02T22:12:41Z</time>
      </trkpt>
      <trkpt lat="41.653134" lon="-7.701402">
        <ele>772.093</ele>
        <time>2021-08-02T22:13:15Z</time>
      </trkpt>
      <trkpt lat="41.655144" lon="-7.699439">
        <ele>770.825</ele>
        <time>2021-08-02T22:13:49Z</time>
      </trkpt>
      <trkpt lat="41.656818" lon="-7.698264">
        <ele>777.275</ele>
        <time>2021-08-02T22:14:23Z</time>
      </trkpt>
      <trkpt lat="41.657759" lon="-7.698027">
        <ele>771.365</ele>
        <time>2021-08-02T22:14:57Z</time>
      </trkpt>
      <trkpt lat="41.664793" lon="-7.697604">
        <ele>791.068</ele>
        <time>2021-08-02T22:15:32Z</time>
      </trkpt>
      <trkpt lat="41.674032" lon="-7.698559">
        <ele>793.914</ele>
        <time>2021-08-02T22:16:06Z</time>
      </trkpt>
      <trkpt lat="41.674613" lon="-7.698757">
        <ele>798.108</ele>
        <time>2021-08-02T22:16:40Z</time>
      </trkpt>
      <trkpt lat="41.675260" lon="-7.699186">
        <ele>798.973</ele>
        <time>2021-08-02T22:17:15Z</time>
      </trkpt>
      <trkpt lat="41.677523" lon="-7.701689">
        <ele>773.035</ele>
        <time>2021-08-02T22:17:49Z</time>
      </trkpt>
      <trkpt lat="41.678423" lon="-7.702205">
        <ele>768.194</ele>
        <time>2021-08-02T22:18:24Z</time>
      </trkpt>
      <trkpt lat="41.680966" lon="-7.702464">
        <ele>765.419</ele>
        <time>2021-08-02T22:18:58Z</time>
      </trkpt>
      <trkpt lat="41.681440" lon="-7.702348">
        <ele>765.187</ele>
        <time>2021-08-02T22:19:33Z</time>
      </trkpt>
      <trkpt lat="41.681664" lon="-7.702099">
        <ele>767.288</ele>
        <time>2021-08-02T22:20:07Z</time>
      </trkpt>
      <trkpt lat="41.682627" lon="-7.699674">
        <ele>770.620</ele>
        <time>2021-08-02T22:20:42Z</time>
      </trkpt>
      <trkpt lat="41.682584" lon="-7.699119">
        <ele>767.140</ele>
        <time>2021-08-02T22:21:16Z</time>
      </trkpt>
      <trkpt lat="41.682172" lon="-7.697983">
        <ele>761.025</ele>
        <time>2021-08-02T22:21:51Z</time>
      </trkpt>
      <trkpt lat="41.681854" lon="-7.695757">
        <ele>751.026</ele>
        <time>2021-08-02T22:22:26Z</time>
      </trkpt>
      <trkpt lat="41.682576" lon="-7.694015">
        <ele>741.408</ele>
        <time>2021-08-02T22:23:00Z</time>
      </trkpt>
      <trkpt lat="41.683259" lon="-7.693404">
        <ele>733.508</ele>
        <time>2021-08-02T22:23:35Z</time>
      </trkpt>
      <trkpt lat="41.683969" lon="-7.693274">
        <ele>731.129</ele>
        <time>2021-08-02T22:24:10Z</time>
      </trkpt>
      <trkpt lat="41.684165" lon="-7.693093">
        <ele>728.841</ele>
        <time>2021-08-02T22:24:44Z</time>
      </trkpt>
      <trkpt lat="41.684269" lon="-7.691245">
        <ele>718.060</ele>
        <time>2021-08-02T22:25:19Z</time>
      </trkpt>
      <trkpt lat="41.684447" lon="-7.690958">
        <ele>717.785</ele>
        <time>2021-08-02T22:25:54Z</time>
      </trkpt>
      <trkpt lat="41.684737" lon="-7.690800">
        <ele>716.313</ele>
        <time>2021-08-02T22:26:28Z</time>
      </trkpt>
      <trkpt lat="41.685144" lon="-7.690727">
        <ele>710.074</ele>
        <time>2021-08-02T22:27:03Z</time>
      </trkpt>
      <trkpt lat="41.685929" lon="-7.691213">
        <ele>707.256</ele>
        <time>2021-08-02T22:27:38Z</time>
      </trkpt>
      <trkpt lat="41.686939" lon="-7.690816">
        <ele>698.796</ele>
        <time>2021-08-02T22:28:13Z</time>
      </trkpt>
      <trkpt lat="41.688479" lon="-7.691296">
        <ele>688.443</ele>
        <time>2021-08-02T22:28:47Z</time>
      </trkpt>
      <trkpt lat="41.688803" lon="-7.691268">
        <ele>685.964</ele>
        <time>2021-08-02T22:29:22Z</time>
      </trkpt>
      <trkpt lat="41.688948" lon="-7.691006">
        <ele>684.910</ele>
        <time>2021-08-02T22:29:57Z</time>
      </trkpt>
      <trkpt lat="41.689016" lon="-7.690050">
        <ele>676.308</ele>
        <time>2021-08-02T22:30:32Z</time>
      </trkpt>
      <trkpt lat="41.689239" lon="-7.689207">
        <ele>672.381</ele>
        <time>2021-08-02T22:31:07Z</time>
      </trkpt>
      <trkpt lat="41.689266" lon="-7.688904">
        <ele>669.913</ele>
        <time>2021-08-02T22:31:42Z</time>
      </trkpt>
      <trkpt lat="41.689080" lon="-7.688375">
        <ele>662.352</ele>
        <time>2021-08-02T22:32:16Z</time>
      </trkpt>
      <trkpt lat="41.687663" lon="-7.687098">
        <ele>651.187</ele>
        <time>2021-08-02T22:32:51Z</time>
      </trkpt>
      <trkpt lat="41.686900" lon="-7.685925">
        <ele>640.435</ele>
        <time>2021-08-02T22:33:26Z</time>
      </trkpt>
      <trkpt lat="41.686256" lon="-7.685229">
        <ele>634.236</ele>
        <time>2021-08-02T22:34:01Z</time>
      </trkpt>
      <trkpt lat="41.685703" lon="-7.683968">
        <ele>626.518</ele>
        <time>2021-08-02T22:34:36Z</time>
      </trkpt>
      <trkpt lat="41.685654" lon="-7.682837">
        <ele>620.888</ele>
        <time>2021-08-02T22:35:11Z</time>
      </trkpt>
      <trkpt lat="41.685746" lon="-7.682496">
        <ele>618.435</ele>
        <time>2021-08-02T22:35:46Z</time>
      </trkpt>
      <trkpt lat="41.686690" lon="-7.680944">
        <ele>609.586</ele>
        <time>2021-08-02T22:36:21Z</time>
      </trkpt>
      <trkpt lat="41.687012" lon="-7.679905">
        <ele>601.214</ele>
        <time>2021-08-02T22:36:56Z</time>
      </trkpt>
      <trkpt lat="41.687375" lon="-7.679671">
        <ele>601.708</ele>
        <time>2021-08-02T22:37:31Z</time>
      </trkpt>
      <trkpt lat="41.688205" lon="-7.679638">
        <ele>604.860</ele>
        <time>2021-08-02T22:38:06Z</time>
      </trkpt>
      <trkpt lat="41.688483" lon="-7.679462">
        <ele>606.082</ele>
        <time>2021-08-02T22:38:41Z</time>
      </trkpt>
      <trkpt lat="41.688555" lon="-7.679127">
        <ele>602.581</ele>
        <time>2021-08-02T22:39:16Z</time>
      </trkpt>
      <trkpt lat="41.688344" lon="-7.678415">
        <ele>592.476</ele>
        <time>2021-08-02T22:39:51Z</time>
      </trkpt>
      <trkpt lat="41.688366" lon="-7.677992">
        <ele>589.554</ele>
        <time>2021-08-02T22:40:26Z</time>
      </trkpt>
      <trkpt lat="41.689144" lon="-7.677279">
        <ele>581.645</ele>
        <time>2021-08-02T22:41:01Z</time>
      </trkpt>
      <trkpt lat="41.689260" lon="-7.676537">
        <ele>572.477</ele>
        <time>2021-08-02T22:41:36Z</time>
      </trkpt>
      <trkpt lat="41.689172" lon="-7.675835">
        <ele>566.847</ele>
        <time>2021-08-02T22:42:11Z</time>
      </trkpt>
      <trkpt lat="41.687238" lon="-7.673368">
        <ele>548.445</ele>
        <time>2021-08-02T22:42:47Z</time>
      </trkpt>
      <trkpt lat="41.686555" lon="-7.672074">
        <ele>538.647</ele>
        <time>2021-08-02T22:43:22Z</time>
      </trkpt>
      <trkpt lat="41.686656" lon="-7.670913">
        <ele>530.311</ele>
        <time>2021-08-02T22:43:57Z</time>
      </trkpt>
      <trkpt lat="41.686584" lon="-7.670411">
        <ele>525.908</ele>
        <time>2021-08-02T22:44:32Z</time>
      </trkpt>
      <trkpt lat="41.686478" lon="-7.669937">
        <ele>520.351</ele>
        <time>2021-08-02T22:45:07Z</time>
      </trkpt>
      <trkpt lat="41.685787" lon="-7.668536">
        <ele>503.693</ele>
        <time>2021-08-02T22:45:42Z</time>
      </trkpt>
      <trkpt lat="41.686156" lon="-7.667779">
        <ele>500.462</ele>
        <time>2021-08-02T22:46:18Z</time>
      </trkpt>
      <trkpt lat="41.686447" lon="-7.666613">
        <ele>495.097</ele>
        <time>2021-08-02T22:46:53Z</time>
      </trkpt>
      <trkpt lat="41.686057" lon="-7.664395">
        <ele>490.045</ele>
        <time>2021-08-02T22:47:28Z</time>
      </trkpt>
      <trkpt lat="41.686157" lon="-7.664319">
        <ele>488.916</ele>
        <time>2021-08-02T22:48:04Z</time>
      </trkpt>
      <trkpt lat="41.686730" lon="-7.664441">
        <ele>486.838</ele>
        <time>2021-08-02T22:48:39Z</time>
      </trkpt>
      <trkpt lat="41.686845" lon="-7.664347">
        <ele>486.428</ele>
        <time>2021-08-02T22:49:14Z</time>
      </trkpt>
      <trkpt lat="41.687751" lon="-7.662926">
        <ele>486.995</ele>
        <time>2021-08-02T22:49:49Z</time>
      </trkpt>
      <trkpt lat="41.689771" lon="-7.660428">
        <ele>487.349</ele>
        <time>2021-08-02T22:50:25Z</time>
      </trkpt>
      <trkpt lat="41.690051" lon="-7.659946">
        <ele>487.823</ele>
        <time>2021-08-02T22:51:00Z</time>
      </trkpt>
      <trkpt lat="41.690215" lon="-7.659269">
        <ele>490.708</ele>
        <time>2021-08-02T22:51:36Z</time>
      </trkpt>
      <trkpt lat="41.690451" lon="-7.659104">
        <ele>493.896</ele>
        <time>2021-08-02T22:52:11Z</time>
      </trkpt>
      <trkpt lat="41.691473" lon="-7.657524">
        <ele>500.068</ele>
        <time>2021-08-02T22:52:46Z</time>
      </trkpt>
      <trkpt lat="41.693486" lon="-7.653468">
        <ele>504.267</ele>
        <time>2021-08-02T22:53:22Z</time>
      </trkpt>
      <trkpt lat="41.695494" lon="-7.651223">
        <ele>520.662</ele>
        <time>2021-08-02T22:53:58Z</time>
      </trkpt>
      <trkpt lat="41.696473" lon="-7.648866">
        <ele>532.340</ele>
        <time>2021-08-02T22:54:33Z</time>
      </trkpt>
      <trkpt lat="41.696804" lon="-7.648482">
        <ele>534.911</ele>
        <time>2021-08-02T22:55:09Z</time>
      </trkpt>
      <trkpt lat="41.699539" lon="-7.645928">
        <ele>559.323</ele>
        <time>2021-08-02T22:55:44Z</time>
      </trkpt>
      <trkpt lat="41.701351" lon="-7.644783">
        <ele>559.553</ele>
        <time>2021-08-02T22:56:20Z</time>
      </trkpt>
      <trkpt lat="41.704960" lon="-7.641724">
        <ele>571.792</ele>
        <time>2021-08-02T22:56:56Z</time>
      </trkpt>
      <trkpt lat="41.706358" lon="-7.641292">
        <ele>572.573</ele>
        <time>2021-08-02T22:57:32Z</time>
      </trkpt>
      <trkpt lat="41.708130" lon="-7.641316">
        <ele>581.020</ele>
        <time>2021-08-02T22:58:08Z</time>
      </trkpt>
      <trkpt lat="41.708722" lon="-7.640774">
        <ele>582.008</ele>
        <time>2021-08-02T22:58:43Z</time>
      </trkpt>
      <trkpt lat="41.709038" lon="-7.640675">
        <ele>584.686</ele>
        <time>2021-08-02T22:59:19Z</time>
      </trkpt>
      <trkpt lat="41.709316" lon="-7.641857">
        <ele>598.738</ele>
        <time>2021-08-02T22:59:55Z</time>
      </trkpt>
      <trkpt lat="41.709072" lon="-7.641919">
        <ele>600.817</ele>
        <time>2021-08-02T23:00:31Z</time>
      </trkpt>
      <trkpt lat="41.708615" lon="-7.642468">
        <ele>604.422</ele>
        <time>2021-08-02T23:01:07Z</time>
      </trkpt>
      <trkpt lat="41.707852" lon="-7.642549">
        <ele>606.590</ele>
        <time>2021-08-02T23:01:43Z</time>
      </trkpt>
      <trkpt lat="41.706530" lon="-7.643015">
        <ele>612.711</ele>
        <time>2021-08-02T23:02:19Z</time>
      </trkpt>
      <trkpt lat="41.705611" lon="-7.643514">
        <ele>619.853</ele>
        <time>2021-08-02T23:02:55Z</time>
      </trkpt>
      <trkpt lat="41.705305" lon="-7.643973">
        <ele>623.823</ele>
        <time>2021-08-02T23:03:31Z</time>
      </trkpt>
      <trkpt lat="41.704970" lon="-7.644894">
        <ele>624.878</ele>
        <time>2021-08-02T23:04:07Z</time>
      </trkpt>
      <trkpt lat="41.704960" lon="-7.645272">
        <ele>624.933</ele>
        <time>2021-08-02T23:04:43Z</time>
      </trkpt>
      <trkpt lat="41.705138" lon="-7.645654">
        <ele>627.826</ele>
        <time>2021-08-02T23:05:19Z</time>
      </trkpt>
      <trkpt lat="41.706147" lon="-7.646518">
        <ele>638.108</ele>
        <time>2021-08-02T23:05:55Z</time>
      </trkpt>
      <trkpt lat="41.706296" lon="-7.647080">
        <ele>640.464</ele>
        <time>2021-08-02T23:06:31Z</time>
      </trkpt>
      <trkpt lat="41.706186" lon="-7.647479">
        <ele>641.726</ele>
        <time>2021-08-02T23:07:07Z</time>
      </trkpt>
      <trkpt lat="41.705769" lon="-7.647906">
        <ele>643.595</ele>
        <time>2021-08-02T23:07:43Z</time>
      </trkpt>
      <trkpt lat="41.705581" lon="-7.648333">
        <ele>645.520</ele>
        <time>2021-08-02T23:08:19Z</time>
      </trkpt>
      <trkpt lat="41.705766" lon="-7.649672">
        <ele>649.468</ele>
        <time>2021-08-02T23:08:55Z</time>
      </trkpt>
      <trkpt lat="41.705367" lon="-7.650995">
        <ele>657.069</ele>
        <time>2021-08-02T23:09:31Z</time>
      </trkpt>
      <trkpt lat="41.705154" lon="-7.652505">
        <ele>665.091</ele>
        <time>2021-08-02T23:10:07Z</time>
      </trkpt>
      <trkpt lat="41.704378" lon="-7.653820">
        <ele>670.921</ele>
        <time>2021-08-02T23:10:43Z</time>
      </trkpt>
      <trkpt lat="41.704277" lon="-7.656240">
        <ele>677.352</ele>
        <time>2021-08-02T23:11:19Z</time>
      </trkpt>
      <trkpt lat="41.704598" lon="-7.658086">
        <ele>690.053</ele>
        <time>2021-08-02T23:11:56Z</time>
      </trkpt>
      <trkpt lat="41.705142" lon="-7.659335">
        <ele>692.708</ele>
        <time>2021-08-02T23:12:32Z</time>
      </trkpt>
      <trkpt lat="41.705076" lon="-7.659874">
        <ele>695.808</ele>
        <time>2021-08-02T23:13:08Z</time>
      </trkpt>
      <trkpt lat="41.704592" lon="-7.660704">
        <ele>697.692</ele>
        <time>2021-08-02T23:13:44Z</time>
      </trkpt>
      <trkpt lat="41.704578" lon="-7.661125">
        <ele>698.914</ele>
        <time>2021-08-02T23:14:20Z</time>
      </trkpt>
      <trkpt lat="41.705024" lon="-7.662119">
        <ele>706.213</ele>
        <time>2021-08-02T23:14:57Z</time>
      </trkpt>
      <trkpt lat="41.705038" lon="-7.663293">
        <ele>712.988</ele>
        <time>2021-08-02T23:15:33Z</time>
      </trkpt>
      <trkpt lat="41.705949" lon="-7.665218">
        <ele>723.416</ele>
        <time>2021-08-02T23:16:09Z</time>
      </trkpt>
      <trkpt lat="41.705979" lon="-7.667202">
        <ele>729.287</ele>
        <time>2021-08-02T23:16:46Z</time>
      </trkpt>
      <trkpt lat="41.707305" lon="-7.670010">
        <ele>743.259</ele>
        <time>2021-08-02T23:17:22Z</time>
      </trkpt>
      <trkpt lat="41.707536" lon="-7.672441">
        <ele>748.119</ele>
        <time>2021-08-02T23:17:58Z</time>
      </trkpt>
      <trkpt lat="41.708133" lon="-7.673817">
        <ele>757.344</ele>
        <time>2021-08-02T23:18:35Z</time>
      </trkpt>
      <trkpt lat="41.708837" lon="-7.674539">
        <ele>765.805</ele>
        <time>2021-08-02T23:19:11Z</time>
      </trkpt>
      <trkpt lat="41.708965" lon="-7.674830">
        <ele>768.115</ele>
        <time>2021-08-02T23:19:48Z</time>
      </trkpt>
      <trkpt lat="41.709001" lon="-7.676662">
        <ele>766.908</ele>
        <time>2021-08-02T23:20:24Z</time>
      </trkpt>
      <trkpt lat="41.708710" lon="-7.678170">
        <ele>771.741</ele>
        <time>2021-08-02T23:21:01Z</time>
      </trkpt>
      <trkpt lat="41.709267" lon="-7.679274">
        <ele>777.773</ele>
        <time>2021-08-02T23:21:37Z</time>
      </trkpt>
      <trkpt lat="41.709131" lon="-7.680137">
        <ele>781.582</ele>
        <time>2021-08-02T23:22:14Z</time>
      </trkpt>
      <trkpt lat="41.709407" lon="-7.681083">
        <ele>788.617</ele>
        <time>2021-08-02T23:22:50Z</time>
      </trkpt>
      <trkpt lat="41.709361" lon="-7.682585">
        <ele>791.475</ele>
        <time>2021-08-02T23:23:27Z</time>
      </trkpt>
      <trkpt lat="41.709465" lon="-7.683129">
        <ele>796.466</ele>
        <time>2021-08-02T23:24:04Z</time>
      </trkpt>
      <trkpt lat="41.709728" lon="-7.683577">
        <ele>798.048</ele>
        <time>2021-08-02T23:24:40Z</time>
      </trkpt>
      <trkpt lat="41.710954" lon="-7.684402">
        <ele>808.618</ele>
        <time>2021-08-02T23:25:17Z</time>
      </trkpt>
      <trkpt lat="41.712129" lon="-7.684279">
        <ele>817.143</ele>
        <time>2021-08-02T23:25:54Z</time>
      </trkpt>
      <trkpt lat="41.712767" lon="-7.685232">
        <ele>820.764</ele>
        <time>2021-08-02T23:26:30Z</time>
      </trkpt>
      <trkpt lat="41.713182" lon="-7.685401">
        <ele>824.610</ele>
        <time>2021-08-02T23:27:07Z</time>
      </trkpt>
      <trkpt lat="41.713930" lon="-7.685326">
        <ele>827.908</ele>
        <time>2021-08-02T23:27:44Z</time>
      </trkpt>
      <trkpt lat="41.714170" lon="-7.685470">
        <ele>830.641</ele>
        <time>2021-08-02T23:28:20Z</time>
      </trkpt>
      <trkpt lat="41.714681" lon="-7.686271">
        <ele>832.513</ele>
        <time>2021-08-02T23:28:57Z</time>
      </trkpt>
      <trkpt lat="41.715194" lon="-7.686618">
        <ele>835.282</ele>
        <time>2021-08-02T23:29:34Z</time>
      </trkpt>
      <trkpt lat="41.716193" lon="-7.687004">
        <ele>841.587</ele>
        <time>2021-08-02T23:30:10Z</time>
      </trkpt>
      <trkpt lat="41.718001" lon="-7.687136">
        <ele>852.915</ele>
        <time>2021-08-02T23:30:47Z</time>
      </trkpt>
      <trkpt lat="41.719204" lon="-7.688473">
        <ele>855.416</ele>
        <time>2021-08-02T23:31:24Z</time>
      </trkpt>
      <trkpt lat="41.720241" lon="-7.688498">
        <ele>853.958</ele>
        <time>2021-08-02T23:32:01Z</time>
      </trkpt>
      <trkpt lat="41.721197" lon="-7.688154">
        <ele>855.228</ele>
        <time>2021-08-02T23:32:38Z</time>
      </trkpt>
      <trkpt lat="41.721717" lon="-7.688916">
        <ele>849.663</ele>
        <time>2021-08-02T23:33:14Z</time>
      </trkpt>
      <trkpt lat="41.722583" lon="-7.688923">
        <ele>850.044</ele>
        <time>2021-08-02T23:33:51Z</time>
      </trkpt>
      <trkpt lat="41.722880" lon="-7.689556">
        <ele>847.018</ele>
        <time>2021-08-02T23:34:28Z</time>
      </trkpt>
      <trkpt lat="41.723297" lon="-7.689798">
        <ele>844.308</ele>
        <time>2021-08-02T23:35:05Z</time>
      </trkpt>
      <trkpt lat="41.724020" lon="-7.689336">
        <ele>847.683</ele>
        <time>2021-08-02T23:35:42Z</time>
      </trkpt>
      <trkpt lat="41.725470" lon="-7.689147">
        <ele>845.785</ele>
        <time>2021-08-02T23:36:19Z</time>
      </trkpt>
      <trkpt lat="41.726856" lon="-7.690011">
        <ele>837.414</ele>
        <time>2021-08-02T23:36:56Z</time>
      </trkpt>
      <trkpt lat="41.727474" lon="-7.690094">
        <ele>834.999</ele>
        <time>2021-08-02T23:37:33Z</time>
      </trkpt>
      <trkpt lat="41.728064" lon="-7.690775">
        <ele>831.037</ele>
        <time>2021-08-02T23:38:10Z</time>
      </trkpt>
      <trkpt lat="41.728608" lon="-7.690924">
        <ele>830.358</ele>
        <time>2021-08-02T23:38:47Z</time>
      </trkpt>
      <trkpt lat="41.729243" lon="-7.691308">
        <ele>826.150</ele>
        <time>2021-08-02T23:39:24Z</time>
      </trkpt>
      <trkpt lat="41.729932" lon="-7.691452">
        <ele>824.820</ele>
        <time>2021-08-02T23:40:01Z</time>
      </trkpt>
      <trkpt lat="41.730727" lon="-7.692169">
        <ele>817.898</ele>
        <time>2021-08-02T23:40:38Z</time>
      </trkpt>
      <trkpt lat="41.731119" lon="-7.692107">
        <ele>817.815</ele>
        <time>2021-08-02T23:41:15Z</time>
      </trkpt>
      <trkpt lat="41.731702" lon="-7.691434">
        <ele>817.426</ele>
        <time>2021-08-02T23:41:52Z</time>
      </trkpt>
      <trkpt lat="41.732921" lon="-7.690902">
        <ele>813.908</ele>
        <time>2021-08-02T23:42:29Z</time>
      </trkpt>
      <trkpt lat="41.733464" lon="-7.691230">
        <ele>809.446</ele>
        <time>2021-08-02T23:43:06Z</time>
      </trkpt>
      <trkpt lat="41.733726" lon="-7.691243">
        <ele>810.558</ele>
        <time>2021-08-02T23:43:43Z</time>
      </trkpt>
      <trkpt lat="41.734541" lon="-7.690550">
        <ele>809.377</ele>
        <time>2021-08-02T23:44:21Z</time>
      </trkpt>
      <trkpt lat="41.734824" lon="-7.690854">
        <ele>811.782</ele>
        <time>2021-08-02T23:44:58Z</time>
      </trkpt>
      <trkpt lat="41.734845" lon="-7.691161">
        <ele>814.990</ele>
        <time>2021-08-02T23:45:35Z</time>
      </trkpt>
      <trkpt lat="41.734574" lon="-7.691845">
        <ele>814.181</ele>
        <time>2021-08-02T23:46:12Z</time>
      </trkpt>
      <trkpt lat="41.733873" lon="-7.692892">
        <ele>816.113</ele>
        <time>2021-08-02T23:46:49Z</time>
      </trkpt>
      <trkpt lat="41.733964" lon="-7.693284">
        <ele>818.923</ele>
        <time>2021-08-02T23:47:26Z</time>
      </trkpt>
      <trkpt lat="41.734216" lon="-7.693412">
        <ele>820.186</ele>
        <time>2021-08-02T23:48:03Z</time>
      </trkpt>
      <trkpt lat="41.736362" lon="-7.693145">
        <ele>826.060</ele>
        <time>2021-08-02T23:48:41Z</time>
      </trkpt>
      <trkpt lat="41.737285" lon="-7.692564">
        <ele>823.026</ele>
        <time>2021-08-02T23:49:18Z</time>
      </trkpt>
      <trkpt lat="41.738063" lon="-7.692990">
        <ele>823.108</ele>
        <time>2021-08-02T23:49:55Z</time>
      </trkpt>
      <trkpt lat="41.738903" lon="-7.693117">
        <ele>823.785</ele>
        <time>2021-08-02T23:50:32Z</time>
      </trkpt>
      <trkpt lat="41.739358" lon="-7.693363">
        <ele>823.947</ele>
        <time>2021-08-02T23:51:10Z</time>
      </trkpt>
      <trkpt lat="41.740352" lon="-7.693357">
        <ele>825.816</ele>
        <time>2021-08-02T23:51:47Z</time>
      </trkpt>
      <trkpt lat="41.742018" lon="-7.693581">
        <ele>825.181</ele>
        <time>2021-08-02T23:52:24Z</time>
      </trkpt>
      <trkpt lat="41.744335" lon="-7.694826">
        <ele>823.819</ele>
        <time>2021-08-02T23:53:02Z</time>
      </trkpt>
      <trkpt lat="41.744514" lon="-7.694814">
        <ele>824.770</ele>
        <time>2021-08-02T23:53:39Z</time>
      </trkpt>
      <trkpt lat="41.745242" lon="-7.693703">
        <ele>826.062</ele>
        <time>2021-08-02T23:54:17Z</time>
      </trkpt>
      <trkpt lat="41.745925" lon="-7.693578">
        <ele>826.242</ele>
        <time>2021-08-02T23:54:54Z</time>
      </trkpt>
      <trkpt lat="41.746457" lon="-7.693136">
        <ele>824.535</ele>
        <time>2021-08-02T23:55:31Z</time>
      </trkpt>
      <trkpt lat="41.747080" lon="-7.693023">
        <ele>818.586</ele>
        <time>2021-08-02T23:56:09Z</time>
      </trkpt>
      <trkpt lat="41.747416" lon="-7.692806">
        <ele>816.214</ele>
        <time>2021-08-02T23:56:46Z</time>
      </trkpt>
      <trkpt lat="41.747797" lon="-7.692211">
        <ele>814.108</ele>
        <time>2021-08-02T23:57:24Z</time>
      </trkpt>
      <trkpt lat="41.748240" lon="-7.690979">
        <ele>811.840</ele>
        <time>2021-08-02T23:58:01Z</time>
      </trkpt>
      <trkpt lat="41.749430" lon="-7.690123">
        <ele>812.392</ele>
        <time>2021-08-02T23:58:39Z</time>
      </trkpt>
      <trkpt lat="41.750375" lon="-7.690649">
        <ele>813.841</ele>
        <time>2021-08-02T23:59:16Z</time>
      </trkpt>
      <trkpt lat="41.750974" lon="-7.690836">
        <ele>814.486</ele>
        <time>2021-08-02T23:59:54Z</time>
      </trkpt>
      <trkpt lat="41.751109" lon="-7.691830">
        <ele>813.614</ele>
        <time>2021-08-03T00:00:31Z</time>
      </trkpt>
      <trkpt lat="41.751699" lon="-7.692386">
        <ele>818.035</ele>
        <time>2021-08-03T00:01:09Z</time>
      </trkpt>
      <trkpt lat="41.752139" lon="-7.692573">
        <ele>821.877</ele>
        <time>2021-08-03T00:01:46Z</time>
      </trkpt>
      <trkpt lat="41.754444" lon="-7.692528">
        <ele>829.297</ele>
        <time>2021-08-03T00:02:24Z</time>
      </trkpt>
      <trkpt lat="41.754746" lon="-7.692687">
        <ele>829.475</ele>
        <time>2021-08-03T00:03:02Z</time>
      </trkpt>
      <trkpt lat="41.755874" lon="-7.693968">
        <ele>825.328</ele>
        <time>2021-08-03T00:03:39Z</time>
      </trkpt>
      <trkpt lat="41.756376" lon="-7.694939">
        <ele>821.520</ele>
        <time>2021-08-03T00:04:17Z</time>
      </trkpt>
      <trkpt lat="41.756530" lon="-7.695867">
        <ele>818.008</ele>
        <time>2021-08-03T00:04:55Z</time>
      </trkpt>
      <trkpt lat="41.757344" lon="-7.696357">
        <ele>819.324</ele>
        <time>2021-08-03T00:05:32Z</time>
      </trkpt>
      <trkpt lat="41.757510" lon="-7.696873">
        <ele>818.146</ele>
        <time>2021-08-03T00:06:10Z</time>
      </trkpt>
      <trkpt lat="41.757926" lon="-7.697224">
        <ele>818.795</ele>
        <time>2021-08-03T00:06:48Z</time>
      </trkpt>
      <trkpt lat="41.758152" lon="-7.698002">
        <ele>810.910</ele>
        <time>2021-08-03T00:07:26Z</time>
      </trkpt>
      <trkpt lat="41.758650" lon="-7.698623">
        <ele>809.968</ele>
        <time>2021-08-03T00:08:03Z</time>
      </trkpt>
      <trkpt lat="41.759470" lon="-7.699095">
        <ele>813.139</ele>
        <time>2021-08-03T00:08:41Z</time>
      </trkpt>
      <trkpt lat="41.759793" lon="-7.700466">
        <ele>812.131</ele>
        <time>2021-08-03T00:09:19Z</time>
      </trkpt>
      <trkpt lat="41.759952" lon="-7.700674">
        <ele>812.551</ele>
        <time>2021-08-03T00:09:57Z</time>
      </trkpt>
      <trkpt lat="41.760180" lon="-7.700745">
        <ele>811.894</ele>
        <time>2021-08-03T00:10:34Z</time>
      </trkpt>
      <trkpt lat="41.760381" lon="-7.700622">
        <ele>812.457</ele>
        <time>2021-08-03T00:11:12Z</time>
      </trkpt>
      <trkpt lat="41.760741" lon="-7.699949">
        <ele>814.122</ele>
        <time>2021-08-03T00:11:50Z</time>
      </trkpt>
      <trkpt lat="41.760968" lon="-7.699781">
        <ele>814.708</ele>
        <time>2021-08-03T00:12:28Z</time>
      </trkpt>
      <trkpt lat="41.761706" lon="-7.699863">
        <ele>812.236</ele>
        <time>2021-08-03T00:13:06Z</time>
      </trkpt>
      <trkpt lat="41.761981" lon="-7.700186">
        <ele>810.258</ele>
        <time>2021-08-03T00:13:43Z</time>
      </trkpt>
      <trkpt lat="41.762942" lon="-7.702466">
        <ele>804.217</ele>
        <time>2021-08-03T00:14:21Z</time>
      </trkpt>
      <trkpt lat="41.763695" lon="-7.702643">
        <ele>807.472</ele>
        <time>2021-08-03T00:14:59Z</time>
      </trkpt>
      <trkpt lat="41.764185" lon="-7.702554">
        <ele>804.260</ele>
        <time>2021-08-03T00:15:37Z</time>
      </trkpt>
      <trkpt lat="41.764465" lon="-7.702883">
        <ele>806.551</ele>
        <time>2021-08-03T00:16:15Z</time>
      </trkpt>
      <trkpt lat="41.764495" lon="-7.703167">
        <ele>811.193</ele>
        <time>2021-08-03T00:16:53Z</time>
      </trkpt>
      <trkpt lat="41.764273" lon="-7.703679">
        <ele>813.513</ele>
        <time>2021-08-03T00:17:31Z</time>
      </trkpt>
      <trkpt lat="41.762775" lon="-7.705616">
        <ele>812.075</ele>
        <time>2021-08-03T00:18:09Z</time>
      </trkpt>
      <trkpt lat="41.762757" lon="-7.707393">
        <ele>812.528</ele>
        <time>2021-08-03T00:18:47Z</time>
      </trkpt>
      <trkpt lat="41.762887" lon="-7.708097">
        <ele>812.920</ele>
        <time>2021-08-03T00:19:25Z</time>
      </trkpt>
      <trkpt lat="41.763070" lon="-7.708393">
        <ele>813.808</ele>
        <time>2021-08-03T00:20:03Z</time>
      </trkpt>
      <trkpt lat="41.763490" lon="-7.708653">
        <ele>816.014</ele>
        <time>2021-08-03T00:20:41Z</time>
      </trkpt>
      <trkpt lat="41.765238" lon="-7.708791">
        <ele>818.776</ele>
        <time>2021-08-03T00:21:19Z</time>
      </trkpt>
      <trkpt lat="41.765572" lon="-7.708986">
        <ele>816.845</ele>
        <time>2021-08-03T00:21:57Z</time>
      </trkpt>
      <trkpt lat="41.765718" lon="-7.709237">
        <ele>816.010</ele>
        <time>2021-08-03T00:22:35Z</time>
      </trkpt>
      <trkpt lat="41.765742" lon="-7.709727">
        <ele>813.328</ele>
        <time>2021-08-03T00:23:13Z</time>
      </trkpt>
      <trkpt lat="41.765402" lon="-7.710542">
        <ele>813.839</ele>
        <time>2021-08-03T00:23:51Z</time>
      </trkpt>
      <trkpt lat="41.765418" lon="-7.711136">
        <ele>819.421</ele>
        <time>2021-08-03T00:24:29Z</time>
      </trkpt>
      <trkpt lat="41.766436" lon="-7.712455">
        <ele>829.831</ele>
        <time>2021-08-03T00:25:07Z</time>
      </trkpt>
      <trkpt lat="41.766766" lon="-7.714431">
        <ele>839.669</ele>
        <time>2021-08-03T00:25:45Z</time>
      </trkpt>
      <trkpt lat="41.766980" lon="-7.714972">
        <ele>842.304</ele>
        <time>2021-08-03T00:26:23Z</time>
      </trkpt>
      <trkpt lat="41.767498" lon="-7.715202">
        <ele>841.924</ele>
        <time>2021-08-03T00:27:01Z</time>
      </trkpt>
      <trkpt lat="41.768925" lon="-7.715339">
        <ele>844.308</ele>
        <time>2021-08-03T00:27:40Z</time>
      </trkpt>
      <trkpt lat="41.769598" lon="-7.715951">
        <ele>852.083</ele>
        <time>2021-08-03T00:28:18Z</time>
      </trkpt>
      <trkpt lat="41.770198" lon="-7.717176">
        <ele>861.955</ele>
        <time>2021-08-03T00:28:56Z</time>
      </trkpt>
      <trkpt lat="41.771332" lon="-7.717723">
        <ele>873.094</ele>
        <time>2021-08-03T00:29:34Z</time>
      </trkpt>
      <trkpt lat="41.771640" lon="-7.717989">
        <ele>874.749</ele>
        <time>2021-08-03T00:30:13Z</time>
      </trkpt>
      <trkpt lat="41.772606" lon="-7.719453">
        <ele>875.897</ele>
        <time>2021-08-03T00:30:51Z</time>
      </trkpt>
      <trkpt lat="41.773215" lon="-7.722263">
        <ele>889.268</ele>
        <time>2021-08-03T00:31:29Z</time>
      </trkpt>
      <trkpt lat="41.772985" lon="-7.724241">
        <ele>892.410</ele>
        <time>2021-08-03T00:32:07Z</time>
      </trkpt>
      <trkpt lat="41.773182" lon="-7.724767">
        <ele>894.650</ele>
        <time>2021-08-03T00:32:46Z</time>
      </trkpt>
      <trkpt lat="41.774594" lon="-7.726283">
        <ele>904.166</ele>
        <time>2021-08-03T00:33:24Z</time>
      </trkpt>
      <trkpt lat="41.778813" lon="-7.728956">
        <ele>897.929</ele>
        <time>2021-08-03T00:34:03Z</time>
      </trkpt>
      <trkpt lat="41.779381" lon="-7.729804">
        <ele>897.021</ele>
        <time>2021-08-03T00:34:41Z</time>
      </trkpt>
      <trkpt lat="41.780593" lon="-7.730062">
        <ele>897.108</ele>
        <time>2021-08-03T00:35:20Z</time>
      </trkpt>
      <trkpt lat="41.784425" lon="-7.732481">
        <ele>907.343</ele>
        <time>2021-08-03T00:35:58Z</time>
      </trkpt>
      <trkpt lat="41.784757" lon="-7.732878">
        <ele>908.615</ele>
        <time>2021-08-03T00:36:37Z</time>
      </trkpt>
      <trkpt lat="41.784932" lon="-7.733366">
        <ele>909.294</ele>
        <time>2021-08-03T00:37:15Z</time>
      </trkpt>
      <trkpt lat="41.785405" lon="-7.737900">
        <ele>920.959</ele>
        <time>2021-08-03T00:37:54Z</time>
      </trkpt>
      <trkpt lat="41.786789" lon="-7.741354">
        <ele>928.837</ele>
        <time>2021-08-03T00:38:33Z</time>
      </trkpt>
      <trkpt lat="41.786993" lon="-7.742990">
        <ele>934.848</ele>
        <time>2021-08-03T00:39:12Z</time>
      </trkpt>
      <trkpt lat="41.787613" lon="-7.744144">
        <ele>939.290</ele>
        <time>2021-08-03T00:39:50Z</time>
      </trkpt>
      <trkpt lat="41.789243" lon="-7.744830">
        <ele>949.910</ele>
        <time>2021-08-03T00:40:29Z</time>
      </trkpt>
      <trkpt lat="41.790673" lon="-7.745740">
        <ele>948.243</ele>
        <time>2021-08-03T00:41:08Z</time>
      </trkpt>
      <trkpt lat="41.791533" lon="-7.745745">
        <ele>949.364</ele>
        <time>2021-08-03T00:41:47Z</time>
      </trkpt>
      <trkpt lat="41.792424" lon="-7.746817">
        <ele>946.210</ele>
        <time>2021-08-03T00:42:26Z</time>
      </trkpt>
      <trkpt lat="41.793839" lon="-7.747344">
        <ele>944.308</ele>
        <time>2021-08-03T00:43:05Z</time>
      </trkpt>
      <trkpt lat="41.794540" lon="-7.747046">
        <ele>943.431</ele>
        <time>2021-08-03T00:43:44Z</time>
      </trkpt>
      <trkpt lat="41.795220" lon="-7.746300">
        <ele>941.483</ele>
        <time>2021-08-03T00:44:22Z</time>
      </trkpt>
      <trkpt lat="41.795632" lon="-7.745490">
        <ele>937.222</ele>
        <time>2021-08-03T00:45:01Z</time>
      </trkpt>
      <trkpt lat="41.796836" lon="-7.745050">
        <ele>935.557</ele>
        <time>2021-08-03T00:45:40Z</time>
      </trkpt>
      <trkpt lat="41.798140" lon="-7.745329">
        <ele>939.945</ele>
        <time>2021-08-03T00:46:19Z</time>
      </trkpt>
      <trkpt lat="41.800239" lon="-7.744633">
        <ele>928.526</ele>
        <time>2021-08-03T00:46:58Z</time>
      </trkpt>
      <trkpt lat="41.803201" lon="-7.748170">
        <ele>930.698</ele>
        <time>2021-08-03T00:47:38Z</time>
      </trkpt>
      <trkpt lat="41.804287" lon="-7.749957">
        <ele>939.858</ele>
        <time>2021-08-03T00:48:17Z</time>
      </trkpt>
      <trkpt lat="41.805865" lon="-7.751514">
        <ele>950.722</ele>
        <time>2021-08-03T00:48:56Z</time>
      </trkpt>
      <trkpt lat="41.806467" lon="-7.752534">
        <ele>952.762</ele>
        <time>2021-08-03T00:49:35Z</time>
      </trkpt>
      <trkpt lat="41.808424" lon="-7.754065">
        <ele>964.008</ele>
        <time>2021-08-03T00:50:14Z</time>
      </trkpt>
      <trkpt lat="41.810540" lon="-7.756278">
        <ele>973.508</ele>
        <time>2021-08-03T00:50:54Z</time>
      </trkpt>
      <trkpt lat="41.810822" lon="-7.756358">
        <ele>978.059</ele>
        <time>2021-08-03T00:51:33Z</time>
      </trkpt>
      <trkpt lat="41.812917" lon="-7.756117">
        <ele>988.181</ele>
        <time>2021-08-03T00:52:12Z</time>
      </trkpt>
      <trkpt lat="41.813521" lon="-7.756283">
        <ele>992.450</ele>
        <time>2021-08-03T00:52:52Z</time>
      </trkpt>
      <trkpt lat="41.813786" lon="-7.756494">
        <ele>992.725</ele>
        <time>2021-08-03T00:53:31Z</time>
      </trkpt>
      <trkpt lat="41.815570" lon="-7.758501">
        <ele>992.443</ele>
        <time>2021-08-03T00:54:10Z</time>
      </trkpt>
      <trkpt lat="41.817113" lon="-7.759620">
        <ele>1002.054</ele>
        <time>2021-08-03T00:54:50Z</time>
      </trkpt>
      <trkpt lat="41.818184" lon="-7.762039">
        <ele>1003.176</ele>
        <time>2021-08-03T00:55:29Z</time>
      </trkpt>
      <trkpt lat="41.818920" lon="-7.763214">
        <ele>1004.236</ele>
        <time>2021-08-03T00:56:09Z</time>
      </trkpt>
      <trkpt lat="41.820575" lon="-7.763949">
        <ele>998.913</ele>
        <time>2021-08-03T00:56:48Z</time>
      </trkpt>
      <trkpt lat="41.821039" lon="-7.764313">
        <ele>996.743</ele>
        <time>2021-08-03T00:57:28Z</time>
      </trkpt>
      <trkpt lat="41.824713" lon="-7.769137">
        <ele>1004.807</ele>
        <time>2021-08-03T00:58:08Z</time>
      </trkpt>
      <trkpt lat="41.824981" lon="-7.770236">
        <ele>1007.608</ele>
        <time>2021-08-03T00:58:47Z</time>
      </trkpt>
      <trkpt lat="41.824989" lon="-7.771599">
        <ele>1006.548</ele>
        <time>2021-08-03T00:59:27Z</time>
      </trkpt>
      <trkpt lat="41.826370" lon="-7.773775">
        <ele>1011.870</ele>
        <time>2021-08-03T01:00:07Z</time>
      </trkpt>
      <trkpt lat="41.826783" lon="-7.774238">
        <ele>1011.569</ele>
        <time>2021-08-03T01:00:46Z</time>
      </trkpt>
      <trkpt lat="41.826529" lon="-7.775684">
        <ele>1000.844</ele>
        <time>2021-08-03T01:01:26Z</time>
      </trkpt>
      <trkpt lat="41.826489" lon="-7.778108">
        <ele>985.942</ele>
        <time>2021-08-03T01:02:06Z</time>
      </trkpt>
      <trkpt lat="41.826651" lon="-7.778845">
        <ele>983.623</ele>
        <time>2021-08-03T01:02:46Z</time>
      </trkpt>
      <trkpt lat="41.826972" lon="-7.779513">
        <ele>980.375</ele>
        <time>2021-08-03T01:03:25Z</time>
      </trkpt>
      <trkpt lat="41.827378" lon="-7.780003">
        <ele>978.195</ele>
        <time>2021-08-03T01:04:05Z</time>
      </trkpt>
      <trkpt lat="41.829406" lon="-7.781041">
        <ele>964.353</ele>
        <time>2021-08-03T01:04:45Z</time>
      </trkpt>
      <trkpt lat="41.829635" lon="-7.781296">
        <ele>961.804</ele>
        <time>2021-08-03T01:05:25Z</time>
      </trkpt>
      <trkpt lat="41.829930" lon="-7.782033">
        <ele>954.214</ele>
        <time>2021-08-03T01:06:05Z</time>
      </trkpt>
      <trkpt lat="41.830058" lon="-7.783480">
        <ele>954.108</ele>
        <time>2021-08-03T01:06:45Z</time>
      </trkpt>
      <trkpt lat="41.829939" lon="-7.784965">
        <ele>947.242</ele>
        <time>2021-08-03T01:07:25Z</time>
      </trkpt>
      <trkpt lat="41.829390" lon="-7.785776">
        <ele>940.574</ele>
        <time>2021-08-03T01:08:05Z</time>
      </trkpt>
      <trkpt lat="41.828542" lon="-7.788482">
        <ele>941.653</ele>
        <time>2021-08-03T01:08:45Z</time>
      </trkpt>
      <trkpt lat="41.828198" lon="-7.788954">
        <ele>943.578</ele>
        <time>2021-08-03T01:09:25Z</time>
      </trkpt>
      <trkpt lat="41.827996" lon="-7.789715">
        <ele>943.426</ele>
        <time>2021-08-03T01:10:05Z</time>
      </trkpt>
      <trkpt lat="41.828338" lon="-7.791297">
        <ele>944.497</ele>
        <time>2021-08-03T01:10:45Z</time>
      </trkpt>
      <trkpt lat="41.828102" lon="-7.793400">
        <ele>939.589</ele>
        <time>2021-08-03T01:11:25Z</time>
      </trkpt>
      <trkpt lat="41.827747" lon="-7.794386">
        <ele>938.279</ele>
        <time>2021-08-03T01:12:05Z</time>
      </trkpt>
      <trkpt lat="41.826544" lon="-7.797123">
        <ele>941.215</ele>
        <time>2021-08-03T01:12:45Z</time>
      </trkpt>
      <trkpt lat="41.826016" lon="-7.797407">
        <ele>939.865</ele>
        <time>2021-08-03T01:13:25Z</time>
      </trkpt>
      <trkpt lat="41.825144" lon="-7.797434">
        <ele>941.511</ele>
        <time>2021-08-03T01:14:05Z</time>
      </trkpt>
      <trkpt lat="41.824353" lon="-7.797707">
        <ele>943.308</ele>
        <time>2021-08-03T01:14:45Z</time>
      </trkpt>
      <trkpt lat="41.824003" lon="-7.798300">
        <ele>942.298</ele>
        <time>2021-08-03T01:15:25Z</time>
      </trkpt>
      <trkpt lat="41.824130" lon="-7.799415">
        <ele>943.940</ele>
        <time>2021-08-03T01:16:05Z</time>
      </trkpt>
      <trkpt lat="41.823777" lon="-7.801162">
        <ele>942.559</ele>
        <time>2021-08-03T01:16:46Z</time>
      </trkpt>
      <trkpt lat="41.823443" lon="-7.806849">
        <ele>951.524</ele>
        <time>2021-08-03T01:17:26Z</time>
      </trkpt>
      <trkpt lat="41.823573" lon="-7.807806">
        <ele>954.462</ele>
        <time>2021-08-03T01:18:06Z</time>
      </trkpt>
      <trkpt lat="41.822875" lon="-7.811047">
        <ele>945.293</ele>
        <time>2021-08-03T01:18:47Z</time>
      </trkpt>
      <trkpt lat="41.822742" lon="-7.813142">
        <ele>947.425</ele>
        <time>2021-08-03T01:19:27Z</time>
      </trkpt>
      <trkpt lat="41.822611" lon="-7.813492">
        <ele>945.755</ele>
        <time>2021-08-03T01:20:07Z</time>
      </trkpt>
      <trkpt lat="41.821893" lon="-7.814391">
        <ele>944.228</ele>
        <time>2021-08-03T01:20:48Z</time>
      </trkpt>
      <trkpt lat="41.821992" lon="-7.816057">
        <ele>952.289</ele>
        <time>2021-08-03T01:21:28Z</time>
      </trkpt>
      <trkpt lat="41.821451" lon="-7.817462">
        <ele>951.617</ele>
        <time>2021-08-03T01:22:09Z</time>
      </trkpt>
      <trkpt lat="41.820014" lon="-7.818648">
        <ele>955.808</ele>
        <time>2021-08-03T01:22:49Z</time>
      </trkpt>
      <trkpt lat="41.819928" lon="-7.819243">
        <ele>954.059</ele>
        <time>2021-08-03T01:23:30Z</time>
      </trkpt>
      <trkpt lat="41.820253" lon="-7.821358">
        <ele>943.541</ele>
        <time>2021-08-03T01:24:10Z</time>
      </trkpt>
      <trkpt lat="41.820155" lon="-7.821657">
        <ele>940.060</ele>
        <time>2021-08-03T01:24:51Z</time>
      </trkpt>
      <trkpt lat="41.818224" lon="-7.824410">
        <ele>943.655</ele>
        <time>2021-08-03T01:25:31Z</time>
      </trkpt>
      <trkpt lat="41.817520" lon="-7.826369">
        <ele>939.053</ele>
        <time>2021-08-03T01:26:12Z</time>
      </trkpt>
      <trkpt lat="41.817423" lon="-7.828372">
        <ele>940.284</ele>
        <time>2021-08-03T01:26:53Z</time>
      </trkpt>
      <trkpt lat="41.816821" lon="-7.829798">
        <ele>936.946</ele>
        <time>2021-08-03T01:27:33Z</time>
      </trkpt>
      <trkpt lat="41.816644" lon="-7.830970">
        <ele>929.896</ele>
        <time>2021-08-03T01:28:14Z</time>
      </trkpt>
      <trkpt lat="41.815330" lon="-7.834131">
        <ele>936.281</ele>
        <time>2021-08-03T01:28:55Z</time>
      </trkpt>
      <trkpt lat="41.814881" lon="-7.837649">
        <ele>912.061</ele>
        <time>2021-08-03T01:29:35Z</time>
      </trkpt>
      <trkpt lat="41.814471" lon="-7.839466">
        <ele>917.517</ele>
        <time>2021-08-03T01:30:16Z</time>
      </trkpt>
      <trkpt lat="41.814075" lon="-7.840677">
        <ele>916.008</ele>
        <time>2021-08-03T01:30:57Z</time>
      </trkpt>
      <trkpt lat="41.813253" lon="-7.841987">
        <ele>910.345</ele>
        <time>2021-08-03T01:31:38Z</time>
      </trkpt>
      <trkpt lat="41.813197" lon="-7.842968">
        <ele>909.437</ele>
        <time>2021-08-03T01:32:19Z</time>
      </trkpt>
      <trkpt lat="41.812743" lon="-7.845318">
        <ele>908.216</ele>
        <time>2021-08-03T01:33:00Z</time>
      </trkpt>
      <trkpt lat="41.812850" lon="-7.845918">
        <ele>905.181</ele>
        <time>2021-08-03T01:33:41Z</time>
      </trkpt>
      <trkpt lat="41.813013" lon="-7.846144">
        <ele>902.569</ele>
        <time>2021-08-03T01:34:21Z</time>
      </trkpt>
      <trkpt lat="41.814348" lon="-7.847055">
        <ele>898.420</ele>
        <time>2021-08-03T01:35:02Z</time>
      </trkpt>
      <trkpt lat="41.815772" lon="-7.847641">
        <ele>900.162</ele>
        <time>2021-08-03T01:35:43Z</time>
      </trkpt>
      <trkpt lat="41.816014" lon="-7.848081">
        <ele>901.612</ele>
        <time>2021-08-03T01:36:24Z</time>
      </trkpt>
      <trkpt lat="41.816035" lon="-7.848545">
        <ele>903.513</ele>
        <time>2021-08-03T01:37:05Z</time>
      </trkpt>
      <trkpt lat="41.815826" lon="-7.848916">
        <ele>902.943</ele>
        <time>2021-08-03T01:37:46Z</time>
      </trkpt>
      <trkpt lat="41.814812" lon="-7.849966">
        <ele>898.907</ele>
        <time>2021-08-03T01:38:27Z</time>
      </trkpt>
      <trkpt lat="41.814728" lon="-7.850917">
        <ele>900.908</ele>
        <time>2021-08-03T01:39:08Z</time>
      </trkpt>
      <trkpt lat="41.814405" lon="-7.851697">
        <ele>901.168</ele>
        <time>2021-08-03T01:39:49Z</time>
      </trkpt>
      <trkpt lat="41.811886" lon="-7.854059">
        <ele>898.890</ele>
        <time>2021-08-03T01:40:30Z</time>
      </trkpt>
      <trkpt lat="41.811559" lon="-7.854638">
        <ele>897.979</ele>
        <time>2021-08-03T01:41:12Z</time>
      </trkpt>
      <trkpt lat="41.811528" lon="-7.855127">
        <ele>898.024</ele>
        <time>2021-08-03T01:41:53Z</time>
      </trkpt>
      <trkpt lat="41.811735" lon="-7.856770">
        <ele>902.412</ele>
        <time>2021-08-03T01:42:34Z</time>
      </trkpt>
      <trkpt lat="41.811906" lon="-7.857166">
        <ele>903.023</ele>
        <time>2021-08-03T01:43:15Z</time>
      </trkpt>
      <trkpt lat="41.814737" lon="-7.859559">
        <ele>907.385</ele>
        <time>2021-08-03T01:43:56Z</time>
      </trkpt>
      <trkpt lat="41.815311" lon="-7.860371">
        <ele>909.025</ele>
        <time>2021-08-03T01:44:37Z</time>
      </trkpt>
      <trkpt lat="41.815231" lon="-7.861769">
        <ele>916.192</ele>
        <time>2021-08-03T01:45:19Z</time>
      </trkpt>
      <trkpt lat="41.815492" lon="-7.863063">
        <ele>924.673</ele>
        <time>2021-08-03T01:46:00Z</time>
      </trkpt>
      <trkpt lat="41.815038" lon="-7.865074">
        <ele>931.420</ele>
        <time>2021-08-03T01:46:41Z</time>
      </trkpt>
      <trkpt lat="41.815055" lon="-7.866100">
        <ele>933.108</ele>
        <time>2021-08-03T01:47:23Z</time>
      </trkpt>
      <trkpt lat="41.814158" lon="-7.867413">
        <ele>936.016</ele>
        <time>2021-08-03T01:48:04Z</time>
      </trkpt>
      <trkpt lat="41.813403" lon="-7.867799">
        <ele>936.098</ele>
        <time>2021-08-03T01:48:45Z</time>
      </trkpt>
      <trkpt lat="41.812849" lon="-7.868486">
        <ele>934.587</ele>
        <time>2021-08-03T01:49:27Z</time>
      </trkpt>
      <trkpt lat="41.812529" lon="-7.869261">
        <ele>938.582</ele>
        <time>2021-08-03T01:50:08Z</time>
      </trkpt>
      <trkpt lat="41.811403" lon="-7.869489">
        <ele>930.810</ele>
        <time>2021-08-03T01:50:49Z</time>
      </trkpt>
      <trkpt lat="41.810515" lon="-7.871006">
        <ele>928.781</ele>
        <time>2021-08-03T01:51:31Z</time>
      </trkpt>
      <trkpt lat="41.809665" lon="-7.871773">
        <ele>930.483</ele>
        <time>2021-08-03T01:52:12Z</time>
      </trkpt>
      <trkpt lat="41.808521" lon="-7.873134">
        <ele>931.023</ele>
        <time>2021-08-03T01:52:54Z</time>
      </trkpt>
      <trkpt lat="41.807935" lon="-7.874463">
        <ele>933.665</ele>
        <time>2021-08-03T01:53:35Z</time>
      </trkpt>
      <trkpt lat="41.807252" lon="-7.875180">
        <ele>933.168</ele>
        <time>2021-08-03T01:54:17Z</time>
      </trkpt>
      <trkpt lat="41.807213" lon="-7.875687">
        <ele>935.614</ele>
        <time>2021-08-03T01:54:58Z</time>
      </trkpt>
      <trkpt lat="41.807783" lon="-7.876719">
        <ele>936.408</ele>
        <time>2021-08-03T01:55:40Z</time>
      </trkpt>
      <trkpt lat="41.808014" lon="-7.877634">
        <ele>939.783</ele>
        <time>2021-08-03T01:56:21Z</time>
      </trkpt>
      <trkpt lat="41.808987" lon="-7.878048">
        <ele>943.365</ele>
        <time>2021-08-03T01:57:03Z</time>
      </trkpt>
      <trkpt lat="41.809191" lon="-7.878355">
        <ele>943.854</ele>
        <time>2021-08-03T01:57:45Z</time>
      </trkpt>
      <trkpt lat="41.809222" lon="-7.878759">
        <ele>943.559</ele>
        <time>2021-08-03T01:58:26Z</time>
      </trkpt>
      <trkpt lat="41.808895" lon="-7.880513">
        <ele>942.037</ele>
        <time>2021-08-03T01:59:08Z</time>
      </trkpt>
      <trkpt lat="41.808958" lon="-7.881494">
        <ele>946.528</ele>
        <time>2021-08-03T01:59:49Z</time>
      </trkpt>
      <trkpt lat="41.808223" lon="-7.882793">
        <ele>947.810</ele>
        <time>2021-08-03T02:00:31Z</time>
      </trkpt>
      <trkpt lat="41.807158" lon="-7.883427">
        <ele>947.910</ele>
        <time>2021-08-03T02:01:13Z</time>
      </trkpt>
      <trkpt lat="41.806371" lon="-7.886201">
        <ele>947.329</ele>
        <time>2021-08-03T02:01:54Z</time>
      </trkpt>
      <trkpt lat="41.805863" lon="-7.886622">
        <ele>948.400</ele>
        <time>2021-08-03T02:02:36Z</time>
      </trkpt>
      <trkpt lat="41.804726" lon="-7.889182">
        <ele>941.920</ele>
        <time>2021-08-03T02:03:18Z</time>
      </trkpt>
      <trkpt lat="41.804503" lon="-7.891744">
        <ele>929.608</ele>
        <time>2021-08-03T02:04:00Z</time>
      </trkpt>
      <trkpt lat="41.804896" lon="-7.892459">
        <ele>930.699</ele>
        <time>2021-08-03T02:04:41Z</time>
      </trkpt>
      <trkpt lat="41.805692" lon="-7.893092">
        <ele>924.631</ele>
        <time>2021-08-03T02:05:23Z</time>
      </trkpt>
      <trkpt lat="41.806400" lon="-7.893925">
        <ele>917.550</ele>
        <time>2021-08-03T02:06:05Z</time>
      </trkpt>
      <trkpt lat="41.806287" lon="-7.894675">
        <ele>911.965</ele>
        <time>2021-08-03T02:06:47Z</time>
      </trkpt>
      <trkpt lat="41.806637" lon="-7.896396">
        <ele>901.133</ele>
        <time>2021-08-03T02:07:29Z</time>
      </trkpt>
      <trkpt lat="41.807425" lon="-7.897323">
        <ele>901.354</ele>
        <time>2021-08-03T02:08:11Z</time>
      </trkpt>
      <trkpt lat="41.807629" lon="-7.898281">
        <ele>895.916</ele>
        <time>2021-08-03T02:08:53Z</time>
      </trkpt>
      <trkpt lat="41.807982" lon="-7.898654">
        <ele>895.786</ele>
        <time>2021-08-03T02:09:35Z</time>
      </trkpt>
      <trkpt lat="41.808694" lon="-7.899088">
        <ele>895.727</ele>
        <time>2021-08-03T02:10:17Z</time>
      </trkpt>
      <trkpt lat="41.808928" lon="-7.899527">
        <ele>895.168</ele>
        <time>2021-08-03T02:10:59Z</time>
      </trkpt>
      <trkpt lat="41.808925" lon="-7.899815">
        <ele>901.814</ele>
        <time>2021-08-03T02:11:41Z</time>
      </trkpt>
      <trkpt lat="41.808610" lon="-7.900017">
        <ele>903.008</ele>
        <time>2021-08-03T02:12:22Z</time>
      </trkpt>
      <trkpt lat="41.808340" lon="-7.900006">
        <ele>899.739</ele>
        <time>2021-08-03T02:13:04Z</time>
      </trkpt>
      <trkpt lat="41.806931" lon="-7.899135">
        <ele>905.511</ele>
        <time>2021-08-03T02:13:46Z</time>
      </trkpt>
      <trkpt lat="41.806260" lon="-7.898253">
        <ele>904.360</ele>
        <time>2021-08-03T02:14:28Z</time>
      </trkpt>
      <trkpt lat="41.803709" lon="-7.897138">
        <ele>916.875</ele>
        <time>2021-08-03T02:15:11Z</time>
      </trkpt>
      <trkpt lat="41.802736" lon="-7.895849">
        <ele>916.763</ele>
        <time>2021-08-03T02:15:53Z</time>
      </trkpt>
      <trkpt lat="41.802208" lon="-7.895879">
        <ele>922.914</ele>
        <time>2021-08-03T02:16:35Z</time>
      </trkpt>
      <trkpt lat="41.802008" lon="-7.896031">
        <ele>925.296</ele>
        <time>2021-08-03T02:17:17Z</time>
      </trkpt>
      <trkpt lat="41.800844" lon="-7.899709">
        <ele>931.046</ele>
        <time>2021-08-03T02:17:59Z</time>
      </trkpt>
      <trkpt lat="41.800557" lon="-7.903052">
        <ele>931.154</ele>
        <time>2021-08-03T02:18:41Z</time>
      </trkpt>
      <trkpt lat="41.798826" lon="-7.905513">
        <ele>923.656</ele>
        <time>2021-08-03T02:19:23Z</time>
      </trkpt>
      <trkpt lat="41.798731" lon="-7.905815">
        <ele>923.011</ele>
        <time>2021-08-03T02:20:06Z</time>
      </trkpt>
      <trkpt lat="41.798860" lon="-7.906442">
        <ele>924.208</ele>
        <time>2021-08-03T02:20:48Z</time>
      </trkpt>
      <trkpt lat="41.799099" lon="-7.906687">
        <ele>922.532</ele>
        <time>2021-08-03T02:21:30Z</time>
      </trkpt>
      <trkpt lat="41.800617" lon="-7.907502">
        <ele>922.024</ele>
        <time>2021-08-03T02:22:13Z</time>
      </trkpt>
      <trkpt lat="41.800875" lon="-7.908119">
        <ele>913.233</ele>
        <time>2021-08-03T02:22:55Z</time>
      </trkpt>
      <trkpt lat="41.800829" lon="-7.908728">
        <ele>913.718</ele>
        <time>2021-08-03T02:23:37Z</time>
      </trkpt>
      <trkpt lat="41.798898" lon="-7.911453">
        <ele>927.616</ele>
        <time>2021-08-03T02:24:20Z</time>
      </trkpt>
      <trkpt lat="41.798332" lon="-7.913065">
        <ele>935.297</ele>
        <time>2021-08-03T02:25:02Z</time>
      </trkpt>
      <trkpt lat="41.798050" lon="-7.913533">
        <ele>943.089</ele>
        <time>2021-08-03T02:25:44Z</time>
      </trkpt>
      <trkpt lat="41.796850" lon="-7.914417">
        <ele>944.889</ele>
        <time>2021-08-03T02:26:27Z</time>
      </trkpt>
      <trkpt lat="41.795837" lon="-7.915911">
        <ele>957.345</ele>
        <time>2021-08-03T02:27:09Z</time>
      </trkpt>
      <trkpt lat="41.794374" lon="-7.916816">
        <ele>964.247</ele>
        <time>2021-08-03T02:27:52Z</time>
      </trkpt>
      <trkpt lat="41.793839" lon="-7.917380">
        <ele>966.711</ele>
        <time>2021-08-03T02:28:34Z</time>
      </trkpt>
      <trkpt lat="41.792606" lon="-7.920802">
        <ele>966.908</ele>
        <time>2021-08-03T02:29:17Z</time>
      </trkpt>
      <trkpt lat="41.790625" lon="-7.923199">
        <ele>967.681</ele>
        <time>2021-08-03T02:30:00Z</time>
      </trkpt>
      <trkpt lat="41.790509" lon="-7.923855">
        <ele>965.733</ele>
        <time>2021-08-03T02:30:42Z</time>
      </trkpt>
      <trkpt lat="41.791034" lon="-7.925616">
        <ele>963.722</ele>
        <time>2021-08-03T02:31:25Z</time>
      </trkpt>
      <trkpt lat="41.791131" lon="-7.926510">
        <ele>959.227</ele>
        <time>2021-08-03T02:32:08Z</time>
      </trkpt>
      <trkpt lat="41.790538" lon="-7.928795">
        <ele>947.855</ele>
        <time>2021-08-03T02:32:50Z</time>
      </trkpt>
      <trkpt lat="41.790783" lon="-7.929827">
        <ele>947.976</ele>
        <time>2021-08-03T02:33:33Z</time>
      </trkpt>
      <trkpt lat="41.790745" lon="-7.930368">
        <ele>943.888</ele>
        <time>2021-08-03T02:34:16Z</time>
      </trkpt>
      <trkpt lat="41.790460" lon="-7.930715">
        <ele>940.978</ele>
        <time>2021-08-03T02:34:58Z</time>
      </trkpt>
      <trkpt lat="41.789442" lon="-7.931234">
        <ele>928.457</ele>
        <time>2021-08-03T02:35:41Z</time>
      </trkpt>
      <trkpt lat="41.788878" lon="-7.931816">
        <ele>923.500</ele>
        <time>2021-08-03T02:36:24Z</time>
      </trkpt>
      <trkpt lat="41.787140" lon="-7.935101">
        <ele>912.820</ele>
        <time>2021-08-03T02:37:07Z</time>
      </trkpt>
      <trkpt lat="41.787337" lon="-7.935773">
        <ele>913.208</ele>
        <time>2021-08-03T02:37:50Z</time>
      </trkpt>
      <trkpt lat="41.788032" lon="-7.936123">
        <ele>908.672</ele>
        <time>2021-08-03T02:38:32Z</time>
      </trkpt>
      <trkpt lat="41.788413" lon="-7.936554">
        <ele>906.854</ele>
        <time>2021-08-03T02:39:15Z</time>
      </trkpt>
      <trkpt lat="41.788381" lon="-7.937454">
        <ele>904.793</ele>
        <time>2021-08-03T02:39:58Z</time>
      </trkpt>
      <trkpt lat="41.787998" lon="-7.937925">
        <ele>899.358</ele>
        <time>2021-08-03T02:40:41Z</time>
      </trkpt>
      <trkpt lat="41.785314" lon="-7.939228">
        <ele>885.236</ele>
        <time>2021-08-03T02:41:24Z</time>
      </trkpt>
      <trkpt lat="41.784891" lon="-7.939668">
        <ele>883.397</ele>
        <time>2021-08-03T02:42:07Z</time>
      </trkpt>
      <trkpt lat="41.783799" lon="-7.941396">
        <ele>873.579</ele>
        <time>2021-08-03T02:42:50Z</time>
      </trkpt>
      <trkpt lat="41.783857" lon="-7.942382">
        <ele>873.319</ele>
        <time>2021-08-03T02:43:33Z</time>
      </trkpt>
      <trkpt lat="41.784004" lon="-7.942654">
        <ele>871.332</ele>
        <time>2021-08-03T02:44:16Z</time>
      </trkpt>
      <trkpt lat="41.784409" lon="-7.942942">
        <ele>870.592</ele>
        <time>2021-08-03T02:44:59Z</time>
      </trkpt>
      <trkpt lat="41.785936" lon="-7.943234">
        <ele>872.611</ele>
        <time>2021-08-03T02:45:42Z</time>
      </trkpt>
      <trkpt lat="41.787664" lon="-7.943004">
        <ele>861.908</ele>
        <time>2021-08-03T02:46:25Z</time>
      </trkpt>
      <trkpt lat="41.787549" lon="-7.943384">
        <ele>853.910</ele>
        <time>2021-08-03T02:47:08Z</time>
      </trkpt>
      <trkpt lat="41.786991" lon="-7.943374">
        <ele>858.112</ele>
        <time>2021-08-03T02:47:51Z</time>
      </trkpt>
      <trkpt lat="41.786949" lon="-7.943464">
        <ele>855.871</ele>
        <time>2021-08-03T02:48:34Z</time>
      </trkpt>
      <trkpt lat="41.787519" lon="-7.943803">
        <ele>845.716</ele>
        <time>2021-08-03T02:49:17Z</time>
      </trkpt>
      <trkpt lat="41.787434" lon="-7.944294">
        <ele>839.244</ele>
        <time>2021-08-03T02:50:01Z</time>
      </trkpt>
      <trkpt lat="41.786582" lon="-7.944119">
        <ele>837.095</ele>
        <time>2021-08-03T02:50:44Z</time>
      </trkpt>
      <trkpt lat="41.785238" lon="-7.944668">
        <ele>819.667</ele>
        <time>2021-08-03T02:51:27Z</time>
      </trkpt>
      <trkpt lat="41.784322" lon="-7.944737">
        <ele>807.627</ele>
        <time>2021-08-03T02:52:10Z</time>
      </trkpt>
      <trkpt lat="41.783479" lon="-7.944381">
        <ele>804.684</ele>
        <time>2021-08-03T02:52:53Z</time>
      </trkpt>
      <trkpt lat="41.782728" lon="-7.944362">
        <ele>792.907</ele>
        <time>2021-08-03T02:53:36Z</time>
      </trkpt>
      <trkpt lat="41.782304" lon="-7.943912">
        <ele>790.017</ele>
        <time>2021-08-03T02:54:20Z</time>
      </trkpt>
      <trkpt lat="41.781734" lon="-7.943758">
        <ele>773.608</ele>
        <time>2021-08-03T02:55:03Z</time>
      </trkpt>
      <trkpt lat="41.781358" lon="-7.943361">
        <ele>765.295</ele>
        <time>2021-08-03T02:55:46Z</time>
      </trkpt>
      <trkpt lat="41.781280" lon="-7.942882">
        <ele>761.837</ele>
        <time>2021-08-03T02:56:29Z</time>
      </trkpt>
      <trkpt lat="41.781568" lon="-7.941128">
        <ele>765.256</ele>
        <time>2021-08-03T02:57:13Z</time>
      </trkpt>
      <trkpt lat="41.781518" lon="-7.940353">
        <ele>776.741</ele>
        <time>2021-08-03T02:57:56Z</time>
      </trkpt>
      <trkpt lat="41.781328" lon="-7.940234">
        <ele>778.069</ele>
        <time>2021-08-03T02:58:39Z</time>
      </trkpt>
      <trkpt lat="41.780933" lon="-7.940470">
        <ele>767.530</ele>
        <time>2021-08-03T02:59:22Z</time>
      </trkpt>
      <trkpt lat="41.780502" lon="-7.940434">
        <ele>753.212</ele>
        <time>2021-08-03T03:00:06Z</time>
      </trkpt>
      <trkpt lat="41.780099" lon="-7.939645">
        <ele>763.652</ele>
        <time>2021-08-03T03:00:49Z</time>
      </trkpt>
      <trkpt lat="41.779337" lon="-7.939365">
        <ele>746.513</ele>
        <time>2021-08-03T03:01:32Z</time>
      </trkpt>
      <trkpt lat="41.779168" lon="-7.939124">
        <ele>744.543</ele>
        <time>2021-08-03T03:02:16Z</time>
      </trkpt>
      <trkpt lat="41.779076" lon="-7.938484">
        <ele>749.807</ele>
        <time>2021-08-03T03:02:59Z</time>
      </trkpt>
      <trkpt lat="41.778797" lon="-7.938358">
        <ele>755.408</ele>
        <time>2021-08-03T03:03:42Z</time>
      </trkpt>
      <trkpt lat="41.778549" lon="-7.938709">
        <ele>761.228</ele>
        <time>2021-08-03T03:04:26Z</time>
      </trkpt>
      <trkpt lat="41.778486" lon="-7.939202">
        <ele>768.280</ele>
        <time>2021-08-03T03:05:09Z</time>
      </trkpt>
      <trkpt lat="41.779100" lon="-7.940575">
        <ele>757.499</ele>
        <time>2021-08-03T03:05:52Z</time>
      </trkpt>
      <trkpt lat="41.778112" lon="-7.946313">
        <ele>758.884</ele>
        <time>2021-08-03T03:06:36Z</time>
      </trkpt>
      <trkpt lat="41.777807" lon="-7.946607">
        <ele>760.472</ele>
        <time>2021-08-03T03:07:19Z</time>
      </trkpt>
      <trkpt lat="41.775902" lon="-7.946046">
        <ele>773.173</ele>
        <time>2021-08-03T03:08:03Z</time>
      </trkpt>
      <trkpt lat="41.775214" lon="-7.945651">
        <ele>783.945</ele>
        <time>2021-08-03T03:08:46Z</time>
      </trkpt>
      <trkpt lat="41.774111" lon="-7.945734">
        <ele>774.765</ele>
        <time>2021-08-03T03:09:30Z</time>
      </trkpt>
      <trkpt lat="41.773879" lon="-7.945504">
        <ele>769.822</ele>
        <time>2021-08-03T03:10:13Z</time>
      </trkpt>
      <trkpt lat="41.774092" lon="-7.944696">
        <ele>769.162</ele>
        <time>2021-08-03T03:10:57Z</time>
      </trkpt>
      <trkpt lat="41.773868" lon="-7.944420">
        <ele>771.608</ele>
        <time>2021-08-03T03:11:41Z</time>
      </trkpt>
      <trkpt lat="41.773431" lon="-7.944400">
        <ele>771.508</ele>
        <time>2021-08-03T03:12:24Z</time>
      </trkpt>
      <trkpt lat="41.772764" lon="-7.944634">
        <ele>770.349</ele>
        <time>2021-08-03T03:13:08Z</time>
      </trkpt>
      <trkpt lat="41.771356" lon="-7.944543">
        <ele>768.811</ele>
        <time>2021-08-03T03:13:51Z</time>
      </trkpt>
      <trkpt lat="41.771043" lon="-7.944245">
        <ele>769.740</ele>
        <time>2021-08-03T03:14:35Z</time>
      </trkpt>
      <trkpt lat="41.770611" lon="-7.943398">
        <ele>780.865</ele>
        <time>2021-08-03T03:15:19Z</time>
      </trkpt>
      <trkpt lat="41.769561" lon="-7.943595">
        <ele>789.763</ele>
        <time>2021-08-03T03:16:02Z</time>
      </trkpt>
      <trkpt lat="41.767936" lon="-7.942486">
        <ele>793.034</ele>
        <time>2021-08-03T03:16:46Z</time>
      </trkpt>
      <trkpt lat="41.767138" lon="-7.943141">
        <ele>783.416</ele>
        <time>2021-08-03T03:17:30Z</time>
      </trkpt>
      <trkpt lat="41.767156" lon="-7.943960">
        <ele>779.226</ele>
        <time>2021-08-03T03:18:13Z</time>
      </trkpt>
      <trkpt lat="41.766832" lon="-7.944460">
        <ele>785.173</ele>
        <time>2021-08-03T03:18:57Z</time>
      </trkpt>
      <trkpt lat="41.766646" lon="-7.944472">
        <ele>787.785</ele>
        <time>2021-08-03T03:19:41Z</time>
      </trkpt>
      <trkpt lat="41.765237" lon="-7.943690">
        <ele>799.813</ele>
        <time>2021-08-03T03:20:25Z</time>
      </trkpt>
      <trkpt lat="41.764433" lon="-7.943484">
        <ele>802.708</ele>
        <time>2021-08-03T03:21:08Z</time>
      </trkpt>
      <trkpt lat="41.764408" lon="-7.943509">
        <ele>802.684</ele>
        <time>2021-08-03T03:21:52Z</time>
      </trkpt>
      <trkpt lat="41.764430" lon="-7.943480">
        <ele>802.916</ele>
        <time>2021-08-03T03:22:36Z</time>
      </trkpt>
      <trkpt lat="41.764430" lon="-7.943480">
        <ele>803.265</ele>
        <time>2021-08-03T03:23:20Z</time>
      </trkpt>
      <trkpt lat="41.763872" lon="-7.943351">
        <ele>806.850</ele>
        <time>2021-08-03T03:24:04Z</time>
      </trkpt>
      <trkpt lat="41.763850" lon="-7.943416">
        <ele>806.458</ele>
        <time>2021-08-03T03:24:47Z</time>
      </trkpt>
      <trkpt lat="41.763829" lon="-7.943437">
        <ele>806.239</ele>
        <time>2021-08-03T03:25:31Z</time>
      </trkpt>
      <trkpt lat="41.763775" lon="-7.943448">
        <ele>806.511</ele>
        <time>2021-08-03T03:26:15Z</time>
      </trkpt>
      <trkpt lat="41.763722" lon="-7.943416">
        <ele>807.351</ele>
        <time>2021-08-03T03:26:59Z</time>
      </trkpt>
      <trkpt lat="41.763700" lon="-7.943351">
        <ele>808.314</ele>
        <time>2021-08-03T03:27:43Z</time>
      </trkpt>
      <trkpt lat="41.763700" lon="-7.943319">
        <ele>809.754</ele>
        <time>2021-08-03T03:28:26Z</time>
      </trkpt>
      <trkpt lat="41.761672" lon="-7.942729">
        <ele>823.409</ele>
        <time>2021-08-03T03:29:10Z</time>
      </trkpt>
      <trkpt lat="41.761436" lon="-7.942708">
        <ele>828.008</ele>
        <time>2021-08-03T03:29:54Z</time>
      </trkpt>
      <trkpt lat="41.761168" lon="-7.942815">
        <ele>831.178</ele>
        <time>2021-08-03T03:30:38Z</time>
      </trkpt>
      <trkpt lat="41.760728" lon="-7.943276">
        <ele>832.470</ele>
        <time>2021-08-03T03:31:22Z</time>
      </trkpt>
      <trkpt lat="41.760428" lon="-7.943426">
        <ele>835.869</ele>
        <time>2021-08-03T03:32:06Z</time>
      </trkpt>
      <trkpt lat="41.760203" lon="-7.943469">
        <ele>838.994</ele>
        <time>2021-08-03T03:32:49Z</time>
      </trkpt>
      <trkpt lat="41.759570" lon="-7.943373">
        <ele>844.812</ele>
        <time>2021-08-03T03:33:33Z</time>
      </trkpt>
      <trkpt lat="41.759366" lon="-7.943416">
        <ele>846.333</ele>
        <time>2021-08-03T03:34:17Z</time>
      </trkpt>
      <trkpt lat="41.759130" lon="-7.943598">
        <ele>845.695</ele>
        <time>2021-08-03T03:35:01Z</time>
      </trkpt>
      <trkpt lat="41.758754" lon="-7.944102">
        <ele>844.355</ele>
        <time>2021-08-03T03:35:45Z</time>
      </trkpt>
      <trkpt lat="41.758647" lon="-7.944199">
        <ele>844.267</ele>
        <time>2021-08-03T03:36:29Z</time>
      </trkpt>
      <trkpt lat="41.758647" lon="-7.944199">
        <ele>844.281</ele>
        <time>2021-08-03T03:37:13Z</time>
      </trkpt>
      <trkpt lat="41.758465" lon="-7.944317">
        <ele>843.919</ele>
        <time>2021-08-03T03:37:57Z</time>
      </trkpt>
      <trkpt lat="41.757874" lon="-7.944489">
        <ele>840.408</ele>
        <time>2021-08-03T03:38:41Z</time>
      </trkpt>
      <trkpt lat="41.757574" lon="-7.944499">
        <ele>838.743</ele>
        <time>2021-08-03T03:39:24Z</time>
      </trkpt>
      <trkpt lat="41.757413" lon="-7.944456">
        <ele>837.555</ele>
        <time>2021-08-03T03:40:08Z</time>
      </trkpt>
      <trkpt lat="41.757295" lon="-7.944328">
        <ele>836.774</ele>
        <time>2021-08-03T03:40:52Z</time>
      </trkpt>
      <trkpt lat="41.757295" lon="-7.944328">
        <ele>836.319</ele>
        <time>2021-08-03T03:41:36Z</time>
      </trkpt>
      <trkpt lat="41.756791" lon="-7.943029">
        <ele>830.097</ele>
        <time>2021-08-03T03:42:20Z</time>
      </trkpt>
      <trkpt lat="41.756576" lon="-7.942783">
        <ele>830.558</ele>
        <time>2021-08-03T03:43:04Z</time>
      </trkpt>
      <trkpt lat="41.756297" lon="-7.942665">
        <ele>830.820</ele>
        <time>2021-08-03T03:43:48Z</time>
      </trkpt>
      <trkpt lat="41.756126" lon="-7.942675">
        <ele>831.970</ele>
        <time>2021-08-03T03:44:32Z</time>
      </trkpt>
      <trkpt lat="41.756029" lon="-7.942675">
        <ele>833.532</ele>
        <time>2021-08-03T03:45:16Z</time>
      </trkpt>
      <trkpt lat="41.755782" lon="-7.942804">
        <ele>834.792</ele>
        <time>2021-08-03T03:46:00Z</time>
      </trkpt>
      <trkpt lat="41.755493" lon="-7.943169">
        <ele>834.511</ele>
        <time>2021-08-03T03:46:44Z</time>
      </trkpt>
      <trkpt lat="41.755493" lon="-7.943169">
        <ele>834.608</ele>
        <time>2021-08-03T03:47:28Z</time>
      </trkpt>
      <trkpt lat="41.755106" lon="-7.943738">
        <ele>837.190</ele>
        <time>2021-08-03T03:48:12Z</time>
      </trkpt>
      <trkpt lat="41.754892" lon="-7.943920">
        <ele>838.532</ele>
        <time>2021-08-03T03:48:56Z</time>
      </trkpt>
      <trkpt lat="41.754313" lon="-7.944081">
        <ele>848.741</ele>
        <time>2021-08-03T03:49:40Z</time>
      </trkpt>
      <trkpt lat="41.753701" lon="-7.944521">
        <ele>853.776</ele>
        <time>2021-08-03T03:50:24Z</time>
      </trkpt>
      <trkpt lat="41.753519" lon="-7.944843">
        <ele>857.194</ele>
        <time>2021-08-03T03:51:08Z</time>
      </trkpt>
      <trkpt lat="41.753465" lon="-7.945079">
        <ele>858.095</ele>
        <time>2021-08-03T03:51:52Z</time>
      </trkpt>
      <trkpt lat="41.753529" lon="-7.945561">
        <ele>857.647</ele>
        <time>2021-08-03T03:52:36Z</time>
      </trkpt>
      <trkpt lat="41.753486" lon="-7.945980">
        <ele>858.887</ele>
        <time>2021-08-03T03:53:20Z</time>
      </trkpt>
      <trkpt lat="41.753390" lon="-7.946237">
        <ele>857.971</ele>
        <time>2021-08-03T03:54:04Z</time>
      </trkpt>
      <trkpt lat="41.753272" lon="-7.946377">
        <ele>855.941</ele>
        <time>2021-08-03T03:54:48Z</time>
      </trkpt>
      <trkpt lat="41.753100" lon="-7.946420">
        <ele>856.115</ele>
        <time>2021-08-03T03:55:32Z</time>
      </trkpt>
      <trkpt lat="41.752939" lon="-7.946377">
        <ele>858.008</ele>
        <time>2021-08-03T03:56:16Z</time>
      </trkpt>
      <trkpt lat="41.752574" lon="-7.946109">
        <ele>865.474</ele>
        <time>2021-08-03T03:57:00Z</time>
      </trkpt>
      <trkpt lat="41.752435" lon="-7.946087">
        <ele>869.926</ele>
        <time>2021-08-03T03:57:44Z</time>
      </trkpt>
      <trkpt lat="41.752295" lon="-7.946141">
        <ele>872.465</ele>
        <time>2021-08-03T03:58:28Z</time>
      </trkpt>
      <trkpt lat="41.752038" lon="-7.946409">
        <ele>872.790</ele>
        <time>2021-08-03T03:59:13Z</time>
      </trkpt>
      <trkpt lat="41.751791" lon="-7.946506">
        <ele>873.428</ele>
        <time>2021-08-03T03:59:57Z</time>
      </trkpt>
      <trkpt lat="41.751276" lon="-7.946420">
        <ele>872.589</ele>
        <time>2021-08-03T04:00:41Z</time>
      </trkpt>
      <trkpt lat="41.750783" lon="-7.946334">
        <ele>879.171</ele>
        <time>2021-08-03T04:01:25Z</time>
      </trkpt>
      <trkpt lat="41.750321" lon="-7.946388">
        <ele>882.361</ele>
        <time>2021-08-03T04:02:09Z</time>
      </trkpt>
      <trkpt lat="41.750193" lon="-7.946495">
        <ele>879.631</ele>
        <time>2021-08-03T04:02:53Z</time>
      </trkpt>
      <trkpt lat="41.750107" lon="-7.946731">
        <ele>875.961</ele>
        <time>2021-08-03T04:03:37Z</time>
      </trkpt>
      <trkpt lat="41.750139" lon="-7.946988">
        <ele>873.807</ele>
        <time>2021-08-03T04:04:21Z</time>
      </trkpt>
      <trkpt lat="41.750279" lon="-7.947310">
        <ele>875.908</ele>
        <time>2021-08-03T04:05:05Z</time>
      </trkpt>
      <trkpt lat="41.750354" lon="-7.947471">
        <ele>880.170</ele>
        <time>2021-08-03T04:05:50Z</time>
      </trkpt>
      <trkpt lat="41.750450" lon="-7.947975">
        <ele>889.262</ele>
        <time>2021-08-03T04:06:34Z</time>
      </trkpt>
      <trkpt lat="41.750547" lon="-7.948190">
        <ele>890.221</ele>
        <time>2021-08-03T04:07:18Z</time>
      </trkpt>
      <trkpt lat="41.750922" lon="-7.948587">
        <ele>883.246</ele>
        <time>2021-08-03T04:08:02Z</time>
      </trkpt>
      <trkpt lat="41.751029" lon="-7.948791">
        <ele>882.924</ele>
        <time>2021-08-03T04:08:46Z</time>
      </trkpt>
      <trkpt lat="41.751233" lon="-7.949671">
        <ele>890.995</ele>
        <time>2021-08-03T04:09:30Z</time>
      </trkpt>
      <trkpt lat="41.751223" lon="-7.950164">
        <ele>902.917</ele>
        <time>2021-08-03T04:10:14Z</time>
      </trkpt>
      <trkpt lat="41.751276" lon="-7.950497">
        <ele>905.227</ele>
        <time>2021-08-03T04:10:59Z</time>
      </trkpt>
      <trkpt lat="41.751512" lon="-7.950937">
        <ele>899.347</ele>
        <time>2021-08-03T04:11:43Z</time>
      </trkpt>
      <trkpt lat="41.751566" lon="-7.951022">
        <ele>897.829</ele>
        <time>2021-08-03T04:12:27Z</time>
      </trkpt>
      <trkpt lat="41.751641" lon="-7.951226">
        <ele>896.521</ele>
        <time>2021-08-03T04:13:11Z</time>
      </trkpt>
      <trkpt lat="41.751620" lon="-7.951409">
        <ele>898.408</ele>
        <time>2021-08-03T04:13:55Z</time>
      </trkpt>
      <trkpt lat="41.751534" lon="-7.951666">
        <ele>901.091</ele>
        <time>2021-08-03T04:14:39Z</time>
      </trkpt>
      <trkpt lat="41.751308" lon="-7.951891">
        <ele>903.133</ele>
        <time>2021-08-03T04:15:24Z</time>
      </trkpt>
      <trkpt lat="41.751072" lon="-7.952052">
        <ele>901.662</ele>
        <time>2021-08-03T04:16:08Z</time>
      </trkpt>
      <trkpt lat="41.750836" lon="-7.952074">
        <ele>902.277</ele>
        <time>2021-08-03T04:16:52Z</time>
      </trkpt>
      <trkpt lat="41.749656" lon="-7.951741">
        <ele>913.915</ele>
        <time>2021-08-03T04:17:36Z</time>
      </trkpt>
      <trkpt lat="41.749485" lon="-7.951741">
        <ele>916.146</ele>
        <time>2021-08-03T04:18:21Z</time>
      </trkpt>
      <trkpt lat="41.749313" lon="-7.951838">
        <ele>918.878</ele>
        <time>2021-08-03T04:19:05Z</time>
      </trkpt>
      <trkpt lat="41.749195" lon="-7.952042">
        <ele>919.998</ele>
        <time>2021-08-03T04:19:49Z</time>
      </trkpt>
      <trkpt lat="41.749195" lon="-7.952042">
        <ele>920.112</ele>
        <time>2021-08-03T04:20:33Z</time>
      </trkpt>
      <trkpt lat="41.749023" lon="-7.952707">
        <ele>921.932</ele>
        <time>2021-08-03T04:21:18Z</time>
      </trkpt>
      <trkpt lat="41.748894" lon="-7.952996">
        <ele>923.005</ele>
        <time>2021-08-03T04:22:02Z</time>
      </trkpt>
      <trkpt lat="41.748283" lon="-7.953608">
        <ele>933.408</ele>
        <time>2021-08-03T04:22:46Z</time>
      </trkpt>
      <trkpt lat="41.748186" lon="-7.953812">
        <ele>934.188</ele>
        <time>2021-08-03T04:23:30Z</time>
      </trkpt>
      <trkpt lat="41.748133" lon="-7.954209">
        <ele>932.310</ele>
        <time>2021-08-03T04:24:15Z</time>
      </trkpt>
      <trkpt lat="41.748047" lon="-7.954466">
        <ele>933.469</ele>
        <time>2021-08-03T04:24:59Z</time>
      </trkpt>
      <trkpt lat="41.747446" lon="-7.955207">
        <ele>935.094</ele>
        <time>2021-08-03T04:25:43Z</time>
      </trkpt>
      <trkpt lat="41.746813" lon="-7.955743">
        <ele>937.912</ele>
        <time>2021-08-03T04:26:27Z</time>
      </trkpt>
      <trkpt lat="41.746416" lon="-7.955925">
        <ele>934.713</ele>
        <time>2021-08-03T04:27:12Z</time>
      </trkpt>
      <trkpt lat="41.746148" lon="-7.955883">
        <ele>936.475</ele>
        <time>2021-08-03T04:27:56Z</time>
      </trkpt>
      <trkpt lat="41.745708" lon="-7.955625">
        <ele>946.645</ele>
        <time>2021-08-03T04:28:40Z</time>
      </trkpt>
      <trkpt lat="41.745483" lon="-7.955647">
        <ele>951.714</ele>
        <time>2021-08-03T04:29:25Z</time>
      </trkpt>
      <trkpt lat="41.745311" lon="-7.955872">
        <ele>952.654</ele>
        <time>2021-08-03T04:30:09Z</time>
      </trkpt>
      <trkpt lat="41.745311" lon="-7.955872">
        <ele>952.409</ele>
        <time>2021-08-03T04:30:54Z</time>
      </trkpt>
      <trkpt lat="41.745204" lon="-7.956440">
        <ele>949.908</ele>
        <time>2021-08-03T04:31:38Z</time>
      </trkpt>
      <trkpt lat="41.745032" lon="-7.956752">
        <ele>950.238</ele>
        <time>2021-08-03T04:32:22Z</time>
      </trkpt>
      <trkpt lat="41.744710" lon="-7.956966">
        <ele>950.880</ele>
        <time>2021-08-03T04:33:07Z</time>
      </trkpt>
      <trkpt lat="41.744421" lon="-7.957041">
        <ele>950.069</ele>
        <time>2021-08-03T04:33:51Z</time>
      </trkpt>
      <trkpt lat="41.743863" lon="-7.956977">
        <ele>957.374</ele>
        <time>2021-08-03T04:34:35Z</time>
      </trkpt>
      <trkpt lat="41.743670" lon="-7.957041">
        <ele>959.222</ele>
        <time>2021-08-03T04:35:20Z</time>
      </trkpt>
      <trkpt lat="41.743487" lon="-7.957191">
        <ele>961.953</ele>
        <time>2021-08-03T04:36:04Z</time>
      </trkpt>
      <trkpt lat="41.743262" lon="-7.957599">
        <ele>959.535</ele>
        <time>2021-08-03T04:36:49Z</time>
      </trkpt>
      <trkpt lat="41.743122" lon="-7.957760">
        <ele>958.195</ele>
        <time>2021-08-03T04:37:33Z</time>
      </trkpt>
      <trkpt lat="41.742918" lon="-7.957803">
        <ele>957.784</ele>
        <time>2021-08-03T04:38:17Z</time>
      </trkpt>
      <trkpt lat="41.742564" lon="-7.957728">
        <ele>962.307</ele>
        <time>2021-08-03T04:39:02Z</time>
      </trkpt>
      <trkpt lat="41.742339" lon="-7.957792">
        <ele>965.117</ele>
        <time>2021-08-03T04:39:46Z</time>
      </trkpt>
      <trkpt lat="41.742210" lon="-7.957942">
        <ele>965.608</ele>
        <time>2021-08-03T04:40:31Z</time>
      </trkpt>
      <trkpt lat="41.741985" lon="-7.958672">
        <ele>964.625</ele>
        <time>2021-08-03T04:41:15Z</time>
      </trkpt>
      <trkpt lat="41.741867" lon="-7.958865">
        <ele>963.527</ele>
        <time>2021-08-03T04:41:59Z</time>
      </trkpt>
      <trkpt lat="41.741470" lon="-7.959166">
        <ele>963.816</ele>
        <time>2021-08-03T04:42:44Z</time>
      </trkpt>
      <trkpt lat="41.741470" lon="-7.959166">
        <ele>963.611</ele>
        <time>2021-08-03T04:43:28Z</time>
      </trkpt>
      <trkpt lat="41.741309" lon="-7.959498">
        <ele>960.919</ele>
        <time>2021-08-03T04:44:13Z</time>
      </trkpt>
      <trkpt lat="41.741266" lon="-7.959777">
        <ele>958.050</ele>
        <time>2021-08-03T04:44:57Z</time>
      </trkpt>
      <trkpt lat="41.741234" lon="-7.959970">
        <ele>956.962</ele>
        <time>2021-08-03T04:45:42Z</time>
      </trkpt>
      <trkpt lat="41.741105" lon="-7.960217">
        <ele>957.182</ele>
        <time>2021-08-03T04:46:26Z</time>
      </trkpt>
      <trkpt lat="41.740859" lon="-7.960432">
        <ele>957.751</ele>
        <time>2021-08-03T04:47:11Z</time>
      </trkpt>
      <trkpt lat="41.740655" lon="-7.960507">
        <ele>957.201</ele>
        <time>2021-08-03T04:47:55Z</time>
      </trkpt>
      <trkpt lat="41.740537" lon="-7.960453">
        <ele>955.711</ele>
        <time>2021-08-03T04:48:40Z</time>
      </trkpt>
      <trkpt lat="41.740537" lon="-7.960453">
        <ele>955.508</ele>
        <time>2021-08-03T04:49:24Z</time>
      </trkpt>
      <trkpt lat="41.740451" lon="-7.960378">
        <ele>954.012</ele>
        <time>2021-08-03T04:50:08Z</time>
      </trkpt>
      <trkpt lat="41.740333" lon="-7.960142">
        <ele>953.024</ele>
        <time>2021-08-03T04:50:53Z</time>
      </trkpt>
      <trkpt lat="41.740290" lon="-7.959702">
        <ele>957.253</ele>
        <time>2021-08-03T04:51:37Z</time>
      </trkpt>
      <trkpt lat="41.740247" lon="-7.959530">
        <ele>958.868</ele>
        <time>2021-08-03T04:52:22Z</time>
      </trkpt>
      <trkpt lat="41.740247" lon="-7.959530">
        <ele>959.266</ele>
        <time>2021-08-03T04:53:06Z</time>
      </trkpt>
      <trkpt lat="41.739925" lon="-7.958865">
        <ele>964.247</ele>
        <time>2021-08-03T04:53:51Z</time>
      </trkpt>
      <trkpt lat="41.739786" lon="-7.958726">
        <ele>963.289</ele>
        <time>2021-08-03T04:54:35Z</time>
      </trkpt>
      <trkpt lat="41.739582" lon="-7.958704">
        <ele>961.759</ele>
        <time>2021-08-03T04:55:20Z</time>
      </trkpt>
      <trkpt lat="41.739410" lon="-7.958812">
        <ele>961.836</ele>
        <time>2021-08-03T04:56:04Z</time>
      </trkpt>
      <trkpt lat="41.739410" lon="-7.958812">
        <ele>961.817</ele>
        <time>2021-08-03T04:56:49Z</time>
      </trkpt>
      <trkpt lat="41.739314" lon="-7.959037">
        <ele>963.018</ele>
        <time>2021-08-03T04:57:33Z</time>
      </trkpt>
      <trkpt lat="41.739314" lon="-7.959262">
        <ele>963.608</ele>
        <time>2021-08-03T04:58:18Z</time>
      </trkpt>
      <trkpt lat="41.739475" lon="-7.959723">
        <ele>958.080</ele>
        <time>2021-08-03T04:59:02Z</time>
      </trkpt>
      <trkpt lat="41.739485" lon="-7.959917">
        <ele>956.222</ele>
        <time>2021-08-03T04:59:47Z</time>
      </trkpt>
      <trkpt lat="41.739421" lon="-7.960163">
        <ele>955.461</ele>
        <time>2021-08-03T05:00:31Z</time>
      </trkpt>
      <trkpt lat="41.739303" lon="-7.960346">
        <ele>954.676</ele>
        <time>2021-08-03T05:01:16Z</time>
      </trkpt>
      <trkpt lat="41.738960" lon="-7.960711">
        <ele>956.084</ele>
        <time>2021-08-03T05:02:01Z</time>
      </trkpt>
      <trkpt lat="41.738144" lon="-7.961215">
        <ele>956.575</ele>
        <time>2021-08-03T05:02:45Z</time>
      </trkpt>
      <trkpt lat="41.738005" lon="-7.961386">
        <ele>954.397</ele>
        <time>2021-08-03T05:03:30Z</time>
      </trkpt>
      <trkpt lat="41.737962" lon="-7.961580">
        <ele>951.187</ele>
        <time>2021-08-03T05:04:14Z</time>
      </trkpt>
      <trkpt lat="41.737972" lon="-7.962148">
        <ele>944.443</ele>
        <time>2021-08-03T05:04:59Z</time>
      </trkpt>
      <trkpt lat="41.737897" lon="-7.962416">
        <ele>944.064</ele>
        <time>2021-08-03T05:05:43Z</time>
      </trkpt>
      <trkpt lat="41.737726" lon="-7.962599">
        <ele>944.410</ele>
        <time>2021-08-03T05:06:28Z</time>
      </trkpt>
      <trkpt lat="41.737554" lon="-7.962674">
        <ele>944.108</ele>
        <time>2021-08-03T05:07:13Z</time>
      </trkpt>
      <trkpt lat="41.737372" lon="-7.962620">
        <ele>941.541</ele>
        <time>2021-08-03T05:07:57Z</time>
      </trkpt>
      <trkpt lat="41.737061" lon="-7.962373">
        <ele>939.683</ele>
        <time>2021-08-03T05:08:42Z</time>
      </trkpt>
      <trkpt lat="41.736867" lon="-7.962234">
        <ele>940.822</ele>
        <time>2021-08-03T05:09:26Z</time>
      </trkpt>
      <trkpt lat="41.736213" lon="-7.961901">
        <ele>942.457</ele>
        <time>2021-08-03T05:10:11Z</time>
      </trkpt>
      <trkpt lat="41.735601" lon="-7.961773">
        <ele>940.515</ele>
        <time>2021-08-03T05:10:56Z</time>
      </trkpt>
      <trkpt lat="41.735387" lon="-7.961826">
        <ele>940.526</ele>
        <time>2021-08-03T05:11:40Z</time>
      </trkpt>
      <trkpt lat="41.735226" lon="-7.962095">
        <ele>940.318</ele>
        <time>2021-08-03T05:12:25Z</time>
      </trkpt>
      <trkpt lat="41.735194" lon="-7.962416">
        <ele>937.948</ele>
        <time>2021-08-03T05:13:09Z</time>
      </trkpt>
      <trkpt lat="41.735226" lon="-7.962642">
        <ele>936.213</ele>
        <time>2021-08-03T05:13:54Z</time>
      </trkpt>
      <trkpt lat="41.735634" lon="-7.963157">
        <ele>932.643</ele>
        <time>2021-08-03T05:14:39Z</time>
      </trkpt>
      <trkpt lat="41.735698" lon="-7.963393">
        <ele>933.007</ele>
        <time>2021-08-03T05:15:23Z</time>
      </trkpt>
      <trkpt lat="41.735709" lon="-7.963629">
        <ele>933.908</ele>
        <time>2021-08-03T05:16:08Z</time>
      </trkpt>
      <trkpt lat="41.735634" lon="-7.964423">
        <ele>932.968</ele>
        <time>2021-08-03T05:16:53Z</time>
      </trkpt>
      <trkpt lat="41.735634" lon="-7.965195">
        <ele>930.890</ele>
        <time>2021-08-03T05:17:37Z</time>
      </trkpt>
      <trkpt lat="41.735612" lon="-7.965270">
        <ele>930.799</ele>
        <time>2021-08-03T05:18:22Z</time>
      </trkpt>
      <trkpt lat="41.735612" lon="-7.965270">
        <ele>930.634</ele>
        <time>2021-08-03T05:19:07Z</time>
      </trkpt>
      <trkpt lat="41.735569" lon="-7.965442">
        <ele>929.642</ele>
        <time>2021-08-03T05:19:51Z</time>
      </trkpt>
      <trkpt lat="41.735430" lon="-7.965635">
        <ele>929.453</ele>
        <time>2021-08-03T05:20:36Z</time>
      </trkpt>
      <trkpt lat="41.735258" lon="-7.965753">
        <ele>929.815</ele>
        <time>2021-08-03T05:21:21Z</time>
      </trkpt>
      <trkpt lat="41.734207" lon="-7.965978">
        <ele>934.955</ele>
        <time>2021-08-03T05:22:06Z</time>
      </trkpt>
      <trkpt lat="41.734024" lon="-7.966118">
        <ele>936.344</ele>
        <time>2021-08-03T05:22:50Z</time>
      </trkpt>
      <trkpt lat="41.733831" lon="-7.966515">
        <ele>933.105</ele>
        <time>2021-08-03T05:23:35Z</time>
      </trkpt>
      <trkpt lat="41.733595" lon="-7.966815">
        <ele>929.815</ele>
        <time>2021-08-03T05:24:20Z</time>
      </trkpt>
      <trkpt lat="41.733252" lon="-7.967073">
        <ele>928.808</ele>
        <time>2021-08-03T05:25:04Z</time>
      </trkpt>
      <trkpt lat="41.733016" lon="-7.967126">
        <ele>930.261</ele>
        <time>2021-08-03T05:25:49Z</time>
      </trkpt>
      <trkpt lat="41.732780" lon="-7.967041">
        <ele>932.033</ele>
        <time>2021-08-03T05:26:34Z</time>
      </trkpt>
      <trkpt lat="41.732715" lon="-7.966987">
        <ele>932.722</ele>
        <time>2021-08-03T05:27:19Z</time>
      </trkpt>
      <trkpt lat="41.732501" lon="-7.966772">
        <ele>935.297</ele>
        <time>2021-08-03T05:28:03Z</time>
      </trkpt>
      <trkpt lat="41.732318" lon="-7.966740">
        <ele>936.065</ele>
        <time>2021-08-03T05:28:48Z</time>
      </trkpt>
      <trkpt lat="41.732115" lon="-7.966837">
        <ele>938.536</ele>
        <time>2021-08-03T05:29:33Z</time>
      </trkpt>
      <trkpt lat="41.731814" lon="-7.967319">
        <ele>937.978</ele>
        <time>2021-08-03T05:30:18Z</time>
      </trkpt>
      <trkpt lat="41.731589" lon="-7.967523">
        <ele>937.788</ele>
        <time>2021-08-03T05:31:02Z</time>
      </trkpt>
      <trkpt lat="41.731128" lon="-7.967781">
        <ele>942.011</ele>
        <time>2021-08-03T05:31:47Z</time>
      </trkpt>
      <trkpt lat="41.730945" lon="-7.967985">
        <ele>944.921</ele>
        <time>2021-08-03T05:32:32Z</time>
      </trkpt>
      <trkpt lat="41.730870" lon="-7.968178">
        <ele>945.803</ele>
        <time>2021-08-03T05:33:17Z</time>
      </trkpt>
      <trkpt lat="41.730870" lon="-7.968596">
        <ele>943.908</ele>
        <time>2021-08-03T05:34:02Z</time>
      </trkpt>
      <trkpt lat="41.730870" lon="-7.968596">
        <ele>943.788</ele>
        <time>2021-08-03T05:34:46Z</time>
      </trkpt>
      <trkpt lat="41.730870" lon="-7.968789">
        <ele>943.730</ele>
        <time>2021-08-03T05:35:31Z</time>
      </trkpt>
      <trkpt lat="41.730773" lon="-7.969122">
        <ele>944.289</ele>
        <time>2021-08-03T05:36:16Z</time>
      </trkpt>
      <trkpt lat="41.730613" lon="-7.969326">
        <ele>943.284</ele>
        <time>2021-08-03T05:37:01Z</time>
      </trkpt>
      <trkpt lat="41.730344" lon="-7.969455">
        <ele>941.612</ele>
        <time>2021-08-03T05:37:46Z</time>
      </trkpt>
      <trkpt lat="41.730065" lon="-7.969465">
        <ele>941.883</ele>
        <time>2021-08-03T05:38:30Z</time>
      </trkpt>
      <trkpt lat="41.729336" lon="-7.969337">
        <ele>938.435</ele>
        <time>2021-08-03T05:39:15Z</time>
      </trkpt>
      <trkpt lat="41.729057" lon="-7.969229">
        <ele>936.935</ele>
        <time>2021-08-03T05:40:00Z</time>
      </trkpt>
      <trkpt lat="41.728778" lon="-7.968993">
        <ele>937.483</ele>
        <time>2021-08-03T05:40:45Z</time>
      </trkpt>
      <trkpt lat="41.728756" lon="-7.968864">
        <ele>939.425</ele>
        <time>2021-08-03T05:41:30Z</time>
      </trkpt>
      <trkpt lat="41.728510" lon="-7.968650">
        <ele>940.817</ele>
        <time>2021-08-03T05:42:15Z</time>
      </trkpt>
      <trkpt lat="41.728402" lon="-7.968607">
        <ele>941.808</ele>
        <time>2021-08-03T05:43:00Z</time>
      </trkpt>
      <trkpt lat="41.728091" lon="-7.968682">
        <ele>942.285</ele>
        <time>2021-08-03T05:43:44Z</time>
      </trkpt>
      <trkpt lat="41.727716" lon="-7.968714">
        <ele>946.277</ele>
        <time>2021-08-03T05:44:29Z</time>
      </trkpt>
      <trkpt lat="41.727093" lon="-7.968950">
        <ele>951.736</ele>
        <time>2021-08-03T05:45:14Z</time>
      </trkpt>
      <trkpt lat="41.727147" lon="-7.968864">
        <ele>953.241</ele>
        <time>2021-08-03T05:45:59Z</time>
      </trkpt>
      <trkpt lat="41.727164" lon="-7.968849">
        <ele>953.499</ele>
        <time>2021-08-03T05:46:44Z</time>
      </trkpt>
      <trkpt lat="41.727164" lon="-7.968849">
        <ele>953.490</ele>
        <time>2021-08-03T05:47:29Z</time>
      </trkpt>
      <trkpt lat="41.727147" lon="-7.968864">
        <ele>953.252</ele>
        <time>2021-08-03T05:48:14Z</time>
      </trkpt>
      <trkpt lat="41.727094" lon="-7.968950">
        <ele>951.732</ele>
        <time>2021-08-03T05:48:59Z</time>
      </trkpt>
      <trkpt lat="41.727716" lon="-7.968714">
        <ele>946.232</ele>
        <time>2021-08-03T05:49:43Z</time>
      </trkpt>
      <trkpt lat="41.728091" lon="-7.968682">
        <ele>942.292</ele>
        <time>2021-08-03T05:50:28Z</time>
      </trkpt>
      <trkpt lat="41.728402" lon="-7.968607">
        <ele>941.811</ele>
        <time>2021-08-03T05:51:13Z</time>
      </trkpt>
      <trkpt lat="41.728510" lon="-7.968650">
        <ele>940.808</ele>
        <time>2021-08-03T05:51:58Z</time>
      </trkpt>
      <trkpt lat="41.728756" lon="-7.968864">
        <ele>939.430</ele>
        <time>2021-08-03T05:52:43Z</time>
      </trkpt>
      <trkpt lat="41.728778" lon="-7.968993">
        <ele>937.512</ele>
        <time>2021-08-03T05:53:28Z</time>
      </trkpt>
      <trkpt lat="41.728617" lon="-7.968843">
        <ele>937.951</ele>
        <time>2021-08-03T05:54:13Z</time>
      </trkpt>
      <trkpt lat="41.728477" lon="-7.968779">
        <ele>937.876</ele>
        <time>2021-08-03T05:54:58Z</time>
      </trkpt>
      <trkpt lat="41.728349" lon="-7.968779">
        <ele>937.244</ele>
        <time>2021-08-03T05:55:43Z</time>
      </trkpt>
      <trkpt lat="41.728005" lon="-7.968897">
        <ele>936.395</ele>
        <time>2021-08-03T05:56:28Z</time>
      </trkpt>
      <trkpt lat="41.727469" lon="-7.969154">
        <ele>934.967</ele>
        <time>2021-08-03T05:57:13Z</time>
      </trkpt>
      <trkpt lat="41.726750" lon="-7.969669">
        <ele>930.567</ele>
        <time>2021-08-03T05:57:58Z</time>
      </trkpt>
      <trkpt lat="41.725795" lon="-7.970152">
        <ele>920.078</ele>
        <time>2021-08-03T05:58:43Z</time>
      </trkpt>
      <trkpt lat="41.725634" lon="-7.970173">
        <ele>918.733</ele>
        <time>2021-08-03T05:59:28Z</time>
      </trkpt>
      <trkpt lat="41.725463" lon="-7.970130">
        <ele>917.726</ele>
        <time>2021-08-03T06:00:13Z</time>
      </trkpt>
      <trkpt lat="41.725302" lon="-7.970055">
        <ele>917.208</ele>
        <time>2021-08-03T06:00:58Z</time>
      </trkpt>
      <trkpt lat="41.725152" lon="-7.969980">
        <ele>916.914</ele>
        <time>2021-08-03T06:01:43Z</time>
      </trkpt>
      <trkpt lat="41.725023" lon="-7.969970">
        <ele>916.526</ele>
        <time>2021-08-03T06:02:28Z</time>
      </trkpt>
      <trkpt lat="41.724873" lon="-7.969991">
        <ele>917.655</ele>
        <time>2021-08-03T06:03:13Z</time>
      </trkpt>
      <trkpt lat="41.723467" lon="-7.970495">
        <ele>910.590</ele>
        <time>2021-08-03T06:03:58Z</time>
      </trkpt>
      <trkpt lat="41.723199" lon="-7.970592">
        <ele>910.898</ele>
        <time>2021-08-03T06:04:43Z</time>
      </trkpt>
      <trkpt lat="41.722598" lon="-7.970924">
        <ele>907.099</ele>
        <time>2021-08-03T06:05:28Z</time>
      </trkpt>
      <trkpt lat="41.722598" lon="-7.970924">
        <ele>906.211</ele>
        <time>2021-08-03T06:06:13Z</time>
      </trkpt>
      <trkpt lat="41.722287" lon="-7.971193">
        <ele>897.941</ele>
        <time>2021-08-03T06:06:58Z</time>
      </trkpt>
      <trkpt lat="41.721536" lon="-7.972351">
        <ele>881.415</ele>
        <time>2021-08-03T06:07:43Z</time>
      </trkpt>
      <trkpt lat="41.721010" lon="-7.972748">
        <ele>878.165</ele>
        <time>2021-08-03T06:08:28Z</time>
      </trkpt>
      <trkpt lat="41.720667" lon="-7.972845">
        <ele>872.911</ele>
        <time>2021-08-03T06:09:13Z</time>
      </trkpt>
      <trkpt lat="41.720302" lon="-7.972834">
        <ele>869.708</ele>
        <time>2021-08-03T06:09:58Z</time>
      </trkpt>
      <trkpt lat="41.719798" lon="-7.972620">
        <ele>867.148</ele>
        <time>2021-08-03T06:10:43Z</time>
      </trkpt>
      <trkpt lat="41.719562" lon="-7.972587">
        <ele>863.590</ele>
        <time>2021-08-03T06:11:28Z</time>
      </trkpt>
      <trkpt lat="41.719283" lon="-7.972662">
        <ele>858.499</ele>
        <time>2021-08-03T06:12:13Z</time>
      </trkpt>
      <trkpt lat="41.717781" lon="-7.973660">
        <ele>844.494</ele>
        <time>2021-08-03T06:12:59Z</time>
      </trkpt>
      <trkpt lat="41.717523" lon="-7.973886">
        <ele>842.342</ele>
        <time>2021-08-03T06:13:44Z</time>
      </trkpt>
      <trkpt lat="41.717523" lon="-7.973886">
        <ele>842.183</ele>
        <time>2021-08-03T06:14:29Z</time>
      </trkpt>
      <trkpt lat="41.717083" lon="-7.974486">
        <ele>839.945</ele>
        <time>2021-08-03T06:15:14Z</time>
      </trkpt>
      <trkpt lat="41.716923" lon="-7.974594">
        <ele>839.325</ele>
        <time>2021-08-03T06:15:59Z</time>
      </trkpt>
      <trkpt lat="41.715818" lon="-7.974926">
        <ele>836.143</ele>
        <time>2021-08-03T06:16:44Z</time>
      </trkpt>
      <trkpt lat="41.713639" lon="-7.975591">
        <ele>832.564</ele>
        <time>2021-08-03T06:17:30Z</time>
      </trkpt>
      <trkpt lat="41.712685" lon="-7.976224">
        <ele>827.610</ele>
        <time>2021-08-03T06:18:15Z</time>
      </trkpt>
      <trkpt lat="41.712373" lon="-7.976321">
        <ele>825.908</ele>
        <time>2021-08-03T06:19:00Z</time>
      </trkpt>
      <trkpt lat="41.712095" lon="-7.976342">
        <ele>823.991</ele>
        <time>2021-08-03T06:19:45Z</time>
      </trkpt>
      <trkpt lat="41.710882" lon="-7.976139">
        <ele>820.613</ele>
        <time>2021-08-03T06:20:31Z</time>
      </trkpt>
      <trkpt lat="41.710700" lon="-7.976117">
        <ele>819.022</ele>
        <time>2021-08-03T06:21:16Z</time>
      </trkpt>
      <trkpt lat="41.710560" lon="-7.976106">
        <ele>817.417</ele>
        <time>2021-08-03T06:22:01Z</time>
      </trkpt>
      <trkpt lat="41.710442" lon="-7.976128">
        <ele>816.355</ele>
        <time>2021-08-03T06:22:47Z</time>
      </trkpt>
      <trkpt lat="41.710442" lon="-7.976128">
        <ele>816.246</ele>
        <time>2021-08-03T06:23:32Z</time>
      </trkpt>
      <trkpt lat="41.710249" lon="-7.976160">
        <ele>814.468</ele>
        <time>2021-08-03T06:24:17Z</time>
      </trkpt>
      <trkpt lat="41.709820" lon="-7.976385">
        <ele>811.648</ele>
        <time>2021-08-03T06:25:03Z</time>
      </trkpt>
      <trkpt lat="41.709498" lon="-7.976557">
        <ele>807.263</ele>
        <time>2021-08-03T06:25:48Z</time>
      </trkpt>
      <trkpt lat="41.708919" lon="-7.976857">
        <ele>804.644</ele>
        <time>2021-08-03T06:26:33Z</time>
      </trkpt>
      <trkpt lat="41.708640" lon="-7.976997">
        <ele>803.218</ele>
        <time>2021-08-03T06:27:19Z</time>
      </trkpt>
      <trkpt lat="41.708533" lon="-7.977061">
        <ele>803.408</ele>
        <time>2021-08-03T06:28:04Z</time>
      </trkpt>
      <trkpt lat="41.708500" lon="-7.977083">
        <ele>803.623</ele>
        <time>2021-08-03T06:28:49Z</time>
      </trkpt>
      <trkpt lat="41.708222" lon="-7.977254">
        <ele>805.065</ele>
        <time>2021-08-03T06:29:35Z</time>
      </trkpt>
      <trkpt lat="41.707631" lon="-7.977651">
        <ele>804.834</ele>
        <time>2021-08-03T06:30:20Z</time>
      </trkpt>
      <trkpt lat="41.707385" lon="-7.977726">
        <ele>803.059</ele>
        <time>2021-08-03T06:31:05Z</time>
      </trkpt>
      <trkpt lat="41.707159" lon="-7.977748">
        <ele>801.547</ele>
        <time>2021-08-03T06:31:51Z</time>
      </trkpt>
      <trkpt lat="41.706988" lon="-7.977769">
        <ele>800.398</ele>
        <time>2021-08-03T06:32:36Z</time>
      </trkpt>
      <trkpt lat="41.706494" lon="-7.977823">
        <ele>798.320</ele>
        <time>2021-08-03T06:33:21Z</time>
      </trkpt>
      <trkpt lat="41.705700" lon="-7.977898">
        <ele>799.920</ele>
        <time>2021-08-03T06:34:07Z</time>
      </trkpt>
      <trkpt lat="41.705464" lon="-7.977866">
        <ele>798.726</ele>
        <time>2021-08-03T06:34:52Z</time>
      </trkpt>
      <trkpt lat="41.705368" lon="-7.977802">
        <ele>798.447</ele>
        <time>2021-08-03T06:35:38Z</time>
      </trkpt>
      <trkpt lat="41.705282" lon="-7.977737">
        <ele>798.211</ele>
        <time>2021-08-03T06:36:23Z</time>
      </trkpt>
      <trkpt lat="41.704670" lon="-7.977072">
        <ele>800.608</ele>
        <time>2021-08-03T06:37:08Z</time>
      </trkpt>
      <trkpt lat="41.704423" lon="-7.976933">
        <ele>800.529</ele>
        <time>2021-08-03T06:37:54Z</time>
      </trkpt>
      <trkpt lat="41.704381" lon="-7.976933">
        <ele>800.231</ele>
        <time>2021-08-03T06:38:39Z</time>
      </trkpt>
      <trkpt lat="41.704177" lon="-7.976900">
        <ele>801.230</ele>
        <time>2021-08-03T06:39:25Z</time>
      </trkpt>
      <trkpt lat="41.703265" lon="-7.977104">
        <ele>806.585</ele>
        <time>2021-08-03T06:40:10Z</time>
      </trkpt>
      <trkpt lat="41.702943" lon="-7.977169">
        <ele>807.133</ele>
        <time>2021-08-03T06:40:56Z</time>
      </trkpt>
      <trkpt lat="41.702653" lon="-7.977329">
        <ele>804.654</ele>
        <time>2021-08-03T06:41:41Z</time>
      </trkpt>
      <trkpt lat="41.702321" lon="-7.977716">
        <ele>802.716</ele>
        <time>2021-08-03T06:42:27Z</time>
      </trkpt>
      <trkpt lat="41.702095" lon="-7.977887">
        <ele>803.526</ele>
        <time>2021-08-03T06:43:12Z</time>
      </trkpt>
      <trkpt lat="41.701698" lon="-7.978016">
        <ele>802.888</ele>
        <time>2021-08-03T06:43:57Z</time>
      </trkpt>
      <trkpt lat="41.701398" lon="-7.978059">
        <ele>802.124</ele>
        <time>2021-08-03T06:44:43Z</time>
      </trkpt>
      <trkpt lat="41.701130" lon="-7.978038">
        <ele>802.026</ele>
        <time>2021-08-03T06:45:28Z</time>
      </trkpt>
      <trkpt lat="41.700325" lon="-7.977812">
        <ele>801.008</ele>
        <time>2021-08-03T06:46:14Z</time>
      </trkpt>
      <trkpt lat="41.700111" lon="-7.977759">
        <ele>800.545</ele>
        <time>2021-08-03T06:46:59Z</time>
      </trkpt>
      <trkpt lat="41.699381" lon="-7.977566">
        <ele>800.517</ele>
        <time>2021-08-03T06:47:45Z</time>
      </trkpt>
      <trkpt lat="41.698877" lon="-7.977426">
        <ele>803.826</ele>
        <time>2021-08-03T06:48:31Z</time>
      </trkpt>
      <trkpt lat="41.698823" lon="-7.977415">
        <ele>804.341</ele>
        <time>2021-08-03T06:49:16Z</time>
      </trkpt>
      <trkpt lat="41.698158" lon="-7.977233">
        <ele>807.769</ele>
        <time>2021-08-03T06:50:02Z</time>
      </trkpt>
      <trkpt lat="41.698158" lon="-7.977233">
        <ele>808.030</ele>
        <time>2021-08-03T06:50:47Z</time>
      </trkpt>
      <trkpt lat="41.698040" lon="-7.977233">
        <ele>808.782</ele>
        <time>2021-08-03T06:51:33Z</time>
      </trkpt>
      <trkpt lat="41.697192" lon="-7.977415">
        <ele>811.492</ele>
        <time>2021-08-03T06:52:18Z</time>
      </trkpt>
      <trkpt lat="41.696892" lon="-7.977587">
        <ele>811.988</ele>
        <time>2021-08-03T06:53:04Z</time>
      </trkpt>
      <trkpt lat="41.696591" lon="-7.977920">
        <ele>813.224</ele>
        <time>2021-08-03T06:53:49Z</time>
      </trkpt>
      <trkpt lat="41.696452" lon="-7.978156">
        <ele>814.226</ele>
        <time>2021-08-03T06:54:35Z</time>
      </trkpt>
      <trkpt lat="41.696184" lon="-7.979035">
        <ele>817.008</ele>
        <time>2021-08-03T06:55:21Z</time>
      </trkpt>
      <trkpt lat="41.696130" lon="-7.979218">
        <ele>816.425</ele>
        <time>2021-08-03T06:56:06Z</time>
      </trkpt>
      <trkpt lat="41.696012" lon="-7.979400">
        <ele>815.317</ele>
        <time>2021-08-03T06:56:52Z</time>
      </trkpt>
      <trkpt lat="41.695819" lon="-7.979497">
        <ele>815.876</ele>
        <time>2021-08-03T06:57:37Z</time>
      </trkpt>
      <trkpt lat="41.695164" lon="-7.979593">
        <ele>817.711</ele>
        <time>2021-08-03T06:58:23Z</time>
      </trkpt>
      <trkpt lat="41.695004" lon="-7.979690">
        <ele>819.339</ele>
        <time>2021-08-03T06:59:09Z</time>
      </trkpt>
      <trkpt lat="41.694896" lon="-7.979861">
        <ele>819.630</ele>
        <time>2021-08-03T06:59:54Z</time>
      </trkpt>
      <trkpt lat="41.694853" lon="-7.980087">
        <ele>820.592</ele>
        <time>2021-08-03T07:00:40Z</time>
      </trkpt>
      <trkpt lat="41.694885" lon="-7.980301">
        <ele>819.962</ele>
        <time>2021-08-03T07:01:26Z</time>
      </trkpt>
      <trkpt lat="41.695100" lon="-7.980688">
        <ele>817.574</ele>
        <time>2021-08-03T07:02:11Z</time>
      </trkpt>
      <trkpt lat="41.695250" lon="-7.981031">
        <ele>817.856</ele>
        <time>2021-08-03T07:02:57Z</time>
      </trkpt>
      <trkpt lat="41.695336" lon="-7.981439">
        <ele>817.621</ele>
        <time>2021-08-03T07:03:42Z</time>
      </trkpt>
      <trkpt lat="41.695336" lon="-7.981814">
        <ele>819.608</ele>
        <time>2021-08-03T07:04:28Z</time>
      </trkpt>
      <trkpt lat="41.695282" lon="-7.982029">
        <ele>821.274</ele>
        <time>2021-08-03T07:05:14Z</time>
      </trkpt>
      <trkpt lat="41.695283" lon="-7.982029">
        <ele>820.916</ele>
        <time>2021-08-03T07:05:59Z</time>
      </trkpt>
      <trkpt lat="41.695164" lon="-7.982576">
        <ele>815.775</ele>
        <time>2021-08-03T07:06:45Z</time>
      </trkpt>
      <trkpt lat="41.695057" lon="-7.982715">
        <ele>816.050</ele>
        <time>2021-08-03T07:07:31Z</time>
      </trkpt>
      <trkpt lat="41.694907" lon="-7.982769">
        <ele>816.218</ele>
        <time>2021-08-03T07:08:16Z</time>
      </trkpt>
      <trkpt lat="41.694371" lon="-7.982737">
        <ele>818.469</ele>
        <time>2021-08-03T07:09:02Z</time>
      </trkpt>
      <trkpt lat="41.694188" lon="-7.982801">
        <ele>818.221</ele>
        <time>2021-08-03T07:09:48Z</time>
      </trkpt>
      <trkpt lat="41.694059" lon="-7.982930">
        <ele>817.171</ele>
        <time>2021-08-03T07:10:34Z</time>
      </trkpt>
      <trkpt lat="41.693738" lon="-7.983552">
        <ele>815.964</ele>
        <time>2021-08-03T07:11:19Z</time>
      </trkpt>
      <trkpt lat="41.693577" lon="-7.983778">
        <ele>815.006</ele>
        <time>2021-08-03T07:12:05Z</time>
      </trkpt>
      <trkpt lat="41.692911" lon="-7.984260">
        <ele>815.316</ele>
        <time>2021-08-03T07:12:51Z</time>
      </trkpt>
      <trkpt lat="41.692847" lon="-7.984421">
        <ele>814.108</ele>
        <time>2021-08-03T07:13:36Z</time>
      </trkpt>
      <trkpt lat="41.692826" lon="-7.984625">
        <ele>812.243</ele>
        <time>2021-08-03T07:14:22Z</time>
      </trkpt>
      <trkpt lat="41.692954" lon="-7.985119">
        <ele>804.145</ele>
        <time>2021-08-03T07:15:08Z</time>
      </trkpt>
      <trkpt lat="41.692997" lon="-7.985795">
        <ele>802.034</ele>
        <time>2021-08-03T07:15:54Z</time>
      </trkpt>
      <trkpt lat="41.693105" lon="-7.986535">
        <ele>800.419</ele>
        <time>2021-08-03T07:16:39Z</time>
      </trkpt>
      <trkpt lat="41.693083" lon="-7.986792">
        <ele>801.577</ele>
        <time>2021-08-03T07:17:25Z</time>
      </trkpt>
      <trkpt lat="41.692965" lon="-7.987189">
        <ele>798.548</ele>
        <time>2021-08-03T07:18:11Z</time>
      </trkpt>
      <trkpt lat="41.692954" lon="-7.987297">
        <ele>797.010</ele>
        <time>2021-08-03T07:18:57Z</time>
      </trkpt>
      <trkpt lat="41.692954" lon="-7.987297">
        <ele>797.070</ele>
        <time>2021-08-03T07:19:42Z</time>
      </trkpt>
      <trkpt lat="41.692922" lon="-7.987458">
        <ele>797.271</ele>
        <time>2021-08-03T07:20:28Z</time>
      </trkpt>
      <trkpt lat="41.692965" lon="-7.987640">
        <ele>794.541</ele>
        <time>2021-08-03T07:21:14Z</time>
      </trkpt>
      <trkpt lat="41.693201" lon="-7.988101">
        <ele>789.615</ele>
        <time>2021-08-03T07:22:00Z</time>
      </trkpt>
      <trkpt lat="41.693244" lon="-7.988316">
        <ele>788.908</ele>
        <time>2021-08-03T07:22:45Z</time>
      </trkpt>
      <trkpt lat="41.693137" lon="-7.989249">
        <ele>786.264</ele>
        <time>2021-08-03T07:23:31Z</time>
      </trkpt>
      <trkpt lat="41.693169" lon="-7.989807">
        <ele>783.726</ele>
        <time>2021-08-03T07:24:17Z</time>
      </trkpt>
      <trkpt lat="41.693147" lon="-7.990086">
        <ele>780.055</ele>
        <time>2021-08-03T07:25:03Z</time>
      </trkpt>
      <trkpt lat="41.692965" lon="-7.990751">
        <ele>771.920</ele>
        <time>2021-08-03T07:25:49Z</time>
      </trkpt>
      <trkpt lat="41.692826" lon="-7.990977">
        <ele>770.998</ele>
        <time>2021-08-03T07:26:34Z</time>
      </trkpt>
      <trkpt lat="41.692579" lon="-7.991202">
        <ele>770.699</ele>
        <time>2021-08-03T07:27:20Z</time>
      </trkpt>
      <trkpt lat="41.692461" lon="-7.991395">
        <ele>771.491</ele>
        <time>2021-08-03T07:28:06Z</time>
      </trkpt>
      <trkpt lat="41.692429" lon="-7.991663">
        <ele>771.361</ele>
        <time>2021-08-03T07:28:52Z</time>
      </trkpt>
      <trkpt lat="41.692482" lon="-7.992200">
        <ele>766.263</ele>
        <time>2021-08-03T07:29:38Z</time>
      </trkpt>
      <trkpt lat="41.692418" lon="-7.992554">
        <ele>762.344</ele>
        <time>2021-08-03T07:30:24Z</time>
      </trkpt>
      <trkpt lat="41.692182" lon="-7.993101">
        <ele>760.818</ele>
        <time>2021-08-03T07:31:10Z</time>
      </trkpt>
      <trkpt lat="41.692053" lon="-7.993326">
        <ele>757.908</ele>
        <time>2021-08-03T07:31:55Z</time>
      </trkpt>
      <trkpt lat="41.691806" lon="-7.993573">
        <ele>757.143</ele>
        <time>2021-08-03T07:32:41Z</time>
      </trkpt>
      <trkpt lat="41.691592" lon="-7.993691">
        <ele>758.245</ele>
        <time>2021-08-03T07:33:27Z</time>
      </trkpt>
      <trkpt lat="41.690969" lon="-7.993852">
        <ele>753.534</ele>
        <time>2021-08-03T07:34:13Z</time>
      </trkpt>
      <trkpt lat="41.690712" lon="-7.993884">
        <ele>749.729</ele>
        <time>2021-08-03T07:34:59Z</time>
      </trkpt>
      <trkpt lat="41.690454" lon="-7.993830">
        <ele>747.457</ele>
        <time>2021-08-03T07:35:45Z</time>
      </trkpt>
      <trkpt lat="41.690459" lon="-7.993852">
        <ele>746.948</ele>
        <time>2021-08-03T07:36:31Z</time>
      </trkpt>
      <trkpt lat="41.690450" lon="-7.993828">
        <ele>746.650</ele>
        <time>2021-08-03T07:37:17Z</time>
      </trkpt>
      <trkpt lat="41.689582" lon="-7.993052">
        <ele>737.680</ele>
        <time>2021-08-03T07:38:02Z</time>
      </trkpt>
      <trkpt lat="41.689045" lon="-7.992279">
        <ele>729.244</ele>
        <time>2021-08-03T07:38:48Z</time>
      </trkpt>
      <trkpt lat="41.688304" lon="-7.990725">
        <ele>734.005</ele>
        <time>2021-08-03T07:39:34Z</time>
      </trkpt>
      <trkpt lat="41.687417" lon="-7.989933">
        <ele>720.015</ele>
        <time>2021-08-03T07:40:20Z</time>
      </trkpt>
      <trkpt lat="41.686850" lon="-7.988913">
        <ele>717.008</ele>
        <time>2021-08-03T07:41:06Z</time>
      </trkpt>
      <trkpt lat="41.686515" lon="-7.987994">
        <ele>718.961</ele>
        <time>2021-08-03T07:41:52Z</time>
      </trkpt>
      <trkpt lat="41.685952" lon="-7.987213">
        <ele>720.683</ele>
        <time>2021-08-03T07:42:38Z</time>
      </trkpt>
      <trkpt lat="41.685192" lon="-7.986531">
        <ele>717.712</ele>
        <time>2021-08-03T07:43:24Z</time>
      </trkpt>
      <trkpt lat="41.684673" lon="-7.985275">
        <ele>707.077</ele>
        <time>2021-08-03T07:44:10Z</time>
      </trkpt>
      <trkpt lat="41.683877" lon="-7.984483">
        <ele>703.345</ele>
        <time>2021-08-03T07:44:57Z</time>
      </trkpt>
      <trkpt lat="41.682800" lon="-7.983055">
        <ele>700.966</ele>
        <time>2021-08-03T07:45:43Z</time>
      </trkpt>
      <trkpt lat="41.682176" lon="-7.982575">
        <ele>707.378</ele>
        <time>2021-08-03T07:46:29Z</time>
      </trkpt>
      <trkpt lat="41.680885" lon="-7.982128">
        <ele>697.468</ele>
        <time>2021-08-03T07:47:15Z</time>
      </trkpt>
      <trkpt lat="41.680591" lon="-7.981704">
        <ele>695.111</ele>
        <time>2021-08-03T07:48:01Z</time>
      </trkpt>
      <trkpt lat="41.680400" lon="-7.982006">
        <ele>689.421</ele>
        <time>2021-08-03T07:48:47Z</time>
      </trkpt>
      <trkpt lat="41.679946" lon="-7.981982">
        <ele>688.603</ele>
        <time>2021-08-03T07:49:33Z</time>
      </trkpt>
      <trkpt lat="41.679546" lon="-7.982137">
        <ele>688.308</ele>
        <time>2021-08-03T07:50:20Z</time>
      </trkpt>
      <trkpt lat="41.679202" lon="-7.982450">
        <ele>686.748</ele>
        <time>2021-08-03T07:51:06Z</time>
      </trkpt>
      <trkpt lat="41.678801" lon="-7.983420">
        <ele>687.610</ele>
        <time>2021-08-03T07:51:52Z</time>
      </trkpt>
      <trkpt lat="41.678534" lon="-7.985049">
        <ele>704.439</ele>
        <time>2021-08-03T07:52:38Z</time>
      </trkpt>
      <trkpt lat="41.678837" lon="-7.986548">
        <ele>702.964</ele>
        <time>2021-08-03T07:53:24Z</time>
      </trkpt>
      <trkpt lat="41.679440" lon="-7.987665">
        <ele>691.722</ele>
        <time>2021-08-03T07:54:11Z</time>
      </trkpt>
      <trkpt lat="41.679464" lon="-7.988751">
        <ele>704.773</ele>
        <time>2021-08-03T07:54:57Z</time>
      </trkpt>
      <trkpt lat="41.679710" lon="-7.989845">
        <ele>702.135</ele>
        <time>2021-08-03T07:55:43Z</time>
      </trkpt>
      <trkpt lat="41.680852" lon="-7.991154">
        <ele>697.755</ele>
        <time>2021-08-03T07:56:30Z</time>
      </trkpt>
      <trkpt lat="41.681029" lon="-7.991589">
        <ele>702.885</ele>
        <time>2021-08-03T07:57:16Z</time>
      </trkpt>
      <trkpt lat="41.681060" lon="-7.992154">
        <ele>706.089</ele>
        <time>2021-08-03T07:58:02Z</time>
      </trkpt>
      <trkpt lat="41.680500" lon="-7.992890">
        <ele>706.617</ele>
        <time>2021-08-03T07:58:49Z</time>
      </trkpt>
      <trkpt lat="41.680413" lon="-7.993577">
        <ele>699.108</ele>
        <time>2021-08-03T07:59:35Z</time>
      </trkpt>
      <trkpt lat="41.680563" lon="-7.993925">
        <ele>701.355</ele>
        <time>2021-08-03T08:00:21Z</time>
      </trkpt>
      <trkpt lat="41.681244" lon="-7.994690">
        <ele>707.357</ele>
        <time>2021-08-03T08:01:08Z</time>
      </trkpt>
      <trkpt lat="41.682936" lon="-7.995567">
        <ele>702.616</ele>
        <time>2021-08-03T08:01:54Z</time>
      </trkpt>
      <trkpt lat="41.683075" lon="-7.995925">
        <ele>706.671</ele>
        <time>2021-08-03T08:02:41Z</time>
      </trkpt>
      <trkpt lat="41.683160" lon="-7.997263">
        <ele>708.749</ele>
        <time>2021-08-03T08:03:27Z</time>
      </trkpt>
      <trkpt lat="41.683068" lon="-7.997615">
        <ele>708.510</ele>
        <time>2021-08-03T08:04:14Z</time>
      </trkpt>
      <trkpt lat="41.682782" lon="-7.997933">
        <ele>707.922</ele>
        <time>2021-08-03T08:05:00Z</time>
      </trkpt>
      <trkpt lat="41.682172" lon="-7.998471">
        <ele>700.362</ele>
        <time>2021-08-03T08:05:46Z</time>
      </trkpt>
      <trkpt lat="41.681390" lon="-7.998901">
        <ele>708.564</ele>
        <time>2021-08-03T08:06:33Z</time>
      </trkpt>
      <trkpt lat="41.680946" lon="-7.999725">
        <ele>703.206</ele>
        <time>2021-08-03T08:07:19Z</time>
      </trkpt>
      <trkpt lat="41.680778" lon="-8.000346">
        <ele>690.316</ele>
        <time>2021-08-03T08:08:06Z</time>
      </trkpt>
      <trkpt lat="41.680422" lon="-8.000792">
        <ele>683.708</ele>
        <time>2021-08-03T08:08:53Z</time>
      </trkpt>
      <trkpt lat="41.679999" lon="-8.001054">
        <ele>683.243</ele>
        <time>2021-08-03T08:09:39Z</time>
      </trkpt>
      <trkpt lat="41.679185" lon="-8.001123">
        <ele>696.115</ele>
        <time>2021-08-03T08:10:26Z</time>
      </trkpt>
      <trkpt lat="41.679045" lon="-8.001350">
        <ele>701.654</ele>
        <time>2021-08-03T08:11:12Z</time>
      </trkpt>
      <trkpt lat="41.679057" lon="-8.001648">
        <ele>704.699</ele>
        <time>2021-08-03T08:11:59Z</time>
      </trkpt>
      <trkpt lat="41.679684" lon="-8.002327">
        <ele>702.117</ele>
        <time>2021-08-03T08:12:45Z</time>
      </trkpt>
      <trkpt lat="41.680018" lon="-8.002957">
        <ele>705.198</ele>
        <time>2021-08-03T08:13:32Z</time>
      </trkpt>
      <trkpt lat="41.681898" lon="-8.004220">
        <ele>690.670</ele>
        <time>2021-08-03T08:14:19Z</time>
      </trkpt>
      <trkpt lat="41.682304" lon="-8.005256">
        <ele>685.390</ele>
        <time>2021-08-03T08:15:05Z</time>
      </trkpt>
      <trkpt lat="41.683014" lon="-8.005912">
        <ele>681.717</ele>
        <time>2021-08-03T08:15:52Z</time>
      </trkpt>
      <trkpt lat="41.683338" lon="-8.006492">
        <ele>680.787</ele>
        <time>2021-08-03T08:16:38Z</time>
      </trkpt>
      <trkpt lat="41.683477" lon="-8.007070">
        <ele>679.915</ele>
        <time>2021-08-03T08:17:25Z</time>
      </trkpt>
      <trkpt lat="41.683496" lon="-8.008069">
        <ele>677.908</ele>
        <time>2021-08-03T08:18:12Z</time>
      </trkpt>
      <trkpt lat="41.683395" lon="-8.008581">
        <ele>669.388</ele>
        <time>2021-08-03T08:18:59Z</time>
      </trkpt>
      <trkpt lat="41.683212" lon="-8.008802">
        <ele>667.610</ele>
        <time>2021-08-03T08:19:45Z</time>
      </trkpt>
      <trkpt lat="41.681711" lon="-8.009735">
        <ele>667.439</ele>
        <time>2021-08-03T08:20:32Z</time>
      </trkpt>
      <trkpt lat="41.681400" lon="-8.010103">
        <ele>669.994</ele>
        <time>2021-08-03T08:21:19Z</time>
      </trkpt>
      <trkpt lat="41.681393" lon="-8.010607">
        <ele>682.262</ele>
        <time>2021-08-03T08:22:05Z</time>
      </trkpt>
      <trkpt lat="41.681959" lon="-8.011305">
        <ele>683.153</ele>
        <time>2021-08-03T08:22:52Z</time>
      </trkpt>
      <trkpt lat="41.682249" lon="-8.011980">
        <ele>680.815</ele>
        <time>2021-08-03T08:23:39Z</time>
      </trkpt>
      <trkpt lat="41.682374" lon="-8.012987">
        <ele>684.815</ele>
        <time>2021-08-03T08:24:26Z</time>
      </trkpt>
      <trkpt lat="41.682298" lon="-8.014296">
        <ele>675.123</ele>
        <time>2021-08-03T08:25:13Z</time>
      </trkpt>
      <trkpt lat="41.681965" lon="-8.014738">
        <ele>667.083</ele>
        <time>2021-08-03T08:25:59Z</time>
      </trkpt>
      <trkpt lat="41.681137" lon="-8.014478">
        <ele>678.511</ele>
        <time>2021-08-03T08:26:46Z</time>
      </trkpt>
      <trkpt lat="41.680802" lon="-8.014659">
        <ele>680.508</ele>
        <time>2021-08-03T08:27:33Z</time>
      </trkpt>
      <trkpt lat="41.680141" lon="-8.016005">
        <ele>685.629</ele>
        <time>2021-08-03T08:28:20Z</time>
      </trkpt>
      <trkpt lat="41.680051" lon="-8.017653">
        <ele>686.561</ele>
        <time>2021-08-03T08:29:07Z</time>
      </trkpt>
      <trkpt lat="41.679436" lon="-8.018424">
        <ele>685.020</ele>
        <time>2021-08-03T08:29:54Z</time>
      </trkpt>
      <trkpt lat="41.679365" lon="-8.018907">
        <ele>687.435</ele>
        <time>2021-08-03T08:30:41Z</time>
      </trkpt>
      <trkpt lat="41.680340" lon="-8.020339">
        <ele>677.113</ele>
        <time>2021-08-03T08:31:28Z</time>
      </trkpt>
      <trkpt lat="41.680231" lon="-8.021853">
        <ele>679.884</ele>
        <time>2021-08-03T08:32:15Z</time>
      </trkpt>
      <trkpt lat="41.680814" lon="-8.023112">
        <ele>672.956</ele>
        <time>2021-08-03T08:33:02Z</time>
      </trkpt>
      <trkpt lat="41.680685" lon="-8.024354">
        <ele>675.316</ele>
        <time>2021-08-03T08:33:49Z</time>
      </trkpt>
      <trkpt lat="41.681207" lon="-8.026804">
        <ele>667.278</ele>
        <time>2021-08-03T08:34:36Z</time>
      </trkpt>
      <trkpt lat="41.681427" lon="-8.027016">
        <ele>666.333</ele>
        <time>2021-08-03T08:35:23Z</time>
      </trkpt>
      <trkpt lat="41.681863" lon="-8.027038">
        <ele>667.926</ele>
        <time>2021-08-03T08:36:10Z</time>
      </trkpt>
      <trkpt lat="41.683102" lon="-8.026088">
        <ele>654.808</ele>
        <time>2021-08-03T08:36:57Z</time>
      </trkpt>
      <trkpt lat="41.683467" lon="-8.026042">
        <ele>654.484</ele>
        <time>2021-08-03T08:37:44Z</time>
      </trkpt>
      <trkpt lat="41.683733" lon="-8.026368">
        <ele>651.366</ele>
        <time>2021-08-03T08:38:31Z</time>
      </trkpt>
      <trkpt lat="41.683939" lon="-8.027677">
        <ele>649.885</ele>
        <time>2021-08-03T08:39:18Z</time>
      </trkpt>
      <trkpt lat="41.684630" lon="-8.028955">
        <ele>646.160</ele>
        <time>2021-08-03T08:40:05Z</time>
      </trkpt>
      <trkpt lat="41.684724" lon="-8.029876">
        <ele>641.078</ele>
        <time>2021-08-03T08:40:52Z</time>
      </trkpt>
      <trkpt lat="41.684235" lon="-8.031479">
        <ele>639.849</ele>
        <time>2021-08-03T08:41:40Z</time>
      </trkpt>
      <trkpt lat="41.684343" lon="-8.034329">
        <ele>632.631</ele>
        <time>2021-08-03T08:42:27Z</time>
      </trkpt>
      <trkpt lat="41.684461" lon="-8.034667">
        <ele>631.681</ele>
        <time>2021-08-03T08:43:14Z</time>
      </trkpt>
      <trkpt lat="41.684666" lon="-8.034852">
        <ele>629.558</ele>
        <time>2021-08-03T08:44:01Z</time>
      </trkpt>
      <trkpt lat="41.685437" lon="-8.035108">
        <ele>627.852</ele>
        <time>2021-08-03T08:44:48Z</time>
      </trkpt>
      <trkpt lat="41.686344" lon="-8.034448">
        <ele>622.117</ele>
        <time>2021-08-03T08:45:36Z</time>
      </trkpt>
      <trkpt lat="41.686717" lon="-8.034421">
        <ele>620.808</ele>
        <time>2021-08-03T08:46:23Z</time>
      </trkpt>
      <trkpt lat="41.687036" lon="-8.034600">
        <ele>618.122</ele>
        <time>2021-08-03T08:47:10Z</time>
      </trkpt>
      <trkpt lat="41.687265" lon="-8.035026">
        <ele>614.634</ele>
        <time>2021-08-03T08:47:57Z</time>
      </trkpt>
      <trkpt lat="41.687588" lon="-8.037039">
        <ele>609.923</ele>
        <time>2021-08-03T08:48:45Z</time>
      </trkpt>
      <trkpt lat="41.687320" lon="-8.037827">
        <ele>603.068</ele>
        <time>2021-08-03T08:49:32Z</time>
      </trkpt>
      <trkpt lat="41.686136" lon="-8.039152">
        <ele>601.956</ele>
        <time>2021-08-03T08:50:19Z</time>
      </trkpt>
      <trkpt lat="41.685787" lon="-8.040762">
        <ele>593.947</ele>
        <time>2021-08-03T08:51:07Z</time>
      </trkpt>
      <trkpt lat="41.685510" lon="-8.041085">
        <ele>592.359</ele>
        <time>2021-08-03T08:51:54Z</time>
      </trkpt>
      <trkpt lat="41.684908" lon="-8.041428">
        <ele>592.969</ele>
        <time>2021-08-03T08:52:42Z</time>
      </trkpt>
      <trkpt lat="41.684685" lon="-8.041798">
        <ele>590.685</ele>
        <time>2021-08-03T08:53:29Z</time>
      </trkpt>
      <trkpt lat="41.684699" lon="-8.044614">
        <ele>581.789</ele>
        <time>2021-08-03T08:54:16Z</time>
      </trkpt>
      <trkpt lat="41.684282" lon="-8.046787">
        <ele>579.917</ele>
        <time>2021-08-03T08:55:04Z</time>
      </trkpt>
      <trkpt lat="41.683172" lon="-8.047361">
        <ele>573.208</ele>
        <time>2021-08-03T08:55:51Z</time>
      </trkpt>
      <trkpt lat="41.682543" lon="-8.048077">
        <ele>570.145</ele>
        <time>2021-08-03T08:56:39Z</time>
      </trkpt>
      <trkpt lat="41.681931" lon="-8.048338">
        <ele>563.297</ele>
        <time>2021-08-03T08:57:26Z</time>
      </trkpt>
      <trkpt lat="41.681180" lon="-8.049344">
        <ele>555.416</ele>
        <time>2021-08-03T08:58:14Z</time>
      </trkpt>
      <trkpt lat="41.680956" lon="-8.049429">
        <ele>552.841</ele>
        <time>2021-08-03T08:59:01Z</time>
      </trkpt>
      <trkpt lat="41.679931" lon="-8.049286">
        <ele>549.789</ele>
        <time>2021-08-03T08:59:49Z</time>
      </trkpt>
      <trkpt lat="41.679687" lon="-8.049606">
        <ele>548.420</ele>
        <time>2021-08-03T09:00:37Z</time>
      </trkpt>
      <trkpt lat="41.679346" lon="-8.050845">
        <ele>541.352</ele>
        <time>2021-08-03T09:01:24Z</time>
      </trkpt>
      <trkpt lat="41.679151" lon="-8.051051">
        <ele>538.392</ele>
        <time>2021-08-03T09:02:12Z</time>
      </trkpt>
      <trkpt lat="41.678635" lon="-8.050991">
        <ele>531.645</ele>
        <time>2021-08-03T09:02:59Z</time>
      </trkpt>
      <trkpt lat="41.677749" lon="-8.050155">
        <ele>512.247</ele>
        <time>2021-08-03T09:03:47Z</time>
      </trkpt>
      <trkpt lat="41.676975" lon="-8.047020">
        <ele>512.011</ele>
        <time>2021-08-03T09:04:35Z</time>
      </trkpt>
      <trkpt lat="41.676852" lon="-8.045761">
        <ele>511.408</ele>
        <time>2021-08-03T09:05:22Z</time>
      </trkpt>
      <trkpt lat="41.676296" lon="-8.044861">
        <ele>505.421</ele>
        <time>2021-08-03T09:06:10Z</time>
      </trkpt>
      <trkpt lat="41.675933" lon="-8.044835">
        <ele>504.043</ele>
        <time>2021-08-03T09:06:58Z</time>
      </trkpt>
      <trkpt lat="41.675603" lon="-8.045823">
        <ele>512.442</ele>
        <time>2021-08-03T09:07:46Z</time>
      </trkpt>
      <trkpt lat="41.676177" lon="-8.049303">
        <ele>523.427</ele>
        <time>2021-08-03T09:08:33Z</time>
      </trkpt>
      <trkpt lat="41.676330" lon="-8.052575">
        <ele>527.765</ele>
        <time>2021-08-03T09:09:21Z</time>
      </trkpt>
      <trkpt lat="41.676198" lon="-8.053557">
        <ele>533.526</ele>
        <time>2021-08-03T09:10:09Z</time>
      </trkpt>
      <trkpt lat="41.676366" lon="-8.054458">
        <ele>536.978</ele>
        <time>2021-08-03T09:10:57Z</time>
      </trkpt>
      <trkpt lat="41.676190" lon="-8.055994">
        <ele>531.438</ele>
        <time>2021-08-03T09:11:45Z</time>
      </trkpt>
      <trkpt lat="41.675481" lon="-8.057397">
        <ele>532.378</ele>
        <time>2021-08-03T09:12:33Z</time>
      </trkpt>
      <trkpt lat="41.675120" lon="-8.057767">
        <ele>532.833</ele>
        <time>2021-08-03T09:13:21Z</time>
      </trkpt>
      <trkpt lat="41.674317" lon="-8.058183">
        <ele>531.926</ele>
        <time>2021-08-03T09:14:08Z</time>
      </trkpt>
      <trkpt lat="41.674212" lon="-8.058406">
        <ele>531.408</ele>
        <time>2021-08-03T09:14:56Z</time>
      </trkpt>
      <trkpt lat="41.674329" lon="-8.058977">
        <ele>537.484</ele>
        <time>2021-08-03T09:15:44Z</time>
      </trkpt>
      <trkpt lat="41.675039" lon="-8.059513">
        <ele>539.446</ele>
        <time>2021-08-03T09:16:32Z</time>
      </trkpt>
      <trkpt lat="41.675282" lon="-8.060932">
        <ele>535.495</ele>
        <time>2021-08-03T09:17:20Z</time>
      </trkpt>
      <trkpt lat="41.675272" lon="-8.061233">
        <ele>535.380</ele>
        <time>2021-08-03T09:18:08Z</time>
      </trkpt>
      <trkpt lat="41.674679" lon="-8.062291">
        <ele>546.648</ele>
        <time>2021-08-03T09:18:56Z</time>
      </trkpt>
      <trkpt lat="41.674639" lon="-8.062572">
        <ele>549.649</ele>
        <time>2021-08-03T09:19:44Z</time>
      </trkpt>
      <trkpt lat="41.674795" lon="-8.063066">
        <ele>551.141</ele>
        <time>2021-08-03T09:20:32Z</time>
      </trkpt>
      <trkpt lat="41.675039" lon="-8.063246">
        <ele>549.851</ele>
        <time>2021-08-03T09:21:20Z</time>
      </trkpt>
      <trkpt lat="41.676843" lon="-8.063482">
        <ele>554.726</ele>
        <time>2021-08-03T09:22:08Z</time>
      </trkpt>
      <trkpt lat="41.677069" lon="-8.063643">
        <ele>556.547</ele>
        <time>2021-08-03T09:22:56Z</time>
      </trkpt>
      <trkpt lat="41.677263" lon="-8.064152">
        <ele>556.311</ele>
        <time>2021-08-03T09:23:44Z</time>
      </trkpt>
      <trkpt lat="41.677378" lon="-8.065670">
        <ele>557.908</ele>
        <time>2021-08-03T09:24:33Z</time>
      </trkpt>
      <trkpt lat="41.678766" lon="-8.067252">
        <ele>557.899</ele>
        <time>2021-08-03T09:25:21Z</time>
      </trkpt>
      <trkpt lat="41.679242" lon="-8.067263">
        <ele>558.481</ele>
        <time>2021-08-03T09:26:09Z</time>
      </trkpt>
      <trkpt lat="41.679961" lon="-8.066455">
        <ele>563.790</ele>
        <time>2021-08-03T09:26:57Z</time>
      </trkpt>
      <trkpt lat="41.680504" lon="-8.066539">
        <ele>560.165</ele>
        <time>2021-08-03T09:27:45Z</time>
      </trkpt>
      <trkpt lat="41.680959" lon="-8.067017">
        <ele>558.873</ele>
        <time>2021-08-03T09:28:33Z</time>
      </trkpt>
      <trkpt lat="41.681481" lon="-8.068336">
        <ele>559.584</ele>
        <time>2021-08-03T09:29:21Z</time>
      </trkpt>
      <trkpt lat="41.681553" lon="-8.068925">
        <ele>557.756</ele>
        <time>2021-08-03T09:30:10Z</time>
      </trkpt>
      <trkpt lat="41.681352" lon="-8.070245">
        <ele>559.226</ele>
        <time>2021-08-03T09:30:58Z</time>
      </trkpt>
      <trkpt lat="41.681892" lon="-8.071431">
        <ele>558.186</ele>
        <time>2021-08-03T09:31:46Z</time>
      </trkpt>
      <trkpt lat="41.682139" lon="-8.072813">
        <ele>554.660</ele>
        <time>2021-08-03T09:32:34Z</time>
      </trkpt>
      <trkpt lat="41.682694" lon="-8.074021">
        <ele>545.026</ele>
        <time>2021-08-03T09:33:23Z</time>
      </trkpt>
      <trkpt lat="41.682686" lon="-8.074976">
        <ele>541.908</ele>
        <time>2021-08-03T09:34:11Z</time>
      </trkpt>
      <trkpt lat="41.682358" lon="-8.076461">
        <ele>539.225</ele>
        <time>2021-08-03T09:34:59Z</time>
      </trkpt>
      <trkpt lat="41.682710" lon="-8.078174">
        <ele>532.457</ele>
        <time>2021-08-03T09:35:48Z</time>
      </trkpt>
      <trkpt lat="41.682463" lon="-8.079913">
        <ele>530.226</ele>
        <time>2021-08-03T09:36:36Z</time>
      </trkpt>
      <trkpt lat="41.683031" lon="-8.081455">
        <ele>526.141</ele>
        <time>2021-08-03T09:37:24Z</time>
      </trkpt>
      <trkpt lat="41.683095" lon="-8.082456">
        <ele>520.129</ele>
        <time>2021-08-03T09:38:13Z</time>
      </trkpt>
      <trkpt lat="41.682725" lon="-8.084149">
        <ele>520.460</ele>
        <time>2021-08-03T09:39:01Z</time>
      </trkpt>
      <trkpt lat="41.683246" lon="-8.086263">
        <ele>501.762</ele>
        <time>2021-08-03T09:39:50Z</time>
      </trkpt>
      <trkpt lat="41.683179" lon="-8.086566">
        <ele>499.812</ele>
        <time>2021-08-03T09:40:38Z</time>
      </trkpt>
      <trkpt lat="41.682589" lon="-8.087177">
        <ele>496.867</ele>
        <time>2021-08-03T09:41:27Z</time>
      </trkpt>
      <trkpt lat="41.682491" lon="-8.087444">
        <ele>498.781</ele>
        <time>2021-08-03T09:42:15Z</time>
      </trkpt>
      <trkpt lat="41.682460" lon="-8.090099">
        <ele>503.419</ele>
        <time>2021-08-03T09:43:04Z</time>
      </trkpt>
      <trkpt lat="41.682669" lon="-8.090932">
        <ele>502.608</ele>
        <time>2021-08-03T09:43:52Z</time>
      </trkpt>
      <trkpt lat="41.682230" lon="-8.092271">
        <ele>501.853</ele>
        <time>2021-08-03T09:44:41Z</time>
      </trkpt>
      <trkpt lat="41.682376" lon="-8.092753">
        <ele>502.645</ele>
        <time>2021-08-03T09:45:29Z</time>
      </trkpt>
      <trkpt lat="41.682936" lon="-8.093297">
        <ele>504.214</ele>
        <time>2021-08-03T09:46:18Z</time>
      </trkpt>
      <trkpt lat="41.683151" lon="-8.093722">
        <ele>505.519</ele>
        <time>2021-08-03T09:47:06Z</time>
      </trkpt>
      <trkpt lat="41.683370" lon="-8.095227">
        <ele>505.827</ele>
        <time>2021-08-03T09:47:55Z</time>
      </trkpt>
      <trkpt lat="41.682597" lon="-8.097058">
        <ele>501.848</ele>
        <time>2021-08-03T09:48:44Z</time>
      </trkpt>
      <trkpt lat="41.682259" lon="-8.098378">
        <ele>501.640</ele>
        <time>2021-08-03T09:49:32Z</time>
      </trkpt>
      <trkpt lat="41.681873" lon="-8.098945">
        <ele>495.370</ele>
        <time>2021-08-03T09:50:21Z</time>
      </trkpt>
      <trkpt lat="41.681279" lon="-8.099260">
        <ele>490.084</ele>
        <time>2021-08-03T09:51:10Z</time>
      </trkpt>
      <trkpt lat="41.679151" lon="-8.099562">
        <ele>501.107</ele>
        <time>2021-08-03T09:51:58Z</time>
      </trkpt>
      <trkpt lat="41.678808" lon="-8.099919">
        <ele>504.717</ele>
        <time>2021-08-03T09:52:47Z</time>
      </trkpt>
      <trkpt lat="41.678830" lon="-8.100429">
        <ele>497.008</ele>
        <time>2021-08-03T09:53:36Z</time>
      </trkpt>
      <trkpt lat="41.679816" lon="-8.102344">
        <ele>490.165</ele>
        <time>2021-08-03T09:54:25Z</time>
      </trkpt>
      <trkpt lat="41.679879" lon="-8.102911">
        <ele>486.837</ele>
        <time>2021-08-03T09:55:13Z</time>
      </trkpt>
      <trkpt lat="41.678061" lon="-8.106107">
        <ele>486.826</ele>
        <time>2021-08-03T09:56:02Z</time>
      </trkpt>
      <trkpt lat="41.677923" lon="-8.106924">
        <ele>482.541</ele>
        <time>2021-08-03T09:56:51Z</time>
      </trkpt>
      <trkpt lat="41.678108" lon="-8.107287">
        <ele>487.039</ele>
        <time>2021-08-03T09:57:40Z</time>
      </trkpt>
      <trkpt lat="41.678269" lon="-8.107351">
        <ele>487.040</ele>
        <time>2021-08-03T09:58:29Z</time>
      </trkpt>
      <trkpt lat="41.679297" lon="-8.106818">
        <ele>482.462</ele>
        <time>2021-08-03T09:59:18Z</time>
      </trkpt>
      <trkpt lat="41.680222" lon="-8.107288">
        <ele>480.412</ele>
        <time>2021-08-03T10:00:06Z</time>
      </trkpt>
      <trkpt lat="41.680434" lon="-8.108206">
        <ele>481.559</ele>
        <time>2021-08-03T10:00:55Z</time>
      </trkpt>
      <trkpt lat="41.681233" lon="-8.109357">
        <ele>471.703</ele>
        <time>2021-08-03T10:01:44Z</time>
      </trkpt>
      <trkpt lat="41.681435" lon="-8.110190">
        <ele>464.223</ele>
        <time>2021-08-03T10:02:33Z</time>
      </trkpt>
      <trkpt lat="41.681272" lon="-8.110963">
        <ele>461.608</ele>
        <time>2021-08-03T10:03:22Z</time>
      </trkpt>
      <trkpt lat="41.680515" lon="-8.112084">
        <ele>459.792</ele>
        <time>2021-08-03T10:04:11Z</time>
      </trkpt>
      <trkpt lat="41.680344" lon="-8.113043">
        <ele>453.854</ele>
        <time>2021-08-03T10:05:00Z</time>
      </trkpt>
      <trkpt lat="41.679902" lon="-8.113678">
        <ele>457.673</ele>
        <time>2021-08-03T10:05:49Z</time>
      </trkpt>
      <trkpt lat="41.680012" lon="-8.114985">
        <ele>452.698</ele>
        <time>2021-08-03T10:06:38Z</time>
      </trkpt>
      <trkpt lat="41.679630" lon="-8.117203">
        <ele>447.166</ele>
        <time>2021-08-03T10:07:27Z</time>
      </trkpt>
      <trkpt lat="41.677627" lon="-8.118174">
        <ele>435.937</ele>
        <time>2021-08-03T10:08:16Z</time>
      </trkpt>
      <trkpt lat="41.677483" lon="-8.118454">
        <ele>435.549</ele>
        <time>2021-08-03T10:09:05Z</time>
      </trkpt>
      <trkpt lat="41.677368" lon="-8.119378">
        <ele>429.689</ele>
        <time>2021-08-03T10:09:54Z</time>
      </trkpt>
      <trkpt lat="41.676862" lon="-8.120215">
        <ele>436.858</ele>
        <time>2021-08-03T10:10:44Z</time>
      </trkpt>
      <trkpt lat="41.676879" lon="-8.120717">
        <ele>439.952</ele>
        <time>2021-08-03T10:11:33Z</time>
      </trkpt>
      <trkpt lat="41.678582" lon="-8.123461">
        <ele>435.417</ele>
        <time>2021-08-03T10:12:22Z</time>
      </trkpt>
      <trkpt lat="41.678644" lon="-8.123868">
        <ele>430.508</ele>
        <time>2021-08-03T10:13:11Z</time>
      </trkpt>
      <trkpt lat="41.677774" lon="-8.126481">
        <ele>424.932</ele>
        <time>2021-08-03T10:14:00Z</time>
      </trkpt>
      <trkpt lat="41.677448" lon="-8.128045">
        <ele>424.294</ele>
        <time>2021-08-03T10:14:50Z</time>
      </trkpt>
      <trkpt lat="41.676168" lon="-8.132456">
        <ele>418.653</ele>
        <time>2021-08-03T10:15:39Z</time>
      </trkpt>
      <trkpt lat="41.675122" lon="-8.133399">
        <ele>424.088</ele>
        <time>2021-08-03T10:16:28Z</time>
      </trkpt>
      <trkpt lat="41.674922" lon="-8.133795">
        <ele>424.566</ele>
        <time>2021-08-03T10:17:18Z</time>
      </trkpt>
      <trkpt lat="41.674992" lon="-8.134246">
        <ele>432.147</ele>
        <time>2021-08-03T10:18:07Z</time>
      </trkpt>
      <trkpt lat="41.675747" lon="-8.135395">
        <ele>433.919</ele>
        <time>2021-08-03T10:18:56Z</time>
      </trkpt>
      <trkpt lat="41.675705" lon="-8.135935">
        <ele>433.749</ele>
        <time>2021-08-03T10:19:46Z</time>
      </trkpt>
      <trkpt lat="41.675154" lon="-8.137231">
        <ele>443.818</ele>
        <time>2021-08-03T10:20:35Z</time>
      </trkpt>
      <trkpt lat="41.675408" lon="-8.138804">
        <ele>445.198</ele>
        <time>2021-08-03T10:21:25Z</time>
      </trkpt>
      <trkpt lat="41.675365" lon="-8.139167">
        <ele>444.317</ele>
        <time>2021-08-03T10:22:14Z</time>
      </trkpt>
      <trkpt lat="41.674238" lon="-8.140615">
        <ele>446.708</ele>
        <time>2021-08-03T10:23:04Z</time>
      </trkpt>
      <trkpt lat="41.673872" lon="-8.140705">
        <ele>448.468</ele>
        <time>2021-08-03T10:23:53Z</time>
      </trkpt>
      <trkpt lat="41.672664" lon="-8.140645">
        <ele>458.440</ele>
        <time>2021-08-03T10:24:42Z</time>
      </trkpt>
      <trkpt lat="41.672373" lon="-8.140982">
        <ele>465.599</ele>
        <time>2021-08-03T10:25:32Z</time>
      </trkpt>
      <trkpt lat="41.672435" lon="-8.141546">
        <ele>470.514</ele>
        <time>2021-08-03T10:26:21Z</time>
      </trkpt>
      <trkpt lat="41.672732" lon="-8.142372">
        <ele>461.512</ele>
        <time>2021-08-03T10:27:11Z</time>
      </trkpt>
      <trkpt lat="41.672564" lon="-8.144107">
        <ele>472.293</ele>
        <time>2021-08-03T10:28:01Z</time>
      </trkpt>
      <trkpt lat="41.672716" lon="-8.144481">
        <ele>473.375</ele>
        <time>2021-08-03T10:28:50Z</time>
      </trkpt>
      <trkpt lat="41.673445" lon="-8.145398">
        <ele>476.255</ele>
        <time>2021-08-03T10:29:40Z</time>
      </trkpt>
      <trkpt lat="41.673904" lon="-8.146811">
        <ele>474.449</ele>
        <time>2021-08-03T10:30:29Z</time>
      </trkpt>
      <trkpt lat="41.673878" lon="-8.147174">
        <ele>473.402</ele>
        <time>2021-08-03T10:31:19Z</time>
      </trkpt>
      <trkpt lat="41.673368" lon="-8.148268">
        <ele>472.422</ele>
        <time>2021-08-03T10:32:09Z</time>
      </trkpt>
      <trkpt lat="41.672422" lon="-8.148667">
        <ele>483.108</ele>
        <time>2021-08-03T10:32:58Z</time>
      </trkpt>
      <trkpt lat="41.671786" lon="-8.149545">
        <ele>487.141</ele>
        <time>2021-08-03T10:33:48Z</time>
      </trkpt>
      <trkpt lat="41.671760" lon="-8.150091">
        <ele>489.423</ele>
        <time>2021-08-03T10:34:37Z</time>
      </trkpt>
      <trkpt lat="41.672010" lon="-8.151668">
        <ele>489.812</ele>
        <time>2021-08-03T10:35:27Z</time>
      </trkpt>
      <trkpt lat="41.671920" lon="-8.154093">
        <ele>492.977</ele>
        <time>2021-08-03T10:36:17Z</time>
      </trkpt>
      <trkpt lat="41.671580" lon="-8.155295">
        <ele>493.735</ele>
        <time>2021-08-03T10:37:07Z</time>
      </trkpt>
      <trkpt lat="41.670250" lon="-8.158193">
        <ele>489.356</ele>
        <time>2021-08-03T10:37:56Z</time>
      </trkpt>
      <trkpt lat="41.669622" lon="-8.158594">
        <ele>485.828</ele>
        <time>2021-08-03T10:38:46Z</time>
      </trkpt>
      <trkpt lat="41.668889" lon="-8.158571">
        <ele>486.438</ele>
        <time>2021-08-03T10:39:36Z</time>
      </trkpt>
      <trkpt lat="41.666830" lon="-8.157213">
        <ele>489.966</ele>
        <time>2021-08-03T10:40:26Z</time>
      </trkpt>
      <trkpt lat="41.665427" lon="-8.156942">
        <ele>497.629</ele>
        <time>2021-08-03T10:41:16Z</time>
      </trkpt>
      <trkpt lat="41.665144" lon="-8.157344">
        <ele>502.821</ele>
        <time>2021-08-03T10:42:06Z</time>
      </trkpt>
      <trkpt lat="41.664908" lon="-8.158561">
        <ele>499.308</ele>
        <time>2021-08-03T10:42:56Z</time>
      </trkpt>
      <trkpt lat="41.664219" lon="-8.159337">
        <ele>498.253</ele>
        <time>2021-08-03T10:43:46Z</time>
      </trkpt>
      <trkpt lat="41.663874" lon="-8.159609">
        <ele>499.025</ele>
        <time>2021-08-03T10:44:35Z</time>
      </trkpt>
      <trkpt lat="41.662971" lon="-8.159620">
        <ele>504.544</ele>
        <time>2021-08-03T10:45:25Z</time>
      </trkpt>
      <trkpt lat="41.662515" lon="-8.160001">
        <ele>508.879</ele>
        <time>2021-08-03T10:46:15Z</time>
      </trkpt>
      <trkpt lat="41.662345" lon="-8.160776">
        <ele>508.327</ele>
        <time>2021-08-03T10:47:05Z</time>
      </trkpt>
      <trkpt lat="41.662481" lon="-8.162335">
        <ele>505.148</ele>
        <time>2021-08-03T10:47:55Z</time>
      </trkpt>
      <trkpt lat="41.662319" lon="-8.163799">
        <ele>507.220</ele>
        <time>2021-08-03T10:48:45Z</time>
      </trkpt>
      <trkpt lat="41.662156" lon="-8.164150">
        <ele>506.730</ele>
        <time>2021-08-03T10:49:35Z</time>
      </trkpt>
      <trkpt lat="41.661467" lon="-8.164697">
        <ele>506.385</ele>
        <time>2021-08-03T10:50:25Z</time>
      </trkpt>
      <trkpt lat="41.660967" lon="-8.164908">
        <ele>505.089</ele>
        <time>2021-08-03T10:51:16Z</time>
      </trkpt>
      <trkpt lat="41.660161" lon="-8.165079">
        <ele>503.917</ele>
        <time>2021-08-03T10:52:06Z</time>
      </trkpt>
      <trkpt lat="41.659181" lon="-8.164917">
        <ele>506.408</ele>
        <time>2021-08-03T10:52:56Z</time>
      </trkpt>
      <trkpt lat="41.658113" lon="-8.165325">
        <ele>514.055</ele>
        <time>2021-08-03T10:53:46Z</time>
      </trkpt>
      <trkpt lat="41.657858" lon="-8.165810">
        <ele>512.137</ele>
        <time>2021-08-03T10:54:36Z</time>
      </trkpt>
      <trkpt lat="41.657966" lon="-8.166698">
        <ele>507.396</ele>
        <time>2021-08-03T10:55:26Z</time>
      </trkpt>
      <trkpt lat="41.657808" lon="-8.167088">
        <ele>509.251</ele>
        <time>2021-08-03T10:56:16Z</time>
      </trkpt>
      <trkpt lat="41.657628" lon="-8.167209">
        <ele>508.779</ele>
        <time>2021-08-03T10:57:06Z</time>
      </trkpt>
      <trkpt lat="41.657005" lon="-8.167251">
        <ele>509.590</ele>
        <time>2021-08-03T10:57:56Z</time>
      </trkpt>
      <trkpt lat="41.656375" lon="-8.167609">
        <ele>507.462</ele>
        <time>2021-08-03T10:58:47Z</time>
      </trkpt>
      <trkpt lat="41.655518" lon="-8.167759">
        <ele>513.692</ele>
        <time>2021-08-03T10:59:37Z</time>
      </trkpt>
      <trkpt lat="41.654864" lon="-8.168724">
        <ele>511.285</ele>
        <time>2021-08-03T11:00:27Z</time>
      </trkpt>
      <trkpt lat="41.653898" lon="-8.168644">
        <ele>512.289</ele>
        <time>2021-08-03T11:01:17Z</time>
      </trkpt>
      <trkpt lat="41.653666" lon="-8.168533">
        <ele>510.117</ele>
        <time>2021-08-03T11:02:07Z</time>
      </trkpt>
      <trkpt lat="41.653117" lon="-8.167833">
        <ele>510.608</ele>
        <time>2021-08-03T11:02:58Z</time>
      </trkpt>
      <trkpt lat="41.652818" lon="-8.167760">
        <ele>514.285</ele>
        <time>2021-08-03T11:03:48Z</time>
      </trkpt>
      <trkpt lat="41.652669" lon="-8.167844">
        <ele>517.667</ele>
        <time>2021-08-03T11:04:38Z</time>
      </trkpt>
      <trkpt lat="41.651997" lon="-8.168608">
        <ele>516.586</ele>
        <time>2021-08-03T11:05:28Z</time>
      </trkpt>
      <trkpt lat="41.651812" lon="-8.170112">
        <ele>513.121</ele>
        <time>2021-08-03T11:06:19Z</time>
      </trkpt>
      <trkpt lat="41.651434" lon="-8.171058">
        <ele>512.119</ele>
        <time>2021-08-03T11:07:09Z</time>
      </trkpt>
      <trkpt lat="41.649825" lon="-8.172828">
        <ele>515.050</ele>
        <time>2021-08-03T11:07:59Z</time>
      </trkpt>
      <trkpt lat="41.649752" lon="-8.173425">
        <ele>520.332</ele>
        <time>2021-08-03T11:08:50Z</time>
      </trkpt>
      <trkpt lat="41.649972" lon="-8.174762">
        <ele>509.972</ele>
        <time>2021-08-03T11:09:40Z</time>
      </trkpt>
      <trkpt lat="41.649850" lon="-8.175140">
        <ele>509.062</ele>
        <time>2021-08-03T11:10:30Z</time>
      </trkpt>
      <trkpt lat="41.649190" lon="-8.175536">
        <ele>521.983</ele>
        <time>2021-08-03T11:11:21Z</time>
      </trkpt>
      <trkpt lat="41.648667" lon="-8.176641">
        <ele>518.111</ele>
        <time>2021-08-03T11:12:11Z</time>
      </trkpt>
      <trkpt lat="41.647678" lon="-8.177382">
        <ele>522.108</ele>
        <time>2021-08-03T11:13:02Z</time>
      </trkpt>
      <trkpt lat="41.647529" lon="-8.178625">
        <ele>520.813</ele>
        <time>2021-08-03T11:13:52Z</time>
      </trkpt>
      <trkpt lat="41.646994" lon="-8.179669">
        <ele>521.115</ele>
        <time>2021-08-03T11:14:43Z</time>
      </trkpt>
      <trkpt lat="41.646972" lon="-8.180738">
        <ele>511.744</ele>
        <time>2021-08-03T11:15:33Z</time>
      </trkpt>
      <trkpt lat="41.646382" lon="-8.181865">
        <ele>517.019</ele>
        <time>2021-08-03T11:16:24Z</time>
      </trkpt>
      <trkpt lat="41.646178" lon="-8.182841">
        <ele>514.967</ele>
        <time>2021-08-03T11:17:14Z</time>
      </trkpt>
      <trkpt lat="41.645989" lon="-8.183188">
        <ele>513.448</ele>
        <time>2021-08-03T11:18:05Z</time>
      </trkpt>
      <trkpt lat="41.645680" lon="-8.183350">
        <ele>510.970</ele>
        <time>2021-08-03T11:18:55Z</time>
      </trkpt>
      <trkpt lat="41.643576" lon="-8.183551">
        <ele>522.160</ele>
        <time>2021-08-03T11:19:46Z</time>
      </trkpt>
      <trkpt lat="41.642638" lon="-8.182854">
        <ele>528.331</ele>
        <time>2021-08-03T11:20:36Z</time>
      </trkpt>
      <trkpt lat="41.641045" lon="-8.182662">
        <ele>531.561</ele>
        <time>2021-08-03T11:21:27Z</time>
      </trkpt>
      <trkpt lat="41.640206" lon="-8.183456">
        <ele>532.407</ele>
        <time>2021-08-03T11:22:18Z</time>
      </trkpt>
      <trkpt lat="41.636998" lon="-8.185189">
        <ele>535.008</ele>
        <time>2021-08-03T11:23:08Z</time>
      </trkpt>
      <trkpt lat="41.636161" lon="-8.186275">
        <ele>540.290</ele>
        <time>2021-08-03T11:23:59Z</time>
      </trkpt>
      <trkpt lat="41.634631" lon="-8.190427">
        <ele>536.982</ele>
        <time>2021-08-03T11:24:50Z</time>
      </trkpt>
      <trkpt lat="41.634402" lon="-8.191556">
        <ele>532.781</ele>
        <time>2021-08-03T11:25:41Z</time>
      </trkpt>
      <trkpt lat="41.633919" lon="-8.191118">
        <ele>528.216</ele>
        <time>2021-08-03T11:26:31Z</time>
      </trkpt>
      <trkpt lat="41.633846" lon="-8.190119">
        <ele>524.364</ele>
        <time>2021-08-03T11:27:22Z</time>
      </trkpt>
      <trkpt lat="41.633477" lon="-8.189228">
        <ele>521.015</ele>
        <time>2021-08-03T11:28:13Z</time>
      </trkpt>
      <trkpt lat="41.633438" lon="-8.187281">
        <ele>512.447</ele>
        <time>2021-08-03T11:29:04Z</time>
      </trkpt>
      <trkpt lat="41.632946" lon="-8.186067">
        <ele>504.147</ele>
        <time>2021-08-03T11:29:55Z</time>
      </trkpt>
      <trkpt lat="41.632904" lon="-8.185670">
        <ele>503.557</ele>
        <time>2021-08-03T11:30:46Z</time>
      </trkpt>
      <trkpt lat="41.632988" lon="-8.184078">
        <ele>496.600</ele>
        <time>2021-08-03T11:31:37Z</time>
      </trkpt>
      <trkpt lat="41.633715" lon="-8.182475">
        <ele>490.620</ele>
        <time>2021-08-03T11:32:28Z</time>
      </trkpt>
      <trkpt lat="41.634841" lon="-8.181354">
        <ele>484.108</ele>
        <time>2021-08-03T11:33:19Z</time>
      </trkpt>
      <trkpt lat="41.635414" lon="-8.179848">
        <ele>461.862</ele>
        <time>2021-08-03T11:34:10Z</time>
      </trkpt>
      <trkpt lat="41.635442" lon="-8.179333">
        <ele>460.054</ele>
        <time>2021-08-03T11:35:01Z</time>
      </trkpt>
      <trkpt lat="41.635155" lon="-8.178614">
        <ele>455.553</ele>
        <time>2021-08-03T11:35:52Z</time>
      </trkpt>
      <trkpt lat="41.633999" lon="-8.177914">
        <ele>451.648</ele>
        <time>2021-08-03T11:36:43Z</time>
      </trkpt>
      <trkpt lat="41.633633" lon="-8.177392">
        <ele>452.556</ele>
        <time>2021-08-03T11:37:34Z</time>
      </trkpt>
      <trkpt lat="41.632201" lon="-8.171946">
        <ele>433.827</ele>
        <time>2021-08-03T11:38:25Z</time>
      </trkpt>
      <trkpt lat="41.632096" lon="-8.167903">
        <ele>411.459</ele>
        <time>2021-08-03T11:39:16Z</time>
      </trkpt>
      <trkpt lat="41.632511" lon="-8.163301">
        <ele>411.539</ele>
        <time>2021-08-03T11:40:07Z</time>
      </trkpt>
      <trkpt lat="41.635166" lon="-8.156838">
        <ele>409.865</ele>
        <time>2021-08-03T11:40:59Z</time>
      </trkpt>
      <trkpt lat="41.635518" lon="-8.155556">
        <ele>406.668</ele>
        <time>2021-08-03T11:41:50Z</time>
      </trkpt>
      <trkpt lat="41.635512" lon="-8.153271">
        <ele>395.314</ele>
        <time>2021-08-03T11:42:41Z</time>
      </trkpt>
      <trkpt lat="41.635354" lon="-8.152798">
        <ele>390.608</ele>
        <time>2021-08-03T11:43:33Z</time>
      </trkpt>
      <trkpt lat="41.635471" lon="-8.152365">
        <ele>389.583</ele>
        <time>2021-08-03T11:44:24Z</time>
      </trkpt>
      <trkpt lat="41.635349" lon="-8.149113">
        <ele>404.675</ele>
        <time>2021-08-03T11:45:16Z</time>
      </trkpt>
      <trkpt lat="41.635623" lon="-8.146563">
        <ele>416.084</ele>
        <time>2021-08-03T11:46:07Z</time>
      </trkpt>
      <trkpt lat="41.635099" lon="-8.145006">
        <ele>415.399</ele>
        <time>2021-08-03T11:46:59Z</time>
      </trkpt>
      <trkpt lat="41.634830" lon="-8.144619">
        <ele>416.637</ele>
        <time>2021-08-03T11:47:50Z</time>
      </trkpt>
      <trkpt lat="41.633548" lon="-8.143642">
        <ele>412.098</ele>
        <time>2021-08-03T11:48:42Z</time>
      </trkpt>
      <trkpt lat="41.632721" lon="-8.142613">
        <ele>396.520</ele>
        <time>2021-08-03T11:49:34Z</time>
      </trkpt>
      <trkpt lat="41.631801" lon="-8.142281">
        <ele>392.430</ele>
        <time>2021-08-03T11:50:25Z</time>
      </trkpt>
      <trkpt lat="41.631137" lon="-8.141833">
        <ele>385.077</ele>
        <time>2021-08-03T11:51:17Z</time>
      </trkpt>
      <trkpt lat="41.629445" lon="-8.139862">
        <ele>376.161</ele>
        <time>2021-08-03T11:52:09Z</time>
      </trkpt>
      <trkpt lat="41.629174" lon="-8.139767">
        <ele>379.327</ele>
        <time>2021-08-03T11:53:00Z</time>
      </trkpt>
      <trkpt lat="41.627586" lon="-8.140340">
        <ele>403.908</ele>
        <time>2021-08-03T11:53:52Z</time>
      </trkpt>
      <trkpt lat="41.626783" lon="-8.140381">
        <ele>401.744</ele>
        <time>2021-08-03T11:54:44Z</time>
      </trkpt>
      <trkpt lat="41.623615" lon="-8.140140">
        <ele>384.786</ele>
        <time>2021-08-03T11:55:35Z</time>
      </trkpt>
      <trkpt lat="41.623217" lon="-8.140376">
        <ele>382.335</ele>
        <time>2021-08-03T11:56:27Z</time>
      </trkpt>
      <trkpt lat="41.623089" lon="-8.140331">
        <ele>379.910</ele>
        <time>2021-08-03T11:57:19Z</time>
      </trkpt>
      <trkpt lat="41.622765" lon="-8.140660">
        <ele>374.478</ele>
        <time>2021-08-03T11:58:11Z</time>
      </trkpt>
      <trkpt lat="41.622713" lon="-8.142012">
        <ele>380.739</ele>
        <time>2021-08-03T11:59:03Z</time>
      </trkpt>
      <trkpt lat="41.622509" lon="-8.141941">
        <ele>381.561</ele>
        <time>2021-08-03T11:59:54Z</time>
      </trkpt>
      <trkpt lat="41.622343" lon="-8.141369">
        <ele>380.891</ele>
        <time>2021-08-03T12:00:46Z</time>
      </trkpt>
      <trkpt lat="41.621934" lon="-8.141026">
        <ele>382.298</ele>
        <time>2021-08-03T12:01:38Z</time>
      </trkpt>
      <trkpt lat="41.621184" lon="-8.140737">
        <ele>382.815</ele>
        <time>2021-08-03T12:02:30Z</time>
      </trkpt>
      <trkpt lat="41.620061" lon="-8.140896">
        <ele>388.826</ele>
        <time>2021-08-03T12:03:22Z</time>
      </trkpt>
      <trkpt lat="41.619596" lon="-8.141896">
        <ele>398.408</ele>
        <time>2021-08-03T12:04:14Z</time>
      </trkpt>
      <trkpt lat="41.618719" lon="-8.142623">
        <ele>402.856</ele>
        <time>2021-08-03T12:05:06Z</time>
      </trkpt>
      <trkpt lat="41.618268" lon="-8.143372">
        <ele>406.568</ele>
        <time>2021-08-03T12:05:58Z</time>
      </trkpt>
      <trkpt lat="41.617039" lon="-8.144337">
        <ele>406.857</ele>
        <time>2021-08-03T12:06:50Z</time>
      </trkpt>
      <trkpt lat="41.616062" lon="-8.144623">
        <ele>396.522</ele>
        <time>2021-08-03T12:07:42Z</time>
      </trkpt>
      <trkpt lat="41.614993" lon="-8.145228">
        <ele>394.170</ele>
        <time>2021-08-03T12:08:34Z</time>
      </trkpt>
      <trkpt lat="41.614653" lon="-8.144908">
        <ele>392.471</ele>
        <time>2021-08-03T12:09:26Z</time>
      </trkpt>
      <trkpt lat="41.613863" lon="-8.144665">
        <ele>401.353</ele>
        <time>2021-08-03T12:10:18Z</time>
      </trkpt>
      <trkpt lat="41.613376" lon="-8.144771">
        <ele>408.673</ele>
        <time>2021-08-03T12:11:10Z</time>
      </trkpt>
      <trkpt lat="41.612574" lon="-8.145385">
        <ele>414.134</ele>
        <time>2021-08-03T12:12:02Z</time>
      </trkpt>
      <trkpt lat="41.611889" lon="-8.145307">
        <ele>419.155</ele>
        <time>2021-08-03T12:12:54Z</time>
      </trkpt>
      <trkpt lat="41.611088" lon="-8.144914">
        <ele>429.310</ele>
        <time>2021-08-03T12:13:46Z</time>
      </trkpt>
      <trkpt lat="41.610845" lon="-8.144614">
        <ele>432.408</ele>
        <time>2021-08-03T12:14:38Z</time>
      </trkpt>
      <trkpt lat="41.608981" lon="-8.143785">
        <ele>439.910</ele>
        <time>2021-08-03T12:15:30Z</time>
      </trkpt>
      <trkpt lat="41.608386" lon="-8.143845">
        <ele>442.982</ele>
        <time>2021-08-03T12:16:22Z</time>
      </trkpt>
      <trkpt lat="41.607058" lon="-8.144954">
        <ele>436.651</ele>
        <time>2021-08-03T12:17:14Z</time>
      </trkpt>
      <trkpt lat="41.605919" lon="-8.144593">
        <ele>430.496</ele>
        <time>2021-08-03T12:18:06Z</time>
      </trkpt>
      <trkpt lat="41.605024" lon="-8.144055">
        <ele>427.014</ele>
        <time>2021-08-03T12:18:59Z</time>
      </trkpt>
      <trkpt lat="41.604757" lon="-8.144033">
        <ele>426.345</ele>
        <time>2021-08-03T12:19:51Z</time>
      </trkpt>
      <trkpt lat="41.604002" lon="-8.144649">
        <ele>423.837</ele>
        <time>2021-08-03T12:20:43Z</time>
      </trkpt>
      <trkpt lat="41.603694" lon="-8.144691">
        <ele>417.137</ele>
        <time>2021-08-03T12:21:35Z</time>
      </trkpt>
      <trkpt lat="41.602999" lon="-8.144364">
        <ele>410.366</ele>
        <time>2021-08-03T12:22:28Z</time>
      </trkpt>
      <trkpt lat="41.602856" lon="-8.144415">
        <ele>409.129</ele>
        <time>2021-08-03T12:23:20Z</time>
      </trkpt>
      <trkpt lat="41.603075" lon="-8.145264">
        <ele>399.421</ele>
        <time>2021-08-03T12:24:12Z</time>
      </trkpt>
      <trkpt lat="41.603002" lon="-8.145616">
        <ele>394.208</ele>
        <time>2021-08-03T12:25:04Z</time>
      </trkpt>
      <trkpt lat="41.602060" lon="-8.146614">
        <ele>378.123</ele>
        <time>2021-08-03T12:25:57Z</time>
      </trkpt>
      <trkpt lat="41.599597" lon="-8.146991">
        <ele>364.655</ele>
        <time>2021-08-03T12:26:49Z</time>
      </trkpt>
      <trkpt lat="41.599086" lon="-8.146962">
        <ele>361.344</ele>
        <time>2021-08-03T12:27:41Z</time>
      </trkpt>
      <trkpt lat="41.598610" lon="-8.147119">
        <ele>346.619</ele>
        <time>2021-08-03T12:28:34Z</time>
      </trkpt>
      <trkpt lat="41.598575" lon="-8.147322">
        <ele>342.227</ele>
        <time>2021-08-03T12:29:26Z</time>
      </trkpt>
      <trkpt lat="41.598794" lon="-8.147361">
        <ele>342.778</ele>
        <time>2021-08-03T12:30:18Z</time>
      </trkpt>
      <trkpt lat="41.598801" lon="-8.147501">
        <ele>342.060</ele>
        <time>2021-08-03T12:31:11Z</time>
      </trkpt>
      <trkpt lat="41.598528" lon="-8.147594">
        <ele>340.590</ele>
        <time>2021-08-03T12:32:03Z</time>
      </trkpt>
      <trkpt lat="41.598194" lon="-8.148078">
        <ele>344.131</ele>
        <time>2021-08-03T12:32:56Z</time>
      </trkpt>
      <trkpt lat="41.597629" lon="-8.148328">
        <ele>346.861</ele>
        <time>2021-08-03T12:33:48Z</time>
      </trkpt>
      <trkpt lat="41.597115" lon="-8.148120">
        <ele>339.307</ele>
        <time>2021-08-03T12:34:40Z</time>
      </trkpt>
      <trkpt lat="41.596509" lon="-8.148519">
        <ele>344.808</ele>
        <time>2021-08-03T12:35:33Z</time>
      </trkpt>
      <trkpt lat="41.596068" lon="-8.147637">
        <ele>348.650</ele>
        <time>2021-08-03T12:36:25Z</time>
      </trkpt>
      <trkpt lat="41.595554" lon="-8.147047">
        <ele>357.752</ele>
        <time>2021-08-03T12:37:18Z</time>
      </trkpt>
      <trkpt lat="41.595186" lon="-8.146376">
        <ele>355.311</ele>
        <time>2021-08-03T12:38:10Z</time>
      </trkpt>
      <trkpt lat="41.593024" lon="-8.143910">
        <ele>345.866</ele>
        <time>2021-08-03T12:39:03Z</time>
      </trkpt>
      <trkpt lat="41.592419" lon="-8.143680">
        <ele>338.184</ele>
        <time>2021-08-03T12:39:55Z</time>
      </trkpt>
      <trkpt lat="41.592296" lon="-8.143802">
        <ele>338.275</ele>
        <time>2021-08-03T12:40:48Z</time>
      </trkpt>
      <trkpt lat="41.592231" lon="-8.144283">
        <ele>337.787</ele>
        <time>2021-08-03T12:41:40Z</time>
      </trkpt>
      <trkpt lat="41.592575" lon="-8.145261">
        <ele>341.067</ele>
        <time>2021-08-03T12:42:33Z</time>
      </trkpt>
      <trkpt lat="41.592656" lon="-8.146098">
        <ele>346.082</ele>
        <time>2021-08-03T12:43:25Z</time>
      </trkpt>
      <trkpt lat="41.592581" lon="-8.146655">
        <ele>344.443</ele>
        <time>2021-08-03T12:44:18Z</time>
      </trkpt>
      <trkpt lat="41.592374" lon="-8.146781">
        <ele>344.817</ele>
        <time>2021-08-03T12:45:10Z</time>
      </trkpt>
      <trkpt lat="41.592255" lon="-8.146673">
        <ele>344.608</ele>
        <time>2021-08-03T12:46:03Z</time>
      </trkpt>
      <trkpt lat="41.592110" lon="-8.146396">
        <ele>346.595</ele>
        <time>2021-08-03T12:46:56Z</time>
      </trkpt>
      <trkpt lat="41.592059" lon="-8.145706">
        <ele>348.627</ele>
        <time>2021-08-03T12:47:48Z</time>
      </trkpt>
      <trkpt lat="41.591696" lon="-8.145002">
        <ele>352.086</ele>
        <time>2021-08-03T12:48:41Z</time>
      </trkpt>
      <trkpt lat="41.591248" lon="-8.144643">
        <ele>350.361</ele>
        <time>2021-08-03T12:49:33Z</time>
      </trkpt>
      <trkpt lat="41.589995" lon="-8.144104">
        <ele>352.229</ele>
        <time>2021-08-03T12:50:26Z</time>
      </trkpt>
      <trkpt lat="41.589474" lon="-8.143532">
        <ele>352.190</ele>
        <time>2021-08-03T12:51:19Z</time>
      </trkpt>
      <trkpt lat="41.589482" lon="-8.143252">
        <ele>348.892</ele>
        <time>2021-08-03T12:52:11Z</time>
      </trkpt>
      <trkpt lat="41.589772" lon="-8.142814">
        <ele>344.142</ele>
        <time>2021-08-03T12:53:04Z</time>
      </trkpt>
      <trkpt lat="41.589729" lon="-8.141509">
        <ele>346.928</ele>
        <time>2021-08-03T12:53:57Z</time>
      </trkpt>
      <trkpt lat="41.589334" lon="-8.140769">
        <ele>350.389</ele>
        <time>2021-08-03T12:54:49Z</time>
      </trkpt>
      <trkpt lat="41.588834" lon="-8.140165">
        <ele>350.417</ele>
        <time>2021-08-03T12:55:42Z</time>
      </trkpt>
      <trkpt lat="41.588022" lon="-8.139783">
        <ele>348.508</ele>
        <time>2021-08-03T12:56:35Z</time>
      </trkpt>
      <trkpt lat="41.587393" lon="-8.139287">
        <ele>346.459</ele>
        <time>2021-08-03T12:57:28Z</time>
      </trkpt>
      <trkpt lat="41.586291" lon="-8.137723">
        <ele>323.421</ele>
        <time>2021-08-03T12:58:20Z</time>
      </trkpt>
      <trkpt lat="41.585515" lon="-8.137327">
        <ele>320.710</ele>
        <time>2021-08-03T12:59:13Z</time>
      </trkpt>
      <trkpt lat="41.585030" lon="-8.137284">
        <ele>332.865</ele>
        <time>2021-08-03T13:00:06Z</time>
      </trkpt>
      <trkpt lat="41.585037" lon="-8.136995">
        <ele>334.493</ele>
        <time>2021-08-03T13:00:59Z</time>
      </trkpt>
      <trkpt lat="41.584820" lon="-8.136598">
        <ele>337.264</ele>
        <time>2021-08-03T13:01:51Z</time>
      </trkpt>
      <trkpt lat="41.582402" lon="-8.134998">
        <ele>348.156</ele>
        <time>2021-08-03T13:02:44Z</time>
      </trkpt>
      <trkpt lat="41.581624" lon="-8.134631">
        <ele>355.076</ele>
        <time>2021-08-03T13:03:37Z</time>
      </trkpt>
      <trkpt lat="41.580695" lon="-8.134796">
        <ele>352.721</ele>
        <time>2021-08-03T13:04:30Z</time>
      </trkpt>
      <trkpt lat="41.580547" lon="-8.135872">
        <ele>362.241</ele>
        <time>2021-08-03T13:05:23Z</time>
      </trkpt>
      <trkpt lat="41.580232" lon="-8.136291">
        <ele>364.505</ele>
        <time>2021-08-03T13:06:16Z</time>
      </trkpt>
      <trkpt lat="41.580007" lon="-8.136397">
        <ele>362.708</ele>
        <time>2021-08-03T13:07:09Z</time>
      </trkpt>
      <trkpt lat="41.578729" lon="-8.136875">
        <ele>360.689</ele>
        <time>2021-08-03T13:08:02Z</time>
      </trkpt>
      <trkpt lat="41.577454" lon="-8.136406">
        <ele>361.361</ele>
        <time>2021-08-03T13:08:55Z</time>
      </trkpt>
      <trkpt lat="41.576344" lon="-8.134903">
        <ele>375.840</ele>
        <time>2021-08-03T13:09:48Z</time>
      </trkpt>
      <trkpt lat="41.576339" lon="-8.134166">
        <ele>376.325</ele>
        <time>2021-08-03T13:10:41Z</time>
      </trkpt>
      <trkpt lat="41.576129" lon="-8.133603">
        <ele>381.593</ele>
        <time>2021-08-03T13:11:34Z</time>
      </trkpt>
      <trkpt lat="41.575598" lon="-8.133268">
        <ele>385.514</ele>
        <time>2021-08-03T13:12:27Z</time>
      </trkpt>
      <trkpt lat="41.575084" lon="-8.132670">
        <ele>387.346</ele>
        <time>2021-08-03T13:13:20Z</time>
      </trkpt>
      <trkpt lat="41.574207" lon="-8.132126">
        <ele>380.316</ele>
        <time>2021-08-03T13:14:13Z</time>
      </trkpt>
      <trkpt lat="41.573827" lon="-8.132262">
        <ele>376.024</ele>
        <time>2021-08-03T13:15:06Z</time>
      </trkpt>
      <trkpt lat="41.573549" lon="-8.132171">
        <ele>372.604</ele>
        <time>2021-08-03T13:15:59Z</time>
      </trkpt>
      <trkpt lat="41.573221" lon="-8.131453">
        <ele>375.914</ele>
        <time>2021-08-03T13:16:52Z</time>
      </trkpt>
      <trkpt lat="41.572699" lon="-8.131313">
        <ele>377.508</ele>
        <time>2021-08-03T13:17:45Z</time>
      </trkpt>
      <trkpt lat="41.572528" lon="-8.131148">
        <ele>377.499</ele>
        <time>2021-08-03T13:18:38Z</time>
      </trkpt>
      <trkpt lat="41.572329" lon="-8.130338">
        <ele>382.561</ele>
        <time>2021-08-03T13:19:31Z</time>
      </trkpt>
      <trkpt lat="41.572623" lon="-8.128056">
        <ele>386.080</ele>
        <time>2021-08-03T13:20:25Z</time>
      </trkpt>
      <trkpt lat="41.572316" lon="-8.126213">
        <ele>387.245</ele>
        <time>2021-08-03T13:21:18Z</time>
      </trkpt>
      <trkpt lat="41.572881" lon="-8.124913">
        <ele>385.193</ele>
        <time>2021-08-03T13:22:11Z</time>
      </trkpt>
      <trkpt lat="41.572694" lon="-8.123337">
        <ele>379.684</ele>
        <time>2021-08-03T13:23:04Z</time>
      </trkpt>
      <trkpt lat="41.572799" lon="-8.122793">
        <ele>377.746</ele>
        <time>2021-08-03T13:23:57Z</time>
      </trkpt>
      <trkpt lat="41.572659" lon="-8.122458">
        <ele>378.976</ele>
        <time>2021-08-03T13:24:51Z</time>
      </trkpt>
      <trkpt lat="41.572062" lon="-8.122384">
        <ele>376.815</ele>
        <time>2021-08-03T13:25:44Z</time>
      </trkpt>
      <trkpt lat="41.571918" lon="-8.121966">
        <ele>373.565</ele>
        <time>2021-08-03T13:26:37Z</time>
      </trkpt>
      <trkpt lat="41.572628" lon="-8.120855">
        <ele>371.611</ele>
        <time>2021-08-03T13:27:30Z</time>
      </trkpt>
      <trkpt lat="41.572659" lon="-8.120461">
        <ele>372.508</ele>
        <time>2021-08-03T13:28:24Z</time>
      </trkpt>
      <trkpt lat="41.571332" lon="-8.119339">
        <ele>367.178</ele>
        <time>2021-08-03T13:29:17Z</time>
      </trkpt>
      <trkpt lat="41.570702" lon="-8.119097">
        <ele>371.510</ele>
        <time>2021-08-03T13:30:10Z</time>
      </trkpt>
      <trkpt lat="41.570483" lon="-8.118328">
        <ele>367.379</ele>
        <time>2021-08-03T13:31:04Z</time>
      </trkpt>
      <trkpt lat="41.569595" lon="-8.117601">
        <ele>371.684</ele>
        <time>2021-08-03T13:31:57Z</time>
      </trkpt>
      <trkpt lat="41.568252" lon="-8.115435">
        <ele>372.552</ele>
        <time>2021-08-03T13:32:50Z</time>
      </trkpt>
      <trkpt lat="41.568295" lon="-8.115241">
        <ele>368.973</ele>
        <time>2021-08-03T13:33:44Z</time>
      </trkpt>
      <trkpt lat="41.568731" lon="-8.114792">
        <ele>364.185</ele>
        <time>2021-08-03T13:34:37Z</time>
      </trkpt>
      <trkpt lat="41.568925" lon="-8.114666">
        <ele>365.185</ele>
        <time>2021-08-03T13:35:30Z</time>
      </trkpt>
      <trkpt lat="41.569182" lon="-8.114699">
        <ele>368.213</ele>
        <time>2021-08-03T13:36:24Z</time>
      </trkpt>
      <trkpt lat="41.569373" lon="-8.114905">
        <ele>369.843</ele>
        <time>2021-08-03T13:37:17Z</time>
      </trkpt>
      <trkpt lat="41.569575" lon="-8.115719">
        <ele>365.607</ele>
        <time>2021-08-03T13:38:11Z</time>
      </trkpt>
      <trkpt lat="41.570035" lon="-8.116012">
        <ele>366.508</ele>
        <time>2021-08-03T13:39:04Z</time>
      </trkpt>
      <trkpt lat="41.570511" lon="-8.116051">
        <ele>372.768</ele>
        <time>2021-08-03T13:39:58Z</time>
      </trkpt>
      <trkpt lat="41.570688" lon="-8.116462">
        <ele>371.360</ele>
        <time>2021-08-03T13:40:51Z</time>
      </trkpt>
      <trkpt lat="41.570968" lon="-8.116597">
        <ele>371.749</ele>
        <time>2021-08-03T13:41:45Z</time>
      </trkpt>
      <trkpt lat="41.571551" lon="-8.116005">
        <ele>378.484</ele>
        <time>2021-08-03T13:42:38Z</time>
      </trkpt>
      <trkpt lat="41.571848" lon="-8.116030">
        <ele>377.982</ele>
        <time>2021-08-03T13:43:31Z</time>
      </trkpt>
      <trkpt lat="41.572337" lon="-8.115766">
        <ele>380.023</ele>
        <time>2021-08-03T13:44:25Z</time>
      </trkpt>
      <trkpt lat="41.572536" lon="-8.115121">
        <ele>384.765</ele>
        <time>2021-08-03T13:45:18Z</time>
      </trkpt>
      <trkpt lat="41.572505" lon="-8.114676">
        <ele>388.335</ele>
        <time>2021-08-03T13:46:12Z</time>
      </trkpt>
      <trkpt lat="41.571820" lon="-8.113424">
        <ele>395.752</ele>
        <time>2021-08-03T13:47:05Z</time>
      </trkpt>
      <trkpt lat="41.571677" lon="-8.111994">
        <ele>402.353</ele>
        <time>2021-08-03T13:47:59Z</time>
      </trkpt>
      <trkpt lat="41.571248" lon="-8.111483">
        <ele>403.508</ele>
        <time>2021-08-03T13:48:53Z</time>
      </trkpt>
      <trkpt lat="41.570816" lon="-8.110527">
        <ele>403.208</ele>
        <time>2021-08-03T13:49:46Z</time>
      </trkpt>
      <trkpt lat="41.570350" lon="-8.109935">
        <ele>405.912</ele>
        <time>2021-08-03T13:50:40Z</time>
      </trkpt>
      <trkpt lat="41.570268" lon="-8.109466">
        <ele>408.434</ele>
        <time>2021-08-03T13:51:33Z</time>
      </trkpt>
      <trkpt lat="41.570625" lon="-8.108827">
        <ele>406.863</ele>
        <time>2021-08-03T13:52:27Z</time>
      </trkpt>
      <trkpt lat="41.570623" lon="-8.108453">
        <ele>408.888</ele>
        <time>2021-08-03T13:53:21Z</time>
      </trkpt>
      <trkpt lat="41.570381" lon="-8.107894">
        <ele>413.956</ele>
        <time>2021-08-03T13:54:14Z</time>
      </trkpt>
      <trkpt lat="41.569829" lon="-8.107438">
        <ele>413.997</ele>
        <time>2021-08-03T13:55:08Z</time>
      </trkpt>
      <trkpt lat="41.569697" lon="-8.106953">
        <ele>415.119</ele>
        <time>2021-08-03T13:56:01Z</time>
      </trkpt>
      <trkpt lat="41.569757" lon="-8.106330">
        <ele>417.949</ele>
        <time>2021-08-03T13:56:55Z</time>
      </trkpt>
      <trkpt lat="41.568833" lon="-8.106040">
        <ele>423.885</ele>
        <time>2021-08-03T13:57:49Z</time>
      </trkpt>
      <trkpt lat="41.568448" lon="-8.106109">
        <ele>427.789</ele>
        <time>2021-08-03T13:58:42Z</time>
      </trkpt>
      <trkpt lat="41.567530" lon="-8.105804">
        <ele>430.517</ele>
        <time>2021-08-03T13:59:36Z</time>
      </trkpt>
      <trkpt lat="41.567206" lon="-8.104961">
        <ele>427.708</ele>
        <time>2021-08-03T14:00:30Z</time>
      </trkpt>
      <trkpt lat="41.566551" lon="-8.104369">
        <ele>433.395</ele>
        <time>2021-08-03T14:01:24Z</time>
      </trkpt>
      <trkpt lat="41.565143" lon="-8.104281">
        <ele>441.287</ele>
        <time>2021-08-03T14:02:17Z</time>
      </trkpt>
      <trkpt lat="41.564526" lon="-8.103352">
        <ele>433.956</ele>
        <time>2021-08-03T14:03:11Z</time>
      </trkpt>
      <trkpt lat="41.564151" lon="-8.103010">
        <ele>432.681</ele>
        <time>2021-08-03T14:04:05Z</time>
      </trkpt>
      <trkpt lat="41.564144" lon="-8.102142">
        <ele>425.859</ele>
        <time>2021-08-03T14:04:59Z</time>
      </trkpt>
      <trkpt lat="41.564050" lon="-8.102084">
        <ele>427.480</ele>
        <time>2021-08-03T14:05:52Z</time>
      </trkpt>
      <trkpt lat="41.564144" lon="-8.102142">
        <ele>425.882</ele>
        <time>2021-08-03T14:06:46Z</time>
      </trkpt>
      <trkpt lat="41.564559" lon="-8.101366">
        <ele>425.512</ele>
        <time>2021-08-03T14:07:40Z</time>
      </trkpt>
      <trkpt lat="41.564757" lon="-8.101268">
        <ele>427.053</ele>
        <time>2021-08-03T14:08:34Z</time>
      </trkpt>
      <trkpt lat="41.565390" lon="-8.101538">
        <ele>426.204</ele>
        <time>2021-08-03T14:09:28Z</time>
      </trkpt>
      <trkpt lat="41.565820" lon="-8.101968">
        <ele>424.814</ele>
        <time>2021-08-03T14:10:21Z</time>
      </trkpt>
      <trkpt lat="41.566399" lon="-8.101655">
        <ele>434.508</ele>
        <time>2021-08-03T14:11:15Z</time>
      </trkpt>
      <trkpt lat="41.567026" lon="-8.101759">
        <ele>436.952</ele>
        <time>2021-08-03T14:12:09Z</time>
      </trkpt>
      <trkpt lat="41.567628" lon="-8.101475">
        <ele>443.754</ele>
        <time>2021-08-03T14:13:03Z</time>
      </trkpt>
      <trkpt lat="41.568155" lon="-8.101549">
        <ele>442.213</ele>
        <time>2021-08-03T14:13:57Z</time>
      </trkpt>
      <trkpt lat="41.568314" lon="-8.101326">
        <ele>444.838</ele>
        <time>2021-08-03T14:14:51Z</time>
      </trkpt>
      <trkpt lat="41.568345" lon="-8.100796">
        <ele>451.426</ele>
        <time>2021-08-03T14:15:45Z</time>
      </trkpt>
      <trkpt lat="41.568578" lon="-8.100521">
        <ele>451.037</ele>
        <time>2021-08-03T14:16:39Z</time>
      </trkpt>
      <trkpt lat="41.568683" lon="-8.099868">
        <ele>461.849</ele>
        <time>2021-08-03T14:17:32Z</time>
      </trkpt>
      <trkpt lat="41.569166" lon="-8.099529">
        <ele>454.789</ele>
        <time>2021-08-03T14:18:26Z</time>
      </trkpt>
      <trkpt lat="41.569315" lon="-8.098674">
        <ele>470.685</ele>
        <time>2021-08-03T14:19:20Z</time>
      </trkpt>
      <trkpt lat="41.570205" lon="-8.098026">
        <ele>464.489</ele>
        <time>2021-08-03T14:20:14Z</time>
      </trkpt>
      <trkpt lat="41.570883" lon="-8.098716">
        <ele>466.217</ele>
        <time>2021-08-03T14:21:08Z</time>
      </trkpt>
      <trkpt lat="41.571173" lon="-8.099232">
        <ele>463.908</ele>
        <time>2021-08-03T14:22:02Z</time>
      </trkpt>
      <trkpt lat="41.571737" lon="-8.099351">
        <ele>464.985</ele>
        <time>2021-08-03T14:22:56Z</time>
      </trkpt>
      <trkpt lat="41.572464" lon="-8.098701">
        <ele>470.417</ele>
        <time>2021-08-03T14:23:50Z</time>
      </trkpt>
      <trkpt lat="41.573065" lon="-8.097136">
        <ele>478.566</ele>
        <time>2021-08-03T14:24:44Z</time>
      </trkpt>
      <trkpt lat="41.572316" lon="-8.095737">
        <ele>494.811</ele>
        <time>2021-08-03T14:25:38Z</time>
      </trkpt>
      <trkpt lat="41.571787" lon="-8.095271">
        <ele>497.119</ele>
        <time>2021-08-03T14:26:32Z</time>
      </trkpt>
      <trkpt lat="41.571694" lon="-8.095023">
        <ele>495.570</ele>
        <time>2021-08-03T14:27:26Z</time>
      </trkpt>
      <trkpt lat="41.571761" lon="-8.094278">
        <ele>491.462</ele>
        <time>2021-08-03T14:28:20Z</time>
      </trkpt>
      <trkpt lat="41.572551" lon="-8.093375">
        <ele>495.132</ele>
        <time>2021-08-03T14:29:14Z</time>
      </trkpt>
      <trkpt lat="41.572485" lon="-8.092579">
        <ele>498.088</ele>
        <time>2021-08-03T14:30:09Z</time>
      </trkpt>
      <trkpt lat="41.572014" lon="-8.091426">
        <ele>506.124</ele>
        <time>2021-08-03T14:31:03Z</time>
      </trkpt>
      <trkpt lat="41.571086" lon="-8.090416">
        <ele>518.526</ele>
        <time>2021-08-03T14:31:57Z</time>
      </trkpt>
      <trkpt lat="41.570734" lon="-8.089549">
        <ele>519.008</ele>
        <time>2021-08-03T14:32:51Z</time>
      </trkpt>
      <trkpt lat="41.570980" lon="-8.088562">
        <ele>515.465</ele>
        <time>2021-08-03T14:33:45Z</time>
      </trkpt>
      <trkpt lat="41.570859" lon="-8.087793">
        <ele>519.257</ele>
        <time>2021-08-03T14:34:39Z</time>
      </trkpt>
      <trkpt lat="41.571091" lon="-8.087114">
        <ele>517.066</ele>
        <time>2021-08-03T14:35:34Z</time>
      </trkpt>
      <trkpt lat="41.570974" lon="-8.086449">
        <ele>527.411</ele>
        <time>2021-08-03T14:36:28Z</time>
      </trkpt>
      <trkpt lat="41.571144" lon="-8.085342">
        <ele>531.829</ele>
        <time>2021-08-03T14:37:22Z</time>
      </trkpt>
      <trkpt lat="41.571865" lon="-8.084800">
        <ele>520.520</ele>
        <time>2021-08-03T14:38:16Z</time>
      </trkpt>
      <trkpt lat="41.572173" lon="-8.083803">
        <ele>525.892</ele>
        <time>2021-08-03T14:39:11Z</time>
      </trkpt>
      <trkpt lat="41.572120" lon="-8.082836">
        <ele>530.532</ele>
        <time>2021-08-03T14:40:05Z</time>
      </trkpt>
      <trkpt lat="41.571467" lon="-8.081435">
        <ele>546.385</ele>
        <time>2021-08-03T14:40:59Z</time>
      </trkpt>
      <trkpt lat="41.571653" lon="-8.079969">
        <ele>540.989</ele>
        <time>2021-08-03T14:41:53Z</time>
      </trkpt>
      <trkpt lat="41.571405" lon="-8.079612">
        <ele>543.717</ele>
        <time>2021-08-03T14:42:48Z</time>
      </trkpt>
      <trkpt lat="41.570635" lon="-8.078991">
        <ele>551.308</ele>
        <time>2021-08-03T14:43:42Z</time>
      </trkpt>
      <trkpt lat="41.570543" lon="-8.078751">
        <ele>552.575</ele>
        <time>2021-08-03T14:44:36Z</time>
      </trkpt>
      <trkpt lat="41.570605" lon="-8.078498">
        <ele>550.067</ele>
        <time>2021-08-03T14:45:31Z</time>
      </trkpt>
      <trkpt lat="41.570954" lon="-8.078128">
        <ele>544.096</ele>
        <time>2021-08-03T14:46:25Z</time>
      </trkpt>
      <trkpt lat="41.571071" lon="-8.077059">
        <ele>548.691</ele>
        <time>2021-08-03T14:47:19Z</time>
      </trkpt>
      <trkpt lat="41.571458" lon="-8.076134">
        <ele>547.319</ele>
        <time>2021-08-03T14:48:14Z</time>
      </trkpt>
      <trkpt lat="41.571376" lon="-8.074864">
        <ele>555.070</ele>
        <time>2021-08-03T14:49:08Z</time>
      </trkpt>
      <trkpt lat="41.571176" lon="-8.074701">
        <ele>557.932</ele>
        <time>2021-08-03T14:50:03Z</time>
      </trkpt>
      <trkpt lat="41.570744" lon="-8.074656">
        <ele>567.252</ele>
        <time>2021-08-03T14:50:57Z</time>
      </trkpt>
      <trkpt lat="41.570592" lon="-8.074356">
        <ele>567.658</ele>
        <time>2021-08-03T14:51:52Z</time>
      </trkpt>
      <trkpt lat="41.570773" lon="-8.073589">
        <ele>563.752</ele>
        <time>2021-08-03T14:52:46Z</time>
      </trkpt>
      <trkpt lat="41.570715" lon="-8.072789">
        <ele>562.117</ele>
        <time>2021-08-03T14:53:40Z</time>
      </trkpt>
      <trkpt lat="41.570930" lon="-8.072314">
        <ele>562.408</ele>
        <time>2021-08-03T14:54:35Z</time>
      </trkpt>
      <trkpt lat="41.570832" lon="-8.071370">
        <ele>567.492</ele>
        <time>2021-08-03T14:55:29Z</time>
      </trkpt>
      <trkpt lat="41.571595" lon="-8.069284">
        <ele>571.474</ele>
        <time>2021-08-03T14:56:24Z</time>
      </trkpt>
      <trkpt lat="41.572080" lon="-8.058280">
        <ele>565.383</ele>
        <time>2021-08-03T14:57:18Z</time>
      </trkpt>
      <trkpt lat="41.571674" lon="-8.055182">
        <ele>561.178</ele>
        <time>2021-08-03T14:58:13Z</time>
      </trkpt>
      <trkpt lat="41.571759" lon="-8.052918">
        <ele>559.646</ele>
        <time>2021-08-03T14:59:08Z</time>
      </trkpt>
      <trkpt lat="41.572092" lon="-8.050239">
        <ele>560.687</ele>
        <time>2021-08-03T15:00:03Z</time>
      </trkpt>
      <trkpt lat="41.571985" lon="-8.049640">
        <ele>559.119</ele>
        <time>2021-08-03T15:00:57Z</time>
      </trkpt>
      <trkpt lat="41.571142" lon="-8.047992">
        <ele>570.919</ele>
        <time>2021-08-03T15:01:52Z</time>
      </trkpt>
      <trkpt lat="41.570052" lon="-8.047376">
        <ele>577.131</ele>
        <time>2021-08-03T15:02:47Z</time>
      </trkpt>
      <trkpt lat="41.569753" lon="-8.047018">
        <ele>577.861</ele>
        <time>2021-08-03T15:03:42Z</time>
      </trkpt>
      <trkpt lat="41.569621" lon="-8.046645">
        <ele>577.307</ele>
        <time>2021-08-03T15:04:37Z</time>
      </trkpt>
      <trkpt lat="41.569626" lon="-8.044838">
        <ele>578.008</ele>
        <time>2021-08-03T15:05:32Z</time>
      </trkpt>
      <trkpt lat="41.568984" lon="-8.043965">
        <ele>579.110</ele>
        <time>2021-08-03T15:06:27Z</time>
      </trkpt>
      <trkpt lat="41.568488" lon="-8.042851">
        <ele>576.882</ele>
        <time>2021-08-03T15:07:21Z</time>
      </trkpt>
      <trkpt lat="41.567671" lon="-8.041977">
        <ele>571.881</ele>
        <time>2021-08-03T15:08:16Z</time>
      </trkpt>
      <trkpt lat="41.566716" lon="-8.040650">
        <ele>570.756</ele>
        <time>2021-08-03T15:09:11Z</time>
      </trkpt>
      <trkpt lat="41.564904" lon="-8.038851">
        <ele>568.644</ele>
        <time>2021-08-03T15:10:06Z</time>
      </trkpt>
      <trkpt lat="41.564589" lon="-8.038715">
        <ele>565.995</ele>
        <time>2021-08-03T15:11:01Z</time>
      </trkpt>
      <trkpt lat="41.563779" lon="-8.038937">
        <ele>558.017</ele>
        <time>2021-08-03T15:11:56Z</time>
      </trkpt>
      <trkpt lat="41.563420" lon="-8.038799">
        <ele>562.227</ele>
        <time>2021-08-03T15:12:51Z</time>
      </trkpt>
      <trkpt lat="41.561021" lon="-8.034821">
        <ele>566.577</ele>
        <time>2021-08-03T15:13:46Z</time>
      </trkpt>
      <trkpt lat="41.560637" lon="-8.034540">
        <ele>567.361</ele>
        <time>2021-08-03T15:14:42Z</time>
      </trkpt>
      <trkpt lat="41.558303" lon="-8.033665">
        <ele>555.427</ele>
        <time>2021-08-03T15:15:37Z</time>
      </trkpt>
      <trkpt lat="41.556928" lon="-8.033628">
        <ele>558.508</ele>
        <time>2021-08-03T15:16:32Z</time>
      </trkpt>
      <trkpt lat="41.555679" lon="-8.032910">
        <ele>552.114</ele>
        <time>2021-08-03T15:17:27Z</time>
      </trkpt>
      <trkpt lat="41.554365" lon="-8.033059">
        <ele>555.476</ele>
        <time>2021-08-03T15:18:22Z</time>
      </trkpt>
      <trkpt lat="41.553189" lon="-8.031753">
        <ele>550.495</ele>
        <time>2021-08-03T15:19:18Z</time>
      </trkpt>
      <trkpt lat="41.552120" lon="-8.030816">
        <ele>537.250</ele>
        <time>2021-08-03T15:20:13Z</time>
      </trkpt>
      <trkpt lat="41.551241" lon="-8.030263">
        <ele>530.328</ele>
        <time>2021-08-03T15:21:08Z</time>
      </trkpt>
      <trkpt lat="41.550818" lon="-8.030095">
        <ele>527.249</ele>
        <time>2021-08-03T15:22:04Z</time>
      </trkpt>
      <trkpt lat="41.549941" lon="-8.030323">
        <ele>527.781</ele>
        <time>2021-08-03T15:22:59Z</time>
      </trkpt>
      <trkpt lat="41.549517" lon="-8.030212">
        <ele>531.711</ele>
        <time>2021-08-03T15:23:54Z</time>
      </trkpt>
      <trkpt lat="41.548575" lon="-8.028869">
        <ele>514.086</ele>
        <time>2021-08-03T15:24:50Z</time>
      </trkpt>
      <trkpt lat="41.546626" lon="-8.027127">
        <ele>501.660</ele>
        <time>2021-08-03T15:25:45Z</time>
      </trkpt>
      <trkpt lat="41.546343" lon="-8.025368">
        <ele>494.126</ele>
        <time>2021-08-03T15:26:40Z</time>
      </trkpt>
      <trkpt lat="41.545893" lon="-8.024406">
        <ele>488.308</ele>
        <time>2021-08-03T15:27:36Z</time>
      </trkpt>
      <trkpt lat="41.545206" lon="-8.023736">
        <ele>493.825</ele>
        <time>2021-08-03T15:28:31Z</time>
      </trkpt>
      <trkpt lat="41.543647" lon="-8.022773">
        <ele>480.147</ele>
        <time>2021-08-03T15:29:27Z</time>
      </trkpt>
      <trkpt lat="41.542932" lon="-8.021992">
        <ele>472.256</ele>
        <time>2021-08-03T15:30:22Z</time>
      </trkpt>
      <trkpt lat="41.542836" lon="-8.021530">
        <ele>468.171</ele>
        <time>2021-08-03T15:31:18Z</time>
      </trkpt>
      <trkpt lat="41.542915" lon="-8.020525">
        <ele>460.779</ele>
        <time>2021-08-03T15:32:13Z</time>
      </trkpt>
      <trkpt lat="41.542270" lon="-8.019187">
        <ele>455.050</ele>
        <time>2021-08-03T15:33:09Z</time>
      </trkpt>
      <trkpt lat="41.541276" lon="-8.017861">
        <ele>450.232</ele>
        <time>2021-08-03T15:34:05Z</time>
      </trkpt>
      <trkpt lat="41.540850" lon="-8.017441">
        <ele>447.552</ele>
        <time>2021-08-03T15:35:00Z</time>
      </trkpt>
      <trkpt lat="41.540109" lon="-8.017034">
        <ele>447.925</ele>
        <time>2021-08-03T15:35:56Z</time>
      </trkpt>
      <trkpt lat="41.539270" lon="-8.015746">
        <ele>443.426</ele>
        <time>2021-08-03T15:36:51Z</time>
      </trkpt>
      <trkpt lat="41.538482" lon="-8.015406">
        <ele>437.308</ele>
        <time>2021-08-03T15:37:47Z</time>
      </trkpt>
      <trkpt lat="41.537683" lon="-8.015930">
        <ele>429.708</ele>
        <time>2021-08-03T15:38:43Z</time>
      </trkpt>
      <trkpt lat="41.536687" lon="-8.015898">
        <ele>428.479</ele>
        <time>2021-08-03T15:39:38Z</time>
      </trkpt>
      <trkpt lat="41.536465" lon="-8.015658">
        <ele>431.391</ele>
        <time>2021-08-03T15:40:34Z</time>
      </trkpt>
      <trkpt lat="41.536100" lon="-8.014259">
        <ele>426.770</ele>
        <time>2021-08-03T15:41:30Z</time>
      </trkpt>
      <trkpt lat="41.535821" lon="-8.014020">
        <ele>423.265</ele>
        <time>2021-08-03T15:42:26Z</time>
      </trkpt>
      <trkpt lat="41.535009" lon="-8.013804">
        <ele>413.293</ele>
        <time>2021-08-03T15:43:21Z</time>
      </trkpt>
      <trkpt lat="41.534357" lon="-8.012769">
        <ele>407.074</ele>
        <time>2021-08-03T15:44:17Z</time>
      </trkpt>
      <trkpt lat="41.533959" lon="-8.012764">
        <ele>408.686</ele>
        <time>2021-08-03T15:45:13Z</time>
      </trkpt>
      <trkpt lat="41.533300" lon="-8.013512">
        <ele>402.686</ele>
        <time>2021-08-03T15:46:09Z</time>
      </trkpt>
      <trkpt lat="41.532743" lon="-8.013816">
        <ele>400.541</ele>
        <time>2021-08-03T15:47:04Z</time>
      </trkpt>
      <trkpt lat="41.532419" lon="-8.013795">
        <ele>399.881</ele>
        <time>2021-08-03T15:48:00Z</time>
      </trkpt>
      <trkpt lat="41.532092" lon="-8.013375">
        <ele>400.909</ele>
        <time>2021-08-03T15:48:56Z</time>
      </trkpt>
      <trkpt lat="41.532000" lon="-8.012294">
        <ele>395.708</ele>
        <time>2021-08-03T15:49:52Z</time>
      </trkpt>
      <trkpt lat="41.531327" lon="-8.011501">
        <ele>388.821</ele>
        <time>2021-08-03T15:50:48Z</time>
      </trkpt>
      <trkpt lat="41.531337" lon="-8.011031">
        <ele>387.043</ele>
        <time>2021-08-03T15:51:43Z</time>
      </trkpt>
      <trkpt lat="41.531591" lon="-8.010329">
        <ele>388.342</ele>
        <time>2021-08-03T15:52:39Z</time>
      </trkpt>
      <trkpt lat="41.531446" lon="-8.009953">
        <ele>386.557</ele>
        <time>2021-08-03T15:53:35Z</time>
      </trkpt>
      <trkpt lat="41.531044" lon="-8.009840">
        <ele>381.695</ele>
        <time>2021-08-03T15:54:31Z</time>
      </trkpt>
      <trkpt lat="41.530498" lon="-8.010462">
        <ele>374.436</ele>
        <time>2021-08-03T15:55:27Z</time>
      </trkpt>
      <trkpt lat="41.529416" lon="-8.011174">
        <ele>368.558</ele>
        <time>2021-08-03T15:56:23Z</time>
      </trkpt>
      <trkpt lat="41.529107" lon="-8.011227">
        <ele>369.118</ele>
        <time>2021-08-03T15:57:19Z</time>
      </trkpt>
      <trkpt lat="41.528491" lon="-8.010585">
        <ele>368.321</ele>
        <time>2021-08-03T15:58:15Z</time>
      </trkpt>
      <trkpt lat="41.527771" lon="-8.010247">
        <ele>362.141</ele>
        <time>2021-08-03T15:59:11Z</time>
      </trkpt>
      <trkpt lat="41.526786" lon="-8.009114">
        <ele>360.405</ele>
        <time>2021-08-03T16:00:07Z</time>
      </trkpt>
      <trkpt lat="41.526006" lon="-8.007795">
        <ele>352.408</ele>
        <time>2021-08-03T16:01:03Z</time>
      </trkpt>
      <trkpt lat="41.525187" lon="-8.007587">
        <ele>347.029</ele>
        <time>2021-08-03T16:01:59Z</time>
      </trkpt>
      <trkpt lat="41.524825" lon="-8.007351">
        <ele>345.661</ele>
        <time>2021-08-03T16:02:55Z</time>
      </trkpt>
      <trkpt lat="41.524594" lon="-8.006949">
        <ele>342.250</ele>
        <time>2021-08-03T16:03:51Z</time>
      </trkpt>
      <trkpt lat="41.524361" lon="-8.005939">
        <ele>340.825</ele>
        <time>2021-08-03T16:04:47Z</time>
      </trkpt>
      <trkpt lat="41.523760" lon="-8.004866">
        <ele>335.643</ele>
        <time>2021-08-03T16:05:43Z</time>
      </trkpt>
      <trkpt lat="41.523763" lon="-8.004320">
        <ele>338.234</ele>
        <time>2021-08-03T16:06:39Z</time>
      </trkpt>
      <trkpt lat="41.523960" lon="-8.003989">
        <ele>337.216</ele>
        <time>2021-08-03T16:07:35Z</time>
      </trkpt>
      <trkpt lat="41.524244" lon="-8.003859">
        <ele>335.476</ele>
        <time>2021-08-03T16:08:31Z</time>
      </trkpt>
      <trkpt lat="41.525284" lon="-8.004286">
        <ele>341.453</ele>
        <time>2021-08-03T16:09:27Z</time>
      </trkpt>
      <trkpt lat="41.525734" lon="-8.004131">
        <ele>334.904</ele>
        <time>2021-08-03T16:10:23Z</time>
      </trkpt>
      <trkpt lat="41.526301" lon="-8.002669">
        <ele>320.914</ele>
        <time>2021-08-03T16:11:19Z</time>
      </trkpt>
      <trkpt lat="41.526403" lon="-8.001342">
        <ele>313.908</ele>
        <time>2021-08-03T16:12:15Z</time>
      </trkpt>
      <trkpt lat="41.526267" lon="-8.000951">
        <ele>309.982</ele>
        <time>2021-08-03T16:13:12Z</time>
      </trkpt>
      <trkpt lat="41.525568" lon="-8.000169">
        <ele>304.174</ele>
        <time>2021-08-03T16:14:08Z</time>
      </trkpt>
      <trkpt lat="41.525832" lon="-7.999112">
        <ele>318.993</ele>
        <time>2021-08-03T16:15:04Z</time>
      </trkpt>
      <trkpt lat="41.525790" lon="-7.998811">
        <ele>321.288</ele>
        <time>2021-08-03T16:16:00Z</time>
      </trkpt>
      <trkpt lat="41.525412" lon="-7.998028">
        <ele>319.736</ele>
        <time>2021-08-03T16:16:56Z</time>
      </trkpt>
      <trkpt lat="41.524601" lon="-7.997197">
        <ele>322.887</ele>
        <time>2021-08-03T16:17:53Z</time>
      </trkpt>
      <trkpt lat="41.524147" lon="-7.996199">
        <ele>327.419</ele>
        <time>2021-08-03T16:18:49Z</time>
      </trkpt>
      <trkpt lat="41.524280" lon="-7.994354">
        <ele>330.579</ele>
        <time>2021-08-03T16:19:45Z</time>
      </trkpt>
      <trkpt lat="41.524057" lon="-7.993144">
        <ele>330.369</ele>
        <time>2021-08-03T16:20:41Z</time>
      </trkpt>
      <trkpt lat="41.523866" lon="-7.992755">
        <ele>329.304</ele>
        <time>2021-08-03T16:21:38Z</time>
      </trkpt>
      <trkpt lat="41.523179" lon="-7.992444">
        <ele>333.124</ele>
        <time>2021-08-03T16:22:34Z</time>
      </trkpt>
      <trkpt lat="41.522498" lon="-7.991934">
        <ele>329.608</ele>
        <time>2021-08-03T16:23:30Z</time>
      </trkpt>
      <trkpt lat="41.521251" lon="-7.992350">
        <ele>320.883</ele>
        <time>2021-08-03T16:24:27Z</time>
      </trkpt>
      <trkpt lat="41.520400" lon="-7.992854">
        <ele>319.135</ele>
        <time>2021-08-03T16:25:23Z</time>
      </trkpt>
      <trkpt lat="41.519194" lon="-7.992868">
        <ele>312.694</ele>
        <time>2021-08-03T16:26:19Z</time>
      </trkpt>
      <trkpt lat="41.517953" lon="-7.991982">
        <ele>306.079</ele>
        <time>2021-08-03T16:27:16Z</time>
      </trkpt>
      <trkpt lat="41.515821" lon="-7.991351">
        <ele>304.647</ele>
        <time>2021-08-03T16:28:12Z</time>
      </trkpt>
      <trkpt lat="41.515376" lon="-7.991619">
        <ele>305.528</ele>
        <time>2021-08-03T16:29:09Z</time>
      </trkpt>
      <trkpt lat="41.515215" lon="-7.991567">
        <ele>304.590</ele>
        <time>2021-08-03T16:30:05Z</time>
      </trkpt>
      <trkpt lat="41.511725" lon="-7.992568">
        <ele>304.940</ele>
        <time>2021-08-03T16:31:02Z</time>
      </trkpt>
      <trkpt lat="41.511502" lon="-7.992838">
        <ele>312.285</ele>
        <time>2021-08-03T16:31:58Z</time>
      </trkpt>
      <trkpt lat="41.511176" lon="-7.992933">
        <ele>316.689</ele>
        <time>2021-08-03T16:32:55Z</time>
      </trkpt>
      <trkpt lat="41.510718" lon="-7.994583">
        <ele>316.617</ele>
        <time>2021-08-03T16:33:51Z</time>
      </trkpt>
      <trkpt lat="41.510764" lon="-7.994980">
        <ele>314.108</ele>
        <time>2021-08-03T16:34:48Z</time>
      </trkpt>
      <trkpt lat="41.511080" lon="-7.995448">
        <ele>317.715</ele>
        <time>2021-08-03T16:35:45Z</time>
      </trkpt>
      <trkpt lat="41.511028" lon="-7.995631">
        <ele>316.247</ele>
        <time>2021-08-03T16:36:41Z</time>
      </trkpt>
      <trkpt lat="41.510866" lon="-7.995569">
        <ele>312.786</ele>
        <time>2021-08-03T16:37:38Z</time>
      </trkpt>
      <trkpt lat="41.510912" lon="-7.995291">
        <ele>313.811</ele>
        <time>2021-08-03T16:38:34Z</time>
      </trkpt>
      <trkpt lat="41.510709" lon="-7.994688">
        <ele>315.949</ele>
        <time>2021-08-03T16:39:31Z</time>
      </trkpt>
      <trkpt lat="41.510978" lon="-7.993133">
        <ele>317.240</ele>
        <time>2021-08-03T16:40:28Z</time>
      </trkpt>
      <trkpt lat="41.510733" lon="-7.994892">
        <ele>314.622</ele>
        <time>2021-08-03T16:41:24Z</time>
      </trkpt>
      <trkpt lat="41.511080" lon="-7.995448">
        <ele>317.792</ele>
        <time>2021-08-03T16:42:21Z</time>
      </trkpt>
      <trkpt lat="41.511664" lon="-7.995860">
        <ele>324.999</ele>
        <time>2021-08-03T16:43:18Z</time>
      </trkpt>
      <trkpt lat="41.512176" lon="-7.996653">
        <ele>327.307</ele>
        <time>2021-08-03T16:44:14Z</time>
      </trkpt>
      <trkpt lat="41.512371" lon="-7.997379">
        <ele>329.127</ele>
        <time>2021-08-03T16:45:11Z</time>
      </trkpt>
      <trkpt lat="41.512342" lon="-7.997814">
        <ele>335.708</ele>
        <time>2021-08-03T16:46:08Z</time>
      </trkpt>
      <trkpt lat="41.511395" lon="-8.001127">
        <ele>348.786</ele>
        <time>2021-08-03T16:47:04Z</time>
      </trkpt>
      <trkpt lat="41.510992" lon="-8.001571">
        <ele>347.468</ele>
        <time>2021-08-03T16:48:01Z</time>
      </trkpt>
      <trkpt lat="41.510164" lon="-8.002032">
        <ele>348.047</ele>
        <time>2021-08-03T16:48:58Z</time>
      </trkpt>
      <trkpt lat="41.509878" lon="-8.002466">
        <ele>353.082</ele>
        <time>2021-08-03T16:49:55Z</time>
      </trkpt>
      <trkpt lat="41.509754" lon="-8.004295">
        <ele>370.090</ele>
        <time>2021-08-03T16:50:52Z</time>
      </trkpt>
      <trkpt lat="41.509016" lon="-8.005615">
        <ele>372.451</ele>
        <time>2021-08-03T16:51:48Z</time>
      </trkpt>
      <trkpt lat="41.508312" lon="-8.008007">
        <ele>383.043</ele>
        <time>2021-08-03T16:52:45Z</time>
      </trkpt>
      <trkpt lat="41.507191" lon="-8.009204">
        <ele>386.833</ele>
        <time>2021-08-03T16:53:42Z</time>
      </trkpt>
      <trkpt lat="41.506583" lon="-8.010153">
        <ele>395.514</ele>
        <time>2021-08-03T16:54:39Z</time>
      </trkpt>
      <trkpt lat="41.505298" lon="-8.010740">
        <ele>399.954</ele>
        <time>2021-08-03T16:55:36Z</time>
      </trkpt>
      <trkpt lat="41.502576" lon="-8.012529">
        <ele>414.409</ele>
        <time>2021-08-03T16:56:33Z</time>
      </trkpt>
      <trkpt lat="41.501068" lon="-8.014338">
        <ele>420.908</ele>
        <time>2021-08-03T16:57:30Z</time>
      </trkpt>
      <trkpt lat="41.500901" lon="-8.014790">
        <ele>426.088</ele>
        <time>2021-08-03T16:58:27Z</time>
      </trkpt>
      <trkpt lat="41.500933" lon="-8.015535">
        <ele>436.620</ele>
        <time>2021-08-03T16:59:24Z</time>
      </trkpt>
      <trkpt lat="41.501293" lon="-8.016684">
        <ele>448.829</ele>
        <time>2021-08-03T17:00:21Z</time>
      </trkpt>
      <trkpt lat="41.500870" lon="-8.017981">
        <ele>453.744</ele>
        <time>2021-08-03T17:01:19Z</time>
      </trkpt>
      <trkpt lat="41.500914" lon="-8.018716">
        <ele>468.152</ele>
        <time>2021-08-03T17:02:16Z</time>
      </trkpt>
      <trkpt lat="41.501361" lon="-8.019201">
        <ele>480.853</ele>
        <time>2021-08-03T17:03:13Z</time>
      </trkpt>
      <trkpt lat="41.502623" lon="-8.019772">
        <ele>482.335</ele>
        <time>2021-08-03T17:04:10Z</time>
      </trkpt>
      <trkpt lat="41.502927" lon="-8.020278">
        <ele>482.355</ele>
        <time>2021-08-03T17:05:07Z</time>
      </trkpt>
      <trkpt lat="41.502974" lon="-8.020679">
        <ele>484.069</ele>
        <time>2021-08-03T17:06:04Z</time>
      </trkpt>
      <trkpt lat="41.502748" lon="-8.021420">
        <ele>487.104</ele>
        <time>2021-08-03T17:07:01Z</time>
      </trkpt>
      <trkpt lat="41.500160" lon="-8.024656">
        <ele>509.424</ele>
        <time>2021-08-03T17:07:59Z</time>
      </trkpt>
      <trkpt lat="41.500040" lon="-8.026147">
        <ele>515.908</ele>
        <time>2021-08-03T17:08:56Z</time>
      </trkpt>
      <trkpt lat="41.499368" lon="-8.027539">
        <ele>522.273</ele>
        <time>2021-08-03T17:09:53Z</time>
      </trkpt>
      <trkpt lat="41.499222" lon="-8.029694">
        <ele>524.125</ele>
        <time>2021-08-03T17:10:51Z</time>
      </trkpt>
      <trkpt lat="41.499341" lon="-8.030166">
        <ele>528.414</ele>
        <time>2021-08-03T17:11:48Z</time>
      </trkpt>
      <trkpt lat="41.500702" lon="-8.032191">
        <ele>549.299</ele>
        <time>2021-08-03T17:12:45Z</time>
      </trkpt>
      <trkpt lat="41.500787" lon="-8.032933">
        <ele>553.037</ele>
        <time>2021-08-03T17:13:43Z</time>
      </trkpt>
      <trkpt lat="41.500664" lon="-8.034328">
        <ele>566.448</ele>
        <time>2021-08-03T17:14:40Z</time>
      </trkpt>
      <trkpt lat="41.501023" lon="-8.034956">
        <ele>576.020</ele>
        <time>2021-08-03T17:15:38Z</time>
      </trkpt>
      <trkpt lat="41.501566" lon="-8.035071">
        <ele>576.970</ele>
        <time>2021-08-03T17:16:35Z</time>
      </trkpt>
      <trkpt lat="41.503645" lon="-8.034686">
        <ele>585.373</ele>
        <time>2021-08-03T17:17:32Z</time>
      </trkpt>
      <trkpt lat="41.504132" lon="-8.035163">
        <ele>592.885</ele>
        <time>2021-08-03T17:18:30Z</time>
      </trkpt>
      <trkpt lat="41.504466" lon="-8.035950">
        <ele>596.313</ele>
        <time>2021-08-03T17:19:27Z</time>
      </trkpt>
      <trkpt lat="41.504861" lon="-8.036195">
        <ele>602.108</ele>
        <time>2021-08-03T17:20:25Z</time>
      </trkpt>
      <trkpt lat="41.505339" lon="-8.036214">
        <ele>608.044</ele>
        <time>2021-08-03T17:21:22Z</time>
      </trkpt>
      <trkpt lat="41.506145" lon="-8.036508">
        <ele>609.446</ele>
        <time>2021-08-03T17:22:20Z</time>
      </trkpt>
      <trkpt lat="41.507590" lon="-8.036234">
        <ele>614.895</ele>
        <time>2021-08-03T17:23:17Z</time>
      </trkpt>
      <trkpt lat="41.508084" lon="-8.035898">
        <ele>618.720</ele>
        <time>2021-08-03T17:24:15Z</time>
      </trkpt>
      <trkpt lat="41.508392" lon="-8.035845">
        <ele>621.378</ele>
        <time>2021-08-03T17:25:13Z</time>
      </trkpt>
      <trkpt lat="41.510005" lon="-8.036670">
        <ele>619.139</ele>
        <time>2021-08-03T17:26:10Z</time>
      </trkpt>
      <trkpt lat="41.510558" lon="-8.037219">
        <ele>621.791</ele>
        <time>2021-08-03T17:27:08Z</time>
      </trkpt>
      <trkpt lat="41.510946" lon="-8.038181">
        <ele>622.121</ele>
        <time>2021-08-03T17:28:05Z</time>
      </trkpt>
      <trkpt lat="41.511062" lon="-8.038917">
        <ele>629.053</ele>
        <time>2021-08-03T17:29:03Z</time>
      </trkpt>
      <trkpt lat="41.511649" lon="-8.054797">
        <ele>641.404</ele>
        <time>2021-08-03T17:30:01Z</time>
      </trkpt>
      <trkpt lat="41.513198" lon="-8.058077">
        <ele>628.114</ele>
        <time>2021-08-03T17:30:59Z</time>
      </trkpt>
      <trkpt lat="41.513308" lon="-8.058694">
        <ele>623.308</ele>
        <time>2021-08-03T17:31:57Z</time>
      </trkpt>
      <trkpt lat="41.513262" lon="-8.060167">
        <ele>612.032</ele>
        <time>2021-08-03T17:32:55Z</time>
      </trkpt>
      <trkpt lat="41.513412" lon="-8.060553">
        <ele>607.914</ele>
        <time>2021-08-03T17:33:53Z</time>
      </trkpt>
      <trkpt lat="41.514451" lon="-8.061169">
        <ele>600.573</ele>
        <time>2021-08-03T17:34:51Z</time>
      </trkpt>
      <trkpt lat="41.515340" lon="-8.062249">
        <ele>583.578</ele>
        <time>2021-08-03T17:35:49Z</time>
      </trkpt>
      <trkpt lat="41.515716" lon="-8.062318">
        <ele>582.896</ele>
        <time>2021-08-03T17:36:47Z</time>
      </trkpt>
      <trkpt lat="41.516616" lon="-8.061956">
        <ele>584.167</ele>
        <time>2021-08-03T17:37:45Z</time>
      </trkpt>
      <trkpt lat="41.516916" lon="-8.062126">
        <ele>587.939</ele>
        <time>2021-08-03T17:38:43Z</time>
      </trkpt>
      <trkpt lat="41.517090" lon="-8.062419">
        <ele>586.029</ele>
        <time>2021-08-03T17:39:41Z</time>
      </trkpt>
      <trkpt lat="41.517153" lon="-8.064284">
        <ele>571.113</ele>
        <time>2021-08-03T17:40:39Z</time>
      </trkpt>
      <trkpt lat="41.516385" lon="-8.065981">
        <ele>559.343</ele>
        <time>2021-08-03T17:41:37Z</time>
      </trkpt>
      <trkpt lat="41.516420" lon="-8.066551">
        <ele>554.207</ele>
        <time>2021-08-03T17:42:35Z</time>
      </trkpt>
      <trkpt lat="41.516657" lon="-8.066868">
        <ele>551.108</ele>
        <time>2021-08-03T17:43:33Z</time>
      </trkpt>
      <trkpt lat="41.517950" lon="-8.067901">
        <ele>535.148</ele>
        <time>2021-08-03T17:44:31Z</time>
      </trkpt>
      <trkpt lat="41.518879" lon="-8.068171">
        <ele>535.310</ele>
        <time>2021-08-03T17:45:29Z</time>
      </trkpt>
      <trkpt lat="41.519093" lon="-8.068657">
        <ele>534.839</ele>
        <time>2021-08-03T17:46:28Z</time>
      </trkpt>
      <trkpt lat="41.519012" lon="-8.069058">
        <ele>542.914</ele>
        <time>2021-08-03T17:47:26Z</time>
      </trkpt>
      <trkpt lat="41.518521" lon="-8.069266">
        <ele>549.742</ele>
        <time>2021-08-03T17:48:24Z</time>
      </trkpt>
      <trkpt lat="41.517655" lon="-8.069250">
        <ele>542.143</ele>
        <time>2021-08-03T17:49:22Z</time>
      </trkpt>
      <trkpt lat="41.515080" lon="-8.068626">
        <ele>535.385</ele>
        <time>2021-08-03T17:50:20Z</time>
      </trkpt>
      <trkpt lat="41.513007" lon="-8.069872">
        <ele>521.955</ele>
        <time>2021-08-03T17:51:19Z</time>
      </trkpt>
      <trkpt lat="41.512771" lon="-8.070345">
        <ele>517.536</ele>
        <time>2021-08-03T17:52:17Z</time>
      </trkpt>
      <trkpt lat="41.512738" lon="-8.071088">
        <ele>514.617</ele>
        <time>2021-08-03T17:53:15Z</time>
      </trkpt>
      <trkpt lat="41.513344" lon="-8.072762">
        <ele>504.618</ele>
        <time>2021-08-03T17:54:14Z</time>
      </trkpt>
      <trkpt lat="41.515105" lon="-8.074203">
        <ele>500.908</ele>
        <time>2021-08-03T17:55:12Z</time>
      </trkpt>
      <trkpt lat="41.515187" lon="-8.074475">
        <ele>499.590</ele>
        <time>2021-08-03T17:56:10Z</time>
      </trkpt>
      <trkpt lat="41.515095" lon="-8.075016">
        <ele>496.852</ele>
        <time>2021-08-03T17:57:09Z</time>
      </trkpt>
      <trkpt lat="41.514664" lon="-8.075303">
        <ele>506.321</ele>
        <time>2021-08-03T17:58:07Z</time>
      </trkpt>
      <trkpt lat="41.513000" lon="-8.075350">
        <ele>517.726</ele>
        <time>2021-08-03T17:59:06Z</time>
      </trkpt>
      <trkpt lat="41.511780" lon="-8.074640">
        <ele>527.394</ele>
        <time>2021-08-03T18:00:04Z</time>
      </trkpt>
      <trkpt lat="41.511492" lon="-8.074667">
        <ele>531.255</ele>
        <time>2021-08-03T18:01:02Z</time>
      </trkpt>
      <trkpt lat="41.510235" lon="-8.075418">
        <ele>543.427</ele>
        <time>2021-08-03T18:02:01Z</time>
      </trkpt>
      <trkpt lat="41.509761" lon="-8.075104">
        <ele>546.747</ele>
        <time>2021-08-03T18:02:59Z</time>
      </trkpt>
      <trkpt lat="41.509374" lon="-8.074168">
        <ele>548.139</ele>
        <time>2021-08-03T18:03:58Z</time>
      </trkpt>
      <trkpt lat="41.508969" lon="-8.073697">
        <ele>549.401</ele>
        <time>2021-08-03T18:04:56Z</time>
      </trkpt>
      <trkpt lat="41.507535" lon="-8.073113">
        <ele>546.921</ele>
        <time>2021-08-03T18:05:55Z</time>
      </trkpt>
      <trkpt lat="41.505921" lon="-8.073116">
        <ele>560.408</ele>
        <time>2021-08-03T18:06:54Z</time>
      </trkpt>
      <trkpt lat="41.503782" lon="-8.072385">
        <ele>571.230</ele>
        <time>2021-08-03T18:07:52Z</time>
      </trkpt>
      <trkpt lat="41.503348" lon="-8.072736">
        <ele>574.622</ele>
        <time>2021-08-03T18:08:51Z</time>
      </trkpt>
      <trkpt lat="41.502551" lon="-8.074225">
        <ele>577.681</ele>
        <time>2021-08-03T18:09:49Z</time>
      </trkpt>
      <trkpt lat="41.502471" lon="-8.076219">
        <ele>593.696</ele>
        <time>2021-08-03T18:10:48Z</time>
      </trkpt>
      <trkpt lat="41.502219" lon="-8.076546">
        <ele>598.954</ele>
        <time>2021-08-03T18:11:47Z</time>
      </trkpt>
      <trkpt lat="41.502000" lon="-8.076565">
        <ele>602.815</ele>
        <time>2021-08-03T18:12:46Z</time>
      </trkpt>
      <trkpt lat="41.499500" lon="-8.075558">
        <ele>612.077</ele>
        <time>2021-08-03T18:13:44Z</time>
      </trkpt>
      <trkpt lat="41.497958" lon="-8.076319">
        <ele>618.527</ele>
        <time>2021-08-03T18:14:43Z</time>
      </trkpt>
      <trkpt lat="41.496034" lon="-8.080161">
        <ele>609.314</ele>
        <time>2021-08-03T18:15:42Z</time>
      </trkpt>
      <trkpt lat="41.496161" lon="-8.080849">
        <ele>610.754</ele>
        <time>2021-08-03T18:16:41Z</time>
      </trkpt>
      <trkpt lat="41.497207" lon="-8.082387">
        <ele>608.309</ele>
        <time>2021-08-03T18:17:40Z</time>
      </trkpt>
      <trkpt lat="41.497300" lon="-8.082693">
        <ele>613.408</ele>
        <time>2021-08-03T18:18:39Z</time>
      </trkpt>
      <trkpt lat="41.497143" lon="-8.083259">
        <ele>610.738</ele>
        <time>2021-08-03T18:19:37Z</time>
      </trkpt>
      <trkpt lat="41.496033" lon="-8.084726">
        <ele>607.870</ele>
        <time>2021-08-03T18:20:36Z</time>
      </trkpt>
      <trkpt lat="41.495877" lon="-8.085421">
        <ele>605.499</ele>
        <time>2021-08-03T18:21:35Z</time>
      </trkpt>
      <trkpt lat="41.496118" lon="-8.085947">
        <ele>604.774</ele>
        <time>2021-08-03T18:22:34Z</time>
      </trkpt>
      <trkpt lat="41.497417" lon="-8.087083">
        <ele>600.462</ele>
        <time>2021-08-03T18:23:33Z</time>
      </trkpt>
      <trkpt lat="41.497451" lon="-8.087588">
        <ele>607.193</ele>
        <time>2021-08-03T18:24:32Z</time>
      </trkpt>
      <trkpt lat="41.497147" lon="-8.087852">
        <ele>607.195</ele>
        <time>2021-08-03T18:25:31Z</time>
      </trkpt>
      <trkpt lat="41.495542" lon="-8.088251">
        <ele>597.855</ele>
        <time>2021-08-03T18:26:30Z</time>
      </trkpt>
      <trkpt lat="41.495152" lon="-8.088551">
        <ele>595.052</ele>
        <time>2021-08-03T18:27:29Z</time>
      </trkpt>
      <trkpt lat="41.494736" lon="-8.090748">
        <ele>591.353</ele>
        <time>2021-08-03T18:28:28Z</time>
      </trkpt>
      <trkpt lat="41.493598" lon="-8.092276">
        <ele>587.408</ele>
        <time>2021-08-03T18:29:27Z</time>
      </trkpt>
      <trkpt lat="41.493632" lon="-8.092755">
        <ele>585.108</ele>
        <time>2021-08-03T18:30:26Z</time>
      </trkpt>
      <trkpt lat="41.494052" lon="-8.093555">
        <ele>585.172</ele>
        <time>2021-08-03T18:31:26Z</time>
      </trkpt>
      <trkpt lat="41.493990" lon="-8.094075">
        <ele>587.914</ele>
        <time>2021-08-03T18:32:25Z</time>
      </trkpt>
      <trkpt lat="41.493558" lon="-8.095009">
        <ele>583.393</ele>
        <time>2021-08-03T18:33:24Z</time>
      </trkpt>
      <trkpt lat="41.492033" lon="-8.096539">
        <ele>570.538</ele>
        <time>2021-08-03T18:34:23Z</time>
      </trkpt>
      <trkpt lat="41.492053" lon="-8.097699">
        <ele>576.256</ele>
        <time>2021-08-03T18:35:22Z</time>
      </trkpt>
      <trkpt lat="41.490711" lon="-8.100186">
        <ele>571.067</ele>
        <time>2021-08-03T18:36:21Z</time>
      </trkpt>
      <trkpt lat="41.490205" lon="-8.100685">
        <ele>569.839</ele>
        <time>2021-08-03T18:37:21Z</time>
      </trkpt>
      <trkpt lat="41.487567" lon="-8.101782">
        <ele>561.649</ele>
        <time>2021-08-03T18:38:20Z</time>
      </trkpt>
      <trkpt lat="41.487296" lon="-8.102048">
        <ele>561.055</ele>
        <time>2021-08-03T18:39:19Z</time>
      </trkpt>
      <trkpt lat="41.486648" lon="-8.104318">
        <ele>560.407</ele>
        <time>2021-08-03T18:40:19Z</time>
      </trkpt>
      <trkpt lat="41.485862" lon="-8.105141">
        <ele>547.717</ele>
        <time>2021-08-03T18:41:18Z</time>
      </trkpt>
      <trkpt lat="41.485283" lon="-8.106798">
        <ele>542.408</ele>
        <time>2021-08-03T18:42:17Z</time>
      </trkpt>
      <trkpt lat="41.484218" lon="-8.108588">
        <ele>529.572</ele>
        <time>2021-08-03T18:43:17Z</time>
      </trkpt>
      <trkpt lat="41.482548" lon="-8.109748">
        <ele>517.764</ele>
        <time>2021-08-03T18:44:16Z</time>
      </trkpt>
      <trkpt lat="41.481459" lon="-8.111371">
        <ele>510.893</ele>
        <time>2021-08-03T18:45:16Z</time>
      </trkpt>
      <trkpt lat="41.481089" lon="-8.112225">
        <ele>505.978</ele>
        <time>2021-08-03T18:46:15Z</time>
      </trkpt>
      <trkpt lat="41.480345" lon="-8.112835">
        <ele>502.456</ele>
        <time>2021-08-03T18:47:15Z</time>
      </trkpt>
      <trkpt lat="41.480271" lon="-8.113265">
        <ele>500.877</ele>
        <time>2021-08-03T18:48:14Z</time>
      </trkpt>
      <trkpt lat="41.480402" lon="-8.114710">
        <ele>498.829</ele>
        <time>2021-08-03T18:49:14Z</time>
      </trkpt>
      <trkpt lat="41.479653" lon="-8.115749">
        <ele>497.989</ele>
        <time>2021-08-03T18:50:13Z</time>
      </trkpt>
      <trkpt lat="41.478969" lon="-8.117862">
        <ele>497.785</ele>
        <time>2021-08-03T18:51:13Z</time>
      </trkpt>
      <trkpt lat="41.478190" lon="-8.118339">
        <ele>494.489</ele>
        <time>2021-08-03T18:52:13Z</time>
      </trkpt>
      <trkpt lat="41.477507" lon="-8.119256">
        <ele>490.717</ele>
        <time>2021-08-03T18:53:12Z</time>
      </trkpt>
      <trkpt lat="41.477184" lon="-8.119321">
        <ele>489.508</ele>
        <time>2021-08-03T18:54:12Z</time>
      </trkpt>
      <trkpt lat="41.474285" lon="-8.118712">
        <ele>473.585</ele>
        <time>2021-08-03T18:55:11Z</time>
      </trkpt>
      <trkpt lat="41.473959" lon="-8.118835">
        <ele>470.597</ele>
        <time>2021-08-03T18:56:11Z</time>
      </trkpt>
      <trkpt lat="41.473585" lon="-8.119712">
        <ele>474.946</ele>
        <time>2021-08-03T18:57:11Z</time>
      </trkpt>
      <trkpt lat="41.473167" lon="-8.120264">
        <ele>467.271</ele>
        <time>2021-08-03T18:58:11Z</time>
      </trkpt>
      <trkpt lat="41.472508" lon="-8.120513">
        <ele>459.619</ele>
        <time>2021-08-03T18:59:10Z</time>
      </trkpt>
      <trkpt lat="41.472243" lon="-8.120780">
        <ele>461.380</ele>
        <time>2021-08-03T19:00:10Z</time>
      </trkpt>
      <trkpt lat="41.471216" lon="-8.123326">
        <ele>449.762</ele>
        <time>2021-08-03T19:01:10Z</time>
      </trkpt>
      <trkpt lat="41.470944" lon="-8.124363">
        <ele>444.292</ele>
        <time>2021-08-03T19:02:10Z</time>
      </trkpt>
      <trkpt lat="41.469945" lon="-8.125598">
        <ele>444.961</ele>
        <time>2021-08-03T19:03:10Z</time>
      </trkpt>
      <trkpt lat="41.469639" lon="-8.125703">
        <ele>449.021</ele>
        <time>2021-08-03T19:04:09Z</time>
      </trkpt>
      <trkpt lat="41.468635" lon="-8.125566">
        <ele>445.713</ele>
        <time>2021-08-03T19:05:09Z</time>
      </trkpt>
      <trkpt lat="41.466641" lon="-8.126729">
        <ele>435.308</ele>
        <time>2021-08-03T19:06:09Z</time>
      </trkpt>
      <trkpt lat="41.466499" lon="-8.126915">
        <ele>434.213</ele>
        <time>2021-08-03T19:07:09Z</time>
      </trkpt>
      <trkpt lat="41.465899" lon="-8.130509">
        <ele>429.835</ele>
        <time>2021-08-03T19:08:09Z</time>
      </trkpt>
      <trkpt lat="41.464374" lon="-8.132075">
        <ele>428.434</ele>
        <time>2021-08-03T19:09:09Z</time>
      </trkpt>
      <trkpt lat="41.463685" lon="-8.133079">
        <ele>425.349</ele>
        <time>2021-08-03T19:10:09Z</time>
      </trkpt>
      <trkpt lat="41.462439" lon="-8.136076">
        <ele>417.397</ele>
        <time>2021-08-03T19:11:09Z</time>
      </trkpt>
      <trkpt lat="41.462160" lon="-8.138127">
        <ele>414.388</ele>
        <time>2021-08-03T19:12:09Z</time>
      </trkpt>
      <trkpt lat="41.462358" lon="-8.139600">
        <ele>418.140</ele>
        <time>2021-08-03T19:13:09Z</time>
      </trkpt>
      <trkpt lat="41.461740" lon="-8.141140">
        <ele>412.070</ele>
        <time>2021-08-03T19:14:09Z</time>
      </trkpt>
      <trkpt lat="41.461575" lon="-8.142872">
        <ele>409.611</ele>
        <time>2021-08-03T19:15:09Z</time>
      </trkpt>
      <trkpt lat="41.461004" lon="-8.144037">
        <ele>409.221</ele>
        <time>2021-08-03T19:16:10Z</time>
      </trkpt>
      <trkpt lat="41.460686" lon="-8.144270">
        <ele>406.103</ele>
        <time>2021-08-03T19:17:10Z</time>
      </trkpt>
      <trkpt lat="41.460327" lon="-8.144252">
        <ele>402.208</ele>
        <time>2021-08-03T19:18:10Z</time>
      </trkpt>
      <trkpt lat="41.458912" lon="-8.142957">
        <ele>399.038</ele>
        <time>2021-08-03T19:19:10Z</time>
      </trkpt>
      <trkpt lat="41.458199" lon="-8.142550">
        <ele>400.030</ele>
        <time>2021-08-03T19:20:10Z</time>
      </trkpt>
      <trkpt lat="41.456513" lon="-8.142705">
        <ele>397.129</ele>
        <time>2021-08-03T19:21:11Z</time>
      </trkpt>
      <trkpt lat="41.455605" lon="-8.143058">
        <ele>398.984</ele>
        <time>2021-08-03T19:22:11Z</time>
      </trkpt>
      <trkpt lat="41.455012" lon="-8.143520">
        <ele>400.032</ele>
        <time>2021-08-03T19:23:11Z</time>
      </trkpt>
      <trkpt lat="41.454369" lon="-8.144302">
        <ele>403.433</ele>
        <time>2021-08-03T19:24:12Z</time>
      </trkpt>
      <trkpt lat="41.452974" lon="-8.147080">
        <ele>402.175</ele>
        <time>2021-08-03T19:25:12Z</time>
      </trkpt>
      <trkpt lat="41.451344" lon="-8.148809">
        <ele>397.985</ele>
        <time>2021-08-03T19:26:12Z</time>
      </trkpt>
      <trkpt lat="41.451007" lon="-8.149380">
        <ele>394.564</ele>
        <time>2021-08-03T19:27:13Z</time>
      </trkpt>
      <trkpt lat="41.450588" lon="-8.150762">
        <ele>384.006</ele>
        <time>2021-08-03T19:28:13Z</time>
      </trkpt>
      <trkpt lat="41.450329" lon="-8.152886">
        <ele>374.616</ele>
        <time>2021-08-03T19:29:14Z</time>
      </trkpt>
      <trkpt lat="41.449949" lon="-8.154311">
        <ele>375.308</ele>
        <time>2021-08-03T19:30:14Z</time>
      </trkpt>
      <trkpt lat="41.448003" lon="-8.157982">
        <ele>365.533</ele>
        <time>2021-08-03T19:31:15Z</time>
      </trkpt>
      <trkpt lat="41.447746" lon="-8.159243">
        <ele>361.125</ele>
        <time>2021-08-03T19:32:15Z</time>
      </trkpt>
      <trkpt lat="41.447540" lon="-8.161892">
        <ele>343.984</ele>
        <time>2021-08-03T19:33:16Z</time>
      </trkpt>
      <trkpt lat="41.447230" lon="-8.162354">
        <ele>335.169</ele>
        <time>2021-08-03T19:34:17Z</time>
      </trkpt>
      <trkpt lat="41.446938" lon="-8.162378">
        <ele>335.547</ele>
        <time>2021-08-03T19:35:17Z</time>
      </trkpt>
      <trkpt lat="41.445422" lon="-8.163231">
        <ele>341.568</ele>
        <time>2021-08-03T19:36:18Z</time>
      </trkpt>
      <trkpt lat="41.444880" lon="-8.163949">
        <ele>328.410</ele>
        <time>2021-08-03T19:37:18Z</time>
      </trkpt>
      <trkpt lat="41.444712" lon="-8.164774">
        <ele>321.270</ele>
        <time>2021-08-03T19:38:19Z</time>
      </trkpt>
      <trkpt lat="41.444786" lon="-8.165404">
        <ele>317.629</ele>
        <time>2021-08-03T19:39:20Z</time>
      </trkpt>
      <trkpt lat="41.445607" lon="-8.168005">
        <ele>321.300</ele>
        <time>2021-08-03T19:40:21Z</time>
      </trkpt>
      <trkpt lat="41.445654" lon="-8.168583">
        <ele>326.820</ele>
        <time>2021-08-03T19:41:21Z</time>
      </trkpt>
      <trkpt lat="41.445357" lon="-8.169421">
        <ele>332.008</ele>
        <time>2021-08-03T19:42:22Z</time>
      </trkpt>
      <trkpt lat="41.444618" lon="-8.170271">
        <ele>336.199</ele>
        <time>2021-08-03T19:43:23Z</time>
      </trkpt>
      <trkpt lat="41.444355" lon="-8.171379">
        <ele>337.951</ele>
        <time>2021-08-03T19:44:24Z</time>
      </trkpt>
      <trkpt lat="41.444566" lon="-8.172387">
        <ele>342.730</ele>
        <time>2021-08-03T19:45:24Z</time>
      </trkpt>
      <trkpt lat="41.444654" lon="-8.173739">
        <ele>345.495</ele>
        <time>2021-08-03T19:46:25Z</time>
      </trkpt>
      <trkpt lat="41.445817" lon="-8.176068">
        <ele>347.363</ele>
        <time>2021-08-03T19:47:26Z</time>
      </trkpt>
      <trkpt lat="41.446978" lon="-8.175243">
        <ele>339.734</ele>
        <time>2021-08-03T19:48:27Z</time>
      </trkpt>
      <trkpt lat="41.447824" lon="-8.174981">
        <ele>336.686</ele>
        <time>2021-08-03T19:49:28Z</time>
      </trkpt>
      <trkpt lat="41.449088" lon="-8.175052">
        <ele>332.566</ele>
        <time>2021-08-03T19:50:29Z</time>
      </trkpt>
      <trkpt lat="41.450317" lon="-8.175754">
        <ele>329.325</ele>
        <time>2021-08-03T19:51:30Z</time>
      </trkpt>
      <trkpt lat="41.450724" lon="-8.175475">
        <ele>327.926</ele>
        <time>2021-08-03T19:52:31Z</time>
      </trkpt>
      <trkpt lat="41.451160" lon="-8.177162">
        <ele>324.408</ele>
        <time>2021-08-03T19:53:32Z</time>
      </trkpt>
      <trkpt lat="41.453268" lon="-8.178831">
        <ele>317.308</ele>
        <time>2021-08-03T19:54:33Z</time>
      </trkpt>
      <trkpt lat="41.453753" lon="-8.179976">
        <ele>311.959</ele>
        <time>2021-08-03T19:55:34Z</time>
      </trkpt>
      <trkpt lat="41.453856" lon="-8.179968">
        <ele>311.061</ele>
        <time>2021-08-03T19:56:35Z</time>
      </trkpt>
      <trkpt lat="41.453753" lon="-8.179976">
        <ele>311.910</ele>
        <time>2021-08-03T19:57:36Z</time>
      </trkpt>
      <trkpt lat="41.453272" lon="-8.182053">
        <ele>304.485</ele>
        <time>2021-08-03T19:58:37Z</time>
      </trkpt>
      <trkpt lat="41.451603" lon="-8.184781">
        <ele>302.723</ele>
        <time>2021-08-03T19:59:38Z</time>
      </trkpt>
      <trkpt lat="41.451208" lon="-8.185681">
        <ele>300.344</ele>
        <time>2021-08-03T20:00:39Z</time>
      </trkpt>
      <trkpt lat="41.451135" lon="-8.187808">
        <ele>301.366</ele>
        <time>2021-08-03T20:01:41Z</time>
      </trkpt>
      <trkpt lat="41.451330" lon="-8.189535">
        <ele>291.836</ele>
        <time>2021-08-03T20:02:42Z</time>
      </trkpt>
      <trkpt lat="41.451122" lon="-8.190569">
        <ele>288.719</ele>
        <time>2021-08-03T20:03:43Z</time>
      </trkpt>
      <trkpt lat="41.450816" lon="-8.191105">
        <ele>289.409</ele>
        <time>2021-08-03T20:04:44Z</time>
      </trkpt>
      <trkpt lat="41.450410" lon="-8.191397">
        <ele>293.419</ele>
        <time>2021-08-03T20:05:45Z</time>
      </trkpt>
      <trkpt lat="41.449754" lon="-8.191526">
        <ele>295.208</ele>
        <time>2021-08-03T20:06:47Z</time>
      </trkpt>
      <trkpt lat="41.447922" lon="-8.190656">
        <ele>281.088</ele>
        <time>2021-08-03T20:07:48Z</time>
      </trkpt>
      <trkpt lat="41.447314" lon="-8.190622">
        <ele>283.520</ele>
        <time>2021-08-03T20:08:49Z</time>
      </trkpt>
      <trkpt lat="41.446898" lon="-8.190754">
        <ele>287.019</ele>
        <time>2021-08-03T20:09:51Z</time>
      </trkpt>
      <trkpt lat="41.445422" lon="-8.191699">
        <ele>277.754</ele>
        <time>2021-08-03T20:10:52Z</time>
      </trkpt>
      <trkpt lat="41.445006" lon="-8.192402">
        <ele>281.812</ele>
        <time>2021-08-03T20:11:53Z</time>
      </trkpt>
      <trkpt lat="41.444664" lon="-8.193537">
        <ele>277.463</ele>
        <time>2021-08-03T20:12:55Z</time>
      </trkpt>
      <trkpt lat="41.444028" lon="-8.194916">
        <ele>272.515</ele>
        <time>2021-08-03T20:13:56Z</time>
      </trkpt>
      <trkpt lat="41.443707" lon="-8.195388">
        <ele>271.185</ele>
        <time>2021-08-03T20:14:57Z</time>
      </trkpt>
      <trkpt lat="41.441931" lon="-8.196813">
        <ele>268.526</ele>
        <time>2021-08-03T20:15:59Z</time>
      </trkpt>
      <trkpt lat="41.441654" lon="-8.197234">
        <ele>265.047</ele>
        <time>2021-08-03T20:17:00Z</time>
      </trkpt>
      <trkpt lat="41.441068" lon="-8.199401">
        <ele>263.211</ele>
        <time>2021-08-03T20:18:02Z</time>
      </trkpt>
      <trkpt lat="41.440731" lon="-8.199949">
        <ele>262.608</ele>
        <time>2021-08-03T20:19:03Z</time>
      </trkpt>
      <trkpt lat="41.436970" lon="-8.204212">
        <ele>252.719</ele>
        <time>2021-08-03T20:20:05Z</time>
      </trkpt>
      <trkpt lat="41.435343" lon="-8.207085">
        <ele>249.161</ele>
        <time>2021-08-03T20:21:07Z</time>
      </trkpt>
      <trkpt lat="41.434176" lon="-8.207526">
        <ele>245.120</ele>
        <time>2021-08-03T20:22:08Z</time>
      </trkpt>
      <trkpt lat="41.433415" lon="-8.208036">
        <ele>247.735</ele>
        <time>2021-08-03T20:23:10Z</time>
      </trkpt>
      <trkpt lat="41.431133" lon="-8.209002">
        <ele>243.093</ele>
        <time>2021-08-03T20:24:12Z</time>
      </trkpt>
      <trkpt lat="41.428957" lon="-8.210310">
        <ele>239.794</ele>
        <time>2021-08-03T20:25:13Z</time>
      </trkpt>
      <trkpt lat="41.425636" lon="-8.210932">
        <ele>235.936</ele>
        <time>2021-08-03T20:26:15Z</time>
      </trkpt>
      <trkpt lat="41.422864" lon="-8.213224">
        <ele>240.026</ele>
        <time>2021-08-03T20:27:17Z</time>
      </trkpt>
      <trkpt lat="41.420867" lon="-8.215768">
        <ele>251.994</ele>
        <time>2021-08-03T20:28:19Z</time>
      </trkpt>
      <trkpt lat="41.420674" lon="-8.216187">
        <ele>248.757</ele>
        <time>2021-08-03T20:29:21Z</time>
      </trkpt>
      <trkpt lat="41.420130" lon="-8.215188">
        <ele>234.722</ele>
        <time>2021-08-03T20:30:23Z</time>
      </trkpt>
      <trkpt lat="41.419486" lon="-8.215345">
        <ele>229.008</ele>
        <time>2021-08-03T20:31:25Z</time>
      </trkpt>
      <trkpt lat="41.419340" lon="-8.215575">
        <ele>230.446</ele>
        <time>2021-08-03T20:32:27Z</time>
      </trkpt>
      <trkpt lat="41.417074" lon="-8.216721">
        <ele>226.388</ele>
        <time>2021-08-03T20:33:29Z</time>
      </trkpt>
      <trkpt lat="41.414817" lon="-8.217326">
        <ele>217.057</ele>
        <time>2021-08-03T20:34:31Z</time>
      </trkpt>
      <trkpt lat="41.414395" lon="-8.217717">
        <ele>217.972</ele>
        <time>2021-08-03T20:35:33Z</time>
      </trkpt>
      <trkpt lat="41.414059" lon="-8.218176">
        <ele>220.670</ele>
        <time>2021-08-03T20:36:35Z</time>
      </trkpt>
      <trkpt lat="41.413739" lon="-8.219247">
        <ele>226.231</ele>
        <time>2021-08-03T20:37:38Z</time>
      </trkpt>
      <trkpt lat="41.412315" lon="-8.220718">
        <ele>218.373</ele>
        <time>2021-08-03T20:38:40Z</time>
      </trkpt>
      <trkpt lat="41.412198" lon="-8.221191">
        <ele>214.983</ele>
        <time>2021-08-03T20:39:42Z</time>
      </trkpt>
      <trkpt lat="41.412218" lon="-8.222366">
        <ele>212.963</ele>
        <time>2021-08-03T20:40:44Z</time>
      </trkpt>
      <trkpt lat="41.412401" lon="-8.222907">
        <ele>211.344</ele>
        <time>2021-08-03T20:41:46Z</time>
      </trkpt>
      <trkpt lat="41.412711" lon="-8.223307">
        <ele>212.618</ele>
        <time>2021-08-03T20:42:48Z</time>
      </trkpt>
      <trkpt lat="41.412813" lon="-8.224339">
        <ele>211.508</ele>
        <time>2021-08-03T20:43:51Z</time>
      </trkpt>
      <trkpt lat="41.413230" lon="-8.225453">
        <ele>211.463</ele>
        <time>2021-08-03T20:44:53Z</time>
      </trkpt>
      <trkpt lat="41.413401" lon="-8.225565">
        <ele>211.165</ele>
        <time>2021-08-03T20:45:55Z</time>
      </trkpt>
      <trkpt lat="41.414883" lon="-8.225600">
        <ele>217.034</ele>
        <time>2021-08-03T20:46:57Z</time>
      </trkpt>
      <trkpt lat="41.415093" lon="-8.225946">
        <ele>215.539</ele>
        <time>2021-08-03T20:48:00Z</time>
      </trkpt>
      <trkpt lat="41.415187" lon="-8.227822">
        <ele>208.227</ele>
        <time>2021-08-03T20:49:02Z</time>
      </trkpt>
      <trkpt lat="41.415746" lon="-8.229658">
        <ele>203.388</ele>
        <time>2021-08-03T20:50:04Z</time>
      </trkpt>
      <trkpt lat="41.415676" lon="-8.230138">
        <ele>200.170</ele>
        <time>2021-08-03T20:51:07Z</time>
      </trkpt>
      <trkpt lat="41.415360" lon="-8.230678">
        <ele>198.950</ele>
        <time>2021-08-03T20:52:09Z</time>
      </trkpt>
      <trkpt lat="41.415219" lon="-8.231298">
        <ele>197.545</ele>
        <time>2021-08-03T20:53:11Z</time>
      </trkpt>
      <trkpt lat="41.415352" lon="-8.232569">
        <ele>188.747</ele>
        <time>2021-08-03T20:54:14Z</time>
      </trkpt>
      <trkpt lat="41.415801" lon="-8.233135">
        <ele>185.011</ele>
        <time>2021-08-03T20:55:16Z</time>
      </trkpt>
      <trkpt lat="41.415789" lon="-8.233412">
        <ele>184.908</ele>
        <time>2021-08-03T20:56:18Z</time>
      </trkpt>
      <trkpt lat="41.415564" lon="-8.233697">
        <ele>190.191</ele>
        <time>2021-08-03T20:57:21Z</time>
      </trkpt>
      <trkpt lat="41.414889" lon="-8.233711">
        <ele>195.913</ele>
        <time>2021-08-03T20:58:23Z</time>
      </trkpt>
      <trkpt lat="41.414322" lon="-8.233542">
        <ele>198.172</ele>
        <time>2021-08-03T20:59:26Z</time>
      </trkpt>
      <trkpt lat="41.413648" lon="-8.233919">
        <ele>204.527</ele>
        <time>2021-08-03T21:00:28Z</time>
      </trkpt>
      <trkpt lat="41.413117" lon="-8.233773">
        <ele>206.475</ele>
        <time>2021-08-03T21:01:30Z</time>
      </trkpt>
      <trkpt lat="41.411659" lon="-8.232574">
        <ele>212.786</ele>
        <time>2021-08-03T21:02:33Z</time>
      </trkpt>
      <trkpt lat="41.411343" lon="-8.232070">
        <ele>214.738</ele>
        <time>2021-08-03T21:03:35Z</time>
      </trkpt>
      <trkpt lat="41.411131" lon="-8.232085">
        <ele>217.468</ele>
        <time>2021-08-03T21:04:38Z</time>
      </trkpt>
      <trkpt lat="41.410799" lon="-8.231452">
        <ele>211.039</ele>
        <time>2021-08-03T21:05:40Z</time>
      </trkpt>
      <trkpt lat="41.410168" lon="-8.230817">
        <ele>210.601</ele>
        <time>2021-08-03T21:06:43Z</time>
      </trkpt>
      <trkpt lat="41.409911" lon="-8.229615">
        <ele>201.821</ele>
        <time>2021-08-03T21:07:45Z</time>
      </trkpt>
      <trkpt lat="41.409203" lon="-8.228954">
        <ele>199.308</ele>
        <time>2021-08-03T21:08:48Z</time>
      </trkpt>
      <trkpt lat="41.408733" lon="-8.228791">
        <ele>196.620</ele>
        <time>2021-08-03T21:09:50Z</time>
      </trkpt>
      <trkpt lat="41.408062" lon="-8.228763">
        <ele>194.672</ele>
        <time>2021-08-03T21:10:53Z</time>
      </trkpt>
      <trkpt lat="41.406930" lon="-8.229100">
        <ele>189.541</ele>
        <time>2021-08-03T21:11:56Z</time>
      </trkpt>
      <trkpt lat="41.404688" lon="-8.228653">
        <ele>173.386</ele>
        <time>2021-08-03T21:12:58Z</time>
      </trkpt>
      <trkpt lat="41.404202" lon="-8.228368">
        <ele>167.854</ele>
        <time>2021-08-03T21:14:01Z</time>
      </trkpt>
      <trkpt lat="41.404015" lon="-8.228107">
        <ele>165.795</ele>
        <time>2021-08-03T21:15:03Z</time>
      </trkpt>
      <trkpt lat="41.403782" lon="-8.227238">
        <ele>163.767</ele>
        <time>2021-08-03T21:16:06Z</time>
      </trkpt>
      <trkpt lat="41.403590" lon="-8.227349">
        <ele>161.067</ele>
        <time>2021-08-03T21:17:09Z</time>
      </trkpt>
      <trkpt lat="41.403350" lon="-8.228053">
        <ele>158.248</ele>
        <time>2021-08-03T21:18:11Z</time>
      </trkpt>
      <trkpt lat="41.402789" lon="-8.228315">
        <ele>157.961</ele>
        <time>2021-08-03T21:19:14Z</time>
      </trkpt>
      <trkpt lat="41.401986" lon="-8.228988">
        <ele>159.817</ele>
        <time>2021-08-03T21:20:17Z</time>
      </trkpt>
      <trkpt lat="41.401779" lon="-8.229023">
        <ele>160.408</ele>
        <time>2021-08-03T21:21:20Z</time>
      </trkpt>
      <trkpt lat="41.400809" lon="-8.228457">
        <ele>160.221</ele>
        <time>2021-08-03T21:22:22Z</time>
      </trkpt>
      <trkpt lat="41.399630" lon="-8.228641">
        <ele>158.853</ele>
        <time>2021-08-03T21:23:25Z</time>
      </trkpt>
      <trkpt lat="41.398097" lon="-8.229331">
        <ele>179.082</ele>
        <time>2021-08-03T21:24:28Z</time>
      </trkpt>
      <trkpt lat="41.397212" lon="-8.229308">
        <ele>177.537</ele>
        <time>2021-08-03T21:25:31Z</time>
      </trkpt>
      <trkpt lat="41.396312" lon="-8.229792">
        <ele>181.015</ele>
        <time>2021-08-03T21:26:33Z</time>
      </trkpt>
      <trkpt lat="41.395557" lon="-8.230819">
        <ele>188.566</ele>
        <time>2021-08-03T21:27:36Z</time>
      </trkpt>
      <trkpt lat="41.395417" lon="-8.233236">
        <ele>179.748</ele>
        <time>2021-08-03T21:28:39Z</time>
      </trkpt>
      <trkpt lat="41.395205" lon="-8.233697">
        <ele>177.268</ele>
        <time>2021-08-03T21:29:42Z</time>
      </trkpt>
      <trkpt lat="41.394578" lon="-8.234250">
        <ele>165.569</ele>
        <time>2021-08-03T21:30:45Z</time>
      </trkpt>
      <trkpt lat="41.394386" lon="-8.236283">
        <ele>159.704</ele>
        <time>2021-08-03T21:31:48Z</time>
      </trkpt>
      <trkpt lat="41.393524" lon="-8.238410">
        <ele>159.524</ele>
        <time>2021-08-03T21:32:51Z</time>
      </trkpt>
      <trkpt lat="41.392887" lon="-8.239126">
        <ele>157.908</ele>
        <time>2021-08-03T21:33:54Z</time>
      </trkpt>
      <trkpt lat="41.391988" lon="-8.240789">
        <ele>152.913</ele>
        <time>2021-08-03T21:34:57Z</time>
      </trkpt>
      <trkpt lat="41.392133" lon="-8.243120">
        <ele>156.585</ele>
        <time>2021-08-03T21:36:00Z</time>
      </trkpt>
      <trkpt lat="41.392070" lon="-8.243838">
        <ele>155.864</ele>
        <time>2021-08-03T21:37:03Z</time>
      </trkpt>
      <trkpt lat="41.391907" lon="-8.244091">
        <ele>153.159</ele>
        <time>2021-08-03T21:38:06Z</time>
      </trkpt>
      <trkpt lat="41.390479" lon="-8.245025">
        <ele>152.977</ele>
        <time>2021-08-03T21:39:09Z</time>
      </trkpt>
      <trkpt lat="41.389804" lon="-8.245858">
        <ele>155.878</ele>
        <time>2021-08-03T21:40:12Z</time>
      </trkpt>
      <trkpt lat="41.387966" lon="-8.250440">
        <ele>149.860</ele>
        <time>2021-08-03T21:41:15Z</time>
      </trkpt>
      <trkpt lat="41.386288" lon="-8.253436">
        <ele>151.680</ele>
        <time>2021-08-03T21:42:18Z</time>
      </trkpt>
      <trkpt lat="41.385329" lon="-8.256748">
        <ele>148.189</ele>
        <time>2021-08-03T21:43:22Z</time>
      </trkpt>
      <trkpt lat="41.384231" lon="-8.257763">
        <ele>153.306</ele>
        <time>2021-08-03T21:44:25Z</time>
      </trkpt>
      <trkpt lat="41.383206" lon="-8.257995">
        <ele>155.226</ele>
        <time>2021-08-03T21:45:28Z</time>
      </trkpt>
      <trkpt lat="41.382945" lon="-8.258194">
        <ele>155.908</ele>
        <time>2021-08-03T21:46:32Z</time>
      </trkpt>
      <trkpt lat="41.382035" lon="-8.260104">
        <ele>158.745</ele>
        <time>2021-08-03T21:47:35Z</time>
      </trkpt>
      <trkpt lat="41.381556" lon="-8.260456">
        <ele>156.027</ele>
        <time>2021-08-03T21:48:38Z</time>
      </trkpt>
      <trkpt lat="41.381040" lon="-8.261321">
        <ele>160.846</ele>
        <time>2021-08-03T21:49:42Z</time>
      </trkpt>
      <trkpt lat="41.379751" lon="-8.262132">
        <ele>164.371</ele>
        <time>2021-08-03T21:50:45Z</time>
      </trkpt>
      <trkpt lat="41.377335" lon="-8.265377">
        <ele>167.589</ele>
        <time>2021-08-03T21:51:49Z</time>
      </trkpt>
      <trkpt lat="41.376045" lon="-8.266404">
        <ele>166.250</ele>
        <time>2021-08-03T21:52:52Z</time>
      </trkpt>
      <trkpt lat="41.374513" lon="-8.268762">
        <ele>172.822</ele>
        <time>2021-08-03T21:53:56Z</time>
      </trkpt>
      <trkpt lat="41.374192" lon="-8.269567">
        <ele>175.732</ele>
        <time>2021-08-03T21:54:59Z</time>
      </trkpt>
      <trkpt lat="41.374071" lon="-8.270594">
        <ele>163.573</ele>
        <time>2021-08-03T21:56:03Z</time>
      </trkpt>
      <trkpt lat="41.374149" lon="-8.270856">
        <ele>158.785</ele>
        <time>2021-08-03T21:57:06Z</time>
      </trkpt>
      <trkpt lat="41.374304" lon="-8.270993">
        <ele>157.013</ele>
        <time>2021-08-03T21:58:10Z</time>
      </trkpt>
      <trkpt lat="41.375042" lon="-8.270967">
        <ele>153.908</ele>
        <time>2021-08-03T21:59:14Z</time>
      </trkpt>
      <trkpt lat="41.375682" lon="-8.271203">
        <ele>151.924</ele>
        <time>2021-08-03T22:00:17Z</time>
      </trkpt>
      <trkpt lat="41.375842" lon="-8.271687">
        <ele>150.986</ele>
        <time>2021-08-03T22:01:21Z</time>
      </trkpt>
      <trkpt lat="41.374906" lon="-8.273106">
        <ele>150.255</ele>
        <time>2021-08-03T22:02:25Z</time>
      </trkpt>
      <trkpt lat="41.374458" lon="-8.275187">
        <ele>150.320</ele>
        <time>2021-08-03T22:03:28Z</time>
      </trkpt>
      <trkpt lat="41.373666" lon="-8.276901">
        <ele>156.858</ele>
        <time>2021-08-03T22:04:32Z</time>
      </trkpt>
      <trkpt lat="41.373581" lon="-8.277664">
        <ele>153.439</ele>
        <time>2021-08-03T22:05:36Z</time>
      </trkpt>
      <trkpt lat="41.373781" lon="-8.278397">
        <ele>148.061</ele>
        <time>2021-08-03T22:06:39Z</time>
      </trkpt>
      <trkpt lat="41.373802" lon="-8.279609">
        <ele>145.571</ele>
        <time>2021-08-03T22:07:43Z</time>
      </trkpt>
      <trkpt lat="41.373156" lon="-8.280933">
        <ele>142.971</ele>
        <time>2021-08-03T22:08:47Z</time>
      </trkpt>
      <trkpt lat="41.372912" lon="-8.282789">
        <ele>139.941</ele>
        <time>2021-08-03T22:09:51Z</time>
      </trkpt>
      <trkpt lat="41.372090" lon="-8.285263">
        <ele>142.115</ele>
        <time>2021-08-03T22:10:55Z</time>
      </trkpt>
      <trkpt lat="41.371483" lon="-8.286236">
        <ele>147.408</ele>
        <time>2021-08-03T22:11:58Z</time>
      </trkpt>
      <trkpt lat="41.370836" lon="-8.287700">
        <ele>155.174</ele>
        <time>2021-08-03T22:13:02Z</time>
      </trkpt>
      <trkpt lat="41.370901" lon="-8.288276">
        <ele>159.656</ele>
        <time>2021-08-03T22:14:06Z</time>
      </trkpt>
      <trkpt lat="41.371741" lon="-8.288895">
        <ele>162.325</ele>
        <time>2021-08-03T22:15:10Z</time>
      </trkpt>
      <trkpt lat="41.372517" lon="-8.290347">
        <ele>161.680</ele>
        <time>2021-08-03T22:16:14Z</time>
      </trkpt>
      <trkpt lat="41.372912" lon="-8.290518">
        <ele>159.178</ele>
        <time>2021-08-03T22:17:18Z</time>
      </trkpt>
      <trkpt lat="41.373152" lon="-8.290797">
        <ele>157.119</ele>
        <time>2021-08-03T22:18:22Z</time>
      </trkpt>
      <trkpt lat="41.373274" lon="-8.292173">
        <ele>158.551</ele>
        <time>2021-08-03T22:19:26Z</time>
      </trkpt>
      <trkpt lat="41.373157" lon="-8.292544">
        <ele>159.891</ele>
        <time>2021-08-03T22:20:30Z</time>
      </trkpt>
      <trkpt lat="41.371609" lon="-8.293562">
        <ele>163.799</ele>
        <time>2021-08-03T22:21:34Z</time>
      </trkpt>
      <trkpt lat="41.371047" lon="-8.294920">
        <ele>167.307</ele>
        <time>2021-08-03T22:22:38Z</time>
      </trkpt>
      <trkpt lat="41.371027" lon="-8.295493">
        <ele>165.027</ele>
        <time>2021-08-03T22:23:42Z</time>
      </trkpt>
      <trkpt lat="41.371246" lon="-8.295903">
        <ele>163.108</ele>
        <time>2021-08-03T22:24:46Z</time>
      </trkpt>
      <trkpt lat="41.371904" lon="-8.296357">
        <ele>165.266</ele>
        <time>2021-08-03T22:25:50Z</time>
      </trkpt>
      <trkpt lat="41.372130" lon="-8.297470">
        <ele>161.258</ele>
        <time>2021-08-03T22:26:54Z</time>
      </trkpt>
      <trkpt lat="41.372644" lon="-8.298708">
        <ele>162.477</ele>
        <time>2021-08-03T22:27:58Z</time>
      </trkpt>
      <trkpt lat="41.373409" lon="-8.298908">
        <ele>170.592</ele>
        <time>2021-08-03T22:29:02Z</time>
      </trkpt>
      <trkpt lat="41.373705" lon="-8.299590">
        <ele>167.240</ele>
        <time>2021-08-03T22:30:06Z</time>
      </trkpt>
      <trkpt lat="41.374647" lon="-8.300652">
        <ele>163.091</ele>
        <time>2021-08-03T22:31:11Z</time>
      </trkpt>
      <trkpt lat="41.375101" lon="-8.300949">
        <ele>167.363</ele>
        <time>2021-08-03T22:32:15Z</time>
      </trkpt>
      <trkpt lat="41.375320" lon="-8.301938">
        <ele>163.963</ele>
        <time>2021-08-03T22:33:19Z</time>
      </trkpt>
      <trkpt lat="41.375030" lon="-8.303126">
        <ele>157.748</ele>
        <time>2021-08-03T22:34:23Z</time>
      </trkpt>
      <trkpt lat="41.375101" lon="-8.303855">
        <ele>159.961</ele>
        <time>2021-08-03T22:35:27Z</time>
      </trkpt>
      <trkpt lat="41.375438" lon="-8.303841">
        <ele>159.417</ele>
        <time>2021-08-03T22:36:31Z</time>
      </trkpt>
      <trkpt lat="41.375934" lon="-8.302494">
        <ele>165.408</ele>
        <time>2021-08-03T22:37:36Z</time>
      </trkpt>
      <trkpt lat="41.376292" lon="-8.302271">
        <ele>174.421</ele>
        <time>2021-08-03T22:38:40Z</time>
      </trkpt>
      <trkpt lat="41.376564" lon="-8.302274">
        <ele>178.823</ele>
        <time>2021-08-03T22:39:44Z</time>
      </trkpt>
      <trkpt lat="41.377032" lon="-8.302619">
        <ele>175.352</ele>
        <time>2021-08-03T22:40:48Z</time>
      </trkpt>
      <trkpt lat="41.377208" lon="-8.302376">
        <ele>178.627</ele>
        <time>2021-08-03T22:41:53Z</time>
      </trkpt>
      <trkpt lat="41.377168" lon="-8.302222">
        <ele>179.835</ele>
        <time>2021-08-03T22:42:57Z</time>
      </trkpt>
      <trkpt lat="41.378103" lon="-8.302731">
        <ele>173.226</ele>
        <time>2021-08-03T22:44:01Z</time>
      </trkpt>
      <trkpt lat="41.379249" lon="-8.302975">
        <ele>167.748</ele>
        <time>2021-08-03T22:45:05Z</time>
      </trkpt>
      <trkpt lat="41.379532" lon="-8.303202">
        <ele>164.438</ele>
        <time>2021-08-03T22:46:10Z</time>
      </trkpt>
    </trkseg>
  </trk>
</gpx>
